<?xml version="1.0" encoding="UTF-8"?>
<gpx creator="StravaGPX Android" version="1.1" xmlns="http://www.topografix.com/GPX/1/1" xmlns:xsi="http://www.w3.org/2001/XMLSchema-instance" xsi:schemaLocation="http://www.topografix.com/GPX/1/1 http://www.topografix.com/GPX/1/1/gpx.xsd">
 <metadata>
  <time>2018-01-27T06:21:54Z</time>
 </metadata>
 <trk>
  <name>Kaeng krachan 2018 Saturday</name>
  <trkseg>
   <trkpt lat="12.8993150" lon="99.6802720">
    <ele>108.7</ele>
    <time>2018-01-27T06:21:54Z</time>
   </trkpt>
   <trkpt lat="12.8992870" lon="99.6802610">
    <ele>108.7</ele>
    <time>2018-01-27T06:22:00Z</time>
   </trkpt>
   <trkpt lat="12.8992490" lon="99.6802620">
    <ele>108.7</ele>
    <time>2018-01-27T06:22:38Z</time>
   </trkpt>
   <trkpt lat="12.8992150" lon="99.6802910">
    <ele>108.8</ele>
    <time>2018-01-27T06:22:40Z</time>
   </trkpt>
   <trkpt lat="12.8992100" lon="99.6803430">
    <ele>109.1</ele>
    <time>2018-01-27T06:22:42Z</time>
   </trkpt>
   <trkpt lat="12.8992240" lon="99.6803730">
    <ele>109.3</ele>
    <time>2018-01-27T06:22:43Z</time>
   </trkpt>
   <trkpt lat="12.8992450" lon="99.6804080">
    <ele>109.3</ele>
    <time>2018-01-27T06:22:44Z</time>
   </trkpt>
   <trkpt lat="12.8992700" lon="99.6804450">
    <ele>109.6</ele>
    <time>2018-01-27T06:22:45Z</time>
   </trkpt>
   <trkpt lat="12.8992970" lon="99.6804820">
    <ele>109.7</ele>
    <time>2018-01-27T06:22:46Z</time>
   </trkpt>
   <trkpt lat="12.8993480" lon="99.6805220">
    <ele>109.8</ele>
    <time>2018-01-27T06:22:47Z</time>
   </trkpt>
   <trkpt lat="12.8993740" lon="99.6805580">
    <ele>109.9</ele>
    <time>2018-01-27T06:22:48Z</time>
   </trkpt>
   <trkpt lat="12.8994170" lon="99.6806090">
    <ele>109.7</ele>
    <time>2018-01-27T06:22:49Z</time>
   </trkpt>
   <trkpt lat="12.8994740" lon="99.6806390">
    <ele>109.3</ele>
    <time>2018-01-27T06:22:50Z</time>
   </trkpt>
   <trkpt lat="12.8995190" lon="99.6806710">
    <ele>109.0</ele>
    <time>2018-01-27T06:22:51Z</time>
   </trkpt>
   <trkpt lat="12.8995570" lon="99.6807090">
    <ele>108.8</ele>
    <time>2018-01-27T06:22:52Z</time>
   </trkpt>
   <trkpt lat="12.8995960" lon="99.6807140">
    <ele>108.7</ele>
    <time>2018-01-27T06:22:53Z</time>
   </trkpt>
   <trkpt lat="12.8996320" lon="99.6807310">
    <ele>108.4</ele>
    <time>2018-01-27T06:22:54Z</time>
   </trkpt>
   <trkpt lat="12.8996850" lon="99.6807350">
    <ele>108.1</ele>
    <time>2018-01-27T06:22:55Z</time>
   </trkpt>
   <trkpt lat="12.8997320" lon="99.6807270">
    <ele>107.9</ele>
    <time>2018-01-27T06:22:56Z</time>
   </trkpt>
   <trkpt lat="12.8997770" lon="99.6807180">
    <ele>107.8</ele>
    <time>2018-01-27T06:22:57Z</time>
   </trkpt>
   <trkpt lat="12.8998220" lon="99.6807150">
    <ele>107.8</ele>
    <time>2018-01-27T06:22:58Z</time>
   </trkpt>
   <trkpt lat="12.8998790" lon="99.6806990">
    <ele>107.9</ele>
    <time>2018-01-27T06:22:59Z</time>
   </trkpt>
   <trkpt lat="12.8999260" lon="99.6806870">
    <ele>107.9</ele>
    <time>2018-01-27T06:23:00Z</time>
   </trkpt>
   <trkpt lat="12.8999800" lon="99.6806650">
    <ele>108.0</ele>
    <time>2018-01-27T06:23:01Z</time>
   </trkpt>
   <trkpt lat="12.9000320" lon="99.6806720">
    <ele>106.5</ele>
    <time>2018-01-27T06:23:02Z</time>
   </trkpt>
   <trkpt lat="12.9000780" lon="99.6807010">
    <ele>106.4</ele>
    <time>2018-01-27T06:23:03Z</time>
   </trkpt>
   <trkpt lat="12.9001170" lon="99.6807470">
    <ele>106.2</ele>
    <time>2018-01-27T06:23:04Z</time>
   </trkpt>
   <trkpt lat="12.9001480" lon="99.6808020">
    <ele>106.2</ele>
    <time>2018-01-27T06:23:05Z</time>
   </trkpt>
   <trkpt lat="12.9001770" lon="99.6808680">
    <ele>106.1</ele>
    <time>2018-01-27T06:23:06Z</time>
   </trkpt>
   <trkpt lat="12.9002010" lon="99.6809360">
    <ele>106.0</ele>
    <time>2018-01-27T06:23:07Z</time>
   </trkpt>
   <trkpt lat="12.9002230" lon="99.6810060">
    <ele>106.0</ele>
    <time>2018-01-27T06:23:08Z</time>
   </trkpt>
   <trkpt lat="12.9002470" lon="99.6810700">
    <ele>105.9</ele>
    <time>2018-01-27T06:23:09Z</time>
   </trkpt>
   <trkpt lat="12.9002700" lon="99.6811390">
    <ele>105.9</ele>
    <time>2018-01-27T06:23:10Z</time>
   </trkpt>
   <trkpt lat="12.9002820" lon="99.6812130">
    <ele>105.8</ele>
    <time>2018-01-27T06:23:11Z</time>
   </trkpt>
   <trkpt lat="12.9003010" lon="99.6812870">
    <ele>105.7</ele>
    <time>2018-01-27T06:23:12Z</time>
   </trkpt>
   <trkpt lat="12.9003290" lon="99.6813610">
    <ele>105.7</ele>
    <time>2018-01-27T06:23:13Z</time>
   </trkpt>
   <trkpt lat="12.9003190" lon="99.6814290">
    <ele>105.6</ele>
    <time>2018-01-27T06:23:14Z</time>
   </trkpt>
   <trkpt lat="12.9002850" lon="99.6814890">
    <ele>105.6</ele>
    <time>2018-01-27T06:23:15Z</time>
   </trkpt>
   <trkpt lat="12.9002350" lon="99.6815430">
    <ele>105.5</ele>
    <time>2018-01-27T06:23:16Z</time>
   </trkpt>
   <trkpt lat="12.9001980" lon="99.6815930">
    <ele>105.4</ele>
    <time>2018-01-27T06:23:17Z</time>
   </trkpt>
   <trkpt lat="12.9001980" lon="99.6816610">
    <ele>105.3</ele>
    <time>2018-01-27T06:23:18Z</time>
   </trkpt>
   <trkpt lat="12.9002270" lon="99.6817270">
    <ele>105.2</ele>
    <time>2018-01-27T06:23:19Z</time>
   </trkpt>
   <trkpt lat="12.9002740" lon="99.6817780">
    <ele>105.1</ele>
    <time>2018-01-27T06:23:20Z</time>
   </trkpt>
   <trkpt lat="12.9003270" lon="99.6818450">
    <ele>105.0</ele>
    <time>2018-01-27T06:23:21Z</time>
   </trkpt>
   <trkpt lat="12.9003750" lon="99.6819100">
    <ele>104.6</ele>
    <time>2018-01-27T06:23:22Z</time>
   </trkpt>
   <trkpt lat="12.9004280" lon="99.6819770">
    <ele>104.4</ele>
    <time>2018-01-27T06:23:23Z</time>
   </trkpt>
   <trkpt lat="12.9004770" lon="99.6820440">
    <ele>104.3</ele>
    <time>2018-01-27T06:23:24Z</time>
   </trkpt>
   <trkpt lat="12.9005270" lon="99.6821110">
    <ele>104.1</ele>
    <time>2018-01-27T06:23:25Z</time>
   </trkpt>
   <trkpt lat="12.9005790" lon="99.6821630">
    <ele>104.0</ele>
    <time>2018-01-27T06:23:26Z</time>
   </trkpt>
   <trkpt lat="12.9006300" lon="99.6822280">
    <ele>103.9</ele>
    <time>2018-01-27T06:23:27Z</time>
   </trkpt>
   <trkpt lat="12.9006930" lon="99.6822910">
    <ele>103.7</ele>
    <time>2018-01-27T06:23:28Z</time>
   </trkpt>
   <trkpt lat="12.9007360" lon="99.6823560">
    <ele>103.6</ele>
    <time>2018-01-27T06:23:29Z</time>
   </trkpt>
   <trkpt lat="12.9007850" lon="99.6824210">
    <ele>103.4</ele>
    <time>2018-01-27T06:23:30Z</time>
   </trkpt>
   <trkpt lat="12.9008270" lon="99.6824860">
    <ele>103.2</ele>
    <time>2018-01-27T06:23:31Z</time>
   </trkpt>
   <trkpt lat="12.9008670" lon="99.6825590">
    <ele>103.0</ele>
    <time>2018-01-27T06:23:32Z</time>
   </trkpt>
   <trkpt lat="12.9009040" lon="99.6826300">
    <ele>102.7</ele>
    <time>2018-01-27T06:23:33Z</time>
   </trkpt>
   <trkpt lat="12.9009380" lon="99.6827000">
    <ele>102.5</ele>
    <time>2018-01-27T06:23:34Z</time>
   </trkpt>
   <trkpt lat="12.9009670" lon="99.6827680">
    <ele>102.1</ele>
    <time>2018-01-27T06:23:35Z</time>
   </trkpt>
   <trkpt lat="12.9010040" lon="99.6828410">
    <ele>101.6</ele>
    <time>2018-01-27T06:23:36Z</time>
   </trkpt>
   <trkpt lat="12.9010340" lon="99.6829110">
    <ele>101.0</ele>
    <time>2018-01-27T06:23:37Z</time>
   </trkpt>
   <trkpt lat="12.9010640" lon="99.6829840">
    <ele>100.6</ele>
    <time>2018-01-27T06:23:38Z</time>
   </trkpt>
   <trkpt lat="12.9010930" lon="99.6830510">
    <ele>100.2</ele>
    <time>2018-01-27T06:23:39Z</time>
   </trkpt>
   <trkpt lat="12.9011260" lon="99.6831170">
    <ele>99.9</ele>
    <time>2018-01-27T06:23:40Z</time>
   </trkpt>
   <trkpt lat="12.9011520" lon="99.6831920">
    <ele>99.2</ele>
    <time>2018-01-27T06:23:41Z</time>
   </trkpt>
   <trkpt lat="12.9011750" lon="99.6832450">
    <ele>98.8</ele>
    <time>2018-01-27T06:23:42Z</time>
   </trkpt>
   <trkpt lat="12.9012090" lon="99.6833030">
    <ele>98.4</ele>
    <time>2018-01-27T06:23:43Z</time>
   </trkpt>
   <trkpt lat="12.9012290" lon="99.6833630">
    <ele>98.0</ele>
    <time>2018-01-27T06:23:44Z</time>
   </trkpt>
   <trkpt lat="12.9012320" lon="99.6834200">
    <ele>98.0</ele>
    <time>2018-01-27T06:23:45Z</time>
   </trkpt>
   <trkpt lat="12.9012280" lon="99.6834790">
    <ele>98.0</ele>
    <time>2018-01-27T06:23:46Z</time>
   </trkpt>
   <trkpt lat="12.9012290" lon="99.6835390">
    <ele>98.0</ele>
    <time>2018-01-27T06:23:47Z</time>
   </trkpt>
   <trkpt lat="12.9012470" lon="99.6835980">
    <ele>98.0</ele>
    <time>2018-01-27T06:23:48Z</time>
   </trkpt>
   <trkpt lat="12.9012930" lon="99.6836390">
    <ele>98.0</ele>
    <time>2018-01-27T06:23:49Z</time>
   </trkpt>
   <trkpt lat="12.9013380" lon="99.6836890">
    <ele>98.0</ele>
    <time>2018-01-27T06:23:50Z</time>
   </trkpt>
   <trkpt lat="12.9013850" lon="99.6837500">
    <ele>98.1</ele>
    <time>2018-01-27T06:23:51Z</time>
   </trkpt>
   <trkpt lat="12.9014290" lon="99.6838070">
    <ele>97.8</ele>
    <time>2018-01-27T06:23:52Z</time>
   </trkpt>
   <trkpt lat="12.9014680" lon="99.6838550">
    <ele>97.9</ele>
    <time>2018-01-27T06:23:53Z</time>
   </trkpt>
   <trkpt lat="12.9015130" lon="99.6839110">
    <ele>98.1</ele>
    <time>2018-01-27T06:23:54Z</time>
   </trkpt>
   <trkpt lat="12.9015530" lon="99.6839720">
    <ele>98.5</ele>
    <time>2018-01-27T06:23:55Z</time>
   </trkpt>
   <trkpt lat="12.9015860" lon="99.6840350">
    <ele>99.3</ele>
    <time>2018-01-27T06:23:56Z</time>
   </trkpt>
   <trkpt lat="12.9016210" lon="99.6840910">
    <ele>99.8</ele>
    <time>2018-01-27T06:23:57Z</time>
   </trkpt>
   <trkpt lat="12.9016540" lon="99.6841520">
    <ele>100.4</ele>
    <time>2018-01-27T06:23:58Z</time>
   </trkpt>
   <trkpt lat="12.9016840" lon="99.6842180">
    <ele>100.6</ele>
    <time>2018-01-27T06:23:59Z</time>
   </trkpt>
   <trkpt lat="12.9017120" lon="99.6842810">
    <ele>100.9</ele>
    <time>2018-01-27T06:24:00Z</time>
   </trkpt>
   <trkpt lat="12.9017410" lon="99.6843460">
    <ele>100.9</ele>
    <time>2018-01-27T06:24:01Z</time>
   </trkpt>
   <trkpt lat="12.9017720" lon="99.6844110">
    <ele>100.8</ele>
    <time>2018-01-27T06:24:02Z</time>
   </trkpt>
   <trkpt lat="12.9018050" lon="99.6844710">
    <ele>100.8</ele>
    <time>2018-01-27T06:24:03Z</time>
   </trkpt>
   <trkpt lat="12.9018420" lon="99.6845250">
    <ele>100.3</ele>
    <time>2018-01-27T06:24:04Z</time>
   </trkpt>
   <trkpt lat="12.9018670" lon="99.6845760">
    <ele>99.9</ele>
    <time>2018-01-27T06:24:05Z</time>
   </trkpt>
   <trkpt lat="12.9018670" lon="99.6846300">
    <ele>99.4</ele>
    <time>2018-01-27T06:24:06Z</time>
   </trkpt>
   <trkpt lat="12.9018540" lon="99.6846800">
    <ele>99.1</ele>
    <time>2018-01-27T06:24:07Z</time>
   </trkpt>
   <trkpt lat="12.9018490" lon="99.6847370">
    <ele>98.9</ele>
    <time>2018-01-27T06:24:08Z</time>
   </trkpt>
   <trkpt lat="12.9018230" lon="99.6847820">
    <ele>98.8</ele>
    <time>2018-01-27T06:24:09Z</time>
   </trkpt>
   <trkpt lat="12.9017780" lon="99.6848200">
    <ele>99.1</ele>
    <time>2018-01-27T06:24:10Z</time>
   </trkpt>
   <trkpt lat="12.9017320" lon="99.6848510">
    <ele>99.4</ele>
    <time>2018-01-27T06:24:11Z</time>
   </trkpt>
   <trkpt lat="12.9017300" lon="99.6848920">
    <ele>99.2</ele>
    <time>2018-01-27T06:24:12Z</time>
   </trkpt>
   <trkpt lat="12.9016780" lon="99.6849370">
    <ele>98.8</ele>
    <time>2018-01-27T06:24:13Z</time>
   </trkpt>
   <trkpt lat="12.9016370" lon="99.6849750">
    <ele>98.5</ele>
    <time>2018-01-27T06:24:14Z</time>
   </trkpt>
   <trkpt lat="12.9015910" lon="99.6850110">
    <ele>98.3</ele>
    <time>2018-01-27T06:24:15Z</time>
   </trkpt>
   <trkpt lat="12.9015500" lon="99.6850560">
    <ele>98.2</ele>
    <time>2018-01-27T06:24:16Z</time>
   </trkpt>
   <trkpt lat="12.9015020" lon="99.6850950">
    <ele>98.2</ele>
    <time>2018-01-27T06:24:17Z</time>
   </trkpt>
   <trkpt lat="12.9014520" lon="99.6851330">
    <ele>97.9</ele>
    <time>2018-01-27T06:24:18Z</time>
   </trkpt>
   <trkpt lat="12.9014020" lon="99.6851690">
    <ele>97.6</ele>
    <time>2018-01-27T06:24:19Z</time>
   </trkpt>
   <trkpt lat="12.9013510" lon="99.6852080">
    <ele>97.2</ele>
    <time>2018-01-27T06:24:20Z</time>
   </trkpt>
   <trkpt lat="12.9013010" lon="99.6852400">
    <ele>96.9</ele>
    <time>2018-01-27T06:24:21Z</time>
   </trkpt>
   <trkpt lat="12.9012450" lon="99.6852750">
    <ele>97.2</ele>
    <time>2018-01-27T06:24:22Z</time>
   </trkpt>
   <trkpt lat="12.9011940" lon="99.6853120">
    <ele>97.1</ele>
    <time>2018-01-27T06:24:23Z</time>
   </trkpt>
   <trkpt lat="12.9011460" lon="99.6853460">
    <ele>97.5</ele>
    <time>2018-01-27T06:24:24Z</time>
   </trkpt>
   <trkpt lat="12.9010940" lon="99.6853870">
    <ele>97.8</ele>
    <time>2018-01-27T06:24:25Z</time>
   </trkpt>
   <trkpt lat="12.9010460" lon="99.6854320">
    <ele>98.3</ele>
    <time>2018-01-27T06:24:26Z</time>
   </trkpt>
   <trkpt lat="12.9010010" lon="99.6854780">
    <ele>99.8</ele>
    <time>2018-01-27T06:24:27Z</time>
   </trkpt>
   <trkpt lat="12.9009600" lon="99.6855290">
    <ele>100.4</ele>
    <time>2018-01-27T06:24:28Z</time>
   </trkpt>
   <trkpt lat="12.9009240" lon="99.6855840">
    <ele>100.6</ele>
    <time>2018-01-27T06:24:29Z</time>
   </trkpt>
   <trkpt lat="12.9008930" lon="99.6856390">
    <ele>101.7</ele>
    <time>2018-01-27T06:24:30Z</time>
   </trkpt>
   <trkpt lat="12.9008620" lon="99.6856930">
    <ele>101.3</ele>
    <time>2018-01-27T06:24:31Z</time>
   </trkpt>
   <trkpt lat="12.9008370" lon="99.6857450">
    <ele>100.9</ele>
    <time>2018-01-27T06:24:32Z</time>
   </trkpt>
   <trkpt lat="12.9008180" lon="99.6857980">
    <ele>100.7</ele>
    <time>2018-01-27T06:24:33Z</time>
   </trkpt>
   <trkpt lat="12.9008030" lon="99.6858550">
    <ele>100.4</ele>
    <time>2018-01-27T06:24:34Z</time>
   </trkpt>
   <trkpt lat="12.9007950" lon="99.6859100">
    <ele>100.2</ele>
    <time>2018-01-27T06:24:35Z</time>
   </trkpt>
   <trkpt lat="12.9007950" lon="99.6859680">
    <ele>100.1</ele>
    <time>2018-01-27T06:24:36Z</time>
   </trkpt>
   <trkpt lat="12.9008100" lon="99.6860220">
    <ele>100.1</ele>
    <time>2018-01-27T06:24:37Z</time>
   </trkpt>
   <trkpt lat="12.9008280" lon="99.6860810">
    <ele>100.0</ele>
    <time>2018-01-27T06:24:38Z</time>
   </trkpt>
   <trkpt lat="12.9008490" lon="99.6861420">
    <ele>100.2</ele>
    <time>2018-01-27T06:24:39Z</time>
   </trkpt>
   <trkpt lat="12.9008780" lon="99.6862040">
    <ele>100.0</ele>
    <time>2018-01-27T06:24:40Z</time>
   </trkpt>
   <trkpt lat="12.9009120" lon="99.6862650">
    <ele>100.2</ele>
    <time>2018-01-27T06:24:41Z</time>
   </trkpt>
   <trkpt lat="12.9009450" lon="99.6863230">
    <ele>100.2</ele>
    <time>2018-01-27T06:24:42Z</time>
   </trkpt>
   <trkpt lat="12.9009750" lon="99.6863870">
    <ele>100.4</ele>
    <time>2018-01-27T06:24:43Z</time>
   </trkpt>
   <trkpt lat="12.9009880" lon="99.6864500">
    <ele>100.4</ele>
    <time>2018-01-27T06:24:44Z</time>
   </trkpt>
   <trkpt lat="12.9009840" lon="99.6865130">
    <ele>99.8</ele>
    <time>2018-01-27T06:24:45Z</time>
   </trkpt>
   <trkpt lat="12.9009640" lon="99.6865750">
    <ele>99.5</ele>
    <time>2018-01-27T06:24:46Z</time>
   </trkpt>
   <trkpt lat="12.9009260" lon="99.6866250">
    <ele>100.0</ele>
    <time>2018-01-27T06:24:47Z</time>
   </trkpt>
   <trkpt lat="12.9008790" lon="99.6866730">
    <ele>100.4</ele>
    <time>2018-01-27T06:24:48Z</time>
   </trkpt>
   <trkpt lat="12.9008410" lon="99.6867330">
    <ele>100.6</ele>
    <time>2018-01-27T06:24:49Z</time>
   </trkpt>
   <trkpt lat="12.9008070" lon="99.6867990">
    <ele>100.4</ele>
    <time>2018-01-27T06:24:50Z</time>
   </trkpt>
   <trkpt lat="12.9007730" lon="99.6868570">
    <ele>99.9</ele>
    <time>2018-01-27T06:24:51Z</time>
   </trkpt>
   <trkpt lat="12.9007450" lon="99.6869250">
    <ele>99.7</ele>
    <time>2018-01-27T06:24:52Z</time>
   </trkpt>
   <trkpt lat="12.9007380" lon="99.6869910">
    <ele>99.2</ele>
    <time>2018-01-27T06:24:53Z</time>
   </trkpt>
   <trkpt lat="12.9007400" lon="99.6870560">
    <ele>99.0</ele>
    <time>2018-01-27T06:24:54Z</time>
   </trkpt>
   <trkpt lat="12.9007480" lon="99.6871270">
    <ele>98.6</ele>
    <time>2018-01-27T06:24:55Z</time>
   </trkpt>
   <trkpt lat="12.9007590" lon="99.6872030">
    <ele>98.2</ele>
    <time>2018-01-27T06:24:56Z</time>
   </trkpt>
   <trkpt lat="12.9007910" lon="99.6872690">
    <ele>97.9</ele>
    <time>2018-01-27T06:24:57Z</time>
   </trkpt>
   <trkpt lat="12.9008220" lon="99.6873390">
    <ele>96.8</ele>
    <time>2018-01-27T06:24:58Z</time>
   </trkpt>
   <trkpt lat="12.9008580" lon="99.6874000">
    <ele>96.3</ele>
    <time>2018-01-27T06:24:59Z</time>
   </trkpt>
   <trkpt lat="12.9008890" lon="99.6874640">
    <ele>95.9</ele>
    <time>2018-01-27T06:25:00Z</time>
   </trkpt>
   <trkpt lat="12.9009060" lon="99.6875180">
    <ele>95.8</ele>
    <time>2018-01-27T06:25:01Z</time>
   </trkpt>
   <trkpt lat="12.9008920" lon="99.6875730">
    <ele>95.8</ele>
    <time>2018-01-27T06:25:02Z</time>
   </trkpt>
   <trkpt lat="12.9008530" lon="99.6876240">
    <ele>95.9</ele>
    <time>2018-01-27T06:25:03Z</time>
   </trkpt>
   <trkpt lat="12.9008140" lon="99.6876530">
    <ele>96.0</ele>
    <time>2018-01-27T06:25:04Z</time>
   </trkpt>
   <trkpt lat="12.9007670" lon="99.6876780">
    <ele>96.4</ele>
    <time>2018-01-27T06:25:05Z</time>
   </trkpt>
   <trkpt lat="12.9007150" lon="99.6877020">
    <ele>96.6</ele>
    <time>2018-01-27T06:25:06Z</time>
   </trkpt>
   <trkpt lat="12.9006580" lon="99.6877220">
    <ele>97.1</ele>
    <time>2018-01-27T06:25:07Z</time>
   </trkpt>
   <trkpt lat="12.9006090" lon="99.6877610">
    <ele>97.2</ele>
    <time>2018-01-27T06:25:08Z</time>
   </trkpt>
   <trkpt lat="12.9005640" lon="99.6877900">
    <ele>97.3</ele>
    <time>2018-01-27T06:25:09Z</time>
   </trkpt>
   <trkpt lat="12.9005220" lon="99.6878210">
    <ele>97.4</ele>
    <time>2018-01-27T06:25:10Z</time>
   </trkpt>
   <trkpt lat="12.9004740" lon="99.6878720">
    <ele>97.6</ele>
    <time>2018-01-27T06:25:11Z</time>
   </trkpt>
   <trkpt lat="12.9004350" lon="99.6879210">
    <ele>97.9</ele>
    <time>2018-01-27T06:25:12Z</time>
   </trkpt>
   <trkpt lat="12.9003930" lon="99.6879640">
    <ele>98.4</ele>
    <time>2018-01-27T06:25:13Z</time>
   </trkpt>
   <trkpt lat="12.9003640" lon="99.6880100">
    <ele>99.0</ele>
    <time>2018-01-27T06:25:14Z</time>
   </trkpt>
   <trkpt lat="12.9003420" lon="99.6880640">
    <ele>99.4</ele>
    <time>2018-01-27T06:25:15Z</time>
   </trkpt>
   <trkpt lat="12.9003170" lon="99.6881260">
    <ele>99.6</ele>
    <time>2018-01-27T06:25:16Z</time>
   </trkpt>
   <trkpt lat="12.9002930" lon="99.6881760">
    <ele>99.7</ele>
    <time>2018-01-27T06:25:17Z</time>
   </trkpt>
   <trkpt lat="12.9002810" lon="99.6882360">
    <ele>99.8</ele>
    <time>2018-01-27T06:25:18Z</time>
   </trkpt>
   <trkpt lat="12.9002790" lon="99.6883050">
    <ele>99.8</ele>
    <time>2018-01-27T06:25:19Z</time>
   </trkpt>
   <trkpt lat="12.9002800" lon="99.6883680">
    <ele>99.9</ele>
    <time>2018-01-27T06:25:20Z</time>
   </trkpt>
   <trkpt lat="12.9002890" lon="99.6884350">
    <ele>99.9</ele>
    <time>2018-01-27T06:25:21Z</time>
   </trkpt>
   <trkpt lat="12.9002980" lon="99.6884970">
    <ele>99.9</ele>
    <time>2018-01-27T06:25:22Z</time>
   </trkpt>
   <trkpt lat="12.9003190" lon="99.6885610">
    <ele>99.7</ele>
    <time>2018-01-27T06:25:23Z</time>
   </trkpt>
   <trkpt lat="12.9003450" lon="99.6886140">
    <ele>99.4</ele>
    <time>2018-01-27T06:25:24Z</time>
   </trkpt>
   <trkpt lat="12.9003740" lon="99.6886680">
    <ele>98.9</ele>
    <time>2018-01-27T06:25:25Z</time>
   </trkpt>
   <trkpt lat="12.9004100" lon="99.6887200">
    <ele>98.3</ele>
    <time>2018-01-27T06:25:26Z</time>
   </trkpt>
   <trkpt lat="12.9004510" lon="99.6887680">
    <ele>97.7</ele>
    <time>2018-01-27T06:25:27Z</time>
   </trkpt>
   <trkpt lat="12.9004980" lon="99.6888130">
    <ele>97.4</ele>
    <time>2018-01-27T06:25:28Z</time>
   </trkpt>
   <trkpt lat="12.9005480" lon="99.6888430">
    <ele>97.2</ele>
    <time>2018-01-27T06:25:29Z</time>
   </trkpt>
   <trkpt lat="12.9005960" lon="99.6888810">
    <ele>97.0</ele>
    <time>2018-01-27T06:25:30Z</time>
   </trkpt>
   <trkpt lat="12.9006470" lon="99.6889220">
    <ele>96.7</ele>
    <time>2018-01-27T06:25:31Z</time>
   </trkpt>
   <trkpt lat="12.9006740" lon="99.6889460">
    <ele>96.6</ele>
    <time>2018-01-27T06:25:32Z</time>
   </trkpt>
   <trkpt lat="12.9007080" lon="99.6889820">
    <ele>96.4</ele>
    <time>2018-01-27T06:25:33Z</time>
   </trkpt>
   <trkpt lat="12.9007410" lon="99.6890440">
    <ele>96.2</ele>
    <time>2018-01-27T06:25:34Z</time>
   </trkpt>
   <trkpt lat="12.9007570" lon="99.6891010">
    <ele>96.0</ele>
    <time>2018-01-27T06:25:35Z</time>
   </trkpt>
   <trkpt lat="12.9007550" lon="99.6891590">
    <ele>95.9</ele>
    <time>2018-01-27T06:25:36Z</time>
   </trkpt>
   <trkpt lat="12.9007510" lon="99.6892190">
    <ele>95.7</ele>
    <time>2018-01-27T06:25:37Z</time>
   </trkpt>
   <trkpt lat="12.9007400" lon="99.6892710">
    <ele>95.6</ele>
    <time>2018-01-27T06:25:38Z</time>
   </trkpt>
   <trkpt lat="12.9007270" lon="99.6893290">
    <ele>95.5</ele>
    <time>2018-01-27T06:25:39Z</time>
   </trkpt>
   <trkpt lat="12.9007330" lon="99.6893670">
    <ele>95.5</ele>
    <time>2018-01-27T06:25:40Z</time>
   </trkpt>
   <trkpt lat="12.9007490" lon="99.6894060">
    <ele>95.4</ele>
    <time>2018-01-27T06:25:41Z</time>
   </trkpt>
   <trkpt lat="12.9007610" lon="99.6894480">
    <ele>95.4</ele>
    <time>2018-01-27T06:25:42Z</time>
   </trkpt>
   <trkpt lat="12.9007710" lon="99.6894910">
    <ele>95.3</ele>
    <time>2018-01-27T06:25:43Z</time>
   </trkpt>
   <trkpt lat="12.9007920" lon="99.6895370">
    <ele>95.3</ele>
    <time>2018-01-27T06:25:44Z</time>
   </trkpt>
   <trkpt lat="12.9008080" lon="99.6895990">
    <ele>95.2</ele>
    <time>2018-01-27T06:25:45Z</time>
   </trkpt>
   <trkpt lat="12.9008130" lon="99.6896510">
    <ele>95.2</ele>
    <time>2018-01-27T06:25:46Z</time>
   </trkpt>
   <trkpt lat="12.9008140" lon="99.6897130">
    <ele>95.1</ele>
    <time>2018-01-27T06:25:47Z</time>
   </trkpt>
   <trkpt lat="12.9008130" lon="99.6897710">
    <ele>95.1</ele>
    <time>2018-01-27T06:25:48Z</time>
   </trkpt>
   <trkpt lat="12.9008000" lon="99.6898380">
    <ele>95.0</ele>
    <time>2018-01-27T06:25:49Z</time>
   </trkpt>
   <trkpt lat="12.9008020" lon="99.6899060">
    <ele>94.9</ele>
    <time>2018-01-27T06:25:50Z</time>
   </trkpt>
   <trkpt lat="12.9008010" lon="99.6899620">
    <ele>94.9</ele>
    <time>2018-01-27T06:25:51Z</time>
   </trkpt>
   <trkpt lat="12.9007980" lon="99.6900320">
    <ele>94.8</ele>
    <time>2018-01-27T06:25:52Z</time>
   </trkpt>
   <trkpt lat="12.9007890" lon="99.6900970">
    <ele>94.8</ele>
    <time>2018-01-27T06:25:53Z</time>
   </trkpt>
   <trkpt lat="12.9007740" lon="99.6901590">
    <ele>94.7</ele>
    <time>2018-01-27T06:25:54Z</time>
   </trkpt>
   <trkpt lat="12.9007370" lon="99.6902090">
    <ele>94.6</ele>
    <time>2018-01-27T06:25:55Z</time>
   </trkpt>
   <trkpt lat="12.9007080" lon="99.6902720">
    <ele>94.6</ele>
    <time>2018-01-27T06:25:56Z</time>
   </trkpt>
   <trkpt lat="12.9006710" lon="99.6903290">
    <ele>94.5</ele>
    <time>2018-01-27T06:25:57Z</time>
   </trkpt>
   <trkpt lat="12.9006340" lon="99.6903760">
    <ele>94.5</ele>
    <time>2018-01-27T06:25:58Z</time>
   </trkpt>
   <trkpt lat="12.9005950" lon="99.6904210">
    <ele>94.5</ele>
    <time>2018-01-27T06:25:59Z</time>
   </trkpt>
   <trkpt lat="12.9005490" lon="99.6904700">
    <ele>94.4</ele>
    <time>2018-01-27T06:26:00Z</time>
   </trkpt>
   <trkpt lat="12.9005040" lon="99.6905150">
    <ele>94.4</ele>
    <time>2018-01-27T06:26:01Z</time>
   </trkpt>
   <trkpt lat="12.9004570" lon="99.6905540">
    <ele>94.4</ele>
    <time>2018-01-27T06:26:02Z</time>
   </trkpt>
   <trkpt lat="12.9004070" lon="99.6905940">
    <ele>94.3</ele>
    <time>2018-01-27T06:26:03Z</time>
   </trkpt>
   <trkpt lat="12.9003550" lon="99.6906420">
    <ele>94.3</ele>
    <time>2018-01-27T06:26:04Z</time>
   </trkpt>
   <trkpt lat="12.9002940" lon="99.6906760">
    <ele>94.2</ele>
    <time>2018-01-27T06:26:05Z</time>
   </trkpt>
   <trkpt lat="12.9002510" lon="99.6907190">
    <ele>94.2</ele>
    <time>2018-01-27T06:26:06Z</time>
   </trkpt>
   <trkpt lat="12.9002020" lon="99.6907490">
    <ele>94.1</ele>
    <time>2018-01-27T06:26:07Z</time>
   </trkpt>
   <trkpt lat="12.9001460" lon="99.6907900">
    <ele>94.1</ele>
    <time>2018-01-27T06:26:08Z</time>
   </trkpt>
   <trkpt lat="12.9001040" lon="99.6908450">
    <ele>94.0</ele>
    <time>2018-01-27T06:26:09Z</time>
   </trkpt>
   <trkpt lat="12.9000650" lon="99.6908890">
    <ele>94.0</ele>
    <time>2018-01-27T06:26:10Z</time>
   </trkpt>
   <trkpt lat="12.9000250" lon="99.6909350">
    <ele>93.9</ele>
    <time>2018-01-27T06:26:11Z</time>
   </trkpt>
   <trkpt lat="12.8999790" lon="99.6909810">
    <ele>93.9</ele>
    <time>2018-01-27T06:26:12Z</time>
   </trkpt>
   <trkpt lat="12.8999400" lon="99.6910240">
    <ele>93.9</ele>
    <time>2018-01-27T06:26:13Z</time>
   </trkpt>
   <trkpt lat="12.8998980" lon="99.6910830">
    <ele>93.8</ele>
    <time>2018-01-27T06:26:14Z</time>
   </trkpt>
   <trkpt lat="12.8998710" lon="99.6911370">
    <ele>93.8</ele>
    <time>2018-01-27T06:26:15Z</time>
   </trkpt>
   <trkpt lat="12.8998520" lon="99.6911940">
    <ele>93.7</ele>
    <time>2018-01-27T06:26:16Z</time>
   </trkpt>
   <trkpt lat="12.8998360" lon="99.6912500">
    <ele>93.6</ele>
    <time>2018-01-27T06:26:17Z</time>
   </trkpt>
   <trkpt lat="12.8998180" lon="99.6913020">
    <ele>93.6</ele>
    <time>2018-01-27T06:26:18Z</time>
   </trkpt>
   <trkpt lat="12.8998020" lon="99.6913290">
    <ele>93.5</ele>
    <time>2018-01-27T06:26:19Z</time>
   </trkpt>
   <trkpt lat="12.8997920" lon="99.6913690">
    <ele>93.5</ele>
    <time>2018-01-27T06:26:20Z</time>
   </trkpt>
   <trkpt lat="12.8997810" lon="99.6914060">
    <ele>93.4</ele>
    <time>2018-01-27T06:26:21Z</time>
   </trkpt>
   <trkpt lat="12.8997520" lon="99.6914420">
    <ele>93.3</ele>
    <time>2018-01-27T06:26:22Z</time>
   </trkpt>
   <trkpt lat="12.8997230" lon="99.6914570">
    <ele>93.2</ele>
    <time>2018-01-27T06:26:23Z</time>
   </trkpt>
   <trkpt lat="12.8996800" lon="99.6914630">
    <ele>93.1</ele>
    <time>2018-01-27T06:26:24Z</time>
   </trkpt>
   <trkpt lat="12.8996420" lon="99.6914610">
    <ele>92.9</ele>
    <time>2018-01-27T06:26:25Z</time>
   </trkpt>
   <trkpt lat="12.8996110" lon="99.6914750">
    <ele>92.8</ele>
    <time>2018-01-27T06:26:27Z</time>
   </trkpt>
   <trkpt lat="12.8995770" lon="99.6914910">
    <ele>92.6</ele>
    <time>2018-01-27T06:26:28Z</time>
   </trkpt>
   <trkpt lat="12.8995420" lon="99.6915120">
    <ele>92.5</ele>
    <time>2018-01-27T06:26:29Z</time>
   </trkpt>
   <trkpt lat="12.8995180" lon="99.6915480">
    <ele>92.5</ele>
    <time>2018-01-27T06:26:30Z</time>
   </trkpt>
   <trkpt lat="12.8995040" lon="99.6915820">
    <ele>92.6</ele>
    <time>2018-01-27T06:26:31Z</time>
   </trkpt>
   <trkpt lat="12.8994990" lon="99.6916230">
    <ele>92.6</ele>
    <time>2018-01-27T06:26:32Z</time>
   </trkpt>
   <trkpt lat="12.8994830" lon="99.6916630">
    <ele>92.7</ele>
    <time>2018-01-27T06:26:33Z</time>
   </trkpt>
   <trkpt lat="12.8994620" lon="99.6916820">
    <ele>92.7</ele>
    <time>2018-01-27T06:26:34Z</time>
   </trkpt>
   <trkpt lat="12.8994840" lon="99.6917070">
    <ele>92.6</ele>
    <time>2018-01-27T06:26:37Z</time>
   </trkpt>
   <trkpt lat="12.8995150" lon="99.6917100">
    <ele>92.6</ele>
    <time>2018-01-27T06:26:38Z</time>
   </trkpt>
   <trkpt lat="12.8995530" lon="99.6917070">
    <ele>92.5</ele>
    <time>2018-01-27T06:26:39Z</time>
   </trkpt>
   <trkpt lat="12.8995970" lon="99.6917010">
    <ele>92.3</ele>
    <time>2018-01-27T06:26:40Z</time>
   </trkpt>
   <trkpt lat="12.8996440" lon="99.6916910">
    <ele>92.2</ele>
    <time>2018-01-27T06:26:41Z</time>
   </trkpt>
   <trkpt lat="12.8996920" lon="99.6916750">
    <ele>92.0</ele>
    <time>2018-01-27T06:26:42Z</time>
   </trkpt>
   <trkpt lat="12.8997340" lon="99.6916360">
    <ele>92.0</ele>
    <time>2018-01-27T06:26:43Z</time>
   </trkpt>
   <trkpt lat="12.8997860" lon="99.6916120">
    <ele>92.0</ele>
    <time>2018-01-27T06:26:44Z</time>
   </trkpt>
   <trkpt lat="12.8998370" lon="99.6915890">
    <ele>91.9</ele>
    <time>2018-01-27T06:26:45Z</time>
   </trkpt>
   <trkpt lat="12.8998940" lon="99.6915560">
    <ele>91.9</ele>
    <time>2018-01-27T06:26:46Z</time>
   </trkpt>
   <trkpt lat="12.8999520" lon="99.6915280">
    <ele>91.8</ele>
    <time>2018-01-27T06:26:47Z</time>
   </trkpt>
   <trkpt lat="12.9000110" lon="99.6915000">
    <ele>91.7</ele>
    <time>2018-01-27T06:26:48Z</time>
   </trkpt>
   <trkpt lat="12.9000720" lon="99.6914690">
    <ele>91.6</ele>
    <time>2018-01-27T06:26:49Z</time>
   </trkpt>
   <trkpt lat="12.9001370" lon="99.6914410">
    <ele>91.4</ele>
    <time>2018-01-27T06:26:50Z</time>
   </trkpt>
   <trkpt lat="12.9002020" lon="99.6914120">
    <ele>91.2</ele>
    <time>2018-01-27T06:26:51Z</time>
   </trkpt>
   <trkpt lat="12.9002650" lon="99.6913820">
    <ele>90.9</ele>
    <time>2018-01-27T06:26:52Z</time>
   </trkpt>
   <trkpt lat="12.9003430" lon="99.6913490">
    <ele>90.6</ele>
    <time>2018-01-27T06:26:53Z</time>
   </trkpt>
   <trkpt lat="12.9004010" lon="99.6913270">
    <ele>90.3</ele>
    <time>2018-01-27T06:26:54Z</time>
   </trkpt>
   <trkpt lat="12.9004550" lon="99.6912930">
    <ele>90.1</ele>
    <time>2018-01-27T06:26:55Z</time>
   </trkpt>
   <trkpt lat="12.9005140" lon="99.6912640">
    <ele>89.9</ele>
    <time>2018-01-27T06:26:56Z</time>
   </trkpt>
   <trkpt lat="12.9005670" lon="99.6912350">
    <ele>89.8</ele>
    <time>2018-01-27T06:26:57Z</time>
   </trkpt>
   <trkpt lat="12.9006240" lon="99.6911990">
    <ele>89.6</ele>
    <time>2018-01-27T06:26:58Z</time>
   </trkpt>
   <trkpt lat="12.9006760" lon="99.6911670">
    <ele>89.6</ele>
    <time>2018-01-27T06:26:59Z</time>
   </trkpt>
   <trkpt lat="12.9007300" lon="99.6911370">
    <ele>89.5</ele>
    <time>2018-01-27T06:27:00Z</time>
   </trkpt>
   <trkpt lat="12.9007780" lon="99.6911110">
    <ele>89.4</ele>
    <time>2018-01-27T06:27:01Z</time>
   </trkpt>
   <trkpt lat="12.9008300" lon="99.6910940">
    <ele>89.4</ele>
    <time>2018-01-27T06:27:02Z</time>
   </trkpt>
   <trkpt lat="12.9008780" lon="99.6910690">
    <ele>89.4</ele>
    <time>2018-01-27T06:27:03Z</time>
   </trkpt>
   <trkpt lat="12.9009290" lon="99.6910520">
    <ele>89.4</ele>
    <time>2018-01-27T06:27:04Z</time>
   </trkpt>
   <trkpt lat="12.9009790" lon="99.6910350">
    <ele>89.4</ele>
    <time>2018-01-27T06:27:05Z</time>
   </trkpt>
   <trkpt lat="12.9010330" lon="99.6910180">
    <ele>89.3</ele>
    <time>2018-01-27T06:27:06Z</time>
   </trkpt>
   <trkpt lat="12.9010870" lon="99.6910090">
    <ele>89.3</ele>
    <time>2018-01-27T06:27:07Z</time>
   </trkpt>
   <trkpt lat="12.9011380" lon="99.6909810">
    <ele>89.3</ele>
    <time>2018-01-27T06:27:08Z</time>
   </trkpt>
   <trkpt lat="12.9012130" lon="99.6909670">
    <ele>89.3</ele>
    <time>2018-01-27T06:27:09Z</time>
   </trkpt>
   <trkpt lat="12.9012680" lon="99.6909430">
    <ele>89.3</ele>
    <time>2018-01-27T06:27:10Z</time>
   </trkpt>
   <trkpt lat="12.9013250" lon="99.6909160">
    <ele>89.2</ele>
    <time>2018-01-27T06:27:11Z</time>
   </trkpt>
   <trkpt lat="12.9013840" lon="99.6908900">
    <ele>89.2</ele>
    <time>2018-01-27T06:27:12Z</time>
   </trkpt>
   <trkpt lat="12.9014350" lon="99.6908630">
    <ele>89.2</ele>
    <time>2018-01-27T06:27:13Z</time>
   </trkpt>
   <trkpt lat="12.9014940" lon="99.6908380">
    <ele>89.2</ele>
    <time>2018-01-27T06:27:14Z</time>
   </trkpt>
   <trkpt lat="12.9015460" lon="99.6908060">
    <ele>89.2</ele>
    <time>2018-01-27T06:27:15Z</time>
   </trkpt>
   <trkpt lat="12.9016030" lon="99.6907720">
    <ele>89.2</ele>
    <time>2018-01-27T06:27:16Z</time>
   </trkpt>
   <trkpt lat="12.9016630" lon="99.6907490">
    <ele>89.1</ele>
    <time>2018-01-27T06:27:17Z</time>
   </trkpt>
   <trkpt lat="12.9017090" lon="99.6907260">
    <ele>89.1</ele>
    <time>2018-01-27T06:27:18Z</time>
   </trkpt>
   <trkpt lat="12.9017600" lon="99.6907020">
    <ele>89.1</ele>
    <time>2018-01-27T06:27:19Z</time>
   </trkpt>
   <trkpt lat="12.9018080" lon="99.6906690">
    <ele>89.1</ele>
    <time>2018-01-27T06:27:20Z</time>
   </trkpt>
   <trkpt lat="12.9018550" lon="99.6906440">
    <ele>89.1</ele>
    <time>2018-01-27T06:27:21Z</time>
   </trkpt>
   <trkpt lat="12.9019050" lon="99.6906260">
    <ele>89.1</ele>
    <time>2018-01-27T06:27:22Z</time>
   </trkpt>
   <trkpt lat="12.9019570" lon="99.6906060">
    <ele>89.1</ele>
    <time>2018-01-27T06:27:23Z</time>
   </trkpt>
   <trkpt lat="12.9020060" lon="99.6905790">
    <ele>89.2</ele>
    <time>2018-01-27T06:27:24Z</time>
   </trkpt>
   <trkpt lat="12.9020550" lon="99.6905570">
    <ele>89.3</ele>
    <time>2018-01-27T06:27:25Z</time>
   </trkpt>
   <trkpt lat="12.9021060" lon="99.6905400">
    <ele>89.5</ele>
    <time>2018-01-27T06:27:26Z</time>
   </trkpt>
   <trkpt lat="12.9021560" lon="99.6905290">
    <ele>89.6</ele>
    <time>2018-01-27T06:27:27Z</time>
   </trkpt>
   <trkpt lat="12.9022070" lon="99.6905110">
    <ele>89.9</ele>
    <time>2018-01-27T06:27:28Z</time>
   </trkpt>
   <trkpt lat="12.9022530" lon="99.6904960">
    <ele>90.1</ele>
    <time>2018-01-27T06:27:29Z</time>
   </trkpt>
   <trkpt lat="12.9023020" lon="99.6904770">
    <ele>90.3</ele>
    <time>2018-01-27T06:27:30Z</time>
   </trkpt>
   <trkpt lat="12.9023540" lon="99.6904680">
    <ele>90.5</ele>
    <time>2018-01-27T06:27:31Z</time>
   </trkpt>
   <trkpt lat="12.9024030" lon="99.6904580">
    <ele>90.6</ele>
    <time>2018-01-27T06:27:32Z</time>
   </trkpt>
   <trkpt lat="12.9024640" lon="99.6904440">
    <ele>90.8</ele>
    <time>2018-01-27T06:27:33Z</time>
   </trkpt>
   <trkpt lat="12.9025090" lon="99.6904230">
    <ele>90.9</ele>
    <time>2018-01-27T06:27:34Z</time>
   </trkpt>
   <trkpt lat="12.9025540" lon="99.6904000">
    <ele>91.0</ele>
    <time>2018-01-27T06:27:35Z</time>
   </trkpt>
   <trkpt lat="12.9026050" lon="99.6903690">
    <ele>91.1</ele>
    <time>2018-01-27T06:27:36Z</time>
   </trkpt>
   <trkpt lat="12.9026460" lon="99.6903420">
    <ele>91.2</ele>
    <time>2018-01-27T06:27:37Z</time>
   </trkpt>
   <trkpt lat="12.9026980" lon="99.6903270">
    <ele>91.4</ele>
    <time>2018-01-27T06:27:38Z</time>
   </trkpt>
   <trkpt lat="12.9027420" lon="99.6903130">
    <ele>91.6</ele>
    <time>2018-01-27T06:27:39Z</time>
   </trkpt>
   <trkpt lat="12.9027970" lon="99.6902930">
    <ele>91.8</ele>
    <time>2018-01-27T06:27:40Z</time>
   </trkpt>
   <trkpt lat="12.9028460" lon="99.6902780">
    <ele>92.0</ele>
    <time>2018-01-27T06:27:41Z</time>
   </trkpt>
   <trkpt lat="12.9028920" lon="99.6902580">
    <ele>92.2</ele>
    <time>2018-01-27T06:27:42Z</time>
   </trkpt>
   <trkpt lat="12.9029400" lon="99.6902440">
    <ele>92.4</ele>
    <time>2018-01-27T06:27:43Z</time>
   </trkpt>
   <trkpt lat="12.9029910" lon="99.6902140">
    <ele>92.6</ele>
    <time>2018-01-27T06:27:44Z</time>
   </trkpt>
   <trkpt lat="12.9030410" lon="99.6901810">
    <ele>92.7</ele>
    <time>2018-01-27T06:27:45Z</time>
   </trkpt>
   <trkpt lat="12.9030870" lon="99.6901650">
    <ele>92.8</ele>
    <time>2018-01-27T06:27:46Z</time>
   </trkpt>
   <trkpt lat="12.9031300" lon="99.6901520">
    <ele>92.8</ele>
    <time>2018-01-27T06:27:47Z</time>
   </trkpt>
   <trkpt lat="12.9031830" lon="99.6901590">
    <ele>92.8</ele>
    <time>2018-01-27T06:27:48Z</time>
   </trkpt>
   <trkpt lat="12.9032290" lon="99.6901350">
    <ele>92.9</ele>
    <time>2018-01-27T06:27:49Z</time>
   </trkpt>
   <trkpt lat="12.9032850" lon="99.6901140">
    <ele>92.9</ele>
    <time>2018-01-27T06:27:50Z</time>
   </trkpt>
   <trkpt lat="12.9033330" lon="99.6900980">
    <ele>92.9</ele>
    <time>2018-01-27T06:27:51Z</time>
   </trkpt>
   <trkpt lat="12.9033810" lon="99.6900700">
    <ele>93.0</ele>
    <time>2018-01-27T06:27:52Z</time>
   </trkpt>
   <trkpt lat="12.9034290" lon="99.6900520">
    <ele>93.1</ele>
    <time>2018-01-27T06:27:53Z</time>
   </trkpt>
   <trkpt lat="12.9034750" lon="99.6900340">
    <ele>93.3</ele>
    <time>2018-01-27T06:27:54Z</time>
   </trkpt>
   <trkpt lat="12.9035200" lon="99.6900190">
    <ele>93.5</ele>
    <time>2018-01-27T06:27:55Z</time>
   </trkpt>
   <trkpt lat="12.9035710" lon="99.6900000">
    <ele>93.8</ele>
    <time>2018-01-27T06:27:56Z</time>
   </trkpt>
   <trkpt lat="12.9036240" lon="99.6899800">
    <ele>94.0</ele>
    <time>2018-01-27T06:27:57Z</time>
   </trkpt>
   <trkpt lat="12.9036710" lon="99.6899600">
    <ele>94.3</ele>
    <time>2018-01-27T06:27:58Z</time>
   </trkpt>
   <trkpt lat="12.9036990" lon="99.6899490">
    <ele>94.4</ele>
    <time>2018-01-27T06:27:59Z</time>
   </trkpt>
   <trkpt lat="12.9037450" lon="99.6899360">
    <ele>94.6</ele>
    <time>2018-01-27T06:28:01Z</time>
   </trkpt>
   <trkpt lat="12.9037870" lon="99.6899440">
    <ele>94.7</ele>
    <time>2018-01-27T06:28:02Z</time>
   </trkpt>
   <trkpt lat="12.9038860" lon="99.6899080">
    <ele>94.9</ele>
    <time>2018-01-27T06:28:03Z</time>
   </trkpt>
   <trkpt lat="12.9039320" lon="99.6898900">
    <ele>94.9</ele>
    <time>2018-01-27T06:28:04Z</time>
   </trkpt>
   <trkpt lat="12.9039750" lon="99.6898760">
    <ele>94.9</ele>
    <time>2018-01-27T06:28:05Z</time>
   </trkpt>
   <trkpt lat="12.9040210" lon="99.6898570">
    <ele>94.9</ele>
    <time>2018-01-27T06:28:06Z</time>
   </trkpt>
   <trkpt lat="12.9040670" lon="99.6898420">
    <ele>94.9</ele>
    <time>2018-01-27T06:28:07Z</time>
   </trkpt>
   <trkpt lat="12.9041120" lon="99.6898210">
    <ele>94.9</ele>
    <time>2018-01-27T06:28:08Z</time>
   </trkpt>
   <trkpt lat="12.9041530" lon="99.6898010">
    <ele>94.9</ele>
    <time>2018-01-27T06:28:09Z</time>
   </trkpt>
   <trkpt lat="12.9042100" lon="99.6897780">
    <ele>94.9</ele>
    <time>2018-01-27T06:28:10Z</time>
   </trkpt>
   <trkpt lat="12.9042630" lon="99.6897590">
    <ele>95.0</ele>
    <time>2018-01-27T06:28:11Z</time>
   </trkpt>
   <trkpt lat="12.9043080" lon="99.6897490">
    <ele>95.1</ele>
    <time>2018-01-27T06:28:12Z</time>
   </trkpt>
   <trkpt lat="12.9043520" lon="99.6897280">
    <ele>95.2</ele>
    <time>2018-01-27T06:28:13Z</time>
   </trkpt>
   <trkpt lat="12.9043990" lon="99.6897130">
    <ele>95.4</ele>
    <time>2018-01-27T06:28:14Z</time>
   </trkpt>
   <trkpt lat="12.9044460" lon="99.6896900">
    <ele>95.6</ele>
    <time>2018-01-27T06:28:15Z</time>
   </trkpt>
   <trkpt lat="12.9044970" lon="99.6896700">
    <ele>95.9</ele>
    <time>2018-01-27T06:28:16Z</time>
   </trkpt>
   <trkpt lat="12.9045390" lon="99.6896570">
    <ele>96.1</ele>
    <time>2018-01-27T06:28:17Z</time>
   </trkpt>
   <trkpt lat="12.9045810" lon="99.6896440">
    <ele>96.2</ele>
    <time>2018-01-27T06:28:18Z</time>
   </trkpt>
   <trkpt lat="12.9046330" lon="99.6896310">
    <ele>96.4</ele>
    <time>2018-01-27T06:28:19Z</time>
   </trkpt>
   <trkpt lat="12.9046770" lon="99.6896130">
    <ele>96.5</ele>
    <time>2018-01-27T06:28:20Z</time>
   </trkpt>
   <trkpt lat="12.9047270" lon="99.6895910">
    <ele>96.6</ele>
    <time>2018-01-27T06:28:21Z</time>
   </trkpt>
   <trkpt lat="12.9047750" lon="99.6895770">
    <ele>96.7</ele>
    <time>2018-01-27T06:28:22Z</time>
   </trkpt>
   <trkpt lat="12.9048130" lon="99.6895620">
    <ele>96.7</ele>
    <time>2018-01-27T06:28:24Z</time>
   </trkpt>
   <trkpt lat="12.9048610" lon="99.6895480">
    <ele>96.7</ele>
    <time>2018-01-27T06:28:25Z</time>
   </trkpt>
   <trkpt lat="12.9049030" lon="99.6895360">
    <ele>96.7</ele>
    <time>2018-01-27T06:28:26Z</time>
   </trkpt>
   <trkpt lat="12.9049470" lon="99.6895240">
    <ele>96.7</ele>
    <time>2018-01-27T06:28:27Z</time>
   </trkpt>
   <trkpt lat="12.9049900" lon="99.6895120">
    <ele>96.7</ele>
    <time>2018-01-27T06:28:28Z</time>
   </trkpt>
   <trkpt lat="12.9050350" lon="99.6894990">
    <ele>96.7</ele>
    <time>2018-01-27T06:28:29Z</time>
   </trkpt>
   <trkpt lat="12.9050820" lon="99.6894850">
    <ele>96.6</ele>
    <time>2018-01-27T06:28:30Z</time>
   </trkpt>
   <trkpt lat="12.9051310" lon="99.6894700">
    <ele>96.6</ele>
    <time>2018-01-27T06:28:31Z</time>
   </trkpt>
   <trkpt lat="12.9051870" lon="99.6894560">
    <ele>96.6</ele>
    <time>2018-01-27T06:28:32Z</time>
   </trkpt>
   <trkpt lat="12.9052980" lon="99.6894110">
    <ele>96.5</ele>
    <time>2018-01-27T06:28:33Z</time>
   </trkpt>
   <trkpt lat="12.9053500" lon="99.6894010">
    <ele>96.5</ele>
    <time>2018-01-27T06:28:34Z</time>
   </trkpt>
   <trkpt lat="12.9054050" lon="99.6893860">
    <ele>96.5</ele>
    <time>2018-01-27T06:28:35Z</time>
   </trkpt>
   <trkpt lat="12.9054590" lon="99.6893680">
    <ele>96.5</ele>
    <time>2018-01-27T06:28:36Z</time>
   </trkpt>
   <trkpt lat="12.9055140" lon="99.6893500">
    <ele>96.5</ele>
    <time>2018-01-27T06:28:37Z</time>
   </trkpt>
   <trkpt lat="12.9055710" lon="99.6893360">
    <ele>96.4</ele>
    <time>2018-01-27T06:28:38Z</time>
   </trkpt>
   <trkpt lat="12.9056240" lon="99.6893190">
    <ele>96.4</ele>
    <time>2018-01-27T06:28:39Z</time>
   </trkpt>
   <trkpt lat="12.9056850" lon="99.6893030">
    <ele>96.4</ele>
    <time>2018-01-27T06:28:40Z</time>
   </trkpt>
   <trkpt lat="12.9057550" lon="99.6892870">
    <ele>96.4</ele>
    <time>2018-01-27T06:28:41Z</time>
   </trkpt>
   <trkpt lat="12.9058090" lon="99.6892670">
    <ele>96.3</ele>
    <time>2018-01-27T06:28:42Z</time>
   </trkpt>
   <trkpt lat="12.9058680" lon="99.6892450">
    <ele>96.3</ele>
    <time>2018-01-27T06:28:43Z</time>
   </trkpt>
   <trkpt lat="12.9059240" lon="99.6892310">
    <ele>96.3</ele>
    <time>2018-01-27T06:28:44Z</time>
   </trkpt>
   <trkpt lat="12.9059840" lon="99.6892140">
    <ele>96.3</ele>
    <time>2018-01-27T06:28:45Z</time>
   </trkpt>
   <trkpt lat="12.9060410" lon="99.6891870">
    <ele>96.2</ele>
    <time>2018-01-27T06:28:46Z</time>
   </trkpt>
   <trkpt lat="12.9060950" lon="99.6891790">
    <ele>96.2</ele>
    <time>2018-01-27T06:28:47Z</time>
   </trkpt>
   <trkpt lat="12.9061600" lon="99.6891660">
    <ele>96.2</ele>
    <time>2018-01-27T06:28:48Z</time>
   </trkpt>
   <trkpt lat="12.9062210" lon="99.6891540">
    <ele>96.1</ele>
    <time>2018-01-27T06:28:49Z</time>
   </trkpt>
   <trkpt lat="12.9062860" lon="99.6891310">
    <ele>96.1</ele>
    <time>2018-01-27T06:28:50Z</time>
   </trkpt>
   <trkpt lat="12.9063580" lon="99.6891070">
    <ele>95.9</ele>
    <time>2018-01-27T06:28:51Z</time>
   </trkpt>
   <trkpt lat="12.9064190" lon="99.6890840">
    <ele>95.8</ele>
    <time>2018-01-27T06:28:52Z</time>
   </trkpt>
   <trkpt lat="12.9064880" lon="99.6890630">
    <ele>95.5</ele>
    <time>2018-01-27T06:28:53Z</time>
   </trkpt>
   <trkpt lat="12.9065610" lon="99.6890400">
    <ele>95.2</ele>
    <time>2018-01-27T06:28:54Z</time>
   </trkpt>
   <trkpt lat="12.9066330" lon="99.6890130">
    <ele>94.8</ele>
    <time>2018-01-27T06:28:55Z</time>
   </trkpt>
   <trkpt lat="12.9066960" lon="99.6889940">
    <ele>94.5</ele>
    <time>2018-01-27T06:28:56Z</time>
   </trkpt>
   <trkpt lat="12.9067780" lon="99.6889680">
    <ele>94.2</ele>
    <time>2018-01-27T06:28:57Z</time>
   </trkpt>
   <trkpt lat="12.9068520" lon="99.6889400">
    <ele>93.9</ele>
    <time>2018-01-27T06:28:58Z</time>
   </trkpt>
   <trkpt lat="12.9069230" lon="99.6889220">
    <ele>93.8</ele>
    <time>2018-01-27T06:28:59Z</time>
   </trkpt>
   <trkpt lat="12.9070000" lon="99.6889020">
    <ele>93.6</ele>
    <time>2018-01-27T06:29:00Z</time>
   </trkpt>
   <trkpt lat="12.9070750" lon="99.6888710">
    <ele>93.4</ele>
    <time>2018-01-27T06:29:01Z</time>
   </trkpt>
   <trkpt lat="12.9071480" lon="99.6888540">
    <ele>93.3</ele>
    <time>2018-01-27T06:29:02Z</time>
   </trkpt>
   <trkpt lat="12.9072300" lon="99.6888240">
    <ele>93.0</ele>
    <time>2018-01-27T06:29:03Z</time>
   </trkpt>
   <trkpt lat="12.9073050" lon="99.6887910">
    <ele>92.7</ele>
    <time>2018-01-27T06:29:04Z</time>
   </trkpt>
   <trkpt lat="12.9073910" lon="99.6887610">
    <ele>92.4</ele>
    <time>2018-01-27T06:29:05Z</time>
   </trkpt>
   <trkpt lat="12.9074640" lon="99.6887330">
    <ele>92.0</ele>
    <time>2018-01-27T06:29:06Z</time>
   </trkpt>
   <trkpt lat="12.9075360" lon="99.6887070">
    <ele>91.7</ele>
    <time>2018-01-27T06:29:07Z</time>
   </trkpt>
   <trkpt lat="12.9076100" lon="99.6886890">
    <ele>91.5</ele>
    <time>2018-01-27T06:29:08Z</time>
   </trkpt>
   <trkpt lat="12.9076860" lon="99.6886700">
    <ele>91.2</ele>
    <time>2018-01-27T06:29:09Z</time>
   </trkpt>
   <trkpt lat="12.9077590" lon="99.6886460">
    <ele>91.1</ele>
    <time>2018-01-27T06:29:10Z</time>
   </trkpt>
   <trkpt lat="12.9078250" lon="99.6886270">
    <ele>91.0</ele>
    <time>2018-01-27T06:29:11Z</time>
   </trkpt>
   <trkpt lat="12.9078880" lon="99.6886100">
    <ele>90.9</ele>
    <time>2018-01-27T06:29:12Z</time>
   </trkpt>
   <trkpt lat="12.9079480" lon="99.6885900">
    <ele>90.8</ele>
    <time>2018-01-27T06:29:13Z</time>
   </trkpt>
   <trkpt lat="12.9080070" lon="99.6885710">
    <ele>90.8</ele>
    <time>2018-01-27T06:29:14Z</time>
   </trkpt>
   <trkpt lat="12.9080610" lon="99.6885560">
    <ele>90.8</ele>
    <time>2018-01-27T06:29:15Z</time>
   </trkpt>
   <trkpt lat="12.9081150" lon="99.6885440">
    <ele>90.8</ele>
    <time>2018-01-27T06:29:16Z</time>
   </trkpt>
   <trkpt lat="12.9081580" lon="99.6885390">
    <ele>90.8</ele>
    <time>2018-01-27T06:29:17Z</time>
   </trkpt>
   <trkpt lat="12.9081540" lon="99.6885720">
    <ele>90.0</ele>
    <time>2018-01-27T06:29:18Z</time>
   </trkpt>
   <trkpt lat="12.9081500" lon="99.6886040">
    <ele>90.0</ele>
    <time>2018-01-27T06:29:19Z</time>
   </trkpt>
   <trkpt lat="12.9081600" lon="99.6886480">
    <ele>90.2</ele>
    <time>2018-01-27T06:29:20Z</time>
   </trkpt>
   <trkpt lat="12.9081740" lon="99.6887040">
    <ele>90.2</ele>
    <time>2018-01-27T06:29:21Z</time>
   </trkpt>
   <trkpt lat="12.9081780" lon="99.6887400">
    <ele>90.3</ele>
    <time>2018-01-27T06:29:22Z</time>
   </trkpt>
   <trkpt lat="12.9081830" lon="99.6887890">
    <ele>90.4</ele>
    <time>2018-01-27T06:29:23Z</time>
   </trkpt>
   <trkpt lat="12.9081870" lon="99.6888480">
    <ele>90.3</ele>
    <time>2018-01-27T06:29:24Z</time>
   </trkpt>
   <trkpt lat="12.9081960" lon="99.6889090">
    <ele>90.1</ele>
    <time>2018-01-27T06:29:25Z</time>
   </trkpt>
   <trkpt lat="12.9082060" lon="99.6889740">
    <ele>90.3</ele>
    <time>2018-01-27T06:29:26Z</time>
   </trkpt>
   <trkpt lat="12.9082080" lon="99.6890190">
    <ele>90.1</ele>
    <time>2018-01-27T06:29:27Z</time>
   </trkpt>
   <trkpt lat="12.9082240" lon="99.6890840">
    <ele>90.2</ele>
    <time>2018-01-27T06:29:28Z</time>
   </trkpt>
   <trkpt lat="12.9082300" lon="99.6891310">
    <ele>90.3</ele>
    <time>2018-01-27T06:29:29Z</time>
   </trkpt>
   <trkpt lat="12.9082440" lon="99.6891910">
    <ele>90.7</ele>
    <time>2018-01-27T06:29:30Z</time>
   </trkpt>
   <trkpt lat="12.9082460" lon="99.6892360">
    <ele>90.4</ele>
    <time>2018-01-27T06:29:31Z</time>
   </trkpt>
   <trkpt lat="12.9082570" lon="99.6892880">
    <ele>90.2</ele>
    <time>2018-01-27T06:29:32Z</time>
   </trkpt>
   <trkpt lat="12.9082780" lon="99.6893430">
    <ele>89.7</ele>
    <time>2018-01-27T06:29:33Z</time>
   </trkpt>
   <trkpt lat="12.9082980" lon="99.6894030">
    <ele>90.0</ele>
    <time>2018-01-27T06:29:34Z</time>
   </trkpt>
   <trkpt lat="12.9083090" lon="99.6894650">
    <ele>90.0</ele>
    <time>2018-01-27T06:29:35Z</time>
   </trkpt>
   <trkpt lat="12.9083210" lon="99.6895260">
    <ele>89.9</ele>
    <time>2018-01-27T06:29:36Z</time>
   </trkpt>
   <trkpt lat="12.9083360" lon="99.6895750">
    <ele>89.7</ele>
    <time>2018-01-27T06:29:37Z</time>
   </trkpt>
   <trkpt lat="12.9083520" lon="99.6896400">
    <ele>89.6</ele>
    <time>2018-01-27T06:29:38Z</time>
   </trkpt>
   <trkpt lat="12.9083670" lon="99.6896980">
    <ele>89.6</ele>
    <time>2018-01-27T06:29:39Z</time>
   </trkpt>
   <trkpt lat="12.9083880" lon="99.6897480">
    <ele>89.3</ele>
    <time>2018-01-27T06:29:40Z</time>
   </trkpt>
   <trkpt lat="12.9084020" lon="99.6897900">
    <ele>88.8</ele>
    <time>2018-01-27T06:29:41Z</time>
   </trkpt>
   <trkpt lat="12.9084160" lon="99.6898430">
    <ele>88.4</ele>
    <time>2018-01-27T06:29:42Z</time>
   </trkpt>
   <trkpt lat="12.9084320" lon="99.6898930">
    <ele>87.8</ele>
    <time>2018-01-27T06:29:43Z</time>
   </trkpt>
   <trkpt lat="12.9084500" lon="99.6899380">
    <ele>87.5</ele>
    <time>2018-01-27T06:29:44Z</time>
   </trkpt>
   <trkpt lat="12.9084730" lon="99.6899920">
    <ele>86.4</ele>
    <time>2018-01-27T06:29:45Z</time>
   </trkpt>
   <trkpt lat="12.9084950" lon="99.6900670">
    <ele>86.6</ele>
    <time>2018-01-27T06:29:46Z</time>
   </trkpt>
   <trkpt lat="12.9085180" lon="99.6901400">
    <ele>86.1</ele>
    <time>2018-01-27T06:29:47Z</time>
   </trkpt>
   <trkpt lat="12.9085390" lon="99.6902050">
    <ele>86.3</ele>
    <time>2018-01-27T06:29:48Z</time>
   </trkpt>
   <trkpt lat="12.9085610" lon="99.6902690">
    <ele>86.3</ele>
    <time>2018-01-27T06:29:49Z</time>
   </trkpt>
   <trkpt lat="12.9085760" lon="99.6903430">
    <ele>86.9</ele>
    <time>2018-01-27T06:29:50Z</time>
   </trkpt>
   <trkpt lat="12.9085870" lon="99.6904160">
    <ele>87.4</ele>
    <time>2018-01-27T06:29:51Z</time>
   </trkpt>
   <trkpt lat="12.9086070" lon="99.6904770">
    <ele>87.7</ele>
    <time>2018-01-27T06:29:52Z</time>
   </trkpt>
   <trkpt lat="12.9086300" lon="99.6905420">
    <ele>88.7</ele>
    <time>2018-01-27T06:29:53Z</time>
   </trkpt>
   <trkpt lat="12.9086520" lon="99.6906040">
    <ele>88.8</ele>
    <time>2018-01-27T06:29:54Z</time>
   </trkpt>
   <trkpt lat="12.9086740" lon="99.6906640">
    <ele>89.5</ele>
    <time>2018-01-27T06:29:55Z</time>
   </trkpt>
   <trkpt lat="12.9086880" lon="99.6907250">
    <ele>89.5</ele>
    <time>2018-01-27T06:29:56Z</time>
   </trkpt>
   <trkpt lat="12.9086980" lon="99.6907770">
    <ele>89.6</ele>
    <time>2018-01-27T06:29:57Z</time>
   </trkpt>
   <trkpt lat="12.9087100" lon="99.6908320">
    <ele>90.5</ele>
    <time>2018-01-27T06:29:58Z</time>
   </trkpt>
   <trkpt lat="12.9087230" lon="99.6908970">
    <ele>90.2</ele>
    <time>2018-01-27T06:29:59Z</time>
   </trkpt>
   <trkpt lat="12.9087340" lon="99.6909460">
    <ele>89.8</ele>
    <time>2018-01-27T06:30:00Z</time>
   </trkpt>
   <trkpt lat="12.9087480" lon="99.6910090">
    <ele>89.9</ele>
    <time>2018-01-27T06:30:01Z</time>
   </trkpt>
   <trkpt lat="12.9087660" lon="99.6910730">
    <ele>88.8</ele>
    <time>2018-01-27T06:30:02Z</time>
   </trkpt>
   <trkpt lat="12.9087780" lon="99.6911360">
    <ele>88.3</ele>
    <time>2018-01-27T06:30:03Z</time>
   </trkpt>
   <trkpt lat="12.9087990" lon="99.6912070">
    <ele>87.7</ele>
    <time>2018-01-27T06:30:04Z</time>
   </trkpt>
   <trkpt lat="12.9088040" lon="99.6912850">
    <ele>86.4</ele>
    <time>2018-01-27T06:30:05Z</time>
   </trkpt>
   <trkpt lat="12.9088160" lon="99.6913500">
    <ele>85.9</ele>
    <time>2018-01-27T06:30:06Z</time>
   </trkpt>
   <trkpt lat="12.9088310" lon="99.6914180">
    <ele>85.6</ele>
    <time>2018-01-27T06:30:07Z</time>
   </trkpt>
   <trkpt lat="12.9088560" lon="99.6914820">
    <ele>85.6</ele>
    <time>2018-01-27T06:30:08Z</time>
   </trkpt>
   <trkpt lat="12.9088670" lon="99.6915470">
    <ele>85.9</ele>
    <time>2018-01-27T06:30:09Z</time>
   </trkpt>
   <trkpt lat="12.9088860" lon="99.6916150">
    <ele>86.1</ele>
    <time>2018-01-27T06:30:10Z</time>
   </trkpt>
   <trkpt lat="12.9089140" lon="99.6916820">
    <ele>85.9</ele>
    <time>2018-01-27T06:30:11Z</time>
   </trkpt>
   <trkpt lat="12.9089370" lon="99.6917520">
    <ele>85.1</ele>
    <time>2018-01-27T06:30:12Z</time>
   </trkpt>
   <trkpt lat="12.9089660" lon="99.6918130">
    <ele>84.7</ele>
    <time>2018-01-27T06:30:13Z</time>
   </trkpt>
   <trkpt lat="12.9089880" lon="99.6918610">
    <ele>84.2</ele>
    <time>2018-01-27T06:30:14Z</time>
   </trkpt>
   <trkpt lat="12.9089960" lon="99.6918950">
    <ele>84.0</ele>
    <time>2018-01-27T06:30:15Z</time>
   </trkpt>
   <trkpt lat="12.9090040" lon="99.6919260">
    <ele>83.7</ele>
    <time>2018-01-27T06:30:16Z</time>
   </trkpt>
   <trkpt lat="12.9090170" lon="99.6919600">
    <ele>83.4</ele>
    <time>2018-01-27T06:30:17Z</time>
   </trkpt>
   <trkpt lat="12.9090280" lon="99.6919950">
    <ele>83.4</ele>
    <time>2018-01-27T06:30:18Z</time>
   </trkpt>
   <trkpt lat="12.9090380" lon="99.6920280">
    <ele>83.5</ele>
    <time>2018-01-27T06:30:19Z</time>
   </trkpt>
   <trkpt lat="12.9090430" lon="99.6920650">
    <ele>83.3</ele>
    <time>2018-01-27T06:30:20Z</time>
   </trkpt>
   <trkpt lat="12.9090580" lon="99.6921260">
    <ele>83.1</ele>
    <time>2018-01-27T06:30:22Z</time>
   </trkpt>
   <trkpt lat="12.9090660" lon="99.6921600">
    <ele>82.9</ele>
    <time>2018-01-27T06:30:23Z</time>
   </trkpt>
   <trkpt lat="12.9090760" lon="99.6921990">
    <ele>82.7</ele>
    <time>2018-01-27T06:30:24Z</time>
   </trkpt>
   <trkpt lat="12.9090890" lon="99.6922340">
    <ele>82.6</ele>
    <time>2018-01-27T06:30:25Z</time>
   </trkpt>
   <trkpt lat="12.9090990" lon="99.6922620">
    <ele>82.6</ele>
    <time>2018-01-27T06:30:26Z</time>
   </trkpt>
   <trkpt lat="12.9091040" lon="99.6922940">
    <ele>82.6</ele>
    <time>2018-01-27T06:30:27Z</time>
   </trkpt>
   <trkpt lat="12.9091160" lon="99.6923320">
    <ele>82.6</ele>
    <time>2018-01-27T06:30:28Z</time>
   </trkpt>
   <trkpt lat="12.9091290" lon="99.6923680">
    <ele>82.6</ele>
    <time>2018-01-27T06:30:29Z</time>
   </trkpt>
   <trkpt lat="12.9091420" lon="99.6924030">
    <ele>82.6</ele>
    <time>2018-01-27T06:30:30Z</time>
   </trkpt>
   <trkpt lat="12.9091540" lon="99.6924440">
    <ele>82.7</ele>
    <time>2018-01-27T06:30:31Z</time>
   </trkpt>
   <trkpt lat="12.9091640" lon="99.6924910">
    <ele>82.8</ele>
    <time>2018-01-27T06:30:32Z</time>
   </trkpt>
   <trkpt lat="12.9091710" lon="99.6925360">
    <ele>82.9</ele>
    <time>2018-01-27T06:30:33Z</time>
   </trkpt>
   <trkpt lat="12.9091750" lon="99.6925730">
    <ele>83.1</ele>
    <time>2018-01-27T06:30:34Z</time>
   </trkpt>
   <trkpt lat="12.9091770" lon="99.6926140">
    <ele>83.3</ele>
    <time>2018-01-27T06:30:35Z</time>
   </trkpt>
   <trkpt lat="12.9091810" lon="99.6926580">
    <ele>83.4</ele>
    <time>2018-01-27T06:30:36Z</time>
   </trkpt>
   <trkpt lat="12.9091910" lon="99.6927010">
    <ele>83.6</ele>
    <time>2018-01-27T06:30:37Z</time>
   </trkpt>
   <trkpt lat="12.9091980" lon="99.6927280">
    <ele>83.6</ele>
    <time>2018-01-27T06:30:38Z</time>
   </trkpt>
   <trkpt lat="12.9092060" lon="99.6927710">
    <ele>83.8</ele>
    <time>2018-01-27T06:30:40Z</time>
   </trkpt>
   <trkpt lat="12.9092060" lon="99.6928200">
    <ele>83.9</ele>
    <time>2018-01-27T06:30:42Z</time>
   </trkpt>
   <trkpt lat="12.9092000" lon="99.6928620">
    <ele>84.2</ele>
    <time>2018-01-27T06:30:44Z</time>
   </trkpt>
   <trkpt lat="12.9091970" lon="99.6929070">
    <ele>84.4</ele>
    <time>2018-01-27T06:30:46Z</time>
   </trkpt>
   <trkpt lat="12.9091990" lon="99.6929350">
    <ele>84.4</ele>
    <time>2018-01-27T06:30:47Z</time>
   </trkpt>
   <trkpt lat="12.9092020" lon="99.6929650">
    <ele>84.6</ele>
    <time>2018-01-27T06:30:48Z</time>
   </trkpt>
   <trkpt lat="12.9092070" lon="99.6930110">
    <ele>84.5</ele>
    <time>2018-01-27T06:30:50Z</time>
   </trkpt>
   <trkpt lat="12.9092130" lon="99.6931950">
    <ele>85.0</ele>
    <time>2018-01-27T06:30:52Z</time>
   </trkpt>
   <trkpt lat="12.9092160" lon="99.6932360">
    <ele>85.0</ele>
    <time>2018-01-27T06:30:53Z</time>
   </trkpt>
   <trkpt lat="12.9092210" lon="99.6932740">
    <ele>85.0</ele>
    <time>2018-01-27T06:30:54Z</time>
   </trkpt>
   <trkpt lat="12.9092200" lon="99.6933130">
    <ele>85.0</ele>
    <time>2018-01-27T06:30:55Z</time>
   </trkpt>
   <trkpt lat="12.9092300" lon="99.6933540">
    <ele>85.0</ele>
    <time>2018-01-27T06:30:56Z</time>
   </trkpt>
   <trkpt lat="12.9092310" lon="99.6933850">
    <ele>85.1</ele>
    <time>2018-01-27T06:30:57Z</time>
   </trkpt>
   <trkpt lat="12.9092320" lon="99.6934130">
    <ele>85.1</ele>
    <time>2018-01-27T06:30:58Z</time>
   </trkpt>
   <trkpt lat="12.9092350" lon="99.6934480">
    <ele>85.1</ele>
    <time>2018-01-27T06:30:59Z</time>
   </trkpt>
   <trkpt lat="12.9092390" lon="99.6934930">
    <ele>85.1</ele>
    <time>2018-01-27T06:31:00Z</time>
   </trkpt>
   <trkpt lat="12.9092480" lon="99.6935460">
    <ele>85.0</ele>
    <time>2018-01-27T06:31:02Z</time>
   </trkpt>
   <trkpt lat="12.9092540" lon="99.6935940">
    <ele>85.0</ele>
    <time>2018-01-27T06:31:03Z</time>
   </trkpt>
   <trkpt lat="12.9092600" lon="99.6936370">
    <ele>85.2</ele>
    <time>2018-01-27T06:31:04Z</time>
   </trkpt>
   <trkpt lat="12.9092770" lon="99.6937910">
    <ele>86.0</ele>
    <time>2018-01-27T06:31:07Z</time>
   </trkpt>
   <trkpt lat="12.9092810" lon="99.6938380">
    <ele>86.2</ele>
    <time>2018-01-27T06:31:08Z</time>
   </trkpt>
   <trkpt lat="12.9092860" lon="99.6938820">
    <ele>86.3</ele>
    <time>2018-01-27T06:31:09Z</time>
   </trkpt>
   <trkpt lat="12.9092840" lon="99.6939130">
    <ele>86.3</ele>
    <time>2018-01-27T06:31:10Z</time>
   </trkpt>
   <trkpt lat="12.9092870" lon="99.6939780">
    <ele>86.0</ele>
    <time>2018-01-27T06:31:11Z</time>
   </trkpt>
   <trkpt lat="12.9092900" lon="99.6940310">
    <ele>85.8</ele>
    <time>2018-01-27T06:31:12Z</time>
   </trkpt>
   <trkpt lat="12.9092980" lon="99.6940960">
    <ele>85.5</ele>
    <time>2018-01-27T06:31:13Z</time>
   </trkpt>
   <trkpt lat="12.9093080" lon="99.6941310">
    <ele>85.3</ele>
    <time>2018-01-27T06:31:14Z</time>
   </trkpt>
   <trkpt lat="12.9093200" lon="99.6941940">
    <ele>85.2</ele>
    <time>2018-01-27T06:31:15Z</time>
   </trkpt>
   <trkpt lat="12.9093330" lon="99.6942490">
    <ele>85.2</ele>
    <time>2018-01-27T06:31:16Z</time>
   </trkpt>
   <trkpt lat="12.9093410" lon="99.6943140">
    <ele>85.3</ele>
    <time>2018-01-27T06:31:17Z</time>
   </trkpt>
   <trkpt lat="12.9093480" lon="99.6943620">
    <ele>85.3</ele>
    <time>2018-01-27T06:31:18Z</time>
   </trkpt>
   <trkpt lat="12.9093510" lon="99.6944190">
    <ele>85.3</ele>
    <time>2018-01-27T06:31:19Z</time>
   </trkpt>
   <trkpt lat="12.9093520" lon="99.6944820">
    <ele>85.3</ele>
    <time>2018-01-27T06:31:20Z</time>
   </trkpt>
   <trkpt lat="12.9093600" lon="99.6945390">
    <ele>85.5</ele>
    <time>2018-01-27T06:31:21Z</time>
   </trkpt>
   <trkpt lat="12.9093680" lon="99.6946060">
    <ele>85.6</ele>
    <time>2018-01-27T06:31:22Z</time>
   </trkpt>
   <trkpt lat="12.9093680" lon="99.6946740">
    <ele>85.4</ele>
    <time>2018-01-27T06:31:23Z</time>
   </trkpt>
   <trkpt lat="12.9093800" lon="99.6947400">
    <ele>85.2</ele>
    <time>2018-01-27T06:31:24Z</time>
   </trkpt>
   <trkpt lat="12.9093900" lon="99.6948120">
    <ele>84.6</ele>
    <time>2018-01-27T06:31:25Z</time>
   </trkpt>
   <trkpt lat="12.9093870" lon="99.6948810">
    <ele>84.1</ele>
    <time>2018-01-27T06:31:26Z</time>
   </trkpt>
   <trkpt lat="12.9093920" lon="99.6949490">
    <ele>83.9</ele>
    <time>2018-01-27T06:31:27Z</time>
   </trkpt>
   <trkpt lat="12.9093910" lon="99.6950280">
    <ele>83.7</ele>
    <time>2018-01-27T06:31:28Z</time>
   </trkpt>
   <trkpt lat="12.9093940" lon="99.6951020">
    <ele>83.8</ele>
    <time>2018-01-27T06:31:29Z</time>
   </trkpt>
   <trkpt lat="12.9093940" lon="99.6951700">
    <ele>83.9</ele>
    <time>2018-01-27T06:31:30Z</time>
   </trkpt>
   <trkpt lat="12.9093960" lon="99.6952370">
    <ele>84.0</ele>
    <time>2018-01-27T06:31:31Z</time>
   </trkpt>
   <trkpt lat="12.9093980" lon="99.6953070">
    <ele>83.9</ele>
    <time>2018-01-27T06:31:32Z</time>
   </trkpt>
   <trkpt lat="12.9093960" lon="99.6953770">
    <ele>83.8</ele>
    <time>2018-01-27T06:31:33Z</time>
   </trkpt>
   <trkpt lat="12.9093950" lon="99.6954390">
    <ele>83.6</ele>
    <time>2018-01-27T06:31:34Z</time>
   </trkpt>
   <trkpt lat="12.9094000" lon="99.6955050">
    <ele>83.6</ele>
    <time>2018-01-27T06:31:35Z</time>
   </trkpt>
   <trkpt lat="12.9094010" lon="99.6955740">
    <ele>83.5</ele>
    <time>2018-01-27T06:31:36Z</time>
   </trkpt>
   <trkpt lat="12.9094010" lon="99.6956460">
    <ele>83.5</ele>
    <time>2018-01-27T06:31:37Z</time>
   </trkpt>
   <trkpt lat="12.9094030" lon="99.6957140">
    <ele>83.5</ele>
    <time>2018-01-27T06:31:38Z</time>
   </trkpt>
   <trkpt lat="12.9094090" lon="99.6957740">
    <ele>83.4</ele>
    <time>2018-01-27T06:31:39Z</time>
   </trkpt>
   <trkpt lat="12.9094120" lon="99.6958320">
    <ele>83.5</ele>
    <time>2018-01-27T06:31:40Z</time>
   </trkpt>
   <trkpt lat="12.9094090" lon="99.6958930">
    <ele>83.2</ele>
    <time>2018-01-27T06:31:41Z</time>
   </trkpt>
   <trkpt lat="12.9094080" lon="99.6959600">
    <ele>83.2</ele>
    <time>2018-01-27T06:31:42Z</time>
   </trkpt>
   <trkpt lat="12.9094010" lon="99.6960410">
    <ele>83.3</ele>
    <time>2018-01-27T06:31:43Z</time>
   </trkpt>
   <trkpt lat="12.9094040" lon="99.6961110">
    <ele>83.2</ele>
    <time>2018-01-27T06:31:44Z</time>
   </trkpt>
   <trkpt lat="12.9094010" lon="99.6961800">
    <ele>83.2</ele>
    <time>2018-01-27T06:31:45Z</time>
   </trkpt>
   <trkpt lat="12.9094020" lon="99.6962640">
    <ele>83.6</ele>
    <time>2018-01-27T06:31:46Z</time>
   </trkpt>
   <trkpt lat="12.9094040" lon="99.6963320">
    <ele>83.9</ele>
    <time>2018-01-27T06:31:47Z</time>
   </trkpt>
   <trkpt lat="12.9094050" lon="99.6963950">
    <ele>84.5</ele>
    <time>2018-01-27T06:31:48Z</time>
   </trkpt>
   <trkpt lat="12.9094090" lon="99.6964570">
    <ele>84.6</ele>
    <time>2018-01-27T06:31:49Z</time>
   </trkpt>
   <trkpt lat="12.9094080" lon="99.6965140">
    <ele>84.7</ele>
    <time>2018-01-27T06:31:50Z</time>
   </trkpt>
   <trkpt lat="12.9094120" lon="99.6965750">
    <ele>84.7</ele>
    <time>2018-01-27T06:31:51Z</time>
   </trkpt>
   <trkpt lat="12.9094030" lon="99.6966370">
    <ele>84.1</ele>
    <time>2018-01-27T06:31:52Z</time>
   </trkpt>
   <trkpt lat="12.9094100" lon="99.6967170">
    <ele>83.8</ele>
    <time>2018-01-27T06:31:53Z</time>
   </trkpt>
   <trkpt lat="12.9094110" lon="99.6967820">
    <ele>82.9</ele>
    <time>2018-01-27T06:31:54Z</time>
   </trkpt>
   <trkpt lat="12.9094170" lon="99.6968640">
    <ele>82.0</ele>
    <time>2018-01-27T06:31:55Z</time>
   </trkpt>
   <trkpt lat="12.9094260" lon="99.6969280">
    <ele>81.6</ele>
    <time>2018-01-27T06:31:56Z</time>
   </trkpt>
   <trkpt lat="12.9094230" lon="99.6969860">
    <ele>81.1</ele>
    <time>2018-01-27T06:31:57Z</time>
   </trkpt>
   <trkpt lat="12.9094140" lon="99.6970350">
    <ele>80.9</ele>
    <time>2018-01-27T06:31:58Z</time>
   </trkpt>
   <trkpt lat="12.9094140" lon="99.6970980">
    <ele>80.7</ele>
    <time>2018-01-27T06:31:59Z</time>
   </trkpt>
   <trkpt lat="12.9094200" lon="99.6971570">
    <ele>80.3</ele>
    <time>2018-01-27T06:32:00Z</time>
   </trkpt>
   <trkpt lat="12.9094220" lon="99.6972200">
    <ele>80.1</ele>
    <time>2018-01-27T06:32:01Z</time>
   </trkpt>
   <trkpt lat="12.9094180" lon="99.6972740">
    <ele>79.7</ele>
    <time>2018-01-27T06:32:02Z</time>
   </trkpt>
   <trkpt lat="12.9094110" lon="99.6973200">
    <ele>78.9</ele>
    <time>2018-01-27T06:32:03Z</time>
   </trkpt>
   <trkpt lat="12.9094110" lon="99.6973500">
    <ele>78.4</ele>
    <time>2018-01-27T06:32:04Z</time>
   </trkpt>
   <trkpt lat="12.9094320" lon="99.6973860">
    <ele>78.2</ele>
    <time>2018-01-27T06:32:05Z</time>
   </trkpt>
   <trkpt lat="12.9094910" lon="99.6974030">
    <ele>78.5</ele>
    <time>2018-01-27T06:32:07Z</time>
   </trkpt>
   <trkpt lat="12.9095540" lon="99.6974030">
    <ele>78.8</ele>
    <time>2018-01-27T06:32:10Z</time>
   </trkpt>
   <trkpt lat="12.9096290" lon="99.6974220">
    <ele>79.3</ele>
    <time>2018-01-27T06:32:11Z</time>
   </trkpt>
   <trkpt lat="12.9097230" lon="99.6974480">
    <ele>80.3</ele>
    <time>2018-01-27T06:32:12Z</time>
   </trkpt>
   <trkpt lat="12.9098390" lon="99.6974550">
    <ele>81.2</ele>
    <time>2018-01-27T06:32:13Z</time>
   </trkpt>
   <trkpt lat="12.9098930" lon="99.6974760">
    <ele>81.3</ele>
    <time>2018-01-27T06:32:14Z</time>
   </trkpt>
   <trkpt lat="12.9099380" lon="99.6975210">
    <ele>80.9</ele>
    <time>2018-01-27T06:32:15Z</time>
   </trkpt>
   <trkpt lat="12.9099860" lon="99.6975560">
    <ele>80.4</ele>
    <time>2018-01-27T06:32:16Z</time>
   </trkpt>
   <trkpt lat="12.9100430" lon="99.6975680">
    <ele>80.4</ele>
    <time>2018-01-27T06:32:17Z</time>
   </trkpt>
   <trkpt lat="12.9101040" lon="99.6975630">
    <ele>80.4</ele>
    <time>2018-01-27T06:32:18Z</time>
   </trkpt>
   <trkpt lat="12.9101540" lon="99.6975430">
    <ele>80.4</ele>
    <time>2018-01-27T06:32:19Z</time>
   </trkpt>
   <trkpt lat="12.9102000" lon="99.6975150">
    <ele>81.0</ele>
    <time>2018-01-27T06:32:20Z</time>
   </trkpt>
   <trkpt lat="12.9102420" lon="99.6975110">
    <ele>81.1</ele>
    <time>2018-01-27T06:32:21Z</time>
   </trkpt>
   <trkpt lat="12.9102820" lon="99.6975300">
    <ele>81.1</ele>
    <time>2018-01-27T06:32:22Z</time>
   </trkpt>
   <trkpt lat="12.9103250" lon="99.6975450">
    <ele>80.6</ele>
    <time>2018-01-27T06:32:23Z</time>
   </trkpt>
   <trkpt lat="12.9103730" lon="99.6975700">
    <ele>80.6</ele>
    <time>2018-01-27T06:32:24Z</time>
   </trkpt>
   <trkpt lat="12.9104250" lon="99.6975900">
    <ele>80.1</ele>
    <time>2018-01-27T06:32:25Z</time>
   </trkpt>
   <trkpt lat="12.9104810" lon="99.6976070">
    <ele>80.0</ele>
    <time>2018-01-27T06:32:28Z</time>
   </trkpt>
   <trkpt lat="12.9105020" lon="99.6976180">
    <ele>79.7</ele>
    <time>2018-01-27T06:32:29Z</time>
   </trkpt>
   <trkpt lat="12.9105410" lon="99.6976320">
    <ele>79.2</ele>
    <time>2018-01-27T06:32:30Z</time>
   </trkpt>
   <trkpt lat="12.9107760" lon="99.6977220">
    <ele>77.6</ele>
    <time>2018-01-27T06:32:32Z</time>
   </trkpt>
   <trkpt lat="12.9108250" lon="99.6977390">
    <ele>77.6</ele>
    <time>2018-01-27T06:32:33Z</time>
   </trkpt>
   <trkpt lat="12.9108780" lon="99.6977640">
    <ele>77.1</ele>
    <time>2018-01-27T06:32:34Z</time>
   </trkpt>
   <trkpt lat="12.9109230" lon="99.6977910">
    <ele>77.2</ele>
    <time>2018-01-27T06:32:35Z</time>
   </trkpt>
   <trkpt lat="12.9109590" lon="99.6978210">
    <ele>76.9</ele>
    <time>2018-01-27T06:32:36Z</time>
   </trkpt>
   <trkpt lat="12.9110010" lon="99.6978440">
    <ele>76.6</ele>
    <time>2018-01-27T06:32:37Z</time>
   </trkpt>
   <trkpt lat="12.9110490" lon="99.6978660">
    <ele>76.5</ele>
    <time>2018-01-27T06:32:38Z</time>
   </trkpt>
   <trkpt lat="12.9111060" lon="99.6978650">
    <ele>76.6</ele>
    <time>2018-01-27T06:32:39Z</time>
   </trkpt>
   <trkpt lat="12.9111540" lon="99.6978750">
    <ele>76.7</ele>
    <time>2018-01-27T06:32:40Z</time>
   </trkpt>
   <trkpt lat="12.9111970" lon="99.6978950">
    <ele>76.9</ele>
    <time>2018-01-27T06:32:41Z</time>
   </trkpt>
   <trkpt lat="12.9112570" lon="99.6979150">
    <ele>77.4</ele>
    <time>2018-01-27T06:32:44Z</time>
   </trkpt>
   <trkpt lat="12.9113080" lon="99.6979300">
    <ele>77.5</ele>
    <time>2018-01-27T06:32:45Z</time>
   </trkpt>
   <trkpt lat="12.9115070" lon="99.6979930">
    <ele>78.0</ele>
    <time>2018-01-27T06:32:47Z</time>
   </trkpt>
   <trkpt lat="12.9115550" lon="99.6980060">
    <ele>78.3</ele>
    <time>2018-01-27T06:32:48Z</time>
   </trkpt>
   <trkpt lat="12.9116060" lon="99.6980230">
    <ele>78.9</ele>
    <time>2018-01-27T06:32:49Z</time>
   </trkpt>
   <trkpt lat="12.9116520" lon="99.6980410">
    <ele>79.1</ele>
    <time>2018-01-27T06:32:50Z</time>
   </trkpt>
   <trkpt lat="12.9116920" lon="99.6980650">
    <ele>79.7</ele>
    <time>2018-01-27T06:32:51Z</time>
   </trkpt>
   <trkpt lat="12.9117350" lon="99.6980840">
    <ele>79.9</ele>
    <time>2018-01-27T06:32:52Z</time>
   </trkpt>
   <trkpt lat="12.9117760" lon="99.6981030">
    <ele>80.7</ele>
    <time>2018-01-27T06:32:53Z</time>
   </trkpt>
   <trkpt lat="12.9118220" lon="99.6981190">
    <ele>80.9</ele>
    <time>2018-01-27T06:32:54Z</time>
   </trkpt>
   <trkpt lat="12.9118560" lon="99.6981380">
    <ele>81.2</ele>
    <time>2018-01-27T06:32:55Z</time>
   </trkpt>
   <trkpt lat="12.9119020" lon="99.6981480">
    <ele>81.8</ele>
    <time>2018-01-27T06:32:56Z</time>
   </trkpt>
   <trkpt lat="12.9119420" lon="99.6981630">
    <ele>82.0</ele>
    <time>2018-01-27T06:32:57Z</time>
   </trkpt>
   <trkpt lat="12.9120060" lon="99.6981910">
    <ele>82.5</ele>
    <time>2018-01-27T06:33:00Z</time>
   </trkpt>
   <trkpt lat="12.9120390" lon="99.6982050">
    <ele>82.5</ele>
    <time>2018-01-27T06:33:01Z</time>
   </trkpt>
   <trkpt lat="12.9120640" lon="99.6982150">
    <ele>82.6</ele>
    <time>2018-01-27T06:33:02Z</time>
   </trkpt>
   <trkpt lat="12.9121630" lon="99.6982800">
    <ele>82.7</ele>
    <time>2018-01-27T06:33:03Z</time>
   </trkpt>
   <trkpt lat="12.9122130" lon="99.6982720">
    <ele>82.8</ele>
    <time>2018-01-27T06:33:04Z</time>
   </trkpt>
   <trkpt lat="12.9122560" lon="99.6982780">
    <ele>82.7</ele>
    <time>2018-01-27T06:33:05Z</time>
   </trkpt>
   <trkpt lat="12.9122950" lon="99.6982830">
    <ele>82.8</ele>
    <time>2018-01-27T06:33:06Z</time>
   </trkpt>
   <trkpt lat="12.9123410" lon="99.6982780">
    <ele>82.1</ele>
    <time>2018-01-27T06:33:07Z</time>
   </trkpt>
   <trkpt lat="12.9123820" lon="99.6982740">
    <ele>81.6</ele>
    <time>2018-01-27T06:33:08Z</time>
   </trkpt>
   <trkpt lat="12.9124150" lon="99.6982720">
    <ele>81.6</ele>
    <time>2018-01-27T06:33:09Z</time>
   </trkpt>
   <trkpt lat="12.9124490" lon="99.6982720">
    <ele>81.1</ele>
    <time>2018-01-27T06:33:10Z</time>
   </trkpt>
   <trkpt lat="12.9124810" lon="99.6982730">
    <ele>80.7</ele>
    <time>2018-01-27T06:33:11Z</time>
   </trkpt>
   <trkpt lat="12.9125850" lon="99.6982760">
    <ele>80.1</ele>
    <time>2018-01-27T06:33:13Z</time>
   </trkpt>
   <trkpt lat="12.9126240" lon="99.6982830">
    <ele>80.0</ele>
    <time>2018-01-27T06:33:14Z</time>
   </trkpt>
   <trkpt lat="12.9126650" lon="99.6982890">
    <ele>79.8</ele>
    <time>2018-01-27T06:33:15Z</time>
   </trkpt>
   <trkpt lat="12.9127070" lon="99.6982930">
    <ele>79.8</ele>
    <time>2018-01-27T06:33:16Z</time>
   </trkpt>
   <trkpt lat="12.9127490" lon="99.6983030">
    <ele>79.8</ele>
    <time>2018-01-27T06:33:17Z</time>
   </trkpt>
   <trkpt lat="12.9127940" lon="99.6983070">
    <ele>79.9</ele>
    <time>2018-01-27T06:33:18Z</time>
   </trkpt>
   <trkpt lat="12.9128350" lon="99.6983100">
    <ele>80.3</ele>
    <time>2018-01-27T06:33:19Z</time>
   </trkpt>
   <trkpt lat="12.9128780" lon="99.6983140">
    <ele>80.6</ele>
    <time>2018-01-27T06:33:20Z</time>
   </trkpt>
   <trkpt lat="12.9129180" lon="99.6983180">
    <ele>81.0</ele>
    <time>2018-01-27T06:33:21Z</time>
   </trkpt>
   <trkpt lat="12.9129600" lon="99.6983210">
    <ele>81.3</ele>
    <time>2018-01-27T06:33:22Z</time>
   </trkpt>
   <trkpt lat="12.9129990" lon="99.6983260">
    <ele>81.6</ele>
    <time>2018-01-27T06:33:23Z</time>
   </trkpt>
   <trkpt lat="12.9130350" lon="99.6983320">
    <ele>81.7</ele>
    <time>2018-01-27T06:33:24Z</time>
   </trkpt>
   <trkpt lat="12.9130700" lon="99.6983350">
    <ele>81.9</ele>
    <time>2018-01-27T06:33:25Z</time>
   </trkpt>
   <trkpt lat="12.9130970" lon="99.6983380">
    <ele>82.0</ele>
    <time>2018-01-27T06:33:26Z</time>
   </trkpt>
   <trkpt lat="12.9131510" lon="99.6983380">
    <ele>82.0</ele>
    <time>2018-01-27T06:33:28Z</time>
   </trkpt>
   <trkpt lat="12.9131810" lon="99.6983340">
    <ele>82.1</ele>
    <time>2018-01-27T06:33:29Z</time>
   </trkpt>
   <trkpt lat="12.9132100" lon="99.6983280">
    <ele>82.1</ele>
    <time>2018-01-27T06:33:30Z</time>
   </trkpt>
   <trkpt lat="12.9132380" lon="99.6983220">
    <ele>82.2</ele>
    <time>2018-01-27T06:33:31Z</time>
   </trkpt>
   <trkpt lat="12.9132670" lon="99.6983140">
    <ele>82.1</ele>
    <time>2018-01-27T06:33:32Z</time>
   </trkpt>
   <trkpt lat="12.9132960" lon="99.6983070">
    <ele>82.2</ele>
    <time>2018-01-27T06:33:33Z</time>
   </trkpt>
   <trkpt lat="12.9133270" lon="99.6983030">
    <ele>82.0</ele>
    <time>2018-01-27T06:33:34Z</time>
   </trkpt>
   <trkpt lat="12.9133590" lon="99.6983020">
    <ele>81.8</ele>
    <time>2018-01-27T06:33:35Z</time>
   </trkpt>
   <trkpt lat="12.9133940" lon="99.6983030">
    <ele>81.5</ele>
    <time>2018-01-27T06:33:36Z</time>
   </trkpt>
   <trkpt lat="12.9134320" lon="99.6983070">
    <ele>81.3</ele>
    <time>2018-01-27T06:33:37Z</time>
   </trkpt>
   <trkpt lat="12.9134720" lon="99.6983120">
    <ele>81.5</ele>
    <time>2018-01-27T06:33:38Z</time>
   </trkpt>
   <trkpt lat="12.9135160" lon="99.6983160">
    <ele>81.6</ele>
    <time>2018-01-27T06:33:39Z</time>
   </trkpt>
   <trkpt lat="12.9135600" lon="99.6983180">
    <ele>81.6</ele>
    <time>2018-01-27T06:33:40Z</time>
   </trkpt>
   <trkpt lat="12.9136010" lon="99.6983190">
    <ele>81.7</ele>
    <time>2018-01-27T06:33:41Z</time>
   </trkpt>
   <trkpt lat="12.9136430" lon="99.6983180">
    <ele>81.6</ele>
    <time>2018-01-27T06:33:42Z</time>
   </trkpt>
   <trkpt lat="12.9136830" lon="99.6983150">
    <ele>81.4</ele>
    <time>2018-01-27T06:33:43Z</time>
   </trkpt>
   <trkpt lat="12.9137270" lon="99.6983140">
    <ele>81.2</ele>
    <time>2018-01-27T06:33:44Z</time>
   </trkpt>
   <trkpt lat="12.9137720" lon="99.6983150">
    <ele>81.0</ele>
    <time>2018-01-27T06:33:45Z</time>
   </trkpt>
   <trkpt lat="12.9138170" lon="99.6983160">
    <ele>81.0</ele>
    <time>2018-01-27T06:33:46Z</time>
   </trkpt>
   <trkpt lat="12.9138650" lon="99.6983180">
    <ele>81.2</ele>
    <time>2018-01-27T06:33:47Z</time>
   </trkpt>
   <trkpt lat="12.9139130" lon="99.6983200">
    <ele>81.5</ele>
    <time>2018-01-27T06:33:48Z</time>
   </trkpt>
   <trkpt lat="12.9139620" lon="99.6983240">
    <ele>81.9</ele>
    <time>2018-01-27T06:33:49Z</time>
   </trkpt>
   <trkpt lat="12.9140080" lon="99.6983260">
    <ele>82.2</ele>
    <time>2018-01-27T06:33:50Z</time>
   </trkpt>
   <trkpt lat="12.9140550" lon="99.6983270">
    <ele>82.7</ele>
    <time>2018-01-27T06:33:51Z</time>
   </trkpt>
   <trkpt lat="12.9141020" lon="99.6983250">
    <ele>82.9</ele>
    <time>2018-01-27T06:33:52Z</time>
   </trkpt>
   <trkpt lat="12.9141520" lon="99.6983250">
    <ele>83.1</ele>
    <time>2018-01-27T06:33:53Z</time>
   </trkpt>
   <trkpt lat="12.9142030" lon="99.6983260">
    <ele>83.3</ele>
    <time>2018-01-27T06:33:54Z</time>
   </trkpt>
   <trkpt lat="12.9142560" lon="99.6983320">
    <ele>83.5</ele>
    <time>2018-01-27T06:33:55Z</time>
   </trkpt>
   <trkpt lat="12.9143080" lon="99.6983370">
    <ele>83.8</ele>
    <time>2018-01-27T06:33:56Z</time>
   </trkpt>
   <trkpt lat="12.9143600" lon="99.6983370">
    <ele>83.9</ele>
    <time>2018-01-27T06:33:57Z</time>
   </trkpt>
   <trkpt lat="12.9144080" lon="99.6983340">
    <ele>84.0</ele>
    <time>2018-01-27T06:33:58Z</time>
   </trkpt>
   <trkpt lat="12.9144580" lon="99.6983300">
    <ele>84.1</ele>
    <time>2018-01-27T06:33:59Z</time>
   </trkpt>
   <trkpt lat="12.9145100" lon="99.6983270">
    <ele>84.3</ele>
    <time>2018-01-27T06:34:00Z</time>
   </trkpt>
   <trkpt lat="12.9145620" lon="99.6983260">
    <ele>84.7</ele>
    <time>2018-01-27T06:34:01Z</time>
   </trkpt>
   <trkpt lat="12.9146110" lon="99.6983240">
    <ele>84.9</ele>
    <time>2018-01-27T06:34:02Z</time>
   </trkpt>
   <trkpt lat="12.9146620" lon="99.6983240">
    <ele>85.0</ele>
    <time>2018-01-27T06:34:03Z</time>
   </trkpt>
   <trkpt lat="12.9147130" lon="99.6983250">
    <ele>85.0</ele>
    <time>2018-01-27T06:34:04Z</time>
   </trkpt>
   <trkpt lat="12.9147660" lon="99.6983250">
    <ele>85.0</ele>
    <time>2018-01-27T06:34:05Z</time>
   </trkpt>
   <trkpt lat="12.9148220" lon="99.6983170">
    <ele>85.1</ele>
    <time>2018-01-27T06:34:06Z</time>
   </trkpt>
   <trkpt lat="12.9148790" lon="99.6983160">
    <ele>85.3</ele>
    <time>2018-01-27T06:34:07Z</time>
   </trkpt>
   <trkpt lat="12.9149270" lon="99.6983170">
    <ele>85.6</ele>
    <time>2018-01-27T06:34:08Z</time>
   </trkpt>
   <trkpt lat="12.9149900" lon="99.6983160">
    <ele>85.7</ele>
    <time>2018-01-27T06:34:09Z</time>
   </trkpt>
   <trkpt lat="12.9150390" lon="99.6983080">
    <ele>86.2</ele>
    <time>2018-01-27T06:34:10Z</time>
   </trkpt>
   <trkpt lat="12.9150890" lon="99.6983100">
    <ele>85.3</ele>
    <time>2018-01-27T06:34:11Z</time>
   </trkpt>
   <trkpt lat="12.9151390" lon="99.6983170">
    <ele>85.1</ele>
    <time>2018-01-27T06:34:12Z</time>
   </trkpt>
   <trkpt lat="12.9151940" lon="99.6983180">
    <ele>84.9</ele>
    <time>2018-01-27T06:34:13Z</time>
   </trkpt>
   <trkpt lat="12.9152410" lon="99.6983250">
    <ele>85.0</ele>
    <time>2018-01-27T06:34:14Z</time>
   </trkpt>
   <trkpt lat="12.9152950" lon="99.6983340">
    <ele>85.1</ele>
    <time>2018-01-27T06:34:15Z</time>
   </trkpt>
   <trkpt lat="12.9153420" lon="99.6983350">
    <ele>85.1</ele>
    <time>2018-01-27T06:34:16Z</time>
   </trkpt>
   <trkpt lat="12.9153920" lon="99.6983390">
    <ele>85.1</ele>
    <time>2018-01-27T06:34:17Z</time>
   </trkpt>
   <trkpt lat="12.9154410" lon="99.6983420">
    <ele>84.9</ele>
    <time>2018-01-27T06:34:18Z</time>
   </trkpt>
   <trkpt lat="12.9154920" lon="99.6983430">
    <ele>84.8</ele>
    <time>2018-01-27T06:34:19Z</time>
   </trkpt>
   <trkpt lat="12.9155410" lon="99.6983450">
    <ele>84.7</ele>
    <time>2018-01-27T06:34:20Z</time>
   </trkpt>
   <trkpt lat="12.9155920" lon="99.6983480">
    <ele>84.7</ele>
    <time>2018-01-27T06:34:21Z</time>
   </trkpt>
   <trkpt lat="12.9156430" lon="99.6983470">
    <ele>84.7</ele>
    <time>2018-01-27T06:34:22Z</time>
   </trkpt>
   <trkpt lat="12.9156920" lon="99.6983340">
    <ele>85.2</ele>
    <time>2018-01-27T06:34:23Z</time>
   </trkpt>
   <trkpt lat="12.9157500" lon="99.6983430">
    <ele>85.6</ele>
    <time>2018-01-27T06:34:24Z</time>
   </trkpt>
   <trkpt lat="12.9158000" lon="99.6983360">
    <ele>85.9</ele>
    <time>2018-01-27T06:34:25Z</time>
   </trkpt>
   <trkpt lat="12.9158570" lon="99.6983390">
    <ele>86.2</ele>
    <time>2018-01-27T06:34:26Z</time>
   </trkpt>
   <trkpt lat="12.9159020" lon="99.6983340">
    <ele>86.2</ele>
    <time>2018-01-27T06:34:27Z</time>
   </trkpt>
   <trkpt lat="12.9159580" lon="99.6983310">
    <ele>86.1</ele>
    <time>2018-01-27T06:34:28Z</time>
   </trkpt>
   <trkpt lat="12.9160020" lon="99.6983300">
    <ele>86.1</ele>
    <time>2018-01-27T06:34:29Z</time>
   </trkpt>
   <trkpt lat="12.9160530" lon="99.6983290">
    <ele>86.1</ele>
    <time>2018-01-27T06:34:30Z</time>
   </trkpt>
   <trkpt lat="12.9161020" lon="99.6983280">
    <ele>86.1</ele>
    <time>2018-01-27T06:34:31Z</time>
   </trkpt>
   <trkpt lat="12.9161590" lon="99.6983250">
    <ele>86.1</ele>
    <time>2018-01-27T06:34:32Z</time>
   </trkpt>
   <trkpt lat="12.9162140" lon="99.6983260">
    <ele>86.1</ele>
    <time>2018-01-27T06:34:33Z</time>
   </trkpt>
   <trkpt lat="12.9162650" lon="99.6983270">
    <ele>86.1</ele>
    <time>2018-01-27T06:34:34Z</time>
   </trkpt>
   <trkpt lat="12.9163190" lon="99.6983140">
    <ele>86.1</ele>
    <time>2018-01-27T06:34:35Z</time>
   </trkpt>
   <trkpt lat="12.9163690" lon="99.6983140">
    <ele>86.2</ele>
    <time>2018-01-27T06:34:36Z</time>
   </trkpt>
   <trkpt lat="12.9164260" lon="99.6983110">
    <ele>86.3</ele>
    <time>2018-01-27T06:34:37Z</time>
   </trkpt>
   <trkpt lat="12.9164770" lon="99.6982990">
    <ele>86.2</ele>
    <time>2018-01-27T06:34:38Z</time>
   </trkpt>
   <trkpt lat="12.9165280" lon="99.6983060">
    <ele>86.1</ele>
    <time>2018-01-27T06:34:39Z</time>
   </trkpt>
   <trkpt lat="12.9165800" lon="99.6982950">
    <ele>86.1</ele>
    <time>2018-01-27T06:34:40Z</time>
   </trkpt>
   <trkpt lat="12.9166340" lon="99.6982850">
    <ele>86.2</ele>
    <time>2018-01-27T06:34:41Z</time>
   </trkpt>
   <trkpt lat="12.9166810" lon="99.6982830">
    <ele>86.4</ele>
    <time>2018-01-27T06:34:42Z</time>
   </trkpt>
   <trkpt lat="12.9167090" lon="99.6982830">
    <ele>86.7</ele>
    <time>2018-01-27T06:34:43Z</time>
   </trkpt>
   <trkpt lat="12.9167420" lon="99.6982810">
    <ele>87.1</ele>
    <time>2018-01-27T06:34:45Z</time>
   </trkpt>
   <trkpt lat="12.9169560" lon="99.6981880">
    <ele>85.9</ele>
    <time>2018-01-27T06:34:48Z</time>
   </trkpt>
   <trkpt lat="12.9170050" lon="99.6981720">
    <ele>85.6</ele>
    <time>2018-01-27T06:34:49Z</time>
   </trkpt>
   <trkpt lat="12.9170500" lon="99.6981570">
    <ele>85.5</ele>
    <time>2018-01-27T06:34:50Z</time>
   </trkpt>
   <trkpt lat="12.9170920" lon="99.6981400">
    <ele>85.5</ele>
    <time>2018-01-27T06:34:51Z</time>
   </trkpt>
   <trkpt lat="12.9171240" lon="99.6981260">
    <ele>85.3</ele>
    <time>2018-01-27T06:34:52Z</time>
   </trkpt>
   <trkpt lat="12.9171570" lon="99.6981040">
    <ele>85.3</ele>
    <time>2018-01-27T06:34:54Z</time>
   </trkpt>
   <trkpt lat="12.9171630" lon="99.6980640">
    <ele>85.3</ele>
    <time>2018-01-27T06:34:57Z</time>
   </trkpt>
   <trkpt lat="12.9171620" lon="99.6980340">
    <ele>85.3</ele>
    <time>2018-01-27T06:34:59Z</time>
   </trkpt>
   <trkpt lat="12.9171510" lon="99.6980010">
    <ele>85.3</ele>
    <time>2018-01-27T06:35:02Z</time>
   </trkpt>
   <trkpt lat="12.9171260" lon="99.6979540">
    <ele>85.3</ele>
    <time>2018-01-27T06:35:04Z</time>
   </trkpt>
   <trkpt lat="12.9171010" lon="99.6979150">
    <ele>85.3</ele>
    <time>2018-01-27T06:35:06Z</time>
   </trkpt>
   <trkpt lat="12.9170820" lon="99.6978930">
    <ele>85.3</ele>
    <time>2018-01-27T06:35:07Z</time>
   </trkpt>
   <trkpt lat="12.9170580" lon="99.6978660">
    <ele>85.2</ele>
    <time>2018-01-27T06:35:08Z</time>
   </trkpt>
   <trkpt lat="12.9170410" lon="99.6978390">
    <ele>85.2</ele>
    <time>2018-01-27T06:35:09Z</time>
   </trkpt>
   <trkpt lat="12.9170120" lon="99.6977830">
    <ele>85.2</ele>
    <time>2018-01-27T06:35:11Z</time>
   </trkpt>
   <trkpt lat="12.9169990" lon="99.6977400">
    <ele>85.2</ele>
    <time>2018-01-27T06:35:12Z</time>
   </trkpt>
   <trkpt lat="12.9169850" lon="99.6977020">
    <ele>85.2</ele>
    <time>2018-01-27T06:35:13Z</time>
   </trkpt>
   <trkpt lat="12.9169700" lon="99.6976630">
    <ele>85.2</ele>
    <time>2018-01-27T06:35:14Z</time>
   </trkpt>
   <trkpt lat="12.9169440" lon="99.6976390">
    <ele>85.2</ele>
    <time>2018-01-27T06:35:15Z</time>
   </trkpt>
   <trkpt lat="12.9169160" lon="99.6976130">
    <ele>85.2</ele>
    <time>2018-01-27T06:35:16Z</time>
   </trkpt>
   <trkpt lat="12.9169030" lon="99.6975690">
    <ele>85.2</ele>
    <time>2018-01-27T06:35:17Z</time>
   </trkpt>
   <trkpt lat="12.9168860" lon="99.6975260">
    <ele>85.2</ele>
    <time>2018-01-27T06:35:18Z</time>
   </trkpt>
   <trkpt lat="12.9168640" lon="99.6974750">
    <ele>85.2</ele>
    <time>2018-01-27T06:35:19Z</time>
   </trkpt>
   <trkpt lat="12.9168310" lon="99.6973910">
    <ele>85.1</ele>
    <time>2018-01-27T06:35:20Z</time>
   </trkpt>
   <trkpt lat="12.9168010" lon="99.6973190">
    <ele>85.1</ele>
    <time>2018-01-27T06:35:21Z</time>
   </trkpt>
   <trkpt lat="12.9167820" lon="99.6972750">
    <ele>85.1</ele>
    <time>2018-01-27T06:35:22Z</time>
   </trkpt>
   <trkpt lat="12.9167620" lon="99.6972300">
    <ele>85.1</ele>
    <time>2018-01-27T06:35:23Z</time>
   </trkpt>
   <trkpt lat="12.9167500" lon="99.6971800">
    <ele>85.1</ele>
    <time>2018-01-27T06:35:24Z</time>
   </trkpt>
   <trkpt lat="12.9167290" lon="99.6971210">
    <ele>85.1</ele>
    <time>2018-01-27T06:35:25Z</time>
   </trkpt>
   <trkpt lat="12.9167060" lon="99.6970690">
    <ele>85.1</ele>
    <time>2018-01-27T06:35:26Z</time>
   </trkpt>
   <trkpt lat="12.9166720" lon="99.6970400">
    <ele>85.1</ele>
    <time>2018-01-27T06:35:27Z</time>
   </trkpt>
   <trkpt lat="12.9166370" lon="99.6969730">
    <ele>85.0</ele>
    <time>2018-01-27T06:35:28Z</time>
   </trkpt>
   <trkpt lat="12.9166100" lon="99.6969220">
    <ele>85.0</ele>
    <time>2018-01-27T06:35:29Z</time>
   </trkpt>
   <trkpt lat="12.9165820" lon="99.6968590">
    <ele>85.0</ele>
    <time>2018-01-27T06:35:30Z</time>
   </trkpt>
   <trkpt lat="12.9165560" lon="99.6968050">
    <ele>85.0</ele>
    <time>2018-01-27T06:35:31Z</time>
   </trkpt>
   <trkpt lat="12.9165310" lon="99.6967530">
    <ele>85.0</ele>
    <time>2018-01-27T06:35:32Z</time>
   </trkpt>
   <trkpt lat="12.9165060" lon="99.6967080">
    <ele>85.0</ele>
    <time>2018-01-27T06:35:33Z</time>
   </trkpt>
   <trkpt lat="12.9164800" lon="99.6966620">
    <ele>85.0</ele>
    <time>2018-01-27T06:35:34Z</time>
   </trkpt>
   <trkpt lat="12.9164580" lon="99.6966080">
    <ele>85.0</ele>
    <time>2018-01-27T06:35:35Z</time>
   </trkpt>
   <trkpt lat="12.9164340" lon="99.6965490">
    <ele>85.0</ele>
    <time>2018-01-27T06:35:36Z</time>
   </trkpt>
   <trkpt lat="12.9164050" lon="99.6965050">
    <ele>84.9</ele>
    <time>2018-01-27T06:35:37Z</time>
   </trkpt>
   <trkpt lat="12.9163760" lon="99.6964570">
    <ele>84.9</ele>
    <time>2018-01-27T06:35:38Z</time>
   </trkpt>
   <trkpt lat="12.9163540" lon="99.6964040">
    <ele>84.9</ele>
    <time>2018-01-27T06:35:39Z</time>
   </trkpt>
   <trkpt lat="12.9163350" lon="99.6963440">
    <ele>84.9</ele>
    <time>2018-01-27T06:35:40Z</time>
   </trkpt>
   <trkpt lat="12.9163130" lon="99.6962840">
    <ele>84.9</ele>
    <time>2018-01-27T06:35:41Z</time>
   </trkpt>
   <trkpt lat="12.9162930" lon="99.6962310">
    <ele>84.9</ele>
    <time>2018-01-27T06:35:42Z</time>
   </trkpt>
   <trkpt lat="12.9162630" lon="99.6961830">
    <ele>84.9</ele>
    <time>2018-01-27T06:35:43Z</time>
   </trkpt>
   <trkpt lat="12.9162330" lon="99.6961420">
    <ele>84.9</ele>
    <time>2018-01-27T06:35:44Z</time>
   </trkpt>
   <trkpt lat="12.9162030" lon="99.6960730">
    <ele>84.8</ele>
    <time>2018-01-27T06:35:45Z</time>
   </trkpt>
   <trkpt lat="12.9161820" lon="99.6960490">
    <ele>84.8</ele>
    <time>2018-01-27T06:35:46Z</time>
   </trkpt>
   <trkpt lat="12.9161590" lon="99.6960010">
    <ele>84.8</ele>
    <time>2018-01-27T06:35:47Z</time>
   </trkpt>
   <trkpt lat="12.9161320" lon="99.6959580">
    <ele>84.8</ele>
    <time>2018-01-27T06:35:48Z</time>
   </trkpt>
   <trkpt lat="12.9161130" lon="99.6958990">
    <ele>84.8</ele>
    <time>2018-01-27T06:35:49Z</time>
   </trkpt>
   <trkpt lat="12.9160920" lon="99.6958560">
    <ele>84.8</ele>
    <time>2018-01-27T06:35:50Z</time>
   </trkpt>
   <trkpt lat="12.9160670" lon="99.6957980">
    <ele>84.8</ele>
    <time>2018-01-27T06:35:51Z</time>
   </trkpt>
   <trkpt lat="12.9160490" lon="99.6957510">
    <ele>84.9</ele>
    <time>2018-01-27T06:35:52Z</time>
   </trkpt>
   <trkpt lat="12.9160320" lon="99.6956980">
    <ele>85.0</ele>
    <time>2018-01-27T06:35:53Z</time>
   </trkpt>
   <trkpt lat="12.9159990" lon="99.6956410">
    <ele>85.1</ele>
    <time>2018-01-27T06:35:54Z</time>
   </trkpt>
   <trkpt lat="12.9159680" lon="99.6956020">
    <ele>85.3</ele>
    <time>2018-01-27T06:35:55Z</time>
   </trkpt>
   <trkpt lat="12.9159430" lon="99.6955460">
    <ele>85.5</ele>
    <time>2018-01-27T06:35:56Z</time>
   </trkpt>
   <trkpt lat="12.9159230" lon="99.6954920">
    <ele>85.7</ele>
    <time>2018-01-27T06:35:57Z</time>
   </trkpt>
   <trkpt lat="12.9158850" lon="99.6954370">
    <ele>86.0</ele>
    <time>2018-01-27T06:35:58Z</time>
   </trkpt>
   <trkpt lat="12.9158610" lon="99.6953970">
    <ele>86.2</ele>
    <time>2018-01-27T06:35:59Z</time>
   </trkpt>
   <trkpt lat="12.9158440" lon="99.6953510">
    <ele>86.3</ele>
    <time>2018-01-27T06:36:00Z</time>
   </trkpt>
   <trkpt lat="12.9158340" lon="99.6952890">
    <ele>86.4</ele>
    <time>2018-01-27T06:36:01Z</time>
   </trkpt>
   <trkpt lat="12.9158130" lon="99.6952490">
    <ele>86.5</ele>
    <time>2018-01-27T06:36:02Z</time>
   </trkpt>
   <trkpt lat="12.9157920" lon="99.6952040">
    <ele>86.5</ele>
    <time>2018-01-27T06:36:03Z</time>
   </trkpt>
   <trkpt lat="12.9157540" lon="99.6951780">
    <ele>86.6</ele>
    <time>2018-01-27T06:36:04Z</time>
   </trkpt>
   <trkpt lat="12.9157320" lon="99.6951310">
    <ele>86.6</ele>
    <time>2018-01-27T06:36:05Z</time>
   </trkpt>
   <trkpt lat="12.9157050" lon="99.6950890">
    <ele>86.6</ele>
    <time>2018-01-27T06:36:06Z</time>
   </trkpt>
   <trkpt lat="12.9156790" lon="99.6950390">
    <ele>86.6</ele>
    <time>2018-01-27T06:36:07Z</time>
   </trkpt>
   <trkpt lat="12.9156440" lon="99.6949960">
    <ele>86.6</ele>
    <time>2018-01-27T06:36:08Z</time>
   </trkpt>
   <trkpt lat="12.9156140" lon="99.6949300">
    <ele>86.6</ele>
    <time>2018-01-27T06:36:09Z</time>
   </trkpt>
   <trkpt lat="12.9155880" lon="99.6948800">
    <ele>86.6</ele>
    <time>2018-01-27T06:36:10Z</time>
   </trkpt>
   <trkpt lat="12.9155620" lon="99.6948340">
    <ele>86.6</ele>
    <time>2018-01-27T06:36:11Z</time>
   </trkpt>
   <trkpt lat="12.9155420" lon="99.6947880">
    <ele>86.6</ele>
    <time>2018-01-27T06:36:12Z</time>
   </trkpt>
   <trkpt lat="12.9155160" lon="99.6947300">
    <ele>86.7</ele>
    <time>2018-01-27T06:36:13Z</time>
   </trkpt>
   <trkpt lat="12.9154910" lon="99.6946860">
    <ele>86.8</ele>
    <time>2018-01-27T06:36:14Z</time>
   </trkpt>
   <trkpt lat="12.9154640" lon="99.6946350">
    <ele>87.0</ele>
    <time>2018-01-27T06:36:15Z</time>
   </trkpt>
   <trkpt lat="12.9154380" lon="99.6945840">
    <ele>87.2</ele>
    <time>2018-01-27T06:36:16Z</time>
   </trkpt>
   <trkpt lat="12.9154160" lon="99.6945350">
    <ele>87.4</ele>
    <time>2018-01-27T06:36:17Z</time>
   </trkpt>
   <trkpt lat="12.9153960" lon="99.6944880">
    <ele>87.6</ele>
    <time>2018-01-27T06:36:18Z</time>
   </trkpt>
   <trkpt lat="12.9153660" lon="99.6944290">
    <ele>87.9</ele>
    <time>2018-01-27T06:36:19Z</time>
   </trkpt>
   <trkpt lat="12.9153410" lon="99.6943700">
    <ele>88.1</ele>
    <time>2018-01-27T06:36:20Z</time>
   </trkpt>
   <trkpt lat="12.9153180" lon="99.6943230">
    <ele>88.3</ele>
    <time>2018-01-27T06:36:21Z</time>
   </trkpt>
   <trkpt lat="12.9152970" lon="99.6942690">
    <ele>88.4</ele>
    <time>2018-01-27T06:36:22Z</time>
   </trkpt>
   <trkpt lat="12.9152780" lon="99.6942290">
    <ele>88.4</ele>
    <time>2018-01-27T06:36:23Z</time>
   </trkpt>
   <trkpt lat="12.9152590" lon="99.6941830">
    <ele>88.5</ele>
    <time>2018-01-27T06:36:24Z</time>
   </trkpt>
   <trkpt lat="12.9152360" lon="99.6941400">
    <ele>88.5</ele>
    <time>2018-01-27T06:36:25Z</time>
   </trkpt>
   <trkpt lat="12.9152160" lon="99.6941070">
    <ele>88.5</ele>
    <time>2018-01-27T06:36:26Z</time>
   </trkpt>
   <trkpt lat="12.9151970" lon="99.6940510">
    <ele>88.5</ele>
    <time>2018-01-27T06:36:27Z</time>
   </trkpt>
   <trkpt lat="12.9151670" lon="99.6939970">
    <ele>88.5</ele>
    <time>2018-01-27T06:36:28Z</time>
   </trkpt>
   <trkpt lat="12.9151490" lon="99.6939500">
    <ele>88.5</ele>
    <time>2018-01-27T06:36:29Z</time>
   </trkpt>
   <trkpt lat="12.9151240" lon="99.6939070">
    <ele>88.5</ele>
    <time>2018-01-27T06:36:30Z</time>
   </trkpt>
   <trkpt lat="12.9150990" lon="99.6938600">
    <ele>88.5</ele>
    <time>2018-01-27T06:36:31Z</time>
   </trkpt>
   <trkpt lat="12.9150730" lon="99.6938090">
    <ele>88.5</ele>
    <time>2018-01-27T06:36:32Z</time>
   </trkpt>
   <trkpt lat="12.9150460" lon="99.6937610">
    <ele>88.5</ele>
    <time>2018-01-27T06:36:33Z</time>
   </trkpt>
   <trkpt lat="12.9150290" lon="99.6937090">
    <ele>88.5</ele>
    <time>2018-01-27T06:36:34Z</time>
   </trkpt>
   <trkpt lat="12.9150000" lon="99.6936630">
    <ele>88.4</ele>
    <time>2018-01-27T06:36:35Z</time>
   </trkpt>
   <trkpt lat="12.9149720" lon="99.6936190">
    <ele>88.4</ele>
    <time>2018-01-27T06:36:36Z</time>
   </trkpt>
   <trkpt lat="12.9149480" lon="99.6935710">
    <ele>88.4</ele>
    <time>2018-01-27T06:36:37Z</time>
   </trkpt>
   <trkpt lat="12.9149250" lon="99.6935260">
    <ele>88.4</ele>
    <time>2018-01-27T06:36:38Z</time>
   </trkpt>
   <trkpt lat="12.9149000" lon="99.6934700">
    <ele>88.4</ele>
    <time>2018-01-27T06:36:39Z</time>
   </trkpt>
   <trkpt lat="12.9148710" lon="99.6934180">
    <ele>88.4</ele>
    <time>2018-01-27T06:36:40Z</time>
   </trkpt>
   <trkpt lat="12.9148470" lon="99.6933650">
    <ele>88.4</ele>
    <time>2018-01-27T06:36:41Z</time>
   </trkpt>
   <trkpt lat="12.9148200" lon="99.6933180">
    <ele>88.4</ele>
    <time>2018-01-27T06:36:42Z</time>
   </trkpt>
   <trkpt lat="12.9147900" lon="99.6932650">
    <ele>88.4</ele>
    <time>2018-01-27T06:36:43Z</time>
   </trkpt>
   <trkpt lat="12.9147730" lon="99.6932200">
    <ele>88.4</ele>
    <time>2018-01-27T06:36:44Z</time>
   </trkpt>
   <trkpt lat="12.9147570" lon="99.6931650">
    <ele>88.4</ele>
    <time>2018-01-27T06:36:45Z</time>
   </trkpt>
   <trkpt lat="12.9147240" lon="99.6931160">
    <ele>88.5</ele>
    <time>2018-01-27T06:36:46Z</time>
   </trkpt>
   <trkpt lat="12.9146960" lon="99.6930790">
    <ele>88.6</ele>
    <time>2018-01-27T06:36:47Z</time>
   </trkpt>
   <trkpt lat="12.9146670" lon="99.6930240">
    <ele>88.7</ele>
    <time>2018-01-27T06:36:48Z</time>
   </trkpt>
   <trkpt lat="12.9146460" lon="99.6929720">
    <ele>88.9</ele>
    <time>2018-01-27T06:36:49Z</time>
   </trkpt>
   <trkpt lat="12.9146230" lon="99.6929200">
    <ele>89.1</ele>
    <time>2018-01-27T06:36:50Z</time>
   </trkpt>
   <trkpt lat="12.9145930" lon="99.6928500">
    <ele>89.4</ele>
    <time>2018-01-27T06:36:51Z</time>
   </trkpt>
   <trkpt lat="12.9145690" lon="99.6927990">
    <ele>89.6</ele>
    <time>2018-01-27T06:36:52Z</time>
   </trkpt>
   <trkpt lat="12.9145440" lon="99.6927470">
    <ele>89.8</ele>
    <time>2018-01-27T06:36:53Z</time>
   </trkpt>
   <trkpt lat="12.9145180" lon="99.6927020">
    <ele>89.9</ele>
    <time>2018-01-27T06:36:54Z</time>
   </trkpt>
   <trkpt lat="12.9144830" lon="99.6926330">
    <ele>90.1</ele>
    <time>2018-01-27T06:36:55Z</time>
   </trkpt>
   <trkpt lat="12.9144660" lon="99.6925890">
    <ele>90.1</ele>
    <time>2018-01-27T06:36:56Z</time>
   </trkpt>
   <trkpt lat="12.9144380" lon="99.6925510">
    <ele>90.1</ele>
    <time>2018-01-27T06:36:57Z</time>
   </trkpt>
   <trkpt lat="12.9144190" lon="99.6925050">
    <ele>90.1</ele>
    <time>2018-01-27T06:36:58Z</time>
   </trkpt>
   <trkpt lat="12.9143930" lon="99.6924500">
    <ele>90.1</ele>
    <time>2018-01-27T06:36:59Z</time>
   </trkpt>
   <trkpt lat="12.9143680" lon="99.6924000">
    <ele>90.1</ele>
    <time>2018-01-27T06:37:00Z</time>
   </trkpt>
   <trkpt lat="12.9143390" lon="99.6923480">
    <ele>90.1</ele>
    <time>2018-01-27T06:37:01Z</time>
   </trkpt>
   <trkpt lat="12.9143090" lon="99.6923030">
    <ele>90.1</ele>
    <time>2018-01-27T06:37:02Z</time>
   </trkpt>
   <trkpt lat="12.9142850" lon="99.6922410">
    <ele>90.1</ele>
    <time>2018-01-27T06:37:03Z</time>
   </trkpt>
   <trkpt lat="12.9142560" lon="99.6922040">
    <ele>90.1</ele>
    <time>2018-01-27T06:37:04Z</time>
   </trkpt>
   <trkpt lat="12.9142280" lon="99.6921600">
    <ele>90.1</ele>
    <time>2018-01-27T06:37:05Z</time>
   </trkpt>
   <trkpt lat="12.9142030" lon="99.6921170">
    <ele>90.1</ele>
    <time>2018-01-27T06:37:06Z</time>
   </trkpt>
   <trkpt lat="12.9141830" lon="99.6920800">
    <ele>90.0</ele>
    <time>2018-01-27T06:37:07Z</time>
   </trkpt>
   <trkpt lat="12.9141550" lon="99.6920390">
    <ele>90.0</ele>
    <time>2018-01-27T06:37:09Z</time>
   </trkpt>
   <trkpt lat="12.9141410" lon="99.6920150">
    <ele>90.0</ele>
    <time>2018-01-27T06:37:10Z</time>
   </trkpt>
   <trkpt lat="12.9141820" lon="99.6920090">
    <ele>90.0</ele>
    <time>2018-01-27T06:37:12Z</time>
   </trkpt>
   <trkpt lat="12.9142100" lon="99.6920210">
    <ele>90.0</ele>
    <time>2018-01-27T06:37:13Z</time>
   </trkpt>
   <trkpt lat="12.9142440" lon="99.6920270">
    <ele>90.0</ele>
    <time>2018-01-27T06:37:14Z</time>
   </trkpt>
   <trkpt lat="12.9142800" lon="99.6920230">
    <ele>90.0</ele>
    <time>2018-01-27T06:37:15Z</time>
   </trkpt>
   <trkpt lat="12.9143120" lon="99.6920120">
    <ele>90.0</ele>
    <time>2018-01-27T06:37:16Z</time>
   </trkpt>
   <trkpt lat="12.9143440" lon="99.6919920">
    <ele>90.0</ele>
    <time>2018-01-27T06:37:17Z</time>
   </trkpt>
   <trkpt lat="12.9143820" lon="99.6919690">
    <ele>90.6</ele>
    <time>2018-01-27T06:37:18Z</time>
   </trkpt>
   <trkpt lat="12.9144200" lon="99.6919500">
    <ele>91.2</ele>
    <time>2018-01-27T06:37:19Z</time>
   </trkpt>
   <trkpt lat="12.9144560" lon="99.6919360">
    <ele>91.7</ele>
    <time>2018-01-27T06:37:20Z</time>
   </trkpt>
   <trkpt lat="12.9144910" lon="99.6919250">
    <ele>92.2</ele>
    <time>2018-01-27T06:37:21Z</time>
   </trkpt>
   <trkpt lat="12.9145270" lon="99.6919190">
    <ele>92.6</ele>
    <time>2018-01-27T06:37:22Z</time>
   </trkpt>
   <trkpt lat="12.9145650" lon="99.6919130">
    <ele>92.5</ele>
    <time>2018-01-27T06:37:23Z</time>
   </trkpt>
   <trkpt lat="12.9146060" lon="99.6919080">
    <ele>92.7</ele>
    <time>2018-01-27T06:37:24Z</time>
   </trkpt>
   <trkpt lat="12.9146500" lon="99.6919010">
    <ele>92.9</ele>
    <time>2018-01-27T06:37:25Z</time>
   </trkpt>
   <trkpt lat="12.9146940" lon="99.6918940">
    <ele>93.1</ele>
    <time>2018-01-27T06:37:26Z</time>
   </trkpt>
   <trkpt lat="12.9147400" lon="99.6918910">
    <ele>93.4</ele>
    <time>2018-01-27T06:37:27Z</time>
   </trkpt>
   <trkpt lat="12.9147950" lon="99.6918800">
    <ele>93.7</ele>
    <time>2018-01-27T06:37:28Z</time>
   </trkpt>
   <trkpt lat="12.9148480" lon="99.6918650">
    <ele>93.4</ele>
    <time>2018-01-27T06:37:29Z</time>
   </trkpt>
   <trkpt lat="12.9148970" lon="99.6918600">
    <ele>93.5</ele>
    <time>2018-01-27T06:37:30Z</time>
   </trkpt>
   <trkpt lat="12.9149450" lon="99.6918470">
    <ele>93.4</ele>
    <time>2018-01-27T06:37:31Z</time>
   </trkpt>
   <trkpt lat="12.9150020" lon="99.6918340">
    <ele>93.3</ele>
    <time>2018-01-27T06:37:32Z</time>
   </trkpt>
   <trkpt lat="12.9150520" lon="99.6918300">
    <ele>93.1</ele>
    <time>2018-01-27T06:37:33Z</time>
   </trkpt>
   <trkpt lat="12.9151020" lon="99.6918110">
    <ele>92.4</ele>
    <time>2018-01-27T06:37:34Z</time>
   </trkpt>
   <trkpt lat="12.9151610" lon="99.6917900">
    <ele>92.2</ele>
    <time>2018-01-27T06:37:35Z</time>
   </trkpt>
   <trkpt lat="12.9152250" lon="99.6917680">
    <ele>91.7</ele>
    <time>2018-01-27T06:37:36Z</time>
   </trkpt>
   <trkpt lat="12.9152880" lon="99.6917360">
    <ele>90.9</ele>
    <time>2018-01-27T06:37:37Z</time>
   </trkpt>
   <trkpt lat="12.9153440" lon="99.6917250">
    <ele>90.9</ele>
    <time>2018-01-27T06:37:38Z</time>
   </trkpt>
   <trkpt lat="12.9154010" lon="99.6917040">
    <ele>91.4</ele>
    <time>2018-01-27T06:37:39Z</time>
   </trkpt>
   <trkpt lat="12.9154550" lon="99.6916850">
    <ele>91.5</ele>
    <time>2018-01-27T06:37:40Z</time>
   </trkpt>
   <trkpt lat="12.9155010" lon="99.6916680">
    <ele>91.7</ele>
    <time>2018-01-27T06:37:41Z</time>
   </trkpt>
   <trkpt lat="12.9155440" lon="99.6916570">
    <ele>91.6</ele>
    <time>2018-01-27T06:37:42Z</time>
   </trkpt>
   <trkpt lat="12.9155830" lon="99.6916550">
    <ele>91.8</ele>
    <time>2018-01-27T06:37:43Z</time>
   </trkpt>
   <trkpt lat="12.9156220" lon="99.6916430">
    <ele>91.9</ele>
    <time>2018-01-27T06:37:44Z</time>
   </trkpt>
   <trkpt lat="12.9156580" lon="99.6916330">
    <ele>92.0</ele>
    <time>2018-01-27T06:37:45Z</time>
   </trkpt>
   <trkpt lat="12.9157090" lon="99.6916260">
    <ele>92.1</ele>
    <time>2018-01-27T06:37:48Z</time>
   </trkpt>
   <trkpt lat="12.9157500" lon="99.6916190">
    <ele>92.0</ele>
    <time>2018-01-27T06:37:49Z</time>
   </trkpt>
   <trkpt lat="12.9157860" lon="99.6916120">
    <ele>92.0</ele>
    <time>2018-01-27T06:37:50Z</time>
   </trkpt>
   <trkpt lat="12.9158250" lon="99.6916050">
    <ele>92.0</ele>
    <time>2018-01-27T06:37:51Z</time>
   </trkpt>
   <trkpt lat="12.9158670" lon="99.6915990">
    <ele>92.0</ele>
    <time>2018-01-27T06:37:52Z</time>
   </trkpt>
   <trkpt lat="12.9159090" lon="99.6915910">
    <ele>92.0</ele>
    <time>2018-01-27T06:37:53Z</time>
   </trkpt>
   <trkpt lat="12.9159510" lon="99.6915800">
    <ele>92.0</ele>
    <time>2018-01-27T06:37:54Z</time>
   </trkpt>
   <trkpt lat="12.9159920" lon="99.6915680">
    <ele>91.8</ele>
    <time>2018-01-27T06:37:55Z</time>
   </trkpt>
   <trkpt lat="12.9160470" lon="99.6915560">
    <ele>91.8</ele>
    <time>2018-01-27T06:37:56Z</time>
   </trkpt>
   <trkpt lat="12.9161150" lon="99.6915390">
    <ele>91.9</ele>
    <time>2018-01-27T06:37:57Z</time>
   </trkpt>
   <trkpt lat="12.9161570" lon="99.6915310">
    <ele>92.0</ele>
    <time>2018-01-27T06:37:58Z</time>
   </trkpt>
   <trkpt lat="12.9161950" lon="99.6915230">
    <ele>92.2</ele>
    <time>2018-01-27T06:37:59Z</time>
   </trkpt>
   <trkpt lat="12.9162330" lon="99.6915140">
    <ele>92.4</ele>
    <time>2018-01-27T06:38:00Z</time>
   </trkpt>
   <trkpt lat="12.9162750" lon="99.6915070">
    <ele>92.6</ele>
    <time>2018-01-27T06:38:02Z</time>
   </trkpt>
   <trkpt lat="12.9163100" lon="99.6914990">
    <ele>92.6</ele>
    <time>2018-01-27T06:38:03Z</time>
   </trkpt>
   <trkpt lat="12.9163450" lon="99.6914920">
    <ele>92.9</ele>
    <time>2018-01-27T06:38:04Z</time>
   </trkpt>
   <trkpt lat="12.9163830" lon="99.6914770">
    <ele>93.3</ele>
    <time>2018-01-27T06:38:06Z</time>
   </trkpt>
   <trkpt lat="12.9165380" lon="99.6914220">
    <ele>94.2</ele>
    <time>2018-01-27T06:38:08Z</time>
   </trkpt>
   <trkpt lat="12.9165760" lon="99.6914000">
    <ele>94.5</ele>
    <time>2018-01-27T06:38:09Z</time>
   </trkpt>
   <trkpt lat="12.9166130" lon="99.6913840">
    <ele>94.8</ele>
    <time>2018-01-27T06:38:10Z</time>
   </trkpt>
   <trkpt lat="12.9166480" lon="99.6913640">
    <ele>95.1</ele>
    <time>2018-01-27T06:38:11Z</time>
   </trkpt>
   <trkpt lat="12.9166810" lon="99.6913480">
    <ele>95.4</ele>
    <time>2018-01-27T06:38:12Z</time>
   </trkpt>
   <trkpt lat="12.9167140" lon="99.6913290">
    <ele>95.7</ele>
    <time>2018-01-27T06:38:13Z</time>
   </trkpt>
   <trkpt lat="12.9167470" lon="99.6913100">
    <ele>96.5</ele>
    <time>2018-01-27T06:38:14Z</time>
   </trkpt>
   <trkpt lat="12.9167810" lon="99.6912890">
    <ele>96.9</ele>
    <time>2018-01-27T06:38:15Z</time>
   </trkpt>
   <trkpt lat="12.9168170" lon="99.6912720">
    <ele>97.2</ele>
    <time>2018-01-27T06:38:16Z</time>
   </trkpt>
   <trkpt lat="12.9168520" lon="99.6912550">
    <ele>97.7</ele>
    <time>2018-01-27T06:38:17Z</time>
   </trkpt>
   <trkpt lat="12.9168880" lon="99.6912380">
    <ele>98.0</ele>
    <time>2018-01-27T06:38:18Z</time>
   </trkpt>
   <trkpt lat="12.9169260" lon="99.6912220">
    <ele>98.7</ele>
    <time>2018-01-27T06:38:19Z</time>
   </trkpt>
   <trkpt lat="12.9169620" lon="99.6912040">
    <ele>98.9</ele>
    <time>2018-01-27T06:38:20Z</time>
   </trkpt>
   <trkpt lat="12.9169950" lon="99.6911860">
    <ele>99.0</ele>
    <time>2018-01-27T06:38:21Z</time>
   </trkpt>
   <trkpt lat="12.9170250" lon="99.6911730">
    <ele>99.4</ele>
    <time>2018-01-27T06:38:22Z</time>
   </trkpt>
   <trkpt lat="12.9170540" lon="99.6911700">
    <ele>99.4</ele>
    <time>2018-01-27T06:38:23Z</time>
   </trkpt>
   <trkpt lat="12.9170820" lon="99.6911650">
    <ele>99.4</ele>
    <time>2018-01-27T06:38:24Z</time>
   </trkpt>
   <trkpt lat="12.9171250" lon="99.6911630">
    <ele>99.3</ele>
    <time>2018-01-27T06:38:26Z</time>
   </trkpt>
   <trkpt lat="12.9171610" lon="99.6911510">
    <ele>99.2</ele>
    <time>2018-01-27T06:38:29Z</time>
   </trkpt>
   <trkpt lat="12.9172030" lon="99.6911510">
    <ele>99.1</ele>
    <time>2018-01-27T06:38:31Z</time>
   </trkpt>
   <trkpt lat="12.9172490" lon="99.6911500">
    <ele>99.0</ele>
    <time>2018-01-27T06:38:33Z</time>
   </trkpt>
   <trkpt lat="12.9172950" lon="99.6911390">
    <ele>98.9</ele>
    <time>2018-01-27T06:38:35Z</time>
   </trkpt>
   <trkpt lat="12.9173350" lon="99.6911210">
    <ele>98.8</ele>
    <time>2018-01-27T06:38:37Z</time>
   </trkpt>
   <trkpt lat="12.9173690" lon="99.6911160">
    <ele>98.7</ele>
    <time>2018-01-27T06:38:40Z</time>
   </trkpt>
   <trkpt lat="12.9173980" lon="99.6911010">
    <ele>98.7</ele>
    <time>2018-01-27T06:38:44Z</time>
   </trkpt>
   <trkpt lat="12.9174380" lon="99.6910870">
    <ele>98.7</ele>
    <time>2018-01-27T06:38:47Z</time>
   </trkpt>
   <trkpt lat="12.9174650" lon="99.6910810">
    <ele>98.7</ele>
    <time>2018-01-27T06:38:49Z</time>
   </trkpt>
   <trkpt lat="12.9175000" lon="99.6910770">
    <ele>98.9</ele>
    <time>2018-01-27T06:38:51Z</time>
   </trkpt>
   <trkpt lat="12.9175390" lon="99.6910760">
    <ele>99.0</ele>
    <time>2018-01-27T06:38:53Z</time>
   </trkpt>
   <trkpt lat="12.9175700" lon="99.6910690">
    <ele>99.2</ele>
    <time>2018-01-27T06:38:55Z</time>
   </trkpt>
   <trkpt lat="12.9175990" lon="99.6910590">
    <ele>99.2</ele>
    <time>2018-01-27T06:38:57Z</time>
   </trkpt>
   <trkpt lat="12.9176310" lon="99.6910470">
    <ele>99.7</ele>
    <time>2018-01-27T06:38:59Z</time>
   </trkpt>
   <trkpt lat="12.9176670" lon="99.6910400">
    <ele>100.1</ele>
    <time>2018-01-27T06:39:01Z</time>
   </trkpt>
   <trkpt lat="12.9177050" lon="99.6910310">
    <ele>100.6</ele>
    <time>2018-01-27T06:39:03Z</time>
   </trkpt>
   <trkpt lat="12.9177380" lon="99.6910270">
    <ele>101.1</ele>
    <time>2018-01-27T06:39:05Z</time>
   </trkpt>
   <trkpt lat="12.9177710" lon="99.6910190">
    <ele>101.1</ele>
    <time>2018-01-27T06:39:07Z</time>
   </trkpt>
   <trkpt lat="12.9178020" lon="99.6910080">
    <ele>102.1</ele>
    <time>2018-01-27T06:39:09Z</time>
   </trkpt>
   <trkpt lat="12.9178320" lon="99.6909990">
    <ele>102.7</ele>
    <time>2018-01-27T06:39:11Z</time>
   </trkpt>
   <trkpt lat="12.9178710" lon="99.6909860">
    <ele>103.1</ele>
    <time>2018-01-27T06:39:13Z</time>
   </trkpt>
   <trkpt lat="12.9179130" lon="99.6909730">
    <ele>103.5</ele>
    <time>2018-01-27T06:39:15Z</time>
   </trkpt>
   <trkpt lat="12.9179580" lon="99.6909610">
    <ele>104.5</ele>
    <time>2018-01-27T06:39:17Z</time>
   </trkpt>
   <trkpt lat="12.9180090" lon="99.6909470">
    <ele>104.7</ele>
    <time>2018-01-27T06:39:19Z</time>
   </trkpt>
   <trkpt lat="12.9180590" lon="99.6909350">
    <ele>104.7</ele>
    <time>2018-01-27T06:39:21Z</time>
   </trkpt>
   <trkpt lat="12.9181080" lon="99.6909310">
    <ele>104.6</ele>
    <time>2018-01-27T06:39:23Z</time>
   </trkpt>
   <trkpt lat="12.9181640" lon="99.6909260">
    <ele>105.3</ele>
    <time>2018-01-27T06:39:25Z</time>
   </trkpt>
   <trkpt lat="12.9181950" lon="99.6909210">
    <ele>105.3</ele>
    <time>2018-01-27T06:39:26Z</time>
   </trkpt>
   <trkpt lat="12.9182300" lon="99.6909140">
    <ele>105.3</ele>
    <time>2018-01-27T06:39:27Z</time>
   </trkpt>
   <trkpt lat="12.9182650" lon="99.6909080">
    <ele>105.4</ele>
    <time>2018-01-27T06:39:28Z</time>
   </trkpt>
   <trkpt lat="12.9182980" lon="99.6909060">
    <ele>105.5</ele>
    <time>2018-01-27T06:39:29Z</time>
   </trkpt>
   <trkpt lat="12.9183390" lon="99.6909140">
    <ele>105.6</ele>
    <time>2018-01-27T06:39:30Z</time>
   </trkpt>
   <trkpt lat="12.9183800" lon="99.6909190">
    <ele>105.7</ele>
    <time>2018-01-27T06:39:31Z</time>
   </trkpt>
   <trkpt lat="12.9184190" lon="99.6909290">
    <ele>105.2</ele>
    <time>2018-01-27T06:39:32Z</time>
   </trkpt>
   <trkpt lat="12.9184570" lon="99.6909330">
    <ele>105.3</ele>
    <time>2018-01-27T06:39:33Z</time>
   </trkpt>
   <trkpt lat="12.9185000" lon="99.6909380">
    <ele>105.5</ele>
    <time>2018-01-27T06:39:34Z</time>
   </trkpt>
   <trkpt lat="12.9185470" lon="99.6909480">
    <ele>105.8</ele>
    <time>2018-01-27T06:39:35Z</time>
   </trkpt>
   <trkpt lat="12.9185980" lon="99.6909550">
    <ele>106.2</ele>
    <time>2018-01-27T06:39:36Z</time>
   </trkpt>
   <trkpt lat="12.9186560" lon="99.6909650">
    <ele>107.0</ele>
    <time>2018-01-27T06:39:37Z</time>
   </trkpt>
   <trkpt lat="12.9187160" lon="99.6909650">
    <ele>107.4</ele>
    <time>2018-01-27T06:39:38Z</time>
   </trkpt>
   <trkpt lat="12.9187840" lon="99.6909550">
    <ele>107.9</ele>
    <time>2018-01-27T06:39:39Z</time>
   </trkpt>
   <trkpt lat="12.9188520" lon="99.6909410">
    <ele>107.9</ele>
    <time>2018-01-27T06:39:40Z</time>
   </trkpt>
   <trkpt lat="12.9189200" lon="99.6909230">
    <ele>108.4</ele>
    <time>2018-01-27T06:39:41Z</time>
   </trkpt>
   <trkpt lat="12.9189820" lon="99.6909020">
    <ele>108.1</ele>
    <time>2018-01-27T06:39:42Z</time>
   </trkpt>
   <trkpt lat="12.9190490" lon="99.6908820">
    <ele>108.8</ele>
    <time>2018-01-27T06:39:43Z</time>
   </trkpt>
   <trkpt lat="12.9191150" lon="99.6908570">
    <ele>108.6</ele>
    <time>2018-01-27T06:39:44Z</time>
   </trkpt>
   <trkpt lat="12.9191720" lon="99.6908300">
    <ele>108.9</ele>
    <time>2018-01-27T06:39:45Z</time>
   </trkpt>
   <trkpt lat="12.9192300" lon="99.6908070">
    <ele>108.3</ele>
    <time>2018-01-27T06:39:46Z</time>
   </trkpt>
   <trkpt lat="12.9192750" lon="99.6907850">
    <ele>108.5</ele>
    <time>2018-01-27T06:39:47Z</time>
   </trkpt>
   <trkpt lat="12.9193300" lon="99.6907630">
    <ele>107.2</ele>
    <time>2018-01-27T06:39:48Z</time>
   </trkpt>
   <trkpt lat="12.9193900" lon="99.6907540">
    <ele>107.4</ele>
    <time>2018-01-27T06:39:49Z</time>
   </trkpt>
   <trkpt lat="12.9194510" lon="99.6907440">
    <ele>106.5</ele>
    <time>2018-01-27T06:39:50Z</time>
   </trkpt>
   <trkpt lat="12.9195140" lon="99.6907240">
    <ele>106.1</ele>
    <time>2018-01-27T06:39:51Z</time>
   </trkpt>
   <trkpt lat="12.9195780" lon="99.6907140">
    <ele>105.6</ele>
    <time>2018-01-27T06:39:52Z</time>
   </trkpt>
   <trkpt lat="12.9196370" lon="99.6907000">
    <ele>106.0</ele>
    <time>2018-01-27T06:39:53Z</time>
   </trkpt>
   <trkpt lat="12.9196950" lon="99.6906780">
    <ele>106.1</ele>
    <time>2018-01-27T06:39:54Z</time>
   </trkpt>
   <trkpt lat="12.9197440" lon="99.6906570">
    <ele>107.2</ele>
    <time>2018-01-27T06:39:55Z</time>
   </trkpt>
   <trkpt lat="12.9197790" lon="99.6906340">
    <ele>107.2</ele>
    <time>2018-01-27T06:39:56Z</time>
   </trkpt>
   <trkpt lat="12.9198170" lon="99.6906150">
    <ele>108.0</ele>
    <time>2018-01-27T06:39:57Z</time>
   </trkpt>
   <trkpt lat="12.9198480" lon="99.6905860">
    <ele>108.3</ele>
    <time>2018-01-27T06:39:58Z</time>
   </trkpt>
   <trkpt lat="12.9198810" lon="99.6905630">
    <ele>109.1</ele>
    <time>2018-01-27T06:39:59Z</time>
   </trkpt>
   <trkpt lat="12.9199160" lon="99.6905290">
    <ele>109.9</ele>
    <time>2018-01-27T06:40:01Z</time>
   </trkpt>
   <trkpt lat="12.9199410" lon="99.6905120">
    <ele>109.9</ele>
    <time>2018-01-27T06:40:03Z</time>
   </trkpt>
   <trkpt lat="12.9199800" lon="99.6904900">
    <ele>111.0</ele>
    <time>2018-01-27T06:40:05Z</time>
   </trkpt>
   <trkpt lat="12.9200250" lon="99.6904630">
    <ele>111.0</ele>
    <time>2018-01-27T06:40:07Z</time>
   </trkpt>
   <trkpt lat="12.9200480" lon="99.6904480">
    <ele>111.5</ele>
    <time>2018-01-27T06:40:08Z</time>
   </trkpt>
   <trkpt lat="12.9200790" lon="99.6904320">
    <ele>111.0</ele>
    <time>2018-01-27T06:40:10Z</time>
   </trkpt>
   <trkpt lat="12.9201050" lon="99.6904200">
    <ele>111.0</ele>
    <time>2018-01-27T06:40:11Z</time>
   </trkpt>
   <trkpt lat="12.9201320" lon="99.6904100">
    <ele>110.9</ele>
    <time>2018-01-27T06:40:12Z</time>
   </trkpt>
   <trkpt lat="12.9201640" lon="99.6904020">
    <ele>110.1</ele>
    <time>2018-01-27T06:40:13Z</time>
   </trkpt>
   <trkpt lat="12.9202010" lon="99.6903950">
    <ele>110.1</ele>
    <time>2018-01-27T06:40:14Z</time>
   </trkpt>
   <trkpt lat="12.9202360" lon="99.6903880">
    <ele>109.3</ele>
    <time>2018-01-27T06:40:15Z</time>
   </trkpt>
   <trkpt lat="12.9202700" lon="99.6903790">
    <ele>108.6</ele>
    <time>2018-01-27T06:40:16Z</time>
   </trkpt>
   <trkpt lat="12.9203040" lon="99.6903710">
    <ele>108.0</ele>
    <time>2018-01-27T06:40:17Z</time>
   </trkpt>
   <trkpt lat="12.9203400" lon="99.6903650">
    <ele>107.6</ele>
    <time>2018-01-27T06:40:18Z</time>
   </trkpt>
   <trkpt lat="12.9204290" lon="99.6903380">
    <ele>107.2</ele>
    <time>2018-01-27T06:40:19Z</time>
   </trkpt>
   <trkpt lat="12.9204660" lon="99.6903370">
    <ele>107.0</ele>
    <time>2018-01-27T06:40:20Z</time>
   </trkpt>
   <trkpt lat="12.9205040" lon="99.6903340">
    <ele>106.8</ele>
    <time>2018-01-27T06:40:21Z</time>
   </trkpt>
   <trkpt lat="12.9205500" lon="99.6903230">
    <ele>106.9</ele>
    <time>2018-01-27T06:40:22Z</time>
   </trkpt>
   <trkpt lat="12.9205930" lon="99.6903050">
    <ele>106.7</ele>
    <time>2018-01-27T06:40:23Z</time>
   </trkpt>
   <trkpt lat="12.9206430" lon="99.6902780">
    <ele>106.7</ele>
    <time>2018-01-27T06:40:24Z</time>
   </trkpt>
   <trkpt lat="12.9206930" lon="99.6902420">
    <ele>106.4</ele>
    <time>2018-01-27T06:40:25Z</time>
   </trkpt>
   <trkpt lat="12.9207480" lon="99.6902150">
    <ele>106.0</ele>
    <time>2018-01-27T06:40:26Z</time>
   </trkpt>
   <trkpt lat="12.9208050" lon="99.6901620">
    <ele>106.1</ele>
    <time>2018-01-27T06:40:27Z</time>
   </trkpt>
   <trkpt lat="12.9208670" lon="99.6901310">
    <ele>106.3</ele>
    <time>2018-01-27T06:40:28Z</time>
   </trkpt>
   <trkpt lat="12.9209320" lon="99.6901090">
    <ele>105.7</ele>
    <time>2018-01-27T06:40:29Z</time>
   </trkpt>
   <trkpt lat="12.9209950" lon="99.6900830">
    <ele>105.1</ele>
    <time>2018-01-27T06:40:30Z</time>
   </trkpt>
   <trkpt lat="12.9210580" lon="99.6900610">
    <ele>103.6</ele>
    <time>2018-01-27T06:40:31Z</time>
   </trkpt>
   <trkpt lat="12.9211160" lon="99.6900370">
    <ele>102.9</ele>
    <time>2018-01-27T06:40:32Z</time>
   </trkpt>
   <trkpt lat="12.9211730" lon="99.6900060">
    <ele>101.5</ele>
    <time>2018-01-27T06:40:33Z</time>
   </trkpt>
   <trkpt lat="12.9212410" lon="99.6899850">
    <ele>101.0</ele>
    <time>2018-01-27T06:40:34Z</time>
   </trkpt>
   <trkpt lat="12.9213060" lon="99.6899610">
    <ele>100.5</ele>
    <time>2018-01-27T06:40:35Z</time>
   </trkpt>
   <trkpt lat="12.9213590" lon="99.6899420">
    <ele>100.2</ele>
    <time>2018-01-27T06:40:36Z</time>
   </trkpt>
   <trkpt lat="12.9214110" lon="99.6899180">
    <ele>100.7</ele>
    <time>2018-01-27T06:40:37Z</time>
   </trkpt>
   <trkpt lat="12.9214670" lon="99.6898720">
    <ele>100.8</ele>
    <time>2018-01-27T06:40:38Z</time>
   </trkpt>
   <trkpt lat="12.9215230" lon="99.6898390">
    <ele>101.7</ele>
    <time>2018-01-27T06:40:39Z</time>
   </trkpt>
   <trkpt lat="12.9215800" lon="99.6898180">
    <ele>101.8</ele>
    <time>2018-01-27T06:40:40Z</time>
   </trkpt>
   <trkpt lat="12.9216340" lon="99.6898010">
    <ele>103.2</ele>
    <time>2018-01-27T06:40:41Z</time>
   </trkpt>
   <trkpt lat="12.9216870" lon="99.6897900">
    <ele>103.1</ele>
    <time>2018-01-27T06:40:42Z</time>
   </trkpt>
   <trkpt lat="12.9217440" lon="99.6897610">
    <ele>104.2</ele>
    <time>2018-01-27T06:40:43Z</time>
   </trkpt>
   <trkpt lat="12.9217980" lon="99.6897420">
    <ele>103.7</ele>
    <time>2018-01-27T06:40:44Z</time>
   </trkpt>
   <trkpt lat="12.9218550" lon="99.6897020">
    <ele>104.4</ele>
    <time>2018-01-27T06:40:45Z</time>
   </trkpt>
   <trkpt lat="12.9219030" lon="99.6896750">
    <ele>105.0</ele>
    <time>2018-01-27T06:40:46Z</time>
   </trkpt>
   <trkpt lat="12.9219490" lon="99.6896670">
    <ele>104.4</ele>
    <time>2018-01-27T06:40:47Z</time>
   </trkpt>
   <trkpt lat="12.9219920" lon="99.6896610">
    <ele>103.8</ele>
    <time>2018-01-27T06:40:48Z</time>
   </trkpt>
   <trkpt lat="12.9220460" lon="99.6896260">
    <ele>103.8</ele>
    <time>2018-01-27T06:40:49Z</time>
   </trkpt>
   <trkpt lat="12.9220770" lon="99.6895840">
    <ele>104.8</ele>
    <time>2018-01-27T06:40:50Z</time>
   </trkpt>
   <trkpt lat="12.9221110" lon="99.6895590">
    <ele>104.4</ele>
    <time>2018-01-27T06:40:53Z</time>
   </trkpt>
   <trkpt lat="12.9221400" lon="99.6895400">
    <ele>104.9</ele>
    <time>2018-01-27T06:40:54Z</time>
   </trkpt>
   <trkpt lat="12.9221930" lon="99.6895140">
    <ele>104.5</ele>
    <time>2018-01-27T06:40:56Z</time>
   </trkpt>
   <trkpt lat="12.9222250" lon="99.6895020">
    <ele>104.9</ele>
    <time>2018-01-27T06:40:57Z</time>
   </trkpt>
   <trkpt lat="12.9222610" lon="99.6894900">
    <ele>104.6</ele>
    <time>2018-01-27T06:40:58Z</time>
   </trkpt>
   <trkpt lat="12.9222980" lon="99.6894780">
    <ele>104.4</ele>
    <time>2018-01-27T06:40:59Z</time>
   </trkpt>
   <trkpt lat="12.9223370" lon="99.6894670">
    <ele>104.7</ele>
    <time>2018-01-27T06:41:00Z</time>
   </trkpt>
   <trkpt lat="12.9223840" lon="99.6894680">
    <ele>104.5</ele>
    <time>2018-01-27T06:41:01Z</time>
   </trkpt>
   <trkpt lat="12.9224490" lon="99.6894360">
    <ele>104.2</ele>
    <time>2018-01-27T06:41:02Z</time>
   </trkpt>
   <trkpt lat="12.9224910" lon="99.6894350">
    <ele>104.0</ele>
    <time>2018-01-27T06:41:03Z</time>
   </trkpt>
   <trkpt lat="12.9225280" lon="99.6894420">
    <ele>103.7</ele>
    <time>2018-01-27T06:41:04Z</time>
   </trkpt>
   <trkpt lat="12.9225710" lon="99.6894500">
    <ele>103.3</ele>
    <time>2018-01-27T06:41:05Z</time>
   </trkpt>
   <trkpt lat="12.9226150" lon="99.6894490">
    <ele>103.0</ele>
    <time>2018-01-27T06:41:06Z</time>
   </trkpt>
   <trkpt lat="12.9226590" lon="99.6894470">
    <ele>102.8</ele>
    <time>2018-01-27T06:41:07Z</time>
   </trkpt>
   <trkpt lat="12.9227210" lon="99.6894350">
    <ele>102.9</ele>
    <time>2018-01-27T06:41:08Z</time>
   </trkpt>
   <trkpt lat="12.9227710" lon="99.6894340">
    <ele>103.0</ele>
    <time>2018-01-27T06:41:09Z</time>
   </trkpt>
   <trkpt lat="12.9228150" lon="99.6894200">
    <ele>103.0</ele>
    <time>2018-01-27T06:41:10Z</time>
   </trkpt>
   <trkpt lat="12.9228540" lon="99.6894120">
    <ele>103.2</ele>
    <time>2018-01-27T06:41:11Z</time>
   </trkpt>
   <trkpt lat="12.9228950" lon="99.6894030">
    <ele>103.4</ele>
    <time>2018-01-27T06:41:12Z</time>
   </trkpt>
   <trkpt lat="12.9229420" lon="99.6893780">
    <ele>103.6</ele>
    <time>2018-01-27T06:41:13Z</time>
   </trkpt>
   <trkpt lat="12.9229790" lon="99.6893540">
    <ele>103.8</ele>
    <time>2018-01-27T06:41:14Z</time>
   </trkpt>
   <trkpt lat="12.9230160" lon="99.6893180">
    <ele>104.0</ele>
    <time>2018-01-27T06:41:15Z</time>
   </trkpt>
   <trkpt lat="12.9230510" lon="99.6892920">
    <ele>103.9</ele>
    <time>2018-01-27T06:41:16Z</time>
   </trkpt>
   <trkpt lat="12.9230910" lon="99.6892640">
    <ele>103.8</ele>
    <time>2018-01-27T06:41:17Z</time>
   </trkpt>
   <trkpt lat="12.9231250" lon="99.6892340">
    <ele>103.8</ele>
    <time>2018-01-27T06:41:18Z</time>
   </trkpt>
   <trkpt lat="12.9231550" lon="99.6892040">
    <ele>103.8</ele>
    <time>2018-01-27T06:41:19Z</time>
   </trkpt>
   <trkpt lat="12.9231940" lon="99.6891670">
    <ele>104.1</ele>
    <time>2018-01-27T06:41:20Z</time>
   </trkpt>
   <trkpt lat="12.9232210" lon="99.6891300">
    <ele>104.3</ele>
    <time>2018-01-27T06:41:21Z</time>
   </trkpt>
   <trkpt lat="12.9232470" lon="99.6891020">
    <ele>104.3</ele>
    <time>2018-01-27T06:41:24Z</time>
   </trkpt>
   <trkpt lat="12.9232720" lon="99.6890720">
    <ele>104.6</ele>
    <time>2018-01-27T06:41:25Z</time>
   </trkpt>
   <trkpt lat="12.9233670" lon="99.6889300">
    <ele>105.7</ele>
    <time>2018-01-27T06:41:28Z</time>
   </trkpt>
   <trkpt lat="12.9233820" lon="99.6888950">
    <ele>106.2</ele>
    <time>2018-01-27T06:41:29Z</time>
   </trkpt>
   <trkpt lat="12.9233960" lon="99.6888600">
    <ele>106.8</ele>
    <time>2018-01-27T06:41:30Z</time>
   </trkpt>
   <trkpt lat="12.9234110" lon="99.6888250">
    <ele>107.3</ele>
    <time>2018-01-27T06:41:31Z</time>
   </trkpt>
   <trkpt lat="12.9234450" lon="99.6887850">
    <ele>107.3</ele>
    <time>2018-01-27T06:41:33Z</time>
   </trkpt>
   <trkpt lat="12.9234830" lon="99.6887530">
    <ele>107.7</ele>
    <time>2018-01-27T06:41:35Z</time>
   </trkpt>
   <trkpt lat="12.9235150" lon="99.6887120">
    <ele>108.3</ele>
    <time>2018-01-27T06:41:37Z</time>
   </trkpt>
   <trkpt lat="12.9235310" lon="99.6886870">
    <ele>108.8</ele>
    <time>2018-01-27T06:41:38Z</time>
   </trkpt>
   <trkpt lat="12.9235490" lon="99.6886600">
    <ele>108.8</ele>
    <time>2018-01-27T06:41:39Z</time>
   </trkpt>
   <trkpt lat="12.9235680" lon="99.6886320">
    <ele>109.4</ele>
    <time>2018-01-27T06:41:40Z</time>
   </trkpt>
   <trkpt lat="12.9235820" lon="99.6886030">
    <ele>109.8</ele>
    <time>2018-01-27T06:41:41Z</time>
   </trkpt>
   <trkpt lat="12.9235920" lon="99.6885770">
    <ele>109.8</ele>
    <time>2018-01-27T06:41:42Z</time>
   </trkpt>
   <trkpt lat="12.9236050" lon="99.6885490">
    <ele>110.0</ele>
    <time>2018-01-27T06:41:43Z</time>
   </trkpt>
   <trkpt lat="12.9236190" lon="99.6885190">
    <ele>110.3</ele>
    <time>2018-01-27T06:41:44Z</time>
   </trkpt>
   <trkpt lat="12.9236310" lon="99.6884910">
    <ele>110.3</ele>
    <time>2018-01-27T06:41:45Z</time>
   </trkpt>
   <trkpt lat="12.9236400" lon="99.6884630">
    <ele>110.3</ele>
    <time>2018-01-27T06:41:46Z</time>
   </trkpt>
   <trkpt lat="12.9236480" lon="99.6884330">
    <ele>110.6</ele>
    <time>2018-01-27T06:41:47Z</time>
   </trkpt>
   <trkpt lat="12.9236590" lon="99.6884060">
    <ele>110.6</ele>
    <time>2018-01-27T06:41:48Z</time>
   </trkpt>
   <trkpt lat="12.9236710" lon="99.6883540">
    <ele>110.8</ele>
    <time>2018-01-27T06:41:50Z</time>
   </trkpt>
   <trkpt lat="12.9236740" lon="99.6883250">
    <ele>111.0</ele>
    <time>2018-01-27T06:41:51Z</time>
   </trkpt>
   <trkpt lat="12.9236840" lon="99.6882950">
    <ele>110.7</ele>
    <time>2018-01-27T06:41:52Z</time>
   </trkpt>
   <trkpt lat="12.9236970" lon="99.6882680">
    <ele>110.7</ele>
    <time>2018-01-27T06:41:53Z</time>
   </trkpt>
   <trkpt lat="12.9237100" lon="99.6882410">
    <ele>110.7</ele>
    <time>2018-01-27T06:41:54Z</time>
   </trkpt>
   <trkpt lat="12.9237180" lon="99.6882140">
    <ele>110.3</ele>
    <time>2018-01-27T06:41:55Z</time>
   </trkpt>
   <trkpt lat="12.9237250" lon="99.6881860">
    <ele>110.3</ele>
    <time>2018-01-27T06:41:56Z</time>
   </trkpt>
   <trkpt lat="12.9237360" lon="99.6881580">
    <ele>110.4</ele>
    <time>2018-01-27T06:41:57Z</time>
   </trkpt>
   <trkpt lat="12.9237500" lon="99.6881310">
    <ele>110.7</ele>
    <time>2018-01-27T06:41:58Z</time>
   </trkpt>
   <trkpt lat="12.9237700" lon="99.6880920">
    <ele>111.0</ele>
    <time>2018-01-27T06:42:00Z</time>
   </trkpt>
   <trkpt lat="12.9237810" lon="99.6880530">
    <ele>111.5</ele>
    <time>2018-01-27T06:42:02Z</time>
   </trkpt>
   <trkpt lat="12.9238080" lon="99.6880120">
    <ele>111.3</ele>
    <time>2018-01-27T06:42:04Z</time>
   </trkpt>
   <trkpt lat="12.9238270" lon="99.6879660">
    <ele>112.4</ele>
    <time>2018-01-27T06:42:06Z</time>
   </trkpt>
   <trkpt lat="12.9238270" lon="99.6879110">
    <ele>113.0</ele>
    <time>2018-01-27T06:42:08Z</time>
   </trkpt>
   <trkpt lat="12.9238300" lon="99.6878580">
    <ele>113.5</ele>
    <time>2018-01-27T06:42:10Z</time>
   </trkpt>
   <trkpt lat="12.9238350" lon="99.6878270">
    <ele>114.0</ele>
    <time>2018-01-27T06:42:11Z</time>
   </trkpt>
   <trkpt lat="12.9238400" lon="99.6877990">
    <ele>114.0</ele>
    <time>2018-01-27T06:42:12Z</time>
   </trkpt>
   <trkpt lat="12.9238460" lon="99.6877460">
    <ele>114.5</ele>
    <time>2018-01-27T06:42:14Z</time>
   </trkpt>
   <trkpt lat="12.9238540" lon="99.6876930">
    <ele>114.9</ele>
    <time>2018-01-27T06:42:16Z</time>
   </trkpt>
   <trkpt lat="12.9238630" lon="99.6876470">
    <ele>115.4</ele>
    <time>2018-01-27T06:42:18Z</time>
   </trkpt>
   <trkpt lat="12.9238730" lon="99.6876040">
    <ele>116.0</ele>
    <time>2018-01-27T06:42:20Z</time>
   </trkpt>
   <trkpt lat="12.9238840" lon="99.6875640">
    <ele>116.6</ele>
    <time>2018-01-27T06:42:22Z</time>
   </trkpt>
   <trkpt lat="12.9238990" lon="99.6875220">
    <ele>116.6</ele>
    <time>2018-01-27T06:42:24Z</time>
   </trkpt>
   <trkpt lat="12.9239130" lon="99.6874790">
    <ele>117.1</ele>
    <time>2018-01-27T06:42:26Z</time>
   </trkpt>
   <trkpt lat="12.9239290" lon="99.6874400">
    <ele>117.0</ele>
    <time>2018-01-27T06:42:28Z</time>
   </trkpt>
   <trkpt lat="12.9239410" lon="99.6874020">
    <ele>117.2</ele>
    <time>2018-01-27T06:42:30Z</time>
   </trkpt>
   <trkpt lat="12.9239450" lon="99.6873730">
    <ele>117.2</ele>
    <time>2018-01-27T06:42:32Z</time>
   </trkpt>
   <trkpt lat="12.9239520" lon="99.6873390">
    <ele>117.3</ele>
    <time>2018-01-27T06:42:34Z</time>
   </trkpt>
   <trkpt lat="12.9239650" lon="99.6873080">
    <ele>117.5</ele>
    <time>2018-01-27T06:42:37Z</time>
   </trkpt>
   <trkpt lat="12.9239890" lon="99.6872780">
    <ele>117.3</ele>
    <time>2018-01-27T06:42:39Z</time>
   </trkpt>
   <trkpt lat="12.9240150" lon="99.6872420">
    <ele>116.8</ele>
    <time>2018-01-27T06:42:41Z</time>
   </trkpt>
   <trkpt lat="12.9240300" lon="99.6871970">
    <ele>117.0</ele>
    <time>2018-01-27T06:42:43Z</time>
   </trkpt>
   <trkpt lat="12.9240400" lon="99.6871550">
    <ele>117.2</ele>
    <time>2018-01-27T06:42:45Z</time>
   </trkpt>
   <trkpt lat="12.9240580" lon="99.6871140">
    <ele>116.4</ele>
    <time>2018-01-27T06:42:47Z</time>
   </trkpt>
   <trkpt lat="12.9240650" lon="99.6870680">
    <ele>116.5</ele>
    <time>2018-01-27T06:42:49Z</time>
   </trkpt>
   <trkpt lat="12.9240660" lon="99.6870170">
    <ele>116.6</ele>
    <time>2018-01-27T06:42:51Z</time>
   </trkpt>
   <trkpt lat="12.9240710" lon="99.6869640">
    <ele>116.6</ele>
    <time>2018-01-27T06:42:53Z</time>
   </trkpt>
   <trkpt lat="12.9240790" lon="99.6869370">
    <ele>116.6</ele>
    <time>2018-01-27T06:42:54Z</time>
   </trkpt>
   <trkpt lat="12.9240910" lon="99.6869050">
    <ele>116.6</ele>
    <time>2018-01-27T06:42:55Z</time>
   </trkpt>
   <trkpt lat="12.9241070" lon="99.6868710">
    <ele>115.9</ele>
    <time>2018-01-27T06:42:56Z</time>
   </trkpt>
   <trkpt lat="12.9241240" lon="99.6868420">
    <ele>115.8</ele>
    <time>2018-01-27T06:42:57Z</time>
   </trkpt>
   <trkpt lat="12.9241440" lon="99.6868140">
    <ele>115.2</ele>
    <time>2018-01-27T06:42:58Z</time>
   </trkpt>
   <trkpt lat="12.9241660" lon="99.6867870">
    <ele>115.2</ele>
    <time>2018-01-27T06:42:59Z</time>
   </trkpt>
   <trkpt lat="12.9241890" lon="99.6867560">
    <ele>114.7</ele>
    <time>2018-01-27T06:43:00Z</time>
   </trkpt>
   <trkpt lat="12.9242120" lon="99.6867210">
    <ele>114.6</ele>
    <time>2018-01-27T06:43:01Z</time>
   </trkpt>
   <trkpt lat="12.9242330" lon="99.6866840">
    <ele>114.4</ele>
    <time>2018-01-27T06:43:02Z</time>
   </trkpt>
   <trkpt lat="12.9242540" lon="99.6866500">
    <ele>114.4</ele>
    <time>2018-01-27T06:43:03Z</time>
   </trkpt>
   <trkpt lat="12.9242760" lon="99.6866180">
    <ele>114.2</ele>
    <time>2018-01-27T06:43:04Z</time>
   </trkpt>
   <trkpt lat="12.9242970" lon="99.6865970">
    <ele>114.2</ele>
    <time>2018-01-27T06:43:05Z</time>
   </trkpt>
   <trkpt lat="12.9243350" lon="99.6865710">
    <ele>114.2</ele>
    <time>2018-01-27T06:43:07Z</time>
   </trkpt>
   <trkpt lat="12.9243660" lon="99.6865410">
    <ele>114.1</ele>
    <time>2018-01-27T06:43:09Z</time>
   </trkpt>
   <trkpt lat="12.9243920" lon="99.6865060">
    <ele>113.8</ele>
    <time>2018-01-27T06:43:11Z</time>
   </trkpt>
   <trkpt lat="12.9244100" lon="99.6864760">
    <ele>113.8</ele>
    <time>2018-01-27T06:43:12Z</time>
   </trkpt>
   <trkpt lat="12.9244310" lon="99.6864420">
    <ele>113.5</ele>
    <time>2018-01-27T06:43:13Z</time>
   </trkpt>
   <trkpt lat="12.9244510" lon="99.6864140">
    <ele>113.9</ele>
    <time>2018-01-27T06:43:14Z</time>
   </trkpt>
   <trkpt lat="12.9244750" lon="99.6863840">
    <ele>113.4</ele>
    <time>2018-01-27T06:43:15Z</time>
   </trkpt>
   <trkpt lat="12.9245000" lon="99.6863560">
    <ele>113.8</ele>
    <time>2018-01-27T06:43:16Z</time>
   </trkpt>
   <trkpt lat="12.9245270" lon="99.6863340">
    <ele>114.1</ele>
    <time>2018-01-27T06:43:17Z</time>
   </trkpt>
   <trkpt lat="12.9245690" lon="99.6862980">
    <ele>113.8</ele>
    <time>2018-01-27T06:43:18Z</time>
   </trkpt>
   <trkpt lat="12.9246000" lon="99.6862590">
    <ele>114.0</ele>
    <time>2018-01-27T06:43:19Z</time>
   </trkpt>
   <trkpt lat="12.9246250" lon="99.6862260">
    <ele>114.5</ele>
    <time>2018-01-27T06:43:20Z</time>
   </trkpt>
   <trkpt lat="12.9246530" lon="99.6861930">
    <ele>115.0</ele>
    <time>2018-01-27T06:43:21Z</time>
   </trkpt>
   <trkpt lat="12.9246790" lon="99.6861630">
    <ele>115.9</ele>
    <time>2018-01-27T06:43:22Z</time>
   </trkpt>
   <trkpt lat="12.9247030" lon="99.6861300">
    <ele>115.9</ele>
    <time>2018-01-27T06:43:23Z</time>
   </trkpt>
   <trkpt lat="12.9247310" lon="99.6861000">
    <ele>117.1</ele>
    <time>2018-01-27T06:43:24Z</time>
   </trkpt>
   <trkpt lat="12.9247600" lon="99.6860750">
    <ele>117.9</ele>
    <time>2018-01-27T06:43:25Z</time>
   </trkpt>
   <trkpt lat="12.9249090" lon="99.6860030">
    <ele>118.5</ele>
    <time>2018-01-27T06:43:28Z</time>
   </trkpt>
   <trkpt lat="12.9250200" lon="99.6859470">
    <ele>117.5</ele>
    <time>2018-01-27T06:43:30Z</time>
   </trkpt>
   <trkpt lat="12.9250810" lon="99.6859250">
    <ele>116.7</ele>
    <time>2018-01-27T06:43:31Z</time>
   </trkpt>
   <trkpt lat="12.9251380" lon="99.6859130">
    <ele>116.0</ele>
    <time>2018-01-27T06:43:32Z</time>
   </trkpt>
   <trkpt lat="12.9251940" lon="99.6859150">
    <ele>114.4</ele>
    <time>2018-01-27T06:43:33Z</time>
   </trkpt>
   <trkpt lat="12.9252530" lon="99.6859130">
    <ele>113.7</ele>
    <time>2018-01-27T06:43:34Z</time>
   </trkpt>
   <trkpt lat="12.9253110" lon="99.6859040">
    <ele>112.4</ele>
    <time>2018-01-27T06:43:35Z</time>
   </trkpt>
   <trkpt lat="12.9253670" lon="99.6858770">
    <ele>111.7</ele>
    <time>2018-01-27T06:43:36Z</time>
   </trkpt>
   <trkpt lat="12.9254190" lon="99.6858460">
    <ele>110.9</ele>
    <time>2018-01-27T06:43:37Z</time>
   </trkpt>
   <trkpt lat="12.9254700" lon="99.6858140">
    <ele>110.3</ele>
    <time>2018-01-27T06:43:38Z</time>
   </trkpt>
   <trkpt lat="12.9255250" lon="99.6857850">
    <ele>109.3</ele>
    <time>2018-01-27T06:43:39Z</time>
   </trkpt>
   <trkpt lat="12.9255830" lon="99.6857640">
    <ele>109.1</ele>
    <time>2018-01-27T06:43:40Z</time>
   </trkpt>
   <trkpt lat="12.9256430" lon="99.6857320">
    <ele>108.5</ele>
    <time>2018-01-27T06:43:41Z</time>
   </trkpt>
   <trkpt lat="12.9256940" lon="99.6856920">
    <ele>108.4</ele>
    <time>2018-01-27T06:43:42Z</time>
   </trkpt>
   <trkpt lat="12.9257380" lon="99.6856570">
    <ele>107.7</ele>
    <time>2018-01-27T06:43:43Z</time>
   </trkpt>
   <trkpt lat="12.9257760" lon="99.6856150">
    <ele>107.5</ele>
    <time>2018-01-27T06:43:44Z</time>
   </trkpt>
   <trkpt lat="12.9258270" lon="99.6855670">
    <ele>107.2</ele>
    <time>2018-01-27T06:43:45Z</time>
   </trkpt>
   <trkpt lat="12.9258670" lon="99.6855320">
    <ele>106.9</ele>
    <time>2018-01-27T06:43:46Z</time>
   </trkpt>
   <trkpt lat="12.9259170" lon="99.6854940">
    <ele>106.7</ele>
    <time>2018-01-27T06:43:47Z</time>
   </trkpt>
   <trkpt lat="12.9259650" lon="99.6854610">
    <ele>106.7</ele>
    <time>2018-01-27T06:43:48Z</time>
   </trkpt>
   <trkpt lat="12.9260120" lon="99.6854450">
    <ele>106.1</ele>
    <time>2018-01-27T06:43:49Z</time>
   </trkpt>
   <trkpt lat="12.9260600" lon="99.6854330">
    <ele>106.0</ele>
    <time>2018-01-27T06:43:50Z</time>
   </trkpt>
   <trkpt lat="12.9261070" lon="99.6854290">
    <ele>105.8</ele>
    <time>2018-01-27T06:43:51Z</time>
   </trkpt>
   <trkpt lat="12.9261710" lon="99.6854150">
    <ele>105.7</ele>
    <time>2018-01-27T06:43:52Z</time>
   </trkpt>
   <trkpt lat="12.9262230" lon="99.6854150">
    <ele>105.7</ele>
    <time>2018-01-27T06:43:53Z</time>
   </trkpt>
   <trkpt lat="12.9262720" lon="99.6854120">
    <ele>105.8</ele>
    <time>2018-01-27T06:43:54Z</time>
   </trkpt>
   <trkpt lat="12.9263330" lon="99.6854090">
    <ele>105.8</ele>
    <time>2018-01-27T06:43:55Z</time>
   </trkpt>
   <trkpt lat="12.9264000" lon="99.6854100">
    <ele>105.9</ele>
    <time>2018-01-27T06:43:56Z</time>
   </trkpt>
   <trkpt lat="12.9264790" lon="99.6854230">
    <ele>105.8</ele>
    <time>2018-01-27T06:43:57Z</time>
   </trkpt>
   <trkpt lat="12.9265450" lon="99.6854220">
    <ele>105.7</ele>
    <time>2018-01-27T06:43:58Z</time>
   </trkpt>
   <trkpt lat="12.9266150" lon="99.6854230">
    <ele>105.3</ele>
    <time>2018-01-27T06:43:59Z</time>
   </trkpt>
   <trkpt lat="12.9266680" lon="99.6854190">
    <ele>105.1</ele>
    <time>2018-01-27T06:44:00Z</time>
   </trkpt>
   <trkpt lat="12.9267130" lon="99.6854270">
    <ele>104.8</ele>
    <time>2018-01-27T06:44:01Z</time>
   </trkpt>
   <trkpt lat="12.9267560" lon="99.6854290">
    <ele>104.5</ele>
    <time>2018-01-27T06:44:02Z</time>
   </trkpt>
   <trkpt lat="12.9267970" lon="99.6854340">
    <ele>104.2</ele>
    <time>2018-01-27T06:44:03Z</time>
   </trkpt>
   <trkpt lat="12.9268380" lon="99.6854200">
    <ele>103.9</ele>
    <time>2018-01-27T06:44:04Z</time>
   </trkpt>
   <trkpt lat="12.9269010" lon="99.6853600">
    <ele>103.8</ele>
    <time>2018-01-27T06:44:05Z</time>
   </trkpt>
   <trkpt lat="12.9269640" lon="99.6853540">
    <ele>103.6</ele>
    <time>2018-01-27T06:44:06Z</time>
   </trkpt>
   <trkpt lat="12.9270270" lon="99.6853660">
    <ele>103.1</ele>
    <time>2018-01-27T06:44:07Z</time>
   </trkpt>
   <trkpt lat="12.9270930" lon="99.6853780">
    <ele>102.9</ele>
    <time>2018-01-27T06:44:08Z</time>
   </trkpt>
   <trkpt lat="12.9271630" lon="99.6853970">
    <ele>102.0</ele>
    <time>2018-01-27T06:44:09Z</time>
   </trkpt>
   <trkpt lat="12.9272110" lon="99.6853850">
    <ele>102.1</ele>
    <time>2018-01-27T06:44:10Z</time>
   </trkpt>
   <trkpt lat="12.9272510" lon="99.6853870">
    <ele>101.7</ele>
    <time>2018-01-27T06:44:11Z</time>
   </trkpt>
   <trkpt lat="12.9272910" lon="99.6854000">
    <ele>100.9</ele>
    <time>2018-01-27T06:44:12Z</time>
   </trkpt>
   <trkpt lat="12.9273320" lon="99.6853970">
    <ele>100.4</ele>
    <time>2018-01-27T06:44:13Z</time>
   </trkpt>
   <trkpt lat="12.9273810" lon="99.6853910">
    <ele>100.1</ele>
    <time>2018-01-27T06:44:14Z</time>
   </trkpt>
   <trkpt lat="12.9274240" lon="99.6853990">
    <ele>99.6</ele>
    <time>2018-01-27T06:44:15Z</time>
   </trkpt>
   <trkpt lat="12.9274720" lon="99.6854080">
    <ele>99.3</ele>
    <time>2018-01-27T06:44:16Z</time>
   </trkpt>
   <trkpt lat="12.9275290" lon="99.6854170">
    <ele>98.2</ele>
    <time>2018-01-27T06:44:17Z</time>
   </trkpt>
   <trkpt lat="12.9275740" lon="99.6854230">
    <ele>97.5</ele>
    <time>2018-01-27T06:44:18Z</time>
   </trkpt>
   <trkpt lat="12.9276100" lon="99.6854190">
    <ele>96.8</ele>
    <time>2018-01-27T06:44:19Z</time>
   </trkpt>
   <trkpt lat="12.9276420" lon="99.6854170">
    <ele>96.8</ele>
    <time>2018-01-27T06:44:20Z</time>
   </trkpt>
   <trkpt lat="12.9276770" lon="99.6854090">
    <ele>96.0</ele>
    <time>2018-01-27T06:44:21Z</time>
   </trkpt>
   <trkpt lat="12.9277160" lon="99.6854080">
    <ele>95.3</ele>
    <time>2018-01-27T06:44:22Z</time>
   </trkpt>
   <trkpt lat="12.9277510" lon="99.6854080">
    <ele>94.6</ele>
    <time>2018-01-27T06:44:23Z</time>
   </trkpt>
   <trkpt lat="12.9278030" lon="99.6854060">
    <ele>94.1</ele>
    <time>2018-01-27T06:44:25Z</time>
   </trkpt>
   <trkpt lat="12.9278410" lon="99.6854010">
    <ele>93.7</ele>
    <time>2018-01-27T06:44:26Z</time>
   </trkpt>
   <trkpt lat="12.9278790" lon="99.6853950">
    <ele>93.5</ele>
    <time>2018-01-27T06:44:27Z</time>
   </trkpt>
   <trkpt lat="12.9280590" lon="99.6853860">
    <ele>93.7</ele>
    <time>2018-01-27T06:44:30Z</time>
   </trkpt>
   <trkpt lat="12.9281170" lon="99.6853840">
    <ele>93.8</ele>
    <time>2018-01-27T06:44:31Z</time>
   </trkpt>
   <trkpt lat="12.9281700" lon="99.6853810">
    <ele>93.9</ele>
    <time>2018-01-27T06:44:32Z</time>
   </trkpt>
   <trkpt lat="12.9282330" lon="99.6853670">
    <ele>94.0</ele>
    <time>2018-01-27T06:44:33Z</time>
   </trkpt>
   <trkpt lat="12.9282820" lon="99.6853740">
    <ele>93.9</ele>
    <time>2018-01-27T06:44:34Z</time>
   </trkpt>
   <trkpt lat="12.9283390" lon="99.6853780">
    <ele>94.1</ele>
    <time>2018-01-27T06:44:35Z</time>
   </trkpt>
   <trkpt lat="12.9283950" lon="99.6853790">
    <ele>94.2</ele>
    <time>2018-01-27T06:44:36Z</time>
   </trkpt>
   <trkpt lat="12.9284480" lon="99.6853610">
    <ele>94.7</ele>
    <time>2018-01-27T06:44:37Z</time>
   </trkpt>
   <trkpt lat="12.9285050" lon="99.6853600">
    <ele>95.0</ele>
    <time>2018-01-27T06:44:38Z</time>
   </trkpt>
   <trkpt lat="12.9285550" lon="99.6853630">
    <ele>95.1</ele>
    <time>2018-01-27T06:44:39Z</time>
   </trkpt>
   <trkpt lat="12.9286160" lon="99.6853530">
    <ele>95.2</ele>
    <time>2018-01-27T06:44:40Z</time>
   </trkpt>
   <trkpt lat="12.9286880" lon="99.6853510">
    <ele>95.2</ele>
    <time>2018-01-27T06:44:41Z</time>
   </trkpt>
   <trkpt lat="12.9287390" lon="99.6853440">
    <ele>95.5</ele>
    <time>2018-01-27T06:44:42Z</time>
   </trkpt>
   <trkpt lat="12.9287910" lon="99.6853450">
    <ele>95.5</ele>
    <time>2018-01-27T06:44:43Z</time>
   </trkpt>
   <trkpt lat="12.9288450" lon="99.6853440">
    <ele>95.4</ele>
    <time>2018-01-27T06:44:44Z</time>
   </trkpt>
   <trkpt lat="12.9288940" lon="99.6853520">
    <ele>95.3</ele>
    <time>2018-01-27T06:44:45Z</time>
   </trkpt>
   <trkpt lat="12.9289470" lon="99.6853500">
    <ele>94.7</ele>
    <time>2018-01-27T06:44:46Z</time>
   </trkpt>
   <trkpt lat="12.9289830" lon="99.6853560">
    <ele>94.7</ele>
    <time>2018-01-27T06:44:47Z</time>
   </trkpt>
   <trkpt lat="12.9290300" lon="99.6853530">
    <ele>94.3</ele>
    <time>2018-01-27T06:44:48Z</time>
   </trkpt>
   <trkpt lat="12.9290680" lon="99.6853580">
    <ele>94.3</ele>
    <time>2018-01-27T06:44:49Z</time>
   </trkpt>
   <trkpt lat="12.9290980" lon="99.6853610">
    <ele>94.3</ele>
    <time>2018-01-27T06:44:50Z</time>
   </trkpt>
   <trkpt lat="12.9291430" lon="99.6853630">
    <ele>94.4</ele>
    <time>2018-01-27T06:44:51Z</time>
   </trkpt>
   <trkpt lat="12.9291710" lon="99.6853630">
    <ele>94.5</ele>
    <time>2018-01-27T06:44:52Z</time>
   </trkpt>
   <trkpt lat="12.9292010" lon="99.6853520">
    <ele>94.6</ele>
    <time>2018-01-27T06:44:53Z</time>
   </trkpt>
   <trkpt lat="12.9293860" lon="99.6853440">
    <ele>94.6</ele>
    <time>2018-01-27T06:44:55Z</time>
   </trkpt>
   <trkpt lat="12.9294370" lon="99.6853440">
    <ele>94.6</ele>
    <time>2018-01-27T06:44:56Z</time>
   </trkpt>
   <trkpt lat="12.9294930" lon="99.6853360">
    <ele>94.6</ele>
    <time>2018-01-27T06:44:57Z</time>
   </trkpt>
   <trkpt lat="12.9295530" lon="99.6853370">
    <ele>94.8</ele>
    <time>2018-01-27T06:44:58Z</time>
   </trkpt>
   <trkpt lat="12.9296110" lon="99.6853320">
    <ele>95.1</ele>
    <time>2018-01-27T06:44:59Z</time>
   </trkpt>
   <trkpt lat="12.9296630" lon="99.6853380">
    <ele>95.9</ele>
    <time>2018-01-27T06:45:00Z</time>
   </trkpt>
   <trkpt lat="12.9297210" lon="99.6853420">
    <ele>96.1</ele>
    <time>2018-01-27T06:45:01Z</time>
   </trkpt>
   <trkpt lat="12.9297800" lon="99.6853480">
    <ele>96.1</ele>
    <time>2018-01-27T06:45:02Z</time>
   </trkpt>
   <trkpt lat="12.9298430" lon="99.6853370">
    <ele>96.0</ele>
    <time>2018-01-27T06:45:03Z</time>
   </trkpt>
   <trkpt lat="12.9299040" lon="99.6853370">
    <ele>96.1</ele>
    <time>2018-01-27T06:45:04Z</time>
   </trkpt>
   <trkpt lat="12.9299790" lon="99.6853460">
    <ele>96.1</ele>
    <time>2018-01-27T06:45:05Z</time>
   </trkpt>
   <trkpt lat="12.9300340" lon="99.6853460">
    <ele>96.2</ele>
    <time>2018-01-27T06:45:06Z</time>
   </trkpt>
   <trkpt lat="12.9300920" lon="99.6853330">
    <ele>96.3</ele>
    <time>2018-01-27T06:45:07Z</time>
   </trkpt>
   <trkpt lat="12.9301630" lon="99.6853310">
    <ele>96.5</ele>
    <time>2018-01-27T06:45:08Z</time>
   </trkpt>
   <trkpt lat="12.9302260" lon="99.6853390">
    <ele>96.7</ele>
    <time>2018-01-27T06:45:09Z</time>
   </trkpt>
   <trkpt lat="12.9302840" lon="99.6853320">
    <ele>96.9</ele>
    <time>2018-01-27T06:45:10Z</time>
   </trkpt>
   <trkpt lat="12.9303450" lon="99.6853240">
    <ele>97.0</ele>
    <time>2018-01-27T06:45:11Z</time>
   </trkpt>
   <trkpt lat="12.9304090" lon="99.6853170">
    <ele>97.1</ele>
    <time>2018-01-27T06:45:12Z</time>
   </trkpt>
   <trkpt lat="12.9304630" lon="99.6853180">
    <ele>96.9</ele>
    <time>2018-01-27T06:45:13Z</time>
   </trkpt>
   <trkpt lat="12.9305090" lon="99.6853200">
    <ele>96.8</ele>
    <time>2018-01-27T06:45:14Z</time>
   </trkpt>
   <trkpt lat="12.9305550" lon="99.6853190">
    <ele>96.6</ele>
    <time>2018-01-27T06:45:15Z</time>
   </trkpt>
   <trkpt lat="12.9305980" lon="99.6853310">
    <ele>96.3</ele>
    <time>2018-01-27T06:45:16Z</time>
   </trkpt>
   <trkpt lat="12.9306330" lon="99.6853630">
    <ele>95.9</ele>
    <time>2018-01-27T06:45:17Z</time>
   </trkpt>
   <trkpt lat="12.9306520" lon="99.6854080">
    <ele>95.8</ele>
    <time>2018-01-27T06:45:18Z</time>
   </trkpt>
   <trkpt lat="12.9306540" lon="99.6854570">
    <ele>95.9</ele>
    <time>2018-01-27T06:45:19Z</time>
   </trkpt>
   <trkpt lat="12.9306560" lon="99.6855170">
    <ele>95.9</ele>
    <time>2018-01-27T06:45:20Z</time>
   </trkpt>
   <trkpt lat="12.9306730" lon="99.6855750">
    <ele>95.5</ele>
    <time>2018-01-27T06:45:21Z</time>
   </trkpt>
   <trkpt lat="12.9306710" lon="99.6856260">
    <ele>95.1</ele>
    <time>2018-01-27T06:45:22Z</time>
   </trkpt>
   <trkpt lat="12.9306730" lon="99.6856790">
    <ele>94.5</ele>
    <time>2018-01-27T06:45:23Z</time>
   </trkpt>
   <trkpt lat="12.9306660" lon="99.6857430">
    <ele>93.6</ele>
    <time>2018-01-27T06:45:24Z</time>
   </trkpt>
   <trkpt lat="12.9306640" lon="99.6857950">
    <ele>93.6</ele>
    <time>2018-01-27T06:45:25Z</time>
   </trkpt>
   <trkpt lat="12.9306570" lon="99.6858430">
    <ele>93.8</ele>
    <time>2018-01-27T06:45:26Z</time>
   </trkpt>
   <trkpt lat="12.9306510" lon="99.6858800">
    <ele>93.9</ele>
    <time>2018-01-27T06:45:27Z</time>
   </trkpt>
   <trkpt lat="12.9306470" lon="99.6859130">
    <ele>93.9</ele>
    <time>2018-01-27T06:45:28Z</time>
   </trkpt>
   <trkpt lat="12.9306740" lon="99.6859290">
    <ele>93.9</ele>
    <time>2018-01-27T06:45:29Z</time>
   </trkpt>
   <trkpt lat="12.9307070" lon="99.6859300">
    <ele>94.0</ele>
    <time>2018-01-27T06:45:30Z</time>
   </trkpt>
   <trkpt lat="12.9307440" lon="99.6859230">
    <ele>94.0</ele>
    <time>2018-01-27T06:45:31Z</time>
   </trkpt>
   <trkpt lat="12.9307830" lon="99.6859430">
    <ele>94.1</ele>
    <time>2018-01-27T06:45:33Z</time>
   </trkpt>
   <trkpt lat="12.9308240" lon="99.6859850">
    <ele>94.1</ele>
    <time>2018-01-27T06:45:34Z</time>
   </trkpt>
   <trkpt lat="12.9308450" lon="99.6860460">
    <ele>94.1</ele>
    <time>2018-01-27T06:45:35Z</time>
   </trkpt>
   <trkpt lat="12.9308320" lon="99.6861340">
    <ele>94.1</ele>
    <time>2018-01-27T06:45:36Z</time>
   </trkpt>
   <trkpt lat="12.9308410" lon="99.6861910">
    <ele>94.2</ele>
    <time>2018-01-27T06:45:37Z</time>
   </trkpt>
   <trkpt lat="12.9308350" lon="99.6862370">
    <ele>94.3</ele>
    <time>2018-01-27T06:45:38Z</time>
   </trkpt>
   <trkpt lat="12.9308180" lon="99.6862860">
    <ele>94.4</ele>
    <time>2018-01-27T06:45:39Z</time>
   </trkpt>
   <trkpt lat="12.9308040" lon="99.6863270">
    <ele>94.5</ele>
    <time>2018-01-27T06:45:40Z</time>
   </trkpt>
   <trkpt lat="12.9307910" lon="99.6863680">
    <ele>94.6</ele>
    <time>2018-01-27T06:45:41Z</time>
   </trkpt>
   <trkpt lat="12.9307770" lon="99.6864080">
    <ele>94.6</ele>
    <time>2018-01-27T06:45:42Z</time>
   </trkpt>
   <trkpt lat="12.9307670" lon="99.6864530">
    <ele>94.5</ele>
    <time>2018-01-27T06:45:43Z</time>
   </trkpt>
   <trkpt lat="12.9307740" lon="99.6864960">
    <ele>94.4</ele>
    <time>2018-01-27T06:45:44Z</time>
   </trkpt>
   <trkpt lat="12.9307920" lon="99.6865370">
    <ele>94.1</ele>
    <time>2018-01-27T06:45:45Z</time>
   </trkpt>
   <trkpt lat="12.9308310" lon="99.6865630">
    <ele>93.8</ele>
    <time>2018-01-27T06:45:46Z</time>
   </trkpt>
   <trkpt lat="12.9308770" lon="99.6865870">
    <ele>93.6</ele>
    <time>2018-01-27T06:45:47Z</time>
   </trkpt>
   <trkpt lat="12.9309240" lon="99.6865910">
    <ele>93.4</ele>
    <time>2018-01-27T06:45:48Z</time>
   </trkpt>
   <trkpt lat="12.9309770" lon="99.6865950">
    <ele>93.0</ele>
    <time>2018-01-27T06:45:49Z</time>
   </trkpt>
   <trkpt lat="12.9310330" lon="99.6866150">
    <ele>92.7</ele>
    <time>2018-01-27T06:45:50Z</time>
   </trkpt>
   <trkpt lat="12.9310760" lon="99.6866460">
    <ele>92.2</ele>
    <time>2018-01-27T06:45:51Z</time>
   </trkpt>
   <trkpt lat="12.9311190" lon="99.6866660">
    <ele>91.8</ele>
    <time>2018-01-27T06:45:52Z</time>
   </trkpt>
   <trkpt lat="12.9311610" lon="99.6866870">
    <ele>91.3</ele>
    <time>2018-01-27T06:45:53Z</time>
   </trkpt>
   <trkpt lat="12.9311970" lon="99.6867240">
    <ele>91.0</ele>
    <time>2018-01-27T06:45:54Z</time>
   </trkpt>
   <trkpt lat="12.9312230" lon="99.6867510">
    <ele>90.7</ele>
    <time>2018-01-27T06:45:55Z</time>
   </trkpt>
   <trkpt lat="12.9312660" lon="99.6867820">
    <ele>90.3</ele>
    <time>2018-01-27T06:45:56Z</time>
   </trkpt>
   <trkpt lat="12.9313160" lon="99.6868070">
    <ele>90.1</ele>
    <time>2018-01-27T06:45:57Z</time>
   </trkpt>
   <trkpt lat="12.9313580" lon="99.6868290">
    <ele>89.9</ele>
    <time>2018-01-27T06:45:58Z</time>
   </trkpt>
   <trkpt lat="12.9314060" lon="99.6868600">
    <ele>89.8</ele>
    <time>2018-01-27T06:45:59Z</time>
   </trkpt>
   <trkpt lat="12.9314540" lon="99.6868930">
    <ele>89.7</ele>
    <time>2018-01-27T06:46:00Z</time>
   </trkpt>
   <trkpt lat="12.9314920" lon="99.6869240">
    <ele>89.7</ele>
    <time>2018-01-27T06:46:01Z</time>
   </trkpt>
   <trkpt lat="12.9315310" lon="99.6869590">
    <ele>89.8</ele>
    <time>2018-01-27T06:46:02Z</time>
   </trkpt>
   <trkpt lat="12.9315600" lon="99.6869790">
    <ele>90.0</ele>
    <time>2018-01-27T06:46:03Z</time>
   </trkpt>
   <trkpt lat="12.9315890" lon="99.6870190">
    <ele>90.3</ele>
    <time>2018-01-27T06:46:04Z</time>
   </trkpt>
   <trkpt lat="12.9316120" lon="99.6870510">
    <ele>90.5</ele>
    <time>2018-01-27T06:46:05Z</time>
   </trkpt>
   <trkpt lat="12.9316570" lon="99.6870770">
    <ele>90.7</ele>
    <time>2018-01-27T06:46:06Z</time>
   </trkpt>
   <trkpt lat="12.9316870" lon="99.6871020">
    <ele>90.7</ele>
    <time>2018-01-27T06:46:07Z</time>
   </trkpt>
   <trkpt lat="12.9317170" lon="99.6871270">
    <ele>90.9</ele>
    <time>2018-01-27T06:46:08Z</time>
   </trkpt>
   <trkpt lat="12.9317530" lon="99.6871540">
    <ele>91.3</ele>
    <time>2018-01-27T06:46:09Z</time>
   </trkpt>
   <trkpt lat="12.9317740" lon="99.6871850">
    <ele>91.3</ele>
    <time>2018-01-27T06:46:10Z</time>
   </trkpt>
   <trkpt lat="12.9318000" lon="99.6872110">
    <ele>91.9</ele>
    <time>2018-01-27T06:46:11Z</time>
   </trkpt>
   <trkpt lat="12.9318270" lon="99.6872330">
    <ele>91.9</ele>
    <time>2018-01-27T06:46:12Z</time>
   </trkpt>
   <trkpt lat="12.9318690" lon="99.6872670">
    <ele>92.4</ele>
    <time>2018-01-27T06:46:14Z</time>
   </trkpt>
   <trkpt lat="12.9318930" lon="99.6872860">
    <ele>92.9</ele>
    <time>2018-01-27T06:46:15Z</time>
   </trkpt>
   <trkpt lat="12.9319160" lon="99.6873030">
    <ele>92.9</ele>
    <time>2018-01-27T06:46:16Z</time>
   </trkpt>
   <trkpt lat="12.9319510" lon="99.6873430">
    <ele>93.5</ele>
    <time>2018-01-27T06:46:18Z</time>
   </trkpt>
   <trkpt lat="12.9319700" lon="99.6873650">
    <ele>93.5</ele>
    <time>2018-01-27T06:46:19Z</time>
   </trkpt>
   <trkpt lat="12.9320140" lon="99.6874010">
    <ele>94.0</ele>
    <time>2018-01-27T06:46:21Z</time>
   </trkpt>
   <trkpt lat="12.9320390" lon="99.6874150">
    <ele>94.5</ele>
    <time>2018-01-27T06:46:22Z</time>
   </trkpt>
   <trkpt lat="12.9320600" lon="99.6874430">
    <ele>94.5</ele>
    <time>2018-01-27T06:46:23Z</time>
   </trkpt>
   <trkpt lat="12.9320610" lon="99.6874940">
    <ele>94.9</ele>
    <time>2018-01-27T06:46:26Z</time>
   </trkpt>
   <trkpt lat="12.9320460" lon="99.6875180">
    <ele>95.3</ele>
    <time>2018-01-27T06:46:27Z</time>
   </trkpt>
   <trkpt lat="12.9320210" lon="99.6875440">
    <ele>95.7</ele>
    <time>2018-01-27T06:46:28Z</time>
   </trkpt>
   <trkpt lat="12.9319920" lon="99.6875690">
    <ele>95.7</ele>
    <time>2018-01-27T06:46:29Z</time>
   </trkpt>
   <trkpt lat="12.9319630" lon="99.6875920">
    <ele>95.9</ele>
    <time>2018-01-27T06:46:30Z</time>
   </trkpt>
   <trkpt lat="12.9319320" lon="99.6876160">
    <ele>95.8</ele>
    <time>2018-01-27T06:46:31Z</time>
   </trkpt>
   <trkpt lat="12.9318980" lon="99.6876410">
    <ele>95.8</ele>
    <time>2018-01-27T06:46:32Z</time>
   </trkpt>
   <trkpt lat="12.9318630" lon="99.6876690">
    <ele>95.7</ele>
    <time>2018-01-27T06:46:33Z</time>
   </trkpt>
   <trkpt lat="12.9318240" lon="99.6876980">
    <ele>95.7</ele>
    <time>2018-01-27T06:46:34Z</time>
   </trkpt>
   <trkpt lat="12.9317800" lon="99.6877310">
    <ele>95.5</ele>
    <time>2018-01-27T06:46:35Z</time>
   </trkpt>
   <trkpt lat="12.9317290" lon="99.6877670">
    <ele>95.1</ele>
    <time>2018-01-27T06:46:36Z</time>
   </trkpt>
   <trkpt lat="12.9316760" lon="99.6878070">
    <ele>94.6</ele>
    <time>2018-01-27T06:46:37Z</time>
   </trkpt>
   <trkpt lat="12.9316220" lon="99.6878510">
    <ele>94.3</ele>
    <time>2018-01-27T06:46:38Z</time>
   </trkpt>
   <trkpt lat="12.9315670" lon="99.6878970">
    <ele>93.9</ele>
    <time>2018-01-27T06:46:39Z</time>
   </trkpt>
   <trkpt lat="12.9315120" lon="99.6879450">
    <ele>93.2</ele>
    <time>2018-01-27T06:46:40Z</time>
   </trkpt>
   <trkpt lat="12.9314340" lon="99.6880100">
    <ele>91.8</ele>
    <time>2018-01-27T06:46:41Z</time>
   </trkpt>
   <trkpt lat="12.9313850" lon="99.6880540">
    <ele>90.3</ele>
    <time>2018-01-27T06:46:42Z</time>
   </trkpt>
   <trkpt lat="12.9313320" lon="99.6881040">
    <ele>90.1</ele>
    <time>2018-01-27T06:46:43Z</time>
   </trkpt>
   <trkpt lat="12.9312810" lon="99.6881480">
    <ele>90.8</ele>
    <time>2018-01-27T06:46:44Z</time>
   </trkpt>
   <trkpt lat="12.9312320" lon="99.6881960">
    <ele>91.1</ele>
    <time>2018-01-27T06:46:45Z</time>
   </trkpt>
   <trkpt lat="12.9311860" lon="99.6882480">
    <ele>91.4</ele>
    <time>2018-01-27T06:46:46Z</time>
   </trkpt>
   <trkpt lat="12.9311380" lon="99.6882980">
    <ele>91.8</ele>
    <time>2018-01-27T06:46:47Z</time>
   </trkpt>
   <trkpt lat="12.9310880" lon="99.6883530">
    <ele>92.2</ele>
    <time>2018-01-27T06:46:48Z</time>
   </trkpt>
   <trkpt lat="12.9310440" lon="99.6884080">
    <ele>92.1</ele>
    <time>2018-01-27T06:46:49Z</time>
   </trkpt>
   <trkpt lat="12.9309990" lon="99.6884610">
    <ele>92.1</ele>
    <time>2018-01-27T06:46:50Z</time>
   </trkpt>
   <trkpt lat="12.9309660" lon="99.6885220">
    <ele>92.0</ele>
    <time>2018-01-27T06:46:51Z</time>
   </trkpt>
   <trkpt lat="12.9309210" lon="99.6885890">
    <ele>91.9</ele>
    <time>2018-01-27T06:46:52Z</time>
   </trkpt>
   <trkpt lat="12.9308890" lon="99.6886500">
    <ele>91.9</ele>
    <time>2018-01-27T06:46:53Z</time>
   </trkpt>
   <trkpt lat="12.9308460" lon="99.6887170">
    <ele>91.2</ele>
    <time>2018-01-27T06:46:54Z</time>
   </trkpt>
   <trkpt lat="12.9307970" lon="99.6887780">
    <ele>90.6</ele>
    <time>2018-01-27T06:46:55Z</time>
   </trkpt>
   <trkpt lat="12.9307490" lon="99.6888340">
    <ele>89.7</ele>
    <time>2018-01-27T06:46:56Z</time>
   </trkpt>
   <trkpt lat="12.9307090" lon="99.6889040">
    <ele>89.3</ele>
    <time>2018-01-27T06:46:57Z</time>
   </trkpt>
   <trkpt lat="12.9306640" lon="99.6889670">
    <ele>88.8</ele>
    <time>2018-01-27T06:46:58Z</time>
   </trkpt>
   <trkpt lat="12.9306250" lon="99.6890260">
    <ele>88.8</ele>
    <time>2018-01-27T06:46:59Z</time>
   </trkpt>
   <trkpt lat="12.9305840" lon="99.6890860">
    <ele>89.3</ele>
    <time>2018-01-27T06:47:00Z</time>
   </trkpt>
   <trkpt lat="12.9305430" lon="99.6891480">
    <ele>89.1</ele>
    <time>2018-01-27T06:47:01Z</time>
   </trkpt>
   <trkpt lat="12.9304980" lon="99.6892180">
    <ele>88.3</ele>
    <time>2018-01-27T06:47:02Z</time>
   </trkpt>
   <trkpt lat="12.9304660" lon="99.6892760">
    <ele>87.6</ele>
    <time>2018-01-27T06:47:03Z</time>
   </trkpt>
   <trkpt lat="12.9304300" lon="99.6893380">
    <ele>87.1</ele>
    <time>2018-01-27T06:47:04Z</time>
   </trkpt>
   <trkpt lat="12.9304050" lon="99.6893960">
    <ele>86.2</ele>
    <time>2018-01-27T06:47:05Z</time>
   </trkpt>
   <trkpt lat="12.9303780" lon="99.6894590">
    <ele>85.7</ele>
    <time>2018-01-27T06:47:06Z</time>
   </trkpt>
   <trkpt lat="12.9303470" lon="99.6895330">
    <ele>84.7</ele>
    <time>2018-01-27T06:47:07Z</time>
   </trkpt>
   <trkpt lat="12.9303220" lon="99.6895990">
    <ele>83.6</ele>
    <time>2018-01-27T06:47:08Z</time>
   </trkpt>
   <trkpt lat="12.9302970" lon="99.6896640">
    <ele>83.1</ele>
    <time>2018-01-27T06:47:09Z</time>
   </trkpt>
   <trkpt lat="12.9302780" lon="99.6897250">
    <ele>83.1</ele>
    <time>2018-01-27T06:47:10Z</time>
   </trkpt>
   <trkpt lat="12.9302590" lon="99.6897930">
    <ele>82.9</ele>
    <time>2018-01-27T06:47:11Z</time>
   </trkpt>
   <trkpt lat="12.9302490" lon="99.6898520">
    <ele>82.9</ele>
    <time>2018-01-27T06:47:12Z</time>
   </trkpt>
   <trkpt lat="12.9302330" lon="99.6899210">
    <ele>83.7</ele>
    <time>2018-01-27T06:47:13Z</time>
   </trkpt>
   <trkpt lat="12.9302230" lon="99.6900080">
    <ele>84.5</ele>
    <time>2018-01-27T06:47:14Z</time>
   </trkpt>
   <trkpt lat="12.9302020" lon="99.6900770">
    <ele>84.8</ele>
    <time>2018-01-27T06:47:15Z</time>
   </trkpt>
   <trkpt lat="12.9301870" lon="99.6901430">
    <ele>84.9</ele>
    <time>2018-01-27T06:47:16Z</time>
   </trkpt>
   <trkpt lat="12.9301730" lon="99.6902030">
    <ele>84.7</ele>
    <time>2018-01-27T06:47:17Z</time>
   </trkpt>
   <trkpt lat="12.9301500" lon="99.6902670">
    <ele>84.5</ele>
    <time>2018-01-27T06:47:18Z</time>
   </trkpt>
   <trkpt lat="12.9301250" lon="99.6903370">
    <ele>84.6</ele>
    <time>2018-01-27T06:47:19Z</time>
   </trkpt>
   <trkpt lat="12.9301040" lon="99.6904050">
    <ele>84.9</ele>
    <time>2018-01-27T06:47:20Z</time>
   </trkpt>
   <trkpt lat="12.9300880" lon="99.6904630">
    <ele>85.7</ele>
    <time>2018-01-27T06:47:21Z</time>
   </trkpt>
   <trkpt lat="12.9300700" lon="99.6905330">
    <ele>85.8</ele>
    <time>2018-01-27T06:47:22Z</time>
   </trkpt>
   <trkpt lat="12.9300460" lon="99.6906040">
    <ele>86.3</ele>
    <time>2018-01-27T06:47:23Z</time>
   </trkpt>
   <trkpt lat="12.9300200" lon="99.6906900">
    <ele>86.8</ele>
    <time>2018-01-27T06:47:24Z</time>
   </trkpt>
   <trkpt lat="12.9300010" lon="99.6907500">
    <ele>87.0</ele>
    <time>2018-01-27T06:47:25Z</time>
   </trkpt>
   <trkpt lat="12.9299900" lon="99.6908230">
    <ele>87.7</ele>
    <time>2018-01-27T06:47:26Z</time>
   </trkpt>
   <trkpt lat="12.9299760" lon="99.6908890">
    <ele>88.2</ele>
    <time>2018-01-27T06:47:27Z</time>
   </trkpt>
   <trkpt lat="12.9299630" lon="99.6909530">
    <ele>88.3</ele>
    <time>2018-01-27T06:47:28Z</time>
   </trkpt>
   <trkpt lat="12.9299430" lon="99.6910110">
    <ele>88.5</ele>
    <time>2018-01-27T06:47:29Z</time>
   </trkpt>
   <trkpt lat="12.9299210" lon="99.6910730">
    <ele>88.8</ele>
    <time>2018-01-27T06:47:30Z</time>
   </trkpt>
   <trkpt lat="12.9298920" lon="99.6911290">
    <ele>89.0</ele>
    <time>2018-01-27T06:47:31Z</time>
   </trkpt>
   <trkpt lat="12.9298760" lon="99.6912040">
    <ele>89.7</ele>
    <time>2018-01-27T06:47:32Z</time>
   </trkpt>
   <trkpt lat="12.9298550" lon="99.6912720">
    <ele>90.3</ele>
    <time>2018-01-27T06:47:33Z</time>
   </trkpt>
   <trkpt lat="12.9298320" lon="99.6913410">
    <ele>90.5</ele>
    <time>2018-01-27T06:47:34Z</time>
   </trkpt>
   <trkpt lat="12.9298120" lon="99.6914030">
    <ele>90.9</ele>
    <time>2018-01-27T06:47:35Z</time>
   </trkpt>
   <trkpt lat="12.9297930" lon="99.6914780">
    <ele>91.0</ele>
    <time>2018-01-27T06:47:36Z</time>
   </trkpt>
   <trkpt lat="12.9297700" lon="99.6915450">
    <ele>91.0</ele>
    <time>2018-01-27T06:47:37Z</time>
   </trkpt>
   <trkpt lat="12.9297520" lon="99.6916170">
    <ele>90.4</ele>
    <time>2018-01-27T06:47:38Z</time>
   </trkpt>
   <trkpt lat="12.9297350" lon="99.6916840">
    <ele>89.8</ele>
    <time>2018-01-27T06:47:39Z</time>
   </trkpt>
   <trkpt lat="12.9297210" lon="99.6917680">
    <ele>88.6</ele>
    <time>2018-01-27T06:47:40Z</time>
   </trkpt>
   <trkpt lat="12.9297120" lon="99.6918440">
    <ele>87.5</ele>
    <time>2018-01-27T06:47:41Z</time>
   </trkpt>
   <trkpt lat="12.9297070" lon="99.6919180">
    <ele>86.7</ele>
    <time>2018-01-27T06:47:42Z</time>
   </trkpt>
   <trkpt lat="12.9296860" lon="99.6919880">
    <ele>86.3</ele>
    <time>2018-01-27T06:47:43Z</time>
   </trkpt>
   <trkpt lat="12.9296650" lon="99.6920520">
    <ele>85.8</ele>
    <time>2018-01-27T06:47:44Z</time>
   </trkpt>
   <trkpt lat="12.9296450" lon="99.6921100">
    <ele>85.6</ele>
    <time>2018-01-27T06:47:45Z</time>
   </trkpt>
   <trkpt lat="12.9296250" lon="99.6921770">
    <ele>85.1</ele>
    <time>2018-01-27T06:47:46Z</time>
   </trkpt>
   <trkpt lat="12.9296150" lon="99.6922520">
    <ele>84.8</ele>
    <time>2018-01-27T06:47:47Z</time>
   </trkpt>
   <trkpt lat="12.9296040" lon="99.6923230">
    <ele>84.5</ele>
    <time>2018-01-27T06:47:48Z</time>
   </trkpt>
   <trkpt lat="12.9295890" lon="99.6923820">
    <ele>84.4</ele>
    <time>2018-01-27T06:47:49Z</time>
   </trkpt>
   <trkpt lat="12.9295750" lon="99.6924520">
    <ele>84.4</ele>
    <time>2018-01-27T06:47:50Z</time>
   </trkpt>
   <trkpt lat="12.9295620" lon="99.6925160">
    <ele>84.8</ele>
    <time>2018-01-27T06:47:51Z</time>
   </trkpt>
   <trkpt lat="12.9295490" lon="99.6925890">
    <ele>84.8</ele>
    <time>2018-01-27T06:47:52Z</time>
   </trkpt>
   <trkpt lat="12.9295360" lon="99.6926680">
    <ele>84.8</ele>
    <time>2018-01-27T06:47:53Z</time>
   </trkpt>
   <trkpt lat="12.9295220" lon="99.6927410">
    <ele>84.7</ele>
    <time>2018-01-27T06:47:54Z</time>
   </trkpt>
   <trkpt lat="12.9295140" lon="99.6928040">
    <ele>84.8</ele>
    <time>2018-01-27T06:47:55Z</time>
   </trkpt>
   <trkpt lat="12.9294970" lon="99.6928680">
    <ele>84.8</ele>
    <time>2018-01-27T06:47:56Z</time>
   </trkpt>
   <trkpt lat="12.9294860" lon="99.6929450">
    <ele>84.8</ele>
    <time>2018-01-27T06:47:57Z</time>
   </trkpt>
   <trkpt lat="12.9294650" lon="99.6930150">
    <ele>84.8</ele>
    <time>2018-01-27T06:47:58Z</time>
   </trkpt>
   <trkpt lat="12.9294440" lon="99.6930920">
    <ele>84.9</ele>
    <time>2018-01-27T06:47:59Z</time>
   </trkpt>
   <trkpt lat="12.9294150" lon="99.6931680">
    <ele>85.0</ele>
    <time>2018-01-27T06:48:00Z</time>
   </trkpt>
   <trkpt lat="12.9293880" lon="99.6932470">
    <ele>84.9</ele>
    <time>2018-01-27T06:48:01Z</time>
   </trkpt>
   <trkpt lat="12.9293550" lon="99.6933180">
    <ele>84.4</ele>
    <time>2018-01-27T06:48:02Z</time>
   </trkpt>
   <trkpt lat="12.9293170" lon="99.6933790">
    <ele>83.6</ele>
    <time>2018-01-27T06:48:03Z</time>
   </trkpt>
   <trkpt lat="12.9292770" lon="99.6934420">
    <ele>83.1</ele>
    <time>2018-01-27T06:48:04Z</time>
   </trkpt>
   <trkpt lat="12.9292360" lon="99.6935010">
    <ele>82.9</ele>
    <time>2018-01-27T06:48:05Z</time>
   </trkpt>
   <trkpt lat="12.9291940" lon="99.6935550">
    <ele>82.9</ele>
    <time>2018-01-27T06:48:06Z</time>
   </trkpt>
   <trkpt lat="12.9291510" lon="99.6936230">
    <ele>82.9</ele>
    <time>2018-01-27T06:48:07Z</time>
   </trkpt>
   <trkpt lat="12.9291110" lon="99.6936840">
    <ele>82.2</ele>
    <time>2018-01-27T06:48:08Z</time>
   </trkpt>
   <trkpt lat="12.9290680" lon="99.6937490">
    <ele>81.6</ele>
    <time>2018-01-27T06:48:09Z</time>
   </trkpt>
   <trkpt lat="12.9290260" lon="99.6938060">
    <ele>80.6</ele>
    <time>2018-01-27T06:48:10Z</time>
   </trkpt>
   <trkpt lat="12.9289880" lon="99.6938800">
    <ele>80.1</ele>
    <time>2018-01-27T06:48:11Z</time>
   </trkpt>
   <trkpt lat="12.9289440" lon="99.6939470">
    <ele>80.3</ele>
    <time>2018-01-27T06:48:12Z</time>
   </trkpt>
   <trkpt lat="12.9288980" lon="99.6940030">
    <ele>80.5</ele>
    <time>2018-01-27T06:48:13Z</time>
   </trkpt>
   <trkpt lat="12.9288550" lon="99.6940640">
    <ele>80.2</ele>
    <time>2018-01-27T06:48:14Z</time>
   </trkpt>
   <trkpt lat="12.9288120" lon="99.6941290">
    <ele>80.3</ele>
    <time>2018-01-27T06:48:15Z</time>
   </trkpt>
   <trkpt lat="12.9287690" lon="99.6941910">
    <ele>80.8</ele>
    <time>2018-01-27T06:48:16Z</time>
   </trkpt>
   <trkpt lat="12.9287360" lon="99.6942450">
    <ele>81.3</ele>
    <time>2018-01-27T06:48:17Z</time>
   </trkpt>
   <trkpt lat="12.9286950" lon="99.6943010">
    <ele>81.7</ele>
    <time>2018-01-27T06:48:18Z</time>
   </trkpt>
   <trkpt lat="12.9286600" lon="99.6943600">
    <ele>81.9</ele>
    <time>2018-01-27T06:48:19Z</time>
   </trkpt>
   <trkpt lat="12.9286290" lon="99.6944210">
    <ele>81.9</ele>
    <time>2018-01-27T06:48:20Z</time>
   </trkpt>
   <trkpt lat="12.9286000" lon="99.6944820">
    <ele>81.8</ele>
    <time>2018-01-27T06:48:21Z</time>
   </trkpt>
   <trkpt lat="12.9285670" lon="99.6945410">
    <ele>81.7</ele>
    <time>2018-01-27T06:48:22Z</time>
   </trkpt>
   <trkpt lat="12.9285290" lon="99.6945960">
    <ele>81.7</ele>
    <time>2018-01-27T06:48:23Z</time>
   </trkpt>
   <trkpt lat="12.9284920" lon="99.6946500">
    <ele>81.9</ele>
    <time>2018-01-27T06:48:24Z</time>
   </trkpt>
   <trkpt lat="12.9284490" lon="99.6947040">
    <ele>82.2</ele>
    <time>2018-01-27T06:48:25Z</time>
   </trkpt>
   <trkpt lat="12.9284100" lon="99.6947670">
    <ele>82.5</ele>
    <time>2018-01-27T06:48:26Z</time>
   </trkpt>
   <trkpt lat="12.9283740" lon="99.6948340">
    <ele>82.8</ele>
    <time>2018-01-27T06:48:27Z</time>
   </trkpt>
   <trkpt lat="12.9283360" lon="99.6949090">
    <ele>83.2</ele>
    <time>2018-01-27T06:48:28Z</time>
   </trkpt>
   <trkpt lat="12.9282990" lon="99.6949850">
    <ele>83.7</ele>
    <time>2018-01-27T06:48:29Z</time>
   </trkpt>
   <trkpt lat="12.9282600" lon="99.6950530">
    <ele>83.6</ele>
    <time>2018-01-27T06:48:30Z</time>
   </trkpt>
   <trkpt lat="12.9282400" lon="99.6951250">
    <ele>83.5</ele>
    <time>2018-01-27T06:48:31Z</time>
   </trkpt>
   <trkpt lat="12.9282130" lon="99.6951990">
    <ele>82.7</ele>
    <time>2018-01-27T06:48:32Z</time>
   </trkpt>
   <trkpt lat="12.9281950" lon="99.6952710">
    <ele>82.2</ele>
    <time>2018-01-27T06:48:33Z</time>
   </trkpt>
   <trkpt lat="12.9281790" lon="99.6953450">
    <ele>81.9</ele>
    <time>2018-01-27T06:48:34Z</time>
   </trkpt>
   <trkpt lat="12.9281580" lon="99.6954190">
    <ele>81.5</ele>
    <time>2018-01-27T06:48:35Z</time>
   </trkpt>
   <trkpt lat="12.9281390" lon="99.6954840">
    <ele>81.3</ele>
    <time>2018-01-27T06:48:36Z</time>
   </trkpt>
   <trkpt lat="12.9281230" lon="99.6955580">
    <ele>81.2</ele>
    <time>2018-01-27T06:48:37Z</time>
   </trkpt>
   <trkpt lat="12.9281120" lon="99.6956330">
    <ele>81.1</ele>
    <time>2018-01-27T06:48:38Z</time>
   </trkpt>
   <trkpt lat="12.9280950" lon="99.6956920">
    <ele>81.4</ele>
    <time>2018-01-27T06:48:39Z</time>
   </trkpt>
   <trkpt lat="12.9280750" lon="99.6957460">
    <ele>81.5</ele>
    <time>2018-01-27T06:48:40Z</time>
   </trkpt>
   <trkpt lat="12.9280610" lon="99.6958120">
    <ele>81.7</ele>
    <time>2018-01-27T06:48:41Z</time>
   </trkpt>
   <trkpt lat="12.9280520" lon="99.6958700">
    <ele>81.7</ele>
    <time>2018-01-27T06:48:42Z</time>
   </trkpt>
   <trkpt lat="12.9280460" lon="99.6959290">
    <ele>81.7</ele>
    <time>2018-01-27T06:48:43Z</time>
   </trkpt>
   <trkpt lat="12.9280300" lon="99.6959890">
    <ele>81.7</ele>
    <time>2018-01-27T06:48:44Z</time>
   </trkpt>
   <trkpt lat="12.9280230" lon="99.6960450">
    <ele>81.9</ele>
    <time>2018-01-27T06:48:45Z</time>
   </trkpt>
   <trkpt lat="12.9279980" lon="99.6961060">
    <ele>81.9</ele>
    <time>2018-01-27T06:48:46Z</time>
   </trkpt>
   <trkpt lat="12.9279720" lon="99.6961540">
    <ele>82.0</ele>
    <time>2018-01-27T06:48:47Z</time>
   </trkpt>
   <trkpt lat="12.9279380" lon="99.6961890">
    <ele>81.8</ele>
    <time>2018-01-27T06:48:48Z</time>
   </trkpt>
   <trkpt lat="12.9279030" lon="99.6962240">
    <ele>81.7</ele>
    <time>2018-01-27T06:48:49Z</time>
   </trkpt>
   <trkpt lat="12.9278660" lon="99.6962540">
    <ele>81.7</ele>
    <time>2018-01-27T06:48:50Z</time>
   </trkpt>
   <trkpt lat="12.9278290" lon="99.6962780">
    <ele>81.9</ele>
    <time>2018-01-27T06:48:51Z</time>
   </trkpt>
   <trkpt lat="12.9277930" lon="99.6962990">
    <ele>82.0</ele>
    <time>2018-01-27T06:48:52Z</time>
   </trkpt>
   <trkpt lat="12.9277610" lon="99.6963130">
    <ele>82.1</ele>
    <time>2018-01-27T06:48:53Z</time>
   </trkpt>
   <trkpt lat="12.9277240" lon="99.6963310">
    <ele>82.2</ele>
    <time>2018-01-27T06:48:54Z</time>
   </trkpt>
   <trkpt lat="12.9276880" lon="99.6963500">
    <ele>82.1</ele>
    <time>2018-01-27T06:48:55Z</time>
   </trkpt>
   <trkpt lat="12.9276480" lon="99.6963630">
    <ele>82.4</ele>
    <time>2018-01-27T06:48:56Z</time>
   </trkpt>
   <trkpt lat="12.9276100" lon="99.6963770">
    <ele>82.4</ele>
    <time>2018-01-27T06:48:57Z</time>
   </trkpt>
   <trkpt lat="12.9275580" lon="99.6964090">
    <ele>82.6</ele>
    <time>2018-01-27T06:48:59Z</time>
   </trkpt>
   <trkpt lat="12.9275200" lon="99.6964390">
    <ele>82.5</ele>
    <time>2018-01-27T06:49:00Z</time>
   </trkpt>
   <trkpt lat="12.9274880" lon="99.6964750">
    <ele>82.2</ele>
    <time>2018-01-27T06:49:01Z</time>
   </trkpt>
   <trkpt lat="12.9274680" lon="99.6965380">
    <ele>81.9</ele>
    <time>2018-01-27T06:49:02Z</time>
   </trkpt>
   <trkpt lat="12.9274480" lon="99.6965850">
    <ele>81.6</ele>
    <time>2018-01-27T06:49:03Z</time>
   </trkpt>
   <trkpt lat="12.9274480" lon="99.6966310">
    <ele>81.5</ele>
    <time>2018-01-27T06:49:04Z</time>
   </trkpt>
   <trkpt lat="12.9274540" lon="99.6966820">
    <ele>81.2</ele>
    <time>2018-01-27T06:49:05Z</time>
   </trkpt>
   <trkpt lat="12.9274680" lon="99.6967280">
    <ele>81.1</ele>
    <time>2018-01-27T06:49:06Z</time>
   </trkpt>
   <trkpt lat="12.9274890" lon="99.6967770">
    <ele>80.8</ele>
    <time>2018-01-27T06:49:07Z</time>
   </trkpt>
   <trkpt lat="12.9275050" lon="99.6968210">
    <ele>80.8</ele>
    <time>2018-01-27T06:49:08Z</time>
   </trkpt>
   <trkpt lat="12.9275210" lon="99.6968540">
    <ele>80.8</ele>
    <time>2018-01-27T06:49:09Z</time>
   </trkpt>
   <trkpt lat="12.9275390" lon="99.6968960">
    <ele>80.8</ele>
    <time>2018-01-27T06:49:10Z</time>
   </trkpt>
   <trkpt lat="12.9275620" lon="99.6969400">
    <ele>80.8</ele>
    <time>2018-01-27T06:49:11Z</time>
   </trkpt>
   <trkpt lat="12.9275770" lon="99.6969840">
    <ele>80.9</ele>
    <time>2018-01-27T06:49:12Z</time>
   </trkpt>
   <trkpt lat="12.9275940" lon="99.6970330">
    <ele>80.9</ele>
    <time>2018-01-27T06:49:13Z</time>
   </trkpt>
   <trkpt lat="12.9276130" lon="99.6970790">
    <ele>80.8</ele>
    <time>2018-01-27T06:49:14Z</time>
   </trkpt>
   <trkpt lat="12.9276300" lon="99.6971230">
    <ele>80.7</ele>
    <time>2018-01-27T06:49:15Z</time>
   </trkpt>
   <trkpt lat="12.9276480" lon="99.6971760">
    <ele>80.5</ele>
    <time>2018-01-27T06:49:16Z</time>
   </trkpt>
   <trkpt lat="12.9276720" lon="99.6972340">
    <ele>80.0</ele>
    <time>2018-01-27T06:49:17Z</time>
   </trkpt>
   <trkpt lat="12.9276970" lon="99.6972820">
    <ele>79.7</ele>
    <time>2018-01-27T06:49:18Z</time>
   </trkpt>
   <trkpt lat="12.9277160" lon="99.6973320">
    <ele>79.8</ele>
    <time>2018-01-27T06:49:19Z</time>
   </trkpt>
   <trkpt lat="12.9277280" lon="99.6973780">
    <ele>79.8</ele>
    <time>2018-01-27T06:49:20Z</time>
   </trkpt>
   <trkpt lat="12.9277510" lon="99.6974260">
    <ele>79.5</ele>
    <time>2018-01-27T06:49:21Z</time>
   </trkpt>
   <trkpt lat="12.9277630" lon="99.6974780">
    <ele>79.2</ele>
    <time>2018-01-27T06:49:22Z</time>
   </trkpt>
   <trkpt lat="12.9277740" lon="99.6975240">
    <ele>78.9</ele>
    <time>2018-01-27T06:49:23Z</time>
   </trkpt>
   <trkpt lat="12.9277880" lon="99.6975710">
    <ele>78.3</ele>
    <time>2018-01-27T06:49:24Z</time>
   </trkpt>
   <trkpt lat="12.9278020" lon="99.6976170">
    <ele>78.2</ele>
    <time>2018-01-27T06:49:25Z</time>
   </trkpt>
   <trkpt lat="12.9278180" lon="99.6976660">
    <ele>77.9</ele>
    <time>2018-01-27T06:49:27Z</time>
   </trkpt>
   <trkpt lat="12.9278280" lon="99.6976970">
    <ele>77.9</ele>
    <time>2018-01-27T06:49:28Z</time>
   </trkpt>
   <trkpt lat="12.9278720" lon="99.6978630">
    <ele>77.6</ele>
    <time>2018-01-27T06:49:31Z</time>
   </trkpt>
   <trkpt lat="12.9278890" lon="99.6979110">
    <ele>77.7</ele>
    <time>2018-01-27T06:49:32Z</time>
   </trkpt>
   <trkpt lat="12.9279090" lon="99.6979590">
    <ele>77.9</ele>
    <time>2018-01-27T06:49:33Z</time>
   </trkpt>
   <trkpt lat="12.9279210" lon="99.6980050">
    <ele>78.3</ele>
    <time>2018-01-27T06:49:34Z</time>
   </trkpt>
   <trkpt lat="12.9279240" lon="99.6980510">
    <ele>78.8</ele>
    <time>2018-01-27T06:49:35Z</time>
   </trkpt>
   <trkpt lat="12.9279120" lon="99.6980940">
    <ele>79.4</ele>
    <time>2018-01-27T06:49:36Z</time>
   </trkpt>
   <trkpt lat="12.9278880" lon="99.6981260">
    <ele>80.0</ele>
    <time>2018-01-27T06:49:37Z</time>
   </trkpt>
   <trkpt lat="12.9278560" lon="99.6981510">
    <ele>80.7</ele>
    <time>2018-01-27T06:49:38Z</time>
   </trkpt>
   <trkpt lat="12.9278150" lon="99.6981720">
    <ele>80.9</ele>
    <time>2018-01-27T06:49:39Z</time>
   </trkpt>
   <trkpt lat="12.9277760" lon="99.6981860">
    <ele>81.3</ele>
    <time>2018-01-27T06:49:40Z</time>
   </trkpt>
   <trkpt lat="12.9277390" lon="99.6982000">
    <ele>81.5</ele>
    <time>2018-01-27T06:49:41Z</time>
   </trkpt>
   <trkpt lat="12.9277050" lon="99.6982110">
    <ele>81.6</ele>
    <time>2018-01-27T06:49:42Z</time>
   </trkpt>
   <trkpt lat="12.9275360" lon="99.6982590">
    <ele>80.9</ele>
    <time>2018-01-27T06:49:45Z</time>
   </trkpt>
   <trkpt lat="12.9274840" lon="99.6982800">
    <ele>80.6</ele>
    <time>2018-01-27T06:49:46Z</time>
   </trkpt>
   <trkpt lat="12.9274350" lon="99.6983000">
    <ele>80.1</ele>
    <time>2018-01-27T06:49:47Z</time>
   </trkpt>
   <trkpt lat="12.9273850" lon="99.6983260">
    <ele>79.9</ele>
    <time>2018-01-27T06:49:48Z</time>
   </trkpt>
   <trkpt lat="12.9273340" lon="99.6983500">
    <ele>79.6</ele>
    <time>2018-01-27T06:49:49Z</time>
   </trkpt>
   <trkpt lat="12.9272790" lon="99.6983770">
    <ele>79.1</ele>
    <time>2018-01-27T06:49:50Z</time>
   </trkpt>
   <trkpt lat="12.9272250" lon="99.6983950">
    <ele>78.3</ele>
    <time>2018-01-27T06:49:51Z</time>
   </trkpt>
   <trkpt lat="12.9271700" lon="99.6984210">
    <ele>77.7</ele>
    <time>2018-01-27T06:49:52Z</time>
   </trkpt>
   <trkpt lat="12.9271210" lon="99.6984520">
    <ele>77.6</ele>
    <time>2018-01-27T06:49:53Z</time>
   </trkpt>
   <trkpt lat="12.9270670" lon="99.6984620">
    <ele>77.6</ele>
    <time>2018-01-27T06:49:54Z</time>
   </trkpt>
   <trkpt lat="12.9270130" lon="99.6984750">
    <ele>77.9</ele>
    <time>2018-01-27T06:49:55Z</time>
   </trkpt>
   <trkpt lat="12.9269780" lon="99.6984770">
    <ele>78.1</ele>
    <time>2018-01-27T06:49:56Z</time>
   </trkpt>
   <trkpt lat="12.9269500" lon="99.6984890">
    <ele>78.3</ele>
    <time>2018-01-27T06:49:57Z</time>
   </trkpt>
   <trkpt lat="12.9269220" lon="99.6985060">
    <ele>78.6</ele>
    <time>2018-01-27T06:49:58Z</time>
   </trkpt>
   <trkpt lat="12.9268890" lon="99.6985190">
    <ele>78.9</ele>
    <time>2018-01-27T06:49:59Z</time>
   </trkpt>
   <trkpt lat="12.9268510" lon="99.6985210">
    <ele>79.3</ele>
    <time>2018-01-27T06:50:01Z</time>
   </trkpt>
   <trkpt lat="12.9268720" lon="99.6984940">
    <ele>78.9</ele>
    <time>2018-01-27T06:50:08Z</time>
   </trkpt>
   <trkpt lat="12.9269020" lon="99.6984790">
    <ele>78.4</ele>
    <time>2018-01-27T06:50:09Z</time>
   </trkpt>
   <trkpt lat="12.9269440" lon="99.6984610">
    <ele>78.1</ele>
    <time>2018-01-27T06:50:11Z</time>
   </trkpt>
   <trkpt lat="12.9269890" lon="99.6984430">
    <ele>77.9</ele>
    <time>2018-01-27T06:50:13Z</time>
   </trkpt>
   <trkpt lat="12.9270340" lon="99.6984280">
    <ele>77.7</ele>
    <time>2018-01-27T06:50:15Z</time>
   </trkpt>
   <trkpt lat="12.9270740" lon="99.6984110">
    <ele>77.6</ele>
    <time>2018-01-27T06:50:17Z</time>
   </trkpt>
   <trkpt lat="12.9271140" lon="99.6983980">
    <ele>77.6</ele>
    <time>2018-01-27T06:50:19Z</time>
   </trkpt>
   <trkpt lat="12.9271470" lon="99.6983770">
    <ele>77.9</ele>
    <time>2018-01-27T06:50:22Z</time>
   </trkpt>
   <trkpt lat="12.9271150" lon="99.6983910">
    <ele>77.7</ele>
    <time>2018-01-27T06:52:38Z</time>
   </trkpt>
   <trkpt lat="12.9270840" lon="99.6984220">
    <ele>77.6</ele>
    <time>2018-01-27T06:52:40Z</time>
   </trkpt>
   <trkpt lat="12.9270130" lon="99.6984330">
    <ele>77.8</ele>
    <time>2018-01-27T06:52:42Z</time>
   </trkpt>
   <trkpt lat="12.9269690" lon="99.6984440">
    <ele>78.1</ele>
    <time>2018-01-27T06:52:43Z</time>
   </trkpt>
   <trkpt lat="12.9269220" lon="99.6984650">
    <ele>78.4</ele>
    <time>2018-01-27T06:52:45Z</time>
   </trkpt>
   <trkpt lat="12.9268950" lon="99.6984770">
    <ele>78.7</ele>
    <time>2018-01-27T06:52:46Z</time>
   </trkpt>
   <trkpt lat="12.9268310" lon="99.6985330">
    <ele>79.5</ele>
    <time>2018-01-27T06:52:48Z</time>
   </trkpt>
   <trkpt lat="12.9267960" lon="99.6985440">
    <ele>79.9</ele>
    <time>2018-01-27T06:52:49Z</time>
   </trkpt>
   <trkpt lat="12.9267590" lon="99.6985570">
    <ele>80.3</ele>
    <time>2018-01-27T06:52:50Z</time>
   </trkpt>
   <trkpt lat="12.9267240" lon="99.6985680">
    <ele>80.7</ele>
    <time>2018-01-27T06:52:51Z</time>
   </trkpt>
   <trkpt lat="12.9266830" lon="99.6985840">
    <ele>81.0</ele>
    <time>2018-01-27T06:52:52Z</time>
   </trkpt>
   <trkpt lat="12.9266480" lon="99.6985920">
    <ele>81.0</ele>
    <time>2018-01-27T06:52:53Z</time>
   </trkpt>
   <trkpt lat="12.9266070" lon="99.6985940">
    <ele>81.3</ele>
    <time>2018-01-27T06:52:54Z</time>
   </trkpt>
   <trkpt lat="12.9265660" lon="99.6985990">
    <ele>81.5</ele>
    <time>2018-01-27T06:52:55Z</time>
   </trkpt>
   <trkpt lat="12.9265270" lon="99.6986040">
    <ele>81.7</ele>
    <time>2018-01-27T06:52:56Z</time>
   </trkpt>
   <trkpt lat="12.9264900" lon="99.6986100">
    <ele>81.8</ele>
    <time>2018-01-27T06:52:57Z</time>
   </trkpt>
   <trkpt lat="12.9264480" lon="99.6986190">
    <ele>82.0</ele>
    <time>2018-01-27T06:52:58Z</time>
   </trkpt>
   <trkpt lat="12.9264070" lon="99.6986280">
    <ele>82.0</ele>
    <time>2018-01-27T06:52:59Z</time>
   </trkpt>
   <trkpt lat="12.9263720" lon="99.6986370">
    <ele>81.9</ele>
    <time>2018-01-27T06:53:00Z</time>
   </trkpt>
   <trkpt lat="12.9263420" lon="99.6986480">
    <ele>81.7</ele>
    <time>2018-01-27T06:53:01Z</time>
   </trkpt>
   <trkpt lat="12.9263140" lon="99.6986580">
    <ele>81.7</ele>
    <time>2018-01-27T06:53:02Z</time>
   </trkpt>
   <trkpt lat="12.9262670" lon="99.6986820">
    <ele>81.1</ele>
    <time>2018-01-27T06:53:04Z</time>
   </trkpt>
   <trkpt lat="12.9262380" lon="99.6986910">
    <ele>81.1</ele>
    <time>2018-01-27T06:53:05Z</time>
   </trkpt>
   <trkpt lat="12.9262110" lon="99.6986990">
    <ele>80.8</ele>
    <time>2018-01-27T06:53:06Z</time>
   </trkpt>
   <trkpt lat="12.9261850" lon="99.6987060">
    <ele>80.8</ele>
    <time>2018-01-27T06:53:07Z</time>
   </trkpt>
   <trkpt lat="12.9261540" lon="99.6987110">
    <ele>80.7</ele>
    <time>2018-01-27T06:53:08Z</time>
   </trkpt>
   <trkpt lat="12.9261230" lon="99.6987180">
    <ele>80.7</ele>
    <time>2018-01-27T06:53:09Z</time>
   </trkpt>
   <trkpt lat="12.9260790" lon="99.6987330">
    <ele>80.9</ele>
    <time>2018-01-27T06:53:11Z</time>
   </trkpt>
   <trkpt lat="12.9260490" lon="99.6987450">
    <ele>80.9</ele>
    <time>2018-01-27T06:53:13Z</time>
   </trkpt>
   <trkpt lat="12.9260160" lon="99.6987620">
    <ele>81.0</ele>
    <time>2018-01-27T06:53:16Z</time>
   </trkpt>
   <trkpt lat="12.9260030" lon="99.6987880">
    <ele>81.1</ele>
    <time>2018-01-27T06:53:18Z</time>
   </trkpt>
   <trkpt lat="12.9259880" lon="99.6988200">
    <ele>81.1</ele>
    <time>2018-01-27T06:53:20Z</time>
   </trkpt>
   <trkpt lat="12.9259870" lon="99.6988550">
    <ele>81.1</ele>
    <time>2018-01-27T06:53:22Z</time>
   </trkpt>
   <trkpt lat="12.9260050" lon="99.6988780">
    <ele>81.1</ele>
    <time>2018-01-27T06:53:24Z</time>
   </trkpt>
   <trkpt lat="12.9260350" lon="99.6989150">
    <ele>81.0</ele>
    <time>2018-01-27T06:53:26Z</time>
   </trkpt>
   <trkpt lat="12.9260500" lon="99.6989380">
    <ele>81.0</ele>
    <time>2018-01-27T06:53:27Z</time>
   </trkpt>
   <trkpt lat="12.9260650" lon="99.6989630">
    <ele>80.9</ele>
    <time>2018-01-27T06:53:28Z</time>
   </trkpt>
   <trkpt lat="12.9260770" lon="99.6989930">
    <ele>81.0</ele>
    <time>2018-01-27T06:53:29Z</time>
   </trkpt>
   <trkpt lat="12.9260880" lon="99.6990250">
    <ele>81.0</ele>
    <time>2018-01-27T06:53:30Z</time>
   </trkpt>
   <trkpt lat="12.9260990" lon="99.6990580">
    <ele>81.2</ele>
    <time>2018-01-27T06:53:31Z</time>
   </trkpt>
   <trkpt lat="12.9261120" lon="99.6990900">
    <ele>81.5</ele>
    <time>2018-01-27T06:53:32Z</time>
   </trkpt>
   <trkpt lat="12.9261280" lon="99.6991220">
    <ele>81.9</ele>
    <time>2018-01-27T06:53:33Z</time>
   </trkpt>
   <trkpt lat="12.9261490" lon="99.6991520">
    <ele>82.1</ele>
    <time>2018-01-27T06:53:34Z</time>
   </trkpt>
   <trkpt lat="12.9261680" lon="99.6991810">
    <ele>82.3</ele>
    <time>2018-01-27T06:53:35Z</time>
   </trkpt>
   <trkpt lat="12.9261870" lon="99.6992110">
    <ele>82.5</ele>
    <time>2018-01-27T06:53:36Z</time>
   </trkpt>
   <trkpt lat="12.9262060" lon="99.6992440">
    <ele>82.6</ele>
    <time>2018-01-27T06:53:37Z</time>
   </trkpt>
   <trkpt lat="12.9262250" lon="99.6992830">
    <ele>82.6</ele>
    <time>2018-01-27T06:53:38Z</time>
   </trkpt>
   <trkpt lat="12.9262440" lon="99.6993230">
    <ele>82.7</ele>
    <time>2018-01-27T06:53:39Z</time>
   </trkpt>
   <trkpt lat="12.9262630" lon="99.6993640">
    <ele>82.8</ele>
    <time>2018-01-27T06:53:40Z</time>
   </trkpt>
   <trkpt lat="12.9262840" lon="99.6994040">
    <ele>82.9</ele>
    <time>2018-01-27T06:53:41Z</time>
   </trkpt>
   <trkpt lat="12.9263060" lon="99.6994400">
    <ele>83.0</ele>
    <time>2018-01-27T06:53:42Z</time>
   </trkpt>
   <trkpt lat="12.9263310" lon="99.6994780">
    <ele>82.9</ele>
    <time>2018-01-27T06:53:43Z</time>
   </trkpt>
   <trkpt lat="12.9263560" lon="99.6995190">
    <ele>82.7</ele>
    <time>2018-01-27T06:53:44Z</time>
   </trkpt>
   <trkpt lat="12.9263830" lon="99.6995600">
    <ele>82.4</ele>
    <time>2018-01-27T06:53:45Z</time>
   </trkpt>
   <trkpt lat="12.9264150" lon="99.6995970">
    <ele>82.0</ele>
    <time>2018-01-27T06:53:46Z</time>
   </trkpt>
   <trkpt lat="12.9264410" lon="99.6996420">
    <ele>81.6</ele>
    <time>2018-01-27T06:53:47Z</time>
   </trkpt>
   <trkpt lat="12.9264680" lon="99.6996810">
    <ele>81.4</ele>
    <time>2018-01-27T06:53:48Z</time>
   </trkpt>
   <trkpt lat="12.9264980" lon="99.6997230">
    <ele>81.1</ele>
    <time>2018-01-27T06:53:49Z</time>
   </trkpt>
   <trkpt lat="12.9265200" lon="99.6997660">
    <ele>80.9</ele>
    <time>2018-01-27T06:53:50Z</time>
   </trkpt>
   <trkpt lat="12.9265460" lon="99.6998150">
    <ele>80.5</ele>
    <time>2018-01-27T06:53:51Z</time>
   </trkpt>
   <trkpt lat="12.9265740" lon="99.6998570">
    <ele>80.2</ele>
    <time>2018-01-27T06:53:52Z</time>
   </trkpt>
   <trkpt lat="12.9265970" lon="99.6999050">
    <ele>79.7</ele>
    <time>2018-01-27T06:53:53Z</time>
   </trkpt>
   <trkpt lat="12.9266250" lon="99.6999610">
    <ele>79.2</ele>
    <time>2018-01-27T06:53:54Z</time>
   </trkpt>
   <trkpt lat="12.9266500" lon="99.7000050">
    <ele>78.9</ele>
    <time>2018-01-27T06:53:55Z</time>
   </trkpt>
   <trkpt lat="12.9266700" lon="99.7000500">
    <ele>78.6</ele>
    <time>2018-01-27T06:53:56Z</time>
   </trkpt>
   <trkpt lat="12.9266910" lon="99.7000910">
    <ele>78.2</ele>
    <time>2018-01-27T06:53:57Z</time>
   </trkpt>
   <trkpt lat="12.9267270" lon="99.7001350">
    <ele>77.9</ele>
    <time>2018-01-27T06:53:58Z</time>
   </trkpt>
   <trkpt lat="12.9267480" lon="99.7001890">
    <ele>77.9</ele>
    <time>2018-01-27T06:53:59Z</time>
   </trkpt>
   <trkpt lat="12.9267710" lon="99.7002250">
    <ele>78.0</ele>
    <time>2018-01-27T06:54:00Z</time>
   </trkpt>
   <trkpt lat="12.9268010" lon="99.7002760">
    <ele>78.0</ele>
    <time>2018-01-27T06:54:01Z</time>
   </trkpt>
   <trkpt lat="12.9268160" lon="99.7003190">
    <ele>78.0</ele>
    <time>2018-01-27T06:54:02Z</time>
   </trkpt>
   <trkpt lat="12.9268310" lon="99.7003690">
    <ele>78.0</ele>
    <time>2018-01-27T06:54:03Z</time>
   </trkpt>
   <trkpt lat="12.9268490" lon="99.7004150">
    <ele>78.0</ele>
    <time>2018-01-27T06:54:04Z</time>
   </trkpt>
   <trkpt lat="12.9268670" lon="99.7004590">
    <ele>77.9</ele>
    <time>2018-01-27T06:54:05Z</time>
   </trkpt>
   <trkpt lat="12.9268910" lon="99.7005030">
    <ele>77.9</ele>
    <time>2018-01-27T06:54:06Z</time>
   </trkpt>
   <trkpt lat="12.9269230" lon="99.7005440">
    <ele>77.9</ele>
    <time>2018-01-27T06:54:07Z</time>
   </trkpt>
   <trkpt lat="12.9269530" lon="99.7005910">
    <ele>78.0</ele>
    <time>2018-01-27T06:54:08Z</time>
   </trkpt>
   <trkpt lat="12.9269830" lon="99.7006380">
    <ele>78.0</ele>
    <time>2018-01-27T06:54:09Z</time>
   </trkpt>
   <trkpt lat="12.9270130" lon="99.7006770">
    <ele>78.0</ele>
    <time>2018-01-27T06:54:10Z</time>
   </trkpt>
   <trkpt lat="12.9270370" lon="99.7007170">
    <ele>78.0</ele>
    <time>2018-01-27T06:54:11Z</time>
   </trkpt>
   <trkpt lat="12.9270580" lon="99.7007690">
    <ele>77.8</ele>
    <time>2018-01-27T06:54:12Z</time>
   </trkpt>
   <trkpt lat="12.9270810" lon="99.7008090">
    <ele>77.7</ele>
    <time>2018-01-27T06:54:13Z</time>
   </trkpt>
   <trkpt lat="12.9271080" lon="99.7008610">
    <ele>77.3</ele>
    <time>2018-01-27T06:54:14Z</time>
   </trkpt>
   <trkpt lat="12.9271330" lon="99.7008990">
    <ele>76.9</ele>
    <time>2018-01-27T06:54:15Z</time>
   </trkpt>
   <trkpt lat="12.9271580" lon="99.7009440">
    <ele>76.3</ele>
    <time>2018-01-27T06:54:16Z</time>
   </trkpt>
   <trkpt lat="12.9271790" lon="99.7009860">
    <ele>76.0</ele>
    <time>2018-01-27T06:54:17Z</time>
   </trkpt>
   <trkpt lat="12.9272020" lon="99.7010310">
    <ele>76.0</ele>
    <time>2018-01-27T06:54:18Z</time>
   </trkpt>
   <trkpt lat="12.9272250" lon="99.7010810">
    <ele>76.1</ele>
    <time>2018-01-27T06:54:19Z</time>
   </trkpt>
   <trkpt lat="12.9272530" lon="99.7011260">
    <ele>76.3</ele>
    <time>2018-01-27T06:54:20Z</time>
   </trkpt>
   <trkpt lat="12.9272800" lon="99.7011670">
    <ele>76.5</ele>
    <time>2018-01-27T06:54:21Z</time>
   </trkpt>
   <trkpt lat="12.9273020" lon="99.7012090">
    <ele>76.7</ele>
    <time>2018-01-27T06:54:22Z</time>
   </trkpt>
   <trkpt lat="12.9273280" lon="99.7012510">
    <ele>76.9</ele>
    <time>2018-01-27T06:54:23Z</time>
   </trkpt>
   <trkpt lat="12.9273510" lon="99.7012960">
    <ele>77.1</ele>
    <time>2018-01-27T06:54:24Z</time>
   </trkpt>
   <trkpt lat="12.9273770" lon="99.7013420">
    <ele>77.3</ele>
    <time>2018-01-27T06:54:25Z</time>
   </trkpt>
   <trkpt lat="12.9274080" lon="99.7013920">
    <ele>77.6</ele>
    <time>2018-01-27T06:54:26Z</time>
   </trkpt>
   <trkpt lat="12.9274320" lon="99.7014430">
    <ele>78.1</ele>
    <time>2018-01-27T06:54:27Z</time>
   </trkpt>
   <trkpt lat="12.9274600" lon="99.7014890">
    <ele>78.5</ele>
    <time>2018-01-27T06:54:28Z</time>
   </trkpt>
   <trkpt lat="12.9274820" lon="99.7015350">
    <ele>78.8</ele>
    <time>2018-01-27T06:54:29Z</time>
   </trkpt>
   <trkpt lat="12.9275090" lon="99.7015920">
    <ele>79.0</ele>
    <time>2018-01-27T06:54:30Z</time>
   </trkpt>
   <trkpt lat="12.9275330" lon="99.7016460">
    <ele>79.1</ele>
    <time>2018-01-27T06:54:31Z</time>
   </trkpt>
   <trkpt lat="12.9275560" lon="99.7016900">
    <ele>79.1</ele>
    <time>2018-01-27T06:54:32Z</time>
   </trkpt>
   <trkpt lat="12.9275860" lon="99.7017340">
    <ele>79.1</ele>
    <time>2018-01-27T06:54:33Z</time>
   </trkpt>
   <trkpt lat="12.9276030" lon="99.7017840">
    <ele>79.1</ele>
    <time>2018-01-27T06:54:34Z</time>
   </trkpt>
   <trkpt lat="12.9276300" lon="99.7018400">
    <ele>79.1</ele>
    <time>2018-01-27T06:54:35Z</time>
   </trkpt>
   <trkpt lat="12.9276510" lon="99.7018990">
    <ele>79.1</ele>
    <time>2018-01-27T06:54:36Z</time>
   </trkpt>
   <trkpt lat="12.9276760" lon="99.7019580">
    <ele>78.8</ele>
    <time>2018-01-27T06:54:37Z</time>
   </trkpt>
   <trkpt lat="12.9277010" lon="99.7020120">
    <ele>78.4</ele>
    <time>2018-01-27T06:54:38Z</time>
   </trkpt>
   <trkpt lat="12.9277240" lon="99.7020670">
    <ele>78.0</ele>
    <time>2018-01-27T06:54:39Z</time>
   </trkpt>
   <trkpt lat="12.9277500" lon="99.7021050">
    <ele>77.7</ele>
    <time>2018-01-27T06:54:40Z</time>
   </trkpt>
   <trkpt lat="12.9277710" lon="99.7021640">
    <ele>77.3</ele>
    <time>2018-01-27T06:54:41Z</time>
   </trkpt>
   <trkpt lat="12.9277990" lon="99.7022150">
    <ele>77.1</ele>
    <time>2018-01-27T06:54:42Z</time>
   </trkpt>
   <trkpt lat="12.9278340" lon="99.7022720">
    <ele>77.0</ele>
    <time>2018-01-27T06:54:43Z</time>
   </trkpt>
   <trkpt lat="12.9278720" lon="99.7023170">
    <ele>76.9</ele>
    <time>2018-01-27T06:54:44Z</time>
   </trkpt>
   <trkpt lat="12.9279080" lon="99.7023710">
    <ele>77.0</ele>
    <time>2018-01-27T06:54:45Z</time>
   </trkpt>
   <trkpt lat="12.9279390" lon="99.7024310">
    <ele>77.2</ele>
    <time>2018-01-27T06:54:46Z</time>
   </trkpt>
   <trkpt lat="12.9279630" lon="99.7024950">
    <ele>77.3</ele>
    <time>2018-01-27T06:54:47Z</time>
   </trkpt>
   <trkpt lat="12.9279980" lon="99.7025580">
    <ele>77.1</ele>
    <time>2018-01-27T06:54:48Z</time>
   </trkpt>
   <trkpt lat="12.9280410" lon="99.7026170">
    <ele>76.9</ele>
    <time>2018-01-27T06:54:49Z</time>
   </trkpt>
   <trkpt lat="12.9280870" lon="99.7026820">
    <ele>76.6</ele>
    <time>2018-01-27T06:54:50Z</time>
   </trkpt>
   <trkpt lat="12.9281180" lon="99.7027540">
    <ele>76.2</ele>
    <time>2018-01-27T06:54:51Z</time>
   </trkpt>
   <trkpt lat="12.9281550" lon="99.7028230">
    <ele>75.6</ele>
    <time>2018-01-27T06:54:52Z</time>
   </trkpt>
   <trkpt lat="12.9282060" lon="99.7028860">
    <ele>74.6</ele>
    <time>2018-01-27T06:54:53Z</time>
   </trkpt>
   <trkpt lat="12.9282450" lon="99.7029570">
    <ele>73.6</ele>
    <time>2018-01-27T06:54:54Z</time>
   </trkpt>
   <trkpt lat="12.9282810" lon="99.7030210">
    <ele>72.9</ele>
    <time>2018-01-27T06:54:55Z</time>
   </trkpt>
   <trkpt lat="12.9283250" lon="99.7030900">
    <ele>72.1</ele>
    <time>2018-01-27T06:54:56Z</time>
   </trkpt>
   <trkpt lat="12.9283650" lon="99.7031450">
    <ele>71.4</ele>
    <time>2018-01-27T06:54:57Z</time>
   </trkpt>
   <trkpt lat="12.9284030" lon="99.7032030">
    <ele>71.2</ele>
    <time>2018-01-27T06:54:58Z</time>
   </trkpt>
   <trkpt lat="12.9284470" lon="99.7032680">
    <ele>71.1</ele>
    <time>2018-01-27T06:54:59Z</time>
   </trkpt>
   <trkpt lat="12.9284860" lon="99.7033220">
    <ele>71.0</ele>
    <time>2018-01-27T06:55:00Z</time>
   </trkpt>
   <trkpt lat="12.9285230" lon="99.7033750">
    <ele>70.9</ele>
    <time>2018-01-27T06:55:01Z</time>
   </trkpt>
   <trkpt lat="12.9285600" lon="99.7034390">
    <ele>71.0</ele>
    <time>2018-01-27T06:55:02Z</time>
   </trkpt>
   <trkpt lat="12.9285940" lon="99.7035020">
    <ele>71.1</ele>
    <time>2018-01-27T06:55:03Z</time>
   </trkpt>
   <trkpt lat="12.9286330" lon="99.7035570">
    <ele>71.2</ele>
    <time>2018-01-27T06:55:04Z</time>
   </trkpt>
   <trkpt lat="12.9286680" lon="99.7036130">
    <ele>71.5</ele>
    <time>2018-01-27T06:55:05Z</time>
   </trkpt>
   <trkpt lat="12.9287010" lon="99.7036750">
    <ele>71.9</ele>
    <time>2018-01-27T06:55:06Z</time>
   </trkpt>
   <trkpt lat="12.9287340" lon="99.7037360">
    <ele>72.2</ele>
    <time>2018-01-27T06:55:07Z</time>
   </trkpt>
   <trkpt lat="12.9287720" lon="99.7037910">
    <ele>72.4</ele>
    <time>2018-01-27T06:55:08Z</time>
   </trkpt>
   <trkpt lat="12.9288000" lon="99.7038500">
    <ele>72.7</ele>
    <time>2018-01-27T06:55:09Z</time>
   </trkpt>
   <trkpt lat="12.9288180" lon="99.7038970">
    <ele>73.0</ele>
    <time>2018-01-27T06:55:10Z</time>
   </trkpt>
   <trkpt lat="12.9288470" lon="99.7039430">
    <ele>73.2</ele>
    <time>2018-01-27T06:55:11Z</time>
   </trkpt>
   <trkpt lat="12.9288810" lon="99.7039910">
    <ele>73.5</ele>
    <time>2018-01-27T06:55:12Z</time>
   </trkpt>
   <trkpt lat="12.9289040" lon="99.7040430">
    <ele>73.8</ele>
    <time>2018-01-27T06:55:13Z</time>
   </trkpt>
   <trkpt lat="12.9289380" lon="99.7040780">
    <ele>74.1</ele>
    <time>2018-01-27T06:55:14Z</time>
   </trkpt>
   <trkpt lat="12.9289540" lon="99.7041170">
    <ele>74.3</ele>
    <time>2018-01-27T06:55:15Z</time>
   </trkpt>
   <trkpt lat="12.9289780" lon="99.7041660">
    <ele>74.6</ele>
    <time>2018-01-27T06:55:16Z</time>
   </trkpt>
   <trkpt lat="12.9289910" lon="99.7041990">
    <ele>74.8</ele>
    <time>2018-01-27T06:55:17Z</time>
   </trkpt>
   <trkpt lat="12.9290180" lon="99.7042370">
    <ele>75.0</ele>
    <time>2018-01-27T06:55:18Z</time>
   </trkpt>
   <trkpt lat="12.9290320" lon="99.7042640">
    <ele>75.0</ele>
    <time>2018-01-27T06:55:19Z</time>
   </trkpt>
   <trkpt lat="12.9290510" lon="99.7042980">
    <ele>75.0</ele>
    <time>2018-01-27T06:55:20Z</time>
   </trkpt>
   <trkpt lat="12.9290660" lon="99.7043280">
    <ele>75.0</ele>
    <time>2018-01-27T06:55:21Z</time>
   </trkpt>
   <trkpt lat="12.9290830" lon="99.7043640">
    <ele>75.0</ele>
    <time>2018-01-27T06:55:22Z</time>
   </trkpt>
   <trkpt lat="12.9290990" lon="99.7044010">
    <ele>75.0</ele>
    <time>2018-01-27T06:55:23Z</time>
   </trkpt>
   <trkpt lat="12.9291110" lon="99.7044300">
    <ele>74.9</ele>
    <time>2018-01-27T06:55:24Z</time>
   </trkpt>
   <trkpt lat="12.9291250" lon="99.7044620">
    <ele>74.8</ele>
    <time>2018-01-27T06:55:25Z</time>
   </trkpt>
   <trkpt lat="12.9291690" lon="99.7045140">
    <ele>74.8</ele>
    <time>2018-01-27T06:55:27Z</time>
   </trkpt>
   <trkpt lat="12.9292070" lon="99.7045210">
    <ele>74.8</ele>
    <time>2018-01-27T06:55:28Z</time>
   </trkpt>
   <trkpt lat="12.9292420" lon="99.7045130">
    <ele>74.9</ele>
    <time>2018-01-27T06:55:29Z</time>
   </trkpt>
   <trkpt lat="12.9292720" lon="99.7044920">
    <ele>74.9</ele>
    <time>2018-01-27T06:55:30Z</time>
   </trkpt>
   <trkpt lat="12.9292970" lon="99.7044730">
    <ele>74.9</ele>
    <time>2018-01-27T06:55:31Z</time>
   </trkpt>
   <trkpt lat="12.9293190" lon="99.7044480">
    <ele>74.8</ele>
    <time>2018-01-27T06:55:32Z</time>
   </trkpt>
   <trkpt lat="12.9293470" lon="99.7044240">
    <ele>74.7</ele>
    <time>2018-01-27T06:55:33Z</time>
   </trkpt>
   <trkpt lat="12.9293700" lon="99.7043920">
    <ele>74.6</ele>
    <time>2018-01-27T06:55:34Z</time>
   </trkpt>
   <trkpt lat="12.9293970" lon="99.7043660">
    <ele>74.4</ele>
    <time>2018-01-27T06:55:35Z</time>
   </trkpt>
   <trkpt lat="12.9294250" lon="99.7043390">
    <ele>74.2</ele>
    <time>2018-01-27T06:55:36Z</time>
   </trkpt>
   <trkpt lat="12.9294510" lon="99.7043130">
    <ele>74.0</ele>
    <time>2018-01-27T06:55:37Z</time>
   </trkpt>
   <trkpt lat="12.9294800" lon="99.7042840">
    <ele>73.8</ele>
    <time>2018-01-27T06:55:38Z</time>
   </trkpt>
   <trkpt lat="12.9295060" lon="99.7042590">
    <ele>73.5</ele>
    <time>2018-01-27T06:55:39Z</time>
   </trkpt>
   <trkpt lat="12.9295410" lon="99.7042290">
    <ele>73.0</ele>
    <time>2018-01-27T06:55:40Z</time>
   </trkpt>
   <trkpt lat="12.9295710" lon="99.7042160">
    <ele>72.7</ele>
    <time>2018-01-27T06:55:41Z</time>
   </trkpt>
   <trkpt lat="12.9295970" lon="99.7041910">
    <ele>72.4</ele>
    <time>2018-01-27T06:55:42Z</time>
   </trkpt>
   <trkpt lat="12.9296200" lon="99.7041650">
    <ele>72.4</ele>
    <time>2018-01-27T06:55:43Z</time>
   </trkpt>
   <trkpt lat="12.9296420" lon="99.7041400">
    <ele>72.5</ele>
    <time>2018-01-27T06:55:44Z</time>
   </trkpt>
   <trkpt lat="12.9296780" lon="99.7041150">
    <ele>72.3</ele>
    <time>2018-01-27T06:55:45Z</time>
   </trkpt>
   <trkpt lat="12.9297070" lon="99.7040690">
    <ele>72.8</ele>
    <time>2018-01-27T06:55:46Z</time>
   </trkpt>
   <trkpt lat="12.9297380" lon="99.7040460">
    <ele>73.3</ele>
    <time>2018-01-27T06:55:47Z</time>
   </trkpt>
   <trkpt lat="12.9297730" lon="99.7040400">
    <ele>73.7</ele>
    <time>2018-01-27T06:55:48Z</time>
   </trkpt>
   <trkpt lat="12.9298100" lon="99.7040330">
    <ele>74.2</ele>
    <time>2018-01-27T06:55:49Z</time>
   </trkpt>
   <trkpt lat="12.9298460" lon="99.7040360">
    <ele>74.6</ele>
    <time>2018-01-27T06:55:50Z</time>
   </trkpt>
   <trkpt lat="12.9298850" lon="99.7040330">
    <ele>75.1</ele>
    <time>2018-01-27T06:55:51Z</time>
   </trkpt>
   <trkpt lat="12.9299240" lon="99.7040360">
    <ele>75.5</ele>
    <time>2018-01-27T06:55:52Z</time>
   </trkpt>
   <trkpt lat="12.9299580" lon="99.7040520">
    <ele>75.9</ele>
    <time>2018-01-27T06:55:53Z</time>
   </trkpt>
   <trkpt lat="12.9299900" lon="99.7040720">
    <ele>75.9</ele>
    <time>2018-01-27T06:55:54Z</time>
   </trkpt>
   <trkpt lat="12.9300290" lon="99.7041060">
    <ele>76.1</ele>
    <time>2018-01-27T06:55:57Z</time>
   </trkpt>
   <trkpt lat="12.9300620" lon="99.7041300">
    <ele>76.6</ele>
    <time>2018-01-27T06:55:58Z</time>
   </trkpt>
   <trkpt lat="12.9300880" lon="99.7041480">
    <ele>76.6</ele>
    <time>2018-01-27T06:55:59Z</time>
   </trkpt>
   <trkpt lat="12.9301130" lon="99.7041650">
    <ele>76.7</ele>
    <time>2018-01-27T06:56:00Z</time>
   </trkpt>
   <trkpt lat="12.9301380" lon="99.7041830">
    <ele>77.2</ele>
    <time>2018-01-27T06:56:01Z</time>
   </trkpt>
   <trkpt lat="12.9301820" lon="99.7042130">
    <ele>77.2</ele>
    <time>2018-01-27T06:56:03Z</time>
   </trkpt>
   <trkpt lat="12.9302080" lon="99.7042300">
    <ele>77.7</ele>
    <time>2018-01-27T06:56:04Z</time>
   </trkpt>
   <trkpt lat="12.9302340" lon="99.7042490">
    <ele>77.3</ele>
    <time>2018-01-27T06:56:05Z</time>
   </trkpt>
   <trkpt lat="12.9302600" lon="99.7042680">
    <ele>77.8</ele>
    <time>2018-01-27T06:56:06Z</time>
   </trkpt>
   <trkpt lat="12.9302820" lon="99.7042850">
    <ele>77.3</ele>
    <time>2018-01-27T06:56:07Z</time>
   </trkpt>
   <trkpt lat="12.9303260" lon="99.7043170">
    <ele>78.4</ele>
    <time>2018-01-27T06:56:09Z</time>
   </trkpt>
   <trkpt lat="12.9303520" lon="99.7043350">
    <ele>77.9</ele>
    <time>2018-01-27T06:56:10Z</time>
   </trkpt>
   <trkpt lat="12.9303790" lon="99.7043530">
    <ele>77.9</ele>
    <time>2018-01-27T06:56:11Z</time>
   </trkpt>
   <trkpt lat="12.9304200" lon="99.7043770">
    <ele>77.4</ele>
    <time>2018-01-27T06:56:13Z</time>
   </trkpt>
   <trkpt lat="12.9304510" lon="99.7043920">
    <ele>77.4</ele>
    <time>2018-01-27T06:56:15Z</time>
   </trkpt>
   <trkpt lat="12.9304790" lon="99.7044080">
    <ele>77.0</ele>
    <time>2018-01-27T06:56:28Z</time>
   </trkpt>
   <trkpt lat="12.9305080" lon="99.7044260">
    <ele>77.1</ele>
    <time>2018-01-27T06:56:31Z</time>
   </trkpt>
   <trkpt lat="12.9305360" lon="99.7044560">
    <ele>76.7</ele>
    <time>2018-01-27T06:56:34Z</time>
   </trkpt>
   <trkpt lat="12.9305250" lon="99.7045010">
    <ele>76.6</ele>
    <time>2018-01-27T06:56:36Z</time>
   </trkpt>
   <trkpt lat="12.9305090" lon="99.7045250">
    <ele>76.6</ele>
    <time>2018-01-27T06:56:37Z</time>
   </trkpt>
   <trkpt lat="12.9304930" lon="99.7045470">
    <ele>76.4</ele>
    <time>2018-01-27T06:56:38Z</time>
   </trkpt>
   <trkpt lat="12.9304610" lon="99.7045920">
    <ele>75.9</ele>
    <time>2018-01-27T06:56:40Z</time>
   </trkpt>
   <trkpt lat="12.9304430" lon="99.7046190">
    <ele>75.5</ele>
    <time>2018-01-27T06:56:41Z</time>
   </trkpt>
   <trkpt lat="12.9304240" lon="99.7046460">
    <ele>75.5</ele>
    <time>2018-01-27T06:56:42Z</time>
   </trkpt>
   <trkpt lat="12.9304030" lon="99.7046760">
    <ele>75.0</ele>
    <time>2018-01-27T06:56:43Z</time>
   </trkpt>
   <trkpt lat="12.9303670" lon="99.7047200">
    <ele>74.4</ele>
    <time>2018-01-27T06:56:45Z</time>
   </trkpt>
   <trkpt lat="12.9303470" lon="99.7047480">
    <ele>74.2</ele>
    <time>2018-01-27T06:56:46Z</time>
   </trkpt>
   <trkpt lat="12.9303240" lon="99.7047770">
    <ele>73.7</ele>
    <time>2018-01-27T06:56:47Z</time>
   </trkpt>
   <trkpt lat="12.9302980" lon="99.7048130">
    <ele>73.7</ele>
    <time>2018-01-27T06:56:48Z</time>
   </trkpt>
   <trkpt lat="12.9302690" lon="99.7048620">
    <ele>73.4</ele>
    <time>2018-01-27T06:56:49Z</time>
   </trkpt>
   <trkpt lat="12.9302380" lon="99.7048970">
    <ele>73.2</ele>
    <time>2018-01-27T06:56:50Z</time>
   </trkpt>
   <trkpt lat="12.9302060" lon="99.7049460">
    <ele>73.5</ele>
    <time>2018-01-27T06:56:51Z</time>
   </trkpt>
   <trkpt lat="12.9301790" lon="99.7049960">
    <ele>73.8</ele>
    <time>2018-01-27T06:56:52Z</time>
   </trkpt>
   <trkpt lat="12.9301730" lon="99.7050250">
    <ele>73.9</ele>
    <time>2018-01-27T06:56:53Z</time>
   </trkpt>
   <trkpt lat="12.9301410" lon="99.7050600">
    <ele>74.2</ele>
    <time>2018-01-27T06:56:55Z</time>
   </trkpt>
   <trkpt lat="12.9301130" lon="99.7051160">
    <ele>74.5</ele>
    <time>2018-01-27T06:56:57Z</time>
   </trkpt>
   <trkpt lat="12.9300870" lon="99.7051630">
    <ele>74.7</ele>
    <time>2018-01-27T06:56:59Z</time>
   </trkpt>
   <trkpt lat="12.9300650" lon="99.7052030">
    <ele>74.9</ele>
    <time>2018-01-27T06:57:01Z</time>
   </trkpt>
   <trkpt lat="12.9300480" lon="99.7052270">
    <ele>75.1</ele>
    <time>2018-01-27T06:57:02Z</time>
   </trkpt>
   <trkpt lat="12.9300310" lon="99.7052540">
    <ele>75.2</ele>
    <time>2018-01-27T06:57:03Z</time>
   </trkpt>
   <trkpt lat="12.9300100" lon="99.7052840">
    <ele>75.3</ele>
    <time>2018-01-27T06:57:04Z</time>
   </trkpt>
   <trkpt lat="12.9299860" lon="99.7053150">
    <ele>75.5</ele>
    <time>2018-01-27T06:57:05Z</time>
   </trkpt>
   <trkpt lat="12.9299680" lon="99.7053510">
    <ele>75.8</ele>
    <time>2018-01-27T06:57:06Z</time>
   </trkpt>
   <trkpt lat="12.9299480" lon="99.7053950">
    <ele>76.0</ele>
    <time>2018-01-27T06:57:07Z</time>
   </trkpt>
   <trkpt lat="12.9299330" lon="99.7054220">
    <ele>76.1</ele>
    <time>2018-01-27T06:57:08Z</time>
   </trkpt>
   <trkpt lat="12.9299070" lon="99.7054460">
    <ele>76.1</ele>
    <time>2018-01-27T06:57:09Z</time>
   </trkpt>
   <trkpt lat="12.9298890" lon="99.7054730">
    <ele>76.3</ele>
    <time>2018-01-27T06:57:10Z</time>
   </trkpt>
   <trkpt lat="12.9298690" lon="99.7055010">
    <ele>76.5</ele>
    <time>2018-01-27T06:57:11Z</time>
   </trkpt>
   <trkpt lat="12.9298650" lon="99.7055320">
    <ele>76.6</ele>
    <time>2018-01-27T06:57:12Z</time>
   </trkpt>
   <trkpt lat="12.9298690" lon="99.7055770">
    <ele>76.7</ele>
    <time>2018-01-27T06:57:14Z</time>
   </trkpt>
   <trkpt lat="12.9298840" lon="99.7056090">
    <ele>76.7</ele>
    <time>2018-01-27T06:57:15Z</time>
   </trkpt>
   <trkpt lat="12.9299030" lon="99.7056360">
    <ele>76.6</ele>
    <time>2018-01-27T06:57:16Z</time>
   </trkpt>
   <trkpt lat="12.9299270" lon="99.7056660">
    <ele>76.4</ele>
    <time>2018-01-27T06:57:17Z</time>
   </trkpt>
   <trkpt lat="12.9299510" lon="99.7056990">
    <ele>76.2</ele>
    <time>2018-01-27T06:57:18Z</time>
   </trkpt>
   <trkpt lat="12.9299730" lon="99.7057330">
    <ele>76.1</ele>
    <time>2018-01-27T06:57:19Z</time>
   </trkpt>
   <trkpt lat="12.9299890" lon="99.7057640">
    <ele>76.1</ele>
    <time>2018-01-27T06:57:20Z</time>
   </trkpt>
   <trkpt lat="12.9300010" lon="99.7057910">
    <ele>76.0</ele>
    <time>2018-01-27T06:57:21Z</time>
   </trkpt>
   <trkpt lat="12.9300100" lon="99.7058190">
    <ele>75.9</ele>
    <time>2018-01-27T06:57:22Z</time>
   </trkpt>
   <trkpt lat="12.9300180" lon="99.7058500">
    <ele>75.7</ele>
    <time>2018-01-27T06:57:23Z</time>
   </trkpt>
   <trkpt lat="12.9300300" lon="99.7058780">
    <ele>75.5</ele>
    <time>2018-01-27T06:57:24Z</time>
   </trkpt>
   <trkpt lat="12.9300410" lon="99.7059320">
    <ele>75.1</ele>
    <time>2018-01-27T06:57:26Z</time>
   </trkpt>
   <trkpt lat="12.9300700" lon="99.7059860">
    <ele>74.9</ele>
    <time>2018-01-27T06:57:28Z</time>
   </trkpt>
   <trkpt lat="12.9300800" lon="99.7060330">
    <ele>74.8</ele>
    <time>2018-01-27T06:57:29Z</time>
   </trkpt>
   <trkpt lat="12.9301030" lon="99.7060770">
    <ele>74.8</ele>
    <time>2018-01-27T06:57:30Z</time>
   </trkpt>
   <trkpt lat="12.9301260" lon="99.7061440">
    <ele>75.0</ele>
    <time>2018-01-27T06:57:31Z</time>
   </trkpt>
   <trkpt lat="12.9301440" lon="99.7062030">
    <ele>75.3</ele>
    <time>2018-01-27T06:57:32Z</time>
   </trkpt>
   <trkpt lat="12.9301680" lon="99.7062560">
    <ele>75.6</ele>
    <time>2018-01-27T06:57:33Z</time>
   </trkpt>
   <trkpt lat="12.9302050" lon="99.7062980">
    <ele>75.9</ele>
    <time>2018-01-27T06:57:34Z</time>
   </trkpt>
   <trkpt lat="12.9302300" lon="99.7063430">
    <ele>76.2</ele>
    <time>2018-01-27T06:57:35Z</time>
   </trkpt>
   <trkpt lat="12.9302480" lon="99.7063850">
    <ele>76.5</ele>
    <time>2018-01-27T06:57:36Z</time>
   </trkpt>
   <trkpt lat="12.9302680" lon="99.7064180">
    <ele>76.8</ele>
    <time>2018-01-27T06:57:37Z</time>
   </trkpt>
   <trkpt lat="12.9302820" lon="99.7064530">
    <ele>77.1</ele>
    <time>2018-01-27T06:57:38Z</time>
   </trkpt>
   <trkpt lat="12.9303110" lon="99.7064960">
    <ele>77.5</ele>
    <time>2018-01-27T06:57:39Z</time>
   </trkpt>
   <trkpt lat="12.9303230" lon="99.7065410">
    <ele>77.7</ele>
    <time>2018-01-27T06:57:40Z</time>
   </trkpt>
   <trkpt lat="12.9303390" lon="99.7065770">
    <ele>77.9</ele>
    <time>2018-01-27T06:57:41Z</time>
   </trkpt>
   <trkpt lat="12.9303590" lon="99.7066240">
    <ele>78.0</ele>
    <time>2018-01-27T06:57:42Z</time>
   </trkpt>
   <trkpt lat="12.9303810" lon="99.7066700">
    <ele>78.2</ele>
    <time>2018-01-27T06:57:43Z</time>
   </trkpt>
   <trkpt lat="12.9304050" lon="99.7067160">
    <ele>78.6</ele>
    <time>2018-01-27T06:57:44Z</time>
   </trkpt>
   <trkpt lat="12.9304160" lon="99.7067730">
    <ele>79.1</ele>
    <time>2018-01-27T06:57:45Z</time>
   </trkpt>
   <trkpt lat="12.9304320" lon="99.7068160">
    <ele>79.6</ele>
    <time>2018-01-27T06:57:46Z</time>
   </trkpt>
   <trkpt lat="12.9304400" lon="99.7068690">
    <ele>80.0</ele>
    <time>2018-01-27T06:57:47Z</time>
   </trkpt>
   <trkpt lat="12.9304550" lon="99.7069240">
    <ele>80.3</ele>
    <time>2018-01-27T06:57:48Z</time>
   </trkpt>
   <trkpt lat="12.9304640" lon="99.7069770">
    <ele>80.4</ele>
    <time>2018-01-27T06:57:49Z</time>
   </trkpt>
   <trkpt lat="12.9304770" lon="99.7070370">
    <ele>80.5</ele>
    <time>2018-01-27T06:57:50Z</time>
   </trkpt>
   <trkpt lat="12.9304780" lon="99.7070840">
    <ele>80.7</ele>
    <time>2018-01-27T06:57:51Z</time>
   </trkpt>
   <trkpt lat="12.9304910" lon="99.7071370">
    <ele>80.9</ele>
    <time>2018-01-27T06:57:52Z</time>
   </trkpt>
   <trkpt lat="12.9305030" lon="99.7071870">
    <ele>80.9</ele>
    <time>2018-01-27T06:57:53Z</time>
   </trkpt>
   <trkpt lat="12.9305080" lon="99.7072430">
    <ele>80.9</ele>
    <time>2018-01-27T06:57:54Z</time>
   </trkpt>
   <trkpt lat="12.9305050" lon="99.7072930">
    <ele>80.9</ele>
    <time>2018-01-27T06:57:55Z</time>
   </trkpt>
   <trkpt lat="12.9305010" lon="99.7073520">
    <ele>80.9</ele>
    <time>2018-01-27T06:57:56Z</time>
   </trkpt>
   <trkpt lat="12.9305050" lon="99.7074120">
    <ele>81.0</ele>
    <time>2018-01-27T06:57:57Z</time>
   </trkpt>
   <trkpt lat="12.9305130" lon="99.7074670">
    <ele>81.4</ele>
    <time>2018-01-27T06:57:58Z</time>
   </trkpt>
   <trkpt lat="12.9305280" lon="99.7075270">
    <ele>81.6</ele>
    <time>2018-01-27T06:57:59Z</time>
   </trkpt>
   <trkpt lat="12.9305370" lon="99.7075890">
    <ele>81.5</ele>
    <time>2018-01-27T06:58:00Z</time>
   </trkpt>
   <trkpt lat="12.9305530" lon="99.7076530">
    <ele>81.3</ele>
    <time>2018-01-27T06:58:01Z</time>
   </trkpt>
   <trkpt lat="12.9305530" lon="99.7077150">
    <ele>81.0</ele>
    <time>2018-01-27T06:58:02Z</time>
   </trkpt>
   <trkpt lat="12.9305550" lon="99.7077840">
    <ele>80.8</ele>
    <time>2018-01-27T06:58:03Z</time>
   </trkpt>
   <trkpt lat="12.9305630" lon="99.7078550">
    <ele>81.3</ele>
    <time>2018-01-27T06:58:04Z</time>
   </trkpt>
   <trkpt lat="12.9305710" lon="99.7079160">
    <ele>81.3</ele>
    <time>2018-01-27T06:58:05Z</time>
   </trkpt>
   <trkpt lat="12.9305840" lon="99.7079860">
    <ele>81.3</ele>
    <time>2018-01-27T06:58:06Z</time>
   </trkpt>
   <trkpt lat="12.9306000" lon="99.7080590">
    <ele>81.4</ele>
    <time>2018-01-27T06:58:07Z</time>
   </trkpt>
   <trkpt lat="12.9306070" lon="99.7081510">
    <ele>81.7</ele>
    <time>2018-01-27T06:58:08Z</time>
   </trkpt>
   <trkpt lat="12.9306130" lon="99.7082340">
    <ele>81.0</ele>
    <time>2018-01-27T06:58:09Z</time>
   </trkpt>
   <trkpt lat="12.9306260" lon="99.7083090">
    <ele>79.8</ele>
    <time>2018-01-27T06:58:10Z</time>
   </trkpt>
   <trkpt lat="12.9306510" lon="99.7083780">
    <ele>78.8</ele>
    <time>2018-01-27T06:58:11Z</time>
   </trkpt>
   <trkpt lat="12.9306640" lon="99.7084540">
    <ele>77.8</ele>
    <time>2018-01-27T06:58:12Z</time>
   </trkpt>
   <trkpt lat="12.9306860" lon="99.7085270">
    <ele>77.1</ele>
    <time>2018-01-27T06:58:13Z</time>
   </trkpt>
   <trkpt lat="12.9306950" lon="99.7086010">
    <ele>77.1</ele>
    <time>2018-01-27T06:58:14Z</time>
   </trkpt>
   <trkpt lat="12.9306960" lon="99.7086690">
    <ele>77.1</ele>
    <time>2018-01-27T06:58:15Z</time>
   </trkpt>
   <trkpt lat="12.9306900" lon="99.7087290">
    <ele>76.9</ele>
    <time>2018-01-27T06:58:16Z</time>
   </trkpt>
   <trkpt lat="12.9306740" lon="99.7087810">
    <ele>76.7</ele>
    <time>2018-01-27T06:58:17Z</time>
   </trkpt>
   <trkpt lat="12.9306650" lon="99.7088500">
    <ele>76.7</ele>
    <time>2018-01-27T06:58:18Z</time>
   </trkpt>
   <trkpt lat="12.9306580" lon="99.7089170">
    <ele>76.4</ele>
    <time>2018-01-27T06:58:19Z</time>
   </trkpt>
   <trkpt lat="12.9306410" lon="99.7089670">
    <ele>76.1</ele>
    <time>2018-01-27T06:58:20Z</time>
   </trkpt>
   <trkpt lat="12.9306420" lon="99.7090400">
    <ele>75.5</ele>
    <time>2018-01-27T06:58:21Z</time>
   </trkpt>
   <trkpt lat="12.9306360" lon="99.7091000">
    <ele>75.1</ele>
    <time>2018-01-27T06:58:22Z</time>
   </trkpt>
   <trkpt lat="12.9306520" lon="99.7091580">
    <ele>75.1</ele>
    <time>2018-01-27T06:58:23Z</time>
   </trkpt>
   <trkpt lat="12.9306680" lon="99.7092050">
    <ele>74.6</ele>
    <time>2018-01-27T06:58:24Z</time>
   </trkpt>
   <trkpt lat="12.9306790" lon="99.7092540">
    <ele>74.7</ele>
    <time>2018-01-27T06:58:25Z</time>
   </trkpt>
   <trkpt lat="12.9306880" lon="99.7093080">
    <ele>74.9</ele>
    <time>2018-01-27T06:58:26Z</time>
   </trkpt>
   <trkpt lat="12.9307010" lon="99.7093670">
    <ele>75.2</ele>
    <time>2018-01-27T06:58:27Z</time>
   </trkpt>
   <trkpt lat="12.9307100" lon="99.7094280">
    <ele>75.4</ele>
    <time>2018-01-27T06:58:28Z</time>
   </trkpt>
   <trkpt lat="12.9307240" lon="99.7094800">
    <ele>75.6</ele>
    <time>2018-01-27T06:58:29Z</time>
   </trkpt>
   <trkpt lat="12.9307360" lon="99.7095390">
    <ele>75.8</ele>
    <time>2018-01-27T06:58:30Z</time>
   </trkpt>
   <trkpt lat="12.9307490" lon="99.7095970">
    <ele>75.6</ele>
    <time>2018-01-27T06:58:31Z</time>
   </trkpt>
   <trkpt lat="12.9307580" lon="99.7096450">
    <ele>75.4</ele>
    <time>2018-01-27T06:58:32Z</time>
   </trkpt>
   <trkpt lat="12.9307680" lon="99.7096930">
    <ele>75.1</ele>
    <time>2018-01-27T06:58:33Z</time>
   </trkpt>
   <trkpt lat="12.9307930" lon="99.7097420">
    <ele>74.4</ele>
    <time>2018-01-27T06:58:34Z</time>
   </trkpt>
   <trkpt lat="12.9308070" lon="99.7097800">
    <ele>74.1</ele>
    <time>2018-01-27T06:58:35Z</time>
   </trkpt>
   <trkpt lat="12.9308190" lon="99.7098210">
    <ele>73.8</ele>
    <time>2018-01-27T06:58:36Z</time>
   </trkpt>
   <trkpt lat="12.9308280" lon="99.7098620">
    <ele>73.2</ele>
    <time>2018-01-27T06:58:37Z</time>
   </trkpt>
   <trkpt lat="12.9308350" lon="99.7099020">
    <ele>72.9</ele>
    <time>2018-01-27T06:58:39Z</time>
   </trkpt>
   <trkpt lat="12.9308180" lon="99.7098790">
    <ele>73.5</ele>
    <time>2018-01-27T06:59:04Z</time>
   </trkpt>
   <trkpt lat="12.9308170" lon="99.7098480">
    <ele>73.9</ele>
    <time>2018-01-27T06:59:09Z</time>
   </trkpt>
   <trkpt lat="12.9308030" lon="99.7098190">
    <ele>73.9</ele>
    <time>2018-01-27T06:59:35Z</time>
   </trkpt>
   <trkpt lat="12.9307920" lon="99.7097870">
    <ele>74.2</ele>
    <time>2018-01-27T06:59:37Z</time>
   </trkpt>
   <trkpt lat="12.9307830" lon="99.7097580">
    <ele>75.0</ele>
    <time>2018-01-27T06:59:41Z</time>
   </trkpt>
   <trkpt lat="12.9307730" lon="99.7097300">
    <ele>75.0</ele>
    <time>2018-01-27T06:59:44Z</time>
   </trkpt>
   <trkpt lat="12.9307640" lon="99.7096890">
    <ele>75.3</ele>
    <time>2018-01-27T06:59:47Z</time>
   </trkpt>
   <trkpt lat="12.9307600" lon="99.7096500">
    <ele>75.6</ele>
    <time>2018-01-27T06:59:50Z</time>
   </trkpt>
   <trkpt lat="12.9307560" lon="99.7096230">
    <ele>75.8</ele>
    <time>2018-01-27T06:59:52Z</time>
   </trkpt>
   <trkpt lat="12.9307500" lon="99.7095830">
    <ele>75.8</ele>
    <time>2018-01-27T06:59:54Z</time>
   </trkpt>
   <trkpt lat="12.9307410" lon="99.7095350">
    <ele>76.1</ele>
    <time>2018-01-27T06:59:56Z</time>
   </trkpt>
   <trkpt lat="12.9307280" lon="99.7094860">
    <ele>75.9</ele>
    <time>2018-01-27T06:59:58Z</time>
   </trkpt>
   <trkpt lat="12.9307220" lon="99.7094580">
    <ele>75.7</ele>
    <time>2018-01-27T06:59:59Z</time>
   </trkpt>
   <trkpt lat="12.9307140" lon="99.7094310">
    <ele>75.7</ele>
    <time>2018-01-27T07:00:00Z</time>
   </trkpt>
   <trkpt lat="12.9307070" lon="99.7094040">
    <ele>75.5</ele>
    <time>2018-01-27T07:00:01Z</time>
   </trkpt>
   <trkpt lat="12.9306990" lon="99.7093760">
    <ele>75.5</ele>
    <time>2018-01-27T07:00:02Z</time>
   </trkpt>
   <trkpt lat="12.9306910" lon="99.7093490">
    <ele>75.5</ele>
    <time>2018-01-27T07:00:03Z</time>
   </trkpt>
   <trkpt lat="12.9306820" lon="99.7093180">
    <ele>75.3</ele>
    <time>2018-01-27T07:00:04Z</time>
   </trkpt>
   <trkpt lat="12.9306740" lon="99.7092840">
    <ele>75.1</ele>
    <time>2018-01-27T07:00:05Z</time>
   </trkpt>
   <trkpt lat="12.9306650" lon="99.7092510">
    <ele>75.0</ele>
    <time>2018-01-27T07:00:06Z</time>
   </trkpt>
   <trkpt lat="12.9306580" lon="99.7092220">
    <ele>75.5</ele>
    <time>2018-01-27T07:00:07Z</time>
   </trkpt>
   <trkpt lat="12.9306470" lon="99.7091790">
    <ele>75.6</ele>
    <time>2018-01-27T07:00:09Z</time>
   </trkpt>
   <trkpt lat="12.9306400" lon="99.7091430">
    <ele>75.6</ele>
    <time>2018-01-27T07:00:11Z</time>
   </trkpt>
   <trkpt lat="12.9306790" lon="99.7091040">
    <ele>75.1</ele>
    <time>2018-01-27T07:00:13Z</time>
   </trkpt>
   <trkpt lat="12.9307270" lon="99.7090810">
    <ele>74.7</ele>
    <time>2018-01-27T07:00:15Z</time>
   </trkpt>
   <trkpt lat="12.9307690" lon="99.7090660">
    <ele>74.4</ele>
    <time>2018-01-27T07:00:16Z</time>
   </trkpt>
   <trkpt lat="12.9308090" lon="99.7090530">
    <ele>74.2</ele>
    <time>2018-01-27T07:00:17Z</time>
   </trkpt>
   <trkpt lat="12.9308560" lon="99.7090390">
    <ele>74.0</ele>
    <time>2018-01-27T07:00:18Z</time>
   </trkpt>
   <trkpt lat="12.9308980" lon="99.7090300">
    <ele>73.9</ele>
    <time>2018-01-27T07:00:19Z</time>
   </trkpt>
   <trkpt lat="12.9309350" lon="99.7090310">
    <ele>73.8</ele>
    <time>2018-01-27T07:00:20Z</time>
   </trkpt>
   <trkpt lat="12.9309730" lon="99.7090360">
    <ele>73.7</ele>
    <time>2018-01-27T07:00:21Z</time>
   </trkpt>
   <trkpt lat="12.9310160" lon="99.7090190">
    <ele>73.8</ele>
    <time>2018-01-27T07:00:22Z</time>
   </trkpt>
   <trkpt lat="12.9310630" lon="99.7090220">
    <ele>74.0</ele>
    <time>2018-01-27T07:00:23Z</time>
   </trkpt>
   <trkpt lat="12.9311060" lon="99.7090200">
    <ele>74.1</ele>
    <time>2018-01-27T07:00:24Z</time>
   </trkpt>
   <trkpt lat="12.9311510" lon="99.7090120">
    <ele>74.3</ele>
    <time>2018-01-27T07:00:25Z</time>
   </trkpt>
   <trkpt lat="12.9312020" lon="99.7090070">
    <ele>74.8</ele>
    <time>2018-01-27T07:00:26Z</time>
   </trkpt>
   <trkpt lat="12.9312570" lon="99.7090000">
    <ele>75.4</ele>
    <time>2018-01-27T07:00:27Z</time>
   </trkpt>
   <trkpt lat="12.9313130" lon="99.7090000">
    <ele>75.8</ele>
    <time>2018-01-27T07:00:28Z</time>
   </trkpt>
   <trkpt lat="12.9313770" lon="99.7089950">
    <ele>76.2</ele>
    <time>2018-01-27T07:00:29Z</time>
   </trkpt>
   <trkpt lat="12.9314330" lon="99.7089870">
    <ele>76.5</ele>
    <time>2018-01-27T07:00:30Z</time>
   </trkpt>
   <trkpt lat="12.9314750" lon="99.7089880">
    <ele>76.6</ele>
    <time>2018-01-27T07:00:31Z</time>
   </trkpt>
   <trkpt lat="12.9315120" lon="99.7089800">
    <ele>76.8</ele>
    <time>2018-01-27T07:00:32Z</time>
   </trkpt>
   <trkpt lat="12.9315480" lon="99.7089820">
    <ele>76.8</ele>
    <time>2018-01-27T07:00:33Z</time>
   </trkpt>
   <trkpt lat="12.9315820" lon="99.7089750">
    <ele>76.8</ele>
    <time>2018-01-27T07:00:34Z</time>
   </trkpt>
   <trkpt lat="12.9316240" lon="99.7089780">
    <ele>76.8</ele>
    <time>2018-01-27T07:00:35Z</time>
   </trkpt>
   <trkpt lat="12.9316640" lon="99.7089850">
    <ele>76.9</ele>
    <time>2018-01-27T07:00:36Z</time>
   </trkpt>
   <trkpt lat="12.9317080" lon="99.7089910">
    <ele>77.0</ele>
    <time>2018-01-27T07:00:37Z</time>
   </trkpt>
   <trkpt lat="12.9317510" lon="99.7089910">
    <ele>77.1</ele>
    <time>2018-01-27T07:00:38Z</time>
   </trkpt>
   <trkpt lat="12.9317950" lon="99.7089890">
    <ele>77.4</ele>
    <time>2018-01-27T07:00:39Z</time>
   </trkpt>
   <trkpt lat="12.9318360" lon="99.7089900">
    <ele>77.5</ele>
    <time>2018-01-27T07:00:40Z</time>
   </trkpt>
   <trkpt lat="12.9318750" lon="99.7089960">
    <ele>77.6</ele>
    <time>2018-01-27T07:00:41Z</time>
   </trkpt>
   <trkpt lat="12.9319110" lon="99.7090030">
    <ele>77.7</ele>
    <time>2018-01-27T07:00:42Z</time>
   </trkpt>
   <trkpt lat="12.9319490" lon="99.7090050">
    <ele>77.8</ele>
    <time>2018-01-27T07:00:43Z</time>
   </trkpt>
   <trkpt lat="12.9319850" lon="99.7090080">
    <ele>77.8</ele>
    <time>2018-01-27T07:00:44Z</time>
   </trkpt>
   <trkpt lat="12.9320170" lon="99.7090140">
    <ele>77.8</ele>
    <time>2018-01-27T07:00:45Z</time>
   </trkpt>
   <trkpt lat="12.9320450" lon="99.7090200">
    <ele>77.8</ele>
    <time>2018-01-27T07:00:46Z</time>
   </trkpt>
   <trkpt lat="12.9320890" lon="99.7090270">
    <ele>77.8</ele>
    <time>2018-01-27T07:00:48Z</time>
   </trkpt>
   <trkpt lat="12.9321230" lon="99.7090350">
    <ele>77.8</ele>
    <time>2018-01-27T07:00:50Z</time>
   </trkpt>
   <trkpt lat="12.9321670" lon="99.7090290">
    <ele>77.8</ele>
    <time>2018-01-27T07:00:52Z</time>
   </trkpt>
   <trkpt lat="12.9322250" lon="99.7090350">
    <ele>77.8</ele>
    <time>2018-01-27T07:00:54Z</time>
   </trkpt>
   <trkpt lat="12.9322590" lon="99.7090380">
    <ele>77.8</ele>
    <time>2018-01-27T07:00:55Z</time>
   </trkpt>
   <trkpt lat="12.9322920" lon="99.7090370">
    <ele>77.8</ele>
    <time>2018-01-27T07:00:56Z</time>
   </trkpt>
   <trkpt lat="12.9323410" lon="99.7090280">
    <ele>77.8</ele>
    <time>2018-01-27T07:00:58Z</time>
   </trkpt>
   <trkpt lat="12.9323820" lon="99.7090180">
    <ele>77.8</ele>
    <time>2018-01-27T07:01:00Z</time>
   </trkpt>
   <trkpt lat="12.9324010" lon="99.7089920">
    <ele>77.8</ele>
    <time>2018-01-27T07:01:02Z</time>
   </trkpt>
   <trkpt lat="12.9324010" lon="99.7089530">
    <ele>77.8</ele>
    <time>2018-01-27T07:01:04Z</time>
   </trkpt>
   <trkpt lat="12.9324020" lon="99.7089110">
    <ele>77.8</ele>
    <time>2018-01-27T07:01:06Z</time>
   </trkpt>
   <trkpt lat="12.9324150" lon="99.7088690">
    <ele>77.8</ele>
    <time>2018-01-27T07:01:08Z</time>
   </trkpt>
   <trkpt lat="12.9324290" lon="99.7088430">
    <ele>77.8</ele>
    <time>2018-01-27T07:01:09Z</time>
   </trkpt>
   <trkpt lat="12.9324460" lon="99.7088210">
    <ele>78.1</ele>
    <time>2018-01-27T07:01:10Z</time>
   </trkpt>
   <trkpt lat="12.9324920" lon="99.7087930">
    <ele>78.8</ele>
    <time>2018-01-27T07:01:12Z</time>
   </trkpt>
   <trkpt lat="12.9325180" lon="99.7087840">
    <ele>79.1</ele>
    <time>2018-01-27T07:01:13Z</time>
   </trkpt>
   <trkpt lat="12.9325500" lon="99.7087710">
    <ele>79.4</ele>
    <time>2018-01-27T07:01:14Z</time>
   </trkpt>
   <trkpt lat="12.9325890" lon="99.7087590">
    <ele>79.8</ele>
    <time>2018-01-27T07:01:15Z</time>
   </trkpt>
   <trkpt lat="12.9326300" lon="99.7087490">
    <ele>80.0</ele>
    <time>2018-01-27T07:01:16Z</time>
   </trkpt>
   <trkpt lat="12.9326690" lon="99.7087360">
    <ele>80.1</ele>
    <time>2018-01-27T07:01:17Z</time>
   </trkpt>
   <trkpt lat="12.9326980" lon="99.7087220">
    <ele>80.1</ele>
    <time>2018-01-27T07:01:18Z</time>
   </trkpt>
   <trkpt lat="12.9327220" lon="99.7086860">
    <ele>80.2</ele>
    <time>2018-01-27T07:01:20Z</time>
   </trkpt>
   <trkpt lat="12.9327170" lon="99.7086320">
    <ele>80.3</ele>
    <time>2018-01-27T07:01:22Z</time>
   </trkpt>
   <trkpt lat="12.9327150" lon="99.7086030">
    <ele>80.4</ele>
    <time>2018-01-27T07:01:23Z</time>
   </trkpt>
   <trkpt lat="12.9327170" lon="99.7085660">
    <ele>80.5</ele>
    <time>2018-01-27T07:01:24Z</time>
   </trkpt>
   <trkpt lat="12.9327220" lon="99.7085240">
    <ele>80.5</ele>
    <time>2018-01-27T07:01:25Z</time>
   </trkpt>
   <trkpt lat="12.9327260" lon="99.7084880">
    <ele>80.4</ele>
    <time>2018-01-27T07:01:26Z</time>
   </trkpt>
   <trkpt lat="12.9327250" lon="99.7084380">
    <ele>80.2</ele>
    <time>2018-01-27T07:01:28Z</time>
   </trkpt>
   <trkpt lat="12.9327290" lon="99.7083900">
    <ele>80.0</ele>
    <time>2018-01-27T07:01:30Z</time>
   </trkpt>
   <trkpt lat="12.9327360" lon="99.7083590">
    <ele>79.9</ele>
    <time>2018-01-27T07:01:31Z</time>
   </trkpt>
   <trkpt lat="12.9327440" lon="99.7083310">
    <ele>79.7</ele>
    <time>2018-01-27T07:01:32Z</time>
   </trkpt>
   <trkpt lat="12.9327620" lon="99.7082800">
    <ele>79.3</ele>
    <time>2018-01-27T07:01:34Z</time>
   </trkpt>
   <trkpt lat="12.9327820" lon="99.7082340">
    <ele>78.8</ele>
    <time>2018-01-27T07:01:36Z</time>
   </trkpt>
   <trkpt lat="12.9328020" lon="99.7081930">
    <ele>78.1</ele>
    <time>2018-01-27T07:01:38Z</time>
   </trkpt>
   <trkpt lat="12.9328220" lon="99.7081630">
    <ele>77.8</ele>
    <time>2018-01-27T07:01:40Z</time>
   </trkpt>
   <trkpt lat="12.9328530" lon="99.7081410">
    <ele>77.7</ele>
    <time>2018-01-27T07:01:42Z</time>
   </trkpt>
   <trkpt lat="12.9329080" lon="99.7081280">
    <ele>77.6</ele>
    <time>2018-01-27T07:01:44Z</time>
   </trkpt>
   <trkpt lat="12.9329420" lon="99.7081240">
    <ele>77.4</ele>
    <time>2018-01-27T07:01:45Z</time>
   </trkpt>
   <trkpt lat="12.9329770" lon="99.7081270">
    <ele>77.3</ele>
    <time>2018-01-27T07:01:46Z</time>
   </trkpt>
   <trkpt lat="12.9330190" lon="99.7081330">
    <ele>77.8</ele>
    <time>2018-01-27T07:01:47Z</time>
   </trkpt>
   <trkpt lat="12.9330710" lon="99.7081380">
    <ele>78.5</ele>
    <time>2018-01-27T07:01:48Z</time>
   </trkpt>
   <trkpt lat="12.9331210" lon="99.7081510">
    <ele>79.1</ele>
    <time>2018-01-27T07:01:50Z</time>
   </trkpt>
   <trkpt lat="12.9331470" lon="99.7081720">
    <ele>79.4</ele>
    <time>2018-01-27T07:01:51Z</time>
   </trkpt>
   <trkpt lat="12.9331710" lon="99.7082140">
    <ele>79.7</ele>
    <time>2018-01-27T07:01:53Z</time>
   </trkpt>
   <trkpt lat="12.9331750" lon="99.7082630">
    <ele>80.0</ele>
    <time>2018-01-27T07:01:55Z</time>
   </trkpt>
   <trkpt lat="12.9331710" lon="99.7083170">
    <ele>80.4</ele>
    <time>2018-01-27T07:01:57Z</time>
   </trkpt>
   <trkpt lat="12.9331680" lon="99.7083510">
    <ele>80.9</ele>
    <time>2018-01-27T07:01:58Z</time>
   </trkpt>
   <trkpt lat="12.9331640" lon="99.7083820">
    <ele>81.3</ele>
    <time>2018-01-27T07:01:59Z</time>
   </trkpt>
   <trkpt lat="12.9331630" lon="99.7084160">
    <ele>81.8</ele>
    <time>2018-01-27T07:02:00Z</time>
   </trkpt>
   <trkpt lat="12.9331620" lon="99.7084540">
    <ele>82.3</ele>
    <time>2018-01-27T07:02:01Z</time>
   </trkpt>
   <trkpt lat="12.9331640" lon="99.7084900">
    <ele>82.9</ele>
    <time>2018-01-27T07:02:02Z</time>
   </trkpt>
   <trkpt lat="12.9331680" lon="99.7085430">
    <ele>83.7</ele>
    <time>2018-01-27T07:02:04Z</time>
   </trkpt>
   <trkpt lat="12.9331700" lon="99.7085720">
    <ele>84.2</ele>
    <time>2018-01-27T07:02:05Z</time>
   </trkpt>
   <trkpt lat="12.9331760" lon="99.7086050">
    <ele>84.8</ele>
    <time>2018-01-27T07:02:06Z</time>
   </trkpt>
   <trkpt lat="12.9331820" lon="99.7086330">
    <ele>85.0</ele>
    <time>2018-01-27T07:02:07Z</time>
   </trkpt>
   <trkpt lat="12.9331910" lon="99.7086620">
    <ele>85.2</ele>
    <time>2018-01-27T07:02:08Z</time>
   </trkpt>
   <trkpt lat="12.9332030" lon="99.7086880">
    <ele>85.4</ele>
    <time>2018-01-27T07:02:09Z</time>
   </trkpt>
   <trkpt lat="12.9332370" lon="99.7087110">
    <ele>85.8</ele>
    <time>2018-01-27T07:02:11Z</time>
   </trkpt>
   <trkpt lat="12.9332740" lon="99.7087230">
    <ele>86.2</ele>
    <time>2018-01-27T07:02:13Z</time>
   </trkpt>
   <trkpt lat="12.9333010" lon="99.7087300">
    <ele>86.5</ele>
    <time>2018-01-27T07:02:15Z</time>
   </trkpt>
   <trkpt lat="12.9333280" lon="99.7087360">
    <ele>86.8</ele>
    <time>2018-01-27T07:02:17Z</time>
   </trkpt>
   <trkpt lat="12.9333640" lon="99.7087370">
    <ele>87.1</ele>
    <time>2018-01-27T07:02:21Z</time>
   </trkpt>
   <trkpt lat="12.9334000" lon="99.7087410">
    <ele>87.4</ele>
    <time>2018-01-27T07:02:25Z</time>
   </trkpt>
   <trkpt lat="12.9334330" lon="99.7087480">
    <ele>87.6</ele>
    <time>2018-01-27T07:02:28Z</time>
   </trkpt>
   <trkpt lat="12.9334700" lon="99.7087560">
    <ele>87.8</ele>
    <time>2018-01-27T07:02:31Z</time>
   </trkpt>
   <trkpt lat="12.9335050" lon="99.7087550">
    <ele>87.9</ele>
    <time>2018-01-27T07:02:34Z</time>
   </trkpt>
   <trkpt lat="12.9335360" lon="99.7087550">
    <ele>88.0</ele>
    <time>2018-01-27T07:02:37Z</time>
   </trkpt>
   <trkpt lat="12.9335700" lon="99.7087690">
    <ele>88.1</ele>
    <time>2018-01-27T07:02:49Z</time>
   </trkpt>
   <trkpt lat="12.9336130" lon="99.7087680">
    <ele>88.1</ele>
    <time>2018-01-27T07:02:53Z</time>
   </trkpt>
   <trkpt lat="12.9336560" lon="99.7087700">
    <ele>88.1</ele>
    <time>2018-01-27T07:02:55Z</time>
   </trkpt>
   <trkpt lat="12.9337080" lon="99.7087780">
    <ele>87.6</ele>
    <time>2018-01-27T07:02:57Z</time>
   </trkpt>
   <trkpt lat="12.9337600" lon="99.7087850">
    <ele>86.9</ele>
    <time>2018-01-27T07:02:59Z</time>
   </trkpt>
   <trkpt lat="12.9337970" lon="99.7087930">
    <ele>86.8</ele>
    <time>2018-01-27T07:03:00Z</time>
   </trkpt>
   <trkpt lat="12.9338330" lon="99.7088000">
    <ele>86.9</ele>
    <time>2018-01-27T07:03:01Z</time>
   </trkpt>
   <trkpt lat="12.9338710" lon="99.7088080">
    <ele>86.9</ele>
    <time>2018-01-27T07:03:02Z</time>
   </trkpt>
   <trkpt lat="12.9339100" lon="99.7088170">
    <ele>87.1</ele>
    <time>2018-01-27T07:03:03Z</time>
   </trkpt>
   <trkpt lat="12.9339500" lon="99.7088270">
    <ele>87.2</ele>
    <time>2018-01-27T07:03:04Z</time>
   </trkpt>
   <trkpt lat="12.9339980" lon="99.7088400">
    <ele>87.5</ele>
    <time>2018-01-27T07:03:05Z</time>
   </trkpt>
   <trkpt lat="12.9340340" lon="99.7088450">
    <ele>87.6</ele>
    <time>2018-01-27T07:03:06Z</time>
   </trkpt>
   <trkpt lat="12.9340670" lon="99.7088510">
    <ele>87.7</ele>
    <time>2018-01-27T07:03:07Z</time>
   </trkpt>
   <trkpt lat="12.9340990" lon="99.7088560">
    <ele>87.7</ele>
    <time>2018-01-27T07:03:08Z</time>
   </trkpt>
   <trkpt lat="12.9341320" lon="99.7088600">
    <ele>87.7</ele>
    <time>2018-01-27T07:03:09Z</time>
   </trkpt>
   <trkpt lat="12.9341700" lon="99.7088690">
    <ele>87.3</ele>
    <time>2018-01-27T07:03:10Z</time>
   </trkpt>
   <trkpt lat="12.9342060" lon="99.7088790">
    <ele>86.9</ele>
    <time>2018-01-27T07:03:11Z</time>
   </trkpt>
   <trkpt lat="12.9342350" lon="99.7088890">
    <ele>86.6</ele>
    <time>2018-01-27T07:03:12Z</time>
   </trkpt>
   <trkpt lat="12.9342910" lon="99.7088980">
    <ele>86.4</ele>
    <time>2018-01-27T07:03:14Z</time>
   </trkpt>
   <trkpt lat="12.9343220" lon="99.7088990">
    <ele>86.3</ele>
    <time>2018-01-27T07:03:15Z</time>
   </trkpt>
   <trkpt lat="12.9343700" lon="99.7088880">
    <ele>87.6</ele>
    <time>2018-01-27T07:03:17Z</time>
   </trkpt>
   <trkpt lat="12.9344110" lon="99.7088610">
    <ele>88.8</ele>
    <time>2018-01-27T07:03:19Z</time>
   </trkpt>
   <trkpt lat="12.9344370" lon="99.7088420">
    <ele>89.5</ele>
    <time>2018-01-27T07:03:20Z</time>
   </trkpt>
   <trkpt lat="12.9344650" lon="99.7088210">
    <ele>90.2</ele>
    <time>2018-01-27T07:03:21Z</time>
   </trkpt>
   <trkpt lat="12.9344920" lon="99.7087940">
    <ele>90.6</ele>
    <time>2018-01-27T07:03:22Z</time>
   </trkpt>
   <trkpt lat="12.9345150" lon="99.7087710">
    <ele>90.8</ele>
    <time>2018-01-27T07:03:23Z</time>
   </trkpt>
   <trkpt lat="12.9345510" lon="99.7087280">
    <ele>92.1</ele>
    <time>2018-01-27T07:03:25Z</time>
   </trkpt>
   <trkpt lat="12.9345780" lon="99.7086790">
    <ele>93.3</ele>
    <time>2018-01-27T07:03:27Z</time>
   </trkpt>
   <trkpt lat="12.9345880" lon="99.7086510">
    <ele>92.9</ele>
    <time>2018-01-27T07:03:28Z</time>
   </trkpt>
   <trkpt lat="12.9346000" lon="99.7086030">
    <ele>92.3</ele>
    <time>2018-01-27T07:03:30Z</time>
   </trkpt>
   <trkpt lat="12.9346130" lon="99.7085580">
    <ele>92.1</ele>
    <time>2018-01-27T07:03:32Z</time>
   </trkpt>
   <trkpt lat="12.9346240" lon="99.7085130">
    <ele>92.0</ele>
    <time>2018-01-27T07:03:34Z</time>
   </trkpt>
   <trkpt lat="12.9346260" lon="99.7084730">
    <ele>91.5</ele>
    <time>2018-01-27T07:03:36Z</time>
   </trkpt>
   <trkpt lat="12.9346380" lon="99.7084400">
    <ele>91.0</ele>
    <time>2018-01-27T07:03:38Z</time>
   </trkpt>
   <trkpt lat="12.9346680" lon="99.7084050">
    <ele>90.3</ele>
    <time>2018-01-27T07:03:40Z</time>
   </trkpt>
   <trkpt lat="12.9346980" lon="99.7083740">
    <ele>89.7</ele>
    <time>2018-01-27T07:03:42Z</time>
   </trkpt>
   <trkpt lat="12.9347260" lon="99.7083530">
    <ele>89.2</ele>
    <time>2018-01-27T07:03:44Z</time>
   </trkpt>
   <trkpt lat="12.9347680" lon="99.7083420">
    <ele>88.8</ele>
    <time>2018-01-27T07:03:46Z</time>
   </trkpt>
   <trkpt lat="12.9348120" lon="99.7083370">
    <ele>88.5</ele>
    <time>2018-01-27T07:03:48Z</time>
   </trkpt>
   <trkpt lat="12.9348570" lon="99.7083350">
    <ele>88.2</ele>
    <time>2018-01-27T07:03:50Z</time>
   </trkpt>
   <trkpt lat="12.9349110" lon="99.7083320">
    <ele>88.0</ele>
    <time>2018-01-27T07:03:52Z</time>
   </trkpt>
   <trkpt lat="12.9349650" lon="99.7083270">
    <ele>88.4</ele>
    <time>2018-01-27T07:03:54Z</time>
   </trkpt>
   <trkpt lat="12.9349940" lon="99.7083240">
    <ele>88.7</ele>
    <time>2018-01-27T07:03:55Z</time>
   </trkpt>
   <trkpt lat="12.9350300" lon="99.7083210">
    <ele>89.2</ele>
    <time>2018-01-27T07:03:56Z</time>
   </trkpt>
   <trkpt lat="12.9350720" lon="99.7083150">
    <ele>90.0</ele>
    <time>2018-01-27T07:03:57Z</time>
   </trkpt>
   <trkpt lat="12.9351140" lon="99.7083080">
    <ele>90.8</ele>
    <time>2018-01-27T07:03:58Z</time>
   </trkpt>
   <trkpt lat="12.9351550" lon="99.7083000">
    <ele>91.4</ele>
    <time>2018-01-27T07:03:59Z</time>
   </trkpt>
   <trkpt lat="12.9351950" lon="99.7082950">
    <ele>92.0</ele>
    <time>2018-01-27T07:04:00Z</time>
   </trkpt>
   <trkpt lat="12.9352290" lon="99.7082930">
    <ele>92.5</ele>
    <time>2018-01-27T07:04:01Z</time>
   </trkpt>
   <trkpt lat="12.9352620" lon="99.7082940">
    <ele>93.0</ele>
    <time>2018-01-27T07:04:02Z</time>
   </trkpt>
   <trkpt lat="12.9352940" lon="99.7082940">
    <ele>93.5</ele>
    <time>2018-01-27T07:04:03Z</time>
   </trkpt>
   <trkpt lat="12.9353240" lon="99.7082960">
    <ele>93.9</ele>
    <time>2018-01-27T07:04:04Z</time>
   </trkpt>
   <trkpt lat="12.9353520" lon="99.7082990">
    <ele>94.4</ele>
    <time>2018-01-27T07:04:05Z</time>
   </trkpt>
   <trkpt lat="12.9354010" lon="99.7083010">
    <ele>95.1</ele>
    <time>2018-01-27T07:04:07Z</time>
   </trkpt>
   <trkpt lat="12.9354480" lon="99.7083060">
    <ele>95.8</ele>
    <time>2018-01-27T07:04:09Z</time>
   </trkpt>
   <trkpt lat="12.9354930" lon="99.7083160">
    <ele>96.5</ele>
    <time>2018-01-27T07:04:11Z</time>
   </trkpt>
   <trkpt lat="12.9355310" lon="99.7083300">
    <ele>96.9</ele>
    <time>2018-01-27T07:04:13Z</time>
   </trkpt>
   <trkpt lat="12.9355650" lon="99.7083390">
    <ele>97.3</ele>
    <time>2018-01-27T07:04:15Z</time>
   </trkpt>
   <trkpt lat="12.9356090" lon="99.7083460">
    <ele>97.2</ele>
    <time>2018-01-27T07:04:17Z</time>
   </trkpt>
   <trkpt lat="12.9356570" lon="99.7083600">
    <ele>96.7</ele>
    <time>2018-01-27T07:04:19Z</time>
   </trkpt>
   <trkpt lat="12.9357000" lon="99.7083750">
    <ele>96.4</ele>
    <time>2018-01-27T07:04:21Z</time>
   </trkpt>
   <trkpt lat="12.9357380" lon="99.7083960">
    <ele>96.1</ele>
    <time>2018-01-27T07:04:23Z</time>
   </trkpt>
   <trkpt lat="12.9357830" lon="99.7084370">
    <ele>95.7</ele>
    <time>2018-01-27T07:04:25Z</time>
   </trkpt>
   <trkpt lat="12.9358060" lon="99.7084720">
    <ele>95.3</ele>
    <time>2018-01-27T07:04:26Z</time>
   </trkpt>
   <trkpt lat="12.9358240" lon="99.7085110">
    <ele>94.8</ele>
    <time>2018-01-27T07:04:27Z</time>
   </trkpt>
   <trkpt lat="12.9358350" lon="99.7085550">
    <ele>94.4</ele>
    <time>2018-01-27T07:04:28Z</time>
   </trkpt>
   <trkpt lat="12.9358410" lon="99.7086000">
    <ele>93.9</ele>
    <time>2018-01-27T07:04:29Z</time>
   </trkpt>
   <trkpt lat="12.9358420" lon="99.7086450">
    <ele>93.5</ele>
    <time>2018-01-27T07:04:30Z</time>
   </trkpt>
   <trkpt lat="12.9358290" lon="99.7086840">
    <ele>93.0</ele>
    <time>2018-01-27T07:04:31Z</time>
   </trkpt>
   <trkpt lat="12.9358400" lon="99.7087320">
    <ele>92.8</ele>
    <time>2018-01-27T07:04:32Z</time>
   </trkpt>
   <trkpt lat="12.9358400" lon="99.7087840">
    <ele>92.6</ele>
    <time>2018-01-27T07:04:33Z</time>
   </trkpt>
   <trkpt lat="12.9358370" lon="99.7088350">
    <ele>92.3</ele>
    <time>2018-01-27T07:04:34Z</time>
   </trkpt>
   <trkpt lat="12.9358270" lon="99.7088890">
    <ele>91.9</ele>
    <time>2018-01-27T07:04:35Z</time>
   </trkpt>
   <trkpt lat="12.9358250" lon="99.7089360">
    <ele>91.6</ele>
    <time>2018-01-27T07:04:36Z</time>
   </trkpt>
   <trkpt lat="12.9358380" lon="99.7089830">
    <ele>91.4</ele>
    <time>2018-01-27T07:04:37Z</time>
   </trkpt>
   <trkpt lat="12.9358380" lon="99.7090340">
    <ele>90.7</ele>
    <time>2018-01-27T07:04:38Z</time>
   </trkpt>
   <trkpt lat="12.9358420" lon="99.7090670">
    <ele>90.2</ele>
    <time>2018-01-27T07:04:39Z</time>
   </trkpt>
   <trkpt lat="12.9358580" lon="99.7091070">
    <ele>89.9</ele>
    <time>2018-01-27T07:04:40Z</time>
   </trkpt>
   <trkpt lat="12.9358690" lon="99.7091470">
    <ele>89.6</ele>
    <time>2018-01-27T07:04:41Z</time>
   </trkpt>
   <trkpt lat="12.9358800" lon="99.7091830">
    <ele>89.4</ele>
    <time>2018-01-27T07:04:43Z</time>
   </trkpt>
   <trkpt lat="12.9359200" lon="99.7092420">
    <ele>88.7</ele>
    <time>2018-01-27T07:04:45Z</time>
   </trkpt>
   <trkpt lat="12.9359780" lon="99.7092660">
    <ele>88.9</ele>
    <time>2018-01-27T07:04:46Z</time>
   </trkpt>
   <trkpt lat="12.9360570" lon="99.7093210">
    <ele>89.4</ele>
    <time>2018-01-27T07:04:47Z</time>
   </trkpt>
   <trkpt lat="12.9361060" lon="99.7093410">
    <ele>89.3</ele>
    <time>2018-01-27T07:04:48Z</time>
   </trkpt>
   <trkpt lat="12.9361540" lon="99.7093550">
    <ele>89.4</ele>
    <time>2018-01-27T07:04:49Z</time>
   </trkpt>
   <trkpt lat="12.9361950" lon="99.7093710">
    <ele>89.4</ele>
    <time>2018-01-27T07:04:50Z</time>
   </trkpt>
   <trkpt lat="12.9362430" lon="99.7093780">
    <ele>89.0</ele>
    <time>2018-01-27T07:04:51Z</time>
   </trkpt>
   <trkpt lat="12.9362900" lon="99.7093760">
    <ele>88.5</ele>
    <time>2018-01-27T07:04:52Z</time>
   </trkpt>
   <trkpt lat="12.9363470" lon="99.7093780">
    <ele>88.0</ele>
    <time>2018-01-27T07:04:53Z</time>
   </trkpt>
   <trkpt lat="12.9363990" lon="99.7093870">
    <ele>87.4</ele>
    <time>2018-01-27T07:04:54Z</time>
   </trkpt>
   <trkpt lat="12.9364570" lon="99.7094020">
    <ele>87.1</ele>
    <time>2018-01-27T07:04:55Z</time>
   </trkpt>
   <trkpt lat="12.9365050" lon="99.7094300">
    <ele>86.8</ele>
    <time>2018-01-27T07:04:56Z</time>
   </trkpt>
   <trkpt lat="12.9365500" lon="99.7094540">
    <ele>86.2</ele>
    <time>2018-01-27T07:04:57Z</time>
   </trkpt>
   <trkpt lat="12.9366200" lon="99.7094770">
    <ele>85.9</ele>
    <time>2018-01-27T07:04:58Z</time>
   </trkpt>
   <trkpt lat="12.9366750" lon="99.7095060">
    <ele>85.9</ele>
    <time>2018-01-27T07:04:59Z</time>
   </trkpt>
   <trkpt lat="12.9367320" lon="99.7095290">
    <ele>85.7</ele>
    <time>2018-01-27T07:05:00Z</time>
   </trkpt>
   <trkpt lat="12.9367830" lon="99.7095570">
    <ele>85.7</ele>
    <time>2018-01-27T07:05:01Z</time>
   </trkpt>
   <trkpt lat="12.9368370" lon="99.7095760">
    <ele>86.1</ele>
    <time>2018-01-27T07:05:02Z</time>
   </trkpt>
   <trkpt lat="12.9368840" lon="99.7096040">
    <ele>86.0</ele>
    <time>2018-01-27T07:05:03Z</time>
   </trkpt>
   <trkpt lat="12.9369310" lon="99.7096290">
    <ele>85.9</ele>
    <time>2018-01-27T07:05:04Z</time>
   </trkpt>
   <trkpt lat="12.9369790" lon="99.7096500">
    <ele>85.9</ele>
    <time>2018-01-27T07:05:05Z</time>
   </trkpt>
   <trkpt lat="12.9370320" lon="99.7096720">
    <ele>85.9</ele>
    <time>2018-01-27T07:05:06Z</time>
   </trkpt>
   <trkpt lat="12.9370800" lon="99.7096800">
    <ele>86.2</ele>
    <time>2018-01-27T07:05:07Z</time>
   </trkpt>
   <trkpt lat="12.9371280" lon="99.7097050">
    <ele>86.4</ele>
    <time>2018-01-27T07:05:08Z</time>
   </trkpt>
   <trkpt lat="12.9371660" lon="99.7097260">
    <ele>86.6</ele>
    <time>2018-01-27T07:05:09Z</time>
   </trkpt>
   <trkpt lat="12.9372040" lon="99.7097450">
    <ele>86.7</ele>
    <time>2018-01-27T07:05:10Z</time>
   </trkpt>
   <trkpt lat="12.9372410" lon="99.7097660">
    <ele>86.4</ele>
    <time>2018-01-27T07:05:11Z</time>
   </trkpt>
   <trkpt lat="12.9372950" lon="99.7097870">
    <ele>86.0</ele>
    <time>2018-01-27T07:05:12Z</time>
   </trkpt>
   <trkpt lat="12.9373320" lon="99.7098220">
    <ele>85.6</ele>
    <time>2018-01-27T07:05:13Z</time>
   </trkpt>
   <trkpt lat="12.9373780" lon="99.7098570">
    <ele>86.2</ele>
    <time>2018-01-27T07:05:14Z</time>
   </trkpt>
   <trkpt lat="12.9374090" lon="99.7099130">
    <ele>86.8</ele>
    <time>2018-01-27T07:05:15Z</time>
   </trkpt>
   <trkpt lat="12.9374370" lon="99.7099680">
    <ele>87.5</ele>
    <time>2018-01-27T07:05:16Z</time>
   </trkpt>
   <trkpt lat="12.9374630" lon="99.7100270">
    <ele>86.8</ele>
    <time>2018-01-27T07:05:17Z</time>
   </trkpt>
   <trkpt lat="12.9374780" lon="99.7100920">
    <ele>87.6</ele>
    <time>2018-01-27T07:05:18Z</time>
   </trkpt>
   <trkpt lat="12.9374860" lon="99.7101620">
    <ele>86.0</ele>
    <time>2018-01-27T07:05:19Z</time>
   </trkpt>
   <trkpt lat="12.9375090" lon="99.7102270">
    <ele>84.9</ele>
    <time>2018-01-27T07:05:20Z</time>
   </trkpt>
   <trkpt lat="12.9375390" lon="99.7102930">
    <ele>83.4</ele>
    <time>2018-01-27T07:05:21Z</time>
   </trkpt>
   <trkpt lat="12.9375710" lon="99.7103400">
    <ele>82.6</ele>
    <time>2018-01-27T07:05:22Z</time>
   </trkpt>
   <trkpt lat="12.9376020" lon="99.7103760">
    <ele>80.8</ele>
    <time>2018-01-27T07:05:23Z</time>
   </trkpt>
   <trkpt lat="12.9376300" lon="99.7103970">
    <ele>81.7</ele>
    <time>2018-01-27T07:05:24Z</time>
   </trkpt>
   <trkpt lat="12.9376600" lon="99.7104110">
    <ele>82.6</ele>
    <time>2018-01-27T07:05:25Z</time>
   </trkpt>
   <trkpt lat="12.9376970" lon="99.7104330">
    <ele>81.9</ele>
    <time>2018-01-27T07:05:26Z</time>
   </trkpt>
   <trkpt lat="12.9377350" lon="99.7104490">
    <ele>82.6</ele>
    <time>2018-01-27T07:05:27Z</time>
   </trkpt>
   <trkpt lat="12.9377760" lon="99.7104640">
    <ele>81.4</ele>
    <time>2018-01-27T07:05:28Z</time>
   </trkpt>
   <trkpt lat="12.9378180" lon="99.7104850">
    <ele>81.6</ele>
    <time>2018-01-27T07:05:29Z</time>
   </trkpt>
   <trkpt lat="12.9378700" lon="99.7105070">
    <ele>80.4</ele>
    <time>2018-01-27T07:05:30Z</time>
   </trkpt>
   <trkpt lat="12.9379190" lon="99.7105200">
    <ele>80.5</ele>
    <time>2018-01-27T07:05:31Z</time>
   </trkpt>
   <trkpt lat="12.9379730" lon="99.7105410">
    <ele>78.9</ele>
    <time>2018-01-27T07:05:32Z</time>
   </trkpt>
   <trkpt lat="12.9380280" lon="99.7105720">
    <ele>78.7</ele>
    <time>2018-01-27T07:05:33Z</time>
   </trkpt>
   <trkpt lat="12.9380850" lon="99.7105940">
    <ele>77.3</ele>
    <time>2018-01-27T07:05:34Z</time>
   </trkpt>
   <trkpt lat="12.9381450" lon="99.7106140">
    <ele>77.3</ele>
    <time>2018-01-27T07:05:35Z</time>
   </trkpt>
   <trkpt lat="12.9382080" lon="99.7106410">
    <ele>76.2</ele>
    <time>2018-01-27T07:05:36Z</time>
   </trkpt>
   <trkpt lat="12.9382800" lon="99.7106620">
    <ele>76.5</ele>
    <time>2018-01-27T07:05:37Z</time>
   </trkpt>
   <trkpt lat="12.9383490" lon="99.7106810">
    <ele>76.0</ele>
    <time>2018-01-27T07:05:38Z</time>
   </trkpt>
   <trkpt lat="12.9384090" lon="99.7107110">
    <ele>76.5</ele>
    <time>2018-01-27T07:05:39Z</time>
   </trkpt>
   <trkpt lat="12.9384710" lon="99.7107460">
    <ele>76.0</ele>
    <time>2018-01-27T07:05:40Z</time>
   </trkpt>
   <trkpt lat="12.9385340" lon="99.7107650">
    <ele>75.8</ele>
    <time>2018-01-27T07:05:41Z</time>
   </trkpt>
   <trkpt lat="12.9386050" lon="99.7107930">
    <ele>76.0</ele>
    <time>2018-01-27T07:05:42Z</time>
   </trkpt>
   <trkpt lat="12.9386810" lon="99.7108150">
    <ele>75.8</ele>
    <time>2018-01-27T07:05:43Z</time>
   </trkpt>
   <trkpt lat="12.9387410" lon="99.7108500">
    <ele>75.8</ele>
    <time>2018-01-27T07:05:44Z</time>
   </trkpt>
   <trkpt lat="12.9388020" lon="99.7108800">
    <ele>75.8</ele>
    <time>2018-01-27T07:05:45Z</time>
   </trkpt>
   <trkpt lat="12.9388660" lon="99.7109050">
    <ele>75.7</ele>
    <time>2018-01-27T07:05:46Z</time>
   </trkpt>
   <trkpt lat="12.9389300" lon="99.7109380">
    <ele>75.5</ele>
    <time>2018-01-27T07:05:47Z</time>
   </trkpt>
   <trkpt lat="12.9390030" lon="99.7109470">
    <ele>75.6</ele>
    <time>2018-01-27T07:05:48Z</time>
   </trkpt>
   <trkpt lat="12.9390610" lon="99.7109650">
    <ele>75.7</ele>
    <time>2018-01-27T07:05:49Z</time>
   </trkpt>
   <trkpt lat="12.9391180" lon="99.7109790">
    <ele>75.2</ele>
    <time>2018-01-27T07:05:50Z</time>
   </trkpt>
   <trkpt lat="12.9391700" lon="99.7109950">
    <ele>75.2</ele>
    <time>2018-01-27T07:05:51Z</time>
   </trkpt>
   <trkpt lat="12.9392090" lon="99.7109990">
    <ele>75.1</ele>
    <time>2018-01-27T07:05:52Z</time>
   </trkpt>
   <trkpt lat="12.9392500" lon="99.7109990">
    <ele>75.1</ele>
    <time>2018-01-27T07:05:53Z</time>
   </trkpt>
   <trkpt lat="12.9392790" lon="99.7110030">
    <ele>75.1</ele>
    <time>2018-01-27T07:05:54Z</time>
   </trkpt>
   <trkpt lat="12.9393180" lon="99.7110070">
    <ele>75.1</ele>
    <time>2018-01-27T07:05:55Z</time>
   </trkpt>
   <trkpt lat="12.9393630" lon="99.7110270">
    <ele>74.3</ele>
    <time>2018-01-27T07:05:57Z</time>
   </trkpt>
   <trkpt lat="12.9394130" lon="99.7110390">
    <ele>74.4</ele>
    <time>2018-01-27T07:05:59Z</time>
   </trkpt>
   <trkpt lat="12.9394410" lon="99.7110490">
    <ele>74.4</ele>
    <time>2018-01-27T07:06:00Z</time>
   </trkpt>
   <trkpt lat="12.9394700" lon="99.7110660">
    <ele>74.1</ele>
    <time>2018-01-27T07:06:01Z</time>
   </trkpt>
   <trkpt lat="12.9395030" lon="99.7110800">
    <ele>74.4</ele>
    <time>2018-01-27T07:06:02Z</time>
   </trkpt>
   <trkpt lat="12.9395370" lon="99.7110920">
    <ele>74.8</ele>
    <time>2018-01-27T07:06:03Z</time>
   </trkpt>
   <trkpt lat="12.9395760" lon="99.7111020">
    <ele>74.7</ele>
    <time>2018-01-27T07:06:04Z</time>
   </trkpt>
   <trkpt lat="12.9396160" lon="99.7111150">
    <ele>74.9</ele>
    <time>2018-01-27T07:06:05Z</time>
   </trkpt>
   <trkpt lat="12.9396590" lon="99.7111270">
    <ele>75.1</ele>
    <time>2018-01-27T07:06:06Z</time>
   </trkpt>
   <trkpt lat="12.9397000" lon="99.7111400">
    <ele>75.3</ele>
    <time>2018-01-27T07:06:07Z</time>
   </trkpt>
   <trkpt lat="12.9397400" lon="99.7111510">
    <ele>75.1</ele>
    <time>2018-01-27T07:06:08Z</time>
   </trkpt>
   <trkpt lat="12.9397800" lon="99.7111620">
    <ele>74.8</ele>
    <time>2018-01-27T07:06:09Z</time>
   </trkpt>
   <trkpt lat="12.9398200" lon="99.7111740">
    <ele>74.8</ele>
    <time>2018-01-27T07:06:10Z</time>
   </trkpt>
   <trkpt lat="12.9398610" lon="99.7111880">
    <ele>74.3</ele>
    <time>2018-01-27T07:06:11Z</time>
   </trkpt>
   <trkpt lat="12.9399060" lon="99.7112100">
    <ele>73.8</ele>
    <time>2018-01-27T07:06:12Z</time>
   </trkpt>
   <trkpt lat="12.9399480" lon="99.7112320">
    <ele>73.0</ele>
    <time>2018-01-27T07:06:13Z</time>
   </trkpt>
   <trkpt lat="12.9399850" lon="99.7112460">
    <ele>73.0</ele>
    <time>2018-01-27T07:06:14Z</time>
   </trkpt>
   <trkpt lat="12.9400390" lon="99.7112680">
    <ele>72.0</ele>
    <time>2018-01-27T07:06:16Z</time>
   </trkpt>
   <trkpt lat="12.9400400" lon="99.7113300">
    <ele>71.9</ele>
    <time>2018-01-27T07:07:03Z</time>
   </trkpt>
   <trkpt lat="12.9400540" lon="99.7113670">
    <ele>71.9</ele>
    <time>2018-01-27T07:07:05Z</time>
   </trkpt>
   <trkpt lat="12.9400540" lon="99.7113980">
    <ele>71.8</ele>
    <time>2018-01-27T07:07:06Z</time>
   </trkpt>
   <trkpt lat="12.9400500" lon="99.7114280">
    <ele>71.8</ele>
    <time>2018-01-27T07:07:07Z</time>
   </trkpt>
   <trkpt lat="12.9400410" lon="99.7114640">
    <ele>71.7</ele>
    <time>2018-01-27T07:07:08Z</time>
   </trkpt>
   <trkpt lat="12.9400250" lon="99.7115110">
    <ele>71.7</ele>
    <time>2018-01-27T07:07:09Z</time>
   </trkpt>
   <trkpt lat="12.9400050" lon="99.7115530">
    <ele>71.5</ele>
    <time>2018-01-27T07:07:10Z</time>
   </trkpt>
   <trkpt lat="12.9399780" lon="99.7115920">
    <ele>71.4</ele>
    <time>2018-01-27T07:07:11Z</time>
   </trkpt>
   <trkpt lat="12.9399580" lon="99.7116420">
    <ele>71.3</ele>
    <time>2018-01-27T07:07:12Z</time>
   </trkpt>
   <trkpt lat="12.9399370" lon="99.7116800">
    <ele>71.2</ele>
    <time>2018-01-27T07:07:13Z</time>
   </trkpt>
   <trkpt lat="12.9399150" lon="99.7117290">
    <ele>71.1</ele>
    <time>2018-01-27T07:07:14Z</time>
   </trkpt>
   <trkpt lat="12.9399050" lon="99.7117860">
    <ele>70.9</ele>
    <time>2018-01-27T07:07:15Z</time>
   </trkpt>
   <trkpt lat="12.9398880" lon="99.7118360">
    <ele>70.8</ele>
    <time>2018-01-27T07:07:16Z</time>
   </trkpt>
   <trkpt lat="12.9398650" lon="99.7118910">
    <ele>70.7</ele>
    <time>2018-01-27T07:07:17Z</time>
   </trkpt>
   <trkpt lat="12.9398430" lon="99.7119480">
    <ele>70.6</ele>
    <time>2018-01-27T07:07:18Z</time>
   </trkpt>
   <trkpt lat="12.9398190" lon="99.7120030">
    <ele>70.5</ele>
    <time>2018-01-27T07:07:19Z</time>
   </trkpt>
   <trkpt lat="12.9397890" lon="99.7120530">
    <ele>70.4</ele>
    <time>2018-01-27T07:07:20Z</time>
   </trkpt>
   <trkpt lat="12.9397750" lon="99.7121090">
    <ele>70.3</ele>
    <time>2018-01-27T07:07:21Z</time>
   </trkpt>
   <trkpt lat="12.9397500" lon="99.7121650">
    <ele>70.1</ele>
    <time>2018-01-27T07:07:22Z</time>
   </trkpt>
   <trkpt lat="12.9397240" lon="99.7122170">
    <ele>70.0</ele>
    <time>2018-01-27T07:07:23Z</time>
   </trkpt>
   <trkpt lat="12.9396990" lon="99.7122780">
    <ele>69.9</ele>
    <time>2018-01-27T07:07:24Z</time>
   </trkpt>
   <trkpt lat="12.9396760" lon="99.7123290">
    <ele>69.8</ele>
    <time>2018-01-27T07:07:25Z</time>
   </trkpt>
   <trkpt lat="12.9396540" lon="99.7123790">
    <ele>69.7</ele>
    <time>2018-01-27T07:07:26Z</time>
   </trkpt>
   <trkpt lat="12.9396290" lon="99.7124360">
    <ele>69.6</ele>
    <time>2018-01-27T07:07:27Z</time>
   </trkpt>
   <trkpt lat="12.9396050" lon="99.7124910">
    <ele>69.5</ele>
    <time>2018-01-27T07:07:28Z</time>
   </trkpt>
   <trkpt lat="12.9395770" lon="99.7125470">
    <ele>69.3</ele>
    <time>2018-01-27T07:07:29Z</time>
   </trkpt>
   <trkpt lat="12.9395510" lon="99.7126110">
    <ele>69.2</ele>
    <time>2018-01-27T07:07:30Z</time>
   </trkpt>
   <trkpt lat="12.9395240" lon="99.7126800">
    <ele>69.1</ele>
    <time>2018-01-27T07:07:31Z</time>
   </trkpt>
   <trkpt lat="12.9394950" lon="99.7127310">
    <ele>68.9</ele>
    <time>2018-01-27T07:07:32Z</time>
   </trkpt>
   <trkpt lat="12.9394770" lon="99.7127970">
    <ele>68.8</ele>
    <time>2018-01-27T07:07:33Z</time>
   </trkpt>
   <trkpt lat="12.9394480" lon="99.7128630">
    <ele>68.6</ele>
    <time>2018-01-27T07:07:34Z</time>
   </trkpt>
   <trkpt lat="12.9394180" lon="99.7129210">
    <ele>68.5</ele>
    <time>2018-01-27T07:07:35Z</time>
   </trkpt>
   <trkpt lat="12.9393860" lon="99.7129800">
    <ele>68.3</ele>
    <time>2018-01-27T07:07:36Z</time>
   </trkpt>
   <trkpt lat="12.9393600" lon="99.7130400">
    <ele>68.2</ele>
    <time>2018-01-27T07:07:37Z</time>
   </trkpt>
   <trkpt lat="12.9393280" lon="99.7130960">
    <ele>68.0</ele>
    <time>2018-01-27T07:07:38Z</time>
   </trkpt>
   <trkpt lat="12.9393010" lon="99.7131420">
    <ele>67.9</ele>
    <time>2018-01-27T07:07:39Z</time>
   </trkpt>
   <trkpt lat="12.9392960" lon="99.7131990">
    <ele>67.8</ele>
    <time>2018-01-27T07:07:40Z</time>
   </trkpt>
   <trkpt lat="12.9393240" lon="99.7132350">
    <ele>67.7</ele>
    <time>2018-01-27T07:07:41Z</time>
   </trkpt>
   <trkpt lat="12.9393450" lon="99.7132560">
    <ele>67.7</ele>
    <time>2018-01-27T07:07:42Z</time>
   </trkpt>
   <trkpt lat="12.9393900" lon="99.7132720">
    <ele>68.1</ele>
    <time>2018-01-27T07:07:43Z</time>
   </trkpt>
   <trkpt lat="12.9394310" lon="99.7132880">
    <ele>68.6</ele>
    <time>2018-01-27T07:07:44Z</time>
   </trkpt>
   <trkpt lat="12.9394840" lon="99.7133150">
    <ele>68.8</ele>
    <time>2018-01-27T07:07:45Z</time>
   </trkpt>
   <trkpt lat="12.9395290" lon="99.7133440">
    <ele>69.3</ele>
    <time>2018-01-27T07:07:46Z</time>
   </trkpt>
   <trkpt lat="12.9395720" lon="99.7133780">
    <ele>69.4</ele>
    <time>2018-01-27T07:07:47Z</time>
   </trkpt>
   <trkpt lat="12.9396280" lon="99.7133980">
    <ele>69.7</ele>
    <time>2018-01-27T07:07:48Z</time>
   </trkpt>
   <trkpt lat="12.9396830" lon="99.7134170">
    <ele>69.7</ele>
    <time>2018-01-27T07:07:49Z</time>
   </trkpt>
   <trkpt lat="12.9397320" lon="99.7134420">
    <ele>69.9</ele>
    <time>2018-01-27T07:07:50Z</time>
   </trkpt>
   <trkpt lat="12.9397830" lon="99.7134470">
    <ele>70.1</ele>
    <time>2018-01-27T07:07:51Z</time>
   </trkpt>
   <trkpt lat="12.9398360" lon="99.7134590">
    <ele>70.1</ele>
    <time>2018-01-27T07:07:52Z</time>
   </trkpt>
   <trkpt lat="12.9398880" lon="99.7134730">
    <ele>69.8</ele>
    <time>2018-01-27T07:07:53Z</time>
   </trkpt>
   <trkpt lat="12.9399380" lon="99.7134940">
    <ele>69.8</ele>
    <time>2018-01-27T07:07:54Z</time>
   </trkpt>
   <trkpt lat="12.9399860" lon="99.7135140">
    <ele>69.6</ele>
    <time>2018-01-27T07:07:55Z</time>
   </trkpt>
   <trkpt lat="12.9400380" lon="99.7135260">
    <ele>69.6</ele>
    <time>2018-01-27T07:07:56Z</time>
   </trkpt>
   <trkpt lat="12.9400950" lon="99.7135390">
    <ele>69.6</ele>
    <time>2018-01-27T07:07:57Z</time>
   </trkpt>
   <trkpt lat="12.9401570" lon="99.7135550">
    <ele>69.5</ele>
    <time>2018-01-27T07:07:58Z</time>
   </trkpt>
   <trkpt lat="12.9402140" lon="99.7135860">
    <ele>69.5</ele>
    <time>2018-01-27T07:07:59Z</time>
   </trkpt>
   <trkpt lat="12.9402740" lon="99.7136110">
    <ele>69.5</ele>
    <time>2018-01-27T07:08:00Z</time>
   </trkpt>
   <trkpt lat="12.9403330" lon="99.7136310">
    <ele>69.3</ele>
    <time>2018-01-27T07:08:01Z</time>
   </trkpt>
   <trkpt lat="12.9403960" lon="99.7136450">
    <ele>69.2</ele>
    <time>2018-01-27T07:08:02Z</time>
   </trkpt>
   <trkpt lat="12.9404540" lon="99.7136540">
    <ele>69.2</ele>
    <time>2018-01-27T07:08:03Z</time>
   </trkpt>
   <trkpt lat="12.9405180" lon="99.7136700">
    <ele>69.2</ele>
    <time>2018-01-27T07:08:04Z</time>
   </trkpt>
   <trkpt lat="12.9405750" lon="99.7136910">
    <ele>69.3</ele>
    <time>2018-01-27T07:08:05Z</time>
   </trkpt>
   <trkpt lat="12.9406350" lon="99.7137160">
    <ele>69.0</ele>
    <time>2018-01-27T07:08:06Z</time>
   </trkpt>
   <trkpt lat="12.9406980" lon="99.7137240">
    <ele>68.9</ele>
    <time>2018-01-27T07:08:07Z</time>
   </trkpt>
   <trkpt lat="12.9407600" lon="99.7137500">
    <ele>68.7</ele>
    <time>2018-01-27T07:08:08Z</time>
   </trkpt>
   <trkpt lat="12.9408250" lon="99.7137630">
    <ele>68.7</ele>
    <time>2018-01-27T07:08:09Z</time>
   </trkpt>
   <trkpt lat="12.9408850" lon="99.7137880">
    <ele>68.5</ele>
    <time>2018-01-27T07:08:10Z</time>
   </trkpt>
   <trkpt lat="12.9409480" lon="99.7138110">
    <ele>68.1</ele>
    <time>2018-01-27T07:08:11Z</time>
   </trkpt>
   <trkpt lat="12.9410070" lon="99.7138360">
    <ele>67.1</ele>
    <time>2018-01-27T07:08:12Z</time>
   </trkpt>
   <trkpt lat="12.9410620" lon="99.7138570">
    <ele>66.6</ele>
    <time>2018-01-27T07:08:13Z</time>
   </trkpt>
   <trkpt lat="12.9411290" lon="99.7138800">
    <ele>66.1</ele>
    <time>2018-01-27T07:08:14Z</time>
   </trkpt>
   <trkpt lat="12.9412030" lon="99.7139020">
    <ele>65.6</ele>
    <time>2018-01-27T07:08:15Z</time>
   </trkpt>
   <trkpt lat="12.9412590" lon="99.7139330">
    <ele>65.3</ele>
    <time>2018-01-27T07:08:16Z</time>
   </trkpt>
   <trkpt lat="12.9413250" lon="99.7139550">
    <ele>65.1</ele>
    <time>2018-01-27T07:08:17Z</time>
   </trkpt>
   <trkpt lat="12.9413890" lon="99.7139800">
    <ele>64.6</ele>
    <time>2018-01-27T07:08:18Z</time>
   </trkpt>
   <trkpt lat="12.9414570" lon="99.7139970">
    <ele>64.5</ele>
    <time>2018-01-27T07:08:19Z</time>
   </trkpt>
   <trkpt lat="12.9415200" lon="99.7140110">
    <ele>64.5</ele>
    <time>2018-01-27T07:08:20Z</time>
   </trkpt>
   <trkpt lat="12.9415880" lon="99.7140020">
    <ele>64.6</ele>
    <time>2018-01-27T07:08:21Z</time>
   </trkpt>
   <trkpt lat="12.9416730" lon="99.7139890">
    <ele>65.0</ele>
    <time>2018-01-27T07:08:22Z</time>
   </trkpt>
   <trkpt lat="12.9417490" lon="99.7139780">
    <ele>65.2</ele>
    <time>2018-01-27T07:08:23Z</time>
   </trkpt>
   <trkpt lat="12.9418190" lon="99.7139720">
    <ele>64.9</ele>
    <time>2018-01-27T07:08:24Z</time>
   </trkpt>
   <trkpt lat="12.9418980" lon="99.7139710">
    <ele>64.9</ele>
    <time>2018-01-27T07:08:25Z</time>
   </trkpt>
   <trkpt lat="12.9419710" lon="99.7139910">
    <ele>65.2</ele>
    <time>2018-01-27T07:08:26Z</time>
   </trkpt>
   <trkpt lat="12.9420380" lon="99.7140130">
    <ele>65.2</ele>
    <time>2018-01-27T07:08:27Z</time>
   </trkpt>
   <trkpt lat="12.9421060" lon="99.7140440">
    <ele>65.3</ele>
    <time>2018-01-27T07:08:28Z</time>
   </trkpt>
   <trkpt lat="12.9421630" lon="99.7140830">
    <ele>64.8</ele>
    <time>2018-01-27T07:08:29Z</time>
   </trkpt>
   <trkpt lat="12.9422270" lon="99.7141190">
    <ele>64.6</ele>
    <time>2018-01-27T07:08:30Z</time>
   </trkpt>
   <trkpt lat="12.9422970" lon="99.7141530">
    <ele>64.5</ele>
    <time>2018-01-27T07:08:31Z</time>
   </trkpt>
   <trkpt lat="12.9423610" lon="99.7141870">
    <ele>64.5</ele>
    <time>2018-01-27T07:08:32Z</time>
   </trkpt>
   <trkpt lat="12.9424320" lon="99.7142200">
    <ele>64.5</ele>
    <time>2018-01-27T07:08:33Z</time>
   </trkpt>
   <trkpt lat="12.9425090" lon="99.7142620">
    <ele>64.5</ele>
    <time>2018-01-27T07:08:34Z</time>
   </trkpt>
   <trkpt lat="12.9425850" lon="99.7143070">
    <ele>64.6</ele>
    <time>2018-01-27T07:08:35Z</time>
   </trkpt>
   <trkpt lat="12.9426600" lon="99.7143550">
    <ele>64.7</ele>
    <time>2018-01-27T07:08:36Z</time>
   </trkpt>
   <trkpt lat="12.9427310" lon="99.7143870">
    <ele>64.6</ele>
    <time>2018-01-27T07:08:37Z</time>
   </trkpt>
   <trkpt lat="12.9428110" lon="99.7144090">
    <ele>64.5</ele>
    <time>2018-01-27T07:08:38Z</time>
   </trkpt>
   <trkpt lat="12.9428850" lon="99.7144330">
    <ele>64.4</ele>
    <time>2018-01-27T07:08:39Z</time>
   </trkpt>
   <trkpt lat="12.9429540" lon="99.7144490">
    <ele>64.1</ele>
    <time>2018-01-27T07:08:40Z</time>
   </trkpt>
   <trkpt lat="12.9430210" lon="99.7144530">
    <ele>64.1</ele>
    <time>2018-01-27T07:08:41Z</time>
   </trkpt>
   <trkpt lat="12.9430900" lon="99.7144630">
    <ele>64.0</ele>
    <time>2018-01-27T07:08:42Z</time>
   </trkpt>
   <trkpt lat="12.9431590" lon="99.7144820">
    <ele>63.9</ele>
    <time>2018-01-27T07:08:43Z</time>
   </trkpt>
   <trkpt lat="12.9432250" lon="99.7144930">
    <ele>63.6</ele>
    <time>2018-01-27T07:08:44Z</time>
   </trkpt>
   <trkpt lat="12.9432930" lon="99.7145170">
    <ele>63.5</ele>
    <time>2018-01-27T07:08:45Z</time>
   </trkpt>
   <trkpt lat="12.9433700" lon="99.7145440">
    <ele>63.5</ele>
    <time>2018-01-27T07:08:46Z</time>
   </trkpt>
   <trkpt lat="12.9434440" lon="99.7145500">
    <ele>63.5</ele>
    <time>2018-01-27T07:08:47Z</time>
   </trkpt>
   <trkpt lat="12.9435010" lon="99.7145550">
    <ele>63.5</ele>
    <time>2018-01-27T07:08:48Z</time>
   </trkpt>
   <trkpt lat="12.9435510" lon="99.7145450">
    <ele>63.5</ele>
    <time>2018-01-27T07:08:49Z</time>
   </trkpt>
   <trkpt lat="12.9435890" lon="99.7145410">
    <ele>63.5</ele>
    <time>2018-01-27T07:08:50Z</time>
   </trkpt>
   <trkpt lat="12.9436290" lon="99.7145500">
    <ele>63.5</ele>
    <time>2018-01-27T07:08:51Z</time>
   </trkpt>
   <trkpt lat="12.9436680" lon="99.7145570">
    <ele>63.5</ele>
    <time>2018-01-27T07:08:52Z</time>
   </trkpt>
   <trkpt lat="12.9436990" lon="99.7145730">
    <ele>63.5</ele>
    <time>2018-01-27T07:08:53Z</time>
   </trkpt>
   <trkpt lat="12.9437210" lon="99.7145960">
    <ele>63.4</ele>
    <time>2018-01-27T07:08:55Z</time>
   </trkpt>
   <trkpt lat="12.9437150" lon="99.7146350">
    <ele>63.1</ele>
    <time>2018-01-27T07:09:00Z</time>
   </trkpt>
   <trkpt lat="12.9437230" lon="99.7146670">
    <ele>62.9</ele>
    <time>2018-01-27T07:09:01Z</time>
   </trkpt>
   <trkpt lat="12.9437390" lon="99.7147010">
    <ele>62.9</ele>
    <time>2018-01-27T07:09:02Z</time>
   </trkpt>
   <trkpt lat="12.9437600" lon="99.7147310">
    <ele>62.7</ele>
    <time>2018-01-27T07:09:03Z</time>
   </trkpt>
   <trkpt lat="12.9437860" lon="99.7147710">
    <ele>62.5</ele>
    <time>2018-01-27T07:09:05Z</time>
   </trkpt>
   <trkpt lat="12.9438060" lon="99.7147890">
    <ele>62.8</ele>
    <time>2018-01-27T07:09:07Z</time>
   </trkpt>
   <trkpt lat="12.9438410" lon="99.7147960">
    <ele>62.8</ele>
    <time>2018-01-27T07:09:09Z</time>
   </trkpt>
   <trkpt lat="12.9438670" lon="99.7148070">
    <ele>62.8</ele>
    <time>2018-01-27T07:09:19Z</time>
   </trkpt>
   <trkpt lat="12.9438810" lon="99.7148320">
    <ele>63.0</ele>
    <time>2018-01-27T07:09:28Z</time>
   </trkpt>
   <trkpt lat="12.9439120" lon="99.7148310">
    <ele>63.0</ele>
    <time>2018-01-27T07:09:32Z</time>
   </trkpt>
   <trkpt lat="12.9439480" lon="99.7148270">
    <ele>63.3</ele>
    <time>2018-01-27T07:09:37Z</time>
   </trkpt>
   <trkpt lat="12.9439770" lon="99.7148430">
    <ele>63.5</ele>
    <time>2018-01-27T07:09:42Z</time>
   </trkpt>
   <trkpt lat="12.9440040" lon="99.7148510">
    <ele>63.9</ele>
    <time>2018-01-27T07:09:45Z</time>
   </trkpt>
   <trkpt lat="12.9440240" lon="99.7148300">
    <ele>64.0</ele>
    <time>2018-01-27T07:09:52Z</time>
   </trkpt>
   <trkpt lat="12.9439950" lon="99.7148090">
    <ele>63.7</ele>
    <time>2018-01-27T07:09:55Z</time>
   </trkpt>
   <trkpt lat="12.9439770" lon="99.7147780">
    <ele>63.8</ele>
    <time>2018-01-27T07:09:57Z</time>
   </trkpt>
   <trkpt lat="12.9439620" lon="99.7147460">
    <ele>63.9</ele>
    <time>2018-01-27T07:09:59Z</time>
   </trkpt>
   <trkpt lat="12.9439360" lon="99.7147130">
    <ele>63.7</ele>
    <time>2018-01-27T07:10:01Z</time>
   </trkpt>
   <trkpt lat="12.9438980" lon="99.7146740">
    <ele>63.5</ele>
    <time>2018-01-27T07:10:03Z</time>
   </trkpt>
   <trkpt lat="12.9438750" lon="99.7146280">
    <ele>63.4</ele>
    <time>2018-01-27T07:10:05Z</time>
   </trkpt>
   <trkpt lat="12.9438810" lon="99.7145790">
    <ele>63.5</ele>
    <time>2018-01-27T07:10:07Z</time>
   </trkpt>
   <trkpt lat="12.9438970" lon="99.7145550">
    <ele>63.5</ele>
    <time>2018-01-27T07:10:08Z</time>
   </trkpt>
   <trkpt lat="12.9439190" lon="99.7145320">
    <ele>63.5</ele>
    <time>2018-01-27T07:10:09Z</time>
   </trkpt>
   <trkpt lat="12.9439430" lon="99.7145110">
    <ele>63.5</ele>
    <time>2018-01-27T07:10:10Z</time>
   </trkpt>
   <trkpt lat="12.9439680" lon="99.7144900">
    <ele>63.5</ele>
    <time>2018-01-27T07:10:11Z</time>
   </trkpt>
   <trkpt lat="12.9439920" lon="99.7144720">
    <ele>63.5</ele>
    <time>2018-01-27T07:10:12Z</time>
   </trkpt>
   <trkpt lat="12.9440170" lon="99.7144540">
    <ele>63.5</ele>
    <time>2018-01-27T07:10:13Z</time>
   </trkpt>
   <trkpt lat="12.9440460" lon="99.7144310">
    <ele>63.5</ele>
    <time>2018-01-27T07:10:14Z</time>
   </trkpt>
   <trkpt lat="12.9440730" lon="99.7144080">
    <ele>63.5</ele>
    <time>2018-01-27T07:10:15Z</time>
   </trkpt>
   <trkpt lat="12.9440950" lon="99.7143860">
    <ele>63.6</ele>
    <time>2018-01-27T07:10:16Z</time>
   </trkpt>
   <trkpt lat="12.9441130" lon="99.7143660">
    <ele>63.6</ele>
    <time>2018-01-27T07:10:17Z</time>
   </trkpt>
   <trkpt lat="12.9441470" lon="99.7143270">
    <ele>63.7</ele>
    <time>2018-01-27T07:10:19Z</time>
   </trkpt>
   <trkpt lat="12.9441890" lon="99.7142870">
    <ele>63.7</ele>
    <time>2018-01-27T07:10:21Z</time>
   </trkpt>
   <trkpt lat="12.9442110" lon="99.7142670">
    <ele>63.8</ele>
    <time>2018-01-27T07:10:22Z</time>
   </trkpt>
   <trkpt lat="12.9442320" lon="99.7142450">
    <ele>63.6</ele>
    <time>2018-01-27T07:10:23Z</time>
   </trkpt>
   <trkpt lat="12.9442550" lon="99.7142170">
    <ele>63.7</ele>
    <time>2018-01-27T07:10:24Z</time>
   </trkpt>
   <trkpt lat="12.9442780" lon="99.7141910">
    <ele>63.7</ele>
    <time>2018-01-27T07:10:25Z</time>
   </trkpt>
   <trkpt lat="12.9443010" lon="99.7141660">
    <ele>64.1</ele>
    <time>2018-01-27T07:10:26Z</time>
   </trkpt>
   <trkpt lat="12.9443240" lon="99.7141430">
    <ele>64.5</ele>
    <time>2018-01-27T07:10:27Z</time>
   </trkpt>
   <trkpt lat="12.9443470" lon="99.7141240">
    <ele>64.3</ele>
    <time>2018-01-27T07:10:28Z</time>
   </trkpt>
   <trkpt lat="12.9443830" lon="99.7140820">
    <ele>64.4</ele>
    <time>2018-01-27T07:10:30Z</time>
   </trkpt>
   <trkpt lat="12.9443990" lon="99.7140530">
    <ele>64.6</ele>
    <time>2018-01-27T07:10:31Z</time>
   </trkpt>
   <trkpt lat="12.9444160" lon="99.7140230">
    <ele>64.6</ele>
    <time>2018-01-27T07:10:32Z</time>
   </trkpt>
   <trkpt lat="12.9444350" lon="99.7139960">
    <ele>64.3</ele>
    <time>2018-01-27T07:10:33Z</time>
   </trkpt>
   <trkpt lat="12.9444560" lon="99.7139720">
    <ele>64.3</ele>
    <time>2018-01-27T07:10:34Z</time>
   </trkpt>
   <trkpt lat="12.9444780" lon="99.7139500">
    <ele>64.0</ele>
    <time>2018-01-27T07:10:35Z</time>
   </trkpt>
   <trkpt lat="12.9445000" lon="99.7139270">
    <ele>64.1</ele>
    <time>2018-01-27T07:10:36Z</time>
   </trkpt>
   <trkpt lat="12.9445210" lon="99.7139020">
    <ele>63.8</ele>
    <time>2018-01-27T07:10:37Z</time>
   </trkpt>
   <trkpt lat="12.9445390" lon="99.7138750">
    <ele>63.9</ele>
    <time>2018-01-27T07:10:38Z</time>
   </trkpt>
   <trkpt lat="12.9445540" lon="99.7138460">
    <ele>63.7</ele>
    <time>2018-01-27T07:10:39Z</time>
   </trkpt>
   <trkpt lat="12.9445700" lon="99.7138130">
    <ele>63.9</ele>
    <time>2018-01-27T07:10:40Z</time>
   </trkpt>
   <trkpt lat="12.9445890" lon="99.7137800">
    <ele>64.1</ele>
    <time>2018-01-27T07:10:41Z</time>
   </trkpt>
   <trkpt lat="12.9446110" lon="99.7137510">
    <ele>64.3</ele>
    <time>2018-01-27T07:10:42Z</time>
   </trkpt>
   <trkpt lat="12.9446360" lon="99.7137230">
    <ele>64.3</ele>
    <time>2018-01-27T07:10:43Z</time>
   </trkpt>
   <trkpt lat="12.9446640" lon="99.7136980">
    <ele>64.5</ele>
    <time>2018-01-27T07:10:44Z</time>
   </trkpt>
   <trkpt lat="12.9446920" lon="99.7136760">
    <ele>64.5</ele>
    <time>2018-01-27T07:10:45Z</time>
   </trkpt>
   <trkpt lat="12.9447230" lon="99.7136620">
    <ele>64.5</ele>
    <time>2018-01-27T07:10:46Z</time>
   </trkpt>
   <trkpt lat="12.9447580" lon="99.7136580">
    <ele>64.5</ele>
    <time>2018-01-27T07:10:47Z</time>
   </trkpt>
   <trkpt lat="12.9447960" lon="99.7136870">
    <ele>64.5</ele>
    <time>2018-01-27T07:10:48Z</time>
   </trkpt>
   <trkpt lat="12.9448290" lon="99.7137020">
    <ele>64.5</ele>
    <time>2018-01-27T07:10:49Z</time>
   </trkpt>
   <trkpt lat="12.9448470" lon="99.7137300">
    <ele>64.3</ele>
    <time>2018-01-27T07:10:50Z</time>
   </trkpt>
   <trkpt lat="12.9448770" lon="99.7137750">
    <ele>64.1</ele>
    <time>2018-01-27T07:10:52Z</time>
   </trkpt>
   <trkpt lat="12.9448970" lon="99.7138010">
    <ele>64.1</ele>
    <time>2018-01-27T07:10:53Z</time>
   </trkpt>
   <trkpt lat="12.9449200" lon="99.7138370">
    <ele>63.8</ele>
    <time>2018-01-27T07:10:54Z</time>
   </trkpt>
   <trkpt lat="12.9449440" lon="99.7138700">
    <ele>63.6</ele>
    <time>2018-01-27T07:10:55Z</time>
   </trkpt>
   <trkpt lat="12.9449830" lon="99.7139210">
    <ele>63.5</ele>
    <time>2018-01-27T07:10:56Z</time>
   </trkpt>
   <trkpt lat="12.9450260" lon="99.7139550">
    <ele>63.5</ele>
    <time>2018-01-27T07:10:57Z</time>
   </trkpt>
   <trkpt lat="12.9450630" lon="99.7139940">
    <ele>63.5</ele>
    <time>2018-01-27T07:10:58Z</time>
   </trkpt>
   <trkpt lat="12.9450980" lon="99.7140380">
    <ele>63.4</ele>
    <time>2018-01-27T07:10:59Z</time>
   </trkpt>
   <trkpt lat="12.9451270" lon="99.7140870">
    <ele>63.4</ele>
    <time>2018-01-27T07:11:00Z</time>
   </trkpt>
   <trkpt lat="12.9451520" lon="99.7141340">
    <ele>63.1</ele>
    <time>2018-01-27T07:11:01Z</time>
   </trkpt>
   <trkpt lat="12.9451700" lon="99.7141830">
    <ele>63.1</ele>
    <time>2018-01-27T07:11:02Z</time>
   </trkpt>
   <trkpt lat="12.9451860" lon="99.7142270">
    <ele>62.9</ele>
    <time>2018-01-27T07:11:03Z</time>
   </trkpt>
   <trkpt lat="12.9452080" lon="99.7142700">
    <ele>63.0</ele>
    <time>2018-01-27T07:11:04Z</time>
   </trkpt>
   <trkpt lat="12.9452250" lon="99.7143180">
    <ele>63.2</ele>
    <time>2018-01-27T07:11:05Z</time>
   </trkpt>
   <trkpt lat="12.9452440" lon="99.7143680">
    <ele>63.4</ele>
    <time>2018-01-27T07:11:06Z</time>
   </trkpt>
   <trkpt lat="12.9452580" lon="99.7144230">
    <ele>63.4</ele>
    <time>2018-01-27T07:11:07Z</time>
   </trkpt>
   <trkpt lat="12.9452610" lon="99.7144690">
    <ele>63.4</ele>
    <time>2018-01-27T07:11:08Z</time>
   </trkpt>
   <trkpt lat="12.9452710" lon="99.7145150">
    <ele>63.5</ele>
    <time>2018-01-27T07:11:09Z</time>
   </trkpt>
   <trkpt lat="12.9452730" lon="99.7145440">
    <ele>63.5</ele>
    <time>2018-01-27T07:11:10Z</time>
   </trkpt>
   <trkpt lat="12.9452580" lon="99.7145750">
    <ele>63.5</ele>
    <time>2018-01-27T07:11:12Z</time>
   </trkpt>
   <trkpt lat="12.9452540" lon="99.7145460">
    <ele>63.5</ele>
    <time>2018-01-27T07:12:13Z</time>
   </trkpt>
   <trkpt lat="12.9452860" lon="99.7145250">
    <ele>63.5</ele>
    <time>2018-01-27T07:12:16Z</time>
   </trkpt>
   <trkpt lat="12.9453120" lon="99.7145680">
    <ele>63.5</ele>
    <time>2018-01-27T07:12:19Z</time>
   </trkpt>
   <trkpt lat="12.9453190" lon="99.7145980">
    <ele>63.6</ele>
    <time>2018-01-27T07:12:20Z</time>
   </trkpt>
   <trkpt lat="12.9453290" lon="99.7146290">
    <ele>63.7</ele>
    <time>2018-01-27T07:12:21Z</time>
   </trkpt>
   <trkpt lat="12.9453450" lon="99.7146600">
    <ele>63.8</ele>
    <time>2018-01-27T07:12:22Z</time>
   </trkpt>
   <trkpt lat="12.9453650" lon="99.7146860">
    <ele>63.9</ele>
    <time>2018-01-27T07:12:23Z</time>
   </trkpt>
   <trkpt lat="12.9453880" lon="99.7147100">
    <ele>64.3</ele>
    <time>2018-01-27T07:12:24Z</time>
   </trkpt>
   <trkpt lat="12.9454090" lon="99.7147320">
    <ele>64.3</ele>
    <time>2018-01-27T07:12:25Z</time>
   </trkpt>
   <trkpt lat="12.9454440" lon="99.7147750">
    <ele>64.5</ele>
    <time>2018-01-27T07:12:27Z</time>
   </trkpt>
   <trkpt lat="12.9454660" lon="99.7148030">
    <ele>64.6</ele>
    <time>2018-01-27T07:12:28Z</time>
   </trkpt>
   <trkpt lat="12.9454890" lon="99.7148280">
    <ele>64.7</ele>
    <time>2018-01-27T07:12:29Z</time>
   </trkpt>
   <trkpt lat="12.9455160" lon="99.7148520">
    <ele>64.9</ele>
    <time>2018-01-27T07:12:30Z</time>
   </trkpt>
   <trkpt lat="12.9455460" lon="99.7148760">
    <ele>65.1</ele>
    <time>2018-01-27T07:12:31Z</time>
   </trkpt>
   <trkpt lat="12.9455790" lon="99.7148970">
    <ele>65.3</ele>
    <time>2018-01-27T07:12:32Z</time>
   </trkpt>
   <trkpt lat="12.9456130" lon="99.7149140">
    <ele>65.4</ele>
    <time>2018-01-27T07:12:33Z</time>
   </trkpt>
   <trkpt lat="12.9456510" lon="99.7149290">
    <ele>65.5</ele>
    <time>2018-01-27T07:12:34Z</time>
   </trkpt>
   <trkpt lat="12.9456920" lon="99.7149380">
    <ele>65.5</ele>
    <time>2018-01-27T07:12:35Z</time>
   </trkpt>
   <trkpt lat="12.9457330" lon="99.7149510">
    <ele>65.5</ele>
    <time>2018-01-27T07:12:36Z</time>
   </trkpt>
   <trkpt lat="12.9457740" lon="99.7149650">
    <ele>65.5</ele>
    <time>2018-01-27T07:12:37Z</time>
   </trkpt>
   <trkpt lat="12.9458750" lon="99.7150390">
    <ele>65.1</ele>
    <time>2018-01-27T07:12:38Z</time>
   </trkpt>
   <trkpt lat="12.9459470" lon="99.7150540">
    <ele>64.6</ele>
    <time>2018-01-27T07:12:40Z</time>
   </trkpt>
   <trkpt lat="12.9459840" lon="99.7150630">
    <ele>64.6</ele>
    <time>2018-01-27T07:12:41Z</time>
   </trkpt>
   <trkpt lat="12.9460210" lon="99.7150700">
    <ele>64.6</ele>
    <time>2018-01-27T07:12:42Z</time>
   </trkpt>
   <trkpt lat="12.9460570" lon="99.7150750">
    <ele>64.6</ele>
    <time>2018-01-27T07:12:43Z</time>
   </trkpt>
   <trkpt lat="12.9461010" lon="99.7150810">
    <ele>64.8</ele>
    <time>2018-01-27T07:12:45Z</time>
   </trkpt>
   <trkpt lat="12.9461350" lon="99.7150880">
    <ele>64.8</ele>
    <time>2018-01-27T07:12:47Z</time>
   </trkpt>
   <trkpt lat="12.9461860" lon="99.7151010">
    <ele>65.7</ele>
    <time>2018-01-27T07:12:49Z</time>
   </trkpt>
   <trkpt lat="12.9462200" lon="99.7151100">
    <ele>66.1</ele>
    <time>2018-01-27T07:12:50Z</time>
   </trkpt>
   <trkpt lat="12.9462540" lon="99.7151200">
    <ele>66.1</ele>
    <time>2018-01-27T07:12:51Z</time>
   </trkpt>
   <trkpt lat="12.9462870" lon="99.7151290">
    <ele>66.5</ele>
    <time>2018-01-27T07:12:52Z</time>
   </trkpt>
   <trkpt lat="12.9463220" lon="99.7151370">
    <ele>66.5</ele>
    <time>2018-01-27T07:12:53Z</time>
   </trkpt>
   <trkpt lat="12.9463620" lon="99.7151480">
    <ele>66.7</ele>
    <time>2018-01-27T07:12:54Z</time>
   </trkpt>
   <trkpt lat="12.9464020" lon="99.7151580">
    <ele>67.0</ele>
    <time>2018-01-27T07:12:55Z</time>
   </trkpt>
   <trkpt lat="12.9464400" lon="99.7151690">
    <ele>67.1</ele>
    <time>2018-01-27T07:12:56Z</time>
   </trkpt>
   <trkpt lat="12.9464800" lon="99.7151800">
    <ele>66.9</ele>
    <time>2018-01-27T07:12:57Z</time>
   </trkpt>
   <trkpt lat="12.9465200" lon="99.7151920">
    <ele>66.9</ele>
    <time>2018-01-27T07:12:58Z</time>
   </trkpt>
   <trkpt lat="12.9465560" lon="99.7152030">
    <ele>66.9</ele>
    <time>2018-01-27T07:12:59Z</time>
   </trkpt>
   <trkpt lat="12.9465940" lon="99.7152130">
    <ele>66.9</ele>
    <time>2018-01-27T07:13:00Z</time>
   </trkpt>
   <trkpt lat="12.9466300" lon="99.7152240">
    <ele>66.6</ele>
    <time>2018-01-27T07:13:01Z</time>
   </trkpt>
   <trkpt lat="12.9466690" lon="99.7152370">
    <ele>66.6</ele>
    <time>2018-01-27T07:13:02Z</time>
   </trkpt>
   <trkpt lat="12.9467060" lon="99.7152510">
    <ele>66.6</ele>
    <time>2018-01-27T07:13:03Z</time>
   </trkpt>
   <trkpt lat="12.9467440" lon="99.7152650">
    <ele>66.6</ele>
    <time>2018-01-27T07:13:04Z</time>
   </trkpt>
   <trkpt lat="12.9467820" lon="99.7152770">
    <ele>66.8</ele>
    <time>2018-01-27T07:13:05Z</time>
   </trkpt>
   <trkpt lat="12.9468210" lon="99.7152870">
    <ele>67.3</ele>
    <time>2018-01-27T07:13:06Z</time>
   </trkpt>
   <trkpt lat="12.9468590" lon="99.7152970">
    <ele>67.7</ele>
    <time>2018-01-27T07:13:07Z</time>
   </trkpt>
   <trkpt lat="12.9468990" lon="99.7153060">
    <ele>68.0</ele>
    <time>2018-01-27T07:13:08Z</time>
   </trkpt>
   <trkpt lat="12.9469380" lon="99.7153160">
    <ele>68.4</ele>
    <time>2018-01-27T07:13:09Z</time>
   </trkpt>
   <trkpt lat="12.9469760" lon="99.7153260">
    <ele>68.7</ele>
    <time>2018-01-27T07:13:10Z</time>
   </trkpt>
   <trkpt lat="12.9470110" lon="99.7153380">
    <ele>68.7</ele>
    <time>2018-01-27T07:13:11Z</time>
   </trkpt>
   <trkpt lat="12.9470460" lon="99.7153510">
    <ele>69.0</ele>
    <time>2018-01-27T07:13:12Z</time>
   </trkpt>
   <trkpt lat="12.9470820" lon="99.7153630">
    <ele>69.4</ele>
    <time>2018-01-27T07:13:13Z</time>
   </trkpt>
   <trkpt lat="12.9471190" lon="99.7153720">
    <ele>69.7</ele>
    <time>2018-01-27T07:13:14Z</time>
   </trkpt>
   <trkpt lat="12.9471580" lon="99.7153810">
    <ele>70.0</ele>
    <time>2018-01-27T07:13:15Z</time>
   </trkpt>
   <trkpt lat="12.9471940" lon="99.7153920">
    <ele>70.2</ele>
    <time>2018-01-27T07:13:16Z</time>
   </trkpt>
   <trkpt lat="12.9472310" lon="99.7154050">
    <ele>70.5</ele>
    <time>2018-01-27T07:13:17Z</time>
   </trkpt>
   <trkpt lat="12.9472710" lon="99.7154150">
    <ele>70.7</ele>
    <time>2018-01-27T07:13:18Z</time>
   </trkpt>
   <trkpt lat="12.9473120" lon="99.7154240">
    <ele>71.0</ele>
    <time>2018-01-27T07:13:19Z</time>
   </trkpt>
   <trkpt lat="12.9473540" lon="99.7154320">
    <ele>71.3</ele>
    <time>2018-01-27T07:13:20Z</time>
   </trkpt>
   <trkpt lat="12.9473950" lon="99.7154420">
    <ele>71.2</ele>
    <time>2018-01-27T07:13:21Z</time>
   </trkpt>
   <trkpt lat="12.9474380" lon="99.7154550">
    <ele>71.3</ele>
    <time>2018-01-27T07:13:22Z</time>
   </trkpt>
   <trkpt lat="12.9474820" lon="99.7154650">
    <ele>71.4</ele>
    <time>2018-01-27T07:13:23Z</time>
   </trkpt>
   <trkpt lat="12.9475270" lon="99.7154700">
    <ele>71.4</ele>
    <time>2018-01-27T07:13:24Z</time>
   </trkpt>
   <trkpt lat="12.9475720" lon="99.7154720">
    <ele>71.4</ele>
    <time>2018-01-27T07:13:25Z</time>
   </trkpt>
   <trkpt lat="12.9476190" lon="99.7154700">
    <ele>71.5</ele>
    <time>2018-01-27T07:13:26Z</time>
   </trkpt>
   <trkpt lat="12.9476630" lon="99.7154660">
    <ele>71.5</ele>
    <time>2018-01-27T07:13:27Z</time>
   </trkpt>
   <trkpt lat="12.9477050" lon="99.7154640">
    <ele>71.5</ele>
    <time>2018-01-27T07:13:28Z</time>
   </trkpt>
   <trkpt lat="12.9477450" lon="99.7154630">
    <ele>71.5</ele>
    <time>2018-01-27T07:13:29Z</time>
   </trkpt>
   <trkpt lat="12.9477890" lon="99.7154620">
    <ele>71.4</ele>
    <time>2018-01-27T07:13:30Z</time>
   </trkpt>
   <trkpt lat="12.9478440" lon="99.7154490">
    <ele>71.2</ele>
    <time>2018-01-27T07:13:31Z</time>
   </trkpt>
   <trkpt lat="12.9478910" lon="99.7154460">
    <ele>70.9</ele>
    <time>2018-01-27T07:13:32Z</time>
   </trkpt>
   <trkpt lat="12.9479350" lon="99.7154480">
    <ele>70.5</ele>
    <time>2018-01-27T07:13:33Z</time>
   </trkpt>
   <trkpt lat="12.9479850" lon="99.7154430">
    <ele>70.5</ele>
    <time>2018-01-27T07:13:34Z</time>
   </trkpt>
   <trkpt lat="12.9480350" lon="99.7154400">
    <ele>70.5</ele>
    <time>2018-01-27T07:13:35Z</time>
   </trkpt>
   <trkpt lat="12.9480880" lon="99.7154450">
    <ele>70.5</ele>
    <time>2018-01-27T07:13:36Z</time>
   </trkpt>
   <trkpt lat="12.9481420" lon="99.7154450">
    <ele>70.5</ele>
    <time>2018-01-27T07:13:37Z</time>
   </trkpt>
   <trkpt lat="12.9481930" lon="99.7154420">
    <ele>70.0</ele>
    <time>2018-01-27T07:13:38Z</time>
   </trkpt>
   <trkpt lat="12.9482500" lon="99.7154440">
    <ele>69.8</ele>
    <time>2018-01-27T07:13:39Z</time>
   </trkpt>
   <trkpt lat="12.9483100" lon="99.7154370">
    <ele>69.7</ele>
    <time>2018-01-27T07:13:40Z</time>
   </trkpt>
   <trkpt lat="12.9483680" lon="99.7154290">
    <ele>69.7</ele>
    <time>2018-01-27T07:13:41Z</time>
   </trkpt>
   <trkpt lat="12.9484210" lon="99.7154240">
    <ele>69.7</ele>
    <time>2018-01-27T07:13:42Z</time>
   </trkpt>
   <trkpt lat="12.9484780" lon="99.7154150">
    <ele>69.4</ele>
    <time>2018-01-27T07:13:43Z</time>
   </trkpt>
   <trkpt lat="12.9485350" lon="99.7154080">
    <ele>69.2</ele>
    <time>2018-01-27T07:13:44Z</time>
   </trkpt>
   <trkpt lat="12.9485880" lon="99.7154120">
    <ele>68.9</ele>
    <time>2018-01-27T07:13:45Z</time>
   </trkpt>
   <trkpt lat="12.9486400" lon="99.7154030">
    <ele>68.7</ele>
    <time>2018-01-27T07:13:46Z</time>
   </trkpt>
   <trkpt lat="12.9486960" lon="99.7153900">
    <ele>68.7</ele>
    <time>2018-01-27T07:13:47Z</time>
   </trkpt>
   <trkpt lat="12.9487500" lon="99.7153880">
    <ele>68.5</ele>
    <time>2018-01-27T07:13:48Z</time>
   </trkpt>
   <trkpt lat="12.9487960" lon="99.7153880">
    <ele>68.4</ele>
    <time>2018-01-27T07:13:49Z</time>
   </trkpt>
   <trkpt lat="12.9488460" lon="99.7153800">
    <ele>68.3</ele>
    <time>2018-01-27T07:13:50Z</time>
   </trkpt>
   <trkpt lat="12.9488830" lon="99.7153940">
    <ele>67.9</ele>
    <time>2018-01-27T07:13:51Z</time>
   </trkpt>
   <trkpt lat="12.9489230" lon="99.7154040">
    <ele>67.8</ele>
    <time>2018-01-27T07:13:52Z</time>
   </trkpt>
   <trkpt lat="12.9489410" lon="99.7154410">
    <ele>67.5</ele>
    <time>2018-01-27T07:13:53Z</time>
   </trkpt>
   <trkpt lat="12.9489450" lon="99.7154920">
    <ele>67.2</ele>
    <time>2018-01-27T07:13:54Z</time>
   </trkpt>
   <trkpt lat="12.9489450" lon="99.7155370">
    <ele>67.0</ele>
    <time>2018-01-27T07:13:56Z</time>
   </trkpt>
   <trkpt lat="12.9489420" lon="99.7155930">
    <ele>66.7</ele>
    <time>2018-01-27T07:13:57Z</time>
   </trkpt>
   <trkpt lat="12.9489390" lon="99.7156430">
    <ele>66.5</ele>
    <time>2018-01-27T07:13:58Z</time>
   </trkpt>
   <trkpt lat="12.9489470" lon="99.7156810">
    <ele>66.2</ele>
    <time>2018-01-27T07:13:59Z</time>
   </trkpt>
   <trkpt lat="12.9489520" lon="99.7158860">
    <ele>65.6</ele>
    <time>2018-01-27T07:14:01Z</time>
   </trkpt>
   <trkpt lat="12.9489550" lon="99.7159480">
    <ele>65.6</ele>
    <time>2018-01-27T07:14:02Z</time>
   </trkpt>
   <trkpt lat="12.9489570" lon="99.7160130">
    <ele>65.3</ele>
    <time>2018-01-27T07:14:03Z</time>
   </trkpt>
   <trkpt lat="12.9489560" lon="99.7160820">
    <ele>64.8</ele>
    <time>2018-01-27T07:14:04Z</time>
   </trkpt>
   <trkpt lat="12.9489590" lon="99.7161490">
    <ele>64.5</ele>
    <time>2018-01-27T07:14:05Z</time>
   </trkpt>
   <trkpt lat="12.9489600" lon="99.7162170">
    <ele>63.5</ele>
    <time>2018-01-27T07:14:06Z</time>
   </trkpt>
   <trkpt lat="12.9489610" lon="99.7162810">
    <ele>63.0</ele>
    <time>2018-01-27T07:14:07Z</time>
   </trkpt>
   <trkpt lat="12.9489710" lon="99.7163380">
    <ele>62.1</ele>
    <time>2018-01-27T07:14:08Z</time>
   </trkpt>
   <trkpt lat="12.9489780" lon="99.7164090">
    <ele>61.6</ele>
    <time>2018-01-27T07:14:09Z</time>
   </trkpt>
   <trkpt lat="12.9489920" lon="99.7164690">
    <ele>61.2</ele>
    <time>2018-01-27T07:14:10Z</time>
   </trkpt>
   <trkpt lat="12.9489900" lon="99.7165260">
    <ele>61.2</ele>
    <time>2018-01-27T07:14:11Z</time>
   </trkpt>
   <trkpt lat="12.9489980" lon="99.7165640">
    <ele>61.2</ele>
    <time>2018-01-27T07:14:12Z</time>
   </trkpt>
   <trkpt lat="12.9489760" lon="99.7166040">
    <ele>60.9</ele>
    <time>2018-01-27T07:14:14Z</time>
   </trkpt>
   <trkpt lat="12.9489710" lon="99.7166340">
    <ele>60.9</ele>
    <time>2018-01-27T07:14:15Z</time>
   </trkpt>
   <trkpt lat="12.9489750" lon="99.7166920">
    <ele>61.3</ele>
    <time>2018-01-27T07:14:16Z</time>
   </trkpt>
   <trkpt lat="12.9489820" lon="99.7167510">
    <ele>61.6</ele>
    <time>2018-01-27T07:14:17Z</time>
   </trkpt>
   <trkpt lat="12.9489790" lon="99.7168010">
    <ele>61.7</ele>
    <time>2018-01-27T07:14:18Z</time>
   </trkpt>
   <trkpt lat="12.9489710" lon="99.7168650">
    <ele>62.2</ele>
    <time>2018-01-27T07:14:19Z</time>
   </trkpt>
   <trkpt lat="12.9489780" lon="99.7169270">
    <ele>62.4</ele>
    <time>2018-01-27T07:14:20Z</time>
   </trkpt>
   <trkpt lat="12.9489700" lon="99.7169850">
    <ele>62.8</ele>
    <time>2018-01-27T07:14:21Z</time>
   </trkpt>
   <trkpt lat="12.9489760" lon="99.7170460">
    <ele>62.8</ele>
    <time>2018-01-27T07:14:22Z</time>
   </trkpt>
   <trkpt lat="12.9489720" lon="99.7171060">
    <ele>62.8</ele>
    <time>2018-01-27T07:14:23Z</time>
   </trkpt>
   <trkpt lat="12.9489790" lon="99.7171650">
    <ele>62.8</ele>
    <time>2018-01-27T07:14:24Z</time>
   </trkpt>
   <trkpt lat="12.9489860" lon="99.7172220">
    <ele>62.8</ele>
    <time>2018-01-27T07:14:25Z</time>
   </trkpt>
   <trkpt lat="12.9489920" lon="99.7172720">
    <ele>62.8</ele>
    <time>2018-01-27T07:14:26Z</time>
   </trkpt>
   <trkpt lat="12.9489890" lon="99.7173270">
    <ele>62.6</ele>
    <time>2018-01-27T07:14:27Z</time>
   </trkpt>
   <trkpt lat="12.9489880" lon="99.7173820">
    <ele>62.2</ele>
    <time>2018-01-27T07:14:28Z</time>
   </trkpt>
   <trkpt lat="12.9489820" lon="99.7174340">
    <ele>61.8</ele>
    <time>2018-01-27T07:14:29Z</time>
   </trkpt>
   <trkpt lat="12.9489810" lon="99.7174810">
    <ele>61.4</ele>
    <time>2018-01-27T07:14:30Z</time>
   </trkpt>
   <trkpt lat="12.9489850" lon="99.7175430">
    <ele>60.7</ele>
    <time>2018-01-27T07:14:31Z</time>
   </trkpt>
   <trkpt lat="12.9489780" lon="99.7175850">
    <ele>60.3</ele>
    <time>2018-01-27T07:14:32Z</time>
   </trkpt>
   <trkpt lat="12.9489650" lon="99.7176280">
    <ele>60.0</ele>
    <time>2018-01-27T07:14:33Z</time>
   </trkpt>
   <trkpt lat="12.9489510" lon="99.7176730">
    <ele>59.9</ele>
    <time>2018-01-27T07:14:34Z</time>
   </trkpt>
   <trkpt lat="12.9489250" lon="99.7177130">
    <ele>59.9</ele>
    <time>2018-01-27T07:14:35Z</time>
   </trkpt>
   <trkpt lat="12.9489030" lon="99.7177520">
    <ele>59.9</ele>
    <time>2018-01-27T07:14:36Z</time>
   </trkpt>
   <trkpt lat="12.9488760" lon="99.7177730">
    <ele>59.9</ele>
    <time>2018-01-27T07:14:37Z</time>
   </trkpt>
   <trkpt lat="12.9488620" lon="99.7178050">
    <ele>59.9</ele>
    <time>2018-01-27T07:14:39Z</time>
   </trkpt>
   <trkpt lat="12.9488680" lon="99.7178430">
    <ele>60.0</ele>
    <time>2018-01-27T07:14:40Z</time>
   </trkpt>
   <trkpt lat="12.9488750" lon="99.7178940">
    <ele>60.2</ele>
    <time>2018-01-27T07:14:41Z</time>
   </trkpt>
   <trkpt lat="12.9488870" lon="99.7179430">
    <ele>60.5</ele>
    <time>2018-01-27T07:14:42Z</time>
   </trkpt>
   <trkpt lat="12.9488840" lon="99.7180700">
    <ele>61.0</ele>
    <time>2018-01-27T07:14:43Z</time>
   </trkpt>
   <trkpt lat="12.9488830" lon="99.7181230">
    <ele>61.1</ele>
    <time>2018-01-27T07:14:44Z</time>
   </trkpt>
   <trkpt lat="12.9488840" lon="99.7181770">
    <ele>61.2</ele>
    <time>2018-01-27T07:14:45Z</time>
   </trkpt>
   <trkpt lat="12.9488860" lon="99.7182330">
    <ele>61.1</ele>
    <time>2018-01-27T07:14:46Z</time>
   </trkpt>
   <trkpt lat="12.9488940" lon="99.7182830">
    <ele>61.0</ele>
    <time>2018-01-27T07:14:47Z</time>
   </trkpt>
   <trkpt lat="12.9488990" lon="99.7183340">
    <ele>60.9</ele>
    <time>2018-01-27T07:14:48Z</time>
   </trkpt>
   <trkpt lat="12.9489030" lon="99.7183870">
    <ele>60.8</ele>
    <time>2018-01-27T07:14:49Z</time>
   </trkpt>
   <trkpt lat="12.9489200" lon="99.7184370">
    <ele>60.6</ele>
    <time>2018-01-27T07:14:50Z</time>
   </trkpt>
   <trkpt lat="12.9489410" lon="99.7184810">
    <ele>59.9</ele>
    <time>2018-01-27T07:14:51Z</time>
   </trkpt>
   <trkpt lat="12.9489600" lon="99.7185160">
    <ele>59.9</ele>
    <time>2018-01-27T07:14:52Z</time>
   </trkpt>
   <trkpt lat="12.9489880" lon="99.7185380">
    <ele>59.5</ele>
    <time>2018-01-27T07:14:54Z</time>
   </trkpt>
   <trkpt lat="12.9490190" lon="99.7185610">
    <ele>59.5</ele>
    <time>2018-01-27T07:14:56Z</time>
   </trkpt>
   <trkpt lat="12.9490590" lon="99.7185700">
    <ele>59.2</ele>
    <time>2018-01-27T07:14:59Z</time>
   </trkpt>
   <trkpt lat="12.9490920" lon="99.7185910">
    <ele>59.0</ele>
    <time>2018-01-27T07:15:01Z</time>
   </trkpt>
   <trkpt lat="12.9491450" lon="99.7186170">
    <ele>58.9</ele>
    <time>2018-01-27T07:15:03Z</time>
   </trkpt>
   <trkpt lat="12.9491800" lon="99.7186340">
    <ele>58.9</ele>
    <time>2018-01-27T07:15:04Z</time>
   </trkpt>
   <trkpt lat="12.9492170" lon="99.7186560">
    <ele>58.9</ele>
    <time>2018-01-27T07:15:05Z</time>
   </trkpt>
   <trkpt lat="12.9492560" lon="99.7186840">
    <ele>58.9</ele>
    <time>2018-01-27T07:15:06Z</time>
   </trkpt>
   <trkpt lat="12.9492950" lon="99.7187120">
    <ele>58.9</ele>
    <time>2018-01-27T07:15:07Z</time>
   </trkpt>
   <trkpt lat="12.9493340" lon="99.7187410">
    <ele>59.0</ele>
    <time>2018-01-27T07:15:08Z</time>
   </trkpt>
   <trkpt lat="12.9493740" lon="99.7187750">
    <ele>59.1</ele>
    <time>2018-01-27T07:15:09Z</time>
   </trkpt>
   <trkpt lat="12.9494170" lon="99.7188110">
    <ele>59.4</ele>
    <time>2018-01-27T07:15:10Z</time>
   </trkpt>
   <trkpt lat="12.9494540" lon="99.7188370">
    <ele>59.8</ele>
    <time>2018-01-27T07:15:11Z</time>
   </trkpt>
   <trkpt lat="12.9494900" lon="99.7188670">
    <ele>59.9</ele>
    <time>2018-01-27T07:15:12Z</time>
   </trkpt>
   <trkpt lat="12.9495270" lon="99.7189010">
    <ele>59.9</ele>
    <time>2018-01-27T07:15:13Z</time>
   </trkpt>
   <trkpt lat="12.9495620" lon="99.7189410">
    <ele>59.9</ele>
    <time>2018-01-27T07:15:14Z</time>
   </trkpt>
   <trkpt lat="12.9495920" lon="99.7189830">
    <ele>59.9</ele>
    <time>2018-01-27T07:15:15Z</time>
   </trkpt>
   <trkpt lat="12.9496230" lon="99.7190230">
    <ele>59.9</ele>
    <time>2018-01-27T07:15:16Z</time>
   </trkpt>
   <trkpt lat="12.9496540" lon="99.7190690">
    <ele>59.8</ele>
    <time>2018-01-27T07:15:17Z</time>
   </trkpt>
   <trkpt lat="12.9496770" lon="99.7191130">
    <ele>59.6</ele>
    <time>2018-01-27T07:15:18Z</time>
   </trkpt>
   <trkpt lat="12.9497140" lon="99.7191510">
    <ele>59.3</ele>
    <time>2018-01-27T07:15:19Z</time>
   </trkpt>
   <trkpt lat="12.9497380" lon="99.7191880">
    <ele>59.1</ele>
    <time>2018-01-27T07:15:20Z</time>
   </trkpt>
   <trkpt lat="12.9497560" lon="99.7192320">
    <ele>58.7</ele>
    <time>2018-01-27T07:15:21Z</time>
   </trkpt>
   <trkpt lat="12.9497820" lon="99.7192590">
    <ele>58.2</ele>
    <time>2018-01-27T07:15:22Z</time>
   </trkpt>
   <trkpt lat="12.9498110" lon="99.7193050">
    <ele>57.7</ele>
    <time>2018-01-27T07:15:23Z</time>
   </trkpt>
   <trkpt lat="12.9498370" lon="99.7193420">
    <ele>57.2</ele>
    <time>2018-01-27T07:15:24Z</time>
   </trkpt>
   <trkpt lat="12.9498660" lon="99.7193760">
    <ele>57.1</ele>
    <time>2018-01-27T07:15:25Z</time>
   </trkpt>
   <trkpt lat="12.9499050" lon="99.7193940">
    <ele>56.9</ele>
    <time>2018-01-27T07:15:26Z</time>
   </trkpt>
   <trkpt lat="12.9499460" lon="99.7194170">
    <ele>56.9</ele>
    <time>2018-01-27T07:15:27Z</time>
   </trkpt>
   <trkpt lat="12.9499900" lon="99.7194430">
    <ele>56.9</ele>
    <time>2018-01-27T07:15:28Z</time>
   </trkpt>
   <trkpt lat="12.9500390" lon="99.7194590">
    <ele>56.9</ele>
    <time>2018-01-27T07:15:29Z</time>
   </trkpt>
   <trkpt lat="12.9500790" lon="99.7194940">
    <ele>56.9</ele>
    <time>2018-01-27T07:15:30Z</time>
   </trkpt>
   <trkpt lat="12.9501060" lon="99.7195270">
    <ele>56.9</ele>
    <time>2018-01-27T07:15:31Z</time>
   </trkpt>
   <trkpt lat="12.9501190" lon="99.7195750">
    <ele>56.8</ele>
    <time>2018-01-27T07:15:32Z</time>
   </trkpt>
   <trkpt lat="12.9501210" lon="99.7196280">
    <ele>56.5</ele>
    <time>2018-01-27T07:15:33Z</time>
   </trkpt>
   <trkpt lat="12.9500990" lon="99.7196740">
    <ele>56.4</ele>
    <time>2018-01-27T07:15:34Z</time>
   </trkpt>
   <trkpt lat="12.9500800" lon="99.7197180">
    <ele>56.2</ele>
    <time>2018-01-27T07:15:35Z</time>
   </trkpt>
   <trkpt lat="12.9500460" lon="99.7197740">
    <ele>56.7</ele>
    <time>2018-01-27T07:15:36Z</time>
   </trkpt>
   <trkpt lat="12.9500070" lon="99.7198300">
    <ele>57.2</ele>
    <time>2018-01-27T07:15:37Z</time>
   </trkpt>
   <trkpt lat="12.9499640" lon="99.7198840">
    <ele>57.7</ele>
    <time>2018-01-27T07:15:38Z</time>
   </trkpt>
   <trkpt lat="12.9499240" lon="99.7199270">
    <ele>57.7</ele>
    <time>2018-01-27T07:15:39Z</time>
   </trkpt>
   <trkpt lat="12.9498950" lon="99.7199830">
    <ele>57.5</ele>
    <time>2018-01-27T07:15:40Z</time>
   </trkpt>
   <trkpt lat="12.9498530" lon="99.7200380">
    <ele>57.2</ele>
    <time>2018-01-27T07:15:41Z</time>
   </trkpt>
   <trkpt lat="12.9498270" lon="99.7200890">
    <ele>57.3</ele>
    <time>2018-01-27T07:15:42Z</time>
   </trkpt>
   <trkpt lat="12.9498000" lon="99.7201300">
    <ele>57.3</ele>
    <time>2018-01-27T07:15:43Z</time>
   </trkpt>
   <trkpt lat="12.9497640" lon="99.7201710">
    <ele>57.5</ele>
    <time>2018-01-27T07:15:44Z</time>
   </trkpt>
   <trkpt lat="12.9497320" lon="99.7202120">
    <ele>57.8</ele>
    <time>2018-01-27T07:15:45Z</time>
   </trkpt>
   <trkpt lat="12.9497120" lon="99.7202440">
    <ele>57.9</ele>
    <time>2018-01-27T07:15:46Z</time>
   </trkpt>
   <trkpt lat="12.9496850" lon="99.7202780">
    <ele>57.9</ele>
    <time>2018-01-27T07:15:47Z</time>
   </trkpt>
   <trkpt lat="12.9496560" lon="99.7203100">
    <ele>57.9</ele>
    <time>2018-01-27T07:15:48Z</time>
   </trkpt>
   <trkpt lat="12.9496280" lon="99.7203320">
    <ele>57.9</ele>
    <time>2018-01-27T07:15:49Z</time>
   </trkpt>
   <trkpt lat="12.9496010" lon="99.7203590">
    <ele>57.8</ele>
    <time>2018-01-27T07:15:50Z</time>
   </trkpt>
   <trkpt lat="12.9495700" lon="99.7203870">
    <ele>57.8</ele>
    <time>2018-01-27T07:15:51Z</time>
   </trkpt>
   <trkpt lat="12.9495360" lon="99.7204130">
    <ele>57.5</ele>
    <time>2018-01-27T07:15:52Z</time>
   </trkpt>
   <trkpt lat="12.9495000" lon="99.7204310">
    <ele>57.2</ele>
    <time>2018-01-27T07:15:53Z</time>
   </trkpt>
   <trkpt lat="12.9494600" lon="99.7204460">
    <ele>57.0</ele>
    <time>2018-01-27T07:15:54Z</time>
   </trkpt>
   <trkpt lat="12.9494240" lon="99.7204640">
    <ele>56.9</ele>
    <time>2018-01-27T07:15:55Z</time>
   </trkpt>
   <trkpt lat="12.9493710" lon="99.7204730">
    <ele>56.9</ele>
    <time>2018-01-27T07:15:56Z</time>
   </trkpt>
   <trkpt lat="12.9493250" lon="99.7204940">
    <ele>56.9</ele>
    <time>2018-01-27T07:15:57Z</time>
   </trkpt>
   <trkpt lat="12.9492830" lon="99.7205100">
    <ele>56.9</ele>
    <time>2018-01-27T07:15:58Z</time>
   </trkpt>
   <trkpt lat="12.9492550" lon="99.7205140">
    <ele>56.6</ele>
    <time>2018-01-27T07:15:59Z</time>
   </trkpt>
   <trkpt lat="12.9492130" lon="99.7205330">
    <ele>56.1</ele>
    <time>2018-01-27T07:16:00Z</time>
   </trkpt>
   <trkpt lat="12.9491840" lon="99.7205610">
    <ele>55.6</ele>
    <time>2018-01-27T07:16:01Z</time>
   </trkpt>
   <trkpt lat="12.9491510" lon="99.7205950">
    <ele>55.6</ele>
    <time>2018-01-27T07:16:02Z</time>
   </trkpt>
   <trkpt lat="12.9491280" lon="99.7206340">
    <ele>55.1</ele>
    <time>2018-01-27T07:16:03Z</time>
   </trkpt>
   <trkpt lat="12.9491020" lon="99.7206770">
    <ele>54.8</ele>
    <time>2018-01-27T07:16:04Z</time>
   </trkpt>
   <trkpt lat="12.9490720" lon="99.7207100">
    <ele>54.8</ele>
    <time>2018-01-27T07:16:05Z</time>
   </trkpt>
   <trkpt lat="12.9490330" lon="99.7207410">
    <ele>54.5</ele>
    <time>2018-01-27T07:16:06Z</time>
   </trkpt>
   <trkpt lat="12.9489980" lon="99.7207700">
    <ele>54.3</ele>
    <time>2018-01-27T07:16:07Z</time>
   </trkpt>
   <trkpt lat="12.9489620" lon="99.7208030">
    <ele>54.0</ele>
    <time>2018-01-27T07:16:08Z</time>
   </trkpt>
   <trkpt lat="12.9489250" lon="99.7208420">
    <ele>53.8</ele>
    <time>2018-01-27T07:16:09Z</time>
   </trkpt>
   <trkpt lat="12.9489020" lon="99.7208770">
    <ele>53.8</ele>
    <time>2018-01-27T07:16:10Z</time>
   </trkpt>
   <trkpt lat="12.9488860" lon="99.7209230">
    <ele>53.5</ele>
    <time>2018-01-27T07:16:11Z</time>
   </trkpt>
   <trkpt lat="12.9488710" lon="99.7209680">
    <ele>53.6</ele>
    <time>2018-01-27T07:16:12Z</time>
   </trkpt>
   <trkpt lat="12.9488580" lon="99.7210220">
    <ele>53.8</ele>
    <time>2018-01-27T07:16:13Z</time>
   </trkpt>
   <trkpt lat="12.9488680" lon="99.7210700">
    <ele>53.9</ele>
    <time>2018-01-27T07:16:14Z</time>
   </trkpt>
   <trkpt lat="12.9488900" lon="99.7211180">
    <ele>54.0</ele>
    <time>2018-01-27T07:16:15Z</time>
   </trkpt>
   <trkpt lat="12.9489190" lon="99.7211620">
    <ele>54.2</ele>
    <time>2018-01-27T07:16:17Z</time>
   </trkpt>
   <trkpt lat="12.9489570" lon="99.7212160">
    <ele>54.5</ele>
    <time>2018-01-27T07:16:18Z</time>
   </trkpt>
   <trkpt lat="12.9489870" lon="99.7212560">
    <ele>54.8</ele>
    <time>2018-01-27T07:16:19Z</time>
   </trkpt>
   <trkpt lat="12.9490150" lon="99.7212940">
    <ele>55.0</ele>
    <time>2018-01-27T07:16:20Z</time>
   </trkpt>
   <trkpt lat="12.9490480" lon="99.7213340">
    <ele>55.0</ele>
    <time>2018-01-27T07:16:21Z</time>
   </trkpt>
   <trkpt lat="12.9490790" lon="99.7213740">
    <ele>55.0</ele>
    <time>2018-01-27T07:16:22Z</time>
   </trkpt>
   <trkpt lat="12.9491630" lon="99.7214910">
    <ele>55.2</ele>
    <time>2018-01-27T07:16:23Z</time>
   </trkpt>
   <trkpt lat="12.9491950" lon="99.7215250">
    <ele>55.1</ele>
    <time>2018-01-27T07:16:24Z</time>
   </trkpt>
   <trkpt lat="12.9492310" lon="99.7215660">
    <ele>55.1</ele>
    <time>2018-01-27T07:16:25Z</time>
   </trkpt>
   <trkpt lat="12.9492680" lon="99.7216030">
    <ele>55.1</ele>
    <time>2018-01-27T07:16:26Z</time>
   </trkpt>
   <trkpt lat="12.9493050" lon="99.7216390">
    <ele>55.0</ele>
    <time>2018-01-27T07:16:27Z</time>
   </trkpt>
   <trkpt lat="12.9493440" lon="99.7216770">
    <ele>54.9</ele>
    <time>2018-01-27T07:16:28Z</time>
   </trkpt>
   <trkpt lat="12.9493720" lon="99.7216970">
    <ele>54.5</ele>
    <time>2018-01-27T07:16:29Z</time>
   </trkpt>
   <trkpt lat="12.9494200" lon="99.7217120">
    <ele>54.3</ele>
    <time>2018-01-27T07:16:30Z</time>
   </trkpt>
   <trkpt lat="12.9494660" lon="99.7217190">
    <ele>53.8</ele>
    <time>2018-01-27T07:16:31Z</time>
   </trkpt>
   <trkpt lat="12.9495130" lon="99.7217150">
    <ele>53.3</ele>
    <time>2018-01-27T07:16:32Z</time>
   </trkpt>
   <trkpt lat="12.9495650" lon="99.7217100">
    <ele>52.8</ele>
    <time>2018-01-27T07:16:33Z</time>
   </trkpt>
   <trkpt lat="12.9496140" lon="99.7217120">
    <ele>51.9</ele>
    <time>2018-01-27T07:16:34Z</time>
   </trkpt>
   <trkpt lat="12.9496630" lon="99.7217190">
    <ele>51.7</ele>
    <time>2018-01-27T07:16:35Z</time>
   </trkpt>
   <trkpt lat="12.9497050" lon="99.7217280">
    <ele>51.4</ele>
    <time>2018-01-27T07:16:36Z</time>
   </trkpt>
   <trkpt lat="12.9497520" lon="99.7217470">
    <ele>51.2</ele>
    <time>2018-01-27T07:16:37Z</time>
   </trkpt>
   <trkpt lat="12.9497930" lon="99.7217720">
    <ele>51.0</ele>
    <time>2018-01-27T07:16:38Z</time>
   </trkpt>
   <trkpt lat="12.9498260" lon="99.7218260">
    <ele>51.0</ele>
    <time>2018-01-27T07:16:39Z</time>
   </trkpt>
   <trkpt lat="12.9498660" lon="99.7218720">
    <ele>51.3</ele>
    <time>2018-01-27T07:16:40Z</time>
   </trkpt>
   <trkpt lat="12.9499150" lon="99.7218970">
    <ele>51.5</ele>
    <time>2018-01-27T07:16:41Z</time>
   </trkpt>
   <trkpt lat="12.9499480" lon="99.7219230">
    <ele>51.9</ele>
    <time>2018-01-27T07:16:42Z</time>
   </trkpt>
   <trkpt lat="12.9499820" lon="99.7219550">
    <ele>51.9</ele>
    <time>2018-01-27T07:16:43Z</time>
   </trkpt>
   <trkpt lat="12.9500090" lon="99.7219590">
    <ele>52.4</ele>
    <time>2018-01-27T07:16:44Z</time>
   </trkpt>
   <trkpt lat="12.9500510" lon="99.7219910">
    <ele>52.6</ele>
    <time>2018-01-27T07:16:46Z</time>
   </trkpt>
   <trkpt lat="12.9501020" lon="99.7219790">
    <ele>52.9</ele>
    <time>2018-01-27T07:16:47Z</time>
   </trkpt>
   <trkpt lat="12.9501390" lon="99.7219810">
    <ele>53.1</ele>
    <time>2018-01-27T07:16:48Z</time>
   </trkpt>
   <trkpt lat="12.9501800" lon="99.7219810">
    <ele>53.4</ele>
    <time>2018-01-27T07:16:49Z</time>
   </trkpt>
   <trkpt lat="12.9502160" lon="99.7219810">
    <ele>53.6</ele>
    <time>2018-01-27T07:16:50Z</time>
   </trkpt>
   <trkpt lat="12.9502450" lon="99.7219730">
    <ele>53.9</ele>
    <time>2018-01-27T07:16:51Z</time>
   </trkpt>
   <trkpt lat="12.9502910" lon="99.7219710">
    <ele>54.1</ele>
    <time>2018-01-27T07:16:53Z</time>
   </trkpt>
   <trkpt lat="12.9503400" lon="99.7219650">
    <ele>54.4</ele>
    <time>2018-01-27T07:16:55Z</time>
   </trkpt>
   <trkpt lat="12.9503830" lon="99.7219730">
    <ele>54.6</ele>
    <time>2018-01-27T07:16:57Z</time>
   </trkpt>
   <trkpt lat="12.9504060" lon="99.7220100">
    <ele>55.1</ele>
    <time>2018-01-27T07:16:59Z</time>
   </trkpt>
   <trkpt lat="12.9504160" lon="99.7220630">
    <ele>55.4</ele>
    <time>2018-01-27T07:17:01Z</time>
   </trkpt>
   <trkpt lat="12.9504310" lon="99.7221130">
    <ele>55.6</ele>
    <time>2018-01-27T07:17:03Z</time>
   </trkpt>
   <trkpt lat="12.9504470" lon="99.7221550">
    <ele>56.1</ele>
    <time>2018-01-27T07:17:05Z</time>
   </trkpt>
   <trkpt lat="12.9504460" lon="99.7222050">
    <ele>56.4</ele>
    <time>2018-01-27T07:17:07Z</time>
   </trkpt>
   <trkpt lat="12.9504380" lon="99.7222350">
    <ele>56.4</ele>
    <time>2018-01-27T07:17:08Z</time>
   </trkpt>
   <trkpt lat="12.9504290" lon="99.7222660">
    <ele>56.6</ele>
    <time>2018-01-27T07:17:09Z</time>
   </trkpt>
   <trkpt lat="12.9504180" lon="99.7222970">
    <ele>56.6</ele>
    <time>2018-01-27T07:17:10Z</time>
   </trkpt>
   <trkpt lat="12.9504070" lon="99.7223290">
    <ele>56.8</ele>
    <time>2018-01-27T07:17:11Z</time>
   </trkpt>
   <trkpt lat="12.9503890" lon="99.7223820">
    <ele>56.7</ele>
    <time>2018-01-27T07:17:13Z</time>
   </trkpt>
   <trkpt lat="12.9503780" lon="99.7224190">
    <ele>56.8</ele>
    <time>2018-01-27T07:17:14Z</time>
   </trkpt>
   <trkpt lat="12.9503680" lon="99.7224550">
    <ele>56.9</ele>
    <time>2018-01-27T07:17:15Z</time>
   </trkpt>
   <trkpt lat="12.9503590" lon="99.7224900">
    <ele>57.1</ele>
    <time>2018-01-27T07:17:16Z</time>
   </trkpt>
   <trkpt lat="12.9503510" lon="99.7225280">
    <ele>57.3</ele>
    <time>2018-01-27T07:17:17Z</time>
   </trkpt>
   <trkpt lat="12.9503430" lon="99.7225660">
    <ele>57.6</ele>
    <time>2018-01-27T07:17:18Z</time>
   </trkpt>
   <trkpt lat="12.9503370" lon="99.7226060">
    <ele>57.8</ele>
    <time>2018-01-27T07:17:19Z</time>
   </trkpt>
   <trkpt lat="12.9503330" lon="99.7226480">
    <ele>58.0</ele>
    <time>2018-01-27T07:17:20Z</time>
   </trkpt>
   <trkpt lat="12.9503310" lon="99.7226940">
    <ele>58.1</ele>
    <time>2018-01-27T07:17:21Z</time>
   </trkpt>
   <trkpt lat="12.9503310" lon="99.7227430">
    <ele>58.2</ele>
    <time>2018-01-27T07:17:22Z</time>
   </trkpt>
   <trkpt lat="12.9503330" lon="99.7227950">
    <ele>58.3</ele>
    <time>2018-01-27T07:17:23Z</time>
   </trkpt>
   <trkpt lat="12.9503410" lon="99.7228490">
    <ele>58.3</ele>
    <time>2018-01-27T07:17:24Z</time>
   </trkpt>
   <trkpt lat="12.9503530" lon="99.7229070">
    <ele>58.3</ele>
    <time>2018-01-27T07:17:25Z</time>
   </trkpt>
   <trkpt lat="12.9503690" lon="99.7229650">
    <ele>58.6</ele>
    <time>2018-01-27T07:17:26Z</time>
   </trkpt>
   <trkpt lat="12.9503870" lon="99.7230240">
    <ele>58.4</ele>
    <time>2018-01-27T07:17:27Z</time>
   </trkpt>
   <trkpt lat="12.9504050" lon="99.7230830">
    <ele>58.2</ele>
    <time>2018-01-27T07:17:28Z</time>
   </trkpt>
   <trkpt lat="12.9504250" lon="99.7231400">
    <ele>57.9</ele>
    <time>2018-01-27T07:17:29Z</time>
   </trkpt>
   <trkpt lat="12.9504450" lon="99.7231960">
    <ele>57.7</ele>
    <time>2018-01-27T07:17:30Z</time>
   </trkpt>
   <trkpt lat="12.9504680" lon="99.7232480">
    <ele>56.7</ele>
    <time>2018-01-27T07:17:31Z</time>
   </trkpt>
   <trkpt lat="12.9504920" lon="99.7232990">
    <ele>56.5</ele>
    <time>2018-01-27T07:17:32Z</time>
   </trkpt>
   <trkpt lat="12.9505130" lon="99.7233500">
    <ele>56.3</ele>
    <time>2018-01-27T07:17:33Z</time>
   </trkpt>
   <trkpt lat="12.9505300" lon="99.7233980">
    <ele>56.4</ele>
    <time>2018-01-27T07:17:34Z</time>
   </trkpt>
   <trkpt lat="12.9505420" lon="99.7234480">
    <ele>56.2</ele>
    <time>2018-01-27T07:17:35Z</time>
   </trkpt>
   <trkpt lat="12.9505510" lon="99.7235010">
    <ele>56.1</ele>
    <time>2018-01-27T07:17:36Z</time>
   </trkpt>
   <trkpt lat="12.9505620" lon="99.7235580">
    <ele>56.1</ele>
    <time>2018-01-27T07:17:37Z</time>
   </trkpt>
   <trkpt lat="12.9505750" lon="99.7236140">
    <ele>56.1</ele>
    <time>2018-01-27T07:17:38Z</time>
   </trkpt>
   <trkpt lat="12.9505860" lon="99.7236650">
    <ele>56.1</ele>
    <time>2018-01-27T07:17:39Z</time>
   </trkpt>
   <trkpt lat="12.9505900" lon="99.7237040">
    <ele>56.1</ele>
    <time>2018-01-27T07:17:40Z</time>
   </trkpt>
   <trkpt lat="12.9506020" lon="99.7237620">
    <ele>56.1</ele>
    <time>2018-01-27T07:17:41Z</time>
   </trkpt>
   <trkpt lat="12.9506070" lon="99.7238180">
    <ele>56.1</ele>
    <time>2018-01-27T07:17:42Z</time>
   </trkpt>
   <trkpt lat="12.9506100" lon="99.7238710">
    <ele>56.1</ele>
    <time>2018-01-27T07:17:43Z</time>
   </trkpt>
   <trkpt lat="12.9506120" lon="99.7239240">
    <ele>56.1</ele>
    <time>2018-01-27T07:17:44Z</time>
   </trkpt>
   <trkpt lat="12.9506160" lon="99.7239830">
    <ele>56.2</ele>
    <time>2018-01-27T07:17:45Z</time>
   </trkpt>
   <trkpt lat="12.9506180" lon="99.7240350">
    <ele>56.2</ele>
    <time>2018-01-27T07:17:46Z</time>
   </trkpt>
   <trkpt lat="12.9506210" lon="99.7240930">
    <ele>56.2</ele>
    <time>2018-01-27T07:17:47Z</time>
   </trkpt>
   <trkpt lat="12.9506200" lon="99.7241450">
    <ele>56.2</ele>
    <time>2018-01-27T07:17:48Z</time>
   </trkpt>
   <trkpt lat="12.9506110" lon="99.7242050">
    <ele>56.3</ele>
    <time>2018-01-27T07:17:49Z</time>
   </trkpt>
   <trkpt lat="12.9505980" lon="99.7242640">
    <ele>56.2</ele>
    <time>2018-01-27T07:17:50Z</time>
   </trkpt>
   <trkpt lat="12.9505810" lon="99.7243110">
    <ele>56.4</ele>
    <time>2018-01-27T07:17:51Z</time>
   </trkpt>
   <trkpt lat="12.9505650" lon="99.7243560">
    <ele>56.1</ele>
    <time>2018-01-27T07:17:52Z</time>
   </trkpt>
   <trkpt lat="12.9505510" lon="99.7244050">
    <ele>55.8</ele>
    <time>2018-01-27T07:17:53Z</time>
   </trkpt>
   <trkpt lat="12.9505460" lon="99.7244560">
    <ele>55.5</ele>
    <time>2018-01-27T07:17:54Z</time>
   </trkpt>
   <trkpt lat="12.9505330" lon="99.7245020">
    <ele>55.3</ele>
    <time>2018-01-27T07:17:55Z</time>
   </trkpt>
   <trkpt lat="12.9505230" lon="99.7245500">
    <ele>54.7</ele>
    <time>2018-01-27T07:17:56Z</time>
   </trkpt>
   <trkpt lat="12.9504970" lon="99.7245960">
    <ele>54.7</ele>
    <time>2018-01-27T07:17:57Z</time>
   </trkpt>
   <trkpt lat="12.9504620" lon="99.7246300">
    <ele>54.2</ele>
    <time>2018-01-27T07:17:58Z</time>
   </trkpt>
   <trkpt lat="12.9504230" lon="99.7246640">
    <ele>53.7</ele>
    <time>2018-01-27T07:17:59Z</time>
   </trkpt>
   <trkpt lat="12.9503810" lon="99.7247010">
    <ele>53.2</ele>
    <time>2018-01-27T07:18:00Z</time>
   </trkpt>
   <trkpt lat="12.9503400" lon="99.7247590">
    <ele>53.0</ele>
    <time>2018-01-27T07:18:01Z</time>
   </trkpt>
   <trkpt lat="12.9503120" lon="99.7248090">
    <ele>52.8</ele>
    <time>2018-01-27T07:18:02Z</time>
   </trkpt>
   <trkpt lat="12.9502940" lon="99.7248700">
    <ele>53.1</ele>
    <time>2018-01-27T07:18:03Z</time>
   </trkpt>
   <trkpt lat="12.9502780" lon="99.7249240">
    <ele>53.6</ele>
    <time>2018-01-27T07:18:04Z</time>
   </trkpt>
   <trkpt lat="12.9502590" lon="99.7249920">
    <ele>53.7</ele>
    <time>2018-01-27T07:18:05Z</time>
   </trkpt>
   <trkpt lat="12.9502500" lon="99.7250430">
    <ele>54.0</ele>
    <time>2018-01-27T07:18:06Z</time>
   </trkpt>
   <trkpt lat="12.9502370" lon="99.7251000">
    <ele>54.9</ele>
    <time>2018-01-27T07:18:07Z</time>
   </trkpt>
   <trkpt lat="12.9502180" lon="99.7251490">
    <ele>55.1</ele>
    <time>2018-01-27T07:18:08Z</time>
   </trkpt>
   <trkpt lat="12.9501860" lon="99.7252020">
    <ele>55.3</ele>
    <time>2018-01-27T07:18:09Z</time>
   </trkpt>
   <trkpt lat="12.9501590" lon="99.7252480">
    <ele>55.5</ele>
    <time>2018-01-27T07:18:10Z</time>
   </trkpt>
   <trkpt lat="12.9501360" lon="99.7253000">
    <ele>55.2</ele>
    <time>2018-01-27T07:18:11Z</time>
   </trkpt>
   <trkpt lat="12.9501100" lon="99.7253560">
    <ele>55.2</ele>
    <time>2018-01-27T07:18:12Z</time>
   </trkpt>
   <trkpt lat="12.9500870" lon="99.7254080">
    <ele>54.8</ele>
    <time>2018-01-27T07:18:13Z</time>
   </trkpt>
   <trkpt lat="12.9500790" lon="99.7254760">
    <ele>54.8</ele>
    <time>2018-01-27T07:18:14Z</time>
   </trkpt>
   <trkpt lat="12.9500690" lon="99.7255250">
    <ele>54.9</ele>
    <time>2018-01-27T07:18:15Z</time>
   </trkpt>
   <trkpt lat="12.9500570" lon="99.7255830">
    <ele>54.8</ele>
    <time>2018-01-27T07:18:16Z</time>
   </trkpt>
   <trkpt lat="12.9500460" lon="99.7256370">
    <ele>55.1</ele>
    <time>2018-01-27T07:18:17Z</time>
   </trkpt>
   <trkpt lat="12.9500330" lon="99.7256880">
    <ele>55.3</ele>
    <time>2018-01-27T07:18:18Z</time>
   </trkpt>
   <trkpt lat="12.9500130" lon="99.7257360">
    <ele>55.5</ele>
    <time>2018-01-27T07:18:19Z</time>
   </trkpt>
   <trkpt lat="12.9500010" lon="99.7257880">
    <ele>55.7</ele>
    <time>2018-01-27T07:18:20Z</time>
   </trkpt>
   <trkpt lat="12.9499950" lon="99.7258440">
    <ele>55.9</ele>
    <time>2018-01-27T07:18:21Z</time>
   </trkpt>
   <trkpt lat="12.9499910" lon="99.7258920">
    <ele>56.0</ele>
    <time>2018-01-27T07:18:22Z</time>
   </trkpt>
   <trkpt lat="12.9499840" lon="99.7259380">
    <ele>56.2</ele>
    <time>2018-01-27T07:18:23Z</time>
   </trkpt>
   <trkpt lat="12.9499800" lon="99.7259890">
    <ele>56.5</ele>
    <time>2018-01-27T07:18:24Z</time>
   </trkpt>
   <trkpt lat="12.9499710" lon="99.7260350">
    <ele>56.9</ele>
    <time>2018-01-27T07:18:25Z</time>
   </trkpt>
   <trkpt lat="12.9499390" lon="99.7260660">
    <ele>57.2</ele>
    <time>2018-01-27T07:18:26Z</time>
   </trkpt>
   <trkpt lat="12.9499050" lon="99.7260940">
    <ele>57.3</ele>
    <time>2018-01-27T07:18:27Z</time>
   </trkpt>
   <trkpt lat="12.9498670" lon="99.7261260">
    <ele>57.7</ele>
    <time>2018-01-27T07:18:28Z</time>
   </trkpt>
   <trkpt lat="12.9498290" lon="99.7261480">
    <ele>58.1</ele>
    <time>2018-01-27T07:18:29Z</time>
   </trkpt>
   <trkpt lat="12.9497910" lon="99.7261770">
    <ele>58.7</ele>
    <time>2018-01-27T07:18:30Z</time>
   </trkpt>
   <trkpt lat="12.9497470" lon="99.7261980">
    <ele>59.1</ele>
    <time>2018-01-27T07:18:31Z</time>
   </trkpt>
   <trkpt lat="12.9497000" lon="99.7262360">
    <ele>59.8</ele>
    <time>2018-01-27T07:18:32Z</time>
   </trkpt>
   <trkpt lat="12.9496560" lon="99.7262840">
    <ele>50.8</ele>
    <time>2018-01-27T07:18:33Z</time>
   </trkpt>
   <trkpt lat="12.9496230" lon="99.7263270">
    <ele>50.5</ele>
    <time>2018-01-27T07:18:34Z</time>
   </trkpt>
   <trkpt lat="12.9495750" lon="99.7263700">
    <ele>50.3</ele>
    <time>2018-01-27T07:18:35Z</time>
   </trkpt>
   <trkpt lat="12.9495360" lon="99.7264070">
    <ele>50.0</ele>
    <time>2018-01-27T07:18:36Z</time>
   </trkpt>
   <trkpt lat="12.9495090" lon="99.7264470">
    <ele>49.8</ele>
    <time>2018-01-27T07:18:37Z</time>
   </trkpt>
   <trkpt lat="12.9495090" lon="99.7264990">
    <ele>49.7</ele>
    <time>2018-01-27T07:18:38Z</time>
   </trkpt>
   <trkpt lat="12.9495090" lon="99.7265560">
    <ele>49.6</ele>
    <time>2018-01-27T07:18:39Z</time>
   </trkpt>
   <trkpt lat="12.9495050" lon="99.7266110">
    <ele>49.6</ele>
    <time>2018-01-27T07:18:40Z</time>
   </trkpt>
   <trkpt lat="12.9495180" lon="99.7266700">
    <ele>49.5</ele>
    <time>2018-01-27T07:18:41Z</time>
   </trkpt>
   <trkpt lat="12.9495210" lon="99.7267340">
    <ele>49.4</ele>
    <time>2018-01-27T07:18:42Z</time>
   </trkpt>
   <trkpt lat="12.9495270" lon="99.7268020">
    <ele>49.6</ele>
    <time>2018-01-27T07:18:43Z</time>
   </trkpt>
   <trkpt lat="12.9495380" lon="99.7268640">
    <ele>49.5</ele>
    <time>2018-01-27T07:18:44Z</time>
   </trkpt>
   <trkpt lat="12.9495630" lon="99.7269280">
    <ele>49.4</ele>
    <time>2018-01-27T07:18:45Z</time>
   </trkpt>
   <trkpt lat="12.9495840" lon="99.7269790">
    <ele>49.5</ele>
    <time>2018-01-27T07:18:46Z</time>
   </trkpt>
   <trkpt lat="12.9496020" lon="99.7270400">
    <ele>49.4</ele>
    <time>2018-01-27T07:18:47Z</time>
   </trkpt>
   <trkpt lat="12.9496260" lon="99.7270960">
    <ele>49.6</ele>
    <time>2018-01-27T07:18:48Z</time>
   </trkpt>
   <trkpt lat="12.9496480" lon="99.7271480">
    <ele>49.5</ele>
    <time>2018-01-27T07:18:49Z</time>
   </trkpt>
   <trkpt lat="12.9496700" lon="99.7271950">
    <ele>49.6</ele>
    <time>2018-01-27T07:18:50Z</time>
   </trkpt>
   <trkpt lat="12.9497060" lon="99.7272400">
    <ele>49.7</ele>
    <time>2018-01-27T07:18:51Z</time>
   </trkpt>
   <trkpt lat="12.9497490" lon="99.7272650">
    <ele>49.9</ele>
    <time>2018-01-27T07:18:52Z</time>
   </trkpt>
   <trkpt lat="12.9497900" lon="99.7272760">
    <ele>50.0</ele>
    <time>2018-01-27T07:18:53Z</time>
   </trkpt>
   <trkpt lat="12.9498280" lon="99.7272710">
    <ele>50.2</ele>
    <time>2018-01-27T07:18:54Z</time>
   </trkpt>
   <trkpt lat="12.9498540" lon="99.7272420">
    <ele>50.2</ele>
    <time>2018-01-27T07:18:55Z</time>
   </trkpt>
   <trkpt lat="12.9498760" lon="99.7272070">
    <ele>50.5</ele>
    <time>2018-01-27T07:18:56Z</time>
   </trkpt>
   <trkpt lat="12.9499020" lon="99.7271750">
    <ele>50.7</ele>
    <time>2018-01-27T07:18:57Z</time>
   </trkpt>
   <trkpt lat="12.9499150" lon="99.7271360">
    <ele>50.8</ele>
    <time>2018-01-27T07:18:58Z</time>
   </trkpt>
   <trkpt lat="12.9499550" lon="99.7270790">
    <ele>51.0</ele>
    <time>2018-01-27T07:19:00Z</time>
   </trkpt>
   <trkpt lat="12.9499830" lon="99.7270730">
    <ele>51.0</ele>
    <time>2018-01-27T07:19:02Z</time>
   </trkpt>
   <trkpt lat="12.9500170" lon="99.7270750">
    <ele>51.2</ele>
    <time>2018-01-27T07:19:05Z</time>
   </trkpt>
   <trkpt lat="12.9500450" lon="99.7270620">
    <ele>51.5</ele>
    <time>2018-01-27T07:19:07Z</time>
   </trkpt>
   <trkpt lat="12.9500680" lon="99.7270380">
    <ele>51.6</ele>
    <time>2018-01-27T07:19:09Z</time>
   </trkpt>
   <trkpt lat="12.9500910" lon="99.7270180">
    <ele>51.7</ele>
    <time>2018-01-27T07:19:11Z</time>
   </trkpt>
   <trkpt lat="12.9501230" lon="99.7270080">
    <ele>51.9</ele>
    <time>2018-01-27T07:19:13Z</time>
   </trkpt>
   <trkpt lat="12.9501530" lon="99.7270140">
    <ele>52.0</ele>
    <time>2018-01-27T07:19:15Z</time>
   </trkpt>
   <trkpt lat="12.9501840" lon="99.7270240">
    <ele>52.0</ele>
    <time>2018-01-27T07:19:18Z</time>
   </trkpt>
   <trkpt lat="12.9501980" lon="99.7270500">
    <ele>52.1</ele>
    <time>2018-01-27T07:19:21Z</time>
   </trkpt>
   <trkpt lat="12.9502120" lon="99.7270810">
    <ele>52.0</ele>
    <time>2018-01-27T07:19:24Z</time>
   </trkpt>
   <trkpt lat="12.9502350" lon="99.7271090">
    <ele>52.1</ele>
    <time>2018-01-27T07:19:26Z</time>
   </trkpt>
   <trkpt lat="12.9502740" lon="99.7271400">
    <ele>52.1</ele>
    <time>2018-01-27T07:19:28Z</time>
   </trkpt>
   <trkpt lat="12.9503120" lon="99.7271800">
    <ele>56.0</ele>
    <time>2018-01-27T07:19:30Z</time>
   </trkpt>
   <trkpt lat="12.9503300" lon="99.7272020">
    <ele>55.3</ele>
    <time>2018-01-27T07:19:31Z</time>
   </trkpt>
   <trkpt lat="12.9503660" lon="99.7272420">
    <ele>54.9</ele>
    <time>2018-01-27T07:19:33Z</time>
   </trkpt>
   <trkpt lat="12.9503860" lon="99.7272620">
    <ele>54.9</ele>
    <time>2018-01-27T07:19:34Z</time>
   </trkpt>
   <trkpt lat="12.9504070" lon="99.7272840">
    <ele>54.5</ele>
    <time>2018-01-27T07:19:35Z</time>
   </trkpt>
   <trkpt lat="12.9504510" lon="99.7273230">
    <ele>54.2</ele>
    <time>2018-01-27T07:19:36Z</time>
   </trkpt>
   <trkpt lat="12.9504800" lon="99.7273480">
    <ele>54.2</ele>
    <time>2018-01-27T07:19:37Z</time>
   </trkpt>
   <trkpt lat="12.9505100" lon="99.7273710">
    <ele>54.4</ele>
    <time>2018-01-27T07:19:38Z</time>
   </trkpt>
   <trkpt lat="12.9505360" lon="99.7273960">
    <ele>55.2</ele>
    <time>2018-01-27T07:19:39Z</time>
   </trkpt>
   <trkpt lat="12.9505610" lon="99.7274210">
    <ele>55.0</ele>
    <time>2018-01-27T07:19:40Z</time>
   </trkpt>
   <trkpt lat="12.9505850" lon="99.7274490">
    <ele>56.2</ele>
    <time>2018-01-27T07:19:41Z</time>
   </trkpt>
   <trkpt lat="12.9506000" lon="99.7274850">
    <ele>56.2</ele>
    <time>2018-01-27T07:19:42Z</time>
   </trkpt>
   <trkpt lat="12.9506140" lon="99.7275220">
    <ele>57.1</ele>
    <time>2018-01-27T07:19:43Z</time>
   </trkpt>
   <trkpt lat="12.9506300" lon="99.7275580">
    <ele>57.2</ele>
    <time>2018-01-27T07:19:44Z</time>
   </trkpt>
   <trkpt lat="12.9506480" lon="99.7275900">
    <ele>57.2</ele>
    <time>2018-01-27T07:19:45Z</time>
   </trkpt>
   <trkpt lat="12.9506640" lon="99.7276160">
    <ele>57.1</ele>
    <time>2018-01-27T07:19:46Z</time>
   </trkpt>
   <trkpt lat="12.9506800" lon="99.7276420">
    <ele>57.0</ele>
    <time>2018-01-27T07:19:47Z</time>
   </trkpt>
   <trkpt lat="12.9506920" lon="99.7276690">
    <ele>56.7</ele>
    <time>2018-01-27T07:19:48Z</time>
   </trkpt>
   <trkpt lat="12.9507030" lon="99.7276990">
    <ele>56.8</ele>
    <time>2018-01-27T07:19:49Z</time>
   </trkpt>
   <trkpt lat="12.9507130" lon="99.7277330">
    <ele>56.6</ele>
    <time>2018-01-27T07:19:50Z</time>
   </trkpt>
   <trkpt lat="12.9507310" lon="99.7277690">
    <ele>56.4</ele>
    <time>2018-01-27T07:19:51Z</time>
   </trkpt>
   <trkpt lat="12.9507500" lon="99.7278050">
    <ele>56.5</ele>
    <time>2018-01-27T07:19:52Z</time>
   </trkpt>
   <trkpt lat="12.9507730" lon="99.7278400">
    <ele>55.8</ele>
    <time>2018-01-27T07:19:53Z</time>
   </trkpt>
   <trkpt lat="12.9508000" lon="99.7278770">
    <ele>56.5</ele>
    <time>2018-01-27T07:19:54Z</time>
   </trkpt>
   <trkpt lat="12.9508290" lon="99.7279130">
    <ele>56.5</ele>
    <time>2018-01-27T07:19:55Z</time>
   </trkpt>
   <trkpt lat="12.9508580" lon="99.7279480">
    <ele>56.2</ele>
    <time>2018-01-27T07:19:56Z</time>
   </trkpt>
   <trkpt lat="12.9508840" lon="99.7279840">
    <ele>56.3</ele>
    <time>2018-01-27T07:19:57Z</time>
   </trkpt>
   <trkpt lat="12.9509180" lon="99.7280320">
    <ele>56.1</ele>
    <time>2018-01-27T07:19:58Z</time>
   </trkpt>
   <trkpt lat="12.9509460" lon="99.7280680">
    <ele>55.7</ele>
    <time>2018-01-27T07:19:59Z</time>
   </trkpt>
   <trkpt lat="12.9509670" lon="99.7281050">
    <ele>54.7</ele>
    <time>2018-01-27T07:20:00Z</time>
   </trkpt>
   <trkpt lat="12.9509920" lon="99.7281440">
    <ele>54.0</ele>
    <time>2018-01-27T07:20:01Z</time>
   </trkpt>
   <trkpt lat="12.9510240" lon="99.7281850">
    <ele>53.0</ele>
    <time>2018-01-27T07:20:02Z</time>
   </trkpt>
   <trkpt lat="12.9510600" lon="99.7282260">
    <ele>53.1</ele>
    <time>2018-01-27T07:20:03Z</time>
   </trkpt>
   <trkpt lat="12.9510930" lon="99.7282670">
    <ele>53.3</ele>
    <time>2018-01-27T07:20:04Z</time>
   </trkpt>
   <trkpt lat="12.9511230" lon="99.7283030">
    <ele>53.8</ele>
    <time>2018-01-27T07:20:05Z</time>
   </trkpt>
   <trkpt lat="12.9511460" lon="99.7283360">
    <ele>53.1</ele>
    <time>2018-01-27T07:20:06Z</time>
   </trkpt>
   <trkpt lat="12.9511790" lon="99.7283650">
    <ele>52.4</ele>
    <time>2018-01-27T07:20:07Z</time>
   </trkpt>
   <trkpt lat="12.9512070" lon="99.7284000">
    <ele>51.7</ele>
    <time>2018-01-27T07:20:08Z</time>
   </trkpt>
   <trkpt lat="12.9512410" lon="99.7284350">
    <ele>52.0</ele>
    <time>2018-01-27T07:20:09Z</time>
   </trkpt>
   <trkpt lat="12.9512650" lon="99.7284810">
    <ele>49.8</ele>
    <time>2018-01-27T07:20:10Z</time>
   </trkpt>
   <trkpt lat="12.9512860" lon="99.7285130">
    <ele>49.7</ele>
    <time>2018-01-27T07:20:11Z</time>
   </trkpt>
   <trkpt lat="12.9513210" lon="99.7285570">
    <ele>49.0</ele>
    <time>2018-01-27T07:20:12Z</time>
   </trkpt>
   <trkpt lat="12.9513640" lon="99.7285920">
    <ele>48.1</ele>
    <time>2018-01-27T07:20:13Z</time>
   </trkpt>
   <trkpt lat="12.9513950" lon="99.7286300">
    <ele>47.5</ele>
    <time>2018-01-27T07:20:14Z</time>
   </trkpt>
   <trkpt lat="12.9514260" lon="99.7286670">
    <ele>48.8</ele>
    <time>2018-01-27T07:20:15Z</time>
   </trkpt>
   <trkpt lat="12.9514470" lon="99.7287140">
    <ele>48.7</ele>
    <time>2018-01-27T07:20:16Z</time>
   </trkpt>
   <trkpt lat="12.9514500" lon="99.7287650">
    <ele>48.6</ele>
    <time>2018-01-27T07:20:17Z</time>
   </trkpt>
   <trkpt lat="12.9514520" lon="99.7288190">
    <ele>48.6</ele>
    <time>2018-01-27T07:20:18Z</time>
   </trkpt>
   <trkpt lat="12.9514480" lon="99.7288660">
    <ele>48.5</ele>
    <time>2018-01-27T07:20:19Z</time>
   </trkpt>
   <trkpt lat="12.9514410" lon="99.7289110">
    <ele>48.6</ele>
    <time>2018-01-27T07:20:20Z</time>
   </trkpt>
   <trkpt lat="12.9514470" lon="99.7289590">
    <ele>48.5</ele>
    <time>2018-01-27T07:20:21Z</time>
   </trkpt>
   <trkpt lat="12.9514640" lon="99.7289960">
    <ele>48.5</ele>
    <time>2018-01-27T07:20:22Z</time>
   </trkpt>
   <trkpt lat="12.9514890" lon="99.7290370">
    <ele>48.5</ele>
    <time>2018-01-27T07:20:24Z</time>
   </trkpt>
   <trkpt lat="12.9515250" lon="99.7290550">
    <ele>48.4</ele>
    <time>2018-01-27T07:20:26Z</time>
   </trkpt>
   <trkpt lat="12.9515530" lon="99.7290710">
    <ele>48.4</ele>
    <time>2018-01-27T07:20:29Z</time>
   </trkpt>
   <trkpt lat="12.9515430" lon="99.7291040">
    <ele>48.3</ele>
    <time>2018-01-27T07:21:22Z</time>
   </trkpt>
   <trkpt lat="12.9515160" lon="99.7291400">
    <ele>48.4</ele>
    <time>2018-01-27T07:21:26Z</time>
   </trkpt>
   <trkpt lat="12.9514870" lon="99.7291710">
    <ele>48.4</ele>
    <time>2018-01-27T07:21:28Z</time>
   </trkpt>
   <trkpt lat="12.9514710" lon="99.7292200">
    <ele>48.4</ele>
    <time>2018-01-27T07:21:30Z</time>
   </trkpt>
   <trkpt lat="12.9514650" lon="99.7292580">
    <ele>48.4</ele>
    <time>2018-01-27T07:21:32Z</time>
   </trkpt>
   <trkpt lat="12.9514590" lon="99.7292930">
    <ele>48.4</ele>
    <time>2018-01-27T07:21:33Z</time>
   </trkpt>
   <trkpt lat="12.9514520" lon="99.7293360">
    <ele>48.4</ele>
    <time>2018-01-27T07:21:34Z</time>
   </trkpt>
   <trkpt lat="12.9514470" lon="99.7293730">
    <ele>48.5</ele>
    <time>2018-01-27T07:21:35Z</time>
   </trkpt>
   <trkpt lat="12.9514440" lon="99.7294130">
    <ele>48.5</ele>
    <time>2018-01-27T07:21:36Z</time>
   </trkpt>
   <trkpt lat="12.9514410" lon="99.7294580">
    <ele>48.5</ele>
    <time>2018-01-27T07:21:37Z</time>
   </trkpt>
   <trkpt lat="12.9514370" lon="99.7295030">
    <ele>48.5</ele>
    <time>2018-01-27T07:21:38Z</time>
   </trkpt>
   <trkpt lat="12.9514320" lon="99.7295510">
    <ele>48.5</ele>
    <time>2018-01-27T07:21:39Z</time>
   </trkpt>
   <trkpt lat="12.9514260" lon="99.7296010">
    <ele>48.5</ele>
    <time>2018-01-27T07:21:40Z</time>
   </trkpt>
   <trkpt lat="12.9514190" lon="99.7296540">
    <ele>48.5</ele>
    <time>2018-01-27T07:21:41Z</time>
   </trkpt>
   <trkpt lat="12.9514040" lon="99.7297720">
    <ele>48.5</ele>
    <time>2018-01-27T07:21:42Z</time>
   </trkpt>
   <trkpt lat="12.9513990" lon="99.7298220">
    <ele>48.5</ele>
    <time>2018-01-27T07:21:43Z</time>
   </trkpt>
   <trkpt lat="12.9513950" lon="99.7298670">
    <ele>48.5</ele>
    <time>2018-01-27T07:21:44Z</time>
   </trkpt>
   <trkpt lat="12.9513920" lon="99.7299200">
    <ele>48.5</ele>
    <time>2018-01-27T07:21:45Z</time>
   </trkpt>
   <trkpt lat="12.9513890" lon="99.7299700">
    <ele>48.5</ele>
    <time>2018-01-27T07:21:46Z</time>
   </trkpt>
   <trkpt lat="12.9513840" lon="99.7300180">
    <ele>48.5</ele>
    <time>2018-01-27T07:21:47Z</time>
   </trkpt>
   <trkpt lat="12.9513790" lon="99.7300630">
    <ele>48.5</ele>
    <time>2018-01-27T07:21:48Z</time>
   </trkpt>
   <trkpt lat="12.9513740" lon="99.7301050">
    <ele>48.5</ele>
    <time>2018-01-27T07:21:49Z</time>
   </trkpt>
   <trkpt lat="12.9513690" lon="99.7301440">
    <ele>48.5</ele>
    <time>2018-01-27T07:21:50Z</time>
   </trkpt>
   <trkpt lat="12.9513470" lon="99.7303230">
    <ele>48.4</ele>
    <time>2018-01-27T07:21:53Z</time>
   </trkpt>
   <trkpt lat="12.9513410" lon="99.7303740">
    <ele>48.4</ele>
    <time>2018-01-27T07:21:54Z</time>
   </trkpt>
   <trkpt lat="12.9513410" lon="99.7304190">
    <ele>48.3</ele>
    <time>2018-01-27T07:21:55Z</time>
   </trkpt>
   <trkpt lat="12.9513340" lon="99.7304670">
    <ele>48.3</ele>
    <time>2018-01-27T07:21:56Z</time>
   </trkpt>
   <trkpt lat="12.9513260" lon="99.7305090">
    <ele>48.3</ele>
    <time>2018-01-27T07:21:57Z</time>
   </trkpt>
   <trkpt lat="12.9513160" lon="99.7305540">
    <ele>49.2</ele>
    <time>2018-01-27T07:21:58Z</time>
   </trkpt>
   <trkpt lat="12.9513070" lon="99.7306030">
    <ele>49.0</ele>
    <time>2018-01-27T07:21:59Z</time>
   </trkpt>
   <trkpt lat="12.9512920" lon="99.7306450">
    <ele>48.8</ele>
    <time>2018-01-27T07:22:00Z</time>
   </trkpt>
   <trkpt lat="12.9512780" lon="99.7306680">
    <ele>48.7</ele>
    <time>2018-01-27T07:22:01Z</time>
   </trkpt>
   <trkpt lat="12.9512530" lon="99.7306910">
    <ele>48.4</ele>
    <time>2018-01-27T07:22:02Z</time>
   </trkpt>
   <trkpt lat="12.9511870" lon="99.7307340">
    <ele>48.2</ele>
    <time>2018-01-27T07:22:04Z</time>
   </trkpt>
   <trkpt lat="12.9511540" lon="99.7307380">
    <ele>48.2</ele>
    <time>2018-01-27T07:22:05Z</time>
   </trkpt>
   <trkpt lat="12.9511150" lon="99.7307330">
    <ele>48.2</ele>
    <time>2018-01-27T07:22:06Z</time>
   </trkpt>
   <trkpt lat="12.9510750" lon="99.7307260">
    <ele>48.2</ele>
    <time>2018-01-27T07:22:07Z</time>
   </trkpt>
   <trkpt lat="12.9510350" lon="99.7307170">
    <ele>48.2</ele>
    <time>2018-01-27T07:22:08Z</time>
   </trkpt>
   <trkpt lat="12.9509980" lon="99.7307030">
    <ele>48.4</ele>
    <time>2018-01-27T07:22:09Z</time>
   </trkpt>
   <trkpt lat="12.9509570" lon="99.7306910">
    <ele>48.4</ele>
    <time>2018-01-27T07:22:10Z</time>
   </trkpt>
   <trkpt lat="12.9509150" lon="99.7306760">
    <ele>48.6</ele>
    <time>2018-01-27T07:22:11Z</time>
   </trkpt>
   <trkpt lat="12.9508710" lon="99.7306610">
    <ele>49.0</ele>
    <time>2018-01-27T07:22:12Z</time>
   </trkpt>
   <trkpt lat="12.9508290" lon="99.7306530">
    <ele>49.1</ele>
    <time>2018-01-27T07:22:13Z</time>
   </trkpt>
   <trkpt lat="12.9507850" lon="99.7306470">
    <ele>49.3</ele>
    <time>2018-01-27T07:22:15Z</time>
   </trkpt>
   <trkpt lat="12.9507420" lon="99.7306420">
    <ele>49.3</ele>
    <time>2018-01-27T07:22:16Z</time>
   </trkpt>
   <trkpt lat="12.9507030" lon="99.7306360">
    <ele>49.3</ele>
    <time>2018-01-27T07:22:17Z</time>
   </trkpt>
   <trkpt lat="12.9506630" lon="99.7306310">
    <ele>49.3</ele>
    <time>2018-01-27T07:22:18Z</time>
   </trkpt>
   <trkpt lat="12.9506210" lon="99.7306260">
    <ele>49.3</ele>
    <time>2018-01-27T07:22:19Z</time>
   </trkpt>
   <trkpt lat="12.9505760" lon="99.7306220">
    <ele>49.5</ele>
    <time>2018-01-27T07:22:20Z</time>
   </trkpt>
   <trkpt lat="12.9505290" lon="99.7306190">
    <ele>49.7</ele>
    <time>2018-01-27T07:22:21Z</time>
   </trkpt>
   <trkpt lat="12.9504800" lon="99.7306150">
    <ele>50.2</ele>
    <time>2018-01-27T07:22:22Z</time>
   </trkpt>
   <trkpt lat="12.9504300" lon="99.7306090">
    <ele>50.7</ele>
    <time>2018-01-27T07:22:23Z</time>
   </trkpt>
   <trkpt lat="12.9503780" lon="99.7306040">
    <ele>51.2</ele>
    <time>2018-01-27T07:22:24Z</time>
   </trkpt>
   <trkpt lat="12.9503270" lon="99.7305990">
    <ele>51.7</ele>
    <time>2018-01-27T07:22:25Z</time>
   </trkpt>
   <trkpt lat="12.9502740" lon="99.7305950">
    <ele>52.2</ele>
    <time>2018-01-27T07:22:26Z</time>
   </trkpt>
   <trkpt lat="12.9502190" lon="99.7305900">
    <ele>52.1</ele>
    <time>2018-01-27T07:22:27Z</time>
   </trkpt>
   <trkpt lat="12.9501660" lon="99.7305850">
    <ele>52.1</ele>
    <time>2018-01-27T07:22:28Z</time>
   </trkpt>
   <trkpt lat="12.9501030" lon="99.7305770">
    <ele>52.0</ele>
    <time>2018-01-27T07:22:29Z</time>
   </trkpt>
   <trkpt lat="12.9500460" lon="99.7305710">
    <ele>51.8</ele>
    <time>2018-01-27T07:22:30Z</time>
   </trkpt>
   <trkpt lat="12.9499950" lon="99.7305650">
    <ele>51.6</ele>
    <time>2018-01-27T07:22:31Z</time>
   </trkpt>
   <trkpt lat="12.9499490" lon="99.7305580">
    <ele>51.4</ele>
    <time>2018-01-27T07:22:32Z</time>
   </trkpt>
   <trkpt lat="12.9499020" lon="99.7305520">
    <ele>51.7</ele>
    <time>2018-01-27T07:22:33Z</time>
   </trkpt>
   <trkpt lat="12.9498560" lon="99.7305480">
    <ele>52.6</ele>
    <time>2018-01-27T07:22:34Z</time>
   </trkpt>
   <trkpt lat="12.9498050" lon="99.7305430">
    <ele>53.1</ele>
    <time>2018-01-27T07:22:35Z</time>
   </trkpt>
   <trkpt lat="12.9497560" lon="99.7305360">
    <ele>53.6</ele>
    <time>2018-01-27T07:22:36Z</time>
   </trkpt>
   <trkpt lat="12.9497080" lon="99.7305280">
    <ele>53.6</ele>
    <time>2018-01-27T07:22:37Z</time>
   </trkpt>
   <trkpt lat="12.9496600" lon="99.7305220">
    <ele>53.5</ele>
    <time>2018-01-27T07:22:38Z</time>
   </trkpt>
   <trkpt lat="12.9495980" lon="99.7305190">
    <ele>48.2</ele>
    <time>2018-01-27T07:22:39Z</time>
   </trkpt>
   <trkpt lat="12.9495480" lon="99.7305060">
    <ele>48.2</ele>
    <time>2018-01-27T07:22:40Z</time>
   </trkpt>
   <trkpt lat="12.9495020" lon="99.7305020">
    <ele>48.2</ele>
    <time>2018-01-27T07:22:41Z</time>
   </trkpt>
   <trkpt lat="12.9494540" lon="99.7304870">
    <ele>48.2</ele>
    <time>2018-01-27T07:22:42Z</time>
   </trkpt>
   <trkpt lat="12.9494000" lon="99.7304780">
    <ele>48.2</ele>
    <time>2018-01-27T07:22:43Z</time>
   </trkpt>
   <trkpt lat="12.9493480" lon="99.7304710">
    <ele>48.2</ele>
    <time>2018-01-27T07:22:44Z</time>
   </trkpt>
   <trkpt lat="12.9492870" lon="99.7304630">
    <ele>48.2</ele>
    <time>2018-01-27T07:22:45Z</time>
   </trkpt>
   <trkpt lat="12.9492380" lon="99.7304570">
    <ele>48.2</ele>
    <time>2018-01-27T07:22:46Z</time>
   </trkpt>
   <trkpt lat="12.9491890" lon="99.7304450">
    <ele>48.3</ele>
    <time>2018-01-27T07:22:47Z</time>
   </trkpt>
   <trkpt lat="12.9491380" lon="99.7304410">
    <ele>48.3</ele>
    <time>2018-01-27T07:22:48Z</time>
   </trkpt>
   <trkpt lat="12.9490730" lon="99.7304380">
    <ele>48.3</ele>
    <time>2018-01-27T07:22:49Z</time>
   </trkpt>
   <trkpt lat="12.9490210" lon="99.7304290">
    <ele>48.4</ele>
    <time>2018-01-27T07:22:50Z</time>
   </trkpt>
   <trkpt lat="12.9489660" lon="99.7304240">
    <ele>48.4</ele>
    <time>2018-01-27T07:22:51Z</time>
   </trkpt>
   <trkpt lat="12.9489080" lon="99.7304170">
    <ele>48.4</ele>
    <time>2018-01-27T07:22:52Z</time>
   </trkpt>
   <trkpt lat="12.9488650" lon="99.7304090">
    <ele>48.4</ele>
    <time>2018-01-27T07:22:53Z</time>
   </trkpt>
   <trkpt lat="12.9488120" lon="99.7303960">
    <ele>48.5</ele>
    <time>2018-01-27T07:22:54Z</time>
   </trkpt>
   <trkpt lat="12.9487580" lon="99.7303950">
    <ele>48.5</ele>
    <time>2018-01-27T07:22:55Z</time>
   </trkpt>
   <trkpt lat="12.9487070" lon="99.7303840">
    <ele>48.6</ele>
    <time>2018-01-27T07:22:56Z</time>
   </trkpt>
   <trkpt lat="12.9486590" lon="99.7303760">
    <ele>48.6</ele>
    <time>2018-01-27T07:22:57Z</time>
   </trkpt>
   <trkpt lat="12.9486070" lon="99.7303720">
    <ele>48.6</ele>
    <time>2018-01-27T07:22:58Z</time>
   </trkpt>
   <trkpt lat="12.9485510" lon="99.7303630">
    <ele>48.7</ele>
    <time>2018-01-27T07:22:59Z</time>
   </trkpt>
   <trkpt lat="12.9485000" lon="99.7303530">
    <ele>48.8</ele>
    <time>2018-01-27T07:23:00Z</time>
   </trkpt>
   <trkpt lat="12.9484520" lon="99.7303540">
    <ele>48.8</ele>
    <time>2018-01-27T07:23:01Z</time>
   </trkpt>
   <trkpt lat="12.9484020" lon="99.7303410">
    <ele>48.9</ele>
    <time>2018-01-27T07:23:02Z</time>
   </trkpt>
   <trkpt lat="12.9483500" lon="99.7303400">
    <ele>49.0</ele>
    <time>2018-01-27T07:23:03Z</time>
   </trkpt>
   <trkpt lat="12.9483110" lon="99.7303270">
    <ele>49.0</ele>
    <time>2018-01-27T07:23:04Z</time>
   </trkpt>
   <trkpt lat="12.9482640" lon="99.7303160">
    <ele>49.1</ele>
    <time>2018-01-27T07:23:05Z</time>
   </trkpt>
   <trkpt lat="12.9482120" lon="99.7303030">
    <ele>49.1</ele>
    <time>2018-01-27T07:23:06Z</time>
   </trkpt>
   <trkpt lat="12.9481530" lon="99.7302970">
    <ele>49.2</ele>
    <time>2018-01-27T07:23:07Z</time>
   </trkpt>
   <trkpt lat="12.9480990" lon="99.7302900">
    <ele>54.3</ele>
    <time>2018-01-27T07:23:08Z</time>
   </trkpt>
   <trkpt lat="12.9480450" lon="99.7302820">
    <ele>54.1</ele>
    <time>2018-01-27T07:23:09Z</time>
   </trkpt>
   <trkpt lat="12.9479910" lon="99.7302760">
    <ele>54.1</ele>
    <time>2018-01-27T07:23:10Z</time>
   </trkpt>
   <trkpt lat="12.9479430" lon="99.7302720">
    <ele>54.0</ele>
    <time>2018-01-27T07:23:11Z</time>
   </trkpt>
   <trkpt lat="12.9478870" lon="99.7302640">
    <ele>54.3</ele>
    <time>2018-01-27T07:23:12Z</time>
   </trkpt>
   <trkpt lat="12.9478340" lon="99.7302570">
    <ele>54.4</ele>
    <time>2018-01-27T07:23:13Z</time>
   </trkpt>
   <trkpt lat="12.9477830" lon="99.7302490">
    <ele>54.6</ele>
    <time>2018-01-27T07:23:14Z</time>
   </trkpt>
   <trkpt lat="12.9477250" lon="99.7302430">
    <ele>54.4</ele>
    <time>2018-01-27T07:23:15Z</time>
   </trkpt>
   <trkpt lat="12.9476720" lon="99.7302350">
    <ele>54.6</ele>
    <time>2018-01-27T07:23:16Z</time>
   </trkpt>
   <trkpt lat="12.9476220" lon="99.7302260">
    <ele>54.3</ele>
    <time>2018-01-27T07:23:17Z</time>
   </trkpt>
   <trkpt lat="12.9475710" lon="99.7302160">
    <ele>54.3</ele>
    <time>2018-01-27T07:23:18Z</time>
   </trkpt>
   <trkpt lat="12.9475200" lon="99.7302100">
    <ele>54.3</ele>
    <time>2018-01-27T07:23:19Z</time>
   </trkpt>
   <trkpt lat="12.9474670" lon="99.7301980">
    <ele>54.6</ele>
    <time>2018-01-27T07:23:20Z</time>
   </trkpt>
   <trkpt lat="12.9474060" lon="99.7301990">
    <ele>54.6</ele>
    <time>2018-01-27T07:23:21Z</time>
   </trkpt>
   <trkpt lat="12.9473500" lon="99.7301870">
    <ele>54.6</ele>
    <time>2018-01-27T07:23:22Z</time>
   </trkpt>
   <trkpt lat="12.9473020" lon="99.7301800">
    <ele>54.6</ele>
    <time>2018-01-27T07:23:23Z</time>
   </trkpt>
   <trkpt lat="12.9472500" lon="99.7301780">
    <ele>54.5</ele>
    <time>2018-01-27T07:23:24Z</time>
   </trkpt>
   <trkpt lat="12.9471970" lon="99.7301700">
    <ele>54.4</ele>
    <time>2018-01-27T07:23:25Z</time>
   </trkpt>
   <trkpt lat="12.9471400" lon="99.7301610">
    <ele>54.2</ele>
    <time>2018-01-27T07:23:26Z</time>
   </trkpt>
   <trkpt lat="12.9470980" lon="99.7301470">
    <ele>54.0</ele>
    <time>2018-01-27T07:23:27Z</time>
   </trkpt>
   <trkpt lat="12.9470570" lon="99.7301370">
    <ele>53.9</ele>
    <time>2018-01-27T07:23:28Z</time>
   </trkpt>
   <trkpt lat="12.9470170" lon="99.7301280">
    <ele>53.8</ele>
    <time>2018-01-27T07:23:29Z</time>
   </trkpt>
   <trkpt lat="12.9469710" lon="99.7301180">
    <ele>53.7</ele>
    <time>2018-01-27T07:23:30Z</time>
   </trkpt>
   <trkpt lat="12.9469110" lon="99.7301150">
    <ele>53.5</ele>
    <time>2018-01-27T07:23:31Z</time>
   </trkpt>
   <trkpt lat="12.9468690" lon="99.7301080">
    <ele>53.3</ele>
    <time>2018-01-27T07:23:32Z</time>
   </trkpt>
   <trkpt lat="12.9468210" lon="99.7300970">
    <ele>53.1</ele>
    <time>2018-01-27T07:23:33Z</time>
   </trkpt>
   <trkpt lat="12.9467850" lon="99.7300780">
    <ele>52.9</ele>
    <time>2018-01-27T07:23:34Z</time>
   </trkpt>
   <trkpt lat="12.9467370" lon="99.7300700">
    <ele>52.6</ele>
    <time>2018-01-27T07:23:35Z</time>
   </trkpt>
   <trkpt lat="12.9466900" lon="99.7300660">
    <ele>52.6</ele>
    <time>2018-01-27T07:23:36Z</time>
   </trkpt>
   <trkpt lat="12.9466390" lon="99.7300620">
    <ele>52.6</ele>
    <time>2018-01-27T07:23:37Z</time>
   </trkpt>
   <trkpt lat="12.9465910" lon="99.7300560">
    <ele>52.8</ele>
    <time>2018-01-27T07:23:38Z</time>
   </trkpt>
   <trkpt lat="12.9465380" lon="99.7300620">
    <ele>53.1</ele>
    <time>2018-01-27T07:23:39Z</time>
   </trkpt>
   <trkpt lat="12.9464910" lon="99.7300740">
    <ele>53.2</ele>
    <time>2018-01-27T07:23:40Z</time>
   </trkpt>
   <trkpt lat="12.9464440" lon="99.7300850">
    <ele>53.5</ele>
    <time>2018-01-27T07:23:41Z</time>
   </trkpt>
   <trkpt lat="12.9464020" lon="99.7300950">
    <ele>53.9</ele>
    <time>2018-01-27T07:23:42Z</time>
   </trkpt>
   <trkpt lat="12.9463560" lon="99.7301100">
    <ele>54.2</ele>
    <time>2018-01-27T07:23:43Z</time>
   </trkpt>
   <trkpt lat="12.9463190" lon="99.7301190">
    <ele>54.3</ele>
    <time>2018-01-27T07:23:44Z</time>
   </trkpt>
   <trkpt lat="12.9462930" lon="99.7301670">
    <ele>54.5</ele>
    <time>2018-01-27T07:23:46Z</time>
   </trkpt>
   <trkpt lat="12.9462690" lon="99.7301510">
    <ele>54.7</ele>
    <time>2018-01-27T07:23:51Z</time>
   </trkpt>
   <trkpt lat="12.9462410" lon="99.7301310">
    <ele>54.9</ele>
    <time>2018-01-27T07:23:53Z</time>
   </trkpt>
   <trkpt lat="12.9461980" lon="99.7301100">
    <ele>55.4</ele>
    <time>2018-01-27T07:23:55Z</time>
   </trkpt>
   <trkpt lat="12.9461740" lon="99.7300940">
    <ele>55.7</ele>
    <time>2018-01-27T07:23:56Z</time>
   </trkpt>
   <trkpt lat="12.9461460" lon="99.7300720">
    <ele>56.0</ele>
    <time>2018-01-27T07:23:57Z</time>
   </trkpt>
   <trkpt lat="12.9461180" lon="99.7300500">
    <ele>56.4</ele>
    <time>2018-01-27T07:23:58Z</time>
   </trkpt>
   <trkpt lat="12.9460870" lon="99.7300310">
    <ele>56.8</ele>
    <time>2018-01-27T07:23:59Z</time>
   </trkpt>
   <trkpt lat="12.9460520" lon="99.7300170">
    <ele>57.3</ele>
    <time>2018-01-27T07:24:00Z</time>
   </trkpt>
   <trkpt lat="12.9460180" lon="99.7300120">
    <ele>58.0</ele>
    <time>2018-01-27T07:24:01Z</time>
   </trkpt>
   <trkpt lat="12.9459780" lon="99.7300100">
    <ele>58.9</ele>
    <time>2018-01-27T07:24:02Z</time>
   </trkpt>
   <trkpt lat="12.9459350" lon="99.7300050">
    <ele>59.2</ele>
    <time>2018-01-27T07:24:03Z</time>
   </trkpt>
   <trkpt lat="12.9458970" lon="99.7300010">
    <ele>59.4</ele>
    <time>2018-01-27T07:24:04Z</time>
   </trkpt>
   <trkpt lat="12.9458560" lon="99.7300000">
    <ele>59.5</ele>
    <time>2018-01-27T07:24:05Z</time>
   </trkpt>
   <trkpt lat="12.9458190" lon="99.7299950">
    <ele>59.5</ele>
    <time>2018-01-27T07:24:06Z</time>
   </trkpt>
   <trkpt lat="12.9457800" lon="99.7299910">
    <ele>59.5</ele>
    <time>2018-01-27T07:24:07Z</time>
   </trkpt>
   <trkpt lat="12.9457460" lon="99.7299880">
    <ele>59.2</ele>
    <time>2018-01-27T07:24:08Z</time>
   </trkpt>
   <trkpt lat="12.9457140" lon="99.7299840">
    <ele>58.9</ele>
    <time>2018-01-27T07:24:09Z</time>
   </trkpt>
   <trkpt lat="12.9456780" lon="99.7299790">
    <ele>58.6</ele>
    <time>2018-01-27T07:24:10Z</time>
   </trkpt>
   <trkpt lat="12.9455810" lon="99.7299630">
    <ele>57.8</ele>
    <time>2018-01-27T07:24:12Z</time>
   </trkpt>
   <trkpt lat="12.9455420" lon="99.7299630">
    <ele>57.5</ele>
    <time>2018-01-27T07:24:13Z</time>
   </trkpt>
   <trkpt lat="12.9455010" lon="99.7299610">
    <ele>57.3</ele>
    <time>2018-01-27T07:24:14Z</time>
   </trkpt>
   <trkpt lat="12.9454620" lon="99.7299600">
    <ele>57.1</ele>
    <time>2018-01-27T07:24:15Z</time>
   </trkpt>
   <trkpt lat="12.9454160" lon="99.7299570">
    <ele>56.8</ele>
    <time>2018-01-27T07:24:16Z</time>
   </trkpt>
   <trkpt lat="12.9453610" lon="99.7299510">
    <ele>56.5</ele>
    <time>2018-01-27T07:24:17Z</time>
   </trkpt>
   <trkpt lat="12.9453050" lon="99.7299410">
    <ele>56.2</ele>
    <time>2018-01-27T07:24:18Z</time>
   </trkpt>
   <trkpt lat="12.9452450" lon="99.7299340">
    <ele>55.9</ele>
    <time>2018-01-27T07:24:19Z</time>
   </trkpt>
   <trkpt lat="12.9451940" lon="99.7299260">
    <ele>55.6</ele>
    <time>2018-01-27T07:24:20Z</time>
   </trkpt>
   <trkpt lat="12.9451420" lon="99.7299260">
    <ele>55.7</ele>
    <time>2018-01-27T07:24:21Z</time>
   </trkpt>
   <trkpt lat="12.9450980" lon="99.7299360">
    <ele>55.7</ele>
    <time>2018-01-27T07:24:22Z</time>
   </trkpt>
   <trkpt lat="12.9450610" lon="99.7299600">
    <ele>55.8</ele>
    <time>2018-01-27T07:24:23Z</time>
   </trkpt>
   <trkpt lat="12.9450300" lon="99.7299910">
    <ele>55.9</ele>
    <time>2018-01-27T07:24:24Z</time>
   </trkpt>
   <trkpt lat="12.9450130" lon="99.7300270">
    <ele>56.1</ele>
    <time>2018-01-27T07:24:25Z</time>
   </trkpt>
   <trkpt lat="12.9450080" lon="99.7300650">
    <ele>56.1</ele>
    <time>2018-01-27T07:24:26Z</time>
   </trkpt>
   <trkpt lat="12.9450080" lon="99.7301160">
    <ele>56.6</ele>
    <time>2018-01-27T07:24:27Z</time>
   </trkpt>
   <trkpt lat="12.9450040" lon="99.7301600">
    <ele>57.1</ele>
    <time>2018-01-27T07:24:28Z</time>
   </trkpt>
   <trkpt lat="12.9450030" lon="99.7302020">
    <ele>57.3</ele>
    <time>2018-01-27T07:24:29Z</time>
   </trkpt>
   <trkpt lat="12.9450080" lon="99.7302410">
    <ele>57.2</ele>
    <time>2018-01-27T07:24:30Z</time>
   </trkpt>
   <trkpt lat="12.9450080" lon="99.7302840">
    <ele>57.4</ele>
    <time>2018-01-27T07:24:31Z</time>
   </trkpt>
   <trkpt lat="12.9450040" lon="99.7303230">
    <ele>57.5</ele>
    <time>2018-01-27T07:24:32Z</time>
   </trkpt>
   <trkpt lat="12.9450040" lon="99.7303730">
    <ele>57.6</ele>
    <time>2018-01-27T07:24:33Z</time>
   </trkpt>
   <trkpt lat="12.9449980" lon="99.7304100">
    <ele>57.6</ele>
    <time>2018-01-27T07:24:34Z</time>
   </trkpt>
   <trkpt lat="12.9450020" lon="99.7304400">
    <ele>57.6</ele>
    <time>2018-01-27T07:24:35Z</time>
   </trkpt>
   <trkpt lat="12.9450040" lon="99.7304960">
    <ele>57.7</ele>
    <time>2018-01-27T07:24:36Z</time>
   </trkpt>
   <trkpt lat="12.9449970" lon="99.7305290">
    <ele>57.7</ele>
    <time>2018-01-27T07:24:37Z</time>
   </trkpt>
   <trkpt lat="12.9450000" lon="99.7305710">
    <ele>57.7</ele>
    <time>2018-01-27T07:24:38Z</time>
   </trkpt>
   <trkpt lat="12.9450030" lon="99.7306080">
    <ele>57.7</ele>
    <time>2018-01-27T07:24:39Z</time>
   </trkpt>
   <trkpt lat="12.9450000" lon="99.7306460">
    <ele>57.7</ele>
    <time>2018-01-27T07:24:40Z</time>
   </trkpt>
   <trkpt lat="12.9449880" lon="99.7306850">
    <ele>57.7</ele>
    <time>2018-01-27T07:24:42Z</time>
   </trkpt>
   <trkpt lat="12.9449460" lon="99.7306880">
    <ele>57.7</ele>
    <time>2018-01-27T07:24:44Z</time>
   </trkpt>
   <trkpt lat="12.9449160" lon="99.7306850">
    <ele>57.7</ele>
    <time>2018-01-27T07:24:45Z</time>
   </trkpt>
   <trkpt lat="12.9448820" lon="99.7306830">
    <ele>57.7</ele>
    <time>2018-01-27T07:24:46Z</time>
   </trkpt>
   <trkpt lat="12.9448480" lon="99.7306840">
    <ele>57.8</ele>
    <time>2018-01-27T07:24:47Z</time>
   </trkpt>
   <trkpt lat="12.9448180" lon="99.7306830">
    <ele>57.8</ele>
    <time>2018-01-27T07:24:48Z</time>
   </trkpt>
   <trkpt lat="12.9447780" lon="99.7306830">
    <ele>57.9</ele>
    <time>2018-01-27T07:24:50Z</time>
   </trkpt>
   <trkpt lat="12.9448200" lon="99.7306660">
    <ele>58.0</ele>
    <time>2018-01-27T07:25:19Z</time>
   </trkpt>
   <trkpt lat="12.9448570" lon="99.7306570">
    <ele>57.9</ele>
    <time>2018-01-27T07:25:21Z</time>
   </trkpt>
   <trkpt lat="12.9449010" lon="99.7306610">
    <ele>57.8</ele>
    <time>2018-01-27T07:25:29Z</time>
   </trkpt>
   <trkpt lat="12.9449400" lon="99.7306640">
    <ele>57.7</ele>
    <time>2018-01-27T07:25:31Z</time>
   </trkpt>
   <trkpt lat="12.9449750" lon="99.7307060">
    <ele>57.7</ele>
    <time>2018-01-27T07:25:33Z</time>
   </trkpt>
   <trkpt lat="12.9449870" lon="99.7307400">
    <ele>57.7</ele>
    <time>2018-01-27T07:25:34Z</time>
   </trkpt>
   <trkpt lat="12.9449920" lon="99.7307800">
    <ele>57.6</ele>
    <time>2018-01-27T07:25:35Z</time>
   </trkpt>
   <trkpt lat="12.9449920" lon="99.7308250">
    <ele>57.5</ele>
    <time>2018-01-27T07:25:36Z</time>
   </trkpt>
   <trkpt lat="12.9449910" lon="99.7308670">
    <ele>57.4</ele>
    <time>2018-01-27T07:25:37Z</time>
   </trkpt>
   <trkpt lat="12.9449880" lon="99.7309090">
    <ele>57.3</ele>
    <time>2018-01-27T07:25:38Z</time>
   </trkpt>
   <trkpt lat="12.9449830" lon="99.7309540">
    <ele>57.2</ele>
    <time>2018-01-27T07:25:39Z</time>
   </trkpt>
   <trkpt lat="12.9449720" lon="99.7310040">
    <ele>57.0</ele>
    <time>2018-01-27T07:25:40Z</time>
   </trkpt>
   <trkpt lat="12.9449760" lon="99.7310620">
    <ele>56.8</ele>
    <time>2018-01-27T07:25:41Z</time>
   </trkpt>
   <trkpt lat="12.9449760" lon="99.7311120">
    <ele>56.8</ele>
    <time>2018-01-27T07:25:42Z</time>
   </trkpt>
   <trkpt lat="12.9449810" lon="99.7311730">
    <ele>56.8</ele>
    <time>2018-01-27T07:25:43Z</time>
   </trkpt>
   <trkpt lat="12.9449780" lon="99.7312270">
    <ele>56.9</ele>
    <time>2018-01-27T07:25:44Z</time>
   </trkpt>
   <trkpt lat="12.9449760" lon="99.7312810">
    <ele>57.1</ele>
    <time>2018-01-27T07:25:45Z</time>
   </trkpt>
   <trkpt lat="12.9449760" lon="99.7313260">
    <ele>57.4</ele>
    <time>2018-01-27T07:25:46Z</time>
   </trkpt>
   <trkpt lat="12.9449750" lon="99.7313790">
    <ele>57.7</ele>
    <time>2018-01-27T07:25:47Z</time>
   </trkpt>
   <trkpt lat="12.9449640" lon="99.7314360">
    <ele>58.0</ele>
    <time>2018-01-27T07:25:48Z</time>
   </trkpt>
   <trkpt lat="12.9449590" lon="99.7314840">
    <ele>58.9</ele>
    <time>2018-01-27T07:25:49Z</time>
   </trkpt>
   <trkpt lat="12.9449600" lon="99.7315310">
    <ele>59.4</ele>
    <time>2018-01-27T07:25:50Z</time>
   </trkpt>
   <trkpt lat="12.9449700" lon="99.7315740">
    <ele>59.5</ele>
    <time>2018-01-27T07:25:51Z</time>
   </trkpt>
   <trkpt lat="12.9449670" lon="99.7316320">
    <ele>59.7</ele>
    <time>2018-01-27T07:25:52Z</time>
   </trkpt>
   <trkpt lat="12.9449630" lon="99.7316860">
    <ele>60.2</ele>
    <time>2018-01-27T07:25:53Z</time>
   </trkpt>
   <trkpt lat="12.9449630" lon="99.7317320">
    <ele>60.4</ele>
    <time>2018-01-27T07:25:54Z</time>
   </trkpt>
   <trkpt lat="12.9449670" lon="99.7317730">
    <ele>60.1</ele>
    <time>2018-01-27T07:25:55Z</time>
   </trkpt>
   <trkpt lat="12.9449610" lon="99.7318110">
    <ele>60.3</ele>
    <time>2018-01-27T07:25:56Z</time>
   </trkpt>
   <trkpt lat="12.9449640" lon="99.7318580">
    <ele>60.1</ele>
    <time>2018-01-27T07:25:57Z</time>
   </trkpt>
   <trkpt lat="12.9449700" lon="99.7319080">
    <ele>59.6</ele>
    <time>2018-01-27T07:25:58Z</time>
   </trkpt>
   <trkpt lat="12.9449670" lon="99.7319590">
    <ele>59.1</ele>
    <time>2018-01-27T07:25:59Z</time>
   </trkpt>
   <trkpt lat="12.9449600" lon="99.7320020">
    <ele>59.1</ele>
    <time>2018-01-27T07:26:00Z</time>
   </trkpt>
   <trkpt lat="12.9449620" lon="99.7320460">
    <ele>58.8</ele>
    <time>2018-01-27T07:26:01Z</time>
   </trkpt>
   <trkpt lat="12.9449600" lon="99.7320890">
    <ele>58.5</ele>
    <time>2018-01-27T07:26:02Z</time>
   </trkpt>
   <trkpt lat="12.9449680" lon="99.7321400">
    <ele>57.6</ele>
    <time>2018-01-27T07:26:03Z</time>
   </trkpt>
   <trkpt lat="12.9449790" lon="99.7321900">
    <ele>57.2</ele>
    <time>2018-01-27T07:26:04Z</time>
   </trkpt>
   <trkpt lat="12.9449830" lon="99.7322420">
    <ele>56.8</ele>
    <time>2018-01-27T07:26:05Z</time>
   </trkpt>
   <trkpt lat="12.9449880" lon="99.7322930">
    <ele>56.4</ele>
    <time>2018-01-27T07:26:06Z</time>
   </trkpt>
   <trkpt lat="12.9449840" lon="99.7323410">
    <ele>56.0</ele>
    <time>2018-01-27T07:26:07Z</time>
   </trkpt>
   <trkpt lat="12.9449810" lon="99.7323870">
    <ele>55.2</ele>
    <time>2018-01-27T07:26:08Z</time>
   </trkpt>
   <trkpt lat="12.9449790" lon="99.7324330">
    <ele>55.0</ele>
    <time>2018-01-27T07:26:09Z</time>
   </trkpt>
   <trkpt lat="12.9449710" lon="99.7324770">
    <ele>55.0</ele>
    <time>2018-01-27T07:26:10Z</time>
   </trkpt>
   <trkpt lat="12.9449680" lon="99.7325210">
    <ele>55.0</ele>
    <time>2018-01-27T07:26:11Z</time>
   </trkpt>
   <trkpt lat="12.9449660" lon="99.7325680">
    <ele>55.0</ele>
    <time>2018-01-27T07:26:12Z</time>
   </trkpt>
   <trkpt lat="12.9449620" lon="99.7326140">
    <ele>55.0</ele>
    <time>2018-01-27T07:26:13Z</time>
   </trkpt>
   <trkpt lat="12.9449590" lon="99.7326600">
    <ele>55.3</ele>
    <time>2018-01-27T07:26:14Z</time>
   </trkpt>
   <trkpt lat="12.9449560" lon="99.7327020">
    <ele>55.6</ele>
    <time>2018-01-27T07:26:15Z</time>
   </trkpt>
   <trkpt lat="12.9449480" lon="99.7327400">
    <ele>55.8</ele>
    <time>2018-01-27T07:26:16Z</time>
   </trkpt>
   <trkpt lat="12.9449410" lon="99.7327820">
    <ele>56.1</ele>
    <time>2018-01-27T07:26:17Z</time>
   </trkpt>
   <trkpt lat="12.9449250" lon="99.7328410">
    <ele>56.3</ele>
    <time>2018-01-27T07:26:19Z</time>
   </trkpt>
   <trkpt lat="12.9449200" lon="99.7328820">
    <ele>56.6</ele>
    <time>2018-01-27T07:26:20Z</time>
   </trkpt>
   <trkpt lat="12.9449150" lon="99.7329240">
    <ele>56.8</ele>
    <time>2018-01-27T07:26:21Z</time>
   </trkpt>
   <trkpt lat="12.9449000" lon="99.7329550">
    <ele>57.0</ele>
    <time>2018-01-27T07:26:22Z</time>
   </trkpt>
   <trkpt lat="12.9448730" lon="99.7329800">
    <ele>57.1</ele>
    <time>2018-01-27T07:26:23Z</time>
   </trkpt>
   <trkpt lat="12.9448350" lon="99.7330020">
    <ele>57.2</ele>
    <time>2018-01-27T07:26:24Z</time>
   </trkpt>
   <trkpt lat="12.9447920" lon="99.7330120">
    <ele>57.3</ele>
    <time>2018-01-27T07:26:25Z</time>
   </trkpt>
   <trkpt lat="12.9447530" lon="99.7330210">
    <ele>57.5</ele>
    <time>2018-01-27T07:26:26Z</time>
   </trkpt>
   <trkpt lat="12.9446950" lon="99.7330240">
    <ele>57.7</ele>
    <time>2018-01-27T07:26:27Z</time>
   </trkpt>
   <trkpt lat="12.9446540" lon="99.7330140">
    <ele>58.0</ele>
    <time>2018-01-27T07:26:28Z</time>
   </trkpt>
   <trkpt lat="12.9446100" lon="99.7330090">
    <ele>58.2</ele>
    <time>2018-01-27T07:26:29Z</time>
   </trkpt>
   <trkpt lat="12.9445770" lon="99.7330040">
    <ele>58.5</ele>
    <time>2018-01-27T07:26:30Z</time>
   </trkpt>
   <trkpt lat="12.9445440" lon="99.7330010">
    <ele>58.6</ele>
    <time>2018-01-27T07:26:31Z</time>
   </trkpt>
   <trkpt lat="12.9445150" lon="99.7330030">
    <ele>58.6</ele>
    <time>2018-01-27T07:26:32Z</time>
   </trkpt>
   <trkpt lat="12.9444730" lon="99.7330020">
    <ele>58.8</ele>
    <time>2018-01-27T07:26:33Z</time>
   </trkpt>
   <trkpt lat="12.9444240" lon="99.7330050">
    <ele>59.0</ele>
    <time>2018-01-27T07:26:34Z</time>
   </trkpt>
   <trkpt lat="12.9443760" lon="99.7330020">
    <ele>59.0</ele>
    <time>2018-01-27T07:26:35Z</time>
   </trkpt>
   <trkpt lat="12.9443330" lon="99.7330000">
    <ele>58.9</ele>
    <time>2018-01-27T07:26:36Z</time>
   </trkpt>
   <trkpt lat="12.9442750" lon="99.7330120">
    <ele>58.8</ele>
    <time>2018-01-27T07:26:37Z</time>
   </trkpt>
   <trkpt lat="12.9442260" lon="99.7330150">
    <ele>58.8</ele>
    <time>2018-01-27T07:26:38Z</time>
   </trkpt>
   <trkpt lat="12.9441850" lon="99.7330260">
    <ele>58.8</ele>
    <time>2018-01-27T07:26:39Z</time>
   </trkpt>
   <trkpt lat="12.9441430" lon="99.7330310">
    <ele>58.6</ele>
    <time>2018-01-27T07:26:40Z</time>
   </trkpt>
   <trkpt lat="12.9441060" lon="99.7330360">
    <ele>58.6</ele>
    <time>2018-01-27T07:26:41Z</time>
   </trkpt>
   <trkpt lat="12.9440610" lon="99.7330250">
    <ele>58.8</ele>
    <time>2018-01-27T07:26:42Z</time>
   </trkpt>
   <trkpt lat="12.9440180" lon="99.7330130">
    <ele>58.8</ele>
    <time>2018-01-27T07:26:43Z</time>
   </trkpt>
   <trkpt lat="12.9439740" lon="99.7330040">
    <ele>58.8</ele>
    <time>2018-01-27T07:26:44Z</time>
   </trkpt>
   <trkpt lat="12.9439350" lon="99.7330020">
    <ele>58.8</ele>
    <time>2018-01-27T07:26:45Z</time>
   </trkpt>
   <trkpt lat="12.9438930" lon="99.7329930">
    <ele>58.8</ele>
    <time>2018-01-27T07:26:46Z</time>
   </trkpt>
   <trkpt lat="12.9438440" lon="99.7329920">
    <ele>58.9</ele>
    <time>2018-01-27T07:26:47Z</time>
   </trkpt>
   <trkpt lat="12.9437950" lon="99.7329950">
    <ele>58.9</ele>
    <time>2018-01-27T07:26:48Z</time>
   </trkpt>
   <trkpt lat="12.9437550" lon="99.7329950">
    <ele>58.9</ele>
    <time>2018-01-27T07:26:49Z</time>
   </trkpt>
   <trkpt lat="12.9437080" lon="99.7329910">
    <ele>59.0</ele>
    <time>2018-01-27T07:26:50Z</time>
   </trkpt>
   <trkpt lat="12.9436650" lon="99.7329940">
    <ele>59.1</ele>
    <time>2018-01-27T07:26:51Z</time>
   </trkpt>
   <trkpt lat="12.9436240" lon="99.7330020">
    <ele>59.1</ele>
    <time>2018-01-27T07:26:52Z</time>
   </trkpt>
   <trkpt lat="12.9435820" lon="99.7330080">
    <ele>59.2</ele>
    <time>2018-01-27T07:26:53Z</time>
   </trkpt>
   <trkpt lat="12.9435420" lon="99.7330060">
    <ele>59.1</ele>
    <time>2018-01-27T07:26:54Z</time>
   </trkpt>
   <trkpt lat="12.9434920" lon="99.7330060">
    <ele>59.0</ele>
    <time>2018-01-27T07:26:55Z</time>
   </trkpt>
   <trkpt lat="12.9434570" lon="99.7330140">
    <ele>59.0</ele>
    <time>2018-01-27T07:26:56Z</time>
   </trkpt>
   <trkpt lat="12.9434230" lon="99.7330110">
    <ele>59.0</ele>
    <time>2018-01-27T07:26:57Z</time>
   </trkpt>
   <trkpt lat="12.9433760" lon="99.7330170">
    <ele>58.9</ele>
    <time>2018-01-27T07:26:58Z</time>
   </trkpt>
   <trkpt lat="12.9433180" lon="99.7330300">
    <ele>58.4</ele>
    <time>2018-01-27T07:26:59Z</time>
   </trkpt>
   <trkpt lat="12.9432730" lon="99.7330210">
    <ele>58.4</ele>
    <time>2018-01-27T07:27:00Z</time>
   </trkpt>
   <trkpt lat="12.9432220" lon="99.7330180">
    <ele>58.2</ele>
    <time>2018-01-27T07:27:01Z</time>
   </trkpt>
   <trkpt lat="12.9431800" lon="99.7330070">
    <ele>58.3</ele>
    <time>2018-01-27T07:27:02Z</time>
   </trkpt>
   <trkpt lat="12.9431440" lon="99.7330050">
    <ele>58.3</ele>
    <time>2018-01-27T07:27:03Z</time>
   </trkpt>
   <trkpt lat="12.9431050" lon="99.7329970">
    <ele>58.3</ele>
    <time>2018-01-27T07:27:04Z</time>
   </trkpt>
   <trkpt lat="12.9430570" lon="99.7329970">
    <ele>58.3</ele>
    <time>2018-01-27T07:27:05Z</time>
   </trkpt>
   <trkpt lat="12.9430120" lon="99.7330030">
    <ele>58.3</ele>
    <time>2018-01-27T07:27:06Z</time>
   </trkpt>
   <trkpt lat="12.9429600" lon="99.7330080">
    <ele>58.3</ele>
    <time>2018-01-27T07:27:07Z</time>
   </trkpt>
   <trkpt lat="12.9429190" lon="99.7330070">
    <ele>58.3</ele>
    <time>2018-01-27T07:27:08Z</time>
   </trkpt>
   <trkpt lat="12.9428730" lon="99.7330100">
    <ele>58.3</ele>
    <time>2018-01-27T07:27:09Z</time>
   </trkpt>
   <trkpt lat="12.9428260" lon="99.7330060">
    <ele>58.3</ele>
    <time>2018-01-27T07:27:10Z</time>
   </trkpt>
   <trkpt lat="12.9427790" lon="99.7330010">
    <ele>58.3</ele>
    <time>2018-01-27T07:27:11Z</time>
   </trkpt>
   <trkpt lat="12.9427340" lon="99.7329940">
    <ele>58.3</ele>
    <time>2018-01-27T07:27:12Z</time>
   </trkpt>
   <trkpt lat="12.9426920" lon="99.7329860">
    <ele>58.3</ele>
    <time>2018-01-27T07:27:13Z</time>
   </trkpt>
   <trkpt lat="12.9426450" lon="99.7329790">
    <ele>58.3</ele>
    <time>2018-01-27T07:27:14Z</time>
   </trkpt>
   <trkpt lat="12.9425900" lon="99.7329780">
    <ele>58.3</ele>
    <time>2018-01-27T07:27:15Z</time>
   </trkpt>
   <trkpt lat="12.9425410" lon="99.7329740">
    <ele>58.3</ele>
    <time>2018-01-27T07:27:16Z</time>
   </trkpt>
   <trkpt lat="12.9424940" lon="99.7329710">
    <ele>58.3</ele>
    <time>2018-01-27T07:27:17Z</time>
   </trkpt>
   <trkpt lat="12.9424380" lon="99.7329640">
    <ele>58.3</ele>
    <time>2018-01-27T07:27:18Z</time>
   </trkpt>
   <trkpt lat="12.9423860" lon="99.7329660">
    <ele>58.4</ele>
    <time>2018-01-27T07:27:19Z</time>
   </trkpt>
   <trkpt lat="12.9423410" lon="99.7329670">
    <ele>58.4</ele>
    <time>2018-01-27T07:27:20Z</time>
   </trkpt>
   <trkpt lat="12.9422840" lon="99.7329880">
    <ele>58.4</ele>
    <time>2018-01-27T07:27:21Z</time>
   </trkpt>
   <trkpt lat="12.9422270" lon="99.7329980">
    <ele>58.3</ele>
    <time>2018-01-27T07:27:22Z</time>
   </trkpt>
   <trkpt lat="12.9421760" lon="99.7329940">
    <ele>58.3</ele>
    <time>2018-01-27T07:27:23Z</time>
   </trkpt>
   <trkpt lat="12.9421140" lon="99.7329930">
    <ele>58.1</ele>
    <time>2018-01-27T07:27:24Z</time>
   </trkpt>
   <trkpt lat="12.9420510" lon="99.7329990">
    <ele>58.1</ele>
    <time>2018-01-27T07:27:25Z</time>
   </trkpt>
   <trkpt lat="12.9419960" lon="99.7329810">
    <ele>58.3</ele>
    <time>2018-01-27T07:27:26Z</time>
   </trkpt>
   <trkpt lat="12.9419240" lon="99.7329740">
    <ele>58.3</ele>
    <time>2018-01-27T07:27:27Z</time>
   </trkpt>
   <trkpt lat="12.9418600" lon="99.7329740">
    <ele>58.3</ele>
    <time>2018-01-27T07:27:28Z</time>
   </trkpt>
   <trkpt lat="12.9418080" lon="99.7329680">
    <ele>58.3</ele>
    <time>2018-01-27T07:27:29Z</time>
   </trkpt>
   <trkpt lat="12.9417550" lon="99.7329670">
    <ele>58.4</ele>
    <time>2018-01-27T07:27:30Z</time>
   </trkpt>
   <trkpt lat="12.9417000" lon="99.7329570">
    <ele>58.4</ele>
    <time>2018-01-27T07:27:31Z</time>
   </trkpt>
   <trkpt lat="12.9416540" lon="99.7329470">
    <ele>58.4</ele>
    <time>2018-01-27T07:27:32Z</time>
   </trkpt>
   <trkpt lat="12.9415900" lon="99.7329520">
    <ele>58.4</ele>
    <time>2018-01-27T07:27:33Z</time>
   </trkpt>
   <trkpt lat="12.9415340" lon="99.7329640">
    <ele>58.1</ele>
    <time>2018-01-27T07:27:34Z</time>
   </trkpt>
   <trkpt lat="12.9414820" lon="99.7329620">
    <ele>57.9</ele>
    <time>2018-01-27T07:27:35Z</time>
   </trkpt>
   <trkpt lat="12.9414380" lon="99.7329630">
    <ele>57.6</ele>
    <time>2018-01-27T07:27:36Z</time>
   </trkpt>
   <trkpt lat="12.9413880" lon="99.7329750">
    <ele>57.5</ele>
    <time>2018-01-27T07:27:37Z</time>
   </trkpt>
   <trkpt lat="12.9413450" lon="99.7329900">
    <ele>57.5</ele>
    <time>2018-01-27T07:27:38Z</time>
   </trkpt>
   <trkpt lat="12.9412910" lon="99.7329900">
    <ele>57.5</ele>
    <time>2018-01-27T07:27:39Z</time>
   </trkpt>
   <trkpt lat="12.9412390" lon="99.7329960">
    <ele>57.5</ele>
    <time>2018-01-27T07:27:40Z</time>
   </trkpt>
   <trkpt lat="12.9411910" lon="99.7330040">
    <ele>57.5</ele>
    <time>2018-01-27T07:27:41Z</time>
   </trkpt>
   <trkpt lat="12.9411550" lon="99.7330090">
    <ele>57.5</ele>
    <time>2018-01-27T07:27:42Z</time>
   </trkpt>
   <trkpt lat="12.9411000" lon="99.7330150">
    <ele>57.5</ele>
    <time>2018-01-27T07:27:43Z</time>
   </trkpt>
   <trkpt lat="12.9410570" lon="99.7330250">
    <ele>57.6</ele>
    <time>2018-01-27T07:27:44Z</time>
   </trkpt>
   <trkpt lat="12.9410070" lon="99.7330320">
    <ele>57.8</ele>
    <time>2018-01-27T07:27:45Z</time>
   </trkpt>
   <trkpt lat="12.9409520" lon="99.7330320">
    <ele>58.1</ele>
    <time>2018-01-27T07:27:46Z</time>
   </trkpt>
   <trkpt lat="12.9409080" lon="99.7330290">
    <ele>58.3</ele>
    <time>2018-01-27T07:27:47Z</time>
   </trkpt>
   <trkpt lat="12.9408600" lon="99.7330350">
    <ele>58.5</ele>
    <time>2018-01-27T07:27:48Z</time>
   </trkpt>
   <trkpt lat="12.9408010" lon="99.7330400">
    <ele>58.5</ele>
    <time>2018-01-27T07:27:49Z</time>
   </trkpt>
   <trkpt lat="12.9407400" lon="99.7330250">
    <ele>58.6</ele>
    <time>2018-01-27T07:27:51Z</time>
   </trkpt>
   <trkpt lat="12.9406960" lon="99.7330200">
    <ele>58.8</ele>
    <time>2018-01-27T07:27:52Z</time>
   </trkpt>
   <trkpt lat="12.9406540" lon="99.7330100">
    <ele>58.9</ele>
    <time>2018-01-27T07:27:53Z</time>
   </trkpt>
   <trkpt lat="12.9405950" lon="99.7330170">
    <ele>59.1</ele>
    <time>2018-01-27T07:27:54Z</time>
   </trkpt>
   <trkpt lat="12.9405430" lon="99.7330320">
    <ele>59.0</ele>
    <time>2018-01-27T07:27:55Z</time>
   </trkpt>
   <trkpt lat="12.9404950" lon="99.7330350">
    <ele>59.1</ele>
    <time>2018-01-27T07:27:56Z</time>
   </trkpt>
   <trkpt lat="12.9404450" lon="99.7330290">
    <ele>59.4</ele>
    <time>2018-01-27T07:27:57Z</time>
   </trkpt>
   <trkpt lat="12.9404080" lon="99.7330230">
    <ele>59.8</ele>
    <time>2018-01-27T07:27:58Z</time>
   </trkpt>
   <trkpt lat="12.9403540" lon="99.7330200">
    <ele>60.0</ele>
    <time>2018-01-27T07:27:59Z</time>
   </trkpt>
   <trkpt lat="12.9402910" lon="99.7330270">
    <ele>60.0</ele>
    <time>2018-01-27T07:28:00Z</time>
   </trkpt>
   <trkpt lat="12.9402510" lon="99.7330350">
    <ele>59.5</ele>
    <time>2018-01-27T07:28:01Z</time>
   </trkpt>
   <trkpt lat="12.9402090" lon="99.7330280">
    <ele>60.0</ele>
    <time>2018-01-27T07:28:02Z</time>
   </trkpt>
   <trkpt lat="12.9401660" lon="99.7330170">
    <ele>60.0</ele>
    <time>2018-01-27T07:28:03Z</time>
   </trkpt>
   <trkpt lat="12.9401320" lon="99.7330090">
    <ele>60.0</ele>
    <time>2018-01-27T07:28:04Z</time>
   </trkpt>
   <trkpt lat="12.9400940" lon="99.7330070">
    <ele>60.0</ele>
    <time>2018-01-27T07:28:05Z</time>
   </trkpt>
   <trkpt lat="12.9400410" lon="99.7329960">
    <ele>60.0</ele>
    <time>2018-01-27T07:28:06Z</time>
   </trkpt>
   <trkpt lat="12.9399980" lon="99.7329900">
    <ele>60.0</ele>
    <time>2018-01-27T07:28:07Z</time>
   </trkpt>
   <trkpt lat="12.9399520" lon="99.7329870">
    <ele>60.0</ele>
    <time>2018-01-27T07:28:08Z</time>
   </trkpt>
   <trkpt lat="12.9399140" lon="99.7329810">
    <ele>60.5</ele>
    <time>2018-01-27T07:28:09Z</time>
   </trkpt>
   <trkpt lat="12.9398750" lon="99.7329750">
    <ele>60.5</ele>
    <time>2018-01-27T07:28:10Z</time>
   </trkpt>
   <trkpt lat="12.9398370" lon="99.7329640">
    <ele>60.6</ele>
    <time>2018-01-27T07:28:11Z</time>
   </trkpt>
   <trkpt lat="12.9397800" lon="99.7329590">
    <ele>60.6</ele>
    <time>2018-01-27T07:28:12Z</time>
   </trkpt>
   <trkpt lat="12.9397490" lon="99.7329560">
    <ele>60.6</ele>
    <time>2018-01-27T07:28:13Z</time>
   </trkpt>
   <trkpt lat="12.9397100" lon="99.7329480">
    <ele>60.6</ele>
    <time>2018-01-27T07:28:14Z</time>
   </trkpt>
   <trkpt lat="12.9396790" lon="99.7329560">
    <ele>60.6</ele>
    <time>2018-01-27T07:28:15Z</time>
   </trkpt>
   <trkpt lat="12.9396430" lon="99.7329570">
    <ele>60.6</ele>
    <time>2018-01-27T07:28:16Z</time>
   </trkpt>
   <trkpt lat="12.9396000" lon="99.7329590">
    <ele>60.6</ele>
    <time>2018-01-27T07:28:17Z</time>
   </trkpt>
   <trkpt lat="12.9395570" lon="99.7329540">
    <ele>60.5</ele>
    <time>2018-01-27T07:28:18Z</time>
   </trkpt>
   <trkpt lat="12.9395140" lon="99.7329540">
    <ele>60.2</ele>
    <time>2018-01-27T07:28:19Z</time>
   </trkpt>
   <trkpt lat="12.9394600" lon="99.7329500">
    <ele>60.0</ele>
    <time>2018-01-27T07:28:20Z</time>
   </trkpt>
   <trkpt lat="12.9394160" lon="99.7329500">
    <ele>59.8</ele>
    <time>2018-01-27T07:28:21Z</time>
   </trkpt>
   <trkpt lat="12.9393740" lon="99.7329430">
    <ele>59.3</ele>
    <time>2018-01-27T07:28:22Z</time>
   </trkpt>
   <trkpt lat="12.9393260" lon="99.7329550">
    <ele>58.8</ele>
    <time>2018-01-27T07:28:23Z</time>
   </trkpt>
   <trkpt lat="12.9392880" lon="99.7329590">
    <ele>58.4</ele>
    <time>2018-01-27T07:28:24Z</time>
   </trkpt>
   <trkpt lat="12.9392440" lon="99.7329670">
    <ele>57.9</ele>
    <time>2018-01-27T07:28:25Z</time>
   </trkpt>
   <trkpt lat="12.9391960" lon="99.7329710">
    <ele>57.7</ele>
    <time>2018-01-27T07:28:26Z</time>
   </trkpt>
   <trkpt lat="12.9391440" lon="99.7329680">
    <ele>57.7</ele>
    <time>2018-01-27T07:28:28Z</time>
   </trkpt>
   <trkpt lat="12.9390960" lon="99.7329660">
    <ele>57.7</ele>
    <time>2018-01-27T07:28:29Z</time>
   </trkpt>
   <trkpt lat="12.9390530" lon="99.7329660">
    <ele>57.8</ele>
    <time>2018-01-27T07:28:30Z</time>
   </trkpt>
   <trkpt lat="12.9390120" lon="99.7329690">
    <ele>57.8</ele>
    <time>2018-01-27T07:28:31Z</time>
   </trkpt>
   <trkpt lat="12.9389710" lon="99.7329730">
    <ele>57.8</ele>
    <time>2018-01-27T07:28:32Z</time>
   </trkpt>
   <trkpt lat="12.9389280" lon="99.7329750">
    <ele>57.8</ele>
    <time>2018-01-27T07:28:33Z</time>
   </trkpt>
   <trkpt lat="12.9388790" lon="99.7329760">
    <ele>57.8</ele>
    <time>2018-01-27T07:28:34Z</time>
   </trkpt>
   <trkpt lat="12.9388260" lon="99.7329740">
    <ele>57.8</ele>
    <time>2018-01-27T07:28:35Z</time>
   </trkpt>
   <trkpt lat="12.9387620" lon="99.7329710">
    <ele>57.8</ele>
    <time>2018-01-27T07:28:36Z</time>
   </trkpt>
   <trkpt lat="12.9386260" lon="99.7329580">
    <ele>57.1</ele>
    <time>2018-01-27T07:28:37Z</time>
   </trkpt>
   <trkpt lat="12.9385630" lon="99.7329550">
    <ele>56.6</ele>
    <time>2018-01-27T07:28:38Z</time>
   </trkpt>
   <trkpt lat="12.9385090" lon="99.7329550">
    <ele>56.3</ele>
    <time>2018-01-27T07:28:39Z</time>
   </trkpt>
   <trkpt lat="12.9384520" lon="99.7329580">
    <ele>56.1</ele>
    <time>2018-01-27T07:28:40Z</time>
   </trkpt>
   <trkpt lat="12.9383980" lon="99.7329580">
    <ele>55.7</ele>
    <time>2018-01-27T07:28:41Z</time>
   </trkpt>
   <trkpt lat="12.9383380" lon="99.7329590">
    <ele>55.7</ele>
    <time>2018-01-27T07:28:42Z</time>
   </trkpt>
   <trkpt lat="12.9382790" lon="99.7329610">
    <ele>55.7</ele>
    <time>2018-01-27T07:28:43Z</time>
   </trkpt>
   <trkpt lat="12.9382220" lon="99.7329600">
    <ele>55.6</ele>
    <time>2018-01-27T07:28:44Z</time>
   </trkpt>
   <trkpt lat="12.9381620" lon="99.7329520">
    <ele>55.3</ele>
    <time>2018-01-27T07:28:45Z</time>
   </trkpt>
   <trkpt lat="12.9380940" lon="99.7329500">
    <ele>54.9</ele>
    <time>2018-01-27T07:28:46Z</time>
   </trkpt>
   <trkpt lat="12.9380370" lon="99.7329520">
    <ele>54.6</ele>
    <time>2018-01-27T07:28:47Z</time>
   </trkpt>
   <trkpt lat="12.9379730" lon="99.7329430">
    <ele>54.2</ele>
    <time>2018-01-27T07:28:48Z</time>
   </trkpt>
   <trkpt lat="12.9379110" lon="99.7329360">
    <ele>54.1</ele>
    <time>2018-01-27T07:28:49Z</time>
   </trkpt>
   <trkpt lat="12.9378400" lon="99.7329440">
    <ele>53.9</ele>
    <time>2018-01-27T07:28:50Z</time>
   </trkpt>
   <trkpt lat="12.9377740" lon="99.7329450">
    <ele>53.9</ele>
    <time>2018-01-27T07:28:51Z</time>
   </trkpt>
   <trkpt lat="12.9377080" lon="99.7329520">
    <ele>53.9</ele>
    <time>2018-01-27T07:28:52Z</time>
   </trkpt>
   <trkpt lat="12.9376300" lon="99.7329630">
    <ele>53.9</ele>
    <time>2018-01-27T07:28:53Z</time>
   </trkpt>
   <trkpt lat="12.9375530" lon="99.7329700">
    <ele>53.9</ele>
    <time>2018-01-27T07:28:54Z</time>
   </trkpt>
   <trkpt lat="12.9374910" lon="99.7329810">
    <ele>53.9</ele>
    <time>2018-01-27T07:28:55Z</time>
   </trkpt>
   <trkpt lat="12.9374270" lon="99.7329770">
    <ele>54.2</ele>
    <time>2018-01-27T07:28:56Z</time>
   </trkpt>
   <trkpt lat="12.9373730" lon="99.7329780">
    <ele>54.4</ele>
    <time>2018-01-27T07:28:57Z</time>
   </trkpt>
   <trkpt lat="12.9373210" lon="99.7329860">
    <ele>54.4</ele>
    <time>2018-01-27T07:28:58Z</time>
   </trkpt>
   <trkpt lat="12.9372720" lon="99.7329950">
    <ele>54.4</ele>
    <time>2018-01-27T07:28:59Z</time>
   </trkpt>
   <trkpt lat="12.9372180" lon="99.7330000">
    <ele>54.4</ele>
    <time>2018-01-27T07:29:00Z</time>
   </trkpt>
   <trkpt lat="12.9371610" lon="99.7330140">
    <ele>54.4</ele>
    <time>2018-01-27T07:29:01Z</time>
   </trkpt>
   <trkpt lat="12.9370960" lon="99.7330250">
    <ele>54.3</ele>
    <time>2018-01-27T07:29:02Z</time>
   </trkpt>
   <trkpt lat="12.9370420" lon="99.7330390">
    <ele>54.2</ele>
    <time>2018-01-27T07:29:03Z</time>
   </trkpt>
   <trkpt lat="12.9369930" lon="99.7330440">
    <ele>54.1</ele>
    <time>2018-01-27T07:29:04Z</time>
   </trkpt>
   <trkpt lat="12.9369360" lon="99.7330490">
    <ele>54.2</ele>
    <time>2018-01-27T07:29:05Z</time>
   </trkpt>
   <trkpt lat="12.9368840" lon="99.7330620">
    <ele>54.5</ele>
    <time>2018-01-27T07:29:06Z</time>
   </trkpt>
   <trkpt lat="12.9368360" lon="99.7330680">
    <ele>54.8</ele>
    <time>2018-01-27T07:29:07Z</time>
   </trkpt>
   <trkpt lat="12.9367920" lon="99.7330750">
    <ele>55.1</ele>
    <time>2018-01-27T07:29:08Z</time>
   </trkpt>
   <trkpt lat="12.9367620" lon="99.7330890">
    <ele>55.2</ele>
    <time>2018-01-27T07:29:09Z</time>
   </trkpt>
   <trkpt lat="12.9367250" lon="99.7330990">
    <ele>55.4</ele>
    <time>2018-01-27T07:29:10Z</time>
   </trkpt>
   <trkpt lat="12.9366860" lon="99.7331100">
    <ele>55.5</ele>
    <time>2018-01-27T07:29:11Z</time>
   </trkpt>
   <trkpt lat="12.9366300" lon="99.7331180">
    <ele>55.7</ele>
    <time>2018-01-27T07:29:14Z</time>
   </trkpt>
   <trkpt lat="12.9365840" lon="99.7331250">
    <ele>55.9</ele>
    <time>2018-01-27T07:29:15Z</time>
   </trkpt>
   <trkpt lat="12.9365210" lon="99.7331220">
    <ele>56.3</ele>
    <time>2018-01-27T07:29:16Z</time>
   </trkpt>
   <trkpt lat="12.9364580" lon="99.7331340">
    <ele>56.8</ele>
    <time>2018-01-27T07:29:17Z</time>
   </trkpt>
   <trkpt lat="12.9364880" lon="99.7331310">
    <ele>57.0</ele>
    <time>2018-01-27T07:29:22Z</time>
   </trkpt>
   <trkpt lat="12.9364350" lon="99.7331320">
    <ele>57.5</ele>
    <time>2018-01-27T07:29:49Z</time>
   </trkpt>
   <trkpt lat="12.9364060" lon="99.7331350">
    <ele>57.9</ele>
    <time>2018-01-27T07:29:50Z</time>
   </trkpt>
   <trkpt lat="12.9363680" lon="99.7331410">
    <ele>58.3</ele>
    <time>2018-01-27T07:29:51Z</time>
   </trkpt>
   <trkpt lat="12.9363290" lon="99.7331470">
    <ele>58.8</ele>
    <time>2018-01-27T07:29:52Z</time>
   </trkpt>
   <trkpt lat="12.9362900" lon="99.7331540">
    <ele>59.3</ele>
    <time>2018-01-27T07:29:53Z</time>
   </trkpt>
   <trkpt lat="12.9362550" lon="99.7331600">
    <ele>59.7</ele>
    <time>2018-01-27T07:29:54Z</time>
   </trkpt>
   <trkpt lat="12.9362240" lon="99.7331670">
    <ele>60.0</ele>
    <time>2018-01-27T07:29:55Z</time>
   </trkpt>
   <trkpt lat="12.9361960" lon="99.7331750">
    <ele>60.2</ele>
    <time>2018-01-27T07:29:56Z</time>
   </trkpt>
   <trkpt lat="12.9361460" lon="99.7331850">
    <ele>60.6</ele>
    <time>2018-01-27T07:29:58Z</time>
   </trkpt>
   <trkpt lat="12.9361170" lon="99.7331900">
    <ele>60.8</ele>
    <time>2018-01-27T07:29:59Z</time>
   </trkpt>
   <trkpt lat="12.9360870" lon="99.7331950">
    <ele>61.0</ele>
    <time>2018-01-27T07:30:00Z</time>
   </trkpt>
   <trkpt lat="12.9360540" lon="99.7332030">
    <ele>61.3</ele>
    <time>2018-01-27T07:30:01Z</time>
   </trkpt>
   <trkpt lat="12.9360210" lon="99.7332090">
    <ele>61.3</ele>
    <time>2018-01-27T07:30:02Z</time>
   </trkpt>
   <trkpt lat="12.9359840" lon="99.7332160">
    <ele>61.4</ele>
    <time>2018-01-27T07:30:03Z</time>
   </trkpt>
   <trkpt lat="12.9359460" lon="99.7332230">
    <ele>61.4</ele>
    <time>2018-01-27T07:30:04Z</time>
   </trkpt>
   <trkpt lat="12.9359070" lon="99.7332320">
    <ele>61.2</ele>
    <time>2018-01-27T07:30:05Z</time>
   </trkpt>
   <trkpt lat="12.9358690" lon="99.7332430">
    <ele>61.1</ele>
    <time>2018-01-27T07:30:06Z</time>
   </trkpt>
   <trkpt lat="12.9358310" lon="99.7332540">
    <ele>60.9</ele>
    <time>2018-01-27T07:30:07Z</time>
   </trkpt>
   <trkpt lat="12.9357930" lon="99.7332660">
    <ele>60.7</ele>
    <time>2018-01-27T07:30:08Z</time>
   </trkpt>
   <trkpt lat="12.9357550" lon="99.7332780">
    <ele>60.5</ele>
    <time>2018-01-27T07:30:09Z</time>
   </trkpt>
   <trkpt lat="12.9357180" lon="99.7332910">
    <ele>60.0</ele>
    <time>2018-01-27T07:30:10Z</time>
   </trkpt>
   <trkpt lat="12.9356810" lon="99.7333020">
    <ele>60.0</ele>
    <time>2018-01-27T07:30:11Z</time>
   </trkpt>
   <trkpt lat="12.9356430" lon="99.7333110">
    <ele>59.8</ele>
    <time>2018-01-27T07:30:12Z</time>
   </trkpt>
   <trkpt lat="12.9356040" lon="99.7333170">
    <ele>59.5</ele>
    <time>2018-01-27T07:30:13Z</time>
   </trkpt>
   <trkpt lat="12.9355610" lon="99.7333210">
    <ele>59.3</ele>
    <time>2018-01-27T07:30:14Z</time>
   </trkpt>
   <trkpt lat="12.9355190" lon="99.7333240">
    <ele>59.1</ele>
    <time>2018-01-27T07:30:15Z</time>
   </trkpt>
   <trkpt lat="12.9354780" lon="99.7333280">
    <ele>59.1</ele>
    <time>2018-01-27T07:30:16Z</time>
   </trkpt>
   <trkpt lat="12.9354450" lon="99.7333310">
    <ele>58.7</ele>
    <time>2018-01-27T07:30:17Z</time>
   </trkpt>
   <trkpt lat="12.9354100" lon="99.7333350">
    <ele>58.6</ele>
    <time>2018-01-27T07:30:18Z</time>
   </trkpt>
   <trkpt lat="12.9353760" lon="99.7333370">
    <ele>58.5</ele>
    <time>2018-01-27T07:30:19Z</time>
   </trkpt>
   <trkpt lat="12.9353460" lon="99.7333390">
    <ele>58.5</ele>
    <time>2018-01-27T07:30:20Z</time>
   </trkpt>
   <trkpt lat="12.9353190" lon="99.7333400">
    <ele>58.4</ele>
    <time>2018-01-27T07:30:21Z</time>
   </trkpt>
   <trkpt lat="12.9352920" lon="99.7333410">
    <ele>58.2</ele>
    <time>2018-01-27T07:30:22Z</time>
   </trkpt>
   <trkpt lat="12.9352650" lon="99.7333450">
    <ele>58.2</ele>
    <time>2018-01-27T07:30:23Z</time>
   </trkpt>
   <trkpt lat="12.9352370" lon="99.7333480">
    <ele>58.0</ele>
    <time>2018-01-27T07:30:24Z</time>
   </trkpt>
   <trkpt lat="12.9352080" lon="99.7333510">
    <ele>57.9</ele>
    <time>2018-01-27T07:30:25Z</time>
   </trkpt>
   <trkpt lat="12.9351560" lon="99.7333580">
    <ele>57.9</ele>
    <time>2018-01-27T07:30:27Z</time>
   </trkpt>
   <trkpt lat="12.9351250" lon="99.7333630">
    <ele>58.0</ele>
    <time>2018-01-27T07:30:28Z</time>
   </trkpt>
   <trkpt lat="12.9350940" lon="99.7333660">
    <ele>58.0</ele>
    <time>2018-01-27T07:30:29Z</time>
   </trkpt>
   <trkpt lat="12.9350610" lon="99.7333670">
    <ele>58.0</ele>
    <time>2018-01-27T07:30:30Z</time>
   </trkpt>
   <trkpt lat="12.9350260" lon="99.7333740">
    <ele>57.6</ele>
    <time>2018-01-27T07:30:31Z</time>
   </trkpt>
   <trkpt lat="12.9349870" lon="99.7333780">
    <ele>57.5</ele>
    <time>2018-01-27T07:30:32Z</time>
   </trkpt>
   <trkpt lat="12.9349480" lon="99.7333850">
    <ele>57.4</ele>
    <time>2018-01-27T07:30:33Z</time>
   </trkpt>
   <trkpt lat="12.9349060" lon="99.7333910">
    <ele>57.2</ele>
    <time>2018-01-27T07:30:34Z</time>
   </trkpt>
   <trkpt lat="12.9348670" lon="99.7333950">
    <ele>57.0</ele>
    <time>2018-01-27T07:30:35Z</time>
   </trkpt>
   <trkpt lat="12.9348290" lon="99.7333990">
    <ele>56.6</ele>
    <time>2018-01-27T07:30:36Z</time>
   </trkpt>
   <trkpt lat="12.9347910" lon="99.7334050">
    <ele>56.3</ele>
    <time>2018-01-27T07:30:37Z</time>
   </trkpt>
   <trkpt lat="12.9347530" lon="99.7334100">
    <ele>55.9</ele>
    <time>2018-01-27T07:30:38Z</time>
   </trkpt>
   <trkpt lat="12.9347170" lon="99.7334160">
    <ele>55.4</ele>
    <time>2018-01-27T07:30:39Z</time>
   </trkpt>
   <trkpt lat="12.9346900" lon="99.7334330">
    <ele>55.4</ele>
    <time>2018-01-27T07:30:45Z</time>
   </trkpt>
   <trkpt lat="12.9346300" lon="99.7334390">
    <ele>54.9</ele>
    <time>2018-01-27T07:30:47Z</time>
   </trkpt>
   <trkpt lat="12.9345890" lon="99.7334450">
    <ele>54.6</ele>
    <time>2018-01-27T07:30:48Z</time>
   </trkpt>
   <trkpt lat="12.9345400" lon="99.7334520">
    <ele>54.5</ele>
    <time>2018-01-27T07:30:49Z</time>
   </trkpt>
   <trkpt lat="12.9344860" lon="99.7334630">
    <ele>54.3</ele>
    <time>2018-01-27T07:30:50Z</time>
   </trkpt>
   <trkpt lat="12.9344560" lon="99.7334690">
    <ele>54.3</ele>
    <time>2018-01-27T07:30:51Z</time>
   </trkpt>
   <trkpt lat="12.9344070" lon="99.7334800">
    <ele>54.3</ele>
    <time>2018-01-27T07:30:53Z</time>
   </trkpt>
   <trkpt lat="12.9343500" lon="99.7334910">
    <ele>54.3</ele>
    <time>2018-01-27T07:30:54Z</time>
   </trkpt>
   <trkpt lat="12.9340850" lon="99.7335630">
    <ele>54.9</ele>
    <time>2018-01-27T07:30:57Z</time>
   </trkpt>
   <trkpt lat="12.9340250" lon="99.7335740">
    <ele>54.9</ele>
    <time>2018-01-27T07:30:58Z</time>
   </trkpt>
   <trkpt lat="12.9339590" lon="99.7335870">
    <ele>55.2</ele>
    <time>2018-01-27T07:30:59Z</time>
   </trkpt>
   <trkpt lat="12.9338920" lon="99.7335980">
    <ele>55.2</ele>
    <time>2018-01-27T07:31:00Z</time>
   </trkpt>
   <trkpt lat="12.9338250" lon="99.7336110">
    <ele>55.1</ele>
    <time>2018-01-27T07:31:01Z</time>
   </trkpt>
   <trkpt lat="12.9337460" lon="99.7336330">
    <ele>55.4</ele>
    <time>2018-01-27T07:31:02Z</time>
   </trkpt>
   <trkpt lat="12.9336580" lon="99.7336390">
    <ele>55.0</ele>
    <time>2018-01-27T07:31:03Z</time>
   </trkpt>
   <trkpt lat="12.9335780" lon="99.7336510">
    <ele>54.6</ele>
    <time>2018-01-27T07:31:04Z</time>
   </trkpt>
   <trkpt lat="12.9335230" lon="99.7336620">
    <ele>54.3</ele>
    <time>2018-01-27T07:31:05Z</time>
   </trkpt>
   <trkpt lat="12.9334550" lon="99.7336890">
    <ele>54.1</ele>
    <time>2018-01-27T07:31:06Z</time>
   </trkpt>
   <trkpt lat="12.9333930" lon="99.7337030">
    <ele>53.8</ele>
    <time>2018-01-27T07:31:07Z</time>
   </trkpt>
   <trkpt lat="12.9333270" lon="99.7337110">
    <ele>53.6</ele>
    <time>2018-01-27T07:31:08Z</time>
   </trkpt>
   <trkpt lat="12.9332780" lon="99.7337200">
    <ele>53.6</ele>
    <time>2018-01-27T07:31:09Z</time>
   </trkpt>
   <trkpt lat="12.9332260" lon="99.7337250">
    <ele>53.5</ele>
    <time>2018-01-27T07:31:10Z</time>
   </trkpt>
   <trkpt lat="12.9331830" lon="99.7337350">
    <ele>53.3</ele>
    <time>2018-01-27T07:31:11Z</time>
   </trkpt>
   <trkpt lat="12.9331400" lon="99.7337580">
    <ele>53.1</ele>
    <time>2018-01-27T07:31:12Z</time>
   </trkpt>
   <trkpt lat="12.9330980" lon="99.7337590">
    <ele>52.9</ele>
    <time>2018-01-27T07:31:13Z</time>
   </trkpt>
   <trkpt lat="12.9330580" lon="99.7337670">
    <ele>52.7</ele>
    <time>2018-01-27T07:31:14Z</time>
   </trkpt>
   <trkpt lat="12.9330130" lon="99.7337820">
    <ele>52.6</ele>
    <time>2018-01-27T07:31:15Z</time>
   </trkpt>
   <trkpt lat="12.9329660" lon="99.7337860">
    <ele>52.6</ele>
    <time>2018-01-27T07:31:16Z</time>
   </trkpt>
   <trkpt lat="12.9329210" lon="99.7337920">
    <ele>52.6</ele>
    <time>2018-01-27T07:31:17Z</time>
   </trkpt>
   <trkpt lat="12.9328810" lon="99.7337890">
    <ele>52.6</ele>
    <time>2018-01-27T07:31:18Z</time>
   </trkpt>
   <trkpt lat="12.9328430" lon="99.7337950">
    <ele>52.6</ele>
    <time>2018-01-27T07:31:19Z</time>
   </trkpt>
   <trkpt lat="12.9328040" lon="99.7337990">
    <ele>52.6</ele>
    <time>2018-01-27T07:31:20Z</time>
   </trkpt>
   <trkpt lat="12.9327640" lon="99.7338140">
    <ele>52.5</ele>
    <time>2018-01-27T07:31:21Z</time>
   </trkpt>
   <trkpt lat="12.9327220" lon="99.7338130">
    <ele>52.5</ele>
    <time>2018-01-27T07:31:22Z</time>
   </trkpt>
   <trkpt lat="12.9326760" lon="99.7338150">
    <ele>52.7</ele>
    <time>2018-01-27T07:31:23Z</time>
   </trkpt>
   <trkpt lat="12.9326410" lon="99.7338070">
    <ele>53.2</ele>
    <time>2018-01-27T07:31:24Z</time>
   </trkpt>
   <trkpt lat="12.9326030" lon="99.7338040">
    <ele>53.7</ele>
    <time>2018-01-27T07:31:25Z</time>
   </trkpt>
   <trkpt lat="12.9325680" lon="99.7337890">
    <ele>54.2</ele>
    <time>2018-01-27T07:31:26Z</time>
   </trkpt>
   <trkpt lat="12.9325200" lon="99.7337930">
    <ele>54.5</ele>
    <time>2018-01-27T07:31:27Z</time>
   </trkpt>
   <trkpt lat="12.9324570" lon="99.7337890">
    <ele>54.5</ele>
    <time>2018-01-27T07:31:28Z</time>
   </trkpt>
   <trkpt lat="12.9324120" lon="99.7337810">
    <ele>54.5</ele>
    <time>2018-01-27T07:31:29Z</time>
   </trkpt>
   <trkpt lat="12.9323720" lon="99.7337720">
    <ele>54.6</ele>
    <time>2018-01-27T07:31:30Z</time>
   </trkpt>
   <trkpt lat="12.9323360" lon="99.7337540">
    <ele>54.6</ele>
    <time>2018-01-27T07:31:31Z</time>
   </trkpt>
   <trkpt lat="12.9322950" lon="99.7337480">
    <ele>54.8</ele>
    <time>2018-01-27T07:31:32Z</time>
   </trkpt>
   <trkpt lat="12.9322550" lon="99.7337270">
    <ele>55.1</ele>
    <time>2018-01-27T07:31:33Z</time>
   </trkpt>
   <trkpt lat="12.9321990" lon="99.7337290">
    <ele>55.5</ele>
    <time>2018-01-27T07:31:34Z</time>
   </trkpt>
   <trkpt lat="12.9321640" lon="99.7337210">
    <ele>55.7</ele>
    <time>2018-01-27T07:31:35Z</time>
   </trkpt>
   <trkpt lat="12.9321340" lon="99.7337090">
    <ele>55.7</ele>
    <time>2018-01-27T07:31:36Z</time>
   </trkpt>
   <trkpt lat="12.9320780" lon="99.7336920">
    <ele>56.1</ele>
    <time>2018-01-27T07:31:38Z</time>
   </trkpt>
   <trkpt lat="12.9320390" lon="99.7336850">
    <ele>56.2</ele>
    <time>2018-01-27T07:31:39Z</time>
   </trkpt>
   <trkpt lat="12.9320040" lon="99.7336670">
    <ele>56.5</ele>
    <time>2018-01-27T07:31:40Z</time>
   </trkpt>
   <trkpt lat="12.9319760" lon="99.7336530">
    <ele>56.5</ele>
    <time>2018-01-27T07:31:41Z</time>
   </trkpt>
   <trkpt lat="12.9319330" lon="99.7336500">
    <ele>56.5</ele>
    <time>2018-01-27T07:31:42Z</time>
   </trkpt>
   <trkpt lat="12.9319000" lon="99.7336330">
    <ele>56.5</ele>
    <time>2018-01-27T07:31:43Z</time>
   </trkpt>
   <trkpt lat="12.9318620" lon="99.7336150">
    <ele>56.6</ele>
    <time>2018-01-27T07:31:44Z</time>
   </trkpt>
   <trkpt lat="12.9318250" lon="99.7336050">
    <ele>56.3</ele>
    <time>2018-01-27T07:31:45Z</time>
   </trkpt>
   <trkpt lat="12.9317540" lon="99.7335780">
    <ele>56.2</ele>
    <time>2018-01-27T07:31:47Z</time>
   </trkpt>
   <trkpt lat="12.9316920" lon="99.7335490">
    <ele>55.5</ele>
    <time>2018-01-27T07:31:49Z</time>
   </trkpt>
   <trkpt lat="12.9316620" lon="99.7335490">
    <ele>55.2</ele>
    <time>2018-01-27T07:31:50Z</time>
   </trkpt>
   <trkpt lat="12.9316000" lon="99.7335340">
    <ele>55.0</ele>
    <time>2018-01-27T07:31:51Z</time>
   </trkpt>
   <trkpt lat="12.9315640" lon="99.7335170">
    <ele>54.7</ele>
    <time>2018-01-27T07:31:52Z</time>
   </trkpt>
   <trkpt lat="12.9315380" lon="99.7335030">
    <ele>54.4</ele>
    <time>2018-01-27T07:31:53Z</time>
   </trkpt>
   <trkpt lat="12.9314790" lon="99.7334930">
    <ele>53.9</ele>
    <time>2018-01-27T07:31:54Z</time>
   </trkpt>
   <trkpt lat="12.9314350" lon="99.7334830">
    <ele>53.5</ele>
    <time>2018-01-27T07:31:55Z</time>
   </trkpt>
   <trkpt lat="12.9313810" lon="99.7334690">
    <ele>53.0</ele>
    <time>2018-01-27T07:31:56Z</time>
   </trkpt>
   <trkpt lat="12.9313340" lon="99.7334670">
    <ele>52.6</ele>
    <time>2018-01-27T07:31:57Z</time>
   </trkpt>
   <trkpt lat="12.9312900" lon="99.7334550">
    <ele>52.3</ele>
    <time>2018-01-27T07:31:58Z</time>
   </trkpt>
   <trkpt lat="12.9312450" lon="99.7334510">
    <ele>51.9</ele>
    <time>2018-01-27T07:31:59Z</time>
   </trkpt>
   <trkpt lat="12.9311910" lon="99.7334560">
    <ele>51.7</ele>
    <time>2018-01-27T07:32:00Z</time>
   </trkpt>
   <trkpt lat="12.9311370" lon="99.7334500">
    <ele>51.5</ele>
    <time>2018-01-27T07:32:01Z</time>
   </trkpt>
   <trkpt lat="12.9310980" lon="99.7334350">
    <ele>51.3</ele>
    <time>2018-01-27T07:32:02Z</time>
   </trkpt>
   <trkpt lat="12.9310490" lon="99.7334180">
    <ele>51.1</ele>
    <time>2018-01-27T07:32:03Z</time>
   </trkpt>
   <trkpt lat="12.9310100" lon="99.7334090">
    <ele>51.4</ele>
    <time>2018-01-27T07:32:04Z</time>
   </trkpt>
   <trkpt lat="12.9309690" lon="99.7333940">
    <ele>51.2</ele>
    <time>2018-01-27T07:32:05Z</time>
   </trkpt>
   <trkpt lat="12.9309000" lon="99.7333810">
    <ele>50.7</ele>
    <time>2018-01-27T07:32:06Z</time>
   </trkpt>
   <trkpt lat="12.9308580" lon="99.7333740">
    <ele>50.4</ele>
    <time>2018-01-27T07:32:07Z</time>
   </trkpt>
   <trkpt lat="12.9308160" lon="99.7333630">
    <ele>50.5</ele>
    <time>2018-01-27T07:32:08Z</time>
   </trkpt>
   <trkpt lat="12.9307630" lon="99.7333460">
    <ele>50.1</ele>
    <time>2018-01-27T07:32:09Z</time>
   </trkpt>
   <trkpt lat="12.9307100" lon="99.7333360">
    <ele>49.6</ele>
    <time>2018-01-27T07:32:10Z</time>
   </trkpt>
   <trkpt lat="12.9306600" lon="99.7333190">
    <ele>49.3</ele>
    <time>2018-01-27T07:32:11Z</time>
   </trkpt>
   <trkpt lat="12.9306190" lon="99.7333080">
    <ele>49.3</ele>
    <time>2018-01-27T07:32:12Z</time>
   </trkpt>
   <trkpt lat="12.9305530" lon="99.7333100">
    <ele>48.8</ele>
    <time>2018-01-27T07:32:13Z</time>
   </trkpt>
   <trkpt lat="12.9305060" lon="99.7333060">
    <ele>48.7</ele>
    <time>2018-01-27T07:32:14Z</time>
   </trkpt>
   <trkpt lat="12.9304590" lon="99.7332900">
    <ele>48.7</ele>
    <time>2018-01-27T07:32:15Z</time>
   </trkpt>
   <trkpt lat="12.9304160" lon="99.7332860">
    <ele>48.7</ele>
    <time>2018-01-27T07:32:16Z</time>
   </trkpt>
   <trkpt lat="12.9303690" lon="99.7332770">
    <ele>48.7</ele>
    <time>2018-01-27T07:32:17Z</time>
   </trkpt>
   <trkpt lat="12.9303240" lon="99.7332620">
    <ele>48.7</ele>
    <time>2018-01-27T07:32:18Z</time>
   </trkpt>
   <trkpt lat="12.9302780" lon="99.7332580">
    <ele>48.7</ele>
    <time>2018-01-27T07:32:19Z</time>
   </trkpt>
   <trkpt lat="12.9302370" lon="99.7332500">
    <ele>48.7</ele>
    <time>2018-01-27T07:32:20Z</time>
   </trkpt>
   <trkpt lat="12.9302000" lon="99.7332500">
    <ele>48.6</ele>
    <time>2018-01-27T07:32:21Z</time>
   </trkpt>
   <trkpt lat="12.9301540" lon="99.7332430">
    <ele>48.4</ele>
    <time>2018-01-27T07:32:22Z</time>
   </trkpt>
   <trkpt lat="12.9301160" lon="99.7332350">
    <ele>48.1</ele>
    <time>2018-01-27T07:32:23Z</time>
   </trkpt>
   <trkpt lat="12.9300780" lon="99.7332300">
    <ele>48.1</ele>
    <time>2018-01-27T07:32:24Z</time>
   </trkpt>
   <trkpt lat="12.9300420" lon="99.7332270">
    <ele>47.9</ele>
    <time>2018-01-27T07:32:25Z</time>
   </trkpt>
   <trkpt lat="12.9300130" lon="99.7332270">
    <ele>47.7</ele>
    <time>2018-01-27T07:32:26Z</time>
   </trkpt>
   <trkpt lat="12.9299840" lon="99.7332230">
    <ele>47.5</ele>
    <time>2018-01-27T07:32:27Z</time>
   </trkpt>
   <trkpt lat="12.9299500" lon="99.7332120">
    <ele>47.5</ele>
    <time>2018-01-27T07:32:28Z</time>
   </trkpt>
   <trkpt lat="12.9299190" lon="99.7332090">
    <ele>47.4</ele>
    <time>2018-01-27T07:32:29Z</time>
   </trkpt>
   <trkpt lat="12.9298730" lon="99.7332000">
    <ele>47.5</ele>
    <time>2018-01-27T07:32:30Z</time>
   </trkpt>
   <trkpt lat="12.9298440" lon="99.7332070">
    <ele>47.2</ele>
    <time>2018-01-27T07:32:31Z</time>
   </trkpt>
   <trkpt lat="12.9298030" lon="99.7332090">
    <ele>47.3</ele>
    <time>2018-01-27T07:32:32Z</time>
   </trkpt>
   <trkpt lat="12.9297730" lon="99.7332060">
    <ele>47.4</ele>
    <time>2018-01-27T07:32:33Z</time>
   </trkpt>
   <trkpt lat="12.9297270" lon="99.7331900">
    <ele>48.0</ele>
    <time>2018-01-27T07:32:35Z</time>
   </trkpt>
   <trkpt lat="12.9296890" lon="99.7331750">
    <ele>48.2</ele>
    <time>2018-01-27T07:32:37Z</time>
   </trkpt>
   <trkpt lat="12.9296570" lon="99.7331710">
    <ele>48.2</ele>
    <time>2018-01-27T07:32:59Z</time>
   </trkpt>
   <trkpt lat="12.9296190" lon="99.7331550">
    <ele>48.9</ele>
    <time>2018-01-27T07:33:02Z</time>
   </trkpt>
   <trkpt lat="12.9295780" lon="99.7331410">
    <ele>49.3</ele>
    <time>2018-01-27T07:33:04Z</time>
   </trkpt>
   <trkpt lat="12.9295510" lon="99.7331300">
    <ele>49.6</ele>
    <time>2018-01-27T07:33:05Z</time>
   </trkpt>
   <trkpt lat="12.9295190" lon="99.7331150">
    <ele>49.6</ele>
    <time>2018-01-27T07:33:06Z</time>
   </trkpt>
   <trkpt lat="12.9294810" lon="99.7331000">
    <ele>49.8</ele>
    <time>2018-01-27T07:33:07Z</time>
   </trkpt>
   <trkpt lat="12.9294390" lon="99.7330900">
    <ele>49.8</ele>
    <time>2018-01-27T07:33:08Z</time>
   </trkpt>
   <trkpt lat="12.9293990" lon="99.7330810">
    <ele>49.8</ele>
    <time>2018-01-27T07:33:09Z</time>
   </trkpt>
   <trkpt lat="12.9293570" lon="99.7330730">
    <ele>49.6</ele>
    <time>2018-01-27T07:33:10Z</time>
   </trkpt>
   <trkpt lat="12.9293050" lon="99.7330720">
    <ele>49.4</ele>
    <time>2018-01-27T07:33:11Z</time>
   </trkpt>
   <trkpt lat="12.9292570" lon="99.7330660">
    <ele>49.4</ele>
    <time>2018-01-27T07:33:12Z</time>
   </trkpt>
   <trkpt lat="12.9292150" lon="99.7330510">
    <ele>49.3</ele>
    <time>2018-01-27T07:33:13Z</time>
   </trkpt>
   <trkpt lat="12.9291720" lon="99.7330400">
    <ele>49.2</ele>
    <time>2018-01-27T07:33:14Z</time>
   </trkpt>
   <trkpt lat="12.9291290" lon="99.7330280">
    <ele>49.5</ele>
    <time>2018-01-27T07:33:15Z</time>
   </trkpt>
   <trkpt lat="12.9290860" lon="99.7330180">
    <ele>49.5</ele>
    <time>2018-01-27T07:33:16Z</time>
   </trkpt>
   <trkpt lat="12.9290480" lon="99.7330090">
    <ele>49.5</ele>
    <time>2018-01-27T07:33:17Z</time>
   </trkpt>
   <trkpt lat="12.9289990" lon="99.7329950">
    <ele>49.4</ele>
    <time>2018-01-27T07:33:18Z</time>
   </trkpt>
   <trkpt lat="12.9289340" lon="99.7329750">
    <ele>49.1</ele>
    <time>2018-01-27T07:33:20Z</time>
   </trkpt>
   <trkpt lat="12.9288820" lon="99.7329660">
    <ele>48.9</ele>
    <time>2018-01-27T07:33:21Z</time>
   </trkpt>
   <trkpt lat="12.9288420" lon="99.7329500">
    <ele>48.6</ele>
    <time>2018-01-27T07:33:22Z</time>
   </trkpt>
   <trkpt lat="12.9287990" lon="99.7329410">
    <ele>48.4</ele>
    <time>2018-01-27T07:33:23Z</time>
   </trkpt>
   <trkpt lat="12.9287460" lon="99.7329300">
    <ele>48.1</ele>
    <time>2018-01-27T07:33:24Z</time>
   </trkpt>
   <trkpt lat="12.9286970" lon="99.7329100">
    <ele>47.9</ele>
    <time>2018-01-27T07:33:25Z</time>
   </trkpt>
   <trkpt lat="12.9286540" lon="99.7329030">
    <ele>47.8</ele>
    <time>2018-01-27T07:33:26Z</time>
   </trkpt>
   <trkpt lat="12.9286170" lon="99.7328840">
    <ele>47.8</ele>
    <time>2018-01-27T07:33:27Z</time>
   </trkpt>
   <trkpt lat="12.9285760" lon="99.7328700">
    <ele>47.9</ele>
    <time>2018-01-27T07:33:28Z</time>
   </trkpt>
   <trkpt lat="12.9285370" lon="99.7328590">
    <ele>47.9</ele>
    <time>2018-01-27T07:33:29Z</time>
   </trkpt>
   <trkpt lat="12.9284930" lon="99.7328400">
    <ele>47.7</ele>
    <time>2018-01-27T07:33:30Z</time>
   </trkpt>
   <trkpt lat="12.9284440" lon="99.7328240">
    <ele>47.6</ele>
    <time>2018-01-27T07:33:31Z</time>
   </trkpt>
   <trkpt lat="12.9283950" lon="99.7328090">
    <ele>47.0</ele>
    <time>2018-01-27T07:33:32Z</time>
   </trkpt>
   <trkpt lat="12.9283540" lon="99.7327930">
    <ele>46.9</ele>
    <time>2018-01-27T07:33:33Z</time>
   </trkpt>
   <trkpt lat="12.9283130" lon="99.7327780">
    <ele>46.9</ele>
    <time>2018-01-27T07:33:34Z</time>
   </trkpt>
   <trkpt lat="12.9282660" lon="99.7327570">
    <ele>47.1</ele>
    <time>2018-01-27T07:33:35Z</time>
   </trkpt>
   <trkpt lat="12.9282270" lon="99.7327550">
    <ele>47.1</ele>
    <time>2018-01-27T07:33:36Z</time>
   </trkpt>
   <trkpt lat="12.9281800" lon="99.7327500">
    <ele>47.0</ele>
    <time>2018-01-27T07:33:37Z</time>
   </trkpt>
   <trkpt lat="12.9281150" lon="99.7327550">
    <ele>47.0</ele>
    <time>2018-01-27T07:33:38Z</time>
   </trkpt>
   <trkpt lat="12.9280620" lon="99.7327390">
    <ele>46.9</ele>
    <time>2018-01-27T07:33:39Z</time>
   </trkpt>
   <trkpt lat="12.9280140" lon="99.7327320">
    <ele>47.1</ele>
    <time>2018-01-27T07:33:40Z</time>
   </trkpt>
   <trkpt lat="12.9279720" lon="99.7327330">
    <ele>47.3</ele>
    <time>2018-01-27T07:33:41Z</time>
   </trkpt>
   <trkpt lat="12.9279320" lon="99.7327400">
    <ele>47.6</ele>
    <time>2018-01-27T07:33:42Z</time>
   </trkpt>
   <trkpt lat="12.9278860" lon="99.7327380">
    <ele>47.8</ele>
    <time>2018-01-27T07:33:43Z</time>
   </trkpt>
   <trkpt lat="12.9278380" lon="99.7327550">
    <ele>48.1</ele>
    <time>2018-01-27T07:33:44Z</time>
   </trkpt>
   <trkpt lat="12.9278000" lon="99.7327570">
    <ele>48.4</ele>
    <time>2018-01-27T07:33:45Z</time>
   </trkpt>
   <trkpt lat="12.9277600" lon="99.7327490">
    <ele>48.7</ele>
    <time>2018-01-27T07:33:46Z</time>
   </trkpt>
   <trkpt lat="12.9277150" lon="99.7327550">
    <ele>49.0</ele>
    <time>2018-01-27T07:33:47Z</time>
   </trkpt>
   <trkpt lat="12.9276640" lon="99.7327610">
    <ele>49.5</ele>
    <time>2018-01-27T07:33:48Z</time>
   </trkpt>
   <trkpt lat="12.9276270" lon="99.7327650">
    <ele>50.0</ele>
    <time>2018-01-27T07:33:49Z</time>
   </trkpt>
   <trkpt lat="12.9276000" lon="99.7327790">
    <ele>50.2</ele>
    <time>2018-01-27T07:33:50Z</time>
   </trkpt>
   <trkpt lat="12.9275730" lon="99.7327850">
    <ele>50.2</ele>
    <time>2018-01-27T07:33:51Z</time>
   </trkpt>
   <trkpt lat="12.9275470" lon="99.7327920">
    <ele>50.2</ele>
    <time>2018-01-27T07:33:52Z</time>
   </trkpt>
   <trkpt lat="12.9275020" lon="99.7327970">
    <ele>50.3</ele>
    <time>2018-01-27T07:33:54Z</time>
   </trkpt>
   <trkpt lat="12.9274720" lon="99.7327800">
    <ele>50.3</ele>
    <time>2018-01-27T07:33:57Z</time>
   </trkpt>
   <trkpt lat="12.9274590" lon="99.7327530">
    <ele>50.3</ele>
    <time>2018-01-27T07:33:59Z</time>
   </trkpt>
   <trkpt lat="12.9274310" lon="99.7327310">
    <ele>50.3</ele>
    <time>2018-01-27T07:34:01Z</time>
   </trkpt>
   <trkpt lat="12.9274000" lon="99.7327200">
    <ele>50.3</ele>
    <time>2018-01-27T07:34:02Z</time>
   </trkpt>
   <trkpt lat="12.9273700" lon="99.7327070">
    <ele>50.3</ele>
    <time>2018-01-27T07:34:03Z</time>
   </trkpt>
   <trkpt lat="12.9273460" lon="99.7326870">
    <ele>50.3</ele>
    <time>2018-01-27T07:34:04Z</time>
   </trkpt>
   <trkpt lat="12.9273260" lon="99.7326560">
    <ele>50.3</ele>
    <time>2018-01-27T07:34:05Z</time>
   </trkpt>
   <trkpt lat="12.9273100" lon="99.7326210">
    <ele>50.3</ele>
    <time>2018-01-27T07:34:06Z</time>
   </trkpt>
   <trkpt lat="12.9272950" lon="99.7325830">
    <ele>50.4</ele>
    <time>2018-01-27T07:34:07Z</time>
   </trkpt>
   <trkpt lat="12.9272760" lon="99.7325440">
    <ele>50.4</ele>
    <time>2018-01-27T07:34:08Z</time>
   </trkpt>
   <trkpt lat="12.9272560" lon="99.7325060">
    <ele>50.4</ele>
    <time>2018-01-27T07:34:09Z</time>
   </trkpt>
   <trkpt lat="12.9272320" lon="99.7324680">
    <ele>50.4</ele>
    <time>2018-01-27T07:34:10Z</time>
   </trkpt>
   <trkpt lat="12.9272020" lon="99.7324170">
    <ele>50.4</ele>
    <time>2018-01-27T07:34:12Z</time>
   </trkpt>
   <trkpt lat="12.9271870" lon="99.7323810">
    <ele>50.4</ele>
    <time>2018-01-27T07:34:13Z</time>
   </trkpt>
   <trkpt lat="12.9271730" lon="99.7323460">
    <ele>50.4</ele>
    <time>2018-01-27T07:34:14Z</time>
   </trkpt>
   <trkpt lat="12.9271510" lon="99.7322900">
    <ele>50.5</ele>
    <time>2018-01-27T07:34:16Z</time>
   </trkpt>
   <trkpt lat="12.9271320" lon="99.7322440">
    <ele>50.5</ele>
    <time>2018-01-27T07:34:17Z</time>
   </trkpt>
   <trkpt lat="12.9271150" lon="99.7322010">
    <ele>50.5</ele>
    <time>2018-01-27T07:34:18Z</time>
   </trkpt>
   <trkpt lat="12.9270960" lon="99.7321550">
    <ele>50.5</ele>
    <time>2018-01-27T07:34:19Z</time>
   </trkpt>
   <trkpt lat="12.9270760" lon="99.7321050">
    <ele>50.5</ele>
    <time>2018-01-27T07:34:20Z</time>
   </trkpt>
   <trkpt lat="12.9270560" lon="99.7320540">
    <ele>50.5</ele>
    <time>2018-01-27T07:34:21Z</time>
   </trkpt>
   <trkpt lat="12.9270320" lon="99.7320010">
    <ele>50.6</ele>
    <time>2018-01-27T07:34:22Z</time>
   </trkpt>
   <trkpt lat="12.9270080" lon="99.7319480">
    <ele>50.6</ele>
    <time>2018-01-27T07:34:23Z</time>
   </trkpt>
   <trkpt lat="12.9269860" lon="99.7318980">
    <ele>50.7</ele>
    <time>2018-01-27T07:34:24Z</time>
   </trkpt>
   <trkpt lat="12.9269660" lon="99.7318510">
    <ele>50.8</ele>
    <time>2018-01-27T07:34:25Z</time>
   </trkpt>
   <trkpt lat="12.9269460" lon="99.7318040">
    <ele>50.9</ele>
    <time>2018-01-27T07:34:26Z</time>
   </trkpt>
   <trkpt lat="12.9269220" lon="99.7317550">
    <ele>51.0</ele>
    <time>2018-01-27T07:34:27Z</time>
   </trkpt>
   <trkpt lat="12.9269000" lon="99.7317080">
    <ele>51.3</ele>
    <time>2018-01-27T07:34:28Z</time>
   </trkpt>
   <trkpt lat="12.9268780" lon="99.7316590">
    <ele>51.5</ele>
    <time>2018-01-27T07:34:29Z</time>
   </trkpt>
   <trkpt lat="12.9268570" lon="99.7316090">
    <ele>51.8</ele>
    <time>2018-01-27T07:34:30Z</time>
   </trkpt>
   <trkpt lat="12.9268350" lon="99.7315570">
    <ele>52.0</ele>
    <time>2018-01-27T07:34:31Z</time>
   </trkpt>
   <trkpt lat="12.9268150" lon="99.7315070">
    <ele>52.3</ele>
    <time>2018-01-27T07:34:32Z</time>
   </trkpt>
   <trkpt lat="12.9268000" lon="99.7314570">
    <ele>52.5</ele>
    <time>2018-01-27T07:34:33Z</time>
   </trkpt>
   <trkpt lat="12.9267730" lon="99.7313990">
    <ele>52.8</ele>
    <time>2018-01-27T07:34:34Z</time>
   </trkpt>
   <trkpt lat="12.9267530" lon="99.7313450">
    <ele>53.0</ele>
    <time>2018-01-27T07:34:35Z</time>
   </trkpt>
   <trkpt lat="12.9267320" lon="99.7312950">
    <ele>53.1</ele>
    <time>2018-01-27T07:34:36Z</time>
   </trkpt>
   <trkpt lat="12.9267110" lon="99.7312500">
    <ele>53.1</ele>
    <time>2018-01-27T07:34:37Z</time>
   </trkpt>
   <trkpt lat="12.9266890" lon="99.7311980">
    <ele>53.2</ele>
    <time>2018-01-27T07:34:38Z</time>
   </trkpt>
   <trkpt lat="12.9266690" lon="99.7311530">
    <ele>53.2</ele>
    <time>2018-01-27T07:34:39Z</time>
   </trkpt>
   <trkpt lat="12.9266460" lon="99.7311040">
    <ele>53.3</ele>
    <time>2018-01-27T07:34:40Z</time>
   </trkpt>
   <trkpt lat="12.9266340" lon="99.7310590">
    <ele>53.4</ele>
    <time>2018-01-27T07:34:41Z</time>
   </trkpt>
   <trkpt lat="12.9266140" lon="99.7310190">
    <ele>53.4</ele>
    <time>2018-01-27T07:34:42Z</time>
   </trkpt>
   <trkpt lat="12.9265960" lon="99.7309790">
    <ele>53.5</ele>
    <time>2018-01-27T07:34:43Z</time>
   </trkpt>
   <trkpt lat="12.9265730" lon="99.7309410">
    <ele>53.5</ele>
    <time>2018-01-27T07:34:44Z</time>
   </trkpt>
   <trkpt lat="12.9265460" lon="99.7308940">
    <ele>53.6</ele>
    <time>2018-01-27T07:34:45Z</time>
   </trkpt>
   <trkpt lat="12.9265180" lon="99.7308570">
    <ele>53.6</ele>
    <time>2018-01-27T07:34:46Z</time>
   </trkpt>
   <trkpt lat="12.9264810" lon="99.7308360">
    <ele>53.7</ele>
    <time>2018-01-27T07:34:47Z</time>
   </trkpt>
   <trkpt lat="12.9264420" lon="99.7308310">
    <ele>53.7</ele>
    <time>2018-01-27T07:34:48Z</time>
   </trkpt>
   <trkpt lat="12.9264030" lon="99.7308250">
    <ele>53.8</ele>
    <time>2018-01-27T07:34:49Z</time>
   </trkpt>
   <trkpt lat="12.9263640" lon="99.7308090">
    <ele>53.8</ele>
    <time>2018-01-27T07:34:50Z</time>
   </trkpt>
   <trkpt lat="12.9263240" lon="99.7307940">
    <ele>54.1</ele>
    <time>2018-01-27T07:34:51Z</time>
   </trkpt>
   <trkpt lat="12.9262770" lon="99.7307780">
    <ele>54.3</ele>
    <time>2018-01-27T07:34:52Z</time>
   </trkpt>
   <trkpt lat="12.9262300" lon="99.7307690">
    <ele>54.6</ele>
    <time>2018-01-27T07:34:53Z</time>
   </trkpt>
   <trkpt lat="12.9261880" lon="99.7307540">
    <ele>54.8</ele>
    <time>2018-01-27T07:34:54Z</time>
   </trkpt>
   <trkpt lat="12.9261450" lon="99.7307360">
    <ele>55.1</ele>
    <time>2018-01-27T07:34:55Z</time>
   </trkpt>
   <trkpt lat="12.9260930" lon="99.7307270">
    <ele>55.6</ele>
    <time>2018-01-27T07:34:56Z</time>
   </trkpt>
   <trkpt lat="12.9260510" lon="99.7307150">
    <ele>55.8</ele>
    <time>2018-01-27T07:34:57Z</time>
   </trkpt>
   <trkpt lat="12.9260060" lon="99.7307050">
    <ele>55.9</ele>
    <time>2018-01-27T07:34:58Z</time>
   </trkpt>
   <trkpt lat="12.9259800" lon="99.7306970">
    <ele>55.9</ele>
    <time>2018-01-27T07:34:59Z</time>
   </trkpt>
   <trkpt lat="12.9259330" lon="99.7306800">
    <ele>56.4</ele>
    <time>2018-01-27T07:35:01Z</time>
   </trkpt>
   <trkpt lat="12.9258660" lon="99.7306430">
    <ele>56.4</ele>
    <time>2018-01-27T07:35:02Z</time>
   </trkpt>
   <trkpt lat="12.9257920" lon="99.7306090">
    <ele>56.3</ele>
    <time>2018-01-27T07:35:03Z</time>
   </trkpt>
   <trkpt lat="12.9257430" lon="99.7305980">
    <ele>56.3</ele>
    <time>2018-01-27T07:35:04Z</time>
   </trkpt>
   <trkpt lat="12.9256960" lon="99.7305870">
    <ele>56.3</ele>
    <time>2018-01-27T07:35:05Z</time>
   </trkpt>
   <trkpt lat="12.9256520" lon="99.7305730">
    <ele>56.2</ele>
    <time>2018-01-27T07:35:06Z</time>
   </trkpt>
   <trkpt lat="12.9256070" lon="99.7305610">
    <ele>56.5</ele>
    <time>2018-01-27T07:35:07Z</time>
   </trkpt>
   <trkpt lat="12.9255620" lon="99.7305470">
    <ele>56.7</ele>
    <time>2018-01-27T07:35:08Z</time>
   </trkpt>
   <trkpt lat="12.9255280" lon="99.7305370">
    <ele>56.9</ele>
    <time>2018-01-27T07:35:09Z</time>
   </trkpt>
   <trkpt lat="12.9254930" lon="99.7305220">
    <ele>57.1</ele>
    <time>2018-01-27T07:35:10Z</time>
   </trkpt>
   <trkpt lat="12.9254550" lon="99.7305070">
    <ele>57.4</ele>
    <time>2018-01-27T07:35:11Z</time>
   </trkpt>
   <trkpt lat="12.9254210" lon="99.7304910">
    <ele>57.6</ele>
    <time>2018-01-27T07:35:12Z</time>
   </trkpt>
   <trkpt lat="12.9253860" lon="99.7304760">
    <ele>57.9</ele>
    <time>2018-01-27T07:35:13Z</time>
   </trkpt>
   <trkpt lat="12.9253430" lon="99.7304610">
    <ele>58.0</ele>
    <time>2018-01-27T07:35:14Z</time>
   </trkpt>
   <trkpt lat="12.9253010" lon="99.7304480">
    <ele>58.0</ele>
    <time>2018-01-27T07:35:15Z</time>
   </trkpt>
   <trkpt lat="12.9252570" lon="99.7304370">
    <ele>58.0</ele>
    <time>2018-01-27T07:35:16Z</time>
   </trkpt>
   <trkpt lat="12.9252130" lon="99.7304280">
    <ele>58.0</ele>
    <time>2018-01-27T07:35:17Z</time>
   </trkpt>
   <trkpt lat="12.9251700" lon="99.7304190">
    <ele>58.0</ele>
    <time>2018-01-27T07:35:18Z</time>
   </trkpt>
   <trkpt lat="12.9251230" lon="99.7304100">
    <ele>58.0</ele>
    <time>2018-01-27T07:35:19Z</time>
   </trkpt>
   <trkpt lat="12.9250670" lon="99.7304070">
    <ele>58.0</ele>
    <time>2018-01-27T07:35:20Z</time>
   </trkpt>
   <trkpt lat="12.9250170" lon="99.7303990">
    <ele>58.0</ele>
    <time>2018-01-27T07:35:21Z</time>
   </trkpt>
   <trkpt lat="12.9249750" lon="99.7303850">
    <ele>58.0</ele>
    <time>2018-01-27T07:35:22Z</time>
   </trkpt>
   <trkpt lat="12.9249360" lon="99.7303740">
    <ele>58.0</ele>
    <time>2018-01-27T07:35:23Z</time>
   </trkpt>
   <trkpt lat="12.9248990" lon="99.7303660">
    <ele>58.0</ele>
    <time>2018-01-27T07:35:24Z</time>
   </trkpt>
   <trkpt lat="12.9248690" lon="99.7303650">
    <ele>58.0</ele>
    <time>2018-01-27T07:35:25Z</time>
   </trkpt>
   <trkpt lat="12.9248340" lon="99.7303590">
    <ele>58.0</ele>
    <time>2018-01-27T07:35:26Z</time>
   </trkpt>
   <trkpt lat="12.9247930" lon="99.7303480">
    <ele>58.0</ele>
    <time>2018-01-27T07:35:27Z</time>
   </trkpt>
   <trkpt lat="12.9247570" lon="99.7303360">
    <ele>58.0</ele>
    <time>2018-01-27T07:35:28Z</time>
   </trkpt>
   <trkpt lat="12.9247240" lon="99.7303230">
    <ele>58.0</ele>
    <time>2018-01-27T07:35:29Z</time>
   </trkpt>
   <trkpt lat="12.9246910" lon="99.7303110">
    <ele>58.1</ele>
    <time>2018-01-27T07:35:30Z</time>
   </trkpt>
   <trkpt lat="12.9246580" lon="99.7302990">
    <ele>58.1</ele>
    <time>2018-01-27T07:35:31Z</time>
   </trkpt>
   <trkpt lat="12.9246250" lon="99.7302870">
    <ele>58.1</ele>
    <time>2018-01-27T07:35:32Z</time>
   </trkpt>
   <trkpt lat="12.9245920" lon="99.7302750">
    <ele>58.1</ele>
    <time>2018-01-27T07:35:33Z</time>
   </trkpt>
   <trkpt lat="12.9245580" lon="99.7302600">
    <ele>58.1</ele>
    <time>2018-01-27T07:35:34Z</time>
   </trkpt>
   <trkpt lat="12.9244720" lon="99.7302100">
    <ele>58.1</ele>
    <time>2018-01-27T07:35:35Z</time>
   </trkpt>
   <trkpt lat="12.9244360" lon="99.7301930">
    <ele>57.9</ele>
    <time>2018-01-27T07:35:36Z</time>
   </trkpt>
   <trkpt lat="12.9243950" lon="99.7301750">
    <ele>57.9</ele>
    <time>2018-01-27T07:35:37Z</time>
   </trkpt>
   <trkpt lat="12.9243560" lon="99.7301590">
    <ele>57.9</ele>
    <time>2018-01-27T07:35:38Z</time>
   </trkpt>
   <trkpt lat="12.9243150" lon="99.7301450">
    <ele>57.6</ele>
    <time>2018-01-27T07:35:39Z</time>
   </trkpt>
   <trkpt lat="12.9242790" lon="99.7301310">
    <ele>57.3</ele>
    <time>2018-01-27T07:35:40Z</time>
   </trkpt>
   <trkpt lat="12.9242380" lon="99.7301210">
    <ele>57.1</ele>
    <time>2018-01-27T07:35:41Z</time>
   </trkpt>
   <trkpt lat="12.9241980" lon="99.7301080">
    <ele>56.6</ele>
    <time>2018-01-27T07:35:42Z</time>
   </trkpt>
   <trkpt lat="12.9241590" lon="99.7300880">
    <ele>56.5</ele>
    <time>2018-01-27T07:35:43Z</time>
   </trkpt>
   <trkpt lat="12.9241190" lon="99.7300680">
    <ele>56.5</ele>
    <time>2018-01-27T07:35:44Z</time>
   </trkpt>
   <trkpt lat="12.9240760" lon="99.7300530">
    <ele>56.2</ele>
    <time>2018-01-27T07:35:45Z</time>
   </trkpt>
   <trkpt lat="12.9240410" lon="99.7300420">
    <ele>56.2</ele>
    <time>2018-01-27T07:35:46Z</time>
   </trkpt>
   <trkpt lat="12.9240250" lon="99.7300140">
    <ele>56.2</ele>
    <time>2018-01-27T07:36:02Z</time>
   </trkpt>
   <trkpt lat="12.9239920" lon="99.7300000">
    <ele>56.4</ele>
    <time>2018-01-27T07:36:04Z</time>
   </trkpt>
   <trkpt lat="12.9239390" lon="99.7299830">
    <ele>56.6</ele>
    <time>2018-01-27T07:36:06Z</time>
   </trkpt>
   <trkpt lat="12.9239050" lon="99.7299740">
    <ele>57.1</ele>
    <time>2018-01-27T07:36:07Z</time>
   </trkpt>
   <trkpt lat="12.9238710" lon="99.7299630">
    <ele>57.4</ele>
    <time>2018-01-27T07:36:08Z</time>
   </trkpt>
   <trkpt lat="12.9238360" lon="99.7299520">
    <ele>57.7</ele>
    <time>2018-01-27T07:36:09Z</time>
   </trkpt>
   <trkpt lat="12.9238080" lon="99.7299400">
    <ele>57.7</ele>
    <time>2018-01-27T07:36:10Z</time>
   </trkpt>
   <trkpt lat="12.9237740" lon="99.7299280">
    <ele>58.3</ele>
    <time>2018-01-27T07:36:11Z</time>
   </trkpt>
   <trkpt lat="12.9237440" lon="99.7299040">
    <ele>58.6</ele>
    <time>2018-01-27T07:36:12Z</time>
   </trkpt>
   <trkpt lat="12.9236990" lon="99.7298920">
    <ele>59.0</ele>
    <time>2018-01-27T07:36:13Z</time>
   </trkpt>
   <trkpt lat="12.9236620" lon="99.7298820">
    <ele>59.2</ele>
    <time>2018-01-27T07:36:14Z</time>
   </trkpt>
   <trkpt lat="12.9236160" lon="99.7298690">
    <ele>59.2</ele>
    <time>2018-01-27T07:36:15Z</time>
   </trkpt>
   <trkpt lat="12.9235780" lon="99.7298460">
    <ele>59.3</ele>
    <time>2018-01-27T07:36:16Z</time>
   </trkpt>
   <trkpt lat="12.9235340" lon="99.7298320">
    <ele>59.3</ele>
    <time>2018-01-27T07:36:17Z</time>
   </trkpt>
   <trkpt lat="12.9234920" lon="99.7298150">
    <ele>59.3</ele>
    <time>2018-01-27T07:36:18Z</time>
   </trkpt>
   <trkpt lat="12.9234470" lon="99.7297970">
    <ele>59.6</ele>
    <time>2018-01-27T07:36:19Z</time>
   </trkpt>
   <trkpt lat="12.9234060" lon="99.7297830">
    <ele>59.6</ele>
    <time>2018-01-27T07:36:20Z</time>
   </trkpt>
   <trkpt lat="12.9233740" lon="99.7297800">
    <ele>59.6</ele>
    <time>2018-01-27T07:36:22Z</time>
   </trkpt>
   <trkpt lat="12.9233410" lon="99.7297710">
    <ele>59.6</ele>
    <time>2018-01-27T07:36:23Z</time>
   </trkpt>
   <trkpt lat="12.9233050" lon="99.7297600">
    <ele>59.9</ele>
    <time>2018-01-27T07:36:24Z</time>
   </trkpt>
   <trkpt lat="12.9231270" lon="99.7296990">
    <ele>60.2</ele>
    <time>2018-01-27T07:36:26Z</time>
   </trkpt>
   <trkpt lat="12.9230820" lon="99.7296920">
    <ele>60.2</ele>
    <time>2018-01-27T07:36:27Z</time>
   </trkpt>
   <trkpt lat="12.9230370" lon="99.7296780">
    <ele>60.5</ele>
    <time>2018-01-27T07:36:28Z</time>
   </trkpt>
   <trkpt lat="12.9229940" lon="99.7296670">
    <ele>60.6</ele>
    <time>2018-01-27T07:36:29Z</time>
   </trkpt>
   <trkpt lat="12.9229490" lon="99.7296560">
    <ele>60.8</ele>
    <time>2018-01-27T07:36:30Z</time>
   </trkpt>
   <trkpt lat="12.9228990" lon="99.7296470">
    <ele>61.1</ele>
    <time>2018-01-27T07:36:31Z</time>
   </trkpt>
   <trkpt lat="12.9228570" lon="99.7296320">
    <ele>61.9</ele>
    <time>2018-01-27T07:36:32Z</time>
   </trkpt>
   <trkpt lat="12.9228120" lon="99.7296210">
    <ele>62.1</ele>
    <time>2018-01-27T07:36:33Z</time>
   </trkpt>
   <trkpt lat="12.9227660" lon="99.7296070">
    <ele>62.4</ele>
    <time>2018-01-27T07:36:34Z</time>
   </trkpt>
   <trkpt lat="12.9226870" lon="99.7295810">
    <ele>63.4</ele>
    <time>2018-01-27T07:36:37Z</time>
   </trkpt>
   <trkpt lat="12.9226580" lon="99.7295720">
    <ele>63.4</ele>
    <time>2018-01-27T07:36:38Z</time>
   </trkpt>
   <trkpt lat="12.9226090" lon="99.7295570">
    <ele>63.3</ele>
    <time>2018-01-27T07:36:39Z</time>
   </trkpt>
   <trkpt lat="12.9225610" lon="99.7295420">
    <ele>63.5</ele>
    <time>2018-01-27T07:36:40Z</time>
   </trkpt>
   <trkpt lat="12.9225130" lon="99.7295260">
    <ele>63.3</ele>
    <time>2018-01-27T07:36:41Z</time>
   </trkpt>
   <trkpt lat="12.9224650" lon="99.7295110">
    <ele>63.2</ele>
    <time>2018-01-27T07:36:42Z</time>
   </trkpt>
   <trkpt lat="12.9224160" lon="99.7294930">
    <ele>64.0</ele>
    <time>2018-01-27T07:36:43Z</time>
   </trkpt>
   <trkpt lat="12.9223640" lon="99.7294740">
    <ele>64.3</ele>
    <time>2018-01-27T07:36:44Z</time>
   </trkpt>
   <trkpt lat="12.9223080" lon="99.7294520">
    <ele>64.6</ele>
    <time>2018-01-27T07:36:45Z</time>
   </trkpt>
   <trkpt lat="12.9222440" lon="99.7294260">
    <ele>64.4</ele>
    <time>2018-01-27T07:36:46Z</time>
   </trkpt>
   <trkpt lat="12.9221780" lon="99.7293990">
    <ele>64.4</ele>
    <time>2018-01-27T07:36:47Z</time>
   </trkpt>
   <trkpt lat="12.9221190" lon="99.7293710">
    <ele>64.3</ele>
    <time>2018-01-27T07:36:48Z</time>
   </trkpt>
   <trkpt lat="12.9220600" lon="99.7293420">
    <ele>64.3</ele>
    <time>2018-01-27T07:36:49Z</time>
   </trkpt>
   <trkpt lat="12.9220080" lon="99.7293170">
    <ele>64.2</ele>
    <time>2018-01-27T07:36:50Z</time>
   </trkpt>
   <trkpt lat="12.9219570" lon="99.7292910">
    <ele>63.5</ele>
    <time>2018-01-27T07:36:51Z</time>
   </trkpt>
   <trkpt lat="12.9219090" lon="99.7292680">
    <ele>63.3</ele>
    <time>2018-01-27T07:36:52Z</time>
   </trkpt>
   <trkpt lat="12.9218510" lon="99.7292430">
    <ele>62.8</ele>
    <time>2018-01-27T07:36:53Z</time>
   </trkpt>
   <trkpt lat="12.9217910" lon="99.7292170">
    <ele>62.2</ele>
    <time>2018-01-27T07:36:54Z</time>
   </trkpt>
   <trkpt lat="12.9217360" lon="99.7291950">
    <ele>61.7</ele>
    <time>2018-01-27T07:36:55Z</time>
   </trkpt>
   <trkpt lat="12.9216840" lon="99.7291770">
    <ele>61.5</ele>
    <time>2018-01-27T07:36:56Z</time>
   </trkpt>
   <trkpt lat="12.9216310" lon="99.7291630">
    <ele>61.3</ele>
    <time>2018-01-27T07:36:57Z</time>
   </trkpt>
   <trkpt lat="12.9215780" lon="99.7291500">
    <ele>61.3</ele>
    <time>2018-01-27T07:36:58Z</time>
   </trkpt>
   <trkpt lat="12.9215220" lon="99.7291350">
    <ele>61.3</ele>
    <time>2018-01-27T07:36:59Z</time>
   </trkpt>
   <trkpt lat="12.9214650" lon="99.7291180">
    <ele>61.3</ele>
    <time>2018-01-27T07:37:00Z</time>
   </trkpt>
   <trkpt lat="12.9214100" lon="99.7291010">
    <ele>61.3</ele>
    <time>2018-01-27T07:37:01Z</time>
   </trkpt>
   <trkpt lat="12.9213380" lon="99.7290830">
    <ele>61.3</ele>
    <time>2018-01-27T07:37:02Z</time>
   </trkpt>
   <trkpt lat="12.9212920" lon="99.7290700">
    <ele>61.4</ele>
    <time>2018-01-27T07:37:03Z</time>
   </trkpt>
   <trkpt lat="12.9212310" lon="99.7290550">
    <ele>61.7</ele>
    <time>2018-01-27T07:37:04Z</time>
   </trkpt>
   <trkpt lat="12.9211770" lon="99.7290420">
    <ele>61.9</ele>
    <time>2018-01-27T07:37:05Z</time>
   </trkpt>
   <trkpt lat="12.9211180" lon="99.7290290">
    <ele>62.2</ele>
    <time>2018-01-27T07:37:06Z</time>
   </trkpt>
   <trkpt lat="12.9210670" lon="99.7290180">
    <ele>62.2</ele>
    <time>2018-01-27T07:37:07Z</time>
   </trkpt>
   <trkpt lat="12.9210220" lon="99.7290080">
    <ele>62.2</ele>
    <time>2018-01-27T07:37:08Z</time>
   </trkpt>
   <trkpt lat="12.9209820" lon="99.7289840">
    <ele>62.3</ele>
    <time>2018-01-27T07:37:09Z</time>
   </trkpt>
   <trkpt lat="12.9209430" lon="99.7289710">
    <ele>62.3</ele>
    <time>2018-01-27T07:37:10Z</time>
   </trkpt>
   <trkpt lat="12.9208870" lon="99.7289660">
    <ele>62.4</ele>
    <time>2018-01-27T07:37:11Z</time>
   </trkpt>
   <trkpt lat="12.9208540" lon="99.7289550">
    <ele>62.4</ele>
    <time>2018-01-27T07:37:12Z</time>
   </trkpt>
   <trkpt lat="12.9208120" lon="99.7289430">
    <ele>62.4</ele>
    <time>2018-01-27T07:37:13Z</time>
   </trkpt>
   <trkpt lat="12.9207780" lon="99.7289320">
    <ele>62.5</ele>
    <time>2018-01-27T07:37:14Z</time>
   </trkpt>
   <trkpt lat="12.9207420" lon="99.7289170">
    <ele>62.6</ele>
    <time>2018-01-27T07:37:15Z</time>
   </trkpt>
   <trkpt lat="12.9207040" lon="99.7288990">
    <ele>62.9</ele>
    <time>2018-01-27T07:37:16Z</time>
   </trkpt>
   <trkpt lat="12.9206660" lon="99.7288770">
    <ele>62.9</ele>
    <time>2018-01-27T07:37:17Z</time>
   </trkpt>
   <trkpt lat="12.9206270" lon="99.7288600">
    <ele>63.3</ele>
    <time>2018-01-27T07:37:18Z</time>
   </trkpt>
   <trkpt lat="12.9205800" lon="99.7288430">
    <ele>63.3</ele>
    <time>2018-01-27T07:37:19Z</time>
   </trkpt>
   <trkpt lat="12.9205440" lon="99.7288290">
    <ele>63.3</ele>
    <time>2018-01-27T07:37:20Z</time>
   </trkpt>
   <trkpt lat="12.9204900" lon="99.7288160">
    <ele>63.5</ele>
    <time>2018-01-27T07:37:21Z</time>
   </trkpt>
   <trkpt lat="12.9204460" lon="99.7287960">
    <ele>63.5</ele>
    <time>2018-01-27T07:37:22Z</time>
   </trkpt>
   <trkpt lat="12.9204020" lon="99.7287790">
    <ele>63.8</ele>
    <time>2018-01-27T07:37:23Z</time>
   </trkpt>
   <trkpt lat="12.9203740" lon="99.7287680">
    <ele>63.8</ele>
    <time>2018-01-27T07:37:24Z</time>
   </trkpt>
   <trkpt lat="12.9203390" lon="99.7287580">
    <ele>63.8</ele>
    <time>2018-01-27T07:37:25Z</time>
   </trkpt>
   <trkpt lat="12.9202930" lon="99.7287430">
    <ele>63.8</ele>
    <time>2018-01-27T07:37:26Z</time>
   </trkpt>
   <trkpt lat="12.9202440" lon="99.7287270">
    <ele>64.0</ele>
    <time>2018-01-27T07:37:27Z</time>
   </trkpt>
   <trkpt lat="12.9201930" lon="99.7287100">
    <ele>64.0</ele>
    <time>2018-01-27T07:37:28Z</time>
   </trkpt>
   <trkpt lat="12.9201450" lon="99.7286920">
    <ele>64.3</ele>
    <time>2018-01-27T07:37:29Z</time>
   </trkpt>
   <trkpt lat="12.9200980" lon="99.7286750">
    <ele>64.3</ele>
    <time>2018-01-27T07:37:30Z</time>
   </trkpt>
   <trkpt lat="12.9200520" lon="99.7286590">
    <ele>64.3</ele>
    <time>2018-01-27T07:37:31Z</time>
   </trkpt>
   <trkpt lat="12.9200090" lon="99.7286440">
    <ele>64.5</ele>
    <time>2018-01-27T07:37:32Z</time>
   </trkpt>
   <trkpt lat="12.9199680" lon="99.7286370">
    <ele>64.4</ele>
    <time>2018-01-27T07:37:33Z</time>
   </trkpt>
   <trkpt lat="12.9197390" lon="99.7285430">
    <ele>63.4</ele>
    <time>2018-01-27T07:37:35Z</time>
   </trkpt>
   <trkpt lat="12.9196870" lon="99.7285160">
    <ele>63.4</ele>
    <time>2018-01-27T07:37:36Z</time>
   </trkpt>
   <trkpt lat="12.9196320" lon="99.7284930">
    <ele>63.5</ele>
    <time>2018-01-27T07:37:37Z</time>
   </trkpt>
   <trkpt lat="12.9195840" lon="99.7284730">
    <ele>63.8</ele>
    <time>2018-01-27T07:37:38Z</time>
   </trkpt>
   <trkpt lat="12.9195570" lon="99.7284690">
    <ele>64.0</ele>
    <time>2018-01-27T07:37:39Z</time>
   </trkpt>
   <trkpt lat="12.9195150" lon="99.7284570">
    <ele>64.3</ele>
    <time>2018-01-27T07:37:41Z</time>
   </trkpt>
   <trkpt lat="12.9194870" lon="99.7284640">
    <ele>64.5</ele>
    <time>2018-01-27T07:37:43Z</time>
   </trkpt>
   <trkpt lat="12.9194830" lon="99.7284920">
    <ele>64.5</ele>
    <time>2018-01-27T07:37:55Z</time>
   </trkpt>
   <trkpt lat="12.9194490" lon="99.7284530">
    <ele>64.5</ele>
    <time>2018-01-27T07:38:11Z</time>
   </trkpt>
   <trkpt lat="12.9194400" lon="99.7284240">
    <ele>64.5</ele>
    <time>2018-01-27T07:38:16Z</time>
   </trkpt>
   <trkpt lat="12.9194090" lon="99.7284070">
    <ele>64.5</ele>
    <time>2018-01-27T07:38:18Z</time>
   </trkpt>
   <trkpt lat="12.9193700" lon="99.7283860">
    <ele>64.5</ele>
    <time>2018-01-27T07:38:20Z</time>
   </trkpt>
   <trkpt lat="12.9193250" lon="99.7283640">
    <ele>64.5</ele>
    <time>2018-01-27T07:38:22Z</time>
   </trkpt>
   <trkpt lat="12.9192900" lon="99.7283500">
    <ele>64.4</ele>
    <time>2018-01-27T07:38:23Z</time>
   </trkpt>
   <trkpt lat="12.9192580" lon="99.7283400">
    <ele>64.2</ele>
    <time>2018-01-27T07:38:24Z</time>
   </trkpt>
   <trkpt lat="12.9192270" lon="99.7283350">
    <ele>63.9</ele>
    <time>2018-01-27T07:38:25Z</time>
   </trkpt>
   <trkpt lat="12.9191950" lon="99.7283320">
    <ele>63.7</ele>
    <time>2018-01-27T07:38:26Z</time>
   </trkpt>
   <trkpt lat="12.9191660" lon="99.7283240">
    <ele>63.7</ele>
    <time>2018-01-27T07:38:27Z</time>
   </trkpt>
   <trkpt lat="12.9191360" lon="99.7283110">
    <ele>63.5</ele>
    <time>2018-01-27T07:38:28Z</time>
   </trkpt>
   <trkpt lat="12.9191030" lon="99.7282970">
    <ele>63.7</ele>
    <time>2018-01-27T07:38:29Z</time>
   </trkpt>
   <trkpt lat="12.9190680" lon="99.7282840">
    <ele>63.7</ele>
    <time>2018-01-27T07:38:30Z</time>
   </trkpt>
   <trkpt lat="12.9190310" lon="99.7282730">
    <ele>63.7</ele>
    <time>2018-01-27T07:38:31Z</time>
   </trkpt>
   <trkpt lat="12.9189940" lon="99.7282590">
    <ele>64.0</ele>
    <time>2018-01-27T07:38:32Z</time>
   </trkpt>
   <trkpt lat="12.9189600" lon="99.7282440">
    <ele>63.9</ele>
    <time>2018-01-27T07:38:33Z</time>
   </trkpt>
   <trkpt lat="12.9189260" lon="99.7282300">
    <ele>63.9</ele>
    <time>2018-01-27T07:38:34Z</time>
   </trkpt>
   <trkpt lat="12.9188790" lon="99.7282130">
    <ele>64.0</ele>
    <time>2018-01-27T07:38:36Z</time>
   </trkpt>
   <trkpt lat="12.9188430" lon="99.7282010">
    <ele>64.0</ele>
    <time>2018-01-27T07:38:37Z</time>
   </trkpt>
   <trkpt lat="12.9188060" lon="99.7281880">
    <ele>64.1</ele>
    <time>2018-01-27T07:38:38Z</time>
   </trkpt>
   <trkpt lat="12.9187750" lon="99.7281750">
    <ele>64.4</ele>
    <time>2018-01-27T07:38:39Z</time>
   </trkpt>
   <trkpt lat="12.9187410" lon="99.7281610">
    <ele>64.4</ele>
    <time>2018-01-27T07:38:40Z</time>
   </trkpt>
   <trkpt lat="12.9187050" lon="99.7281470">
    <ele>64.4</ele>
    <time>2018-01-27T07:38:41Z</time>
   </trkpt>
   <trkpt lat="12.9186680" lon="99.7281360">
    <ele>64.6</ele>
    <time>2018-01-27T07:38:42Z</time>
   </trkpt>
   <trkpt lat="12.9186300" lon="99.7281240">
    <ele>64.7</ele>
    <time>2018-01-27T07:38:43Z</time>
   </trkpt>
   <trkpt lat="12.9185930" lon="99.7281140">
    <ele>64.9</ele>
    <time>2018-01-27T07:38:44Z</time>
   </trkpt>
   <trkpt lat="12.9185520" lon="99.7281050">
    <ele>65.2</ele>
    <time>2018-01-27T07:38:45Z</time>
   </trkpt>
   <trkpt lat="12.9185100" lon="99.7280970">
    <ele>65.5</ele>
    <time>2018-01-27T07:38:46Z</time>
   </trkpt>
   <trkpt lat="12.9184660" lon="99.7280870">
    <ele>65.7</ele>
    <time>2018-01-27T07:38:47Z</time>
   </trkpt>
   <trkpt lat="12.9184180" lon="99.7280730">
    <ele>66.0</ele>
    <time>2018-01-27T07:38:48Z</time>
   </trkpt>
   <trkpt lat="12.9183700" lon="99.7280600">
    <ele>66.2</ele>
    <time>2018-01-27T07:38:49Z</time>
   </trkpt>
   <trkpt lat="12.9183220" lon="99.7280480">
    <ele>66.5</ele>
    <time>2018-01-27T07:38:50Z</time>
   </trkpt>
   <trkpt lat="12.9182740" lon="99.7280380">
    <ele>67.0</ele>
    <time>2018-01-27T07:38:51Z</time>
   </trkpt>
   <trkpt lat="12.9181810" lon="99.7280100">
    <ele>67.4</ele>
    <time>2018-01-27T07:38:52Z</time>
   </trkpt>
   <trkpt lat="12.9181410" lon="99.7280000">
    <ele>67.6</ele>
    <time>2018-01-27T07:38:53Z</time>
   </trkpt>
   <trkpt lat="12.9180950" lon="99.7279850">
    <ele>67.7</ele>
    <time>2018-01-27T07:38:54Z</time>
   </trkpt>
   <trkpt lat="12.9180500" lon="99.7279740">
    <ele>67.7</ele>
    <time>2018-01-27T07:38:55Z</time>
   </trkpt>
   <trkpt lat="12.9180000" lon="99.7279600">
    <ele>67.6</ele>
    <time>2018-01-27T07:38:56Z</time>
   </trkpt>
   <trkpt lat="12.9179510" lon="99.7279510">
    <ele>67.5</ele>
    <time>2018-01-27T07:38:57Z</time>
   </trkpt>
   <trkpt lat="12.9179140" lon="99.7279360">
    <ele>67.4</ele>
    <time>2018-01-27T07:38:58Z</time>
   </trkpt>
   <trkpt lat="12.9178690" lon="99.7279260">
    <ele>67.1</ele>
    <time>2018-01-27T07:38:59Z</time>
   </trkpt>
   <trkpt lat="12.9178250" lon="99.7279150">
    <ele>67.1</ele>
    <time>2018-01-27T07:39:00Z</time>
   </trkpt>
   <trkpt lat="12.9177490" lon="99.7279140">
    <ele>66.5</ele>
    <time>2018-01-27T07:39:01Z</time>
   </trkpt>
   <trkpt lat="12.9177050" lon="99.7278910">
    <ele>66.1</ele>
    <time>2018-01-27T07:39:02Z</time>
   </trkpt>
   <trkpt lat="12.9176560" lon="99.7278780">
    <ele>66.6</ele>
    <time>2018-01-27T07:39:03Z</time>
   </trkpt>
   <trkpt lat="12.9176070" lon="99.7278650">
    <ele>66.1</ele>
    <time>2018-01-27T07:39:04Z</time>
   </trkpt>
   <trkpt lat="12.9175710" lon="99.7278440">
    <ele>66.1</ele>
    <time>2018-01-27T07:39:05Z</time>
   </trkpt>
   <trkpt lat="12.9175290" lon="99.7278290">
    <ele>66.7</ele>
    <time>2018-01-27T07:39:06Z</time>
   </trkpt>
   <trkpt lat="12.9174890" lon="99.7278120">
    <ele>66.4</ele>
    <time>2018-01-27T07:39:07Z</time>
   </trkpt>
   <trkpt lat="12.9174370" lon="99.7278020">
    <ele>65.9</ele>
    <time>2018-01-27T07:39:08Z</time>
   </trkpt>
   <trkpt lat="12.9173770" lon="99.7278000">
    <ele>65.7</ele>
    <time>2018-01-27T07:39:09Z</time>
   </trkpt>
   <trkpt lat="12.9173340" lon="99.7277750">
    <ele>65.9</ele>
    <time>2018-01-27T07:39:10Z</time>
   </trkpt>
   <trkpt lat="12.9173020" lon="99.7277670">
    <ele>65.6</ele>
    <time>2018-01-27T07:39:11Z</time>
   </trkpt>
   <trkpt lat="12.9172470" lon="99.7277470">
    <ele>65.7</ele>
    <time>2018-01-27T07:39:12Z</time>
   </trkpt>
   <trkpt lat="12.9172000" lon="99.7277360">
    <ele>65.5</ele>
    <time>2018-01-27T07:39:13Z</time>
   </trkpt>
   <trkpt lat="12.9171520" lon="99.7277280">
    <ele>65.2</ele>
    <time>2018-01-27T07:39:14Z</time>
   </trkpt>
   <trkpt lat="12.9171090" lon="99.7277090">
    <ele>65.0</ele>
    <time>2018-01-27T07:39:15Z</time>
   </trkpt>
   <trkpt lat="12.9170650" lon="99.7276940">
    <ele>64.5</ele>
    <time>2018-01-27T07:39:16Z</time>
   </trkpt>
   <trkpt lat="12.9170070" lon="99.7276710">
    <ele>65.2</ele>
    <time>2018-01-27T07:39:18Z</time>
   </trkpt>
   <trkpt lat="12.9169540" lon="99.7276690">
    <ele>65.5</ele>
    <time>2018-01-27T07:39:19Z</time>
   </trkpt>
   <trkpt lat="12.9169280" lon="99.7276370">
    <ele>65.6</ele>
    <time>2018-01-27T07:39:20Z</time>
   </trkpt>
   <trkpt lat="12.9168810" lon="99.7276290">
    <ele>65.7</ele>
    <time>2018-01-27T07:39:21Z</time>
   </trkpt>
   <trkpt lat="12.9168540" lon="99.7276220">
    <ele>65.7</ele>
    <time>2018-01-27T07:39:22Z</time>
   </trkpt>
   <trkpt lat="12.9168230" lon="99.7276120">
    <ele>65.7</ele>
    <time>2018-01-27T07:39:23Z</time>
   </trkpt>
   <trkpt lat="12.9167970" lon="99.7275960">
    <ele>65.7</ele>
    <time>2018-01-27T07:39:24Z</time>
   </trkpt>
   <trkpt lat="12.9167690" lon="99.7275700">
    <ele>65.8</ele>
    <time>2018-01-27T07:39:25Z</time>
   </trkpt>
   <trkpt lat="12.9167360" lon="99.7275460">
    <ele>65.8</ele>
    <time>2018-01-27T07:39:26Z</time>
   </trkpt>
   <trkpt lat="12.9167040" lon="99.7275230">
    <ele>65.8</ele>
    <time>2018-01-27T07:39:27Z</time>
   </trkpt>
   <trkpt lat="12.9166740" lon="99.7275030">
    <ele>65.8</ele>
    <time>2018-01-27T07:39:28Z</time>
   </trkpt>
   <trkpt lat="12.9166390" lon="99.7274880">
    <ele>65.9</ele>
    <time>2018-01-27T07:39:29Z</time>
   </trkpt>
   <trkpt lat="12.9165850" lon="99.7274360">
    <ele>66.4</ele>
    <time>2018-01-27T07:39:31Z</time>
   </trkpt>
   <trkpt lat="12.9165630" lon="99.7274120">
    <ele>66.8</ele>
    <time>2018-01-27T07:39:32Z</time>
   </trkpt>
   <trkpt lat="12.9165330" lon="99.7274100">
    <ele>67.1</ele>
    <time>2018-01-27T07:39:35Z</time>
   </trkpt>
   <trkpt lat="12.9165400" lon="99.7273800">
    <ele>67.4</ele>
    <time>2018-01-27T07:39:58Z</time>
   </trkpt>
   <trkpt lat="12.9165270" lon="99.7273400">
    <ele>67.7</ele>
    <time>2018-01-27T07:40:00Z</time>
   </trkpt>
   <trkpt lat="12.9165070" lon="99.7273200">
    <ele>67.9</ele>
    <time>2018-01-27T07:40:01Z</time>
   </trkpt>
   <trkpt lat="12.9164830" lon="99.7273010">
    <ele>68.1</ele>
    <time>2018-01-27T07:40:02Z</time>
   </trkpt>
   <trkpt lat="12.9164530" lon="99.7272780">
    <ele>68.5</ele>
    <time>2018-01-27T07:40:03Z</time>
   </trkpt>
   <trkpt lat="12.9164300" lon="99.7272580">
    <ele>68.8</ele>
    <time>2018-01-27T07:40:05Z</time>
   </trkpt>
   <trkpt lat="12.9164280" lon="99.7272290">
    <ele>69.0</ele>
    <time>2018-01-27T07:40:06Z</time>
   </trkpt>
   <trkpt lat="12.9164270" lon="99.7271920">
    <ele>69.3</ele>
    <time>2018-01-27T07:40:07Z</time>
   </trkpt>
   <trkpt lat="12.9164060" lon="99.7270980">
    <ele>70.1</ele>
    <time>2018-01-27T07:40:09Z</time>
   </trkpt>
   <trkpt lat="12.9163940" lon="99.7270720">
    <ele>70.3</ele>
    <time>2018-01-27T07:40:10Z</time>
   </trkpt>
   <trkpt lat="12.9163780" lon="99.7270490">
    <ele>70.4</ele>
    <time>2018-01-27T07:40:11Z</time>
   </trkpt>
   <trkpt lat="12.9163450" lon="99.7270050">
    <ele>70.5</ele>
    <time>2018-01-27T07:40:13Z</time>
   </trkpt>
   <trkpt lat="12.9163230" lon="99.7269820">
    <ele>70.4</ele>
    <time>2018-01-27T07:40:14Z</time>
   </trkpt>
   <trkpt lat="12.9163030" lon="99.7269600">
    <ele>70.3</ele>
    <time>2018-01-27T07:40:15Z</time>
   </trkpt>
   <trkpt lat="12.9162840" lon="99.7269360">
    <ele>70.2</ele>
    <time>2018-01-27T07:40:16Z</time>
   </trkpt>
   <trkpt lat="12.9162700" lon="99.7269090">
    <ele>70.3</ele>
    <time>2018-01-27T07:40:17Z</time>
   </trkpt>
   <trkpt lat="12.9162580" lon="99.7268790">
    <ele>70.5</ele>
    <time>2018-01-27T07:40:18Z</time>
   </trkpt>
   <trkpt lat="12.9162430" lon="99.7268520">
    <ele>70.7</ele>
    <time>2018-01-27T07:40:19Z</time>
   </trkpt>
   <trkpt lat="12.9162310" lon="99.7268250">
    <ele>70.8</ele>
    <time>2018-01-27T07:40:20Z</time>
   </trkpt>
   <trkpt lat="12.9162210" lon="99.7267970">
    <ele>70.9</ele>
    <time>2018-01-27T07:40:21Z</time>
   </trkpt>
   <trkpt lat="12.9162090" lon="99.7267690">
    <ele>71.0</ele>
    <time>2018-01-27T07:40:22Z</time>
   </trkpt>
   <trkpt lat="12.9161890" lon="99.7267390">
    <ele>71.1</ele>
    <time>2018-01-27T07:40:24Z</time>
   </trkpt>
   <trkpt lat="12.9161690" lon="99.7267160">
    <ele>71.1</ele>
    <time>2018-01-27T07:40:25Z</time>
   </trkpt>
   <trkpt lat="12.9161380" lon="99.7266770">
    <ele>71.1</ele>
    <time>2018-01-27T07:40:27Z</time>
   </trkpt>
   <trkpt lat="12.9161160" lon="99.7266430">
    <ele>70.9</ele>
    <time>2018-01-27T07:40:29Z</time>
   </trkpt>
   <trkpt lat="12.9160970" lon="99.7266120">
    <ele>70.7</ele>
    <time>2018-01-27T07:40:31Z</time>
   </trkpt>
   <trkpt lat="12.9160730" lon="99.7265690">
    <ele>70.7</ele>
    <time>2018-01-27T07:40:33Z</time>
   </trkpt>
   <trkpt lat="12.9160630" lon="99.7265430">
    <ele>70.7</ele>
    <time>2018-01-27T07:40:34Z</time>
   </trkpt>
   <trkpt lat="12.9160550" lon="99.7265160">
    <ele>70.8</ele>
    <time>2018-01-27T07:40:35Z</time>
   </trkpt>
   <trkpt lat="12.9160410" lon="99.7264640">
    <ele>71.1</ele>
    <time>2018-01-27T07:40:37Z</time>
   </trkpt>
   <trkpt lat="12.9160260" lon="99.7264390">
    <ele>71.2</ele>
    <time>2018-01-27T07:40:38Z</time>
   </trkpt>
   <trkpt lat="12.9160090" lon="99.7264140">
    <ele>71.3</ele>
    <time>2018-01-27T07:40:39Z</time>
   </trkpt>
   <trkpt lat="12.9159970" lon="99.7263880">
    <ele>71.4</ele>
    <time>2018-01-27T07:40:40Z</time>
   </trkpt>
   <trkpt lat="12.9159890" lon="99.7263420">
    <ele>71.4</ele>
    <time>2018-01-27T07:40:42Z</time>
   </trkpt>
   <trkpt lat="12.9159780" lon="99.7262950">
    <ele>71.3</ele>
    <time>2018-01-27T07:40:44Z</time>
   </trkpt>
   <trkpt lat="12.9159550" lon="99.7262530">
    <ele>71.3</ele>
    <time>2018-01-27T07:40:46Z</time>
   </trkpt>
   <trkpt lat="12.9159250" lon="99.7262130">
    <ele>71.6</ele>
    <time>2018-01-27T07:40:48Z</time>
   </trkpt>
   <trkpt lat="12.9159100" lon="99.7261880">
    <ele>71.7</ele>
    <time>2018-01-27T07:40:49Z</time>
   </trkpt>
   <trkpt lat="12.9158980" lon="99.7261620">
    <ele>71.9</ele>
    <time>2018-01-27T07:40:50Z</time>
   </trkpt>
   <trkpt lat="12.9158880" lon="99.7261350">
    <ele>72.2</ele>
    <time>2018-01-27T07:40:51Z</time>
   </trkpt>
   <trkpt lat="12.9158830" lon="99.7261070">
    <ele>72.4</ele>
    <time>2018-01-27T07:40:52Z</time>
   </trkpt>
   <trkpt lat="12.9158800" lon="99.7260780">
    <ele>72.6</ele>
    <time>2018-01-27T07:40:53Z</time>
   </trkpt>
   <trkpt lat="12.9158720" lon="99.7260480">
    <ele>72.7</ele>
    <time>2018-01-27T07:40:54Z</time>
   </trkpt>
   <trkpt lat="12.9158550" lon="99.7260000">
    <ele>73.1</ele>
    <time>2018-01-27T07:40:56Z</time>
   </trkpt>
   <trkpt lat="12.9158480" lon="99.7259480">
    <ele>73.6</ele>
    <time>2018-01-27T07:40:58Z</time>
   </trkpt>
   <trkpt lat="12.9158570" lon="99.7259020">
    <ele>73.9</ele>
    <time>2018-01-27T07:41:00Z</time>
   </trkpt>
   <trkpt lat="12.9158740" lon="99.7258520">
    <ele>74.3</ele>
    <time>2018-01-27T07:41:02Z</time>
   </trkpt>
   <trkpt lat="12.9158860" lon="99.7258080">
    <ele>74.4</ele>
    <time>2018-01-27T07:41:04Z</time>
   </trkpt>
   <trkpt lat="12.9158860" lon="99.7257540">
    <ele>74.6</ele>
    <time>2018-01-27T07:41:06Z</time>
   </trkpt>
   <trkpt lat="12.9158810" lon="99.7257250">
    <ele>74.7</ele>
    <time>2018-01-27T07:41:07Z</time>
   </trkpt>
   <trkpt lat="12.9158740" lon="99.7256910">
    <ele>74.7</ele>
    <time>2018-01-27T07:41:08Z</time>
   </trkpt>
   <trkpt lat="12.9158630" lon="99.7256570">
    <ele>74.7</ele>
    <time>2018-01-27T07:41:09Z</time>
   </trkpt>
   <trkpt lat="12.9158360" lon="99.7256060">
    <ele>74.6</ele>
    <time>2018-01-27T07:41:11Z</time>
   </trkpt>
   <trkpt lat="12.9157950" lon="99.7255500">
    <ele>74.5</ele>
    <time>2018-01-27T07:41:12Z</time>
   </trkpt>
   <trkpt lat="12.9157700" lon="99.7255250">
    <ele>74.5</ele>
    <time>2018-01-27T07:41:13Z</time>
   </trkpt>
   <trkpt lat="12.9157380" lon="99.7255080">
    <ele>74.5</ele>
    <time>2018-01-27T07:41:14Z</time>
   </trkpt>
   <trkpt lat="12.9157070" lon="99.7254940">
    <ele>74.6</ele>
    <time>2018-01-27T07:41:15Z</time>
   </trkpt>
   <trkpt lat="12.9156750" lon="99.7254710">
    <ele>74.7</ele>
    <time>2018-01-27T07:41:16Z</time>
   </trkpt>
   <trkpt lat="12.9156420" lon="99.7254500">
    <ele>74.7</ele>
    <time>2018-01-27T07:41:17Z</time>
   </trkpt>
   <trkpt lat="12.9156000" lon="99.7254390">
    <ele>74.7</ele>
    <time>2018-01-27T07:41:18Z</time>
   </trkpt>
   <trkpt lat="12.9155600" lon="99.7254260">
    <ele>74.6</ele>
    <time>2018-01-27T07:41:19Z</time>
   </trkpt>
   <trkpt lat="12.9155210" lon="99.7254110">
    <ele>74.6</ele>
    <time>2018-01-27T07:41:20Z</time>
   </trkpt>
   <trkpt lat="12.9154810" lon="99.7253940">
    <ele>74.6</ele>
    <time>2018-01-27T07:41:21Z</time>
   </trkpt>
   <trkpt lat="12.9154430" lon="99.7253760">
    <ele>74.6</ele>
    <time>2018-01-27T07:41:22Z</time>
   </trkpt>
   <trkpt lat="12.9154060" lon="99.7253600">
    <ele>74.6</ele>
    <time>2018-01-27T07:41:23Z</time>
   </trkpt>
   <trkpt lat="12.9153740" lon="99.7253490">
    <ele>74.8</ele>
    <time>2018-01-27T07:41:24Z</time>
   </trkpt>
   <trkpt lat="12.9153260" lon="99.7253370">
    <ele>75.0</ele>
    <time>2018-01-27T07:41:26Z</time>
   </trkpt>
   <trkpt lat="12.9152940" lon="99.7253280">
    <ele>75.2</ele>
    <time>2018-01-27T07:41:27Z</time>
   </trkpt>
   <trkpt lat="12.9152600" lon="99.7253180">
    <ele>75.3</ele>
    <time>2018-01-27T07:41:28Z</time>
   </trkpt>
   <trkpt lat="12.9152290" lon="99.7253040">
    <ele>75.4</ele>
    <time>2018-01-27T07:41:29Z</time>
   </trkpt>
   <trkpt lat="12.9151980" lon="99.7252900">
    <ele>75.5</ele>
    <time>2018-01-27T07:41:30Z</time>
   </trkpt>
   <trkpt lat="12.9151660" lon="99.7252730">
    <ele>75.6</ele>
    <time>2018-01-27T07:41:31Z</time>
   </trkpt>
   <trkpt lat="12.9151110" lon="99.7252470">
    <ele>75.3</ele>
    <time>2018-01-27T07:41:33Z</time>
   </trkpt>
   <trkpt lat="12.9150180" lon="99.7252210">
    <ele>74.6</ele>
    <time>2018-01-27T07:41:34Z</time>
   </trkpt>
   <trkpt lat="12.9149240" lon="99.7251970">
    <ele>73.5</ele>
    <time>2018-01-27T07:41:35Z</time>
   </trkpt>
   <trkpt lat="12.9148790" lon="99.7251860">
    <ele>73.0</ele>
    <time>2018-01-27T07:41:36Z</time>
   </trkpt>
   <trkpt lat="12.9148330" lon="99.7251780">
    <ele>72.7</ele>
    <time>2018-01-27T07:41:37Z</time>
   </trkpt>
   <trkpt lat="12.9147910" lon="99.7251620">
    <ele>72.3</ele>
    <time>2018-01-27T07:41:38Z</time>
   </trkpt>
   <trkpt lat="12.9147500" lon="99.7251460">
    <ele>72.1</ele>
    <time>2018-01-27T07:41:39Z</time>
   </trkpt>
   <trkpt lat="12.9147060" lon="99.7251330">
    <ele>71.9</ele>
    <time>2018-01-27T07:41:40Z</time>
   </trkpt>
   <trkpt lat="12.9146630" lon="99.7251100">
    <ele>71.8</ele>
    <time>2018-01-27T07:41:41Z</time>
   </trkpt>
   <trkpt lat="12.9146210" lon="99.7250910">
    <ele>71.7</ele>
    <time>2018-01-27T07:41:42Z</time>
   </trkpt>
   <trkpt lat="12.9145770" lon="99.7250740">
    <ele>71.7</ele>
    <time>2018-01-27T07:41:43Z</time>
   </trkpt>
   <trkpt lat="12.9145270" lon="99.7250620">
    <ele>71.6</ele>
    <time>2018-01-27T07:41:44Z</time>
   </trkpt>
   <trkpt lat="12.9144800" lon="99.7250510">
    <ele>71.6</ele>
    <time>2018-01-27T07:41:45Z</time>
   </trkpt>
   <trkpt lat="12.9144370" lon="99.7250280">
    <ele>71.5</ele>
    <time>2018-01-27T07:41:46Z</time>
   </trkpt>
   <trkpt lat="12.9143910" lon="99.7250020">
    <ele>71.5</ele>
    <time>2018-01-27T07:41:47Z</time>
   </trkpt>
   <trkpt lat="12.9143410" lon="99.7249700">
    <ele>71.5</ele>
    <time>2018-01-27T07:41:48Z</time>
   </trkpt>
   <trkpt lat="12.9142860" lon="99.7249460">
    <ele>71.5</ele>
    <time>2018-01-27T07:41:49Z</time>
   </trkpt>
   <trkpt lat="12.9142340" lon="99.7249240">
    <ele>71.4</ele>
    <time>2018-01-27T07:41:50Z</time>
   </trkpt>
   <trkpt lat="12.9141840" lon="99.7249050">
    <ele>71.3</ele>
    <time>2018-01-27T07:41:51Z</time>
   </trkpt>
   <trkpt lat="12.9141310" lon="99.7248740">
    <ele>71.3</ele>
    <time>2018-01-27T07:41:52Z</time>
   </trkpt>
   <trkpt lat="12.9140830" lon="99.7248550">
    <ele>71.1</ele>
    <time>2018-01-27T07:41:53Z</time>
   </trkpt>
   <trkpt lat="12.9140260" lon="99.7248360">
    <ele>70.9</ele>
    <time>2018-01-27T07:41:54Z</time>
   </trkpt>
   <trkpt lat="12.9139630" lon="99.7248180">
    <ele>70.7</ele>
    <time>2018-01-27T07:41:55Z</time>
   </trkpt>
   <trkpt lat="12.9139180" lon="99.7247910">
    <ele>70.6</ele>
    <time>2018-01-27T07:41:56Z</time>
   </trkpt>
   <trkpt lat="12.9138760" lon="99.7247610">
    <ele>70.6</ele>
    <time>2018-01-27T07:41:57Z</time>
   </trkpt>
   <trkpt lat="12.9138360" lon="99.7247240">
    <ele>70.5</ele>
    <time>2018-01-27T07:41:58Z</time>
   </trkpt>
   <trkpt lat="12.9137900" lon="99.7246980">
    <ele>70.2</ele>
    <time>2018-01-27T07:41:59Z</time>
   </trkpt>
   <trkpt lat="12.9137510" lon="99.7246690">
    <ele>70.2</ele>
    <time>2018-01-27T07:42:00Z</time>
   </trkpt>
   <trkpt lat="12.9137040" lon="99.7246400">
    <ele>70.2</ele>
    <time>2018-01-27T07:42:01Z</time>
   </trkpt>
   <trkpt lat="12.9136630" lon="99.7246110">
    <ele>69.8</ele>
    <time>2018-01-27T07:42:02Z</time>
   </trkpt>
   <trkpt lat="12.9136260" lon="99.7245940">
    <ele>69.5</ele>
    <time>2018-01-27T07:42:03Z</time>
   </trkpt>
   <trkpt lat="12.9135710" lon="99.7245790">
    <ele>68.8</ele>
    <time>2018-01-27T07:42:04Z</time>
   </trkpt>
   <trkpt lat="12.9135220" lon="99.7245610">
    <ele>68.0</ele>
    <time>2018-01-27T07:42:05Z</time>
   </trkpt>
   <trkpt lat="12.9134730" lon="99.7245230">
    <ele>68.3</ele>
    <time>2018-01-27T07:42:06Z</time>
   </trkpt>
   <trkpt lat="12.9134230" lon="99.7244920">
    <ele>68.2</ele>
    <time>2018-01-27T07:42:07Z</time>
   </trkpt>
   <trkpt lat="12.9133700" lon="99.7244560">
    <ele>68.7</ele>
    <time>2018-01-27T07:42:08Z</time>
   </trkpt>
   <trkpt lat="12.9133370" lon="99.7244350">
    <ele>69.3</ele>
    <time>2018-01-27T07:42:09Z</time>
   </trkpt>
   <trkpt lat="12.9133180" lon="99.7244160">
    <ele>69.2</ele>
    <time>2018-01-27T07:42:10Z</time>
   </trkpt>
   <trkpt lat="12.9133510" lon="99.7244010">
    <ele>69.6</ele>
    <time>2018-01-27T07:42:19Z</time>
   </trkpt>
   <trkpt lat="12.9133280" lon="99.7243840">
    <ele>69.6</ele>
    <time>2018-01-27T07:42:35Z</time>
   </trkpt>
   <trkpt lat="12.9132920" lon="99.7243700">
    <ele>69.4</ele>
    <time>2018-01-27T07:42:38Z</time>
   </trkpt>
   <trkpt lat="12.9132650" lon="99.7243500">
    <ele>69.7</ele>
    <time>2018-01-27T07:42:39Z</time>
   </trkpt>
   <trkpt lat="12.9132240" lon="99.7243250">
    <ele>69.4</ele>
    <time>2018-01-27T07:42:40Z</time>
   </trkpt>
   <trkpt lat="12.9131790" lon="99.7242990">
    <ele>69.4</ele>
    <time>2018-01-27T07:42:41Z</time>
   </trkpt>
   <trkpt lat="12.9131510" lon="99.7242810">
    <ele>69.0</ele>
    <time>2018-01-27T07:42:42Z</time>
   </trkpt>
   <trkpt lat="12.9131100" lon="99.7242520">
    <ele>69.0</ele>
    <time>2018-01-27T07:42:44Z</time>
   </trkpt>
   <trkpt lat="12.9130510" lon="99.7242150">
    <ele>68.7</ele>
    <time>2018-01-27T07:42:45Z</time>
   </trkpt>
   <trkpt lat="12.9129810" lon="99.7241700">
    <ele>67.7</ele>
    <time>2018-01-27T07:42:46Z</time>
   </trkpt>
   <trkpt lat="12.9128680" lon="99.7240930">
    <ele>66.4</ele>
    <time>2018-01-27T07:42:47Z</time>
   </trkpt>
   <trkpt lat="12.9128200" lon="99.7240530">
    <ele>66.2</ele>
    <time>2018-01-27T07:42:48Z</time>
   </trkpt>
   <trkpt lat="12.9127710" lon="99.7240210">
    <ele>65.7</ele>
    <time>2018-01-27T07:42:49Z</time>
   </trkpt>
   <trkpt lat="12.9127220" lon="99.7239880">
    <ele>65.8</ele>
    <time>2018-01-27T07:42:50Z</time>
   </trkpt>
   <trkpt lat="12.9126780" lon="99.7239570">
    <ele>65.9</ele>
    <time>2018-01-27T07:42:51Z</time>
   </trkpt>
   <trkpt lat="12.9126320" lon="99.7239210">
    <ele>65.3</ele>
    <time>2018-01-27T07:42:52Z</time>
   </trkpt>
   <trkpt lat="12.9125930" lon="99.7238940">
    <ele>65.3</ele>
    <time>2018-01-27T07:42:53Z</time>
   </trkpt>
   <trkpt lat="12.9125540" lon="99.7238810">
    <ele>65.1</ele>
    <time>2018-01-27T07:42:54Z</time>
   </trkpt>
   <trkpt lat="12.9125090" lon="99.7238490">
    <ele>64.7</ele>
    <time>2018-01-27T07:42:55Z</time>
   </trkpt>
   <trkpt lat="12.9124640" lon="99.7238240">
    <ele>64.9</ele>
    <time>2018-01-27T07:42:56Z</time>
   </trkpt>
   <trkpt lat="12.9124190" lon="99.7238030">
    <ele>65.0</ele>
    <time>2018-01-27T07:42:57Z</time>
   </trkpt>
   <trkpt lat="12.9123740" lon="99.7237640">
    <ele>65.6</ele>
    <time>2018-01-27T07:43:00Z</time>
   </trkpt>
   <trkpt lat="12.9123290" lon="99.7237340">
    <ele>66.4</ele>
    <time>2018-01-27T07:43:01Z</time>
   </trkpt>
   <trkpt lat="12.9121330" lon="99.7236130">
    <ele>67.7</ele>
    <time>2018-01-27T07:43:04Z</time>
   </trkpt>
   <trkpt lat="12.9120920" lon="99.7235800">
    <ele>67.2</ele>
    <time>2018-01-27T07:43:05Z</time>
   </trkpt>
   <trkpt lat="12.9120540" lon="99.7235570">
    <ele>66.8</ele>
    <time>2018-01-27T07:43:06Z</time>
   </trkpt>
   <trkpt lat="12.9120160" lon="99.7235310">
    <ele>66.6</ele>
    <time>2018-01-27T07:43:07Z</time>
   </trkpt>
   <trkpt lat="12.9119780" lon="99.7235040">
    <ele>66.3</ele>
    <time>2018-01-27T07:43:08Z</time>
   </trkpt>
   <trkpt lat="12.9119390" lon="99.7234820">
    <ele>66.3</ele>
    <time>2018-01-27T07:43:09Z</time>
   </trkpt>
   <trkpt lat="12.9119030" lon="99.7234560">
    <ele>66.3</ele>
    <time>2018-01-27T07:43:10Z</time>
   </trkpt>
   <trkpt lat="12.9118530" lon="99.7234390">
    <ele>66.2</ele>
    <time>2018-01-27T07:43:11Z</time>
   </trkpt>
   <trkpt lat="12.9118110" lon="99.7234120">
    <ele>66.5</ele>
    <time>2018-01-27T07:43:12Z</time>
   </trkpt>
   <trkpt lat="12.9117660" lon="99.7233860">
    <ele>66.6</ele>
    <time>2018-01-27T07:43:13Z</time>
   </trkpt>
   <trkpt lat="12.9117240" lon="99.7233590">
    <ele>66.8</ele>
    <time>2018-01-27T07:43:14Z</time>
   </trkpt>
   <trkpt lat="12.9116810" lon="99.7233430">
    <ele>66.8</ele>
    <time>2018-01-27T07:43:15Z</time>
   </trkpt>
   <trkpt lat="12.9116380" lon="99.7233130">
    <ele>66.8</ele>
    <time>2018-01-27T07:43:16Z</time>
   </trkpt>
   <trkpt lat="12.9115910" lon="99.7232900">
    <ele>66.9</ele>
    <time>2018-01-27T07:43:17Z</time>
   </trkpt>
   <trkpt lat="12.9115430" lon="99.7232620">
    <ele>67.5</ele>
    <time>2018-01-27T07:43:18Z</time>
   </trkpt>
   <trkpt lat="12.9114740" lon="99.7232290">
    <ele>67.8</ele>
    <time>2018-01-27T07:43:19Z</time>
   </trkpt>
   <trkpt lat="12.9114230" lon="99.7232090">
    <ele>67.9</ele>
    <time>2018-01-27T07:43:20Z</time>
   </trkpt>
   <trkpt lat="12.9113750" lon="99.7231680">
    <ele>67.9</ele>
    <time>2018-01-27T07:43:21Z</time>
   </trkpt>
   <trkpt lat="12.9113100" lon="99.7231620">
    <ele>67.8</ele>
    <time>2018-01-27T07:43:22Z</time>
   </trkpt>
   <trkpt lat="12.9112720" lon="99.7231250">
    <ele>67.4</ele>
    <time>2018-01-27T07:43:23Z</time>
   </trkpt>
   <trkpt lat="12.9112390" lon="99.7230930">
    <ele>66.9</ele>
    <time>2018-01-27T07:43:24Z</time>
   </trkpt>
   <trkpt lat="12.9112010" lon="99.7230590">
    <ele>66.1</ele>
    <time>2018-01-27T07:43:25Z</time>
   </trkpt>
   <trkpt lat="12.9111550" lon="99.7230310">
    <ele>65.7</ele>
    <time>2018-01-27T07:43:26Z</time>
   </trkpt>
   <trkpt lat="12.9111000" lon="99.7230030">
    <ele>64.6</ele>
    <time>2018-01-27T07:43:27Z</time>
   </trkpt>
   <trkpt lat="12.9110540" lon="99.7229660">
    <ele>63.7</ele>
    <time>2018-01-27T07:43:28Z</time>
   </trkpt>
   <trkpt lat="12.9110050" lon="99.7229400">
    <ele>63.1</ele>
    <time>2018-01-27T07:43:29Z</time>
   </trkpt>
   <trkpt lat="12.9109650" lon="99.7229180">
    <ele>62.9</ele>
    <time>2018-01-27T07:43:30Z</time>
   </trkpt>
   <trkpt lat="12.9109290" lon="99.7228960">
    <ele>62.3</ele>
    <time>2018-01-27T07:43:31Z</time>
   </trkpt>
   <trkpt lat="12.9108890" lon="99.7228760">
    <ele>62.0</ele>
    <time>2018-01-27T07:43:32Z</time>
   </trkpt>
   <trkpt lat="12.9108330" lon="99.7228490">
    <ele>61.1</ele>
    <time>2018-01-27T07:43:33Z</time>
   </trkpt>
   <trkpt lat="12.9107970" lon="99.7228070">
    <ele>60.9</ele>
    <time>2018-01-27T07:43:34Z</time>
   </trkpt>
   <trkpt lat="12.9107600" lon="99.7227650">
    <ele>60.6</ele>
    <time>2018-01-27T07:43:35Z</time>
   </trkpt>
   <trkpt lat="12.9107080" lon="99.7227340">
    <ele>60.3</ele>
    <time>2018-01-27T07:43:36Z</time>
   </trkpt>
   <trkpt lat="12.9106650" lon="99.7227090">
    <ele>59.8</ele>
    <time>2018-01-27T07:43:37Z</time>
   </trkpt>
   <trkpt lat="12.9106220" lon="99.7226870">
    <ele>59.4</ele>
    <time>2018-01-27T07:43:38Z</time>
   </trkpt>
   <trkpt lat="12.9105770" lon="99.7226560">
    <ele>59.2</ele>
    <time>2018-01-27T07:43:39Z</time>
   </trkpt>
   <trkpt lat="12.9105040" lon="99.7226380">
    <ele>58.8</ele>
    <time>2018-01-27T07:43:40Z</time>
   </trkpt>
   <trkpt lat="12.9104610" lon="99.7226170">
    <ele>58.5</ele>
    <time>2018-01-27T07:43:41Z</time>
   </trkpt>
   <trkpt lat="12.9104140" lon="99.7225950">
    <ele>58.0</ele>
    <time>2018-01-27T07:43:42Z</time>
   </trkpt>
   <trkpt lat="12.9103540" lon="99.7225750">
    <ele>58.0</ele>
    <time>2018-01-27T07:43:43Z</time>
   </trkpt>
   <trkpt lat="12.9103020" lon="99.7225500">
    <ele>58.1</ele>
    <time>2018-01-27T07:43:44Z</time>
   </trkpt>
   <trkpt lat="12.9102510" lon="99.7225170">
    <ele>58.1</ele>
    <time>2018-01-27T07:43:45Z</time>
   </trkpt>
   <trkpt lat="12.9102050" lon="99.7224970">
    <ele>58.1</ele>
    <time>2018-01-27T07:43:46Z</time>
   </trkpt>
   <trkpt lat="12.9101520" lon="99.7224720">
    <ele>58.1</ele>
    <time>2018-01-27T07:43:47Z</time>
   </trkpt>
   <trkpt lat="12.9101080" lon="99.7224470">
    <ele>58.0</ele>
    <time>2018-01-27T07:43:48Z</time>
   </trkpt>
   <trkpt lat="12.9100780" lon="99.7224400">
    <ele>58.2</ele>
    <time>2018-01-27T07:43:49Z</time>
   </trkpt>
   <trkpt lat="12.9100370" lon="99.7224580">
    <ele>58.4</ele>
    <time>2018-01-27T07:43:50Z</time>
   </trkpt>
   <trkpt lat="12.9100280" lon="99.7224010">
    <ele>58.4</ele>
    <time>2018-01-27T07:43:53Z</time>
   </trkpt>
   <trkpt lat="12.9100430" lon="99.7223430">
    <ele>58.2</ele>
    <time>2018-01-27T07:43:55Z</time>
   </trkpt>
   <trkpt lat="12.9100500" lon="99.7223080">
    <ele>58.1</ele>
    <time>2018-01-27T07:43:56Z</time>
   </trkpt>
   <trkpt lat="12.9100610" lon="99.7222690">
    <ele>58.1</ele>
    <time>2018-01-27T07:43:57Z</time>
   </trkpt>
   <trkpt lat="12.9100700" lon="99.7222350">
    <ele>58.2</ele>
    <time>2018-01-27T07:43:58Z</time>
   </trkpt>
   <trkpt lat="12.9100780" lon="99.7222070">
    <ele>58.2</ele>
    <time>2018-01-27T07:43:59Z</time>
   </trkpt>
   <trkpt lat="12.9100950" lon="99.7221480">
    <ele>58.3</ele>
    <time>2018-01-27T07:44:01Z</time>
   </trkpt>
   <trkpt lat="12.9101020" lon="99.7221110">
    <ele>58.5</ele>
    <time>2018-01-27T07:44:02Z</time>
   </trkpt>
   <trkpt lat="12.9101070" lon="99.7220750">
    <ele>58.7</ele>
    <time>2018-01-27T07:44:03Z</time>
   </trkpt>
   <trkpt lat="12.9101100" lon="99.7220410">
    <ele>59.0</ele>
    <time>2018-01-27T07:44:04Z</time>
   </trkpt>
   <trkpt lat="12.9101190" lon="99.7219890">
    <ele>59.3</ele>
    <time>2018-01-27T07:44:06Z</time>
   </trkpt>
   <trkpt lat="12.9101250" lon="99.7219560">
    <ele>59.5</ele>
    <time>2018-01-27T07:44:07Z</time>
   </trkpt>
   <trkpt lat="12.9101290" lon="99.7219160">
    <ele>59.8</ele>
    <time>2018-01-27T07:44:08Z</time>
   </trkpt>
   <trkpt lat="12.9101330" lon="99.7218800">
    <ele>60.0</ele>
    <time>2018-01-27T07:44:09Z</time>
   </trkpt>
   <trkpt lat="12.9101350" lon="99.7218480">
    <ele>60.2</ele>
    <time>2018-01-27T07:44:10Z</time>
   </trkpt>
   <trkpt lat="12.9101470" lon="99.7217670">
    <ele>60.6</ele>
    <time>2018-01-27T07:44:11Z</time>
   </trkpt>
   <trkpt lat="12.9101460" lon="99.7217330">
    <ele>60.7</ele>
    <time>2018-01-27T07:44:12Z</time>
   </trkpt>
   <trkpt lat="12.9101450" lon="99.7216980">
    <ele>60.9</ele>
    <time>2018-01-27T07:44:13Z</time>
   </trkpt>
   <trkpt lat="12.9101430" lon="99.7216630">
    <ele>61.1</ele>
    <time>2018-01-27T07:44:14Z</time>
   </trkpt>
   <trkpt lat="12.9101370" lon="99.7216280">
    <ele>61.3</ele>
    <time>2018-01-27T07:44:15Z</time>
   </trkpt>
   <trkpt lat="12.9101360" lon="99.7215920">
    <ele>61.7</ele>
    <time>2018-01-27T07:44:16Z</time>
   </trkpt>
   <trkpt lat="12.9101330" lon="99.7215640">
    <ele>62.0</ele>
    <time>2018-01-27T07:44:17Z</time>
   </trkpt>
   <trkpt lat="12.9101300" lon="99.7215350">
    <ele>62.4</ele>
    <time>2018-01-27T07:44:18Z</time>
   </trkpt>
   <trkpt lat="12.9101250" lon="99.7215060">
    <ele>62.7</ele>
    <time>2018-01-27T07:44:19Z</time>
   </trkpt>
   <trkpt lat="12.9101150" lon="99.7214540">
    <ele>63.2</ele>
    <time>2018-01-27T07:44:21Z</time>
   </trkpt>
   <trkpt lat="12.9101070" lon="99.7214030">
    <ele>63.2</ele>
    <time>2018-01-27T07:44:23Z</time>
   </trkpt>
   <trkpt lat="12.9101020" lon="99.7213740">
    <ele>63.1</ele>
    <time>2018-01-27T07:44:24Z</time>
   </trkpt>
   <trkpt lat="12.9100980" lon="99.7213440">
    <ele>62.9</ele>
    <time>2018-01-27T07:44:25Z</time>
   </trkpt>
   <trkpt lat="12.9100940" lon="99.7213100">
    <ele>62.7</ele>
    <time>2018-01-27T07:44:26Z</time>
   </trkpt>
   <trkpt lat="12.9100880" lon="99.7212740">
    <ele>62.5</ele>
    <time>2018-01-27T07:44:27Z</time>
   </trkpt>
   <trkpt lat="12.9100810" lon="99.7212140">
    <ele>62.2</ele>
    <time>2018-01-27T07:44:29Z</time>
   </trkpt>
   <trkpt lat="12.9100750" lon="99.7211710">
    <ele>62.1</ele>
    <time>2018-01-27T07:44:30Z</time>
   </trkpt>
   <trkpt lat="12.9100660" lon="99.7211300">
    <ele>61.9</ele>
    <time>2018-01-27T07:44:31Z</time>
   </trkpt>
   <trkpt lat="12.9100570" lon="99.7210900">
    <ele>61.6</ele>
    <time>2018-01-27T07:44:32Z</time>
   </trkpt>
   <trkpt lat="12.9100470" lon="99.7210510">
    <ele>61.3</ele>
    <time>2018-01-27T07:44:33Z</time>
   </trkpt>
   <trkpt lat="12.9100390" lon="99.7210120">
    <ele>60.9</ele>
    <time>2018-01-27T07:44:34Z</time>
   </trkpt>
   <trkpt lat="12.9100320" lon="99.7209680">
    <ele>60.5</ele>
    <time>2018-01-27T07:44:35Z</time>
   </trkpt>
   <trkpt lat="12.9100270" lon="99.7209250">
    <ele>60.2</ele>
    <time>2018-01-27T07:44:36Z</time>
   </trkpt>
   <trkpt lat="12.9100210" lon="99.7208800">
    <ele>59.8</ele>
    <time>2018-01-27T07:44:37Z</time>
   </trkpt>
   <trkpt lat="12.9100150" lon="99.7208350">
    <ele>59.7</ele>
    <time>2018-01-27T07:44:38Z</time>
   </trkpt>
   <trkpt lat="12.9100080" lon="99.7207920">
    <ele>59.5</ele>
    <time>2018-01-27T07:44:39Z</time>
   </trkpt>
   <trkpt lat="12.9100030" lon="99.7207520">
    <ele>59.7</ele>
    <time>2018-01-27T07:44:40Z</time>
   </trkpt>
   <trkpt lat="12.9099970" lon="99.7207130">
    <ele>59.8</ele>
    <time>2018-01-27T07:44:41Z</time>
   </trkpt>
   <trkpt lat="12.9099900" lon="99.7206730">
    <ele>60.1</ele>
    <time>2018-01-27T07:44:42Z</time>
   </trkpt>
   <trkpt lat="12.9099850" lon="99.7206290">
    <ele>60.4</ele>
    <time>2018-01-27T07:44:43Z</time>
   </trkpt>
   <trkpt lat="12.9099800" lon="99.7205870">
    <ele>60.7</ele>
    <time>2018-01-27T07:44:44Z</time>
   </trkpt>
   <trkpt lat="12.9099760" lon="99.7205440">
    <ele>61.0</ele>
    <time>2018-01-27T07:44:45Z</time>
   </trkpt>
   <trkpt lat="12.9099700" lon="99.7205020">
    <ele>61.2</ele>
    <time>2018-01-27T07:44:46Z</time>
   </trkpt>
   <trkpt lat="12.9099650" lon="99.7204650">
    <ele>61.4</ele>
    <time>2018-01-27T07:44:47Z</time>
   </trkpt>
   <trkpt lat="12.9099590" lon="99.7204290">
    <ele>61.6</ele>
    <time>2018-01-27T07:44:48Z</time>
   </trkpt>
   <trkpt lat="12.9099560" lon="99.7203910">
    <ele>61.8</ele>
    <time>2018-01-27T07:44:49Z</time>
   </trkpt>
   <trkpt lat="12.9099540" lon="99.7203520">
    <ele>62.0</ele>
    <time>2018-01-27T07:44:50Z</time>
   </trkpt>
   <trkpt lat="12.9099470" lon="99.7203170">
    <ele>62.2</ele>
    <time>2018-01-27T07:44:51Z</time>
   </trkpt>
   <trkpt lat="12.9099400" lon="99.7202790">
    <ele>62.4</ele>
    <time>2018-01-27T07:44:52Z</time>
   </trkpt>
   <trkpt lat="12.9099340" lon="99.7202410">
    <ele>62.5</ele>
    <time>2018-01-27T07:44:53Z</time>
   </trkpt>
   <trkpt lat="12.9099270" lon="99.7202010">
    <ele>62.6</ele>
    <time>2018-01-27T07:44:54Z</time>
   </trkpt>
   <trkpt lat="12.9099200" lon="99.7201620">
    <ele>62.7</ele>
    <time>2018-01-27T07:44:55Z</time>
   </trkpt>
   <trkpt lat="12.9099140" lon="99.7201220">
    <ele>62.7</ele>
    <time>2018-01-27T07:44:56Z</time>
   </trkpt>
   <trkpt lat="12.9099090" lon="99.7200830">
    <ele>62.7</ele>
    <time>2018-01-27T07:44:57Z</time>
   </trkpt>
   <trkpt lat="12.9099020" lon="99.7200310">
    <ele>62.6</ele>
    <time>2018-01-27T07:44:59Z</time>
   </trkpt>
   <trkpt lat="12.9098970" lon="99.7199990">
    <ele>62.6</ele>
    <time>2018-01-27T07:45:00Z</time>
   </trkpt>
   <trkpt lat="12.9098940" lon="99.7199720">
    <ele>62.6</ele>
    <time>2018-01-27T07:45:01Z</time>
   </trkpt>
   <trkpt lat="12.9098910" lon="99.7199420">
    <ele>62.5</ele>
    <time>2018-01-27T07:45:02Z</time>
   </trkpt>
   <trkpt lat="12.9098890" lon="99.7199130">
    <ele>62.4</ele>
    <time>2018-01-27T07:45:03Z</time>
   </trkpt>
   <trkpt lat="12.9098860" lon="99.7198830">
    <ele>62.3</ele>
    <time>2018-01-27T07:45:04Z</time>
   </trkpt>
   <trkpt lat="12.9098840" lon="99.7198530">
    <ele>62.2</ele>
    <time>2018-01-27T07:45:05Z</time>
   </trkpt>
   <trkpt lat="12.9098830" lon="99.7198170">
    <ele>62.2</ele>
    <time>2018-01-27T07:45:06Z</time>
   </trkpt>
   <trkpt lat="12.9098810" lon="99.7197730">
    <ele>62.1</ele>
    <time>2018-01-27T07:45:07Z</time>
   </trkpt>
   <trkpt lat="12.9098780" lon="99.7197290">
    <ele>62.2</ele>
    <time>2018-01-27T07:45:08Z</time>
   </trkpt>
   <trkpt lat="12.9098720" lon="99.7196800">
    <ele>62.3</ele>
    <time>2018-01-27T07:45:09Z</time>
   </trkpt>
   <trkpt lat="12.9098640" lon="99.7196280">
    <ele>62.4</ele>
    <time>2018-01-27T07:45:10Z</time>
   </trkpt>
   <trkpt lat="12.9098550" lon="99.7195720">
    <ele>62.7</ele>
    <time>2018-01-27T07:45:11Z</time>
   </trkpt>
   <trkpt lat="12.9098470" lon="99.7195130">
    <ele>63.1</ele>
    <time>2018-01-27T07:45:12Z</time>
   </trkpt>
   <trkpt lat="12.9098360" lon="99.7194580">
    <ele>63.4</ele>
    <time>2018-01-27T07:45:13Z</time>
   </trkpt>
   <trkpt lat="12.9098240" lon="99.7194030">
    <ele>63.8</ele>
    <time>2018-01-27T07:45:14Z</time>
   </trkpt>
   <trkpt lat="12.9098130" lon="99.7193440">
    <ele>63.9</ele>
    <time>2018-01-27T07:45:15Z</time>
   </trkpt>
   <trkpt lat="12.9098040" lon="99.7192860">
    <ele>64.0</ele>
    <time>2018-01-27T07:45:16Z</time>
   </trkpt>
   <trkpt lat="12.9097960" lon="99.7192270">
    <ele>64.0</ele>
    <time>2018-01-27T07:45:17Z</time>
   </trkpt>
   <trkpt lat="12.9097890" lon="99.7191680">
    <ele>63.9</ele>
    <time>2018-01-27T07:45:18Z</time>
   </trkpt>
   <trkpt lat="12.9097830" lon="99.7191100">
    <ele>63.8</ele>
    <time>2018-01-27T07:45:19Z</time>
   </trkpt>
   <trkpt lat="12.9097760" lon="99.7190510">
    <ele>63.3</ele>
    <time>2018-01-27T07:45:20Z</time>
   </trkpt>
   <trkpt lat="12.9097690" lon="99.7189960">
    <ele>62.9</ele>
    <time>2018-01-27T07:45:21Z</time>
   </trkpt>
   <trkpt lat="12.9097620" lon="99.7189400">
    <ele>62.4</ele>
    <time>2018-01-27T07:45:22Z</time>
   </trkpt>
   <trkpt lat="12.9097570" lon="99.7188870">
    <ele>62.2</ele>
    <time>2018-01-27T07:45:23Z</time>
   </trkpt>
   <trkpt lat="12.9097530" lon="99.7188340">
    <ele>62.0</ele>
    <time>2018-01-27T07:45:24Z</time>
   </trkpt>
   <trkpt lat="12.9097420" lon="99.7187740">
    <ele>62.1</ele>
    <time>2018-01-27T07:45:25Z</time>
   </trkpt>
   <trkpt lat="12.9097310" lon="99.7187130">
    <ele>62.2</ele>
    <time>2018-01-27T07:45:26Z</time>
   </trkpt>
   <trkpt lat="12.9097150" lon="99.7186560">
    <ele>62.4</ele>
    <time>2018-01-27T07:45:27Z</time>
   </trkpt>
   <trkpt lat="12.9097050" lon="99.7185980">
    <ele>62.5</ele>
    <time>2018-01-27T07:45:28Z</time>
   </trkpt>
   <trkpt lat="12.9096940" lon="99.7185370">
    <ele>62.6</ele>
    <time>2018-01-27T07:45:29Z</time>
   </trkpt>
   <trkpt lat="12.9096920" lon="99.7184750">
    <ele>62.6</ele>
    <time>2018-01-27T07:45:30Z</time>
   </trkpt>
   <trkpt lat="12.9096820" lon="99.7184170">
    <ele>62.4</ele>
    <time>2018-01-27T07:45:31Z</time>
   </trkpt>
   <trkpt lat="12.9096750" lon="99.7183570">
    <ele>62.2</ele>
    <time>2018-01-27T07:45:32Z</time>
   </trkpt>
   <trkpt lat="12.9096700" lon="99.7182930">
    <ele>62.1</ele>
    <time>2018-01-27T07:45:33Z</time>
   </trkpt>
   <trkpt lat="12.9096640" lon="99.7182320">
    <ele>62.1</ele>
    <time>2018-01-27T07:45:34Z</time>
   </trkpt>
   <trkpt lat="12.9096520" lon="99.7181700">
    <ele>62.2</ele>
    <time>2018-01-27T07:45:35Z</time>
   </trkpt>
   <trkpt lat="12.9096460" lon="99.7181100">
    <ele>62.2</ele>
    <time>2018-01-27T07:45:36Z</time>
   </trkpt>
   <trkpt lat="12.9096460" lon="99.7180490">
    <ele>62.3</ele>
    <time>2018-01-27T07:45:37Z</time>
   </trkpt>
   <trkpt lat="12.9096420" lon="99.7179800">
    <ele>62.3</ele>
    <time>2018-01-27T07:45:38Z</time>
   </trkpt>
   <trkpt lat="12.9096330" lon="99.7179120">
    <ele>62.3</ele>
    <time>2018-01-27T07:45:39Z</time>
   </trkpt>
   <trkpt lat="12.9096040" lon="99.7178470">
    <ele>62.3</ele>
    <time>2018-01-27T07:45:40Z</time>
   </trkpt>
   <trkpt lat="12.9095760" lon="99.7177760">
    <ele>62.3</ele>
    <time>2018-01-27T07:45:41Z</time>
   </trkpt>
   <trkpt lat="12.9095680" lon="99.7177080">
    <ele>62.2</ele>
    <time>2018-01-27T07:45:42Z</time>
   </trkpt>
   <trkpt lat="12.9095550" lon="99.7176340">
    <ele>62.1</ele>
    <time>2018-01-27T07:45:43Z</time>
   </trkpt>
   <trkpt lat="12.9095420" lon="99.7175670">
    <ele>62.0</ele>
    <time>2018-01-27T07:45:44Z</time>
   </trkpt>
   <trkpt lat="12.9095200" lon="99.7174890">
    <ele>61.5</ele>
    <time>2018-01-27T07:45:45Z</time>
   </trkpt>
   <trkpt lat="12.9095090" lon="99.7174170">
    <ele>61.2</ele>
    <time>2018-01-27T07:45:46Z</time>
   </trkpt>
   <trkpt lat="12.9095130" lon="99.7173550">
    <ele>61.1</ele>
    <time>2018-01-27T07:45:47Z</time>
   </trkpt>
   <trkpt lat="12.9095200" lon="99.7172920">
    <ele>61.0</ele>
    <time>2018-01-27T07:45:48Z</time>
   </trkpt>
   <trkpt lat="12.9095290" lon="99.7172220">
    <ele>60.8</ele>
    <time>2018-01-27T07:45:49Z</time>
   </trkpt>
   <trkpt lat="12.9095140" lon="99.7171590">
    <ele>60.7</ele>
    <time>2018-01-27T07:45:50Z</time>
   </trkpt>
   <trkpt lat="12.9095110" lon="99.7170990">
    <ele>60.6</ele>
    <time>2018-01-27T07:45:51Z</time>
   </trkpt>
   <trkpt lat="12.9095330" lon="99.7170460">
    <ele>60.4</ele>
    <time>2018-01-27T07:45:52Z</time>
   </trkpt>
   <trkpt lat="12.9095580" lon="99.7170190">
    <ele>60.3</ele>
    <time>2018-01-27T07:45:53Z</time>
   </trkpt>
   <trkpt lat="12.9095940" lon="99.7169770">
    <ele>60.0</ele>
    <time>2018-01-27T07:45:54Z</time>
   </trkpt>
   <trkpt lat="12.9096020" lon="99.7169460">
    <ele>59.8</ele>
    <time>2018-01-27T07:45:55Z</time>
   </trkpt>
   <trkpt lat="12.9096060" lon="99.7169140">
    <ele>59.6</ele>
    <time>2018-01-27T07:45:56Z</time>
   </trkpt>
   <trkpt lat="12.9095850" lon="99.7168800">
    <ele>59.3</ele>
    <time>2018-01-27T07:45:57Z</time>
   </trkpt>
   <trkpt lat="12.9095690" lon="99.7168410">
    <ele>59.0</ele>
    <time>2018-01-27T07:45:58Z</time>
   </trkpt>
   <trkpt lat="12.9095570" lon="99.7168010">
    <ele>58.8</ele>
    <time>2018-01-27T07:45:59Z</time>
   </trkpt>
   <trkpt lat="12.9095480" lon="99.7167610">
    <ele>58.8</ele>
    <time>2018-01-27T07:46:00Z</time>
   </trkpt>
   <trkpt lat="12.9095370" lon="99.7167230">
    <ele>58.8</ele>
    <time>2018-01-27T07:46:01Z</time>
   </trkpt>
   <trkpt lat="12.9095200" lon="99.7166860">
    <ele>58.8</ele>
    <time>2018-01-27T07:46:02Z</time>
   </trkpt>
   <trkpt lat="12.9094980" lon="99.7166510">
    <ele>58.9</ele>
    <time>2018-01-27T07:46:03Z</time>
   </trkpt>
   <trkpt lat="12.9094750" lon="99.7166210">
    <ele>58.9</ele>
    <time>2018-01-27T07:46:04Z</time>
   </trkpt>
   <trkpt lat="12.9094510" lon="99.7165930">
    <ele>59.1</ele>
    <time>2018-01-27T07:46:05Z</time>
   </trkpt>
   <trkpt lat="12.9094290" lon="99.7165660">
    <ele>59.2</ele>
    <time>2018-01-27T07:46:06Z</time>
   </trkpt>
   <trkpt lat="12.9094110" lon="99.7165400">
    <ele>59.4</ele>
    <time>2018-01-27T07:46:07Z</time>
   </trkpt>
   <trkpt lat="12.9093960" lon="99.7165080">
    <ele>59.5</ele>
    <time>2018-01-27T07:46:08Z</time>
   </trkpt>
   <trkpt lat="12.9093860" lon="99.7164690">
    <ele>59.8</ele>
    <time>2018-01-27T07:46:09Z</time>
   </trkpt>
   <trkpt lat="12.9093770" lon="99.7164300">
    <ele>60.2</ele>
    <time>2018-01-27T07:46:10Z</time>
   </trkpt>
   <trkpt lat="12.9093670" lon="99.7163920">
    <ele>60.6</ele>
    <time>2018-01-27T07:46:11Z</time>
   </trkpt>
   <trkpt lat="12.9093570" lon="99.7163550">
    <ele>61.0</ele>
    <time>2018-01-27T07:46:12Z</time>
   </trkpt>
   <trkpt lat="12.9093480" lon="99.7163170">
    <ele>61.4</ele>
    <time>2018-01-27T07:46:13Z</time>
   </trkpt>
   <trkpt lat="12.9093430" lon="99.7162770">
    <ele>61.8</ele>
    <time>2018-01-27T07:46:14Z</time>
   </trkpt>
   <trkpt lat="12.9093300" lon="99.7162320">
    <ele>62.2</ele>
    <time>2018-01-27T07:46:15Z</time>
   </trkpt>
   <trkpt lat="12.9093180" lon="99.7161880">
    <ele>62.4</ele>
    <time>2018-01-27T07:46:16Z</time>
   </trkpt>
   <trkpt lat="12.9093060" lon="99.7161470">
    <ele>62.9</ele>
    <time>2018-01-27T07:46:17Z</time>
   </trkpt>
   <trkpt lat="12.9092960" lon="99.7161080">
    <ele>63.2</ele>
    <time>2018-01-27T07:46:18Z</time>
   </trkpt>
   <trkpt lat="12.9092870" lon="99.7160660">
    <ele>63.5</ele>
    <time>2018-01-27T07:46:19Z</time>
   </trkpt>
   <trkpt lat="12.9092820" lon="99.7160310">
    <ele>63.6</ele>
    <time>2018-01-27T07:46:20Z</time>
   </trkpt>
   <trkpt lat="12.9092790" lon="99.7159960">
    <ele>63.6</ele>
    <time>2018-01-27T07:46:21Z</time>
   </trkpt>
   <trkpt lat="12.9092810" lon="99.7159570">
    <ele>63.8</ele>
    <time>2018-01-27T07:46:22Z</time>
   </trkpt>
   <trkpt lat="12.9092850" lon="99.7159230">
    <ele>63.9</ele>
    <time>2018-01-27T07:46:23Z</time>
   </trkpt>
   <trkpt lat="12.9092900" lon="99.7158920">
    <ele>63.9</ele>
    <time>2018-01-27T07:46:24Z</time>
   </trkpt>
   <trkpt lat="12.9092920" lon="99.7158150">
    <ele>63.8</ele>
    <time>2018-01-27T07:46:25Z</time>
   </trkpt>
   <trkpt lat="12.9092820" lon="99.7157770">
    <ele>63.9</ele>
    <time>2018-01-27T07:46:26Z</time>
   </trkpt>
   <trkpt lat="12.9092740" lon="99.7157450">
    <ele>63.7</ele>
    <time>2018-01-27T07:46:27Z</time>
   </trkpt>
   <trkpt lat="12.9092670" lon="99.7157110">
    <ele>63.4</ele>
    <time>2018-01-27T07:46:28Z</time>
   </trkpt>
   <trkpt lat="12.9092760" lon="99.7156800">
    <ele>63.1</ele>
    <time>2018-01-27T07:46:29Z</time>
   </trkpt>
   <trkpt lat="12.9092950" lon="99.7156490">
    <ele>62.8</ele>
    <time>2018-01-27T07:46:30Z</time>
   </trkpt>
   <trkpt lat="12.9093220" lon="99.7156250">
    <ele>62.5</ele>
    <time>2018-01-27T07:46:31Z</time>
   </trkpt>
   <trkpt lat="12.9093520" lon="99.7156010">
    <ele>62.0</ele>
    <time>2018-01-27T07:46:32Z</time>
   </trkpt>
   <trkpt lat="12.9093820" lon="99.7155750">
    <ele>61.7</ele>
    <time>2018-01-27T07:46:33Z</time>
   </trkpt>
   <trkpt lat="12.9094130" lon="99.7155520">
    <ele>61.7</ele>
    <time>2018-01-27T07:46:34Z</time>
   </trkpt>
   <trkpt lat="12.9094430" lon="99.7155390">
    <ele>61.7</ele>
    <time>2018-01-27T07:46:35Z</time>
   </trkpt>
   <trkpt lat="12.9094720" lon="99.7155200">
    <ele>61.7</ele>
    <time>2018-01-27T07:46:36Z</time>
   </trkpt>
   <trkpt lat="12.9095040" lon="99.7154940">
    <ele>61.8</ele>
    <time>2018-01-27T07:46:37Z</time>
   </trkpt>
   <trkpt lat="12.9095450" lon="99.7154700">
    <ele>61.9</ele>
    <time>2018-01-27T07:46:38Z</time>
   </trkpt>
   <trkpt lat="12.9095710" lon="99.7154550">
    <ele>62.1</ele>
    <time>2018-01-27T07:46:39Z</time>
   </trkpt>
   <trkpt lat="12.9095970" lon="99.7154360">
    <ele>62.3</ele>
    <time>2018-01-27T07:46:40Z</time>
   </trkpt>
   <trkpt lat="12.9096310" lon="99.7154090">
    <ele>62.5</ele>
    <time>2018-01-27T07:46:41Z</time>
   </trkpt>
   <trkpt lat="12.9096610" lon="99.7153830">
    <ele>62.7</ele>
    <time>2018-01-27T07:46:42Z</time>
   </trkpt>
   <trkpt lat="12.9096920" lon="99.7153540">
    <ele>62.9</ele>
    <time>2018-01-27T07:46:43Z</time>
   </trkpt>
   <trkpt lat="12.9097260" lon="99.7153230">
    <ele>63.3</ele>
    <time>2018-01-27T07:46:44Z</time>
   </trkpt>
   <trkpt lat="12.9097600" lon="99.7152920">
    <ele>63.5</ele>
    <time>2018-01-27T07:46:45Z</time>
   </trkpt>
   <trkpt lat="12.9097980" lon="99.7152590">
    <ele>63.3</ele>
    <time>2018-01-27T07:46:46Z</time>
   </trkpt>
   <trkpt lat="12.9098380" lon="99.7152220">
    <ele>63.4</ele>
    <time>2018-01-27T07:46:47Z</time>
   </trkpt>
   <trkpt lat="12.9098700" lon="99.7151790">
    <ele>63.6</ele>
    <time>2018-01-27T07:46:48Z</time>
   </trkpt>
   <trkpt lat="12.9098990" lon="99.7151240">
    <ele>63.6</ele>
    <time>2018-01-27T07:46:49Z</time>
   </trkpt>
   <trkpt lat="12.9099200" lon="99.7150700">
    <ele>63.7</ele>
    <time>2018-01-27T07:46:50Z</time>
   </trkpt>
   <trkpt lat="12.9099380" lon="99.7150170">
    <ele>64.0</ele>
    <time>2018-01-27T07:46:51Z</time>
   </trkpt>
   <trkpt lat="12.9099540" lon="99.7149680">
    <ele>64.3</ele>
    <time>2018-01-27T07:46:52Z</time>
   </trkpt>
   <trkpt lat="12.9099730" lon="99.7149200">
    <ele>64.4</ele>
    <time>2018-01-27T07:46:53Z</time>
   </trkpt>
   <trkpt lat="12.9100020" lon="99.7148710">
    <ele>64.4</ele>
    <time>2018-01-27T07:46:54Z</time>
   </trkpt>
   <trkpt lat="12.9100300" lon="99.7148170">
    <ele>63.9</ele>
    <time>2018-01-27T07:46:55Z</time>
   </trkpt>
   <trkpt lat="12.9100560" lon="99.7147860">
    <ele>63.6</ele>
    <time>2018-01-27T07:46:56Z</time>
   </trkpt>
   <trkpt lat="12.9100890" lon="99.7147580">
    <ele>63.3</ele>
    <time>2018-01-27T07:46:57Z</time>
   </trkpt>
   <trkpt lat="12.9101330" lon="99.7147350">
    <ele>63.1</ele>
    <time>2018-01-27T07:46:58Z</time>
   </trkpt>
   <trkpt lat="12.9101710" lon="99.7147110">
    <ele>63.0</ele>
    <time>2018-01-27T07:46:59Z</time>
   </trkpt>
   <trkpt lat="12.9102160" lon="99.7146910">
    <ele>63.0</ele>
    <time>2018-01-27T07:47:00Z</time>
   </trkpt>
   <trkpt lat="12.9102570" lon="99.7146730">
    <ele>63.0</ele>
    <time>2018-01-27T07:47:01Z</time>
   </trkpt>
   <trkpt lat="12.9103020" lon="99.7146570">
    <ele>63.1</ele>
    <time>2018-01-27T07:47:02Z</time>
   </trkpt>
   <trkpt lat="12.9103490" lon="99.7146530">
    <ele>63.1</ele>
    <time>2018-01-27T07:47:03Z</time>
   </trkpt>
   <trkpt lat="12.9103980" lon="99.7146550">
    <ele>62.8</ele>
    <time>2018-01-27T07:47:04Z</time>
   </trkpt>
   <trkpt lat="12.9104430" lon="99.7146500">
    <ele>62.5</ele>
    <time>2018-01-27T07:47:05Z</time>
   </trkpt>
   <trkpt lat="12.9104840" lon="99.7146470">
    <ele>62.3</ele>
    <time>2018-01-27T07:47:06Z</time>
   </trkpt>
   <trkpt lat="12.9105280" lon="99.7146610">
    <ele>62.1</ele>
    <time>2018-01-27T07:47:07Z</time>
   </trkpt>
   <trkpt lat="12.9105760" lon="99.7146800">
    <ele>62.1</ele>
    <time>2018-01-27T07:47:08Z</time>
   </trkpt>
   <trkpt lat="12.9106090" lon="99.7146820">
    <ele>62.1</ele>
    <time>2018-01-27T07:47:09Z</time>
   </trkpt>
   <trkpt lat="12.9106440" lon="99.7146770">
    <ele>62.1</ele>
    <time>2018-01-27T07:47:10Z</time>
   </trkpt>
   <trkpt lat="12.9106800" lon="99.7146710">
    <ele>62.2</ele>
    <time>2018-01-27T07:47:11Z</time>
   </trkpt>
   <trkpt lat="12.9107150" lon="99.7146620">
    <ele>62.2</ele>
    <time>2018-01-27T07:47:12Z</time>
   </trkpt>
   <trkpt lat="12.9107560" lon="99.7146530">
    <ele>62.2</ele>
    <time>2018-01-27T07:47:13Z</time>
   </trkpt>
   <trkpt lat="12.9107970" lon="99.7146460">
    <ele>62.2</ele>
    <time>2018-01-27T07:47:14Z</time>
   </trkpt>
   <trkpt lat="12.9108280" lon="99.7146310">
    <ele>62.1</ele>
    <time>2018-01-27T07:47:15Z</time>
   </trkpt>
   <trkpt lat="12.9108630" lon="99.7146170">
    <ele>62.0</ele>
    <time>2018-01-27T07:47:16Z</time>
   </trkpt>
   <trkpt lat="12.9109050" lon="99.7146020">
    <ele>61.7</ele>
    <time>2018-01-27T07:47:17Z</time>
   </trkpt>
   <trkpt lat="12.9109490" lon="99.7145900">
    <ele>61.4</ele>
    <time>2018-01-27T07:47:18Z</time>
   </trkpt>
   <trkpt lat="12.9109870" lon="99.7145830">
    <ele>61.1</ele>
    <time>2018-01-27T07:47:19Z</time>
   </trkpt>
   <trkpt lat="12.9110370" lon="99.7145660">
    <ele>60.6</ele>
    <time>2018-01-27T07:47:21Z</time>
   </trkpt>
   <trkpt lat="12.9110830" lon="99.7145480">
    <ele>60.3</ele>
    <time>2018-01-27T07:47:22Z</time>
   </trkpt>
   <trkpt lat="12.9111260" lon="99.7145280">
    <ele>60.2</ele>
    <time>2018-01-27T07:47:23Z</time>
   </trkpt>
   <trkpt lat="12.9111670" lon="99.7145060">
    <ele>60.2</ele>
    <time>2018-01-27T07:47:24Z</time>
   </trkpt>
   <trkpt lat="12.9112330" lon="99.7144620">
    <ele>60.3</ele>
    <time>2018-01-27T07:47:25Z</time>
   </trkpt>
   <trkpt lat="12.9112700" lon="99.7144380">
    <ele>60.3</ele>
    <time>2018-01-27T07:47:26Z</time>
   </trkpt>
   <trkpt lat="12.9113070" lon="99.7144170">
    <ele>60.3</ele>
    <time>2018-01-27T07:47:27Z</time>
   </trkpt>
   <trkpt lat="12.9113440" lon="99.7143960">
    <ele>60.3</ele>
    <time>2018-01-27T07:47:28Z</time>
   </trkpt>
   <trkpt lat="12.9113810" lon="99.7143770">
    <ele>60.6</ele>
    <time>2018-01-27T07:47:29Z</time>
   </trkpt>
   <trkpt lat="12.9114170" lon="99.7143550">
    <ele>61.0</ele>
    <time>2018-01-27T07:47:30Z</time>
   </trkpt>
   <trkpt lat="12.9114530" lon="99.7143340">
    <ele>61.2</ele>
    <time>2018-01-27T07:47:31Z</time>
   </trkpt>
   <trkpt lat="12.9114840" lon="99.7143190">
    <ele>61.3</ele>
    <time>2018-01-27T07:47:32Z</time>
   </trkpt>
   <trkpt lat="12.9115160" lon="99.7143020">
    <ele>61.5</ele>
    <time>2018-01-27T07:47:33Z</time>
   </trkpt>
   <trkpt lat="12.9115460" lon="99.7142810">
    <ele>61.5</ele>
    <time>2018-01-27T07:47:34Z</time>
   </trkpt>
   <trkpt lat="12.9115770" lon="99.7142590">
    <ele>61.5</ele>
    <time>2018-01-27T07:47:35Z</time>
   </trkpt>
   <trkpt lat="12.9116190" lon="99.7142280">
    <ele>61.8</ele>
    <time>2018-01-27T07:47:37Z</time>
   </trkpt>
   <trkpt lat="12.9116490" lon="99.7142070">
    <ele>62.1</ele>
    <time>2018-01-27T07:47:38Z</time>
   </trkpt>
   <trkpt lat="12.9116760" lon="99.7141870">
    <ele>62.4</ele>
    <time>2018-01-27T07:47:39Z</time>
   </trkpt>
   <trkpt lat="12.9117280" lon="99.7141400">
    <ele>63.4</ele>
    <time>2018-01-27T07:47:40Z</time>
   </trkpt>
   <trkpt lat="12.9117560" lon="99.7141190">
    <ele>63.7</ele>
    <time>2018-01-27T07:47:41Z</time>
   </trkpt>
   <trkpt lat="12.9117880" lon="99.7140960">
    <ele>64.0</ele>
    <time>2018-01-27T07:47:42Z</time>
   </trkpt>
   <trkpt lat="12.9118190" lon="99.7140760">
    <ele>64.2</ele>
    <time>2018-01-27T07:47:43Z</time>
   </trkpt>
   <trkpt lat="12.9118500" lon="99.7140530">
    <ele>64.4</ele>
    <time>2018-01-27T07:47:44Z</time>
   </trkpt>
   <trkpt lat="12.9118790" lon="99.7140310">
    <ele>64.5</ele>
    <time>2018-01-27T07:47:45Z</time>
   </trkpt>
   <trkpt lat="12.9119070" lon="99.7140110">
    <ele>64.5</ele>
    <time>2018-01-27T07:47:46Z</time>
   </trkpt>
   <trkpt lat="12.9119360" lon="99.7139870">
    <ele>64.5</ele>
    <time>2018-01-27T07:47:47Z</time>
   </trkpt>
   <trkpt lat="12.9119690" lon="99.7139610">
    <ele>64.5</ele>
    <time>2018-01-27T07:47:48Z</time>
   </trkpt>
   <trkpt lat="12.9119990" lon="99.7139390">
    <ele>64.7</ele>
    <time>2018-01-27T07:47:49Z</time>
   </trkpt>
   <trkpt lat="12.9120310" lon="99.7139220">
    <ele>64.8</ele>
    <time>2018-01-27T07:47:50Z</time>
   </trkpt>
   <trkpt lat="12.9120630" lon="99.7139010">
    <ele>64.7</ele>
    <time>2018-01-27T07:47:51Z</time>
   </trkpt>
   <trkpt lat="12.9120970" lon="99.7138760">
    <ele>64.7</ele>
    <time>2018-01-27T07:47:52Z</time>
   </trkpt>
   <trkpt lat="12.9121400" lon="99.7138420">
    <ele>64.5</ele>
    <time>2018-01-27T07:47:54Z</time>
   </trkpt>
   <trkpt lat="12.9121700" lon="99.7138210">
    <ele>64.3</ele>
    <time>2018-01-27T07:47:55Z</time>
   </trkpt>
   <trkpt lat="12.9121980" lon="99.7138030">
    <ele>64.1</ele>
    <time>2018-01-27T07:47:56Z</time>
   </trkpt>
   <trkpt lat="12.9122250" lon="99.7137850">
    <ele>63.9</ele>
    <time>2018-01-27T07:47:57Z</time>
   </trkpt>
   <trkpt lat="12.9122540" lon="99.7137670">
    <ele>63.7</ele>
    <time>2018-01-27T07:47:58Z</time>
   </trkpt>
   <trkpt lat="12.9122840" lon="99.7137490">
    <ele>63.6</ele>
    <time>2018-01-27T07:47:59Z</time>
   </trkpt>
   <trkpt lat="12.9123160" lon="99.7137320">
    <ele>63.6</ele>
    <time>2018-01-27T07:48:00Z</time>
   </trkpt>
   <trkpt lat="12.9123480" lon="99.7137130">
    <ele>63.7</ele>
    <time>2018-01-27T07:48:01Z</time>
   </trkpt>
   <trkpt lat="12.9123790" lon="99.7136940">
    <ele>63.7</ele>
    <time>2018-01-27T07:48:02Z</time>
   </trkpt>
   <trkpt lat="12.9124140" lon="99.7136730">
    <ele>63.7</ele>
    <time>2018-01-27T07:48:03Z</time>
   </trkpt>
   <trkpt lat="12.9124470" lon="99.7136540">
    <ele>63.6</ele>
    <time>2018-01-27T07:48:04Z</time>
   </trkpt>
   <trkpt lat="12.9124810" lon="99.7136370">
    <ele>63.6</ele>
    <time>2018-01-27T07:48:05Z</time>
   </trkpt>
   <trkpt lat="12.9125140" lon="99.7136190">
    <ele>63.6</ele>
    <time>2018-01-27T07:48:06Z</time>
   </trkpt>
   <trkpt lat="12.9125480" lon="99.7136010">
    <ele>63.6</ele>
    <time>2018-01-27T07:48:07Z</time>
   </trkpt>
   <trkpt lat="12.9125810" lon="99.7135830">
    <ele>63.6</ele>
    <time>2018-01-27T07:48:08Z</time>
   </trkpt>
   <trkpt lat="12.9126280" lon="99.7135500">
    <ele>63.7</ele>
    <time>2018-01-27T07:48:09Z</time>
   </trkpt>
   <trkpt lat="12.9126600" lon="99.7135330">
    <ele>63.8</ele>
    <time>2018-01-27T07:48:10Z</time>
   </trkpt>
   <trkpt lat="12.9126920" lon="99.7135150">
    <ele>63.9</ele>
    <time>2018-01-27T07:48:11Z</time>
   </trkpt>
   <trkpt lat="12.9127240" lon="99.7134940">
    <ele>64.1</ele>
    <time>2018-01-27T07:48:12Z</time>
   </trkpt>
   <trkpt lat="12.9127580" lon="99.7134730">
    <ele>64.4</ele>
    <time>2018-01-27T07:48:13Z</time>
   </trkpt>
   <trkpt lat="12.9127880" lon="99.7134560">
    <ele>64.6</ele>
    <time>2018-01-27T07:48:14Z</time>
   </trkpt>
   <trkpt lat="12.9128190" lon="99.7134360">
    <ele>64.9</ele>
    <time>2018-01-27T07:48:15Z</time>
   </trkpt>
   <trkpt lat="12.9128450" lon="99.7134200">
    <ele>65.1</ele>
    <time>2018-01-27T07:48:16Z</time>
   </trkpt>
   <trkpt lat="12.9128710" lon="99.7134060">
    <ele>65.3</ele>
    <time>2018-01-27T07:48:17Z</time>
   </trkpt>
   <trkpt lat="12.9128990" lon="99.7133890">
    <ele>65.5</ele>
    <time>2018-01-27T07:48:18Z</time>
   </trkpt>
   <trkpt lat="12.9129300" lon="99.7133720">
    <ele>65.6</ele>
    <time>2018-01-27T07:48:19Z</time>
   </trkpt>
   <trkpt lat="12.9129820" lon="99.7133420">
    <ele>65.7</ele>
    <time>2018-01-27T07:48:20Z</time>
   </trkpt>
   <trkpt lat="12.9130120" lon="99.7133230">
    <ele>65.7</ele>
    <time>2018-01-27T07:48:21Z</time>
   </trkpt>
   <trkpt lat="12.9130450" lon="99.7133030">
    <ele>65.7</ele>
    <time>2018-01-27T07:48:22Z</time>
   </trkpt>
   <trkpt lat="12.9130780" lon="99.7132810">
    <ele>65.7</ele>
    <time>2018-01-27T07:48:23Z</time>
   </trkpt>
   <trkpt lat="12.9131130" lon="99.7132590">
    <ele>65.7</ele>
    <time>2018-01-27T07:48:24Z</time>
   </trkpt>
   <trkpt lat="12.9131480" lon="99.7132380">
    <ele>65.8</ele>
    <time>2018-01-27T07:48:25Z</time>
   </trkpt>
   <trkpt lat="12.9131820" lon="99.7132180">
    <ele>65.8</ele>
    <time>2018-01-27T07:48:26Z</time>
   </trkpt>
   <trkpt lat="12.9132090" lon="99.7132020">
    <ele>65.8</ele>
    <time>2018-01-27T07:48:27Z</time>
   </trkpt>
   <trkpt lat="12.9132340" lon="99.7131860">
    <ele>65.7</ele>
    <time>2018-01-27T07:48:28Z</time>
   </trkpt>
   <trkpt lat="12.9132840" lon="99.7131570">
    <ele>65.5</ele>
    <time>2018-01-27T07:48:30Z</time>
   </trkpt>
   <trkpt lat="12.9133370" lon="99.7131250">
    <ele>65.2</ele>
    <time>2018-01-27T07:48:31Z</time>
   </trkpt>
   <trkpt lat="12.9133690" lon="99.7131050">
    <ele>65.0</ele>
    <time>2018-01-27T07:48:32Z</time>
   </trkpt>
   <trkpt lat="12.9134040" lon="99.7130840">
    <ele>64.8</ele>
    <time>2018-01-27T07:48:33Z</time>
   </trkpt>
   <trkpt lat="12.9134400" lon="99.7130650">
    <ele>64.7</ele>
    <time>2018-01-27T07:48:34Z</time>
   </trkpt>
   <trkpt lat="12.9134770" lon="99.7130430">
    <ele>64.7</ele>
    <time>2018-01-27T07:48:35Z</time>
   </trkpt>
   <trkpt lat="12.9135160" lon="99.7130190">
    <ele>64.6</ele>
    <time>2018-01-27T07:48:36Z</time>
   </trkpt>
   <trkpt lat="12.9135520" lon="99.7129970">
    <ele>64.5</ele>
    <time>2018-01-27T07:48:37Z</time>
   </trkpt>
   <trkpt lat="12.9135900" lon="99.7129730">
    <ele>64.5</ele>
    <time>2018-01-27T07:48:38Z</time>
   </trkpt>
   <trkpt lat="12.9136270" lon="99.7129490">
    <ele>64.6</ele>
    <time>2018-01-27T07:48:39Z</time>
   </trkpt>
   <trkpt lat="12.9136690" lon="99.7129200">
    <ele>64.9</ele>
    <time>2018-01-27T07:48:40Z</time>
   </trkpt>
   <trkpt lat="12.9137090" lon="99.7129000">
    <ele>65.3</ele>
    <time>2018-01-27T07:48:41Z</time>
   </trkpt>
   <trkpt lat="12.9137500" lon="99.7128770">
    <ele>65.7</ele>
    <time>2018-01-27T07:48:42Z</time>
   </trkpt>
   <trkpt lat="12.9137900" lon="99.7128520">
    <ele>66.0</ele>
    <time>2018-01-27T07:48:43Z</time>
   </trkpt>
   <trkpt lat="12.9138330" lon="99.7128100">
    <ele>66.3</ele>
    <time>2018-01-27T07:48:44Z</time>
   </trkpt>
   <trkpt lat="12.9138860" lon="99.7127800">
    <ele>66.7</ele>
    <time>2018-01-27T07:48:45Z</time>
   </trkpt>
   <trkpt lat="12.9139290" lon="99.7127530">
    <ele>67.1</ele>
    <time>2018-01-27T07:48:46Z</time>
   </trkpt>
   <trkpt lat="12.9139690" lon="99.7127290">
    <ele>67.8</ele>
    <time>2018-01-27T07:48:47Z</time>
   </trkpt>
   <trkpt lat="12.9140130" lon="99.7127030">
    <ele>68.3</ele>
    <time>2018-01-27T07:48:48Z</time>
   </trkpt>
   <trkpt lat="12.9140470" lon="99.7126740">
    <ele>68.6</ele>
    <time>2018-01-27T07:48:49Z</time>
   </trkpt>
   <trkpt lat="12.9140850" lon="99.7126540">
    <ele>68.8</ele>
    <time>2018-01-27T07:48:50Z</time>
   </trkpt>
   <trkpt lat="12.9141250" lon="99.7126290">
    <ele>69.1</ele>
    <time>2018-01-27T07:48:51Z</time>
   </trkpt>
   <trkpt lat="12.9141660" lon="99.7126080">
    <ele>69.3</ele>
    <time>2018-01-27T07:48:52Z</time>
   </trkpt>
   <trkpt lat="12.9142030" lon="99.7125890">
    <ele>69.4</ele>
    <time>2018-01-27T07:48:53Z</time>
   </trkpt>
   <trkpt lat="12.9142470" lon="99.7125610">
    <ele>69.6</ele>
    <time>2018-01-27T07:48:54Z</time>
   </trkpt>
   <trkpt lat="12.9142900" lon="99.7125320">
    <ele>69.8</ele>
    <time>2018-01-27T07:48:55Z</time>
   </trkpt>
   <trkpt lat="12.9143270" lon="99.7125000">
    <ele>70.0</ele>
    <time>2018-01-27T07:48:56Z</time>
   </trkpt>
   <trkpt lat="12.9143680" lon="99.7124710">
    <ele>70.2</ele>
    <time>2018-01-27T07:48:57Z</time>
   </trkpt>
   <trkpt lat="12.9144080" lon="99.7124490">
    <ele>70.4</ele>
    <time>2018-01-27T07:48:58Z</time>
   </trkpt>
   <trkpt lat="12.9144490" lon="99.7124250">
    <ele>70.7</ele>
    <time>2018-01-27T07:48:59Z</time>
   </trkpt>
   <trkpt lat="12.9144870" lon="99.7124000">
    <ele>71.0</ele>
    <time>2018-01-27T07:49:00Z</time>
   </trkpt>
   <trkpt lat="12.9145180" lon="99.7123750">
    <ele>71.1</ele>
    <time>2018-01-27T07:49:01Z</time>
   </trkpt>
   <trkpt lat="12.9145470" lon="99.7123540">
    <ele>71.1</ele>
    <time>2018-01-27T07:49:02Z</time>
   </trkpt>
   <trkpt lat="12.9145840" lon="99.7123310">
    <ele>71.2</ele>
    <time>2018-01-27T07:49:03Z</time>
   </trkpt>
   <trkpt lat="12.9146190" lon="99.7123090">
    <ele>71.2</ele>
    <time>2018-01-27T07:49:04Z</time>
   </trkpt>
   <trkpt lat="12.9146520" lon="99.7122910">
    <ele>71.2</ele>
    <time>2018-01-27T07:49:05Z</time>
   </trkpt>
   <trkpt lat="12.9146860" lon="99.7122770">
    <ele>71.3</ele>
    <time>2018-01-27T07:49:06Z</time>
   </trkpt>
   <trkpt lat="12.9147170" lon="99.7122570">
    <ele>71.3</ele>
    <time>2018-01-27T07:49:07Z</time>
   </trkpt>
   <trkpt lat="12.9147480" lon="99.7122370">
    <ele>71.3</ele>
    <time>2018-01-27T07:49:08Z</time>
   </trkpt>
   <trkpt lat="12.9147820" lon="99.7122170">
    <ele>71.3</ele>
    <time>2018-01-27T07:49:09Z</time>
   </trkpt>
   <trkpt lat="12.9148150" lon="99.7121970">
    <ele>71.2</ele>
    <time>2018-01-27T07:49:10Z</time>
   </trkpt>
   <trkpt lat="12.9148500" lon="99.7121800">
    <ele>71.2</ele>
    <time>2018-01-27T07:49:11Z</time>
   </trkpt>
   <trkpt lat="12.9148840" lon="99.7121670">
    <ele>71.1</ele>
    <time>2018-01-27T07:49:12Z</time>
   </trkpt>
   <trkpt lat="12.9149130" lon="99.7121530">
    <ele>71.0</ele>
    <time>2018-01-27T07:49:13Z</time>
   </trkpt>
   <trkpt lat="12.9149410" lon="99.7121390">
    <ele>71.0</ele>
    <time>2018-01-27T07:49:14Z</time>
   </trkpt>
   <trkpt lat="12.9149720" lon="99.7121220">
    <ele>70.9</ele>
    <time>2018-01-27T07:49:15Z</time>
   </trkpt>
   <trkpt lat="12.9150020" lon="99.7121060">
    <ele>70.7</ele>
    <time>2018-01-27T07:49:16Z</time>
   </trkpt>
   <trkpt lat="12.9150370" lon="99.7120840">
    <ele>70.6</ele>
    <time>2018-01-27T07:49:18Z</time>
   </trkpt>
   <trkpt lat="12.9150650" lon="99.7120660">
    <ele>70.5</ele>
    <time>2018-01-27T07:49:19Z</time>
   </trkpt>
   <trkpt lat="12.9150890" lon="99.7120490">
    <ele>70.4</ele>
    <time>2018-01-27T07:49:20Z</time>
   </trkpt>
   <trkpt lat="12.9151130" lon="99.7120320">
    <ele>70.3</ele>
    <time>2018-01-27T07:49:21Z</time>
   </trkpt>
   <trkpt lat="12.9151610" lon="99.7120050">
    <ele>70.2</ele>
    <time>2018-01-27T07:49:23Z</time>
   </trkpt>
   <trkpt lat="12.9151940" lon="99.7119900">
    <ele>70.1</ele>
    <time>2018-01-27T07:49:24Z</time>
   </trkpt>
   <trkpt lat="12.9152250" lon="99.7119760">
    <ele>70.1</ele>
    <time>2018-01-27T07:49:25Z</time>
   </trkpt>
   <trkpt lat="12.9152560" lon="99.7119640">
    <ele>70.2</ele>
    <time>2018-01-27T07:49:26Z</time>
   </trkpt>
   <trkpt lat="12.9153620" lon="99.7119150">
    <ele>70.4</ele>
    <time>2018-01-27T07:49:27Z</time>
   </trkpt>
   <trkpt lat="12.9153930" lon="99.7119000">
    <ele>70.4</ele>
    <time>2018-01-27T07:49:28Z</time>
   </trkpt>
   <trkpt lat="12.9154310" lon="99.7118820">
    <ele>70.5</ele>
    <time>2018-01-27T07:49:29Z</time>
   </trkpt>
   <trkpt lat="12.9154690" lon="99.7118660">
    <ele>70.7</ele>
    <time>2018-01-27T07:49:30Z</time>
   </trkpt>
   <trkpt lat="12.9155040" lon="99.7118490">
    <ele>70.9</ele>
    <time>2018-01-27T07:49:31Z</time>
   </trkpt>
   <trkpt lat="12.9155420" lon="99.7118300">
    <ele>71.1</ele>
    <time>2018-01-27T07:49:32Z</time>
   </trkpt>
   <trkpt lat="12.9155800" lon="99.7118120">
    <ele>71.3</ele>
    <time>2018-01-27T07:49:33Z</time>
   </trkpt>
   <trkpt lat="12.9156170" lon="99.7117940">
    <ele>71.4</ele>
    <time>2018-01-27T07:49:34Z</time>
   </trkpt>
   <trkpt lat="12.9156550" lon="99.7117760">
    <ele>71.5</ele>
    <time>2018-01-27T07:49:35Z</time>
   </trkpt>
   <trkpt lat="12.9156970" lon="99.7117600">
    <ele>71.5</ele>
    <time>2018-01-27T07:49:36Z</time>
   </trkpt>
   <trkpt lat="12.9157340" lon="99.7117430">
    <ele>71.4</ele>
    <time>2018-01-27T07:49:37Z</time>
   </trkpt>
   <trkpt lat="12.9157720" lon="99.7117210">
    <ele>71.3</ele>
    <time>2018-01-27T07:49:38Z</time>
   </trkpt>
   <trkpt lat="12.9158110" lon="99.7117020">
    <ele>71.0</ele>
    <time>2018-01-27T07:49:39Z</time>
   </trkpt>
   <trkpt lat="12.9158490" lon="99.7116780">
    <ele>70.8</ele>
    <time>2018-01-27T07:49:40Z</time>
   </trkpt>
   <trkpt lat="12.9159120" lon="99.7116400">
    <ele>70.6</ele>
    <time>2018-01-27T07:49:42Z</time>
   </trkpt>
   <trkpt lat="12.9159580" lon="99.7116210">
    <ele>70.5</ele>
    <time>2018-01-27T07:49:43Z</time>
   </trkpt>
   <trkpt lat="12.9159960" lon="99.7115940">
    <ele>70.6</ele>
    <time>2018-01-27T07:49:45Z</time>
   </trkpt>
   <trkpt lat="12.9159940" lon="99.7115500">
    <ele>70.9</ele>
    <time>2018-01-27T07:49:47Z</time>
   </trkpt>
   <trkpt lat="12.9159680" lon="99.7115090">
    <ele>71.3</ele>
    <time>2018-01-27T07:49:48Z</time>
   </trkpt>
   <trkpt lat="12.9159370" lon="99.7114790">
    <ele>71.5</ele>
    <time>2018-01-27T07:49:49Z</time>
   </trkpt>
   <trkpt lat="12.9159120" lon="99.7114490">
    <ele>71.5</ele>
    <time>2018-01-27T07:49:50Z</time>
   </trkpt>
   <trkpt lat="12.9158940" lon="99.7114140">
    <ele>71.6</ele>
    <time>2018-01-27T07:49:51Z</time>
   </trkpt>
   <trkpt lat="12.9158820" lon="99.7113770">
    <ele>71.5</ele>
    <time>2018-01-27T07:49:52Z</time>
   </trkpt>
   <trkpt lat="12.9158740" lon="99.7113420">
    <ele>71.5</ele>
    <time>2018-01-27T07:49:53Z</time>
   </trkpt>
   <trkpt lat="12.9158670" lon="99.7113060">
    <ele>71.5</ele>
    <time>2018-01-27T07:49:54Z</time>
   </trkpt>
   <trkpt lat="12.9158590" lon="99.7112710">
    <ele>71.5</ele>
    <time>2018-01-27T07:49:55Z</time>
   </trkpt>
   <trkpt lat="12.9158470" lon="99.7112350">
    <ele>71.5</ele>
    <time>2018-01-27T07:49:56Z</time>
   </trkpt>
   <trkpt lat="12.9158330" lon="99.7111980">
    <ele>71.5</ele>
    <time>2018-01-27T07:49:57Z</time>
   </trkpt>
   <trkpt lat="12.9158160" lon="99.7111580">
    <ele>71.4</ele>
    <time>2018-01-27T07:49:58Z</time>
   </trkpt>
   <trkpt lat="12.9157980" lon="99.7111150">
    <ele>71.3</ele>
    <time>2018-01-27T07:49:59Z</time>
   </trkpt>
   <trkpt lat="12.9157810" lon="99.7110570">
    <ele>71.1</ele>
    <time>2018-01-27T07:50:00Z</time>
   </trkpt>
   <trkpt lat="12.9156890" lon="99.7108250">
    <ele>70.7</ele>
    <time>2018-01-27T07:50:02Z</time>
   </trkpt>
   <trkpt lat="12.9156750" lon="99.7107740">
    <ele>70.4</ele>
    <time>2018-01-27T07:50:03Z</time>
   </trkpt>
   <trkpt lat="12.9156590" lon="99.7107210">
    <ele>70.0</ele>
    <time>2018-01-27T07:50:04Z</time>
   </trkpt>
   <trkpt lat="12.9156410" lon="99.7106690">
    <ele>69.4</ele>
    <time>2018-01-27T07:50:05Z</time>
   </trkpt>
   <trkpt lat="12.9156230" lon="99.7106180">
    <ele>68.9</ele>
    <time>2018-01-27T07:50:06Z</time>
   </trkpt>
   <trkpt lat="12.9156110" lon="99.7105680">
    <ele>68.6</ele>
    <time>2018-01-27T07:50:07Z</time>
   </trkpt>
   <trkpt lat="12.9156060" lon="99.7105190">
    <ele>68.4</ele>
    <time>2018-01-27T07:50:08Z</time>
   </trkpt>
   <trkpt lat="12.9155910" lon="99.7104670">
    <ele>68.1</ele>
    <time>2018-01-27T07:50:09Z</time>
   </trkpt>
   <trkpt lat="12.9155690" lon="99.7104160">
    <ele>67.7</ele>
    <time>2018-01-27T07:50:10Z</time>
   </trkpt>
   <trkpt lat="12.9155530" lon="99.7103720">
    <ele>67.3</ele>
    <time>2018-01-27T07:50:11Z</time>
   </trkpt>
   <trkpt lat="12.9155220" lon="99.7103270">
    <ele>66.9</ele>
    <time>2018-01-27T07:50:12Z</time>
   </trkpt>
   <trkpt lat="12.9154940" lon="99.7102820">
    <ele>66.7</ele>
    <time>2018-01-27T07:50:13Z</time>
   </trkpt>
   <trkpt lat="12.9154670" lon="99.7102370">
    <ele>66.9</ele>
    <time>2018-01-27T07:50:14Z</time>
   </trkpt>
   <trkpt lat="12.9154430" lon="99.7101900">
    <ele>67.1</ele>
    <time>2018-01-27T07:50:15Z</time>
   </trkpt>
   <trkpt lat="12.9154210" lon="99.7101400">
    <ele>67.4</ele>
    <time>2018-01-27T07:50:16Z</time>
   </trkpt>
   <trkpt lat="12.9153930" lon="99.7100840">
    <ele>67.7</ele>
    <time>2018-01-27T07:50:17Z</time>
   </trkpt>
   <trkpt lat="12.9153820" lon="99.7100320">
    <ele>68.0</ele>
    <time>2018-01-27T07:50:18Z</time>
   </trkpt>
   <trkpt lat="12.9153610" lon="99.7099740">
    <ele>68.4</ele>
    <time>2018-01-27T07:50:19Z</time>
   </trkpt>
   <trkpt lat="12.9153430" lon="99.7099180">
    <ele>68.7</ele>
    <time>2018-01-27T07:50:20Z</time>
   </trkpt>
   <trkpt lat="12.9153440" lon="99.7098690">
    <ele>68.9</ele>
    <time>2018-01-27T07:50:21Z</time>
   </trkpt>
   <trkpt lat="12.9153240" lon="99.7098160">
    <ele>68.9</ele>
    <time>2018-01-27T07:50:22Z</time>
   </trkpt>
   <trkpt lat="12.9153150" lon="99.7097550">
    <ele>68.9</ele>
    <time>2018-01-27T07:50:23Z</time>
   </trkpt>
   <trkpt lat="12.9152910" lon="99.7096910">
    <ele>68.8</ele>
    <time>2018-01-27T07:50:24Z</time>
   </trkpt>
   <trkpt lat="12.9152660" lon="99.7096360">
    <ele>68.7</ele>
    <time>2018-01-27T07:50:25Z</time>
   </trkpt>
   <trkpt lat="12.9152500" lon="99.7095760">
    <ele>68.6</ele>
    <time>2018-01-27T07:50:26Z</time>
   </trkpt>
   <trkpt lat="12.9152190" lon="99.7095260">
    <ele>68.4</ele>
    <time>2018-01-27T07:50:27Z</time>
   </trkpt>
   <trkpt lat="12.9151940" lon="99.7094770">
    <ele>68.3</ele>
    <time>2018-01-27T07:50:28Z</time>
   </trkpt>
   <trkpt lat="12.9151530" lon="99.7094050">
    <ele>68.1</ele>
    <time>2018-01-27T07:50:29Z</time>
   </trkpt>
   <trkpt lat="12.9151230" lon="99.7093480">
    <ele>68.3</ele>
    <time>2018-01-27T07:50:30Z</time>
   </trkpt>
   <trkpt lat="12.9151260" lon="99.7092940">
    <ele>68.5</ele>
    <time>2018-01-27T07:50:31Z</time>
   </trkpt>
   <trkpt lat="12.9151160" lon="99.7092420">
    <ele>68.6</ele>
    <time>2018-01-27T07:50:32Z</time>
   </trkpt>
   <trkpt lat="12.9150940" lon="99.7091980">
    <ele>68.8</ele>
    <time>2018-01-27T07:50:33Z</time>
   </trkpt>
   <trkpt lat="12.9150740" lon="99.7091520">
    <ele>69.0</ele>
    <time>2018-01-27T07:50:34Z</time>
   </trkpt>
   <trkpt lat="12.9150100" lon="99.7091210">
    <ele>69.3</ele>
    <time>2018-01-27T07:50:35Z</time>
   </trkpt>
   <trkpt lat="12.9149790" lon="99.7090840">
    <ele>69.6</ele>
    <time>2018-01-27T07:50:36Z</time>
   </trkpt>
   <trkpt lat="12.9149510" lon="99.7090520">
    <ele>70.0</ele>
    <time>2018-01-27T07:50:37Z</time>
   </trkpt>
   <trkpt lat="12.9149230" lon="99.7090240">
    <ele>70.3</ele>
    <time>2018-01-27T07:50:38Z</time>
   </trkpt>
   <trkpt lat="12.9149020" lon="99.7089920">
    <ele>70.7</ele>
    <time>2018-01-27T07:50:39Z</time>
   </trkpt>
   <trkpt lat="12.9148780" lon="99.7089630">
    <ele>71.0</ele>
    <time>2018-01-27T07:50:40Z</time>
   </trkpt>
   <trkpt lat="12.9148530" lon="99.7089340">
    <ele>71.1</ele>
    <time>2018-01-27T07:50:41Z</time>
   </trkpt>
   <trkpt lat="12.9148340" lon="99.7089000">
    <ele>71.3</ele>
    <time>2018-01-27T07:50:43Z</time>
   </trkpt>
   <trkpt lat="12.9148140" lon="99.7088670">
    <ele>71.1</ele>
    <time>2018-01-27T07:50:44Z</time>
   </trkpt>
   <trkpt lat="12.9147970" lon="99.7088400">
    <ele>70.8</ele>
    <time>2018-01-27T07:50:45Z</time>
   </trkpt>
   <trkpt lat="12.9147750" lon="99.7088100">
    <ele>70.5</ele>
    <time>2018-01-27T07:50:46Z</time>
   </trkpt>
   <trkpt lat="12.9147280" lon="99.7087360">
    <ele>70.4</ele>
    <time>2018-01-27T07:50:47Z</time>
   </trkpt>
   <trkpt lat="12.9147080" lon="99.7087000">
    <ele>70.5</ele>
    <time>2018-01-27T07:50:48Z</time>
   </trkpt>
   <trkpt lat="12.9146830" lon="99.7086630">
    <ele>70.7</ele>
    <time>2018-01-27T07:50:49Z</time>
   </trkpt>
   <trkpt lat="12.9146630" lon="99.7086270">
    <ele>70.8</ele>
    <time>2018-01-27T07:50:50Z</time>
   </trkpt>
   <trkpt lat="12.9146470" lon="99.7086000">
    <ele>71.0</ele>
    <time>2018-01-27T07:50:51Z</time>
   </trkpt>
   <trkpt lat="12.9146250" lon="99.7085680">
    <ele>71.1</ele>
    <time>2018-01-27T07:50:52Z</time>
   </trkpt>
   <trkpt lat="12.9146080" lon="99.7085360">
    <ele>71.1</ele>
    <time>2018-01-27T07:50:53Z</time>
   </trkpt>
   <trkpt lat="12.9145880" lon="99.7085050">
    <ele>71.2</ele>
    <time>2018-01-27T07:50:54Z</time>
   </trkpt>
   <trkpt lat="12.9145590" lon="99.7084640">
    <ele>71.2</ele>
    <time>2018-01-27T07:50:56Z</time>
   </trkpt>
   <trkpt lat="12.9145260" lon="99.7084230">
    <ele>71.1</ele>
    <time>2018-01-27T07:50:58Z</time>
   </trkpt>
   <trkpt lat="12.9145020" lon="99.7083820">
    <ele>71.2</ele>
    <time>2018-01-27T07:50:59Z</time>
   </trkpt>
   <trkpt lat="12.9144800" lon="99.7083390">
    <ele>71.2</ele>
    <time>2018-01-27T07:51:01Z</time>
   </trkpt>
   <trkpt lat="12.9144600" lon="99.7083110">
    <ele>71.2</ele>
    <time>2018-01-27T07:51:03Z</time>
   </trkpt>
   <trkpt lat="12.9144360" lon="99.7082870">
    <ele>71.2</ele>
    <time>2018-01-27T07:51:05Z</time>
   </trkpt>
   <trkpt lat="12.9144090" lon="99.7082790">
    <ele>71.1</ele>
    <time>2018-01-27T07:54:45Z</time>
   </trkpt>
   <trkpt lat="12.9143710" lon="99.7082470">
    <ele>71.2</ele>
    <time>2018-01-27T07:54:48Z</time>
   </trkpt>
   <trkpt lat="12.9143380" lon="99.7082170">
    <ele>71.3</ele>
    <time>2018-01-27T07:54:50Z</time>
   </trkpt>
   <trkpt lat="12.9143110" lon="99.7081790">
    <ele>71.5</ele>
    <time>2018-01-27T07:54:52Z</time>
   </trkpt>
   <trkpt lat="12.9142820" lon="99.7081380">
    <ele>71.7</ele>
    <time>2018-01-27T07:54:54Z</time>
   </trkpt>
   <trkpt lat="12.9142650" lon="99.7081150">
    <ele>72.0</ele>
    <time>2018-01-27T07:54:55Z</time>
   </trkpt>
   <trkpt lat="12.9142490" lon="99.7080890">
    <ele>72.3</ele>
    <time>2018-01-27T07:54:56Z</time>
   </trkpt>
   <trkpt lat="12.9142340" lon="99.7080630">
    <ele>72.7</ele>
    <time>2018-01-27T07:54:57Z</time>
   </trkpt>
   <trkpt lat="12.9142110" lon="99.7080090">
    <ele>73.4</ele>
    <time>2018-01-27T07:54:58Z</time>
   </trkpt>
   <trkpt lat="12.9141980" lon="99.7079790">
    <ele>73.9</ele>
    <time>2018-01-27T07:54:59Z</time>
   </trkpt>
   <trkpt lat="12.9141870" lon="99.7079520">
    <ele>74.2</ele>
    <time>2018-01-27T07:55:00Z</time>
   </trkpt>
   <trkpt lat="12.9141770" lon="99.7079240">
    <ele>74.5</ele>
    <time>2018-01-27T07:55:01Z</time>
   </trkpt>
   <trkpt lat="12.9141590" lon="99.7078780">
    <ele>74.8</ele>
    <time>2018-01-27T07:55:03Z</time>
   </trkpt>
   <trkpt lat="12.9141440" lon="99.7078270">
    <ele>74.9</ele>
    <time>2018-01-27T07:55:05Z</time>
   </trkpt>
   <trkpt lat="12.9141180" lon="99.7077810">
    <ele>75.0</ele>
    <time>2018-01-27T07:55:07Z</time>
   </trkpt>
   <trkpt lat="12.9140940" lon="99.7077360">
    <ele>74.9</ele>
    <time>2018-01-27T07:55:09Z</time>
   </trkpt>
   <trkpt lat="12.9140630" lon="99.7076870">
    <ele>75.0</ele>
    <time>2018-01-27T07:55:11Z</time>
   </trkpt>
   <trkpt lat="12.9140470" lon="99.7076590">
    <ele>75.0</ele>
    <time>2018-01-27T07:55:12Z</time>
   </trkpt>
   <trkpt lat="12.9140270" lon="99.7076330">
    <ele>75.1</ele>
    <time>2018-01-27T07:55:13Z</time>
   </trkpt>
   <trkpt lat="12.9140050" lon="99.7076080">
    <ele>75.1</ele>
    <time>2018-01-27T07:55:14Z</time>
   </trkpt>
   <trkpt lat="12.9139850" lon="99.7075790">
    <ele>75.2</ele>
    <time>2018-01-27T07:55:15Z</time>
   </trkpt>
   <trkpt lat="12.9139680" lon="99.7075510">
    <ele>75.1</ele>
    <time>2018-01-27T07:55:16Z</time>
   </trkpt>
   <trkpt lat="12.9139450" lon="99.7075200">
    <ele>74.9</ele>
    <time>2018-01-27T07:55:17Z</time>
   </trkpt>
   <trkpt lat="12.9139240" lon="99.7074920">
    <ele>74.7</ele>
    <time>2018-01-27T07:55:18Z</time>
   </trkpt>
   <trkpt lat="12.9138970" lon="99.7074660">
    <ele>74.5</ele>
    <time>2018-01-27T07:55:19Z</time>
   </trkpt>
   <trkpt lat="12.9138710" lon="99.7074380">
    <ele>74.3</ele>
    <time>2018-01-27T07:55:20Z</time>
   </trkpt>
   <trkpt lat="12.9138430" lon="99.7074120">
    <ele>74.0</ele>
    <time>2018-01-27T07:55:21Z</time>
   </trkpt>
   <trkpt lat="12.9138140" lon="99.7073920">
    <ele>73.7</ele>
    <time>2018-01-27T07:55:22Z</time>
   </trkpt>
   <trkpt lat="12.9137910" lon="99.7073730">
    <ele>73.4</ele>
    <time>2018-01-27T07:55:23Z</time>
   </trkpt>
   <trkpt lat="12.9137640" lon="99.7073190">
    <ele>73.4</ele>
    <time>2018-01-27T07:55:26Z</time>
   </trkpt>
   <trkpt lat="12.9137410" lon="99.7072780">
    <ele>73.4</ele>
    <time>2018-01-27T07:55:27Z</time>
   </trkpt>
   <trkpt lat="12.9137150" lon="99.7072030">
    <ele>73.6</ele>
    <time>2018-01-27T07:55:28Z</time>
   </trkpt>
   <trkpt lat="12.9136970" lon="99.7071680">
    <ele>73.6</ele>
    <time>2018-01-27T07:55:29Z</time>
   </trkpt>
   <trkpt lat="12.9136810" lon="99.7071320">
    <ele>73.6</ele>
    <time>2018-01-27T07:55:30Z</time>
   </trkpt>
   <trkpt lat="12.9136610" lon="99.7070970">
    <ele>73.5</ele>
    <time>2018-01-27T07:55:31Z</time>
   </trkpt>
   <trkpt lat="12.9136380" lon="99.7070590">
    <ele>73.4</ele>
    <time>2018-01-27T07:55:32Z</time>
   </trkpt>
   <trkpt lat="12.9136180" lon="99.7070200">
    <ele>73.4</ele>
    <time>2018-01-27T07:55:33Z</time>
   </trkpt>
   <trkpt lat="12.9135970" lon="99.7069800">
    <ele>73.4</ele>
    <time>2018-01-27T07:55:34Z</time>
   </trkpt>
   <trkpt lat="12.9135690" lon="99.7069360">
    <ele>73.6</ele>
    <time>2018-01-27T07:55:35Z</time>
   </trkpt>
   <trkpt lat="12.9135530" lon="99.7069130">
    <ele>73.7</ele>
    <time>2018-01-27T07:55:37Z</time>
   </trkpt>
   <trkpt lat="12.9135370" lon="99.7068740">
    <ele>73.9</ele>
    <time>2018-01-27T07:55:38Z</time>
   </trkpt>
   <trkpt lat="12.9135020" lon="99.7068040">
    <ele>74.2</ele>
    <time>2018-01-27T07:55:39Z</time>
   </trkpt>
   <trkpt lat="12.9134530" lon="99.7067260">
    <ele>74.1</ele>
    <time>2018-01-27T07:55:40Z</time>
   </trkpt>
   <trkpt lat="12.9134350" lon="99.7066830">
    <ele>73.8</ele>
    <time>2018-01-27T07:55:41Z</time>
   </trkpt>
   <trkpt lat="12.9134100" lon="99.7066330">
    <ele>73.4</ele>
    <time>2018-01-27T07:55:42Z</time>
   </trkpt>
   <trkpt lat="12.9133900" lon="99.7065860">
    <ele>73.4</ele>
    <time>2018-01-27T07:55:43Z</time>
   </trkpt>
   <trkpt lat="12.9133650" lon="99.7065380">
    <ele>73.4</ele>
    <time>2018-01-27T07:55:44Z</time>
   </trkpt>
   <trkpt lat="12.9133450" lon="99.7064930">
    <ele>73.5</ele>
    <time>2018-01-27T07:55:45Z</time>
   </trkpt>
   <trkpt lat="12.9133250" lon="99.7064450">
    <ele>73.6</ele>
    <time>2018-01-27T07:55:46Z</time>
   </trkpt>
   <trkpt lat="12.9132930" lon="99.7064030">
    <ele>73.5</ele>
    <time>2018-01-27T07:55:47Z</time>
   </trkpt>
   <trkpt lat="12.9132610" lon="99.7063600">
    <ele>73.3</ele>
    <time>2018-01-27T07:55:48Z</time>
   </trkpt>
   <trkpt lat="12.9132400" lon="99.7063260">
    <ele>73.2</ele>
    <time>2018-01-27T07:55:49Z</time>
   </trkpt>
   <trkpt lat="12.9132100" lon="99.7062800">
    <ele>72.9</ele>
    <time>2018-01-27T07:55:50Z</time>
   </trkpt>
   <trkpt lat="12.9131910" lon="99.7062400">
    <ele>72.5</ele>
    <time>2018-01-27T07:55:51Z</time>
   </trkpt>
   <trkpt lat="12.9131690" lon="99.7061980">
    <ele>72.1</ele>
    <time>2018-01-27T07:55:52Z</time>
   </trkpt>
   <trkpt lat="12.9131620" lon="99.7061590">
    <ele>71.8</ele>
    <time>2018-01-27T07:55:53Z</time>
   </trkpt>
   <trkpt lat="12.9131310" lon="99.7061170">
    <ele>71.5</ele>
    <time>2018-01-27T07:55:54Z</time>
   </trkpt>
   <trkpt lat="12.9131030" lon="99.7060780">
    <ele>71.2</ele>
    <time>2018-01-27T07:55:55Z</time>
   </trkpt>
   <trkpt lat="12.9130770" lon="99.7060310">
    <ele>71.0</ele>
    <time>2018-01-27T07:55:56Z</time>
   </trkpt>
   <trkpt lat="12.9130330" lon="99.7059890">
    <ele>70.9</ele>
    <time>2018-01-27T07:55:57Z</time>
   </trkpt>
   <trkpt lat="12.9130060" lon="99.7059370">
    <ele>70.9</ele>
    <time>2018-01-27T07:55:58Z</time>
   </trkpt>
   <trkpt lat="12.9129780" lon="99.7058890">
    <ele>71.0</ele>
    <time>2018-01-27T07:55:59Z</time>
   </trkpt>
   <trkpt lat="12.9129370" lon="99.7058350">
    <ele>71.3</ele>
    <time>2018-01-27T07:56:00Z</time>
   </trkpt>
   <trkpt lat="12.9129090" lon="99.7057830">
    <ele>71.8</ele>
    <time>2018-01-27T07:56:01Z</time>
   </trkpt>
   <trkpt lat="12.9128750" lon="99.7057230">
    <ele>72.3</ele>
    <time>2018-01-27T07:56:02Z</time>
   </trkpt>
   <trkpt lat="12.9128580" lon="99.7056710">
    <ele>72.9</ele>
    <time>2018-01-27T07:56:03Z</time>
   </trkpt>
   <trkpt lat="12.9128400" lon="99.7056180">
    <ele>74.1</ele>
    <time>2018-01-27T07:56:04Z</time>
   </trkpt>
   <trkpt lat="12.9128250" lon="99.7055660">
    <ele>75.2</ele>
    <time>2018-01-27T07:56:05Z</time>
   </trkpt>
   <trkpt lat="12.9128020" lon="99.7055270">
    <ele>76.2</ele>
    <time>2018-01-27T07:56:06Z</time>
   </trkpt>
   <trkpt lat="12.9127860" lon="99.7054870">
    <ele>76.9</ele>
    <time>2018-01-27T07:56:07Z</time>
   </trkpt>
   <trkpt lat="12.9127560" lon="99.7054520">
    <ele>77.6</ele>
    <time>2018-01-27T07:56:08Z</time>
   </trkpt>
   <trkpt lat="12.9127500" lon="99.7054230">
    <ele>77.8</ele>
    <time>2018-01-27T07:56:09Z</time>
   </trkpt>
   <trkpt lat="12.9127320" lon="99.7053860">
    <ele>78.1</ele>
    <time>2018-01-27T07:56:11Z</time>
   </trkpt>
   <trkpt lat="12.9126800" lon="99.7053480">
    <ele>78.6</ele>
    <time>2018-01-27T07:56:13Z</time>
   </trkpt>
   <trkpt lat="12.9126580" lon="99.7053180">
    <ele>78.9</ele>
    <time>2018-01-27T07:56:14Z</time>
   </trkpt>
   <trkpt lat="12.9126500" lon="99.7052810">
    <ele>79.2</ele>
    <time>2018-01-27T07:56:15Z</time>
   </trkpt>
   <trkpt lat="12.9126430" lon="99.7052430">
    <ele>79.5</ele>
    <time>2018-01-27T07:56:16Z</time>
   </trkpt>
   <trkpt lat="12.9126390" lon="99.7052060">
    <ele>79.7</ele>
    <time>2018-01-27T07:56:17Z</time>
   </trkpt>
   <trkpt lat="12.9126300" lon="99.7051670">
    <ele>79.7</ele>
    <time>2018-01-27T07:56:18Z</time>
   </trkpt>
   <trkpt lat="12.9126260" lon="99.7051170">
    <ele>79.6</ele>
    <time>2018-01-27T07:56:19Z</time>
   </trkpt>
   <trkpt lat="12.9126060" lon="99.7050750">
    <ele>79.4</ele>
    <time>2018-01-27T07:56:20Z</time>
   </trkpt>
   <trkpt lat="12.9125940" lon="99.7050320">
    <ele>79.2</ele>
    <time>2018-01-27T07:56:21Z</time>
   </trkpt>
   <trkpt lat="12.9125830" lon="99.7049930">
    <ele>78.9</ele>
    <time>2018-01-27T07:56:22Z</time>
   </trkpt>
   <trkpt lat="12.9125750" lon="99.7049650">
    <ele>78.6</ele>
    <time>2018-01-27T07:56:23Z</time>
   </trkpt>
   <trkpt lat="12.9125650" lon="99.7049310">
    <ele>78.4</ele>
    <time>2018-01-27T07:56:24Z</time>
   </trkpt>
   <trkpt lat="12.9125410" lon="99.7048750">
    <ele>77.9</ele>
    <time>2018-01-27T07:56:25Z</time>
   </trkpt>
   <trkpt lat="12.9125150" lon="99.7048220">
    <ele>77.7</ele>
    <time>2018-01-27T07:56:26Z</time>
   </trkpt>
   <trkpt lat="12.9124920" lon="99.7047760">
    <ele>77.6</ele>
    <time>2018-01-27T07:56:27Z</time>
   </trkpt>
   <trkpt lat="12.9124680" lon="99.7047300">
    <ele>77.5</ele>
    <time>2018-01-27T07:56:28Z</time>
   </trkpt>
   <trkpt lat="12.9124440" lon="99.7046840">
    <ele>77.2</ele>
    <time>2018-01-27T07:56:29Z</time>
   </trkpt>
   <trkpt lat="12.9123220" lon="99.7044260">
    <ele>75.5</ele>
    <time>2018-01-27T07:56:32Z</time>
   </trkpt>
   <trkpt lat="12.9122990" lon="99.7043600">
    <ele>75.0</ele>
    <time>2018-01-27T07:56:33Z</time>
   </trkpt>
   <trkpt lat="12.9122800" lon="99.7042940">
    <ele>74.4</ele>
    <time>2018-01-27T07:56:34Z</time>
   </trkpt>
   <trkpt lat="12.9122760" lon="99.7042310">
    <ele>74.2</ele>
    <time>2018-01-27T07:56:35Z</time>
   </trkpt>
   <trkpt lat="12.9122690" lon="99.7041700">
    <ele>74.1</ele>
    <time>2018-01-27T07:56:36Z</time>
   </trkpt>
   <trkpt lat="12.9122620" lon="99.7041060">
    <ele>74.2</ele>
    <time>2018-01-27T07:56:37Z</time>
   </trkpt>
   <trkpt lat="12.9122540" lon="99.7040370">
    <ele>74.2</ele>
    <time>2018-01-27T07:56:38Z</time>
   </trkpt>
   <trkpt lat="12.9122520" lon="99.7039710">
    <ele>74.2</ele>
    <time>2018-01-27T07:56:39Z</time>
   </trkpt>
   <trkpt lat="12.9122310" lon="99.7039110">
    <ele>74.2</ele>
    <time>2018-01-27T07:56:40Z</time>
   </trkpt>
   <trkpt lat="12.9122190" lon="99.7038600">
    <ele>74.2</ele>
    <time>2018-01-27T07:56:41Z</time>
   </trkpt>
   <trkpt lat="12.9122060" lon="99.7038160">
    <ele>74.2</ele>
    <time>2018-01-27T07:56:42Z</time>
   </trkpt>
   <trkpt lat="12.9121880" lon="99.7037850">
    <ele>74.2</ele>
    <time>2018-01-27T07:56:43Z</time>
   </trkpt>
   <trkpt lat="12.9121560" lon="99.7037750">
    <ele>74.2</ele>
    <time>2018-01-27T07:56:44Z</time>
   </trkpt>
   <trkpt lat="12.9121170" lon="99.7037810">
    <ele>74.2</ele>
    <time>2018-01-27T07:56:45Z</time>
   </trkpt>
   <trkpt lat="12.9120630" lon="99.7038000">
    <ele>74.3</ele>
    <time>2018-01-27T07:56:46Z</time>
   </trkpt>
   <trkpt lat="12.9120090" lon="99.7038190">
    <ele>74.3</ele>
    <time>2018-01-27T07:56:47Z</time>
   </trkpt>
   <trkpt lat="12.9119460" lon="99.7038440">
    <ele>74.3</ele>
    <time>2018-01-27T07:56:48Z</time>
   </trkpt>
   <trkpt lat="12.9118920" lon="99.7038630">
    <ele>74.3</ele>
    <time>2018-01-27T07:56:49Z</time>
   </trkpt>
   <trkpt lat="12.9118290" lon="99.7038760">
    <ele>74.3</ele>
    <time>2018-01-27T07:56:50Z</time>
   </trkpt>
   <trkpt lat="12.9117700" lon="99.7038870">
    <ele>74.2</ele>
    <time>2018-01-27T07:56:51Z</time>
   </trkpt>
   <trkpt lat="12.9117100" lon="99.7038980">
    <ele>73.8</ele>
    <time>2018-01-27T07:56:52Z</time>
   </trkpt>
   <trkpt lat="12.9116420" lon="99.7039130">
    <ele>73.5</ele>
    <time>2018-01-27T07:56:53Z</time>
   </trkpt>
   <trkpt lat="12.9115700" lon="99.7039170">
    <ele>72.7</ele>
    <time>2018-01-27T07:56:54Z</time>
   </trkpt>
   <trkpt lat="12.9115080" lon="99.7039280">
    <ele>72.2</ele>
    <time>2018-01-27T07:56:55Z</time>
   </trkpt>
   <trkpt lat="12.9114380" lon="99.7039360">
    <ele>71.0</ele>
    <time>2018-01-27T07:56:56Z</time>
   </trkpt>
   <trkpt lat="12.9113580" lon="99.7039500">
    <ele>70.0</ele>
    <time>2018-01-27T07:56:57Z</time>
   </trkpt>
   <trkpt lat="12.9112930" lon="99.7039570">
    <ele>69.3</ele>
    <time>2018-01-27T07:56:58Z</time>
   </trkpt>
   <trkpt lat="12.9112200" lon="99.7039720">
    <ele>69.3</ele>
    <time>2018-01-27T07:56:59Z</time>
   </trkpt>
   <trkpt lat="12.9111490" lon="99.7039860">
    <ele>69.7</ele>
    <time>2018-01-27T07:57:00Z</time>
   </trkpt>
   <trkpt lat="12.9110850" lon="99.7039970">
    <ele>69.7</ele>
    <time>2018-01-27T07:57:01Z</time>
   </trkpt>
   <trkpt lat="12.9110070" lon="99.7040200">
    <ele>69.6</ele>
    <time>2018-01-27T07:57:02Z</time>
   </trkpt>
   <trkpt lat="12.9109420" lon="99.7040250">
    <ele>69.2</ele>
    <time>2018-01-27T07:57:03Z</time>
   </trkpt>
   <trkpt lat="12.9108780" lon="99.7040330">
    <ele>69.1</ele>
    <time>2018-01-27T07:57:04Z</time>
   </trkpt>
   <trkpt lat="12.9108170" lon="99.7040490">
    <ele>69.2</ele>
    <time>2018-01-27T07:57:05Z</time>
   </trkpt>
   <trkpt lat="12.9107520" lon="99.7040570">
    <ele>69.4</ele>
    <time>2018-01-27T07:57:06Z</time>
   </trkpt>
   <trkpt lat="12.9106880" lon="99.7040720">
    <ele>70.1</ele>
    <time>2018-01-27T07:57:07Z</time>
   </trkpt>
   <trkpt lat="12.9106230" lon="99.7040760">
    <ele>70.5</ele>
    <time>2018-01-27T07:57:08Z</time>
   </trkpt>
   <trkpt lat="12.9105540" lon="99.7040750">
    <ele>70.5</ele>
    <time>2018-01-27T07:57:09Z</time>
   </trkpt>
   <trkpt lat="12.9104810" lon="99.7040730">
    <ele>70.4</ele>
    <time>2018-01-27T07:57:10Z</time>
   </trkpt>
   <trkpt lat="12.9104120" lon="99.7040580">
    <ele>70.6</ele>
    <time>2018-01-27T07:57:11Z</time>
   </trkpt>
   <trkpt lat="12.9103450" lon="99.7040450">
    <ele>70.9</ele>
    <time>2018-01-27T07:57:12Z</time>
   </trkpt>
   <trkpt lat="12.9102770" lon="99.7040350">
    <ele>71.6</ele>
    <time>2018-01-27T07:57:13Z</time>
   </trkpt>
   <trkpt lat="12.9102080" lon="99.7040280">
    <ele>71.9</ele>
    <time>2018-01-27T07:57:14Z</time>
   </trkpt>
   <trkpt lat="12.9101480" lon="99.7040140">
    <ele>72.2</ele>
    <time>2018-01-27T07:57:15Z</time>
   </trkpt>
   <trkpt lat="12.9100800" lon="99.7040090">
    <ele>72.7</ele>
    <time>2018-01-27T07:57:16Z</time>
   </trkpt>
   <trkpt lat="12.9100030" lon="99.7039960">
    <ele>72.9</ele>
    <time>2018-01-27T07:57:17Z</time>
   </trkpt>
   <trkpt lat="12.9099510" lon="99.7039870">
    <ele>73.0</ele>
    <time>2018-01-27T07:57:18Z</time>
   </trkpt>
   <trkpt lat="12.9098770" lon="99.7039790">
    <ele>72.9</ele>
    <time>2018-01-27T07:57:19Z</time>
   </trkpt>
   <trkpt lat="12.9098240" lon="99.7039700">
    <ele>72.6</ele>
    <time>2018-01-27T07:57:20Z</time>
   </trkpt>
   <trkpt lat="12.9097660" lon="99.7039540">
    <ele>72.4</ele>
    <time>2018-01-27T07:57:21Z</time>
   </trkpt>
   <trkpt lat="12.9097140" lon="99.7039360">
    <ele>72.4</ele>
    <time>2018-01-27T07:57:22Z</time>
   </trkpt>
   <trkpt lat="12.9096880" lon="99.7039190">
    <ele>72.5</ele>
    <time>2018-01-27T07:57:23Z</time>
   </trkpt>
   <trkpt lat="12.9096660" lon="99.7038960">
    <ele>72.5</ele>
    <time>2018-01-27T07:57:24Z</time>
   </trkpt>
   <trkpt lat="12.9096480" lon="99.7038700">
    <ele>72.5</ele>
    <time>2018-01-27T07:57:25Z</time>
   </trkpt>
   <trkpt lat="12.9096370" lon="99.7038430">
    <ele>72.5</ele>
    <time>2018-01-27T07:57:26Z</time>
   </trkpt>
   <trkpt lat="12.9095930" lon="99.7038220">
    <ele>72.5</ele>
    <time>2018-01-27T07:57:28Z</time>
   </trkpt>
   <trkpt lat="12.9095840" lon="99.7037850">
    <ele>72.5</ele>
    <time>2018-01-27T07:57:31Z</time>
   </trkpt>
   <trkpt lat="12.9095960" lon="99.7037470">
    <ele>72.7</ele>
    <time>2018-01-27T07:57:33Z</time>
   </trkpt>
   <trkpt lat="12.9096060" lon="99.7037180">
    <ele>72.7</ele>
    <time>2018-01-27T07:57:35Z</time>
   </trkpt>
   <trkpt lat="12.9096110" lon="99.7036880">
    <ele>73.0</ele>
    <time>2018-01-27T07:57:37Z</time>
   </trkpt>
   <trkpt lat="12.9096210" lon="99.7036400">
    <ele>73.4</ele>
    <time>2018-01-27T07:57:39Z</time>
   </trkpt>
   <trkpt lat="12.9096230" lon="99.7036110">
    <ele>73.6</ele>
    <time>2018-01-27T07:57:40Z</time>
   </trkpt>
   <trkpt lat="12.9096240" lon="99.7035780">
    <ele>73.8</ele>
    <time>2018-01-27T07:57:41Z</time>
   </trkpt>
   <trkpt lat="12.9096250" lon="99.7035390">
    <ele>73.8</ele>
    <time>2018-01-27T07:57:42Z</time>
   </trkpt>
   <trkpt lat="12.9096250" lon="99.7034990">
    <ele>73.8</ele>
    <time>2018-01-27T07:57:43Z</time>
   </trkpt>
   <trkpt lat="12.9096260" lon="99.7034620">
    <ele>73.8</ele>
    <time>2018-01-27T07:57:44Z</time>
   </trkpt>
   <trkpt lat="12.9096270" lon="99.7034280">
    <ele>73.8</ele>
    <time>2018-01-27T07:57:45Z</time>
   </trkpt>
   <trkpt lat="12.9096250" lon="99.7033950">
    <ele>73.9</ele>
    <time>2018-01-27T07:57:46Z</time>
   </trkpt>
   <trkpt lat="12.9096280" lon="99.7033570">
    <ele>74.2</ele>
    <time>2018-01-27T07:57:47Z</time>
   </trkpt>
   <trkpt lat="12.9096190" lon="99.7033070">
    <ele>74.3</ele>
    <time>2018-01-27T07:57:49Z</time>
   </trkpt>
   <trkpt lat="12.9096060" lon="99.7032560">
    <ele>74.6</ele>
    <time>2018-01-27T07:57:51Z</time>
   </trkpt>
   <trkpt lat="12.9095910" lon="99.7032210">
    <ele>74.8</ele>
    <time>2018-01-27T07:57:52Z</time>
   </trkpt>
   <trkpt lat="12.9095810" lon="99.7031900">
    <ele>74.9</ele>
    <time>2018-01-27T07:57:53Z</time>
   </trkpt>
   <trkpt lat="12.9095670" lon="99.7031610">
    <ele>74.7</ele>
    <time>2018-01-27T07:57:54Z</time>
   </trkpt>
   <trkpt lat="12.9095490" lon="99.7031290">
    <ele>74.7</ele>
    <time>2018-01-27T07:57:55Z</time>
   </trkpt>
   <trkpt lat="12.9095280" lon="99.7030940">
    <ele>74.3</ele>
    <time>2018-01-27T07:57:56Z</time>
   </trkpt>
   <trkpt lat="12.9095010" lon="99.7030470">
    <ele>74.2</ele>
    <time>2018-01-27T07:57:57Z</time>
   </trkpt>
   <trkpt lat="12.9094770" lon="99.7029990">
    <ele>73.7</ele>
    <time>2018-01-27T07:57:58Z</time>
   </trkpt>
   <trkpt lat="12.9094680" lon="99.7029650">
    <ele>73.4</ele>
    <time>2018-01-27T07:57:59Z</time>
   </trkpt>
   <trkpt lat="12.9094640" lon="99.7029300">
    <ele>73.1</ele>
    <time>2018-01-27T07:58:00Z</time>
   </trkpt>
   <trkpt lat="12.9094640" lon="99.7029000">
    <ele>73.0</ele>
    <time>2018-01-27T07:58:01Z</time>
   </trkpt>
   <trkpt lat="12.9094490" lon="99.7029300">
    <ele>73.0</ele>
    <time>2018-01-27T07:58:21Z</time>
   </trkpt>
   <trkpt lat="12.9094390" lon="99.7029630">
    <ele>73.3</ele>
    <time>2018-01-27T07:58:23Z</time>
   </trkpt>
   <trkpt lat="12.9093900" lon="99.7029690">
    <ele>73.2</ele>
    <time>2018-01-27T07:58:25Z</time>
   </trkpt>
   <trkpt lat="12.9093630" lon="99.7029510">
    <ele>73.2</ele>
    <time>2018-01-27T07:58:26Z</time>
   </trkpt>
   <trkpt lat="12.9093410" lon="99.7029280">
    <ele>72.9</ele>
    <time>2018-01-27T07:58:27Z</time>
   </trkpt>
   <trkpt lat="12.9093190" lon="99.7029010">
    <ele>72.8</ele>
    <time>2018-01-27T07:58:28Z</time>
   </trkpt>
   <trkpt lat="12.9092960" lon="99.7028730">
    <ele>72.8</ele>
    <time>2018-01-27T07:58:29Z</time>
   </trkpt>
   <trkpt lat="12.9092730" lon="99.7028420">
    <ele>72.9</ele>
    <time>2018-01-27T07:58:30Z</time>
   </trkpt>
   <trkpt lat="12.9092520" lon="99.7028130">
    <ele>72.9</ele>
    <time>2018-01-27T07:58:31Z</time>
   </trkpt>
   <trkpt lat="12.9092270" lon="99.7027900">
    <ele>73.0</ele>
    <time>2018-01-27T07:58:32Z</time>
   </trkpt>
   <trkpt lat="12.9092020" lon="99.7027690">
    <ele>73.0</ele>
    <time>2018-01-27T07:58:33Z</time>
   </trkpt>
   <trkpt lat="12.9091770" lon="99.7027460">
    <ele>73.0</ele>
    <time>2018-01-27T07:58:34Z</time>
   </trkpt>
   <trkpt lat="12.9091450" lon="99.7027240">
    <ele>72.9</ele>
    <time>2018-01-27T07:58:35Z</time>
   </trkpt>
   <trkpt lat="12.9091140" lon="99.7027050">
    <ele>73.0</ele>
    <time>2018-01-27T07:58:36Z</time>
   </trkpt>
   <trkpt lat="12.9090860" lon="99.7026910">
    <ele>73.0</ele>
    <time>2018-01-27T07:58:37Z</time>
   </trkpt>
   <trkpt lat="12.9090570" lon="99.7026810">
    <ele>73.2</ele>
    <time>2018-01-27T07:58:38Z</time>
   </trkpt>
   <trkpt lat="12.9090250" lon="99.7026670">
    <ele>73.5</ele>
    <time>2018-01-27T07:58:39Z</time>
   </trkpt>
   <trkpt lat="12.9089960" lon="99.7026520">
    <ele>73.5</ele>
    <time>2018-01-27T07:58:40Z</time>
   </trkpt>
   <trkpt lat="12.9089480" lon="99.7026240">
    <ele>74.1</ele>
    <time>2018-01-27T07:58:42Z</time>
   </trkpt>
   <trkpt lat="12.9089260" lon="99.7026020">
    <ele>74.1</ele>
    <time>2018-01-27T07:58:43Z</time>
   </trkpt>
   <trkpt lat="12.9089090" lon="99.7025730">
    <ele>74.2</ele>
    <time>2018-01-27T07:58:44Z</time>
   </trkpt>
   <trkpt lat="12.9089000" lon="99.7025410">
    <ele>74.2</ele>
    <time>2018-01-27T07:58:45Z</time>
   </trkpt>
   <trkpt lat="12.9088920" lon="99.7025110">
    <ele>74.2</ele>
    <time>2018-01-27T07:58:46Z</time>
   </trkpt>
   <trkpt lat="12.9088750" lon="99.7024830">
    <ele>74.2</ele>
    <time>2018-01-27T07:58:47Z</time>
   </trkpt>
   <trkpt lat="12.9088510" lon="99.7024610">
    <ele>74.3</ele>
    <time>2018-01-27T07:58:48Z</time>
   </trkpt>
   <trkpt lat="12.9088100" lon="99.7024380">
    <ele>74.3</ele>
    <time>2018-01-27T07:58:50Z</time>
   </trkpt>
   <trkpt lat="12.9087600" lon="99.7024150">
    <ele>74.2</ele>
    <time>2018-01-27T07:58:52Z</time>
   </trkpt>
   <trkpt lat="12.9087130" lon="99.7024010">
    <ele>74.0</ele>
    <time>2018-01-27T07:58:54Z</time>
   </trkpt>
   <trkpt lat="12.9086810" lon="99.7024010">
    <ele>73.8</ele>
    <time>2018-01-27T07:58:55Z</time>
   </trkpt>
   <trkpt lat="12.9086480" lon="99.7024050">
    <ele>73.5</ele>
    <time>2018-01-27T07:58:56Z</time>
   </trkpt>
   <trkpt lat="12.9086130" lon="99.7024050">
    <ele>73.2</ele>
    <time>2018-01-27T07:58:57Z</time>
   </trkpt>
   <trkpt lat="12.9085790" lon="99.7023960">
    <ele>73.2</ele>
    <time>2018-01-27T07:58:58Z</time>
   </trkpt>
   <trkpt lat="12.9085460" lon="99.7023790">
    <ele>72.7</ele>
    <time>2018-01-27T07:58:59Z</time>
   </trkpt>
   <trkpt lat="12.9085130" lon="99.7023620">
    <ele>72.4</ele>
    <time>2018-01-27T07:59:00Z</time>
   </trkpt>
   <trkpt lat="12.9084830" lon="99.7023450">
    <ele>72.3</ele>
    <time>2018-01-27T07:59:01Z</time>
   </trkpt>
   <trkpt lat="12.9084510" lon="99.7023290">
    <ele>72.3</ele>
    <time>2018-01-27T07:59:02Z</time>
   </trkpt>
   <trkpt lat="12.9084210" lon="99.7023140">
    <ele>72.3</ele>
    <time>2018-01-27T07:59:03Z</time>
   </trkpt>
   <trkpt lat="12.9083880" lon="99.7022960">
    <ele>72.4</ele>
    <time>2018-01-27T07:59:04Z</time>
   </trkpt>
   <trkpt lat="12.9083560" lon="99.7022730">
    <ele>72.7</ele>
    <time>2018-01-27T07:59:05Z</time>
   </trkpt>
   <trkpt lat="12.9083270" lon="99.7022450">
    <ele>72.6</ele>
    <time>2018-01-27T07:59:06Z</time>
   </trkpt>
   <trkpt lat="12.9082960" lon="99.7022160">
    <ele>73.0</ele>
    <time>2018-01-27T07:59:07Z</time>
   </trkpt>
   <trkpt lat="12.9082650" lon="99.7021890">
    <ele>73.4</ele>
    <time>2018-01-27T07:59:08Z</time>
   </trkpt>
   <trkpt lat="12.9082320" lon="99.7021600">
    <ele>73.9</ele>
    <time>2018-01-27T07:59:09Z</time>
   </trkpt>
   <trkpt lat="12.9082070" lon="99.7021270">
    <ele>73.8</ele>
    <time>2018-01-27T07:59:10Z</time>
   </trkpt>
   <trkpt lat="12.9081840" lon="99.7020890">
    <ele>74.4</ele>
    <time>2018-01-27T07:59:11Z</time>
   </trkpt>
   <trkpt lat="12.9081620" lon="99.7020450">
    <ele>74.2</ele>
    <time>2018-01-27T07:59:12Z</time>
   </trkpt>
   <trkpt lat="12.9081450" lon="99.7019980">
    <ele>74.2</ele>
    <time>2018-01-27T07:59:13Z</time>
   </trkpt>
   <trkpt lat="12.9081300" lon="99.7019510">
    <ele>74.2</ele>
    <time>2018-01-27T07:59:14Z</time>
   </trkpt>
   <trkpt lat="12.9081120" lon="99.7018950">
    <ele>74.7</ele>
    <time>2018-01-27T07:59:15Z</time>
   </trkpt>
   <trkpt lat="12.9080690" lon="99.7018620">
    <ele>75.0</ele>
    <time>2018-01-27T07:59:16Z</time>
   </trkpt>
   <trkpt lat="12.9080580" lon="99.7018240">
    <ele>75.0</ele>
    <time>2018-01-27T07:59:17Z</time>
   </trkpt>
   <trkpt lat="12.9080480" lon="99.7017790">
    <ele>74.9</ele>
    <time>2018-01-27T07:59:18Z</time>
   </trkpt>
   <trkpt lat="12.9080470" lon="99.7017470">
    <ele>74.9</ele>
    <time>2018-01-27T07:59:19Z</time>
   </trkpt>
   <trkpt lat="12.9080480" lon="99.7017050">
    <ele>74.9</ele>
    <time>2018-01-27T07:59:20Z</time>
   </trkpt>
   <trkpt lat="12.9080500" lon="99.7016660">
    <ele>74.9</ele>
    <time>2018-01-27T07:59:21Z</time>
   </trkpt>
   <trkpt lat="12.9080640" lon="99.7016290">
    <ele>75.0</ele>
    <time>2018-01-27T07:59:22Z</time>
   </trkpt>
   <trkpt lat="12.9080760" lon="99.7015970">
    <ele>75.1</ele>
    <time>2018-01-27T07:59:23Z</time>
   </trkpt>
   <trkpt lat="12.9080590" lon="99.7015710">
    <ele>75.3</ele>
    <time>2018-01-27T07:59:24Z</time>
   </trkpt>
   <trkpt lat="12.9080600" lon="99.7015330">
    <ele>75.4</ele>
    <time>2018-01-27T07:59:25Z</time>
   </trkpt>
   <trkpt lat="12.9080680" lon="99.7014990">
    <ele>75.4</ele>
    <time>2018-01-27T07:59:26Z</time>
   </trkpt>
   <trkpt lat="12.9080720" lon="99.7014640">
    <ele>75.3</ele>
    <time>2018-01-27T07:59:27Z</time>
   </trkpt>
   <trkpt lat="12.9080720" lon="99.7014310">
    <ele>75.2</ele>
    <time>2018-01-27T07:59:28Z</time>
   </trkpt>
   <trkpt lat="12.9080750" lon="99.7013990">
    <ele>75.3</ele>
    <time>2018-01-27T07:59:29Z</time>
   </trkpt>
   <trkpt lat="12.9080810" lon="99.7013690">
    <ele>75.3</ele>
    <time>2018-01-27T07:59:30Z</time>
   </trkpt>
   <trkpt lat="12.9080910" lon="99.7013390">
    <ele>75.2</ele>
    <time>2018-01-27T07:59:31Z</time>
   </trkpt>
   <trkpt lat="12.9080990" lon="99.7013070">
    <ele>75.2</ele>
    <time>2018-01-27T07:59:32Z</time>
   </trkpt>
   <trkpt lat="12.9081020" lon="99.7012730">
    <ele>75.2</ele>
    <time>2018-01-27T07:59:33Z</time>
   </trkpt>
   <trkpt lat="12.9081010" lon="99.7012380">
    <ele>75.2</ele>
    <time>2018-01-27T07:59:34Z</time>
   </trkpt>
   <trkpt lat="12.9080980" lon="99.7012050">
    <ele>75.2</ele>
    <time>2018-01-27T07:59:35Z</time>
   </trkpt>
   <trkpt lat="12.9080920" lon="99.7011670">
    <ele>75.2</ele>
    <time>2018-01-27T07:59:36Z</time>
   </trkpt>
   <trkpt lat="12.9080900" lon="99.7011290">
    <ele>75.1</ele>
    <time>2018-01-27T07:59:37Z</time>
   </trkpt>
   <trkpt lat="12.9080950" lon="99.7010890">
    <ele>75.1</ele>
    <time>2018-01-27T07:59:38Z</time>
   </trkpt>
   <trkpt lat="12.9081070" lon="99.7010510">
    <ele>75.1</ele>
    <time>2018-01-27T07:59:39Z</time>
   </trkpt>
   <trkpt lat="12.9081120" lon="99.7010140">
    <ele>75.1</ele>
    <time>2018-01-27T07:59:40Z</time>
   </trkpt>
   <trkpt lat="12.9081050" lon="99.7009760">
    <ele>75.1</ele>
    <time>2018-01-27T07:59:41Z</time>
   </trkpt>
   <trkpt lat="12.9080990" lon="99.7009410">
    <ele>75.1</ele>
    <time>2018-01-27T07:59:42Z</time>
   </trkpt>
   <trkpt lat="12.9080930" lon="99.7009050">
    <ele>75.2</ele>
    <time>2018-01-27T07:59:43Z</time>
   </trkpt>
   <trkpt lat="12.9080860" lon="99.7008720">
    <ele>75.2</ele>
    <time>2018-01-27T07:59:44Z</time>
   </trkpt>
   <trkpt lat="12.9080840" lon="99.7008370">
    <ele>75.2</ele>
    <time>2018-01-27T07:59:45Z</time>
   </trkpt>
   <trkpt lat="12.9080840" lon="99.7008000">
    <ele>75.2</ele>
    <time>2018-01-27T07:59:46Z</time>
   </trkpt>
   <trkpt lat="12.9080820" lon="99.7007680">
    <ele>75.2</ele>
    <time>2018-01-27T07:59:47Z</time>
   </trkpt>
   <trkpt lat="12.9080760" lon="99.7007370">
    <ele>75.2</ele>
    <time>2018-01-27T07:59:48Z</time>
   </trkpt>
   <trkpt lat="12.9080700" lon="99.7007070">
    <ele>74.6</ele>
    <time>2018-01-27T07:59:49Z</time>
   </trkpt>
   <trkpt lat="12.9080640" lon="99.7006730">
    <ele>74.6</ele>
    <time>2018-01-27T07:59:50Z</time>
   </trkpt>
   <trkpt lat="12.9080570" lon="99.7006390">
    <ele>74.7</ele>
    <time>2018-01-27T07:59:51Z</time>
   </trkpt>
   <trkpt lat="12.9080550" lon="99.7006060">
    <ele>74.7</ele>
    <time>2018-01-27T07:59:52Z</time>
   </trkpt>
   <trkpt lat="12.9080600" lon="99.7005770">
    <ele>74.8</ele>
    <time>2018-01-27T07:59:53Z</time>
   </trkpt>
   <trkpt lat="12.9080680" lon="99.7005450">
    <ele>74.8</ele>
    <time>2018-01-27T07:59:54Z</time>
   </trkpt>
   <trkpt lat="12.9080720" lon="99.7005150">
    <ele>74.9</ele>
    <time>2018-01-27T07:59:55Z</time>
   </trkpt>
   <trkpt lat="12.9080570" lon="99.7004690">
    <ele>74.8</ele>
    <time>2018-01-27T07:59:57Z</time>
   </trkpt>
   <trkpt lat="12.9080070" lon="99.7004540">
    <ele>74.5</ele>
    <time>2018-01-27T07:59:59Z</time>
   </trkpt>
   <trkpt lat="12.9079620" lon="99.7004200">
    <ele>74.3</ele>
    <time>2018-01-27T08:00:01Z</time>
   </trkpt>
   <trkpt lat="12.9079420" lon="99.7003970">
    <ele>74.6</ele>
    <time>2018-01-27T08:00:02Z</time>
   </trkpt>
   <trkpt lat="12.9079270" lon="99.7003700">
    <ele>74.6</ele>
    <time>2018-01-27T08:00:03Z</time>
   </trkpt>
   <trkpt lat="12.9079090" lon="99.7003370">
    <ele>74.9</ele>
    <time>2018-01-27T08:00:04Z</time>
   </trkpt>
   <trkpt lat="12.9078960" lon="99.7003050">
    <ele>75.2</ele>
    <time>2018-01-27T08:00:05Z</time>
   </trkpt>
   <trkpt lat="12.9078890" lon="99.7002740">
    <ele>75.2</ele>
    <time>2018-01-27T08:00:06Z</time>
   </trkpt>
   <trkpt lat="12.9078880" lon="99.7002400">
    <ele>75.1</ele>
    <time>2018-01-27T08:00:07Z</time>
   </trkpt>
   <trkpt lat="12.9078900" lon="99.7002040">
    <ele>75.1</ele>
    <time>2018-01-27T08:00:08Z</time>
   </trkpt>
   <trkpt lat="12.9078870" lon="99.7001680">
    <ele>75.1</ele>
    <time>2018-01-27T08:00:09Z</time>
   </trkpt>
   <trkpt lat="12.9078800" lon="99.7001340">
    <ele>75.3</ele>
    <time>2018-01-27T08:00:10Z</time>
   </trkpt>
   <trkpt lat="12.9078710" lon="99.7000960">
    <ele>75.7</ele>
    <time>2018-01-27T08:00:12Z</time>
   </trkpt>
   <trkpt lat="12.9078640" lon="99.7000620">
    <ele>76.1</ele>
    <time>2018-01-27T08:00:13Z</time>
   </trkpt>
   <trkpt lat="12.9078600" lon="99.7000330">
    <ele>76.2</ele>
    <time>2018-01-27T08:00:14Z</time>
   </trkpt>
   <trkpt lat="12.9078550" lon="99.7000040">
    <ele>76.7</ele>
    <time>2018-01-27T08:00:15Z</time>
   </trkpt>
   <trkpt lat="12.9078470" lon="99.6999750">
    <ele>77.1</ele>
    <time>2018-01-27T08:00:16Z</time>
   </trkpt>
   <trkpt lat="12.9078300" lon="99.6999490">
    <ele>77.1</ele>
    <time>2018-01-27T08:00:17Z</time>
   </trkpt>
   <trkpt lat="12.9078070" lon="99.6999260">
    <ele>77.7</ele>
    <time>2018-01-27T08:00:18Z</time>
   </trkpt>
   <trkpt lat="12.9077810" lon="99.6999090">
    <ele>77.7</ele>
    <time>2018-01-27T08:00:19Z</time>
   </trkpt>
   <trkpt lat="12.9077540" lon="99.6998940">
    <ele>78.4</ele>
    <time>2018-01-27T08:00:20Z</time>
   </trkpt>
   <trkpt lat="12.9077280" lon="99.6998760">
    <ele>78.7</ele>
    <time>2018-01-27T08:00:21Z</time>
   </trkpt>
   <trkpt lat="12.9077010" lon="99.6998540">
    <ele>79.2</ele>
    <time>2018-01-27T08:00:22Z</time>
   </trkpt>
   <trkpt lat="12.9076730" lon="99.6998320">
    <ele>79.5</ele>
    <time>2018-01-27T08:00:23Z</time>
   </trkpt>
   <trkpt lat="12.9076430" lon="99.6998120">
    <ele>79.8</ele>
    <time>2018-01-27T08:00:24Z</time>
   </trkpt>
   <trkpt lat="12.9076120" lon="99.6997920">
    <ele>80.7</ele>
    <time>2018-01-27T08:00:25Z</time>
   </trkpt>
   <trkpt lat="12.9075820" lon="99.6997730">
    <ele>80.7</ele>
    <time>2018-01-27T08:00:26Z</time>
   </trkpt>
   <trkpt lat="12.9075500" lon="99.6997550">
    <ele>81.6</ele>
    <time>2018-01-27T08:00:27Z</time>
   </trkpt>
   <trkpt lat="12.9075170" lon="99.6997420">
    <ele>82.1</ele>
    <time>2018-01-27T08:00:28Z</time>
   </trkpt>
   <trkpt lat="12.9074810" lon="99.6997400">
    <ele>82.5</ele>
    <time>2018-01-27T08:00:29Z</time>
   </trkpt>
   <trkpt lat="12.9074420" lon="99.6997450">
    <ele>82.7</ele>
    <time>2018-01-27T08:00:30Z</time>
   </trkpt>
   <trkpt lat="12.9074030" lon="99.6997520">
    <ele>82.8</ele>
    <time>2018-01-27T08:00:31Z</time>
   </trkpt>
   <trkpt lat="12.9073630" lon="99.6997570">
    <ele>82.8</ele>
    <time>2018-01-27T08:00:32Z</time>
   </trkpt>
   <trkpt lat="12.9073210" lon="99.6997560">
    <ele>82.7</ele>
    <time>2018-01-27T08:00:33Z</time>
   </trkpt>
   <trkpt lat="12.9072770" lon="99.6997520">
    <ele>82.4</ele>
    <time>2018-01-27T08:00:34Z</time>
   </trkpt>
   <trkpt lat="12.9072320" lon="99.6997470">
    <ele>82.2</ele>
    <time>2018-01-27T08:00:35Z</time>
   </trkpt>
   <trkpt lat="12.9071830" lon="99.6997440">
    <ele>82.0</ele>
    <time>2018-01-27T08:00:36Z</time>
   </trkpt>
   <trkpt lat="12.9071350" lon="99.6997430">
    <ele>81.7</ele>
    <time>2018-01-27T08:00:37Z</time>
   </trkpt>
   <trkpt lat="12.9070870" lon="99.6997440">
    <ele>81.4</ele>
    <time>2018-01-27T08:00:38Z</time>
   </trkpt>
   <trkpt lat="12.9070410" lon="99.6997440">
    <ele>81.0</ele>
    <time>2018-01-27T08:00:39Z</time>
   </trkpt>
   <trkpt lat="12.9069960" lon="99.6997450">
    <ele>80.6</ele>
    <time>2018-01-27T08:00:40Z</time>
   </trkpt>
   <trkpt lat="12.9069530" lon="99.6997490">
    <ele>80.2</ele>
    <time>2018-01-27T08:00:41Z</time>
   </trkpt>
   <trkpt lat="12.9069110" lon="99.6997490">
    <ele>79.9</ele>
    <time>2018-01-27T08:00:42Z</time>
   </trkpt>
   <trkpt lat="12.9068700" lon="99.6997490">
    <ele>79.7</ele>
    <time>2018-01-27T08:00:43Z</time>
   </trkpt>
   <trkpt lat="12.9068300" lon="99.6997520">
    <ele>79.6</ele>
    <time>2018-01-27T08:00:44Z</time>
   </trkpt>
   <trkpt lat="12.9067970" lon="99.6997570">
    <ele>79.6</ele>
    <time>2018-01-27T08:00:45Z</time>
   </trkpt>
   <trkpt lat="12.9067650" lon="99.6997610">
    <ele>79.8</ele>
    <time>2018-01-27T08:00:46Z</time>
   </trkpt>
   <trkpt lat="12.9067290" lon="99.6997620">
    <ele>80.1</ele>
    <time>2018-01-27T08:00:47Z</time>
   </trkpt>
   <trkpt lat="12.9066930" lon="99.6997620">
    <ele>80.1</ele>
    <time>2018-01-27T08:00:48Z</time>
   </trkpt>
   <trkpt lat="12.9066590" lon="99.6997620">
    <ele>80.4</ele>
    <time>2018-01-27T08:00:49Z</time>
   </trkpt>
   <trkpt lat="12.9066320" lon="99.6997640">
    <ele>80.8</ele>
    <time>2018-01-27T08:00:50Z</time>
   </trkpt>
   <trkpt lat="12.9065900" lon="99.6997730">
    <ele>80.7</ele>
    <time>2018-01-27T08:00:52Z</time>
   </trkpt>
   <trkpt lat="12.9065590" lon="99.6997760">
    <ele>80.8</ele>
    <time>2018-01-27T08:00:53Z</time>
   </trkpt>
   <trkpt lat="12.9065270" lon="99.6997760">
    <ele>80.9</ele>
    <time>2018-01-27T08:00:54Z</time>
   </trkpt>
   <trkpt lat="12.9064990" lon="99.6997740">
    <ele>81.0</ele>
    <time>2018-01-27T08:00:55Z</time>
   </trkpt>
   <trkpt lat="12.9064580" lon="99.6997760">
    <ele>81.3</ele>
    <time>2018-01-27T08:00:57Z</time>
   </trkpt>
   <trkpt lat="12.9064310" lon="99.6997890">
    <ele>81.7</ele>
    <time>2018-01-27T08:00:58Z</time>
   </trkpt>
   <trkpt lat="12.9064040" lon="99.6998300">
    <ele>81.6</ele>
    <time>2018-01-27T08:01:00Z</time>
   </trkpt>
   <trkpt lat="12.9064320" lon="99.6998400">
    <ele>81.6</ele>
    <time>2018-01-27T08:01:05Z</time>
   </trkpt>
   <trkpt lat="12.9064540" lon="99.6998230">
    <ele>81.2</ele>
    <time>2018-01-27T08:01:08Z</time>
   </trkpt>
   <trkpt lat="12.9064700" lon="99.6997930">
    <ele>81.4</ele>
    <time>2018-01-27T08:01:14Z</time>
   </trkpt>
   <trkpt lat="12.9064350" lon="99.6997940">
    <ele>81.8</ele>
    <time>2018-01-27T08:01:19Z</time>
   </trkpt>
   <trkpt lat="12.9064500" lon="99.6997450">
    <ele>81.6</ele>
    <time>2018-01-27T08:01:24Z</time>
   </trkpt>
   <trkpt lat="12.9064270" lon="99.6997210">
    <ele>82.2</ele>
    <time>2018-01-27T08:01:27Z</time>
   </trkpt>
   <trkpt lat="12.9064000" lon="99.6997130">
    <ele>82.3</ele>
    <time>2018-01-27T08:01:29Z</time>
   </trkpt>
   <trkpt lat="12.9063730" lon="99.6997120">
    <ele>82.6</ele>
    <time>2018-01-27T08:01:31Z</time>
   </trkpt>
   <trkpt lat="12.9063490" lon="99.6997330">
    <ele>83.0</ele>
    <time>2018-01-27T08:01:35Z</time>
   </trkpt>
   <trkpt lat="12.9063410" lon="99.6997050">
    <ele>83.0</ele>
    <time>2018-01-27T08:01:48Z</time>
   </trkpt>
   <trkpt lat="12.9063120" lon="99.6997060">
    <ele>83.4</ele>
    <time>2018-01-27T08:01:55Z</time>
   </trkpt>
   <trkpt lat="12.9062830" lon="99.6996900">
    <ele>83.4</ele>
    <time>2018-01-27T08:01:57Z</time>
   </trkpt>
   <trkpt lat="12.9062400" lon="99.6996780">
    <ele>83.6</ele>
    <time>2018-01-27T08:01:59Z</time>
   </trkpt>
   <trkpt lat="12.9062100" lon="99.6996780">
    <ele>83.7</ele>
    <time>2018-01-27T08:02:01Z</time>
   </trkpt>
   <trkpt lat="12.9061640" lon="99.6996800">
    <ele>83.7</ele>
    <time>2018-01-27T08:02:03Z</time>
   </trkpt>
   <trkpt lat="12.9061370" lon="99.6996820">
    <ele>83.6</ele>
    <time>2018-01-27T08:02:05Z</time>
   </trkpt>
   <trkpt lat="12.9061060" lon="99.6996760">
    <ele>83.3</ele>
    <time>2018-01-27T08:02:08Z</time>
   </trkpt>
   <trkpt lat="12.9060770" lon="99.6996700">
    <ele>83.3</ele>
    <time>2018-01-27T08:02:10Z</time>
   </trkpt>
   <trkpt lat="12.9060400" lon="99.6996600">
    <ele>82.8</ele>
    <time>2018-01-27T08:02:12Z</time>
   </trkpt>
   <trkpt lat="12.9060690" lon="99.6996680">
    <ele>83.3</ele>
    <time>2018-01-27T08:02:23Z</time>
   </trkpt>
   <trkpt lat="12.9060890" lon="99.6996460">
    <ele>83.3</ele>
    <time>2018-01-27T08:02:28Z</time>
   </trkpt>
   <trkpt lat="12.9061020" lon="99.6996140">
    <ele>83.3</ele>
    <time>2018-01-27T08:02:30Z</time>
   </trkpt>
   <trkpt lat="12.9060750" lon="99.6995970">
    <ele>83.3</ele>
    <time>2018-01-27T08:02:32Z</time>
   </trkpt>
   <trkpt lat="12.9060460" lon="99.6996130">
    <ele>82.9</ele>
    <time>2018-01-27T08:02:34Z</time>
   </trkpt>
   <trkpt lat="12.9060170" lon="99.6996430">
    <ele>82.4</ele>
    <time>2018-01-27T08:02:36Z</time>
   </trkpt>
   <trkpt lat="12.9059850" lon="99.6996490">
    <ele>82.4</ele>
    <time>2018-01-27T08:02:38Z</time>
   </trkpt>
   <trkpt lat="12.9059590" lon="99.6996560">
    <ele>81.8</ele>
    <time>2018-01-27T08:02:40Z</time>
   </trkpt>
   <trkpt lat="12.9059230" lon="99.6996610">
    <ele>81.2</ele>
    <time>2018-01-27T08:02:43Z</time>
   </trkpt>
   <trkpt lat="12.9058890" lon="99.6996650">
    <ele>80.7</ele>
    <time>2018-01-27T08:02:48Z</time>
   </trkpt>
   <trkpt lat="12.9058670" lon="99.6996830">
    <ele>80.7</ele>
    <time>2018-01-27T08:02:55Z</time>
   </trkpt>
   <trkpt lat="12.9058400" lon="99.6996790">
    <ele>80.2</ele>
    <time>2018-01-27T08:02:59Z</time>
   </trkpt>
   <trkpt lat="12.9058040" lon="99.6996680">
    <ele>79.8</ele>
    <time>2018-01-27T08:03:02Z</time>
   </trkpt>
   <trkpt lat="12.9057630" lon="99.6996700">
    <ele>79.4</ele>
    <time>2018-01-27T08:03:04Z</time>
   </trkpt>
   <trkpt lat="12.9057220" lon="99.6996770">
    <ele>79.1</ele>
    <time>2018-01-27T08:03:06Z</time>
   </trkpt>
   <trkpt lat="12.9056850" lon="99.6996810">
    <ele>78.9</ele>
    <time>2018-01-27T08:03:08Z</time>
   </trkpt>
   <trkpt lat="12.9056470" lon="99.6996770">
    <ele>78.9</ele>
    <time>2018-01-27T08:03:10Z</time>
   </trkpt>
   <trkpt lat="12.9055900" lon="99.6996710">
    <ele>78.6</ele>
    <time>2018-01-27T08:03:12Z</time>
   </trkpt>
   <trkpt lat="12.9055580" lon="99.6996680">
    <ele>78.6</ele>
    <time>2018-01-27T08:03:13Z</time>
   </trkpt>
   <trkpt lat="12.9055300" lon="99.6996670">
    <ele>78.6</ele>
    <time>2018-01-27T08:03:14Z</time>
   </trkpt>
   <trkpt lat="12.9055010" lon="99.6996660">
    <ele>78.6</ele>
    <time>2018-01-27T08:03:15Z</time>
   </trkpt>
   <trkpt lat="12.9054710" lon="99.6996660">
    <ele>78.6</ele>
    <time>2018-01-27T08:03:16Z</time>
   </trkpt>
   <trkpt lat="12.9054390" lon="99.6996660">
    <ele>78.6</ele>
    <time>2018-01-27T08:03:17Z</time>
   </trkpt>
   <trkpt lat="12.9054110" lon="99.6996650">
    <ele>78.8</ele>
    <time>2018-01-27T08:03:18Z</time>
   </trkpt>
   <trkpt lat="12.9053600" lon="99.6996620">
    <ele>78.9</ele>
    <time>2018-01-27T08:03:20Z</time>
   </trkpt>
   <trkpt lat="12.9053320" lon="99.6996600">
    <ele>79.2</ele>
    <time>2018-01-27T08:03:21Z</time>
   </trkpt>
   <trkpt lat="12.9053020" lon="99.6996580">
    <ele>79.6</ele>
    <time>2018-01-27T08:03:22Z</time>
   </trkpt>
   <trkpt lat="12.9052740" lon="99.6996590">
    <ele>79.6</ele>
    <time>2018-01-27T08:03:23Z</time>
   </trkpt>
   <trkpt lat="12.9052210" lon="99.6996600">
    <ele>80.6</ele>
    <time>2018-01-27T08:03:25Z</time>
   </trkpt>
   <trkpt lat="12.9051930" lon="99.6996580">
    <ele>80.6</ele>
    <time>2018-01-27T08:03:26Z</time>
   </trkpt>
   <trkpt lat="12.9051650" lon="99.6996540">
    <ele>81.2</ele>
    <time>2018-01-27T08:03:27Z</time>
   </trkpt>
   <trkpt lat="12.9051160" lon="99.6996460">
    <ele>81.7</ele>
    <time>2018-01-27T08:03:29Z</time>
   </trkpt>
   <trkpt lat="12.9050680" lon="99.6996440">
    <ele>82.1</ele>
    <time>2018-01-27T08:03:31Z</time>
   </trkpt>
   <trkpt lat="12.9050170" lon="99.6996440">
    <ele>82.6</ele>
    <time>2018-01-27T08:03:33Z</time>
   </trkpt>
   <trkpt lat="12.9049640" lon="99.6996440">
    <ele>82.8</ele>
    <time>2018-01-27T08:03:35Z</time>
   </trkpt>
   <trkpt lat="12.9049340" lon="99.6996420">
    <ele>83.0</ele>
    <time>2018-01-27T08:03:36Z</time>
   </trkpt>
   <trkpt lat="12.9049040" lon="99.6996390">
    <ele>83.0</ele>
    <time>2018-01-27T08:03:37Z</time>
   </trkpt>
   <trkpt lat="12.9048740" lon="99.6996370">
    <ele>83.3</ele>
    <time>2018-01-27T08:03:38Z</time>
   </trkpt>
   <trkpt lat="12.9048440" lon="99.6996360">
    <ele>83.6</ele>
    <time>2018-01-27T08:03:39Z</time>
   </trkpt>
   <trkpt lat="12.9048100" lon="99.6996340">
    <ele>83.6</ele>
    <time>2018-01-27T08:03:40Z</time>
   </trkpt>
   <trkpt lat="12.9047750" lon="99.6996320">
    <ele>83.9</ele>
    <time>2018-01-27T08:03:41Z</time>
   </trkpt>
   <trkpt lat="12.9047400" lon="99.6996270">
    <ele>84.3</ele>
    <time>2018-01-27T08:03:42Z</time>
   </trkpt>
   <trkpt lat="12.9047080" lon="99.6996190">
    <ele>84.6</ele>
    <time>2018-01-27T08:03:43Z</time>
   </trkpt>
   <trkpt lat="12.9046790" lon="99.6996130">
    <ele>84.9</ele>
    <time>2018-01-27T08:03:44Z</time>
   </trkpt>
   <trkpt lat="12.9046480" lon="99.6996120">
    <ele>84.9</ele>
    <time>2018-01-27T08:03:45Z</time>
   </trkpt>
   <trkpt lat="12.9046140" lon="99.6996150">
    <ele>85.1</ele>
    <time>2018-01-27T08:03:46Z</time>
   </trkpt>
   <trkpt lat="12.9045830" lon="99.6996200">
    <ele>85.3</ele>
    <time>2018-01-27T08:03:47Z</time>
   </trkpt>
   <trkpt lat="12.9045540" lon="99.6996210">
    <ele>85.4</ele>
    <time>2018-01-27T08:03:48Z</time>
   </trkpt>
   <trkpt lat="12.9045230" lon="99.6996180">
    <ele>85.5</ele>
    <time>2018-01-27T08:03:49Z</time>
   </trkpt>
   <trkpt lat="12.9044870" lon="99.6996090">
    <ele>85.6</ele>
    <time>2018-01-27T08:03:50Z</time>
   </trkpt>
   <trkpt lat="12.9044570" lon="99.6995970">
    <ele>86.3</ele>
    <time>2018-01-27T08:03:51Z</time>
   </trkpt>
   <trkpt lat="12.9044290" lon="99.6995890">
    <ele>86.8</ele>
    <time>2018-01-27T08:03:52Z</time>
   </trkpt>
   <trkpt lat="12.9043980" lon="99.6995850">
    <ele>86.8</ele>
    <time>2018-01-27T08:03:53Z</time>
   </trkpt>
   <trkpt lat="12.9043630" lon="99.6995890">
    <ele>87.4</ele>
    <time>2018-01-27T08:03:54Z</time>
   </trkpt>
   <trkpt lat="12.9043330" lon="99.6995930">
    <ele>88.1</ele>
    <time>2018-01-27T08:03:55Z</time>
   </trkpt>
   <trkpt lat="12.9043040" lon="99.6995930">
    <ele>88.8</ele>
    <time>2018-01-27T08:03:56Z</time>
   </trkpt>
   <trkpt lat="12.9042730" lon="99.6995890">
    <ele>88.9</ele>
    <time>2018-01-27T08:03:57Z</time>
   </trkpt>
   <trkpt lat="12.9042420" lon="99.6995840">
    <ele>89.5</ele>
    <time>2018-01-27T08:03:58Z</time>
   </trkpt>
   <trkpt lat="12.9041930" lon="99.6995840">
    <ele>89.9</ele>
    <time>2018-01-27T08:04:00Z</time>
   </trkpt>
   <trkpt lat="12.9041490" lon="99.6995790">
    <ele>90.2</ele>
    <time>2018-01-27T08:04:01Z</time>
   </trkpt>
   <trkpt lat="12.9041180" lon="99.6995770">
    <ele>90.3</ele>
    <time>2018-01-27T08:04:02Z</time>
   </trkpt>
   <trkpt lat="12.9040870" lon="99.6995740">
    <ele>90.2</ele>
    <time>2018-01-27T08:04:03Z</time>
   </trkpt>
   <trkpt lat="12.9040520" lon="99.6995750">
    <ele>90.0</ele>
    <time>2018-01-27T08:04:04Z</time>
   </trkpt>
   <trkpt lat="12.9040190" lon="99.6995710">
    <ele>90.0</ele>
    <time>2018-01-27T08:04:05Z</time>
   </trkpt>
   <trkpt lat="12.9039830" lon="99.6995690">
    <ele>89.6</ele>
    <time>2018-01-27T08:04:06Z</time>
   </trkpt>
   <trkpt lat="12.9039450" lon="99.6995660">
    <ele>89.3</ele>
    <time>2018-01-27T08:04:07Z</time>
   </trkpt>
   <trkpt lat="12.9038910" lon="99.6995670">
    <ele>88.9</ele>
    <time>2018-01-27T08:04:09Z</time>
   </trkpt>
   <trkpt lat="12.9038590" lon="99.6995650">
    <ele>88.6</ele>
    <time>2018-01-27T08:04:10Z</time>
   </trkpt>
   <trkpt lat="12.9038280" lon="99.6995600">
    <ele>88.4</ele>
    <time>2018-01-27T08:04:11Z</time>
   </trkpt>
   <trkpt lat="12.9037920" lon="99.6995560">
    <ele>88.2</ele>
    <time>2018-01-27T08:04:12Z</time>
   </trkpt>
   <trkpt lat="12.9037550" lon="99.6995580">
    <ele>88.0</ele>
    <time>2018-01-27T08:04:13Z</time>
   </trkpt>
   <trkpt lat="12.9037210" lon="99.6995580">
    <ele>88.0</ele>
    <time>2018-01-27T08:04:14Z</time>
   </trkpt>
   <trkpt lat="12.9036880" lon="99.6995520">
    <ele>87.9</ele>
    <time>2018-01-27T08:04:15Z</time>
   </trkpt>
   <trkpt lat="12.9036540" lon="99.6995450">
    <ele>87.7</ele>
    <time>2018-01-27T08:04:16Z</time>
   </trkpt>
   <trkpt lat="12.9036190" lon="99.6995430">
    <ele>87.6</ele>
    <time>2018-01-27T08:04:17Z</time>
   </trkpt>
   <trkpt lat="12.9035860" lon="99.6995430">
    <ele>87.5</ele>
    <time>2018-01-27T08:04:18Z</time>
   </trkpt>
   <trkpt lat="12.9035530" lon="99.6995380">
    <ele>87.6</ele>
    <time>2018-01-27T08:04:19Z</time>
   </trkpt>
   <trkpt lat="12.9035350" lon="99.6994930">
    <ele>87.3</ele>
    <time>2018-01-27T08:04:21Z</time>
   </trkpt>
   <trkpt lat="12.9035460" lon="99.6994600">
    <ele>87.1</ele>
    <time>2018-01-27T08:04:22Z</time>
   </trkpt>
   <trkpt lat="12.9035590" lon="99.6994300">
    <ele>87.1</ele>
    <time>2018-01-27T08:04:23Z</time>
   </trkpt>
   <trkpt lat="12.9035700" lon="99.6994010">
    <ele>87.1</ele>
    <time>2018-01-27T08:04:24Z</time>
   </trkpt>
   <trkpt lat="12.9035790" lon="99.6993700">
    <ele>87.1</ele>
    <time>2018-01-27T08:04:25Z</time>
   </trkpt>
   <trkpt lat="12.9035830" lon="99.6993320">
    <ele>87.2</ele>
    <time>2018-01-27T08:04:26Z</time>
   </trkpt>
   <trkpt lat="12.9035840" lon="99.6992950">
    <ele>87.2</ele>
    <time>2018-01-27T08:04:27Z</time>
   </trkpt>
   <trkpt lat="12.9035810" lon="99.6992630">
    <ele>87.2</ele>
    <time>2018-01-27T08:04:28Z</time>
   </trkpt>
   <trkpt lat="12.9035790" lon="99.6992340">
    <ele>87.2</ele>
    <time>2018-01-27T08:04:29Z</time>
   </trkpt>
   <trkpt lat="12.9035820" lon="99.6992020">
    <ele>87.2</ele>
    <time>2018-01-27T08:04:30Z</time>
   </trkpt>
   <trkpt lat="12.9035840" lon="99.6991680">
    <ele>87.2</ele>
    <time>2018-01-27T08:04:31Z</time>
   </trkpt>
   <trkpt lat="12.9035870" lon="99.6991350">
    <ele>87.0</ele>
    <time>2018-01-27T08:04:32Z</time>
   </trkpt>
   <trkpt lat="12.9035800" lon="99.6991060">
    <ele>86.9</ele>
    <time>2018-01-27T08:04:33Z</time>
   </trkpt>
   <trkpt lat="12.9035650" lon="99.6990820">
    <ele>86.8</ele>
    <time>2018-01-27T08:04:34Z</time>
   </trkpt>
   <trkpt lat="12.9035430" lon="99.6990330">
    <ele>86.8</ele>
    <time>2018-01-27T08:04:36Z</time>
   </trkpt>
   <trkpt lat="12.9035400" lon="99.6990040">
    <ele>86.8</ele>
    <time>2018-01-27T08:04:37Z</time>
   </trkpt>
   <trkpt lat="12.9035400" lon="99.6989480">
    <ele>87.0</ele>
    <time>2018-01-27T08:04:39Z</time>
   </trkpt>
   <trkpt lat="12.9035380" lon="99.6989150">
    <ele>87.2</ele>
    <time>2018-01-27T08:04:40Z</time>
   </trkpt>
   <trkpt lat="12.9035320" lon="99.6988860">
    <ele>87.3</ele>
    <time>2018-01-27T08:04:41Z</time>
   </trkpt>
   <trkpt lat="12.9035230" lon="99.6988580">
    <ele>87.5</ele>
    <time>2018-01-27T08:04:42Z</time>
   </trkpt>
   <trkpt lat="12.9035070" lon="99.6988260">
    <ele>87.8</ele>
    <time>2018-01-27T08:04:44Z</time>
   </trkpt>
   <trkpt lat="12.9034910" lon="99.6987810">
    <ele>88.1</ele>
    <time>2018-01-27T08:04:46Z</time>
   </trkpt>
   <trkpt lat="12.9034800" lon="99.6987350">
    <ele>88.3</ele>
    <time>2018-01-27T08:04:48Z</time>
   </trkpt>
   <trkpt lat="12.9034790" lon="99.6986880">
    <ele>88.9</ele>
    <time>2018-01-27T08:04:50Z</time>
   </trkpt>
   <trkpt lat="12.9034770" lon="99.6986370">
    <ele>89.6</ele>
    <time>2018-01-27T08:04:52Z</time>
   </trkpt>
   <trkpt lat="12.9034640" lon="99.6985780">
    <ele>89.9</ele>
    <time>2018-01-27T08:04:54Z</time>
   </trkpt>
   <trkpt lat="12.9034560" lon="99.6985460">
    <ele>90.0</ele>
    <time>2018-01-27T08:04:55Z</time>
   </trkpt>
   <trkpt lat="12.9034400" lon="99.6984930">
    <ele>89.9</ele>
    <time>2018-01-27T08:04:57Z</time>
   </trkpt>
   <trkpt lat="12.9034230" lon="99.6984490">
    <ele>89.8</ele>
    <time>2018-01-27T08:04:59Z</time>
   </trkpt>
   <trkpt lat="12.9034140" lon="99.6984210">
    <ele>89.9</ele>
    <time>2018-01-27T08:05:00Z</time>
   </trkpt>
   <trkpt lat="12.9034020" lon="99.6983860">
    <ele>90.1</ele>
    <time>2018-01-27T08:05:01Z</time>
   </trkpt>
   <trkpt lat="12.9033900" lon="99.6983510">
    <ele>90.2</ele>
    <time>2018-01-27T08:05:02Z</time>
   </trkpt>
   <trkpt lat="12.9033800" lon="99.6983220">
    <ele>90.5</ele>
    <time>2018-01-27T08:05:03Z</time>
   </trkpt>
   <trkpt lat="12.9033740" lon="99.6982940">
    <ele>90.7</ele>
    <time>2018-01-27T08:05:04Z</time>
   </trkpt>
   <trkpt lat="12.9033670" lon="99.6982620">
    <ele>90.9</ele>
    <time>2018-01-27T08:05:05Z</time>
   </trkpt>
   <trkpt lat="12.9033590" lon="99.6982240">
    <ele>91.1</ele>
    <time>2018-01-27T08:05:06Z</time>
   </trkpt>
   <trkpt lat="12.9033520" lon="99.6981900">
    <ele>91.2</ele>
    <time>2018-01-27T08:05:07Z</time>
   </trkpt>
   <trkpt lat="12.9033370" lon="99.6981550">
    <ele>91.1</ele>
    <time>2018-01-27T08:05:08Z</time>
   </trkpt>
   <trkpt lat="12.9033150" lon="99.6981130">
    <ele>90.8</ele>
    <time>2018-01-27T08:05:09Z</time>
   </trkpt>
   <trkpt lat="12.9032980" lon="99.6980840">
    <ele>90.5</ele>
    <time>2018-01-27T08:05:10Z</time>
   </trkpt>
   <trkpt lat="12.9032760" lon="99.6980320">
    <ele>90.1</ele>
    <time>2018-01-27T08:05:12Z</time>
   </trkpt>
   <trkpt lat="12.9032630" lon="99.6979990">
    <ele>89.8</ele>
    <time>2018-01-27T08:05:13Z</time>
   </trkpt>
   <trkpt lat="12.9032500" lon="99.6979710">
    <ele>89.6</ele>
    <time>2018-01-27T08:05:14Z</time>
   </trkpt>
   <trkpt lat="12.9032370" lon="99.6979410">
    <ele>89.4</ele>
    <time>2018-01-27T08:05:15Z</time>
   </trkpt>
   <trkpt lat="12.9032250" lon="99.6979020">
    <ele>89.3</ele>
    <time>2018-01-27T08:05:16Z</time>
   </trkpt>
   <trkpt lat="12.9032140" lon="99.6978610">
    <ele>89.1</ele>
    <time>2018-01-27T08:05:17Z</time>
   </trkpt>
   <trkpt lat="12.9032060" lon="99.6978220">
    <ele>89.0</ele>
    <time>2018-01-27T08:05:18Z</time>
   </trkpt>
   <trkpt lat="12.9032010" lon="99.6977870">
    <ele>89.1</ele>
    <time>2018-01-27T08:05:19Z</time>
   </trkpt>
   <trkpt lat="12.9031940" lon="99.6977520">
    <ele>89.1</ele>
    <time>2018-01-27T08:05:20Z</time>
   </trkpt>
   <trkpt lat="12.9031910" lon="99.6977130">
    <ele>89.1</ele>
    <time>2018-01-27T08:05:21Z</time>
   </trkpt>
   <trkpt lat="12.9031700" lon="99.6976780">
    <ele>89.1</ele>
    <time>2018-01-27T08:05:22Z</time>
   </trkpt>
   <trkpt lat="12.9031680" lon="99.6976380">
    <ele>89.1</ele>
    <time>2018-01-27T08:05:23Z</time>
   </trkpt>
   <trkpt lat="12.9031640" lon="99.6975980">
    <ele>89.2</ele>
    <time>2018-01-27T08:05:24Z</time>
   </trkpt>
   <trkpt lat="12.9031580" lon="99.6975640">
    <ele>89.2</ele>
    <time>2018-01-27T08:05:26Z</time>
   </trkpt>
   <trkpt lat="12.9031470" lon="99.6975100">
    <ele>89.1</ele>
    <time>2018-01-27T08:05:28Z</time>
   </trkpt>
   <trkpt lat="12.9031410" lon="99.6974780">
    <ele>89.2</ele>
    <time>2018-01-27T08:05:29Z</time>
   </trkpt>
   <trkpt lat="12.9031200" lon="99.6973540">
    <ele>89.7</ele>
    <time>2018-01-27T08:05:31Z</time>
   </trkpt>
   <trkpt lat="12.9031200" lon="99.6973060">
    <ele>89.9</ele>
    <time>2018-01-27T08:05:32Z</time>
   </trkpt>
   <trkpt lat="12.9031080" lon="99.6972700">
    <ele>90.1</ele>
    <time>2018-01-27T08:05:33Z</time>
   </trkpt>
   <trkpt lat="12.9030970" lon="99.6972280">
    <ele>90.3</ele>
    <time>2018-01-27T08:05:34Z</time>
   </trkpt>
   <trkpt lat="12.9030940" lon="99.6971810">
    <ele>90.3</ele>
    <time>2018-01-27T08:05:35Z</time>
   </trkpt>
   <trkpt lat="12.9030860" lon="99.6971400">
    <ele>90.4</ele>
    <time>2018-01-27T08:05:36Z</time>
   </trkpt>
   <trkpt lat="12.9030810" lon="99.6971020">
    <ele>90.3</ele>
    <time>2018-01-27T08:05:37Z</time>
   </trkpt>
   <trkpt lat="12.9030750" lon="99.6970620">
    <ele>90.2</ele>
    <time>2018-01-27T08:05:38Z</time>
   </trkpt>
   <trkpt lat="12.9030710" lon="99.6970220">
    <ele>90.0</ele>
    <time>2018-01-27T08:05:39Z</time>
   </trkpt>
   <trkpt lat="12.9030670" lon="99.6969820">
    <ele>89.8</ele>
    <time>2018-01-27T08:05:40Z</time>
   </trkpt>
   <trkpt lat="12.9030640" lon="99.6969480">
    <ele>89.6</ele>
    <time>2018-01-27T08:05:41Z</time>
   </trkpt>
   <trkpt lat="12.9030550" lon="99.6969170">
    <ele>89.4</ele>
    <time>2018-01-27T08:05:42Z</time>
   </trkpt>
   <trkpt lat="12.9030400" lon="99.6968840">
    <ele>89.1</ele>
    <time>2018-01-27T08:05:43Z</time>
   </trkpt>
   <trkpt lat="12.9030250" lon="99.6968540">
    <ele>88.9</ele>
    <time>2018-01-27T08:05:44Z</time>
   </trkpt>
   <trkpt lat="12.9030120" lon="99.6967970">
    <ele>88.6</ele>
    <time>2018-01-27T08:05:46Z</time>
   </trkpt>
   <trkpt lat="12.9030070" lon="99.6967600">
    <ele>88.4</ele>
    <time>2018-01-27T08:05:47Z</time>
   </trkpt>
   <trkpt lat="12.9029920" lon="99.6967250">
    <ele>88.4</ele>
    <time>2018-01-27T08:05:48Z</time>
   </trkpt>
   <trkpt lat="12.9029630" lon="99.6966930">
    <ele>88.3</ele>
    <time>2018-01-27T08:05:49Z</time>
   </trkpt>
   <trkpt lat="12.9028960" lon="99.6966770">
    <ele>88.3</ele>
    <time>2018-01-27T08:05:50Z</time>
   </trkpt>
   <trkpt lat="12.9028380" lon="99.6966680">
    <ele>88.1</ele>
    <time>2018-01-27T08:05:51Z</time>
   </trkpt>
   <trkpt lat="12.9027810" lon="99.6966800">
    <ele>87.9</ele>
    <time>2018-01-27T08:05:52Z</time>
   </trkpt>
   <trkpt lat="12.9027260" lon="99.6966910">
    <ele>87.7</ele>
    <time>2018-01-27T08:05:53Z</time>
   </trkpt>
   <trkpt lat="12.9026710" lon="99.6967060">
    <ele>87.4</ele>
    <time>2018-01-27T08:05:54Z</time>
   </trkpt>
   <trkpt lat="12.9026180" lon="99.6967220">
    <ele>87.3</ele>
    <time>2018-01-27T08:05:55Z</time>
   </trkpt>
   <trkpt lat="12.9025550" lon="99.6967300">
    <ele>87.2</ele>
    <time>2018-01-27T08:05:56Z</time>
   </trkpt>
   <trkpt lat="12.9025000" lon="99.6967370">
    <ele>87.2</ele>
    <time>2018-01-27T08:05:57Z</time>
   </trkpt>
   <trkpt lat="12.9024430" lon="99.6967370">
    <ele>87.2</ele>
    <time>2018-01-27T08:05:58Z</time>
   </trkpt>
   <trkpt lat="12.9023800" lon="99.6967460">
    <ele>87.3</ele>
    <time>2018-01-27T08:05:59Z</time>
   </trkpt>
   <trkpt lat="12.9023210" lon="99.6967490">
    <ele>87.4</ele>
    <time>2018-01-27T08:06:00Z</time>
   </trkpt>
   <trkpt lat="12.9022510" lon="99.6967650">
    <ele>87.4</ele>
    <time>2018-01-27T08:06:01Z</time>
   </trkpt>
   <trkpt lat="12.9021800" lon="99.6967720">
    <ele>87.4</ele>
    <time>2018-01-27T08:06:02Z</time>
   </trkpt>
   <trkpt lat="12.9021240" lon="99.6967850">
    <ele>87.4</ele>
    <time>2018-01-27T08:06:03Z</time>
   </trkpt>
   <trkpt lat="12.9020550" lon="99.6967960">
    <ele>87.4</ele>
    <time>2018-01-27T08:06:04Z</time>
   </trkpt>
   <trkpt lat="12.9019950" lon="99.6968100">
    <ele>87.5</ele>
    <time>2018-01-27T08:06:05Z</time>
   </trkpt>
   <trkpt lat="12.9019410" lon="99.6968300">
    <ele>87.5</ele>
    <time>2018-01-27T08:06:06Z</time>
   </trkpt>
   <trkpt lat="12.9018870" lon="99.6968470">
    <ele>87.5</ele>
    <time>2018-01-27T08:06:07Z</time>
   </trkpt>
   <trkpt lat="12.9018410" lon="99.6968680">
    <ele>87.4</ele>
    <time>2018-01-27T08:06:08Z</time>
   </trkpt>
   <trkpt lat="12.9017930" lon="99.6968920">
    <ele>87.2</ele>
    <time>2018-01-27T08:06:09Z</time>
   </trkpt>
   <trkpt lat="12.9017490" lon="99.6969170">
    <ele>87.2</ele>
    <time>2018-01-27T08:06:10Z</time>
   </trkpt>
   <trkpt lat="12.9017010" lon="99.6969450">
    <ele>87.3</ele>
    <time>2018-01-27T08:06:11Z</time>
   </trkpt>
   <trkpt lat="12.9016670" lon="99.6969650">
    <ele>87.6</ele>
    <time>2018-01-27T08:06:12Z</time>
   </trkpt>
   <trkpt lat="12.9016210" lon="99.6969810">
    <ele>87.8</ele>
    <time>2018-01-27T08:06:13Z</time>
   </trkpt>
   <trkpt lat="12.9015780" lon="99.6970050">
    <ele>88.1</ele>
    <time>2018-01-27T08:06:14Z</time>
   </trkpt>
   <trkpt lat="12.9015420" lon="99.6970240">
    <ele>88.3</ele>
    <time>2018-01-27T08:06:15Z</time>
   </trkpt>
   <trkpt lat="12.9015130" lon="99.6970390">
    <ele>88.3</ele>
    <time>2018-01-27T08:06:16Z</time>
   </trkpt>
   <trkpt lat="12.9014800" lon="99.6970570">
    <ele>88.3</ele>
    <time>2018-01-27T08:06:17Z</time>
   </trkpt>
   <trkpt lat="12.9014400" lon="99.6970790">
    <ele>88.3</ele>
    <time>2018-01-27T08:06:18Z</time>
   </trkpt>
   <trkpt lat="12.9013950" lon="99.6970920">
    <ele>88.4</ele>
    <time>2018-01-27T08:06:19Z</time>
   </trkpt>
   <trkpt lat="12.9013490" lon="99.6970930">
    <ele>88.5</ele>
    <time>2018-01-27T08:06:20Z</time>
   </trkpt>
   <trkpt lat="12.9013030" lon="99.6970990">
    <ele>88.6</ele>
    <time>2018-01-27T08:06:21Z</time>
   </trkpt>
   <trkpt lat="12.9012390" lon="99.6970970">
    <ele>88.6</ele>
    <time>2018-01-27T08:06:22Z</time>
   </trkpt>
   <trkpt lat="12.9012040" lon="99.6970960">
    <ele>88.6</ele>
    <time>2018-01-27T08:06:23Z</time>
   </trkpt>
   <trkpt lat="12.9011710" lon="99.6970920">
    <ele>88.6</ele>
    <time>2018-01-27T08:06:24Z</time>
   </trkpt>
   <trkpt lat="12.9011270" lon="99.6970860">
    <ele>88.5</ele>
    <time>2018-01-27T08:06:26Z</time>
   </trkpt>
   <trkpt lat="12.9010600" lon="99.6971020">
    <ele>88.5</ele>
    <time>2018-01-27T08:06:28Z</time>
   </trkpt>
   <trkpt lat="12.9010240" lon="99.6971010">
    <ele>88.5</ele>
    <time>2018-01-27T08:06:29Z</time>
   </trkpt>
   <trkpt lat="12.9009880" lon="99.6970990">
    <ele>88.5</ele>
    <time>2018-01-27T08:06:30Z</time>
   </trkpt>
   <trkpt lat="12.9009510" lon="99.6970960">
    <ele>88.6</ele>
    <time>2018-01-27T08:06:31Z</time>
   </trkpt>
   <trkpt lat="12.9009140" lon="99.6970950">
    <ele>88.8</ele>
    <time>2018-01-27T08:06:32Z</time>
   </trkpt>
   <trkpt lat="12.9008840" lon="99.6970940">
    <ele>88.9</ele>
    <time>2018-01-27T08:06:33Z</time>
   </trkpt>
   <trkpt lat="12.9008540" lon="99.6970930">
    <ele>88.9</ele>
    <time>2018-01-27T08:06:34Z</time>
   </trkpt>
   <trkpt lat="12.9008200" lon="99.6970940">
    <ele>88.9</ele>
    <time>2018-01-27T08:06:35Z</time>
   </trkpt>
   <trkpt lat="12.9007890" lon="99.6970930">
    <ele>88.9</ele>
    <time>2018-01-27T08:06:36Z</time>
   </trkpt>
   <trkpt lat="12.9007600" lon="99.6970910">
    <ele>89.0</ele>
    <time>2018-01-27T08:06:37Z</time>
   </trkpt>
   <trkpt lat="12.9007140" lon="99.6970970">
    <ele>89.2</ele>
    <time>2018-01-27T08:06:39Z</time>
   </trkpt>
   <trkpt lat="12.9006860" lon="99.6971080">
    <ele>89.5</ele>
    <time>2018-01-27T08:06:40Z</time>
   </trkpt>
   <trkpt lat="12.9006620" lon="99.6971230">
    <ele>89.8</ele>
    <time>2018-01-27T08:06:41Z</time>
   </trkpt>
   <trkpt lat="12.9006400" lon="99.6971390">
    <ele>90.1</ele>
    <time>2018-01-27T08:06:42Z</time>
   </trkpt>
   <trkpt lat="12.9006170" lon="99.6971550">
    <ele>90.3</ele>
    <time>2018-01-27T08:06:43Z</time>
   </trkpt>
   <trkpt lat="12.9005680" lon="99.6971790">
    <ele>90.6</ele>
    <time>2018-01-27T08:06:45Z</time>
   </trkpt>
   <trkpt lat="12.9005370" lon="99.6971900">
    <ele>90.9</ele>
    <time>2018-01-27T08:06:46Z</time>
   </trkpt>
   <trkpt lat="12.9005060" lon="99.6972000">
    <ele>91.1</ele>
    <time>2018-01-27T08:06:47Z</time>
   </trkpt>
   <trkpt lat="12.9004760" lon="99.6972110">
    <ele>91.4</ele>
    <time>2018-01-27T08:06:48Z</time>
   </trkpt>
   <trkpt lat="12.9004450" lon="99.6972240">
    <ele>91.6</ele>
    <time>2018-01-27T08:06:49Z</time>
   </trkpt>
   <trkpt lat="12.9004110" lon="99.6972360">
    <ele>91.7</ele>
    <time>2018-01-27T08:06:50Z</time>
   </trkpt>
   <trkpt lat="12.9003760" lon="99.6972490">
    <ele>91.8</ele>
    <time>2018-01-27T08:06:51Z</time>
   </trkpt>
   <trkpt lat="12.9003380" lon="99.6972590">
    <ele>91.9</ele>
    <time>2018-01-27T08:06:52Z</time>
   </trkpt>
   <trkpt lat="12.9002960" lon="99.6972670">
    <ele>92.0</ele>
    <time>2018-01-27T08:06:53Z</time>
   </trkpt>
   <trkpt lat="12.9002550" lon="99.6972720">
    <ele>92.0</ele>
    <time>2018-01-27T08:06:54Z</time>
   </trkpt>
   <trkpt lat="12.9002120" lon="99.6972790">
    <ele>92.0</ele>
    <time>2018-01-27T08:06:55Z</time>
   </trkpt>
   <trkpt lat="12.9001720" lon="99.6972870">
    <ele>91.9</ele>
    <time>2018-01-27T08:06:56Z</time>
   </trkpt>
   <trkpt lat="12.9001320" lon="99.6972980">
    <ele>91.6</ele>
    <time>2018-01-27T08:06:57Z</time>
   </trkpt>
   <trkpt lat="12.9000930" lon="99.6973090">
    <ele>91.4</ele>
    <time>2018-01-27T08:06:58Z</time>
   </trkpt>
   <trkpt lat="12.9000550" lon="99.6973190">
    <ele>91.2</ele>
    <time>2018-01-27T08:06:59Z</time>
   </trkpt>
   <trkpt lat="12.9000190" lon="99.6973280">
    <ele>91.0</ele>
    <time>2018-01-27T08:07:00Z</time>
   </trkpt>
   <trkpt lat="12.8999660" lon="99.6973400">
    <ele>90.9</ele>
    <time>2018-01-27T08:07:01Z</time>
   </trkpt>
   <trkpt lat="12.8999300" lon="99.6973550">
    <ele>90.9</ele>
    <time>2018-01-27T08:07:02Z</time>
   </trkpt>
   <trkpt lat="12.8998980" lon="99.6973760">
    <ele>90.9</ele>
    <time>2018-01-27T08:07:03Z</time>
   </trkpt>
   <trkpt lat="12.8998560" lon="99.6973980">
    <ele>91.0</ele>
    <time>2018-01-27T08:07:04Z</time>
   </trkpt>
   <trkpt lat="12.8998210" lon="99.6974210">
    <ele>91.0</ele>
    <time>2018-01-27T08:07:05Z</time>
   </trkpt>
   <trkpt lat="12.8997820" lon="99.6974470">
    <ele>91.1</ele>
    <time>2018-01-27T08:07:06Z</time>
   </trkpt>
   <trkpt lat="12.8997430" lon="99.6974650">
    <ele>91.1</ele>
    <time>2018-01-27T08:07:07Z</time>
   </trkpt>
   <trkpt lat="12.8996960" lon="99.6974870">
    <ele>91.1</ele>
    <time>2018-01-27T08:07:08Z</time>
   </trkpt>
   <trkpt lat="12.8996550" lon="99.6975090">
    <ele>91.0</ele>
    <time>2018-01-27T08:07:09Z</time>
   </trkpt>
   <trkpt lat="12.8996140" lon="99.6975320">
    <ele>90.8</ele>
    <time>2018-01-27T08:07:10Z</time>
   </trkpt>
   <trkpt lat="12.8995750" lon="99.6975550">
    <ele>90.6</ele>
    <time>2018-01-27T08:07:11Z</time>
   </trkpt>
   <trkpt lat="12.8995250" lon="99.6975830">
    <ele>90.2</ele>
    <time>2018-01-27T08:07:12Z</time>
   </trkpt>
   <trkpt lat="12.8994850" lon="99.6976030">
    <ele>89.9</ele>
    <time>2018-01-27T08:07:13Z</time>
   </trkpt>
   <trkpt lat="12.8994230" lon="99.6976370">
    <ele>89.5</ele>
    <time>2018-01-27T08:07:14Z</time>
   </trkpt>
   <trkpt lat="12.8993840" lon="99.6976500">
    <ele>89.3</ele>
    <time>2018-01-27T08:07:15Z</time>
   </trkpt>
   <trkpt lat="12.8993420" lon="99.6976720">
    <ele>89.1</ele>
    <time>2018-01-27T08:07:16Z</time>
   </trkpt>
   <trkpt lat="12.8993050" lon="99.6976970">
    <ele>89.1</ele>
    <time>2018-01-27T08:07:17Z</time>
   </trkpt>
   <trkpt lat="12.8992700" lon="99.6977150">
    <ele>89.1</ele>
    <time>2018-01-27T08:07:18Z</time>
   </trkpt>
   <trkpt lat="12.8992350" lon="99.6977370">
    <ele>89.1</ele>
    <time>2018-01-27T08:07:19Z</time>
   </trkpt>
   <trkpt lat="12.8992010" lon="99.6977620">
    <ele>89.1</ele>
    <time>2018-01-27T08:07:20Z</time>
   </trkpt>
   <trkpt lat="12.8991650" lon="99.6977860">
    <ele>89.2</ele>
    <time>2018-01-27T08:07:21Z</time>
   </trkpt>
   <trkpt lat="12.8991310" lon="99.6978080">
    <ele>89.4</ele>
    <time>2018-01-27T08:07:22Z</time>
   </trkpt>
   <trkpt lat="12.8990970" lon="99.6978310">
    <ele>89.6</ele>
    <time>2018-01-27T08:07:23Z</time>
   </trkpt>
   <trkpt lat="12.8990670" lon="99.6978530">
    <ele>89.8</ele>
    <time>2018-01-27T08:07:24Z</time>
   </trkpt>
   <trkpt lat="12.8990370" lon="99.6978770">
    <ele>89.9</ele>
    <time>2018-01-27T08:07:25Z</time>
   </trkpt>
   <trkpt lat="12.8990080" lon="99.6978960">
    <ele>90.0</ele>
    <time>2018-01-27T08:07:26Z</time>
   </trkpt>
   <trkpt lat="12.8989830" lon="99.6979140">
    <ele>90.1</ele>
    <time>2018-01-27T08:07:27Z</time>
   </trkpt>
   <trkpt lat="12.8989600" lon="99.6979330">
    <ele>90.2</ele>
    <time>2018-01-27T08:07:28Z</time>
   </trkpt>
   <trkpt lat="12.8989340" lon="99.6979470">
    <ele>90.2</ele>
    <time>2018-01-27T08:07:29Z</time>
   </trkpt>
   <trkpt lat="12.8989030" lon="99.6979590">
    <ele>90.2</ele>
    <time>2018-01-27T08:07:30Z</time>
   </trkpt>
   <trkpt lat="12.8988750" lon="99.6979730">
    <ele>90.2</ele>
    <time>2018-01-27T08:07:31Z</time>
   </trkpt>
   <trkpt lat="12.8988250" lon="99.6979980">
    <ele>90.2</ele>
    <time>2018-01-27T08:07:33Z</time>
   </trkpt>
   <trkpt lat="12.8987970" lon="99.6980090">
    <ele>90.2</ele>
    <time>2018-01-27T08:07:34Z</time>
   </trkpt>
   <trkpt lat="12.8987710" lon="99.6980200">
    <ele>90.3</ele>
    <time>2018-01-27T08:07:35Z</time>
   </trkpt>
   <trkpt lat="12.8987420" lon="99.6980300">
    <ele>90.3</ele>
    <time>2018-01-27T08:07:36Z</time>
   </trkpt>
   <trkpt lat="12.8987110" lon="99.6980410">
    <ele>90.4</ele>
    <time>2018-01-27T08:07:37Z</time>
   </trkpt>
   <trkpt lat="12.8986740" lon="99.6980520">
    <ele>90.6</ele>
    <time>2018-01-27T08:07:38Z</time>
   </trkpt>
   <trkpt lat="12.8986390" lon="99.6980590">
    <ele>90.7</ele>
    <time>2018-01-27T08:07:39Z</time>
   </trkpt>
   <trkpt lat="12.8986060" lon="99.6980680">
    <ele>90.8</ele>
    <time>2018-01-27T08:07:40Z</time>
   </trkpt>
   <trkpt lat="12.8985720" lon="99.6980760">
    <ele>90.9</ele>
    <time>2018-01-27T08:07:41Z</time>
   </trkpt>
   <trkpt lat="12.8985390" lon="99.6980840">
    <ele>91.0</ele>
    <time>2018-01-27T08:07:42Z</time>
   </trkpt>
   <trkpt lat="12.8985110" lon="99.6980910">
    <ele>91.1</ele>
    <time>2018-01-27T08:07:43Z</time>
   </trkpt>
   <trkpt lat="12.8984790" lon="99.6981030">
    <ele>91.3</ele>
    <time>2018-01-27T08:07:45Z</time>
   </trkpt>
   <trkpt lat="12.8984370" lon="99.6981240">
    <ele>91.5</ele>
    <time>2018-01-27T08:07:47Z</time>
   </trkpt>
   <trkpt lat="12.8983980" lon="99.6981430">
    <ele>91.7</ele>
    <time>2018-01-27T08:07:49Z</time>
   </trkpt>
   <trkpt lat="12.8983590" lon="99.6981580">
    <ele>91.9</ele>
    <time>2018-01-27T08:07:51Z</time>
   </trkpt>
   <trkpt lat="12.8983240" lon="99.6981650">
    <ele>92.2</ele>
    <time>2018-01-27T08:07:53Z</time>
   </trkpt>
   <trkpt lat="12.8982870" lon="99.6981750">
    <ele>92.5</ele>
    <time>2018-01-27T08:07:56Z</time>
   </trkpt>
   <trkpt lat="12.8982580" lon="99.6981850">
    <ele>92.8</ele>
    <time>2018-01-27T08:07:58Z</time>
   </trkpt>
   <trkpt lat="12.8982310" lon="99.6982000">
    <ele>93.0</ele>
    <time>2018-01-27T08:08:00Z</time>
   </trkpt>
   <trkpt lat="12.8982030" lon="99.6982160">
    <ele>93.3</ele>
    <time>2018-01-27T08:08:03Z</time>
   </trkpt>
   <trkpt lat="12.8981850" lon="99.6982430">
    <ele>93.6</ele>
    <time>2018-01-27T08:08:05Z</time>
   </trkpt>
   <trkpt lat="12.8981710" lon="99.6982710">
    <ele>93.8</ele>
    <time>2018-01-27T08:08:07Z</time>
   </trkpt>
   <trkpt lat="12.8981560" lon="99.6982430">
    <ele>94.2</ele>
    <time>2018-01-27T08:08:12Z</time>
   </trkpt>
   <trkpt lat="12.8981430" lon="99.6982020">
    <ele>94.8</ele>
    <time>2018-01-27T08:08:15Z</time>
   </trkpt>
   <trkpt lat="12.8981260" lon="99.6981720">
    <ele>95.3</ele>
    <time>2018-01-27T08:08:17Z</time>
   </trkpt>
   <trkpt lat="12.8981050" lon="99.6981450">
    <ele>95.8</ele>
    <time>2018-01-27T08:08:22Z</time>
   </trkpt>
   <trkpt lat="12.8980840" lon="99.6981210">
    <ele>96.3</ele>
    <time>2018-01-27T08:08:26Z</time>
   </trkpt>
   <trkpt lat="12.8981000" lon="99.6981470">
    <ele>96.7</ele>
    <time>2018-01-27T08:08:43Z</time>
   </trkpt>
   <trkpt lat="12.8981160" lon="99.6981770">
    <ele>97.3</ele>
    <time>2018-01-27T08:08:54Z</time>
   </trkpt>
   <trkpt lat="12.8981210" lon="99.6982050">
    <ele>97.6</ele>
    <time>2018-01-27T08:08:58Z</time>
   </trkpt>
   <trkpt lat="12.8981330" lon="99.6981800">
    <ele>97.7</ele>
    <time>2018-01-27T08:09:29Z</time>
   </trkpt>
   <trkpt lat="12.8981190" lon="99.6981460">
    <ele>98.0</ele>
    <time>2018-01-27T08:10:50Z</time>
   </trkpt>
   <trkpt lat="12.8981440" lon="99.6981810">
    <ele>98.0</ele>
    <time>2018-01-27T08:12:20Z</time>
   </trkpt>
   <trkpt lat="12.8981330" lon="99.6982100">
    <ele>98.0</ele>
    <time>2018-01-27T08:12:23Z</time>
   </trkpt>
   <trkpt lat="12.8981110" lon="99.6982360">
    <ele>98.0</ele>
    <time>2018-01-27T08:12:26Z</time>
   </trkpt>
   <trkpt lat="12.8980770" lon="99.6982290">
    <ele>98.0</ele>
    <time>2018-01-27T08:12:33Z</time>
   </trkpt>
   <trkpt lat="12.8981030" lon="99.6982090">
    <ele>98.0</ele>
    <time>2018-01-27T08:12:39Z</time>
   </trkpt>
   <trkpt lat="12.8981430" lon="99.6982100">
    <ele>98.0</ele>
    <time>2018-01-27T08:12:42Z</time>
   </trkpt>
   <trkpt lat="12.8981720" lon="99.6981900">
    <ele>98.0</ele>
    <time>2018-01-27T08:12:45Z</time>
   </trkpt>
   <trkpt lat="12.8981550" lon="99.6981610">
    <ele>98.0</ele>
    <time>2018-01-27T08:12:48Z</time>
   </trkpt>
   <trkpt lat="12.8981420" lon="99.6981370">
    <ele>98.0</ele>
    <time>2018-01-27T08:12:52Z</time>
   </trkpt>
   <trkpt lat="12.8981560" lon="99.6981120">
    <ele>98.0</ele>
    <time>2018-01-27T08:12:55Z</time>
   </trkpt>
   <trkpt lat="12.8981710" lon="99.6981360">
    <ele>98.0</ele>
    <time>2018-01-27T08:12:56Z</time>
   </trkpt>
   <trkpt lat="12.8981720" lon="99.6981680">
    <ele>98.0</ele>
    <time>2018-01-27T08:12:57Z</time>
   </trkpt>
   <trkpt lat="12.8981670" lon="99.6982200">
    <ele>98.0</ele>
    <time>2018-01-27T08:12:59Z</time>
   </trkpt>
   <trkpt lat="12.8981570" lon="99.6982640">
    <ele>98.0</ele>
    <time>2018-01-27T08:13:01Z</time>
   </trkpt>
   <trkpt lat="12.8981500" lon="99.6983030">
    <ele>98.0</ele>
    <time>2018-01-27T08:13:03Z</time>
   </trkpt>
   <trkpt lat="12.8981420" lon="99.6982760">
    <ele>98.0</ele>
    <time>2018-01-27T08:13:09Z</time>
   </trkpt>
   <trkpt lat="12.8981390" lon="99.6982260">
    <ele>98.0</ele>
    <time>2018-01-27T08:16:23Z</time>
   </trkpt>
   <trkpt lat="12.8981380" lon="99.6981970">
    <ele>98.0</ele>
    <time>2018-01-27T08:16:27Z</time>
   </trkpt>
   <trkpt lat="12.8981230" lon="99.6982230">
    <ele>98.0</ele>
    <time>2018-01-27T08:17:01Z</time>
   </trkpt>
   <trkpt lat="12.8981250" lon="99.6982560">
    <ele>98.0</ele>
    <time>2018-01-27T08:17:05Z</time>
   </trkpt>
   <trkpt lat="12.8981280" lon="99.6982900">
    <ele>98.0</ele>
    <time>2018-01-27T08:17:09Z</time>
   </trkpt>
   <trkpt lat="12.8981360" lon="99.6983220">
    <ele>98.0</ele>
    <time>2018-01-27T08:17:13Z</time>
   </trkpt>
   <trkpt lat="12.8981680" lon="99.6983180">
    <ele>97.9</ele>
    <time>2018-01-27T08:17:17Z</time>
   </trkpt>
   <trkpt lat="12.8981440" lon="99.6983040">
    <ele>97.9</ele>
    <time>2018-01-27T08:17:44Z</time>
   </trkpt>
   <trkpt lat="12.8981260" lon="99.6983280">
    <ele>97.9</ele>
    <time>2018-01-27T08:17:58Z</time>
   </trkpt>
   <trkpt lat="12.8981440" lon="99.6983490">
    <ele>97.9</ele>
    <time>2018-01-27T08:18:10Z</time>
   </trkpt>
   <trkpt lat="12.8981320" lon="99.6983830">
    <ele>97.9</ele>
    <time>2018-01-27T08:18:16Z</time>
   </trkpt>
   <trkpt lat="12.8981510" lon="99.6983600">
    <ele>97.9</ele>
    <time>2018-01-27T08:18:25Z</time>
   </trkpt>
   <trkpt lat="12.8981560" lon="99.6983300">
    <ele>97.9</ele>
    <time>2018-01-27T08:18:28Z</time>
   </trkpt>
   <trkpt lat="12.8981670" lon="99.6983020">
    <ele>97.9</ele>
    <time>2018-01-27T08:18:55Z</time>
   </trkpt>
   <trkpt lat="12.8981890" lon="99.6982850">
    <ele>97.9</ele>
    <time>2018-01-27T08:19:58Z</time>
   </trkpt>
   <trkpt lat="12.8981610" lon="99.6982700">
    <ele>97.9</ele>
    <time>2018-01-27T08:21:43Z</time>
   </trkpt>
   <trkpt lat="12.8981470" lon="99.6982460">
    <ele>97.9</ele>
    <time>2018-01-27T08:21:46Z</time>
   </trkpt>
   <trkpt lat="12.8981120" lon="99.6982300">
    <ele>98.0</ele>
    <time>2018-01-27T08:23:26Z</time>
   </trkpt>
   <trkpt lat="12.8981180" lon="99.6981960">
    <ele>98.0</ele>
    <time>2018-01-27T08:23:30Z</time>
   </trkpt>
   <trkpt lat="12.8981230" lon="99.6981650">
    <ele>98.0</ele>
    <time>2018-01-27T08:23:33Z</time>
   </trkpt>
   <trkpt lat="12.8981000" lon="99.6981400">
    <ele>98.0</ele>
    <time>2018-01-27T08:23:37Z</time>
   </trkpt>
   <trkpt lat="12.8980690" lon="99.6981380">
    <ele>98.0</ele>
    <time>2018-01-27T08:23:41Z</time>
   </trkpt>
   <trkpt lat="12.8980880" lon="99.6981180">
    <ele>98.0</ele>
    <time>2018-01-27T08:24:16Z</time>
   </trkpt>
   <trkpt lat="12.8981150" lon="99.6981200">
    <ele>98.0</ele>
    <time>2018-01-27T08:24:20Z</time>
   </trkpt>
   <trkpt lat="12.8981020" lon="99.6981460">
    <ele>98.0</ele>
    <time>2018-01-27T08:24:48Z</time>
   </trkpt>
   <trkpt lat="12.8981010" lon="99.6981900">
    <ele>98.0</ele>
    <time>2018-01-27T08:24:51Z</time>
   </trkpt>
   <trkpt lat="12.8981040" lon="99.6982240">
    <ele>98.0</ele>
    <time>2018-01-27T08:24:53Z</time>
   </trkpt>
   <trkpt lat="12.8980740" lon="99.6982410">
    <ele>98.0</ele>
    <time>2018-01-27T08:24:56Z</time>
   </trkpt>
   <trkpt lat="12.8980450" lon="99.6982430">
    <ele>98.0</ele>
    <time>2018-01-27T08:24:58Z</time>
   </trkpt>
   <trkpt lat="12.8980040" lon="99.6982560">
    <ele>98.0</ele>
    <time>2018-01-27T08:25:00Z</time>
   </trkpt>
   <trkpt lat="12.8979720" lon="99.6982730">
    <ele>98.0</ele>
    <time>2018-01-27T08:25:02Z</time>
   </trkpt>
   <trkpt lat="12.8979340" lon="99.6982970">
    <ele>98.3</ele>
    <time>2018-01-27T08:25:04Z</time>
   </trkpt>
   <trkpt lat="12.8978980" lon="99.6983370">
    <ele>98.9</ele>
    <time>2018-01-27T08:25:06Z</time>
   </trkpt>
   <trkpt lat="12.8978810" lon="99.6983590">
    <ele>99.3</ele>
    <time>2018-01-27T08:25:07Z</time>
   </trkpt>
   <trkpt lat="12.8978650" lon="99.6983810">
    <ele>99.9</ele>
    <time>2018-01-27T08:25:08Z</time>
   </trkpt>
   <trkpt lat="12.8978510" lon="99.6984060">
    <ele>100.2</ele>
    <time>2018-01-27T08:25:09Z</time>
   </trkpt>
   <trkpt lat="12.8978380" lon="99.6984350">
    <ele>100.2</ele>
    <time>2018-01-27T08:25:10Z</time>
   </trkpt>
   <trkpt lat="12.8978260" lon="99.6984640">
    <ele>100.3</ele>
    <time>2018-01-27T08:25:11Z</time>
   </trkpt>
   <trkpt lat="12.8978320" lon="99.6985000">
    <ele>100.1</ele>
    <time>2018-01-27T08:25:13Z</time>
   </trkpt>
   <trkpt lat="12.8978600" lon="99.6984880">
    <ele>100.1</ele>
    <time>2018-01-27T08:25:19Z</time>
   </trkpt>
   <trkpt lat="12.8978330" lon="99.6984730">
    <ele>100.2</ele>
    <time>2018-01-27T08:25:32Z</time>
   </trkpt>
   <trkpt lat="12.8978030" lon="99.6984950">
    <ele>100.6</ele>
    <time>2018-01-27T08:25:37Z</time>
   </trkpt>
   <trkpt lat="12.8977750" lon="99.6985230">
    <ele>101.0</ele>
    <time>2018-01-27T08:25:39Z</time>
   </trkpt>
   <trkpt lat="12.8977580" lon="99.6985520">
    <ele>100.6</ele>
    <time>2018-01-27T08:25:41Z</time>
   </trkpt>
   <trkpt lat="12.8977380" lon="99.6985920">
    <ele>100.7</ele>
    <time>2018-01-27T08:25:44Z</time>
   </trkpt>
   <trkpt lat="12.8977250" lon="99.6986270">
    <ele>100.4</ele>
    <time>2018-01-27T08:25:46Z</time>
   </trkpt>
   <trkpt lat="12.8977090" lon="99.6986790">
    <ele>100.3</ele>
    <time>2018-01-27T08:25:48Z</time>
   </trkpt>
   <trkpt lat="12.8976980" lon="99.6987110">
    <ele>100.4</ele>
    <time>2018-01-27T08:25:49Z</time>
   </trkpt>
   <trkpt lat="12.8976840" lon="99.6987430">
    <ele>100.1</ele>
    <time>2018-01-27T08:25:50Z</time>
   </trkpt>
   <trkpt lat="12.8976680" lon="99.6987730">
    <ele>100.1</ele>
    <time>2018-01-27T08:25:51Z</time>
   </trkpt>
   <trkpt lat="12.8976510" lon="99.6988000">
    <ele>100.0</ele>
    <time>2018-01-27T08:25:52Z</time>
   </trkpt>
   <trkpt lat="12.8976330" lon="99.6988310">
    <ele>99.4</ele>
    <time>2018-01-27T08:25:53Z</time>
   </trkpt>
   <trkpt lat="12.8976140" lon="99.6988940">
    <ele>99.2</ele>
    <time>2018-01-27T08:25:54Z</time>
   </trkpt>
   <trkpt lat="12.8976030" lon="99.6989310">
    <ele>98.6</ele>
    <time>2018-01-27T08:25:55Z</time>
   </trkpt>
   <trkpt lat="12.8975920" lon="99.6989660">
    <ele>97.9</ele>
    <time>2018-01-27T08:25:56Z</time>
   </trkpt>
   <trkpt lat="12.8975750" lon="99.6989940">
    <ele>97.9</ele>
    <time>2018-01-27T08:25:57Z</time>
   </trkpt>
   <trkpt lat="12.8975510" lon="99.6990240">
    <ele>97.4</ele>
    <time>2018-01-27T08:25:58Z</time>
   </trkpt>
   <trkpt lat="12.8975300" lon="99.6990480">
    <ele>96.6</ele>
    <time>2018-01-27T08:25:59Z</time>
   </trkpt>
   <trkpt lat="12.8975060" lon="99.6990680">
    <ele>96.6</ele>
    <time>2018-01-27T08:26:00Z</time>
   </trkpt>
   <trkpt lat="12.8974820" lon="99.6990860">
    <ele>95.8</ele>
    <time>2018-01-27T08:26:01Z</time>
   </trkpt>
   <trkpt lat="12.8974580" lon="99.6991080">
    <ele>95.8</ele>
    <time>2018-01-27T08:26:02Z</time>
   </trkpt>
   <trkpt lat="12.8974390" lon="99.6991400">
    <ele>95.2</ele>
    <time>2018-01-27T08:26:03Z</time>
   </trkpt>
   <trkpt lat="12.8974270" lon="99.6991770">
    <ele>94.9</ele>
    <time>2018-01-27T08:26:04Z</time>
   </trkpt>
   <trkpt lat="12.8974150" lon="99.6992190">
    <ele>94.6</ele>
    <time>2018-01-27T08:26:05Z</time>
   </trkpt>
   <trkpt lat="12.8974070" lon="99.6992600">
    <ele>94.5</ele>
    <time>2018-01-27T08:26:06Z</time>
   </trkpt>
   <trkpt lat="12.8973900" lon="99.6992980">
    <ele>94.0</ele>
    <time>2018-01-27T08:26:07Z</time>
   </trkpt>
   <trkpt lat="12.8973510" lon="99.6993210">
    <ele>93.7</ele>
    <time>2018-01-27T08:26:08Z</time>
   </trkpt>
   <trkpt lat="12.8973190" lon="99.6993400">
    <ele>93.3</ele>
    <time>2018-01-27T08:26:09Z</time>
   </trkpt>
   <trkpt lat="12.8972860" lon="99.6993400">
    <ele>93.3</ele>
    <time>2018-01-27T08:26:10Z</time>
   </trkpt>
   <trkpt lat="12.8972560" lon="99.6993430">
    <ele>93.2</ele>
    <time>2018-01-27T08:26:11Z</time>
   </trkpt>
   <trkpt lat="12.8972140" lon="99.6993380">
    <ele>93.3</ele>
    <time>2018-01-27T08:26:13Z</time>
   </trkpt>
   <trkpt lat="12.8971720" lon="99.6993510">
    <ele>93.4</ele>
    <time>2018-01-27T08:26:15Z</time>
   </trkpt>
   <trkpt lat="12.8971110" lon="99.6993490">
    <ele>94.1</ele>
    <time>2018-01-27T08:26:17Z</time>
   </trkpt>
   <trkpt lat="12.8970850" lon="99.6993370">
    <ele>94.2</ele>
    <time>2018-01-27T08:26:18Z</time>
   </trkpt>
   <trkpt lat="12.8970450" lon="99.6993350">
    <ele>94.6</ele>
    <time>2018-01-27T08:26:19Z</time>
   </trkpt>
   <trkpt lat="12.8969980" lon="99.6993370">
    <ele>95.0</ele>
    <time>2018-01-27T08:26:20Z</time>
   </trkpt>
   <trkpt lat="12.8969560" lon="99.6993410">
    <ele>95.0</ele>
    <time>2018-01-27T08:26:21Z</time>
   </trkpt>
   <trkpt lat="12.8969160" lon="99.6993420">
    <ele>95.1</ele>
    <time>2018-01-27T08:26:22Z</time>
   </trkpt>
   <trkpt lat="12.8968780" lon="99.6993410">
    <ele>94.8</ele>
    <time>2018-01-27T08:26:23Z</time>
   </trkpt>
   <trkpt lat="12.8968450" lon="99.6993330">
    <ele>94.5</ele>
    <time>2018-01-27T08:26:24Z</time>
   </trkpt>
   <trkpt lat="12.8968230" lon="99.6993000">
    <ele>94.5</ele>
    <time>2018-01-27T08:26:25Z</time>
   </trkpt>
   <trkpt lat="12.8967820" lon="99.6992810">
    <ele>94.1</ele>
    <time>2018-01-27T08:26:26Z</time>
   </trkpt>
   <trkpt lat="12.8967520" lon="99.6992570">
    <ele>93.6</ele>
    <time>2018-01-27T08:26:27Z</time>
   </trkpt>
   <trkpt lat="12.8967150" lon="99.6992200">
    <ele>93.6</ele>
    <time>2018-01-27T08:26:28Z</time>
   </trkpt>
   <trkpt lat="12.8966810" lon="99.6991860">
    <ele>93.9</ele>
    <time>2018-01-27T08:26:29Z</time>
   </trkpt>
   <trkpt lat="12.8966480" lon="99.6991520">
    <ele>94.2</ele>
    <time>2018-01-27T08:26:30Z</time>
   </trkpt>
   <trkpt lat="12.8966120" lon="99.6991360">
    <ele>94.2</ele>
    <time>2018-01-27T08:26:31Z</time>
   </trkpt>
   <trkpt lat="12.8965870" lon="99.6991250">
    <ele>94.8</ele>
    <time>2018-01-27T08:26:32Z</time>
   </trkpt>
   <trkpt lat="12.8965510" lon="99.6991220">
    <ele>95.0</ele>
    <time>2018-01-27T08:26:33Z</time>
   </trkpt>
   <trkpt lat="12.8965120" lon="99.6991130">
    <ele>95.3</ele>
    <time>2018-01-27T08:26:34Z</time>
   </trkpt>
   <trkpt lat="12.8964680" lon="99.6991090">
    <ele>95.7</ele>
    <time>2018-01-27T08:26:35Z</time>
   </trkpt>
   <trkpt lat="12.8964110" lon="99.6991180">
    <ele>96.0</ele>
    <time>2018-01-27T08:26:37Z</time>
   </trkpt>
   <trkpt lat="12.8963700" lon="99.6991290">
    <ele>95.0</ele>
    <time>2018-01-27T08:26:38Z</time>
   </trkpt>
   <trkpt lat="12.8963270" lon="99.6991400">
    <ele>95.0</ele>
    <time>2018-01-27T08:26:39Z</time>
   </trkpt>
   <trkpt lat="12.8962560" lon="99.6991500">
    <ele>94.9</ele>
    <time>2018-01-27T08:26:40Z</time>
   </trkpt>
   <trkpt lat="12.8961930" lon="99.6991560">
    <ele>95.0</ele>
    <time>2018-01-27T08:26:41Z</time>
   </trkpt>
   <trkpt lat="12.8961450" lon="99.6991470">
    <ele>95.1</ele>
    <time>2018-01-27T08:26:42Z</time>
   </trkpt>
   <trkpt lat="12.8960950" lon="99.6991270">
    <ele>95.0</ele>
    <time>2018-01-27T08:26:43Z</time>
   </trkpt>
   <trkpt lat="12.8960500" lon="99.6991080">
    <ele>95.7</ele>
    <time>2018-01-27T08:26:44Z</time>
   </trkpt>
   <trkpt lat="12.8959940" lon="99.6990940">
    <ele>95.0</ele>
    <time>2018-01-27T08:26:45Z</time>
   </trkpt>
   <trkpt lat="12.8959410" lon="99.6990700">
    <ele>94.4</ele>
    <time>2018-01-27T08:26:46Z</time>
   </trkpt>
   <trkpt lat="12.8958760" lon="99.6990510">
    <ele>93.5</ele>
    <time>2018-01-27T08:26:47Z</time>
   </trkpt>
   <trkpt lat="12.8958120" lon="99.6990120">
    <ele>92.8</ele>
    <time>2018-01-27T08:26:48Z</time>
   </trkpt>
   <trkpt lat="12.8957560" lon="99.6989780">
    <ele>93.1</ele>
    <time>2018-01-27T08:26:49Z</time>
   </trkpt>
   <trkpt lat="12.8957020" lon="99.6989290">
    <ele>93.4</ele>
    <time>2018-01-27T08:26:50Z</time>
   </trkpt>
   <trkpt lat="12.8956370" lon="99.6988780">
    <ele>92.4</ele>
    <time>2018-01-27T08:26:51Z</time>
   </trkpt>
   <trkpt lat="12.8955880" lon="99.6988260">
    <ele>92.7</ele>
    <time>2018-01-27T08:26:52Z</time>
   </trkpt>
   <trkpt lat="12.8955590" lon="99.6987660">
    <ele>94.3</ele>
    <time>2018-01-27T08:26:53Z</time>
   </trkpt>
   <trkpt lat="12.8955080" lon="99.6987040">
    <ele>94.4</ele>
    <time>2018-01-27T08:26:54Z</time>
   </trkpt>
   <trkpt lat="12.8954770" lon="99.6986390">
    <ele>95.4</ele>
    <time>2018-01-27T08:26:55Z</time>
   </trkpt>
   <trkpt lat="12.8954290" lon="99.6985770">
    <ele>95.1</ele>
    <time>2018-01-27T08:26:56Z</time>
   </trkpt>
   <trkpt lat="12.8953910" lon="99.6985310">
    <ele>94.5</ele>
    <time>2018-01-27T08:26:57Z</time>
   </trkpt>
   <trkpt lat="12.8953570" lon="99.6984840">
    <ele>95.0</ele>
    <time>2018-01-27T08:26:58Z</time>
   </trkpt>
   <trkpt lat="12.8953270" lon="99.6984530">
    <ele>94.3</ele>
    <time>2018-01-27T08:26:59Z</time>
   </trkpt>
   <trkpt lat="12.8952960" lon="99.6984340">
    <ele>93.6</ele>
    <time>2018-01-27T08:27:00Z</time>
   </trkpt>
   <trkpt lat="12.8952450" lon="99.6984220">
    <ele>92.6</ele>
    <time>2018-01-27T08:27:01Z</time>
   </trkpt>
   <trkpt lat="12.8951900" lon="99.6984090">
    <ele>91.5</ele>
    <time>2018-01-27T08:27:02Z</time>
   </trkpt>
   <trkpt lat="12.8951570" lon="99.6983760">
    <ele>90.5</ele>
    <time>2018-01-27T08:27:03Z</time>
   </trkpt>
   <trkpt lat="12.8951310" lon="99.6983390">
    <ele>89.8</ele>
    <time>2018-01-27T08:27:04Z</time>
   </trkpt>
   <trkpt lat="12.8951210" lon="99.6983010">
    <ele>90.0</ele>
    <time>2018-01-27T08:27:05Z</time>
   </trkpt>
   <trkpt lat="12.8950960" lon="99.6982570">
    <ele>89.4</ele>
    <time>2018-01-27T08:27:06Z</time>
   </trkpt>
   <trkpt lat="12.8950680" lon="99.6982190">
    <ele>89.4</ele>
    <time>2018-01-27T08:27:07Z</time>
   </trkpt>
   <trkpt lat="12.8950270" lon="99.6981820">
    <ele>88.8</ele>
    <time>2018-01-27T08:27:08Z</time>
   </trkpt>
   <trkpt lat="12.8949850" lon="99.6981450">
    <ele>88.3</ele>
    <time>2018-01-27T08:27:09Z</time>
   </trkpt>
   <trkpt lat="12.8949470" lon="99.6981160">
    <ele>88.2</ele>
    <time>2018-01-27T08:27:10Z</time>
   </trkpt>
   <trkpt lat="12.8949030" lon="99.6980840">
    <ele>88.4</ele>
    <time>2018-01-27T08:27:11Z</time>
   </trkpt>
   <trkpt lat="12.8948430" lon="99.6980460">
    <ele>88.2</ele>
    <time>2018-01-27T08:27:12Z</time>
   </trkpt>
   <trkpt lat="12.8947870" lon="99.6980150">
    <ele>87.9</ele>
    <time>2018-01-27T08:27:13Z</time>
   </trkpt>
   <trkpt lat="12.8947300" lon="99.6979920">
    <ele>87.8</ele>
    <time>2018-01-27T08:27:14Z</time>
   </trkpt>
   <trkpt lat="12.8946700" lon="99.6979770">
    <ele>87.2</ele>
    <time>2018-01-27T08:27:15Z</time>
   </trkpt>
   <trkpt lat="12.8946090" lon="99.6979630">
    <ele>87.3</ele>
    <time>2018-01-27T08:27:16Z</time>
   </trkpt>
   <trkpt lat="12.8945540" lon="99.6979530">
    <ele>86.8</ele>
    <time>2018-01-27T08:27:17Z</time>
   </trkpt>
   <trkpt lat="12.8945040" lon="99.6979520">
    <ele>86.6</ele>
    <time>2018-01-27T08:27:18Z</time>
   </trkpt>
   <trkpt lat="12.8944560" lon="99.6979620">
    <ele>86.4</ele>
    <time>2018-01-27T08:27:19Z</time>
   </trkpt>
   <trkpt lat="12.8943990" lon="99.6979680">
    <ele>86.0</ele>
    <time>2018-01-27T08:27:20Z</time>
   </trkpt>
   <trkpt lat="12.8943490" lon="99.6979630">
    <ele>85.5</ele>
    <time>2018-01-27T08:27:21Z</time>
   </trkpt>
   <trkpt lat="12.8942910" lon="99.6979700">
    <ele>85.1</ele>
    <time>2018-01-27T08:27:22Z</time>
   </trkpt>
   <trkpt lat="12.8942280" lon="99.6979820">
    <ele>84.8</ele>
    <time>2018-01-27T08:27:23Z</time>
   </trkpt>
   <trkpt lat="12.8941770" lon="99.6979720">
    <ele>84.8</ele>
    <time>2018-01-27T08:27:24Z</time>
   </trkpt>
   <trkpt lat="12.8941200" lon="99.6979810">
    <ele>84.8</ele>
    <time>2018-01-27T08:27:25Z</time>
   </trkpt>
   <trkpt lat="12.8940740" lon="99.6979930">
    <ele>84.9</ele>
    <time>2018-01-27T08:27:26Z</time>
   </trkpt>
   <trkpt lat="12.8940180" lon="99.6980060">
    <ele>84.8</ele>
    <time>2018-01-27T08:27:27Z</time>
   </trkpt>
   <trkpt lat="12.8939620" lon="99.6980000">
    <ele>84.4</ele>
    <time>2018-01-27T08:27:28Z</time>
   </trkpt>
   <trkpt lat="12.8939050" lon="99.6980090">
    <ele>84.1</ele>
    <time>2018-01-27T08:27:29Z</time>
   </trkpt>
   <trkpt lat="12.8938510" lon="99.6980140">
    <ele>83.7</ele>
    <time>2018-01-27T08:27:30Z</time>
   </trkpt>
   <trkpt lat="12.8937930" lon="99.6980180">
    <ele>83.1</ele>
    <time>2018-01-27T08:27:31Z</time>
   </trkpt>
   <trkpt lat="12.8937340" lon="99.6980180">
    <ele>82.7</ele>
    <time>2018-01-27T08:27:32Z</time>
   </trkpt>
   <trkpt lat="12.8936590" lon="99.6980300">
    <ele>82.0</ele>
    <time>2018-01-27T08:27:33Z</time>
   </trkpt>
   <trkpt lat="12.8936160" lon="99.6980260">
    <ele>81.8</ele>
    <time>2018-01-27T08:27:34Z</time>
   </trkpt>
   <trkpt lat="12.8935580" lon="99.6980160">
    <ele>81.7</ele>
    <time>2018-01-27T08:27:35Z</time>
   </trkpt>
   <trkpt lat="12.8935280" lon="99.6979800">
    <ele>81.5</ele>
    <time>2018-01-27T08:27:36Z</time>
   </trkpt>
   <trkpt lat="12.8935010" lon="99.6979190">
    <ele>81.1</ele>
    <time>2018-01-27T08:27:37Z</time>
   </trkpt>
   <trkpt lat="12.8934870" lon="99.6978660">
    <ele>80.7</ele>
    <time>2018-01-27T08:27:38Z</time>
   </trkpt>
   <trkpt lat="12.8934830" lon="99.6977980">
    <ele>80.3</ele>
    <time>2018-01-27T08:27:39Z</time>
   </trkpt>
   <trkpt lat="12.8934670" lon="99.6977410">
    <ele>79.7</ele>
    <time>2018-01-27T08:27:40Z</time>
   </trkpt>
   <trkpt lat="12.8934550" lon="99.6976780">
    <ele>79.5</ele>
    <time>2018-01-27T08:27:41Z</time>
   </trkpt>
   <trkpt lat="12.8934430" lon="99.6976170">
    <ele>79.3</ele>
    <time>2018-01-27T08:27:42Z</time>
   </trkpt>
   <trkpt lat="12.8934350" lon="99.6975510">
    <ele>79.2</ele>
    <time>2018-01-27T08:27:43Z</time>
   </trkpt>
   <trkpt lat="12.8934200" lon="99.6974950">
    <ele>78.9</ele>
    <time>2018-01-27T08:27:44Z</time>
   </trkpt>
   <trkpt lat="12.8934080" lon="99.6974210">
    <ele>79.0</ele>
    <time>2018-01-27T08:27:45Z</time>
   </trkpt>
   <trkpt lat="12.8933840" lon="99.6973570">
    <ele>79.4</ele>
    <time>2018-01-27T08:27:46Z</time>
   </trkpt>
   <trkpt lat="12.8933640" lon="99.6972960">
    <ele>79.7</ele>
    <time>2018-01-27T08:27:47Z</time>
   </trkpt>
   <trkpt lat="12.8933520" lon="99.6972370">
    <ele>80.3</ele>
    <time>2018-01-27T08:27:48Z</time>
   </trkpt>
   <trkpt lat="12.8933360" lon="99.6971740">
    <ele>80.6</ele>
    <time>2018-01-27T08:27:49Z</time>
   </trkpt>
   <trkpt lat="12.8933200" lon="99.6971070">
    <ele>81.0</ele>
    <time>2018-01-27T08:27:50Z</time>
   </trkpt>
   <trkpt lat="12.8933140" lon="99.6970380">
    <ele>81.1</ele>
    <time>2018-01-27T08:27:51Z</time>
   </trkpt>
   <trkpt lat="12.8932900" lon="99.6969630">
    <ele>81.2</ele>
    <time>2018-01-27T08:27:52Z</time>
   </trkpt>
   <trkpt lat="12.8932800" lon="99.6969000">
    <ele>81.0</ele>
    <time>2018-01-27T08:27:53Z</time>
   </trkpt>
   <trkpt lat="12.8932780" lon="99.6968340">
    <ele>80.6</ele>
    <time>2018-01-27T08:27:54Z</time>
   </trkpt>
   <trkpt lat="12.8932700" lon="99.6967760">
    <ele>80.3</ele>
    <time>2018-01-27T08:27:55Z</time>
   </trkpt>
   <trkpt lat="12.8932620" lon="99.6967190">
    <ele>79.9</ele>
    <time>2018-01-27T08:27:56Z</time>
   </trkpt>
   <trkpt lat="12.8932620" lon="99.6966670">
    <ele>79.9</ele>
    <time>2018-01-27T08:27:57Z</time>
   </trkpt>
   <trkpt lat="12.8932540" lon="99.6966160">
    <ele>79.9</ele>
    <time>2018-01-27T08:27:58Z</time>
   </trkpt>
   <trkpt lat="12.8932400" lon="99.6965830">
    <ele>79.9</ele>
    <time>2018-01-27T08:27:59Z</time>
   </trkpt>
   <trkpt lat="12.8932220" lon="99.6965540">
    <ele>80.0</ele>
    <time>2018-01-27T08:28:00Z</time>
   </trkpt>
   <trkpt lat="12.8931820" lon="99.6965370">
    <ele>80.0</ele>
    <time>2018-01-27T08:28:01Z</time>
   </trkpt>
   <trkpt lat="12.8931510" lon="99.6965160">
    <ele>80.0</ele>
    <time>2018-01-27T08:28:02Z</time>
   </trkpt>
   <trkpt lat="12.8931090" lon="99.6964970">
    <ele>79.9</ele>
    <time>2018-01-27T08:28:03Z</time>
   </trkpt>
   <trkpt lat="12.8930720" lon="99.6964670">
    <ele>79.9</ele>
    <time>2018-01-27T08:28:04Z</time>
   </trkpt>
   <trkpt lat="12.8930360" lon="99.6964220">
    <ele>79.9</ele>
    <time>2018-01-27T08:28:05Z</time>
   </trkpt>
   <trkpt lat="12.8929760" lon="99.6963700">
    <ele>80.4</ele>
    <time>2018-01-27T08:28:06Z</time>
   </trkpt>
   <trkpt lat="12.8929170" lon="99.6963300">
    <ele>81.0</ele>
    <time>2018-01-27T08:28:07Z</time>
   </trkpt>
   <trkpt lat="12.8928470" lon="99.6963070">
    <ele>81.1</ele>
    <time>2018-01-27T08:28:08Z</time>
   </trkpt>
   <trkpt lat="12.8927820" lon="99.6962900">
    <ele>80.9</ele>
    <time>2018-01-27T08:28:09Z</time>
   </trkpt>
   <trkpt lat="12.8927260" lon="99.6962640">
    <ele>80.9</ele>
    <time>2018-01-27T08:28:10Z</time>
   </trkpt>
   <trkpt lat="12.8926740" lon="99.6962350">
    <ele>80.9</ele>
    <time>2018-01-27T08:28:11Z</time>
   </trkpt>
   <trkpt lat="12.8926140" lon="99.6961980">
    <ele>80.9</ele>
    <time>2018-01-27T08:28:12Z</time>
   </trkpt>
   <trkpt lat="12.8925670" lon="99.6961550">
    <ele>81.0</ele>
    <time>2018-01-27T08:28:13Z</time>
   </trkpt>
   <trkpt lat="12.8925180" lon="99.6961090">
    <ele>81.0</ele>
    <time>2018-01-27T08:28:14Z</time>
   </trkpt>
   <trkpt lat="12.8924620" lon="99.6960780">
    <ele>80.5</ele>
    <time>2018-01-27T08:28:15Z</time>
   </trkpt>
   <trkpt lat="12.8924140" lon="99.6960820">
    <ele>80.4</ele>
    <time>2018-01-27T08:28:16Z</time>
   </trkpt>
   <trkpt lat="12.8923620" lon="99.6960730">
    <ele>79.9</ele>
    <time>2018-01-27T08:28:17Z</time>
   </trkpt>
   <trkpt lat="12.8923090" lon="99.6960820">
    <ele>79.9</ele>
    <time>2018-01-27T08:28:18Z</time>
   </trkpt>
   <trkpt lat="12.8922600" lon="99.6960960">
    <ele>79.4</ele>
    <time>2018-01-27T08:28:19Z</time>
   </trkpt>
   <trkpt lat="12.8922110" lon="99.6961090">
    <ele>79.2</ele>
    <time>2018-01-27T08:28:20Z</time>
   </trkpt>
   <trkpt lat="12.8921530" lon="99.6961250">
    <ele>79.3</ele>
    <time>2018-01-27T08:28:21Z</time>
   </trkpt>
   <trkpt lat="12.8920910" lon="99.6961440">
    <ele>78.7</ele>
    <time>2018-01-27T08:28:22Z</time>
   </trkpt>
   <trkpt lat="12.8920420" lon="99.6961590">
    <ele>78.2</ele>
    <time>2018-01-27T08:28:23Z</time>
   </trkpt>
   <trkpt lat="12.8919980" lon="99.6961770">
    <ele>77.9</ele>
    <time>2018-01-27T08:28:24Z</time>
   </trkpt>
   <trkpt lat="12.8919660" lon="99.6961900">
    <ele>77.3</ele>
    <time>2018-01-27T08:28:25Z</time>
   </trkpt>
   <trkpt lat="12.8919220" lon="99.6962030">
    <ele>76.8</ele>
    <time>2018-01-27T08:28:26Z</time>
   </trkpt>
   <trkpt lat="12.8918750" lon="99.6962120">
    <ele>77.0</ele>
    <time>2018-01-27T08:28:27Z</time>
   </trkpt>
   <trkpt lat="12.8918440" lon="99.6962150">
    <ele>77.0</ele>
    <time>2018-01-27T08:28:28Z</time>
   </trkpt>
   <trkpt lat="12.8917780" lon="99.6962210">
    <ele>76.9</ele>
    <time>2018-01-27T08:28:30Z</time>
   </trkpt>
   <trkpt lat="12.8917440" lon="99.6962180">
    <ele>76.9</ele>
    <time>2018-01-27T08:28:31Z</time>
   </trkpt>
   <trkpt lat="12.8916950" lon="99.6962160">
    <ele>76.9</ele>
    <time>2018-01-27T08:28:33Z</time>
   </trkpt>
   <trkpt lat="12.8916640" lon="99.6962120">
    <ele>76.7</ele>
    <time>2018-01-27T08:28:34Z</time>
   </trkpt>
   <trkpt lat="12.8916340" lon="99.6962070">
    <ele>76.7</ele>
    <time>2018-01-27T08:28:35Z</time>
   </trkpt>
   <trkpt lat="12.8915820" lon="99.6961920">
    <ele>76.0</ele>
    <time>2018-01-27T08:28:37Z</time>
   </trkpt>
   <trkpt lat="12.8915420" lon="99.6961670">
    <ele>75.6</ele>
    <time>2018-01-27T08:28:39Z</time>
   </trkpt>
   <trkpt lat="12.8915160" lon="99.6961530">
    <ele>75.4</ele>
    <time>2018-01-27T08:28:40Z</time>
   </trkpt>
   <trkpt lat="12.8914850" lon="99.6961420">
    <ele>74.9</ele>
    <time>2018-01-27T08:28:41Z</time>
   </trkpt>
   <trkpt lat="12.8914510" lon="99.6961380">
    <ele>74.4</ele>
    <time>2018-01-27T08:28:42Z</time>
   </trkpt>
   <trkpt lat="12.8914080" lon="99.6961640">
    <ele>74.0</ele>
    <time>2018-01-27T08:28:43Z</time>
   </trkpt>
   <trkpt lat="12.8913640" lon="99.6961930">
    <ele>73.6</ele>
    <time>2018-01-27T08:28:44Z</time>
   </trkpt>
   <trkpt lat="12.8913120" lon="99.6962110">
    <ele>73.4</ele>
    <time>2018-01-27T08:28:46Z</time>
   </trkpt>
   <trkpt lat="12.8912730" lon="99.6961980">
    <ele>73.0</ele>
    <time>2018-01-27T08:28:48Z</time>
   </trkpt>
   <trkpt lat="12.8912740" lon="99.6961660">
    <ele>73.0</ele>
    <time>2018-01-27T08:28:49Z</time>
   </trkpt>
   <trkpt lat="12.8912980" lon="99.6961290">
    <ele>73.2</ele>
    <time>2018-01-27T08:28:51Z</time>
   </trkpt>
   <trkpt lat="12.8913350" lon="99.6960920">
    <ele>73.3</ele>
    <time>2018-01-27T08:28:53Z</time>
   </trkpt>
   <trkpt lat="12.8913560" lon="99.6960720">
    <ele>73.6</ele>
    <time>2018-01-27T08:28:54Z</time>
   </trkpt>
   <trkpt lat="12.8913740" lon="99.6960470">
    <ele>73.6</ele>
    <time>2018-01-27T08:28:55Z</time>
   </trkpt>
   <trkpt lat="12.8913850" lon="99.6960150">
    <ele>74.0</ele>
    <time>2018-01-27T08:28:56Z</time>
   </trkpt>
   <trkpt lat="12.8913810" lon="99.6959710">
    <ele>73.8</ele>
    <time>2018-01-27T08:28:57Z</time>
   </trkpt>
   <trkpt lat="12.8913750" lon="99.6959260">
    <ele>73.8</ele>
    <time>2018-01-27T08:28:58Z</time>
   </trkpt>
   <trkpt lat="12.8913720" lon="99.6958840">
    <ele>73.8</ele>
    <time>2018-01-27T08:28:59Z</time>
   </trkpt>
   <trkpt lat="12.8913660" lon="99.6958440">
    <ele>73.6</ele>
    <time>2018-01-27T08:29:00Z</time>
   </trkpt>
   <trkpt lat="12.8913600" lon="99.6958090">
    <ele>73.4</ele>
    <time>2018-01-27T08:29:02Z</time>
   </trkpt>
   <trkpt lat="12.8913490" lon="99.6957830">
    <ele>73.4</ele>
    <time>2018-01-27T08:29:03Z</time>
   </trkpt>
   <trkpt lat="12.8913150" lon="99.6957420">
    <ele>73.3</ele>
    <time>2018-01-27T08:29:05Z</time>
   </trkpt>
   <trkpt lat="12.8912920" lon="99.6957090">
    <ele>73.5</ele>
    <time>2018-01-27T08:29:07Z</time>
   </trkpt>
   <trkpt lat="12.8912800" lon="99.6956520">
    <ele>73.5</ele>
    <time>2018-01-27T08:29:09Z</time>
   </trkpt>
   <trkpt lat="12.8912740" lon="99.6956190">
    <ele>73.5</ele>
    <time>2018-01-27T08:29:10Z</time>
   </trkpt>
   <trkpt lat="12.8912700" lon="99.6955890">
    <ele>73.4</ele>
    <time>2018-01-27T08:29:11Z</time>
   </trkpt>
   <trkpt lat="12.8912600" lon="99.6955280">
    <ele>73.4</ele>
    <time>2018-01-27T08:29:13Z</time>
   </trkpt>
   <trkpt lat="12.8912560" lon="99.6954920">
    <ele>73.7</ele>
    <time>2018-01-27T08:29:14Z</time>
   </trkpt>
   <trkpt lat="12.8912500" lon="99.6954560">
    <ele>73.7</ele>
    <time>2018-01-27T08:29:15Z</time>
   </trkpt>
   <trkpt lat="12.8912260" lon="99.6953840">
    <ele>73.8</ele>
    <time>2018-01-27T08:29:16Z</time>
   </trkpt>
   <trkpt lat="12.8912180" lon="99.6953530">
    <ele>73.8</ele>
    <time>2018-01-27T08:29:17Z</time>
   </trkpt>
   <trkpt lat="12.8911980" lon="99.6953180">
    <ele>73.7</ele>
    <time>2018-01-27T08:29:18Z</time>
   </trkpt>
   <trkpt lat="12.8911860" lon="99.6952830">
    <ele>73.6</ele>
    <time>2018-01-27T08:29:19Z</time>
   </trkpt>
   <trkpt lat="12.8911640" lon="99.6952460">
    <ele>73.7</ele>
    <time>2018-01-27T08:29:20Z</time>
   </trkpt>
   <trkpt lat="12.8911620" lon="99.6952090">
    <ele>73.8</ele>
    <time>2018-01-27T08:29:21Z</time>
   </trkpt>
   <trkpt lat="12.8911510" lon="99.6951700">
    <ele>74.1</ele>
    <time>2018-01-27T08:29:22Z</time>
   </trkpt>
   <trkpt lat="12.8911450" lon="99.6951330">
    <ele>74.5</ele>
    <time>2018-01-27T08:29:23Z</time>
   </trkpt>
   <trkpt lat="12.8911380" lon="99.6950980">
    <ele>74.5</ele>
    <time>2018-01-27T08:29:24Z</time>
   </trkpt>
   <trkpt lat="12.8911320" lon="99.6950640">
    <ele>75.0</ele>
    <time>2018-01-27T08:29:25Z</time>
   </trkpt>
   <trkpt lat="12.8911270" lon="99.6950370">
    <ele>75.5</ele>
    <time>2018-01-27T08:29:26Z</time>
   </trkpt>
   <trkpt lat="12.8911180" lon="99.6950040">
    <ele>75.8</ele>
    <time>2018-01-27T08:29:27Z</time>
   </trkpt>
   <trkpt lat="12.8911130" lon="99.6949750">
    <ele>75.8</ele>
    <time>2018-01-27T08:29:28Z</time>
   </trkpt>
   <trkpt lat="12.8911130" lon="99.6949250">
    <ele>76.0</ele>
    <time>2018-01-27T08:29:30Z</time>
   </trkpt>
   <trkpt lat="12.8911050" lon="99.6948840">
    <ele>76.2</ele>
    <time>2018-01-27T08:29:32Z</time>
   </trkpt>
   <trkpt lat="12.8910790" lon="99.6948360">
    <ele>76.4</ele>
    <time>2018-01-27T08:29:34Z</time>
   </trkpt>
   <trkpt lat="12.8910650" lon="99.6948070">
    <ele>76.8</ele>
    <time>2018-01-27T08:29:35Z</time>
   </trkpt>
   <trkpt lat="12.8910530" lon="99.6947780">
    <ele>77.4</ele>
    <time>2018-01-27T08:29:36Z</time>
   </trkpt>
   <trkpt lat="12.8910410" lon="99.6947470">
    <ele>77.9</ele>
    <time>2018-01-27T08:29:37Z</time>
   </trkpt>
   <trkpt lat="12.8910250" lon="99.6947210">
    <ele>77.9</ele>
    <time>2018-01-27T08:29:38Z</time>
   </trkpt>
   <trkpt lat="12.8910050" lon="99.6946940">
    <ele>78.4</ele>
    <time>2018-01-27T08:29:39Z</time>
   </trkpt>
   <trkpt lat="12.8909860" lon="99.6946640">
    <ele>78.4</ele>
    <time>2018-01-27T08:29:40Z</time>
   </trkpt>
   <trkpt lat="12.8909740" lon="99.6946350">
    <ele>78.8</ele>
    <time>2018-01-27T08:29:41Z</time>
   </trkpt>
   <trkpt lat="12.8909660" lon="99.6946050">
    <ele>79.2</ele>
    <time>2018-01-27T08:29:42Z</time>
   </trkpt>
   <trkpt lat="12.8909610" lon="99.6945720">
    <ele>79.7</ele>
    <time>2018-01-27T08:29:43Z</time>
   </trkpt>
   <trkpt lat="12.8909560" lon="99.6945400">
    <ele>79.7</ele>
    <time>2018-01-27T08:29:44Z</time>
   </trkpt>
   <trkpt lat="12.8909510" lon="99.6945070">
    <ele>80.1</ele>
    <time>2018-01-27T08:29:45Z</time>
   </trkpt>
   <trkpt lat="12.8909490" lon="99.6944760">
    <ele>80.4</ele>
    <time>2018-01-27T08:29:46Z</time>
   </trkpt>
   <trkpt lat="12.8909460" lon="99.6944460">
    <ele>80.5</ele>
    <time>2018-01-27T08:29:47Z</time>
   </trkpt>
   <trkpt lat="12.8909420" lon="99.6944160">
    <ele>80.5</ele>
    <time>2018-01-27T08:29:48Z</time>
   </trkpt>
   <trkpt lat="12.8909330" lon="99.6943850">
    <ele>80.5</ele>
    <time>2018-01-27T08:29:49Z</time>
   </trkpt>
   <trkpt lat="12.8909240" lon="99.6943570">
    <ele>80.4</ele>
    <time>2018-01-27T08:29:50Z</time>
   </trkpt>
   <trkpt lat="12.8909170" lon="99.6943300">
    <ele>80.6</ele>
    <time>2018-01-27T08:29:51Z</time>
   </trkpt>
   <trkpt lat="12.8909150" lon="99.6942990">
    <ele>80.4</ele>
    <time>2018-01-27T08:29:52Z</time>
   </trkpt>
   <trkpt lat="12.8909100" lon="99.6942680">
    <ele>80.2</ele>
    <time>2018-01-27T08:29:53Z</time>
   </trkpt>
   <trkpt lat="12.8909030" lon="99.6942300">
    <ele>79.9</ele>
    <time>2018-01-27T08:29:54Z</time>
   </trkpt>
   <trkpt lat="12.8908950" lon="99.6941820">
    <ele>79.7</ele>
    <time>2018-01-27T08:29:55Z</time>
   </trkpt>
   <trkpt lat="12.8908910" lon="99.6941310">
    <ele>79.4</ele>
    <time>2018-01-27T08:29:56Z</time>
   </trkpt>
   <trkpt lat="12.8908830" lon="99.6940790">
    <ele>79.2</ele>
    <time>2018-01-27T08:29:57Z</time>
   </trkpt>
   <trkpt lat="12.8908850" lon="99.6940320">
    <ele>78.9</ele>
    <time>2018-01-27T08:29:58Z</time>
   </trkpt>
   <trkpt lat="12.8908810" lon="99.6939750">
    <ele>78.6</ele>
    <time>2018-01-27T08:29:59Z</time>
   </trkpt>
   <trkpt lat="12.8908810" lon="99.6939300">
    <ele>78.5</ele>
    <time>2018-01-27T08:30:00Z</time>
   </trkpt>
   <trkpt lat="12.8908700" lon="99.6939040">
    <ele>78.4</ele>
    <time>2018-01-27T08:30:01Z</time>
   </trkpt>
   <trkpt lat="12.8908640" lon="99.6938730">
    <ele>78.4</ele>
    <time>2018-01-27T08:30:02Z</time>
   </trkpt>
   <trkpt lat="12.8908610" lon="99.6938440">
    <ele>78.5</ele>
    <time>2018-01-27T08:30:03Z</time>
   </trkpt>
   <trkpt lat="12.8908670" lon="99.6938150">
    <ele>78.5</ele>
    <time>2018-01-27T08:30:05Z</time>
   </trkpt>
   <trkpt lat="12.8908670" lon="99.6937800">
    <ele>78.5</ele>
    <time>2018-01-27T08:30:07Z</time>
   </trkpt>
   <trkpt lat="12.8908630" lon="99.6937430">
    <ele>78.4</ele>
    <time>2018-01-27T08:30:11Z</time>
   </trkpt>
   <trkpt lat="12.8908720" lon="99.6937060">
    <ele>78.4</ele>
    <time>2018-01-27T08:30:13Z</time>
   </trkpt>
   <trkpt lat="12.8908810" lon="99.6936800">
    <ele>78.4</ele>
    <time>2018-01-27T08:30:14Z</time>
   </trkpt>
   <trkpt lat="12.8908920" lon="99.6936490">
    <ele>78.3</ele>
    <time>2018-01-27T08:30:15Z</time>
   </trkpt>
   <trkpt lat="12.8909050" lon="99.6936130">
    <ele>78.2</ele>
    <time>2018-01-27T08:30:16Z</time>
   </trkpt>
   <trkpt lat="12.8909190" lon="99.6935760">
    <ele>77.8</ele>
    <time>2018-01-27T08:30:17Z</time>
   </trkpt>
   <trkpt lat="12.8909310" lon="99.6935460">
    <ele>77.6</ele>
    <time>2018-01-27T08:30:18Z</time>
   </trkpt>
   <trkpt lat="12.8909410" lon="99.6935180">
    <ele>77.5</ele>
    <time>2018-01-27T08:30:19Z</time>
   </trkpt>
   <trkpt lat="12.8909420" lon="99.6934370">
    <ele>77.2</ele>
    <time>2018-01-27T08:30:21Z</time>
   </trkpt>
   <trkpt lat="12.8909450" lon="99.6934050">
    <ele>77.1</ele>
    <time>2018-01-27T08:30:22Z</time>
   </trkpt>
   <trkpt lat="12.8909460" lon="99.6933740">
    <ele>77.1</ele>
    <time>2018-01-27T08:30:23Z</time>
   </trkpt>
   <trkpt lat="12.8909450" lon="99.6933420">
    <ele>77.0</ele>
    <time>2018-01-27T08:30:24Z</time>
   </trkpt>
   <trkpt lat="12.8909420" lon="99.6933110">
    <ele>77.0</ele>
    <time>2018-01-27T08:30:25Z</time>
   </trkpt>
   <trkpt lat="12.8909420" lon="99.6932800">
    <ele>76.9</ele>
    <time>2018-01-27T08:30:26Z</time>
   </trkpt>
   <trkpt lat="12.8909440" lon="99.6932490">
    <ele>76.9</ele>
    <time>2018-01-27T08:30:27Z</time>
   </trkpt>
   <trkpt lat="12.8909450" lon="99.6932160">
    <ele>76.9</ele>
    <time>2018-01-27T08:30:28Z</time>
   </trkpt>
   <trkpt lat="12.8909450" lon="99.6931850">
    <ele>76.8</ele>
    <time>2018-01-27T08:30:29Z</time>
   </trkpt>
   <trkpt lat="12.8909450" lon="99.6931520">
    <ele>76.8</ele>
    <time>2018-01-27T08:30:30Z</time>
   </trkpt>
   <trkpt lat="12.8909440" lon="99.6931210">
    <ele>76.8</ele>
    <time>2018-01-27T08:30:31Z</time>
   </trkpt>
   <trkpt lat="12.8909420" lon="99.6930880">
    <ele>76.8</ele>
    <time>2018-01-27T08:30:32Z</time>
   </trkpt>
   <trkpt lat="12.8909400" lon="99.6930580">
    <ele>76.8</ele>
    <time>2018-01-27T08:30:33Z</time>
   </trkpt>
   <trkpt lat="12.8909340" lon="99.6930270">
    <ele>76.8</ele>
    <time>2018-01-27T08:30:34Z</time>
   </trkpt>
   <trkpt lat="12.8909270" lon="99.6929920">
    <ele>76.8</ele>
    <time>2018-01-27T08:30:35Z</time>
   </trkpt>
   <trkpt lat="12.8909200" lon="99.6929580">
    <ele>76.8</ele>
    <time>2018-01-27T08:30:36Z</time>
   </trkpt>
   <trkpt lat="12.8909080" lon="99.6929230">
    <ele>76.9</ele>
    <time>2018-01-27T08:30:37Z</time>
   </trkpt>
   <trkpt lat="12.8908960" lon="99.6928930">
    <ele>76.9</ele>
    <time>2018-01-27T08:30:38Z</time>
   </trkpt>
   <trkpt lat="12.8908840" lon="99.6928590">
    <ele>77.0</ele>
    <time>2018-01-27T08:30:39Z</time>
   </trkpt>
   <trkpt lat="12.8908710" lon="99.6928240">
    <ele>77.1</ele>
    <time>2018-01-27T08:30:40Z</time>
   </trkpt>
   <trkpt lat="12.8908600" lon="99.6927930">
    <ele>77.3</ele>
    <time>2018-01-27T08:30:41Z</time>
   </trkpt>
   <trkpt lat="12.8908460" lon="99.6927640">
    <ele>77.4</ele>
    <time>2018-01-27T08:30:42Z</time>
   </trkpt>
   <trkpt lat="12.8908290" lon="99.6927370">
    <ele>77.6</ele>
    <time>2018-01-27T08:30:43Z</time>
   </trkpt>
   <trkpt lat="12.8908070" lon="99.6927090">
    <ele>77.9</ele>
    <time>2018-01-27T08:30:45Z</time>
   </trkpt>
   <trkpt lat="12.8907960" lon="99.6926830">
    <ele>78.0</ele>
    <time>2018-01-27T08:30:46Z</time>
   </trkpt>
   <trkpt lat="12.8907850" lon="99.6926350">
    <ele>78.3</ele>
    <time>2018-01-27T08:30:48Z</time>
   </trkpt>
   <trkpt lat="12.8907800" lon="99.6925900">
    <ele>78.4</ele>
    <time>2018-01-27T08:30:50Z</time>
   </trkpt>
   <trkpt lat="12.8907790" lon="99.6925420">
    <ele>78.6</ele>
    <time>2018-01-27T08:30:52Z</time>
   </trkpt>
   <trkpt lat="12.8907730" lon="99.6924930">
    <ele>78.8</ele>
    <time>2018-01-27T08:30:54Z</time>
   </trkpt>
   <trkpt lat="12.8907640" lon="99.6924410">
    <ele>78.9</ele>
    <time>2018-01-27T08:30:56Z</time>
   </trkpt>
   <trkpt lat="12.8907580" lon="99.6924130">
    <ele>79.1</ele>
    <time>2018-01-27T08:30:57Z</time>
   </trkpt>
   <trkpt lat="12.8907510" lon="99.6923850">
    <ele>79.2</ele>
    <time>2018-01-27T08:30:58Z</time>
   </trkpt>
   <trkpt lat="12.8907410" lon="99.6923350">
    <ele>79.5</ele>
    <time>2018-01-27T08:31:00Z</time>
   </trkpt>
   <trkpt lat="12.8907310" lon="99.6922840">
    <ele>79.8</ele>
    <time>2018-01-27T08:31:02Z</time>
   </trkpt>
   <trkpt lat="12.8907160" lon="99.6922330">
    <ele>80.3</ele>
    <time>2018-01-27T08:31:04Z</time>
   </trkpt>
   <trkpt lat="12.8907010" lon="99.6921850">
    <ele>80.8</ele>
    <time>2018-01-27T08:31:06Z</time>
   </trkpt>
   <trkpt lat="12.8906880" lon="99.6921400">
    <ele>81.2</ele>
    <time>2018-01-27T08:31:08Z</time>
   </trkpt>
   <trkpt lat="12.8906720" lon="99.6920930">
    <ele>81.6</ele>
    <time>2018-01-27T08:31:10Z</time>
   </trkpt>
   <trkpt lat="12.8906560" lon="99.6920470">
    <ele>81.9</ele>
    <time>2018-01-27T08:31:12Z</time>
   </trkpt>
   <trkpt lat="12.8906320" lon="99.6920040">
    <ele>82.2</ele>
    <time>2018-01-27T08:31:14Z</time>
   </trkpt>
   <trkpt lat="12.8906010" lon="99.6919630">
    <ele>82.6</ele>
    <time>2018-01-27T08:31:16Z</time>
   </trkpt>
   <trkpt lat="12.8905800" lon="99.6919150">
    <ele>83.0</ele>
    <time>2018-01-27T08:31:18Z</time>
   </trkpt>
   <trkpt lat="12.8905610" lon="99.6918670">
    <ele>83.4</ele>
    <time>2018-01-27T08:31:20Z</time>
   </trkpt>
   <trkpt lat="12.8905380" lon="99.6918150">
    <ele>83.9</ele>
    <time>2018-01-27T08:31:22Z</time>
   </trkpt>
   <trkpt lat="12.8905260" lon="99.6917900">
    <ele>84.1</ele>
    <time>2018-01-27T08:31:23Z</time>
   </trkpt>
   <trkpt lat="12.8905150" lon="99.6917640">
    <ele>84.3</ele>
    <time>2018-01-27T08:31:24Z</time>
   </trkpt>
   <trkpt lat="12.8905050" lon="99.6917370">
    <ele>84.4</ele>
    <time>2018-01-27T08:31:25Z</time>
   </trkpt>
   <trkpt lat="12.8904980" lon="99.6917100">
    <ele>84.5</ele>
    <time>2018-01-27T08:31:26Z</time>
   </trkpt>
   <trkpt lat="12.8904920" lon="99.6916830">
    <ele>84.6</ele>
    <time>2018-01-27T08:31:27Z</time>
   </trkpt>
   <trkpt lat="12.8904860" lon="99.6916550">
    <ele>84.8</ele>
    <time>2018-01-27T08:31:28Z</time>
   </trkpt>
   <trkpt lat="12.8904790" lon="99.6916270">
    <ele>84.9</ele>
    <time>2018-01-27T08:31:29Z</time>
   </trkpt>
   <trkpt lat="12.8904580" lon="99.6915810">
    <ele>85.1</ele>
    <time>2018-01-27T08:31:31Z</time>
   </trkpt>
   <trkpt lat="12.8904440" lon="99.6915370">
    <ele>85.4</ele>
    <time>2018-01-27T08:31:33Z</time>
   </trkpt>
   <trkpt lat="12.8904440" lon="99.6914920">
    <ele>85.8</ele>
    <time>2018-01-27T08:31:35Z</time>
   </trkpt>
   <trkpt lat="12.8904390" lon="99.6914490">
    <ele>86.3</ele>
    <time>2018-01-27T08:31:37Z</time>
   </trkpt>
   <trkpt lat="12.8904390" lon="99.6914080">
    <ele>86.7</ele>
    <time>2018-01-27T08:31:39Z</time>
   </trkpt>
   <trkpt lat="12.8904350" lon="99.6913670">
    <ele>87.1</ele>
    <time>2018-01-27T08:31:41Z</time>
   </trkpt>
   <trkpt lat="12.8904260" lon="99.6913220">
    <ele>87.5</ele>
    <time>2018-01-27T08:31:43Z</time>
   </trkpt>
   <trkpt lat="12.8904190" lon="99.6912770">
    <ele>87.7</ele>
    <time>2018-01-27T08:31:45Z</time>
   </trkpt>
   <trkpt lat="12.8904140" lon="99.6912310">
    <ele>88.0</ele>
    <time>2018-01-27T08:31:47Z</time>
   </trkpt>
   <trkpt lat="12.8904060" lon="99.6911910">
    <ele>88.1</ele>
    <time>2018-01-27T08:31:49Z</time>
   </trkpt>
   <trkpt lat="12.8904040" lon="99.6911490">
    <ele>88.3</ele>
    <time>2018-01-27T08:31:51Z</time>
   </trkpt>
   <trkpt lat="12.8904050" lon="99.6911000">
    <ele>88.6</ele>
    <time>2018-01-27T08:31:53Z</time>
   </trkpt>
   <trkpt lat="12.8904050" lon="99.6910530">
    <ele>88.8</ele>
    <time>2018-01-27T08:31:55Z</time>
   </trkpt>
   <trkpt lat="12.8903940" lon="99.6910040">
    <ele>89.1</ele>
    <time>2018-01-27T08:31:57Z</time>
   </trkpt>
   <trkpt lat="12.8903640" lon="99.6909600">
    <ele>89.5</ele>
    <time>2018-01-27T08:31:59Z</time>
   </trkpt>
   <trkpt lat="12.8903270" lon="99.6909220">
    <ele>90.0</ele>
    <time>2018-01-27T08:32:01Z</time>
   </trkpt>
   <trkpt lat="12.8903050" lon="99.6909020">
    <ele>90.3</ele>
    <time>2018-01-27T08:32:02Z</time>
   </trkpt>
   <trkpt lat="12.8902840" lon="99.6908850">
    <ele>90.4</ele>
    <time>2018-01-27T08:32:03Z</time>
   </trkpt>
   <trkpt lat="12.8902440" lon="99.6908580">
    <ele>90.7</ele>
    <time>2018-01-27T08:32:05Z</time>
   </trkpt>
   <trkpt lat="12.8902020" lon="99.6908370">
    <ele>90.9</ele>
    <time>2018-01-27T08:32:07Z</time>
   </trkpt>
   <trkpt lat="12.8901610" lon="99.6908210">
    <ele>91.1</ele>
    <time>2018-01-27T08:32:09Z</time>
   </trkpt>
   <trkpt lat="12.8901240" lon="99.6908100">
    <ele>91.3</ele>
    <time>2018-01-27T08:32:11Z</time>
   </trkpt>
   <trkpt lat="12.8900800" lon="99.6908020">
    <ele>91.5</ele>
    <time>2018-01-27T08:32:13Z</time>
   </trkpt>
   <trkpt lat="12.8900340" lon="99.6907810">
    <ele>92.1</ele>
    <time>2018-01-27T08:32:15Z</time>
   </trkpt>
   <trkpt lat="12.8899960" lon="99.6907440">
    <ele>92.7</ele>
    <time>2018-01-27T08:32:17Z</time>
   </trkpt>
   <trkpt lat="12.8899630" lon="99.6907080">
    <ele>93.2</ele>
    <time>2018-01-27T08:32:19Z</time>
   </trkpt>
   <trkpt lat="12.8899360" lon="99.6906700">
    <ele>93.6</ele>
    <time>2018-01-27T08:32:21Z</time>
   </trkpt>
   <trkpt lat="12.8899040" lon="99.6906340">
    <ele>93.8</ele>
    <time>2018-01-27T08:32:23Z</time>
   </trkpt>
   <trkpt lat="12.8898710" lon="99.6905950">
    <ele>94.0</ele>
    <time>2018-01-27T08:32:25Z</time>
   </trkpt>
   <trkpt lat="12.8898390" lon="99.6905570">
    <ele>94.3</ele>
    <time>2018-01-27T08:32:27Z</time>
   </trkpt>
   <trkpt lat="12.8898030" lon="99.6905220">
    <ele>94.5</ele>
    <time>2018-01-27T08:32:29Z</time>
   </trkpt>
   <trkpt lat="12.8897660" lon="99.6904850">
    <ele>94.7</ele>
    <time>2018-01-27T08:32:31Z</time>
   </trkpt>
   <trkpt lat="12.8897320" lon="99.6904480">
    <ele>94.9</ele>
    <time>2018-01-27T08:32:33Z</time>
   </trkpt>
   <trkpt lat="12.8897040" lon="99.6904110">
    <ele>95.1</ele>
    <time>2018-01-27T08:32:35Z</time>
   </trkpt>
   <trkpt lat="12.8896930" lon="99.6903660">
    <ele>95.4</ele>
    <time>2018-01-27T08:32:37Z</time>
   </trkpt>
   <trkpt lat="12.8897040" lon="99.6903150">
    <ele>95.8</ele>
    <time>2018-01-27T08:32:39Z</time>
   </trkpt>
   <trkpt lat="12.8897140" lon="99.6902640">
    <ele>96.2</ele>
    <time>2018-01-27T08:32:41Z</time>
   </trkpt>
   <trkpt lat="12.8897290" lon="99.6902140">
    <ele>96.6</ele>
    <time>2018-01-27T08:32:43Z</time>
   </trkpt>
   <trkpt lat="12.8897440" lon="99.6901610">
    <ele>96.9</ele>
    <time>2018-01-27T08:32:45Z</time>
   </trkpt>
   <trkpt lat="12.8897480" lon="99.6901330">
    <ele>97.0</ele>
    <time>2018-01-27T08:32:46Z</time>
   </trkpt>
   <trkpt lat="12.8897480" lon="99.6900830">
    <ele>97.2</ele>
    <time>2018-01-27T08:32:48Z</time>
   </trkpt>
   <trkpt lat="12.8897400" lon="99.6900330">
    <ele>97.4</ele>
    <time>2018-01-27T08:32:50Z</time>
   </trkpt>
   <trkpt lat="12.8897230" lon="99.6899840">
    <ele>97.5</ele>
    <time>2018-01-27T08:32:52Z</time>
   </trkpt>
   <trkpt lat="12.8896910" lon="99.6899430">
    <ele>97.7</ele>
    <time>2018-01-27T08:32:54Z</time>
   </trkpt>
   <trkpt lat="12.8896680" lon="99.6899250">
    <ele>97.8</ele>
    <time>2018-01-27T08:32:55Z</time>
   </trkpt>
   <trkpt lat="12.8896400" lon="99.6899080">
    <ele>97.9</ele>
    <time>2018-01-27T08:32:56Z</time>
   </trkpt>
   <trkpt lat="12.8896110" lon="99.6898920">
    <ele>97.9</ele>
    <time>2018-01-27T08:32:57Z</time>
   </trkpt>
   <trkpt lat="12.8895760" lon="99.6898790">
    <ele>98.0</ele>
    <time>2018-01-27T08:32:58Z</time>
   </trkpt>
   <trkpt lat="12.8895430" lon="99.6898640">
    <ele>98.1</ele>
    <time>2018-01-27T08:32:59Z</time>
   </trkpt>
   <trkpt lat="12.8895130" lon="99.6898440">
    <ele>98.1</ele>
    <time>2018-01-27T08:33:00Z</time>
   </trkpt>
   <trkpt lat="12.8894960" lon="99.6898170">
    <ele>98.2</ele>
    <time>2018-01-27T08:33:01Z</time>
   </trkpt>
   <trkpt lat="12.8894740" lon="99.6897910">
    <ele>98.3</ele>
    <time>2018-01-27T08:33:02Z</time>
   </trkpt>
   <trkpt lat="12.8894470" lon="99.6897650">
    <ele>98.3</ele>
    <time>2018-01-27T08:33:03Z</time>
   </trkpt>
   <trkpt lat="12.8894240" lon="99.6897390">
    <ele>98.4</ele>
    <time>2018-01-27T08:33:04Z</time>
   </trkpt>
   <trkpt lat="12.8893990" lon="99.6897130">
    <ele>98.4</ele>
    <time>2018-01-27T08:33:05Z</time>
   </trkpt>
   <trkpt lat="12.8893730" lon="99.6896900">
    <ele>98.5</ele>
    <time>2018-01-27T08:33:06Z</time>
   </trkpt>
   <trkpt lat="12.8893510" lon="99.6896730">
    <ele>98.5</ele>
    <time>2018-01-27T08:33:08Z</time>
   </trkpt>
   <trkpt lat="12.8893270" lon="99.6896460">
    <ele>98.5</ele>
    <time>2018-01-27T08:33:09Z</time>
   </trkpt>
   <trkpt lat="12.8893030" lon="99.6896150">
    <ele>98.6</ele>
    <time>2018-01-27T08:33:10Z</time>
   </trkpt>
   <trkpt lat="12.8892800" lon="99.6895800">
    <ele>98.6</ele>
    <time>2018-01-27T08:33:11Z</time>
   </trkpt>
   <trkpt lat="12.8892540" lon="99.6895460">
    <ele>98.7</ele>
    <time>2018-01-27T08:33:12Z</time>
   </trkpt>
   <trkpt lat="12.8892220" lon="99.6895150">
    <ele>98.7</ele>
    <time>2018-01-27T08:33:13Z</time>
   </trkpt>
   <trkpt lat="12.8891840" lon="99.6894890">
    <ele>98.8</ele>
    <time>2018-01-27T08:33:14Z</time>
   </trkpt>
   <trkpt lat="12.8891130" lon="99.6894620">
    <ele>98.8</ele>
    <time>2018-01-27T08:33:15Z</time>
   </trkpt>
   <trkpt lat="12.8890460" lon="99.6894160">
    <ele>98.9</ele>
    <time>2018-01-27T08:33:16Z</time>
   </trkpt>
   <trkpt lat="12.8890110" lon="99.6893920">
    <ele>98.9</ele>
    <time>2018-01-27T08:33:17Z</time>
   </trkpt>
   <trkpt lat="12.8889590" lon="99.6893660">
    <ele>99.0</ele>
    <time>2018-01-27T08:33:18Z</time>
   </trkpt>
   <trkpt lat="12.8889170" lon="99.6893440">
    <ele>99.0</ele>
    <time>2018-01-27T08:33:19Z</time>
   </trkpt>
   <trkpt lat="12.8888730" lon="99.6893190">
    <ele>99.1</ele>
    <time>2018-01-27T08:33:20Z</time>
   </trkpt>
   <trkpt lat="12.8888270" lon="99.6892900">
    <ele>99.1</ele>
    <time>2018-01-27T08:33:21Z</time>
   </trkpt>
   <trkpt lat="12.8887930" lon="99.6892560">
    <ele>99.2</ele>
    <time>2018-01-27T08:33:22Z</time>
   </trkpt>
   <trkpt lat="12.8887550" lon="99.6892100">
    <ele>99.2</ele>
    <time>2018-01-27T08:33:23Z</time>
   </trkpt>
   <trkpt lat="12.8887360" lon="99.6891680">
    <ele>99.3</ele>
    <time>2018-01-27T08:33:24Z</time>
   </trkpt>
   <trkpt lat="12.8886960" lon="99.6891280">
    <ele>99.3</ele>
    <time>2018-01-27T08:33:25Z</time>
   </trkpt>
   <trkpt lat="12.8886650" lon="99.6890950">
    <ele>99.3</ele>
    <time>2018-01-27T08:33:26Z</time>
   </trkpt>
   <trkpt lat="12.8886400" lon="99.6890630">
    <ele>99.4</ele>
    <time>2018-01-27T08:33:27Z</time>
   </trkpt>
   <trkpt lat="12.8886100" lon="99.6890210">
    <ele>99.4</ele>
    <time>2018-01-27T08:33:28Z</time>
   </trkpt>
   <trkpt lat="12.8885940" lon="99.6889750">
    <ele>99.4</ele>
    <time>2018-01-27T08:33:29Z</time>
   </trkpt>
   <trkpt lat="12.8885730" lon="99.6889290">
    <ele>99.5</ele>
    <time>2018-01-27T08:33:30Z</time>
   </trkpt>
   <trkpt lat="12.8885590" lon="99.6888880">
    <ele>99.5</ele>
    <time>2018-01-27T08:33:31Z</time>
   </trkpt>
   <trkpt lat="12.8885280" lon="99.6888490">
    <ele>99.6</ele>
    <time>2018-01-27T08:33:32Z</time>
   </trkpt>
   <trkpt lat="12.8885050" lon="99.6888110">
    <ele>99.6</ele>
    <time>2018-01-27T08:33:33Z</time>
   </trkpt>
   <trkpt lat="12.8884850" lon="99.6887800">
    <ele>99.6</ele>
    <time>2018-01-27T08:33:34Z</time>
   </trkpt>
   <trkpt lat="12.8884650" lon="99.6887370">
    <ele>99.7</ele>
    <time>2018-01-27T08:33:36Z</time>
   </trkpt>
   <trkpt lat="12.8884270" lon="99.6886990">
    <ele>99.7</ele>
    <time>2018-01-27T08:33:38Z</time>
   </trkpt>
   <trkpt lat="12.8883300" lon="99.6886420">
    <ele>99.9</ele>
    <time>2018-01-27T08:33:40Z</time>
   </trkpt>
   <trkpt lat="12.8883010" lon="99.6886260">
    <ele>99.9</ele>
    <time>2018-01-27T08:33:41Z</time>
   </trkpt>
   <trkpt lat="12.8882640" lon="99.6886100">
    <ele>99.9</ele>
    <time>2018-01-27T08:33:42Z</time>
   </trkpt>
   <trkpt lat="12.8882280" lon="99.6886020">
    <ele>100.0</ele>
    <time>2018-01-27T08:33:43Z</time>
   </trkpt>
   <trkpt lat="12.8881930" lon="99.6885870">
    <ele>100.0</ele>
    <time>2018-01-27T08:33:44Z</time>
   </trkpt>
   <trkpt lat="12.8881570" lon="99.6885740">
    <ele>100.0</ele>
    <time>2018-01-27T08:33:45Z</time>
   </trkpt>
   <trkpt lat="12.8881280" lon="99.6885690">
    <ele>100.0</ele>
    <time>2018-01-27T08:33:46Z</time>
   </trkpt>
   <trkpt lat="12.8880990" lon="99.6885680">
    <ele>100.1</ele>
    <time>2018-01-27T08:33:47Z</time>
   </trkpt>
   <trkpt lat="12.8880700" lon="99.6885710">
    <ele>100.1</ele>
    <time>2018-01-27T08:33:48Z</time>
   </trkpt>
   <trkpt lat="12.8879260" lon="99.6885680">
    <ele>100.1</ele>
    <time>2018-01-27T08:33:51Z</time>
   </trkpt>
   <trkpt lat="12.8878800" lon="99.6885680">
    <ele>100.1</ele>
    <time>2018-01-27T08:33:52Z</time>
   </trkpt>
   <trkpt lat="12.8878420" lon="99.6885720">
    <ele>100.1</ele>
    <time>2018-01-27T08:33:53Z</time>
   </trkpt>
   <trkpt lat="12.8877830" lon="99.6885800">
    <ele>100.1</ele>
    <time>2018-01-27T08:33:55Z</time>
   </trkpt>
   <trkpt lat="12.8877390" lon="99.6885900">
    <ele>100.1</ele>
    <time>2018-01-27T08:33:56Z</time>
   </trkpt>
   <trkpt lat="12.8876980" lon="99.6885990">
    <ele>100.1</ele>
    <time>2018-01-27T08:33:57Z</time>
   </trkpt>
   <trkpt lat="12.8876440" lon="99.6886370">
    <ele>100.0</ele>
    <time>2018-01-27T08:33:58Z</time>
   </trkpt>
   <trkpt lat="12.8876020" lon="99.6886500">
    <ele>100.0</ele>
    <time>2018-01-27T08:33:59Z</time>
   </trkpt>
   <trkpt lat="12.8875640" lon="99.6886630">
    <ele>99.9</ele>
    <time>2018-01-27T08:34:00Z</time>
   </trkpt>
   <trkpt lat="12.8875210" lon="99.6886750">
    <ele>99.9</ele>
    <time>2018-01-27T08:34:01Z</time>
   </trkpt>
   <trkpt lat="12.8874740" lon="99.6886960">
    <ele>99.8</ele>
    <time>2018-01-27T08:34:02Z</time>
   </trkpt>
   <trkpt lat="12.8874430" lon="99.6887060">
    <ele>99.7</ele>
    <time>2018-01-27T08:34:03Z</time>
   </trkpt>
   <trkpt lat="12.8874110" lon="99.6886980">
    <ele>99.7</ele>
    <time>2018-01-27T08:34:04Z</time>
   </trkpt>
   <trkpt lat="12.8873620" lon="99.6886980">
    <ele>99.6</ele>
    <time>2018-01-27T08:34:05Z</time>
   </trkpt>
   <trkpt lat="12.8873410" lon="99.6886730">
    <ele>99.5</ele>
    <time>2018-01-27T08:34:06Z</time>
   </trkpt>
   <trkpt lat="12.8873130" lon="99.6886150">
    <ele>99.4</ele>
    <time>2018-01-27T08:34:08Z</time>
   </trkpt>
   <trkpt lat="12.8873040" lon="99.6885870">
    <ele>99.3</ele>
    <time>2018-01-27T08:34:09Z</time>
   </trkpt>
   <trkpt lat="12.8872920" lon="99.6885620">
    <ele>99.3</ele>
    <time>2018-01-27T08:34:10Z</time>
   </trkpt>
   <trkpt lat="12.8872820" lon="99.6885330">
    <ele>99.2</ele>
    <time>2018-01-27T08:34:11Z</time>
   </trkpt>
   <trkpt lat="12.8872710" lon="99.6884960">
    <ele>99.0</ele>
    <time>2018-01-27T08:34:13Z</time>
   </trkpt>
   <trkpt lat="12.8872610" lon="99.6884700">
    <ele>99.0</ele>
    <time>2018-01-27T08:34:14Z</time>
   </trkpt>
   <trkpt lat="12.8872560" lon="99.6884420">
    <ele>99.0</ele>
    <time>2018-01-27T08:34:15Z</time>
   </trkpt>
   <trkpt lat="12.8872700" lon="99.6883870">
    <ele>99.1</ele>
    <time>2018-01-27T08:34:17Z</time>
   </trkpt>
   <trkpt lat="12.8872780" lon="99.6883390">
    <ele>99.2</ele>
    <time>2018-01-27T08:34:19Z</time>
   </trkpt>
   <trkpt lat="12.8872890" lon="99.6882870">
    <ele>99.3</ele>
    <time>2018-01-27T08:34:21Z</time>
   </trkpt>
   <trkpt lat="12.8872910" lon="99.6882570">
    <ele>99.3</ele>
    <time>2018-01-27T08:34:22Z</time>
   </trkpt>
   <trkpt lat="12.8872950" lon="99.6882260">
    <ele>99.3</ele>
    <time>2018-01-27T08:34:23Z</time>
   </trkpt>
   <trkpt lat="12.8873010" lon="99.6881970">
    <ele>99.3</ele>
    <time>2018-01-27T08:34:24Z</time>
   </trkpt>
   <trkpt lat="12.8873180" lon="99.6881430">
    <ele>99.4</ele>
    <time>2018-01-27T08:34:26Z</time>
   </trkpt>
   <trkpt lat="12.8873280" lon="99.6881140">
    <ele>99.4</ele>
    <time>2018-01-27T08:34:27Z</time>
   </trkpt>
   <trkpt lat="12.8873380" lon="99.6880860">
    <ele>99.5</ele>
    <time>2018-01-27T08:34:28Z</time>
   </trkpt>
   <trkpt lat="12.8873470" lon="99.6880590">
    <ele>99.6</ele>
    <time>2018-01-27T08:34:29Z</time>
   </trkpt>
   <trkpt lat="12.8873580" lon="99.6880080">
    <ele>99.9</ele>
    <time>2018-01-27T08:34:31Z</time>
   </trkpt>
   <trkpt lat="12.8873660" lon="99.6879810">
    <ele>100.2</ele>
    <time>2018-01-27T08:34:32Z</time>
   </trkpt>
   <trkpt lat="12.8873980" lon="99.6879410">
    <ele>100.7</ele>
    <time>2018-01-27T08:34:34Z</time>
   </trkpt>
   <trkpt lat="12.8874140" lon="99.6879110">
    <ele>101.0</ele>
    <time>2018-01-27T08:34:36Z</time>
   </trkpt>
   <trkpt lat="12.8874210" lon="99.6878820">
    <ele>101.1</ele>
    <time>2018-01-27T08:34:37Z</time>
   </trkpt>
   <trkpt lat="12.8874230" lon="99.6878500">
    <ele>101.3</ele>
    <time>2018-01-27T08:34:38Z</time>
   </trkpt>
   <trkpt lat="12.8874260" lon="99.6878190">
    <ele>101.4</ele>
    <time>2018-01-27T08:34:39Z</time>
   </trkpt>
   <trkpt lat="12.8874310" lon="99.6877890">
    <ele>101.4</ele>
    <time>2018-01-27T08:34:40Z</time>
   </trkpt>
   <trkpt lat="12.8874350" lon="99.6877620">
    <ele>101.4</ele>
    <time>2018-01-27T08:34:41Z</time>
   </trkpt>
   <trkpt lat="12.8874420" lon="99.6877340">
    <ele>101.2</ele>
    <time>2018-01-27T08:34:42Z</time>
   </trkpt>
   <trkpt lat="12.8874500" lon="99.6877070">
    <ele>101.0</ele>
    <time>2018-01-27T08:34:43Z</time>
   </trkpt>
   <trkpt lat="12.8874580" lon="99.6876780">
    <ele>100.7</ele>
    <time>2018-01-27T08:34:44Z</time>
   </trkpt>
   <trkpt lat="12.8874660" lon="99.6876480">
    <ele>100.4</ele>
    <time>2018-01-27T08:34:45Z</time>
   </trkpt>
   <trkpt lat="12.8874750" lon="99.6876170">
    <ele>100.0</ele>
    <time>2018-01-27T08:34:46Z</time>
   </trkpt>
   <trkpt lat="12.8874910" lon="99.6875640">
    <ele>99.4</ele>
    <time>2018-01-27T08:34:48Z</time>
   </trkpt>
   <trkpt lat="12.8875100" lon="99.6875330">
    <ele>99.4</ele>
    <time>2018-01-27T08:34:49Z</time>
   </trkpt>
   <trkpt lat="12.8875270" lon="99.6875050">
    <ele>99.5</ele>
    <time>2018-01-27T08:34:50Z</time>
   </trkpt>
   <trkpt lat="12.8875400" lon="99.6874810">
    <ele>99.6</ele>
    <time>2018-01-27T08:34:51Z</time>
   </trkpt>
   <trkpt lat="12.8875500" lon="99.6874490">
    <ele>99.7</ele>
    <time>2018-01-27T08:34:52Z</time>
   </trkpt>
   <trkpt lat="12.8875650" lon="99.6874130">
    <ele>100.0</ele>
    <time>2018-01-27T08:34:53Z</time>
   </trkpt>
   <trkpt lat="12.8875840" lon="99.6873740">
    <ele>100.2</ele>
    <time>2018-01-27T08:34:54Z</time>
   </trkpt>
   <trkpt lat="12.8876020" lon="99.6873340">
    <ele>100.5</ele>
    <time>2018-01-27T08:34:55Z</time>
   </trkpt>
   <trkpt lat="12.8876170" lon="99.6872960">
    <ele>100.8</ele>
    <time>2018-01-27T08:34:56Z</time>
   </trkpt>
   <trkpt lat="12.8876340" lon="99.6872630">
    <ele>100.9</ele>
    <time>2018-01-27T08:34:57Z</time>
   </trkpt>
   <trkpt lat="12.8876520" lon="99.6872260">
    <ele>101.0</ele>
    <time>2018-01-27T08:34:58Z</time>
   </trkpt>
   <trkpt lat="12.8876690" lon="99.6871880">
    <ele>101.3</ele>
    <time>2018-01-27T08:34:59Z</time>
   </trkpt>
   <trkpt lat="12.8876820" lon="99.6871550">
    <ele>101.6</ele>
    <time>2018-01-27T08:35:00Z</time>
   </trkpt>
   <trkpt lat="12.8876950" lon="99.6871170">
    <ele>102.0</ele>
    <time>2018-01-27T08:35:01Z</time>
   </trkpt>
   <trkpt lat="12.8877080" lon="99.6870770">
    <ele>102.4</ele>
    <time>2018-01-27T08:35:02Z</time>
   </trkpt>
   <trkpt lat="12.8877160" lon="99.6870460">
    <ele>102.8</ele>
    <time>2018-01-27T08:35:03Z</time>
   </trkpt>
   <trkpt lat="12.8877240" lon="99.6870050">
    <ele>103.0</ele>
    <time>2018-01-27T08:35:05Z</time>
   </trkpt>
   <trkpt lat="12.8877160" lon="99.6869770">
    <ele>103.2</ele>
    <time>2018-01-27T08:35:07Z</time>
   </trkpt>
   <trkpt lat="12.8876650" lon="99.6869920">
    <ele>103.6</ele>
    <time>2018-01-27T08:35:16Z</time>
   </trkpt>
   <trkpt lat="12.8876560" lon="99.6869440">
    <ele>104.2</ele>
    <time>2018-01-27T08:35:18Z</time>
   </trkpt>
   <trkpt lat="12.8876890" lon="99.6869210">
    <ele>104.7</ele>
    <time>2018-01-27T08:35:20Z</time>
   </trkpt>
   <trkpt lat="12.8877110" lon="99.6869410">
    <ele>105.1</ele>
    <time>2018-01-27T08:35:24Z</time>
   </trkpt>
   <trkpt lat="12.8877090" lon="99.6869330">
    <ele>105.2</ele>
    <time>2018-01-27T08:36:52Z</time>
   </trkpt>
   <trkpt lat="12.8877250" lon="99.6868990">
    <ele>105.6</ele>
    <time>2018-01-27T08:36:54Z</time>
   </trkpt>
   <trkpt lat="12.8877390" lon="99.6868700">
    <ele>105.7</ele>
    <time>2018-01-27T08:36:56Z</time>
   </trkpt>
   <trkpt lat="12.8877450" lon="99.6868370">
    <ele>105.8</ele>
    <time>2018-01-27T08:36:59Z</time>
   </trkpt>
   <trkpt lat="12.8877510" lon="99.6867910">
    <ele>106.0</ele>
    <time>2018-01-27T08:37:01Z</time>
   </trkpt>
   <trkpt lat="12.8877650" lon="99.6867570">
    <ele>106.2</ele>
    <time>2018-01-27T08:37:03Z</time>
   </trkpt>
   <trkpt lat="12.8877810" lon="99.6867260">
    <ele>106.5</ele>
    <time>2018-01-27T08:37:05Z</time>
   </trkpt>
   <trkpt lat="12.8878030" lon="99.6866910">
    <ele>106.8</ele>
    <time>2018-01-27T08:37:08Z</time>
   </trkpt>
   <trkpt lat="12.8878320" lon="99.6866540">
    <ele>107.0</ele>
    <time>2018-01-27T08:37:10Z</time>
   </trkpt>
   <trkpt lat="12.8878640" lon="99.6866290">
    <ele>107.2</ele>
    <time>2018-01-27T08:37:12Z</time>
   </trkpt>
   <trkpt lat="12.8879030" lon="99.6866150">
    <ele>107.3</ele>
    <time>2018-01-27T08:37:14Z</time>
   </trkpt>
   <trkpt lat="12.8879440" lon="99.6865990">
    <ele>107.2</ele>
    <time>2018-01-27T08:37:16Z</time>
   </trkpt>
   <trkpt lat="12.8879820" lon="99.6865770">
    <ele>107.3</ele>
    <time>2018-01-27T08:37:18Z</time>
   </trkpt>
   <trkpt lat="12.8880200" lon="99.6865460">
    <ele>107.3</ele>
    <time>2018-01-27T08:37:20Z</time>
   </trkpt>
   <trkpt lat="12.8880480" lon="99.6865090">
    <ele>107.1</ele>
    <time>2018-01-27T08:37:22Z</time>
   </trkpt>
   <trkpt lat="12.8880640" lon="99.6864870">
    <ele>106.9</ele>
    <time>2018-01-27T08:37:23Z</time>
   </trkpt>
   <trkpt lat="12.8880880" lon="99.6864510">
    <ele>106.7</ele>
    <time>2018-01-27T08:37:25Z</time>
   </trkpt>
   <trkpt lat="12.8881120" lon="99.6864150">
    <ele>106.5</ele>
    <time>2018-01-27T08:37:27Z</time>
   </trkpt>
   <trkpt lat="12.8881380" lon="99.6863830">
    <ele>106.2</ele>
    <time>2018-01-27T08:37:29Z</time>
   </trkpt>
   <trkpt lat="12.8881570" lon="99.6863490">
    <ele>105.7</ele>
    <time>2018-01-27T08:37:31Z</time>
   </trkpt>
   <trkpt lat="12.8881670" lon="99.6863120">
    <ele>105.3</ele>
    <time>2018-01-27T08:37:34Z</time>
   </trkpt>
   <trkpt lat="12.8881750" lon="99.6862840">
    <ele>105.0</ele>
    <time>2018-01-27T08:37:36Z</time>
   </trkpt>
   <trkpt lat="12.8881800" lon="99.6862490">
    <ele>104.6</ele>
    <time>2018-01-27T08:37:38Z</time>
   </trkpt>
   <trkpt lat="12.8881890" lon="99.6862190">
    <ele>104.3</ele>
    <time>2018-01-27T08:37:42Z</time>
   </trkpt>
   <trkpt lat="12.8881890" lon="99.6861740">
    <ele>104.0</ele>
    <time>2018-01-27T08:37:45Z</time>
   </trkpt>
   <trkpt lat="12.8881880" lon="99.6861380">
    <ele>103.7</ele>
    <time>2018-01-27T08:37:47Z</time>
   </trkpt>
   <trkpt lat="12.8881930" lon="99.6861050">
    <ele>103.4</ele>
    <time>2018-01-27T08:37:49Z</time>
   </trkpt>
   <trkpt lat="12.8882010" lon="99.6860710">
    <ele>103.2</ele>
    <time>2018-01-27T08:37:51Z</time>
   </trkpt>
   <trkpt lat="12.8882070" lon="99.6860350">
    <ele>103.0</ele>
    <time>2018-01-27T08:37:53Z</time>
   </trkpt>
   <trkpt lat="12.8882070" lon="99.6859950">
    <ele>102.9</ele>
    <time>2018-01-27T08:37:55Z</time>
   </trkpt>
   <trkpt lat="12.8882100" lon="99.6859570">
    <ele>102.9</ele>
    <time>2018-01-27T08:37:57Z</time>
   </trkpt>
   <trkpt lat="12.8881830" lon="99.6859600">
    <ele>102.9</ele>
    <time>2018-01-27T08:38:40Z</time>
   </trkpt>
   <trkpt lat="12.8881810" lon="99.6859940">
    <ele>102.9</ele>
    <time>2018-01-27T08:38:42Z</time>
   </trkpt>
   <trkpt lat="12.8881840" lon="99.6860280">
    <ele>103.1</ele>
    <time>2018-01-27T08:38:45Z</time>
   </trkpt>
   <trkpt lat="12.8881830" lon="99.6860700">
    <ele>103.3</ele>
    <time>2018-01-27T08:38:48Z</time>
   </trkpt>
   <trkpt lat="12.8881810" lon="99.6861060">
    <ele>103.5</ele>
    <time>2018-01-27T08:38:50Z</time>
   </trkpt>
   <trkpt lat="12.8881760" lon="99.6861540">
    <ele>103.9</ele>
    <time>2018-01-27T08:38:52Z</time>
   </trkpt>
   <trkpt lat="12.8881710" lon="99.6862050">
    <ele>104.3</ele>
    <time>2018-01-27T08:38:54Z</time>
   </trkpt>
   <trkpt lat="12.8881660" lon="99.6862560">
    <ele>104.8</ele>
    <time>2018-01-27T08:38:56Z</time>
   </trkpt>
   <trkpt lat="12.8881550" lon="99.6862970">
    <ele>105.2</ele>
    <time>2018-01-27T08:38:58Z</time>
   </trkpt>
   <trkpt lat="12.8881430" lon="99.6863330">
    <ele>105.7</ele>
    <time>2018-01-27T08:39:00Z</time>
   </trkpt>
   <trkpt lat="12.8881180" lon="99.6863820">
    <ele>106.3</ele>
    <time>2018-01-27T08:39:02Z</time>
   </trkpt>
   <trkpt lat="12.8880880" lon="99.6864250">
    <ele>106.6</ele>
    <time>2018-01-27T08:39:04Z</time>
   </trkpt>
   <trkpt lat="12.8880690" lon="99.6864450">
    <ele>106.7</ele>
    <time>2018-01-27T08:39:05Z</time>
   </trkpt>
   <trkpt lat="12.8880450" lon="99.6864720">
    <ele>106.9</ele>
    <time>2018-01-27T08:39:06Z</time>
   </trkpt>
   <trkpt lat="12.8880200" lon="99.6865040">
    <ele>107.1</ele>
    <time>2018-01-27T08:39:07Z</time>
   </trkpt>
   <trkpt lat="12.8880030" lon="99.6865270">
    <ele>107.3</ele>
    <time>2018-01-27T08:39:08Z</time>
   </trkpt>
   <trkpt lat="12.8879560" lon="99.6865640">
    <ele>107.3</ele>
    <time>2018-01-27T08:39:10Z</time>
   </trkpt>
   <trkpt lat="12.8879170" lon="99.6865840">
    <ele>107.2</ele>
    <time>2018-01-27T08:39:11Z</time>
   </trkpt>
   <trkpt lat="12.8878810" lon="99.6866040">
    <ele>107.3</ele>
    <time>2018-01-27T08:39:12Z</time>
   </trkpt>
   <trkpt lat="12.8878450" lon="99.6866270">
    <ele>107.2</ele>
    <time>2018-01-27T08:39:13Z</time>
   </trkpt>
   <trkpt lat="12.8878150" lon="99.6866560">
    <ele>107.0</ele>
    <time>2018-01-27T08:39:14Z</time>
   </trkpt>
   <trkpt lat="12.8877940" lon="99.6866850">
    <ele>106.9</ele>
    <time>2018-01-27T08:39:15Z</time>
   </trkpt>
   <trkpt lat="12.8877760" lon="99.6867170">
    <ele>106.7</ele>
    <time>2018-01-27T08:39:16Z</time>
   </trkpt>
   <trkpt lat="12.8877590" lon="99.6867500">
    <ele>106.4</ele>
    <time>2018-01-27T08:39:17Z</time>
   </trkpt>
   <trkpt lat="12.8877470" lon="99.6867810">
    <ele>106.2</ele>
    <time>2018-01-27T08:39:18Z</time>
   </trkpt>
   <trkpt lat="12.8877370" lon="99.6868140">
    <ele>105.9</ele>
    <time>2018-01-27T08:39:19Z</time>
   </trkpt>
   <trkpt lat="12.8877300" lon="99.6868450">
    <ele>105.8</ele>
    <time>2018-01-27T08:39:20Z</time>
   </trkpt>
   <trkpt lat="12.8877160" lon="99.6869030">
    <ele>105.7</ele>
    <time>2018-01-27T08:39:22Z</time>
   </trkpt>
   <trkpt lat="12.8877060" lon="99.6869310">
    <ele>105.5</ele>
    <time>2018-01-27T08:39:23Z</time>
   </trkpt>
   <trkpt lat="12.8876940" lon="99.6869590">
    <ele>105.1</ele>
    <time>2018-01-27T08:39:24Z</time>
   </trkpt>
   <trkpt lat="12.8876780" lon="99.6869890">
    <ele>104.7</ele>
    <time>2018-01-27T08:39:25Z</time>
   </trkpt>
   <trkpt lat="12.8876640" lon="99.6870200">
    <ele>104.3</ele>
    <time>2018-01-27T08:39:26Z</time>
   </trkpt>
   <trkpt lat="12.8876460" lon="99.6870530">
    <ele>103.9</ele>
    <time>2018-01-27T08:39:27Z</time>
   </trkpt>
   <trkpt lat="12.8876280" lon="99.6870840">
    <ele>103.4</ele>
    <time>2018-01-27T08:39:28Z</time>
   </trkpt>
   <trkpt lat="12.8876140" lon="99.6871120">
    <ele>103.2</ele>
    <time>2018-01-27T08:39:29Z</time>
   </trkpt>
   <trkpt lat="12.8875990" lon="99.6871440">
    <ele>103.0</ele>
    <time>2018-01-27T08:39:30Z</time>
   </trkpt>
   <trkpt lat="12.8875890" lon="99.6871750">
    <ele>102.9</ele>
    <time>2018-01-27T08:39:31Z</time>
   </trkpt>
   <trkpt lat="12.8875770" lon="99.6872040">
    <ele>102.6</ele>
    <time>2018-01-27T08:39:32Z</time>
   </trkpt>
   <trkpt lat="12.8875610" lon="99.6872420">
    <ele>102.2</ele>
    <time>2018-01-27T08:39:33Z</time>
   </trkpt>
   <trkpt lat="12.8875410" lon="99.6872830">
    <ele>101.7</ele>
    <time>2018-01-27T08:39:34Z</time>
   </trkpt>
   <trkpt lat="12.8875200" lon="99.6873220">
    <ele>101.4</ele>
    <time>2018-01-27T08:39:35Z</time>
   </trkpt>
   <trkpt lat="12.8875040" lon="99.6873510">
    <ele>101.1</ele>
    <time>2018-01-27T08:39:36Z</time>
   </trkpt>
   <trkpt lat="12.8874940" lon="99.6873820">
    <ele>101.0</ele>
    <time>2018-01-27T08:39:37Z</time>
   </trkpt>
   <trkpt lat="12.8874710" lon="99.6874340">
    <ele>100.8</ele>
    <time>2018-01-27T08:39:38Z</time>
   </trkpt>
   <trkpt lat="12.8874550" lon="99.6874570">
    <ele>100.7</ele>
    <time>2018-01-27T08:39:39Z</time>
   </trkpt>
   <trkpt lat="12.8874460" lon="99.6874850">
    <ele>100.5</ele>
    <time>2018-01-27T08:39:40Z</time>
   </trkpt>
   <trkpt lat="12.8874090" lon="99.6875310">
    <ele>100.1</ele>
    <time>2018-01-27T08:39:42Z</time>
   </trkpt>
   <trkpt lat="12.8873910" lon="99.6875730">
    <ele>99.8</ele>
    <time>2018-01-27T08:39:43Z</time>
   </trkpt>
   <trkpt lat="12.8873970" lon="99.6876110">
    <ele>99.6</ele>
    <time>2018-01-27T08:39:44Z</time>
   </trkpt>
   <trkpt lat="12.8873910" lon="99.6876380">
    <ele>99.5</ele>
    <time>2018-01-27T08:39:45Z</time>
   </trkpt>
   <trkpt lat="12.8873790" lon="99.6876630">
    <ele>99.5</ele>
    <time>2018-01-27T08:39:46Z</time>
   </trkpt>
   <trkpt lat="12.8873640" lon="99.6876950">
    <ele>99.4</ele>
    <time>2018-01-27T08:39:47Z</time>
   </trkpt>
   <trkpt lat="12.8873450" lon="99.6877250">
    <ele>99.6</ele>
    <time>2018-01-27T08:39:48Z</time>
   </trkpt>
   <trkpt lat="12.8873320" lon="99.6877690">
    <ele>100.1</ele>
    <time>2018-01-27T08:39:49Z</time>
   </trkpt>
   <trkpt lat="12.8873280" lon="99.6878090">
    <ele>100.5</ele>
    <time>2018-01-27T08:39:50Z</time>
   </trkpt>
   <trkpt lat="12.8873220" lon="99.6878510">
    <ele>100.9</ele>
    <time>2018-01-27T08:39:51Z</time>
   </trkpt>
   <trkpt lat="12.8873120" lon="99.6878880">
    <ele>101.3</ele>
    <time>2018-01-27T08:39:52Z</time>
   </trkpt>
   <trkpt lat="12.8873000" lon="99.6879210">
    <ele>101.4</ele>
    <time>2018-01-27T08:39:53Z</time>
   </trkpt>
   <trkpt lat="12.8872850" lon="99.6879550">
    <ele>101.4</ele>
    <time>2018-01-27T08:39:54Z</time>
   </trkpt>
   <trkpt lat="12.8872690" lon="99.6879850">
    <ele>101.4</ele>
    <time>2018-01-27T08:39:55Z</time>
   </trkpt>
   <trkpt lat="12.8872510" lon="99.6880130">
    <ele>101.2</ele>
    <time>2018-01-27T08:39:56Z</time>
   </trkpt>
   <trkpt lat="12.8872380" lon="99.6880390">
    <ele>101.0</ele>
    <time>2018-01-27T08:39:57Z</time>
   </trkpt>
   <trkpt lat="12.8872210" lon="99.6880650">
    <ele>100.9</ele>
    <time>2018-01-27T08:39:58Z</time>
   </trkpt>
   <trkpt lat="12.8872020" lon="99.6881030">
    <ele>100.5</ele>
    <time>2018-01-27T08:39:59Z</time>
   </trkpt>
   <trkpt lat="12.8871910" lon="99.6881380">
    <ele>100.1</ele>
    <time>2018-01-27T08:40:00Z</time>
   </trkpt>
   <trkpt lat="12.8871780" lon="99.6881750">
    <ele>99.8</ele>
    <time>2018-01-27T08:40:01Z</time>
   </trkpt>
   <trkpt lat="12.8871590" lon="99.6882110">
    <ele>99.6</ele>
    <time>2018-01-27T08:40:02Z</time>
   </trkpt>
   <trkpt lat="12.8871470" lon="99.6882400">
    <ele>99.5</ele>
    <time>2018-01-27T08:40:03Z</time>
   </trkpt>
   <trkpt lat="12.8871420" lon="99.6882750">
    <ele>99.4</ele>
    <time>2018-01-27T08:40:04Z</time>
   </trkpt>
   <trkpt lat="12.8871420" lon="99.6883160">
    <ele>99.4</ele>
    <time>2018-01-27T08:40:05Z</time>
   </trkpt>
   <trkpt lat="12.8871520" lon="99.6883570">
    <ele>99.3</ele>
    <time>2018-01-27T08:40:07Z</time>
   </trkpt>
   <trkpt lat="12.8871540" lon="99.6884020">
    <ele>99.3</ele>
    <time>2018-01-27T08:40:09Z</time>
   </trkpt>
   <trkpt lat="12.8871590" lon="99.6884330">
    <ele>99.3</ele>
    <time>2018-01-27T08:40:10Z</time>
   </trkpt>
   <trkpt lat="12.8871730" lon="99.6884760">
    <ele>99.2</ele>
    <time>2018-01-27T08:40:12Z</time>
   </trkpt>
   <trkpt lat="12.8871880" lon="99.6885220">
    <ele>99.2</ele>
    <time>2018-01-27T08:40:14Z</time>
   </trkpt>
   <trkpt lat="12.8872010" lon="99.6885540">
    <ele>99.1</ele>
    <time>2018-01-27T08:40:16Z</time>
   </trkpt>
   <trkpt lat="12.8872080" lon="99.6885830">
    <ele>99.1</ele>
    <time>2018-01-27T08:40:18Z</time>
   </trkpt>
   <trkpt lat="12.8872040" lon="99.6886140">
    <ele>99.0</ele>
    <time>2018-01-27T08:40:23Z</time>
   </trkpt>
   <trkpt lat="12.8871890" lon="99.6886380">
    <ele>99.0</ele>
    <time>2018-01-27T08:40:25Z</time>
   </trkpt>
   <trkpt lat="12.8871710" lon="99.6886740">
    <ele>99.0</ele>
    <time>2018-01-27T08:40:30Z</time>
   </trkpt>
   <trkpt lat="12.8871620" lon="99.6887010">
    <ele>99.0</ele>
    <time>2018-01-27T08:40:32Z</time>
   </trkpt>
   <trkpt lat="12.8871430" lon="99.6887350">
    <ele>99.4</ele>
    <time>2018-01-27T08:40:35Z</time>
   </trkpt>
   <trkpt lat="12.8871290" lon="99.6887590">
    <ele>98.8</ele>
    <time>2018-01-27T08:40:37Z</time>
   </trkpt>
   <trkpt lat="12.8871080" lon="99.6887840">
    <ele>98.5</ele>
    <time>2018-01-27T08:40:39Z</time>
   </trkpt>
   <trkpt lat="12.8870910" lon="99.6888080">
    <ele>98.5</ele>
    <time>2018-01-27T08:40:41Z</time>
   </trkpt>
   <trkpt lat="12.8870560" lon="99.6888270">
    <ele>98.0</ele>
    <time>2018-01-27T08:40:44Z</time>
   </trkpt>
   <trkpt lat="12.8870190" lon="99.6888470">
    <ele>98.3</ele>
    <time>2018-01-27T08:40:46Z</time>
   </trkpt>
   <trkpt lat="12.8869890" lon="99.6888630">
    <ele>98.3</ele>
    <time>2018-01-27T08:40:48Z</time>
   </trkpt>
   <trkpt lat="12.8869440" lon="99.6888810">
    <ele>98.0</ele>
    <time>2018-01-27T08:40:50Z</time>
   </trkpt>
   <trkpt lat="12.8869190" lon="99.6889020">
    <ele>98.0</ele>
    <time>2018-01-27T08:40:52Z</time>
   </trkpt>
   <trkpt lat="12.8869030" lon="99.6889330">
    <ele>97.1</ele>
    <time>2018-01-27T08:40:54Z</time>
   </trkpt>
   <trkpt lat="12.8868880" lon="99.6889610">
    <ele>96.1</ele>
    <time>2018-01-27T08:40:57Z</time>
   </trkpt>
   <trkpt lat="12.8868670" lon="99.6889880">
    <ele>96.1</ele>
    <time>2018-01-27T08:41:00Z</time>
   </trkpt>
   <trkpt lat="12.8868410" lon="99.6890130">
    <ele>95.3</ele>
    <time>2018-01-27T08:41:03Z</time>
   </trkpt>
   <trkpt lat="12.8868140" lon="99.6890290">
    <ele>95.3</ele>
    <time>2018-01-27T08:41:05Z</time>
   </trkpt>
   <trkpt lat="12.8867900" lon="99.6890550">
    <ele>94.6</ele>
    <time>2018-01-27T08:41:07Z</time>
   </trkpt>
   <trkpt lat="12.8867760" lon="99.6890840">
    <ele>94.1</ele>
    <time>2018-01-27T08:41:09Z</time>
   </trkpt>
   <trkpt lat="12.8867430" lon="99.6891070">
    <ele>94.1</ele>
    <time>2018-01-27T08:41:12Z</time>
   </trkpt>
   <trkpt lat="12.8867200" lon="99.6891380">
    <ele>93.8</ele>
    <time>2018-01-27T08:41:15Z</time>
   </trkpt>
   <trkpt lat="12.8867050" lon="99.6891790">
    <ele>93.4</ele>
    <time>2018-01-27T08:41:17Z</time>
   </trkpt>
   <trkpt lat="12.8866870" lon="99.6892120">
    <ele>93.1</ele>
    <time>2018-01-27T08:41:19Z</time>
   </trkpt>
   <trkpt lat="12.8866610" lon="99.6892550">
    <ele>92.8</ele>
    <time>2018-01-27T08:41:21Z</time>
   </trkpt>
   <trkpt lat="12.8866440" lon="99.6892820">
    <ele>92.9</ele>
    <time>2018-01-27T08:41:22Z</time>
   </trkpt>
   <trkpt lat="12.8866240" lon="99.6893100">
    <ele>92.6</ele>
    <time>2018-01-27T08:41:23Z</time>
   </trkpt>
   <trkpt lat="12.8866000" lon="99.6893370">
    <ele>92.7</ele>
    <time>2018-01-27T08:41:24Z</time>
   </trkpt>
   <trkpt lat="12.8865720" lon="99.6893610">
    <ele>92.5</ele>
    <time>2018-01-27T08:41:25Z</time>
   </trkpt>
   <trkpt lat="12.8865410" lon="99.6893830">
    <ele>92.4</ele>
    <time>2018-01-27T08:41:26Z</time>
   </trkpt>
   <trkpt lat="12.8865080" lon="99.6893970">
    <ele>92.0</ele>
    <time>2018-01-27T08:41:27Z</time>
   </trkpt>
   <trkpt lat="12.8864780" lon="99.6894000">
    <ele>91.8</ele>
    <time>2018-01-27T08:41:28Z</time>
   </trkpt>
   <trkpt lat="12.8864300" lon="99.6893740">
    <ele>91.9</ele>
    <time>2018-01-27T08:41:30Z</time>
   </trkpt>
   <trkpt lat="12.8863980" lon="99.6893570">
    <ele>91.5</ele>
    <time>2018-01-27T08:41:31Z</time>
   </trkpt>
   <trkpt lat="12.8863620" lon="99.6893380">
    <ele>92.0</ele>
    <time>2018-01-27T08:41:32Z</time>
   </trkpt>
   <trkpt lat="12.8863240" lon="99.6893200">
    <ele>91.4</ele>
    <time>2018-01-27T08:41:33Z</time>
   </trkpt>
   <trkpt lat="12.8862890" lon="99.6893020">
    <ele>90.6</ele>
    <time>2018-01-27T08:41:34Z</time>
   </trkpt>
   <trkpt lat="12.8862530" lon="99.6892830">
    <ele>90.1</ele>
    <time>2018-01-27T08:41:35Z</time>
   </trkpt>
   <trkpt lat="12.8862070" lon="99.6892600">
    <ele>89.2</ele>
    <time>2018-01-27T08:41:38Z</time>
   </trkpt>
   <trkpt lat="12.8861690" lon="99.6892860">
    <ele>88.3</ele>
    <time>2018-01-27T08:41:40Z</time>
   </trkpt>
   <trkpt lat="12.8859690" lon="99.6892800">
    <ele>86.2</ele>
    <time>2018-01-27T08:41:42Z</time>
   </trkpt>
   <trkpt lat="12.8859200" lon="99.6892850">
    <ele>86.2</ele>
    <time>2018-01-27T08:41:43Z</time>
   </trkpt>
   <trkpt lat="12.8858700" lon="99.6892960">
    <ele>86.2</ele>
    <time>2018-01-27T08:41:44Z</time>
   </trkpt>
   <trkpt lat="12.8858400" lon="99.6893080">
    <ele>86.3</ele>
    <time>2018-01-27T08:41:45Z</time>
   </trkpt>
   <trkpt lat="12.8858040" lon="99.6893210">
    <ele>86.2</ele>
    <time>2018-01-27T08:41:46Z</time>
   </trkpt>
   <trkpt lat="12.8857720" lon="99.6893350">
    <ele>85.9</ele>
    <time>2018-01-27T08:41:47Z</time>
   </trkpt>
   <trkpt lat="12.8857450" lon="99.6893500">
    <ele>86.0</ele>
    <time>2018-01-27T08:41:49Z</time>
   </trkpt>
   <trkpt lat="12.8856980" lon="99.6893800">
    <ele>85.6</ele>
    <time>2018-01-27T08:41:51Z</time>
   </trkpt>
   <trkpt lat="12.8855900" lon="99.6894360">
    <ele>83.7</ele>
    <time>2018-01-27T08:41:52Z</time>
   </trkpt>
   <trkpt lat="12.8855540" lon="99.6894540">
    <ele>83.4</ele>
    <time>2018-01-27T08:41:53Z</time>
   </trkpt>
   <trkpt lat="12.8855090" lon="99.6894760">
    <ele>83.4</ele>
    <time>2018-01-27T08:41:54Z</time>
   </trkpt>
   <trkpt lat="12.8854660" lon="99.6894960">
    <ele>83.3</ele>
    <time>2018-01-27T08:41:55Z</time>
   </trkpt>
   <trkpt lat="12.8854360" lon="99.6895130">
    <ele>83.5</ele>
    <time>2018-01-27T08:41:56Z</time>
   </trkpt>
   <trkpt lat="12.8853950" lon="99.6895280">
    <ele>83.5</ele>
    <time>2018-01-27T08:41:57Z</time>
   </trkpt>
   <trkpt lat="12.8853670" lon="99.6895410">
    <ele>83.5</ele>
    <time>2018-01-27T08:41:58Z</time>
   </trkpt>
   <trkpt lat="12.8853400" lon="99.6895500">
    <ele>83.6</ele>
    <time>2018-01-27T08:41:59Z</time>
   </trkpt>
   <trkpt lat="12.8852950" lon="99.6895680">
    <ele>83.8</ele>
    <time>2018-01-27T08:42:01Z</time>
   </trkpt>
   <trkpt lat="12.8852620" lon="99.6895820">
    <ele>83.8</ele>
    <time>2018-01-27T08:42:03Z</time>
   </trkpt>
   <trkpt lat="12.8852150" lon="99.6895910">
    <ele>83.7</ele>
    <time>2018-01-27T08:42:05Z</time>
   </trkpt>
   <trkpt lat="12.8851730" lon="99.6895910">
    <ele>83.6</ele>
    <time>2018-01-27T08:42:07Z</time>
   </trkpt>
   <trkpt lat="12.8851460" lon="99.6895900">
    <ele>83.3</ele>
    <time>2018-01-27T08:42:08Z</time>
   </trkpt>
   <trkpt lat="12.8851110" lon="99.6895890">
    <ele>83.3</ele>
    <time>2018-01-27T08:42:09Z</time>
   </trkpt>
   <trkpt lat="12.8850730" lon="99.6895880">
    <ele>83.1</ele>
    <time>2018-01-27T08:42:10Z</time>
   </trkpt>
   <trkpt lat="12.8850360" lon="99.6895850">
    <ele>82.8</ele>
    <time>2018-01-27T08:42:11Z</time>
   </trkpt>
   <trkpt lat="12.8849950" lon="99.6895840">
    <ele>82.5</ele>
    <time>2018-01-27T08:42:12Z</time>
   </trkpt>
   <trkpt lat="12.8849550" lon="99.6895860">
    <ele>82.2</ele>
    <time>2018-01-27T08:42:13Z</time>
   </trkpt>
   <trkpt lat="12.8849210" lon="99.6895940">
    <ele>82.0</ele>
    <time>2018-01-27T08:42:14Z</time>
   </trkpt>
   <trkpt lat="12.8848880" lon="99.6896050">
    <ele>82.0</ele>
    <time>2018-01-27T08:42:15Z</time>
   </trkpt>
   <trkpt lat="12.8848510" lon="99.6896200">
    <ele>81.7</ele>
    <time>2018-01-27T08:42:16Z</time>
   </trkpt>
   <trkpt lat="12.8848160" lon="99.6896360">
    <ele>81.7</ele>
    <time>2018-01-27T08:42:17Z</time>
   </trkpt>
   <trkpt lat="12.8847830" lon="99.6896530">
    <ele>81.8</ele>
    <time>2018-01-27T08:42:18Z</time>
   </trkpt>
   <trkpt lat="12.8847510" lon="99.6896720">
    <ele>81.5</ele>
    <time>2018-01-27T08:42:19Z</time>
   </trkpt>
   <trkpt lat="12.8847200" lon="99.6896960">
    <ele>81.6</ele>
    <time>2018-01-27T08:42:20Z</time>
   </trkpt>
   <trkpt lat="12.8846890" lon="99.6897260">
    <ele>81.6</ele>
    <time>2018-01-27T08:42:21Z</time>
   </trkpt>
   <trkpt lat="12.8846760" lon="99.6897620">
    <ele>81.7</ele>
    <time>2018-01-27T08:42:22Z</time>
   </trkpt>
   <trkpt lat="12.8846840" lon="99.6898050">
    <ele>82.0</ele>
    <time>2018-01-27T08:42:23Z</time>
   </trkpt>
   <trkpt lat="12.8846960" lon="99.6898440">
    <ele>82.4</ele>
    <time>2018-01-27T08:42:24Z</time>
   </trkpt>
   <trkpt lat="12.8847060" lon="99.6898840">
    <ele>82.6</ele>
    <time>2018-01-27T08:42:25Z</time>
   </trkpt>
   <trkpt lat="12.8847120" lon="99.6899290">
    <ele>82.7</ele>
    <time>2018-01-27T08:42:26Z</time>
   </trkpt>
   <trkpt lat="12.8847150" lon="99.6899650">
    <ele>82.7</ele>
    <time>2018-01-27T08:42:27Z</time>
   </trkpt>
   <trkpt lat="12.8847190" lon="99.6900090">
    <ele>82.6</ele>
    <time>2018-01-27T08:42:28Z</time>
   </trkpt>
   <trkpt lat="12.8847240" lon="99.6900520">
    <ele>82.4</ele>
    <time>2018-01-27T08:42:29Z</time>
   </trkpt>
   <trkpt lat="12.8847230" lon="99.6901010">
    <ele>82.1</ele>
    <time>2018-01-27T08:42:30Z</time>
   </trkpt>
   <trkpt lat="12.8847310" lon="99.6901410">
    <ele>81.7</ele>
    <time>2018-01-27T08:42:31Z</time>
   </trkpt>
   <trkpt lat="12.8847410" lon="99.6901860">
    <ele>81.3</ele>
    <time>2018-01-27T08:42:32Z</time>
   </trkpt>
   <trkpt lat="12.8847460" lon="99.6902190">
    <ele>81.0</ele>
    <time>2018-01-27T08:42:33Z</time>
   </trkpt>
   <trkpt lat="12.8847550" lon="99.6902520">
    <ele>80.6</ele>
    <time>2018-01-27T08:42:34Z</time>
   </trkpt>
   <trkpt lat="12.8847590" lon="99.6902860">
    <ele>80.4</ele>
    <time>2018-01-27T08:42:35Z</time>
   </trkpt>
   <trkpt lat="12.8847710" lon="99.6903250">
    <ele>80.4</ele>
    <time>2018-01-27T08:42:36Z</time>
   </trkpt>
   <trkpt lat="12.8847830" lon="99.6903680">
    <ele>79.9</ele>
    <time>2018-01-27T08:42:37Z</time>
   </trkpt>
   <trkpt lat="12.8847980" lon="99.6904120">
    <ele>79.8</ele>
    <time>2018-01-27T08:42:38Z</time>
   </trkpt>
   <trkpt lat="12.8848130" lon="99.6904570">
    <ele>79.8</ele>
    <time>2018-01-27T08:42:39Z</time>
   </trkpt>
   <trkpt lat="12.8848180" lon="99.6905030">
    <ele>79.6</ele>
    <time>2018-01-27T08:42:40Z</time>
   </trkpt>
   <trkpt lat="12.8848180" lon="99.6905460">
    <ele>79.7</ele>
    <time>2018-01-27T08:42:41Z</time>
   </trkpt>
   <trkpt lat="12.8848360" lon="99.6905910">
    <ele>79.7</ele>
    <time>2018-01-27T08:42:42Z</time>
   </trkpt>
   <trkpt lat="12.8848450" lon="99.6906310">
    <ele>79.8</ele>
    <time>2018-01-27T08:42:43Z</time>
   </trkpt>
   <trkpt lat="12.8848580" lon="99.6906600">
    <ele>79.5</ele>
    <time>2018-01-27T08:42:44Z</time>
   </trkpt>
   <trkpt lat="12.8848760" lon="99.6906950">
    <ele>79.5</ele>
    <time>2018-01-27T08:42:45Z</time>
   </trkpt>
   <trkpt lat="12.8848920" lon="99.6907270">
    <ele>79.3</ele>
    <time>2018-01-27T08:42:46Z</time>
   </trkpt>
   <trkpt lat="12.8849110" lon="99.6907530">
    <ele>79.3</ele>
    <time>2018-01-27T08:42:47Z</time>
   </trkpt>
   <trkpt lat="12.8848820" lon="99.6907760">
    <ele>79.2</ele>
    <time>2018-01-27T08:42:49Z</time>
   </trkpt>
   <trkpt lat="12.8848570" lon="99.6907970">
    <ele>79.2</ele>
    <time>2018-01-27T08:42:51Z</time>
   </trkpt>
   <trkpt lat="12.8848340" lon="99.6908330">
    <ele>78.9</ele>
    <time>2018-01-27T08:42:53Z</time>
   </trkpt>
   <trkpt lat="12.8848110" lon="99.6908600">
    <ele>78.8</ele>
    <time>2018-01-27T08:42:54Z</time>
   </trkpt>
   <trkpt lat="12.8847800" lon="99.6908860">
    <ele>78.5</ele>
    <time>2018-01-27T08:42:55Z</time>
   </trkpt>
   <trkpt lat="12.8847480" lon="99.6909040">
    <ele>78.8</ele>
    <time>2018-01-27T08:42:56Z</time>
   </trkpt>
   <trkpt lat="12.8847100" lon="99.6909200">
    <ele>79.1</ele>
    <time>2018-01-27T08:42:57Z</time>
   </trkpt>
   <trkpt lat="12.8846720" lon="99.6909380">
    <ele>79.2</ele>
    <time>2018-01-27T08:42:58Z</time>
   </trkpt>
   <trkpt lat="12.8846300" lon="99.6909560">
    <ele>79.5</ele>
    <time>2018-01-27T08:42:59Z</time>
   </trkpt>
   <trkpt lat="12.8845750" lon="99.6909710">
    <ele>79.8</ele>
    <time>2018-01-27T08:43:00Z</time>
   </trkpt>
   <trkpt lat="12.8845400" lon="99.6909760">
    <ele>79.7</ele>
    <time>2018-01-27T08:43:01Z</time>
   </trkpt>
   <trkpt lat="12.8845010" lon="99.6909800">
    <ele>79.8</ele>
    <time>2018-01-27T08:43:02Z</time>
   </trkpt>
   <trkpt lat="12.8844550" lon="99.6909860">
    <ele>79.9</ele>
    <time>2018-01-27T08:43:03Z</time>
   </trkpt>
   <trkpt lat="12.8844240" lon="99.6909880">
    <ele>79.8</ele>
    <time>2018-01-27T08:43:04Z</time>
   </trkpt>
   <trkpt lat="12.8843790" lon="99.6909950">
    <ele>79.8</ele>
    <time>2018-01-27T08:43:05Z</time>
   </trkpt>
   <trkpt lat="12.8843290" lon="99.6910050">
    <ele>79.8</ele>
    <time>2018-01-27T08:43:06Z</time>
   </trkpt>
   <trkpt lat="12.8842890" lon="99.6910090">
    <ele>79.7</ele>
    <time>2018-01-27T08:43:07Z</time>
   </trkpt>
   <trkpt lat="12.8842060" lon="99.6910330">
    <ele>79.5</ele>
    <time>2018-01-27T08:43:08Z</time>
   </trkpt>
   <trkpt lat="12.8841540" lon="99.6910460">
    <ele>79.4</ele>
    <time>2018-01-27T08:43:09Z</time>
   </trkpt>
   <trkpt lat="12.8841240" lon="99.6910560">
    <ele>79.1</ele>
    <time>2018-01-27T08:43:10Z</time>
   </trkpt>
   <trkpt lat="12.8840820" lon="99.6910760">
    <ele>78.9</ele>
    <time>2018-01-27T08:43:11Z</time>
   </trkpt>
   <trkpt lat="12.8840420" lon="99.6910990">
    <ele>78.7</ele>
    <time>2018-01-27T08:43:12Z</time>
   </trkpt>
   <trkpt lat="12.8840040" lon="99.6911030">
    <ele>78.8</ele>
    <time>2018-01-27T08:43:13Z</time>
   </trkpt>
   <trkpt lat="12.8839650" lon="99.6911060">
    <ele>78.8</ele>
    <time>2018-01-27T08:43:14Z</time>
   </trkpt>
   <trkpt lat="12.8838940" lon="99.6911150">
    <ele>78.8</ele>
    <time>2018-01-27T08:43:15Z</time>
   </trkpt>
   <trkpt lat="12.8838550" lon="99.6911080">
    <ele>78.7</ele>
    <time>2018-01-27T08:43:16Z</time>
   </trkpt>
   <trkpt lat="12.8838110" lon="99.6911050">
    <ele>78.5</ele>
    <time>2018-01-27T08:43:17Z</time>
   </trkpt>
   <trkpt lat="12.8837620" lon="99.6911000">
    <ele>77.9</ele>
    <time>2018-01-27T08:43:18Z</time>
   </trkpt>
   <trkpt lat="12.8837090" lon="99.6910950">
    <ele>77.7</ele>
    <time>2018-01-27T08:43:19Z</time>
   </trkpt>
   <trkpt lat="12.8836650" lon="99.6910940">
    <ele>77.5</ele>
    <time>2018-01-27T08:43:20Z</time>
   </trkpt>
   <trkpt lat="12.8836150" lon="99.6910860">
    <ele>77.5</ele>
    <time>2018-01-27T08:43:21Z</time>
   </trkpt>
   <trkpt lat="12.8835560" lon="99.6910860">
    <ele>77.6</ele>
    <time>2018-01-27T08:43:22Z</time>
   </trkpt>
   <trkpt lat="12.8835150" lon="99.6910740">
    <ele>77.6</ele>
    <time>2018-01-27T08:43:23Z</time>
   </trkpt>
   <trkpt lat="12.8834630" lon="99.6910640">
    <ele>77.6</ele>
    <time>2018-01-27T08:43:24Z</time>
   </trkpt>
   <trkpt lat="12.8834160" lon="99.6910510">
    <ele>77.6</ele>
    <time>2018-01-27T08:43:25Z</time>
   </trkpt>
   <trkpt lat="12.8833580" lon="99.6910360">
    <ele>77.6</ele>
    <time>2018-01-27T08:43:26Z</time>
   </trkpt>
   <trkpt lat="12.8833020" lon="99.6910160">
    <ele>77.1</ele>
    <time>2018-01-27T08:43:27Z</time>
   </trkpt>
   <trkpt lat="12.8832470" lon="99.6909930">
    <ele>77.0</ele>
    <time>2018-01-27T08:43:28Z</time>
   </trkpt>
   <trkpt lat="12.8831940" lon="99.6909670">
    <ele>77.1</ele>
    <time>2018-01-27T08:43:29Z</time>
   </trkpt>
   <trkpt lat="12.8831460" lon="99.6909490">
    <ele>77.1</ele>
    <time>2018-01-27T08:43:30Z</time>
   </trkpt>
   <trkpt lat="12.8830880" lon="99.6909290">
    <ele>77.4</ele>
    <time>2018-01-27T08:43:31Z</time>
   </trkpt>
   <trkpt lat="12.8830370" lon="99.6909100">
    <ele>78.1</ele>
    <time>2018-01-27T08:43:32Z</time>
   </trkpt>
   <trkpt lat="12.8829950" lon="99.6908820">
    <ele>78.7</ele>
    <time>2018-01-27T08:43:33Z</time>
   </trkpt>
   <trkpt lat="12.8829430" lon="99.6908650">
    <ele>78.7</ele>
    <time>2018-01-27T08:43:34Z</time>
   </trkpt>
   <trkpt lat="12.8828980" lon="99.6908480">
    <ele>78.6</ele>
    <time>2018-01-27T08:43:35Z</time>
   </trkpt>
   <trkpt lat="12.8828440" lon="99.6908400">
    <ele>78.6</ele>
    <time>2018-01-27T08:43:36Z</time>
   </trkpt>
   <trkpt lat="12.8828000" lon="99.6908380">
    <ele>78.6</ele>
    <time>2018-01-27T08:43:37Z</time>
   </trkpt>
   <trkpt lat="12.8827530" lon="99.6908400">
    <ele>78.6</ele>
    <time>2018-01-27T08:43:38Z</time>
   </trkpt>
   <trkpt lat="12.8827050" lon="99.6908540">
    <ele>78.5</ele>
    <time>2018-01-27T08:43:39Z</time>
   </trkpt>
   <trkpt lat="12.8826720" lon="99.6908670">
    <ele>78.4</ele>
    <time>2018-01-27T08:43:40Z</time>
   </trkpt>
   <trkpt lat="12.8826460" lon="99.6908830">
    <ele>78.4</ele>
    <time>2018-01-27T08:43:41Z</time>
   </trkpt>
   <trkpt lat="12.8826080" lon="99.6908950">
    <ele>78.2</ele>
    <time>2018-01-27T08:43:43Z</time>
   </trkpt>
   <trkpt lat="12.8825700" lon="99.6909150">
    <ele>77.9</ele>
    <time>2018-01-27T08:43:45Z</time>
   </trkpt>
   <trkpt lat="12.8825400" lon="99.6909320">
    <ele>77.3</ele>
    <time>2018-01-27T08:43:46Z</time>
   </trkpt>
   <trkpt lat="12.8825080" lon="99.6909420">
    <ele>76.9</ele>
    <time>2018-01-27T08:43:47Z</time>
   </trkpt>
   <trkpt lat="12.8824630" lon="99.6909600">
    <ele>76.6</ele>
    <time>2018-01-27T08:43:49Z</time>
   </trkpt>
   <trkpt lat="12.8824350" lon="99.6909670">
    <ele>76.6</ele>
    <time>2018-01-27T08:43:50Z</time>
   </trkpt>
   <trkpt lat="12.8823800" lon="99.6909680">
    <ele>75.7</ele>
    <time>2018-01-27T08:43:52Z</time>
   </trkpt>
   <trkpt lat="12.8823270" lon="99.6909720">
    <ele>75.3</ele>
    <time>2018-01-27T08:43:54Z</time>
   </trkpt>
   <trkpt lat="12.8822810" lon="99.6909900">
    <ele>74.7</ele>
    <time>2018-01-27T08:43:56Z</time>
   </trkpt>
   <trkpt lat="12.8822510" lon="99.6910020">
    <ele>74.1</ele>
    <time>2018-01-27T08:43:57Z</time>
   </trkpt>
   <trkpt lat="12.8822180" lon="99.6910190">
    <ele>73.7</ele>
    <time>2018-01-27T08:43:59Z</time>
   </trkpt>
   <trkpt lat="12.8821290" lon="99.6910690">
    <ele>72.6</ele>
    <time>2018-01-27T08:44:00Z</time>
   </trkpt>
   <trkpt lat="12.8821010" lon="99.6910870">
    <ele>72.6</ele>
    <time>2018-01-27T08:44:01Z</time>
   </trkpt>
   <trkpt lat="12.8820760" lon="99.6911060">
    <ele>72.2</ele>
    <time>2018-01-27T08:44:02Z</time>
   </trkpt>
   <trkpt lat="12.8820230" lon="99.6911270">
    <ele>71.4</ele>
    <time>2018-01-27T08:44:04Z</time>
   </trkpt>
   <trkpt lat="12.8819880" lon="99.6911460">
    <ele>70.8</ele>
    <time>2018-01-27T08:44:05Z</time>
   </trkpt>
   <trkpt lat="12.8819630" lon="99.6911650">
    <ele>70.0</ele>
    <time>2018-01-27T08:44:06Z</time>
   </trkpt>
   <trkpt lat="12.8819230" lon="99.6911970">
    <ele>69.4</ele>
    <time>2018-01-27T08:44:08Z</time>
   </trkpt>
   <trkpt lat="12.8818970" lon="99.6912320">
    <ele>69.6</ele>
    <time>2018-01-27T08:44:10Z</time>
   </trkpt>
   <trkpt lat="12.8818720" lon="99.6912570">
    <ele>68.9</ele>
    <time>2018-01-27T08:44:12Z</time>
   </trkpt>
   <trkpt lat="12.8818330" lon="99.6912960">
    <ele>68.5</ele>
    <time>2018-01-27T08:44:14Z</time>
   </trkpt>
   <trkpt lat="12.8818090" lon="99.6913160">
    <ele>68.8</ele>
    <time>2018-01-27T08:44:15Z</time>
   </trkpt>
   <trkpt lat="12.8817820" lon="99.6913390">
    <ele>68.2</ele>
    <time>2018-01-27T08:44:16Z</time>
   </trkpt>
   <trkpt lat="12.8817530" lon="99.6913610">
    <ele>68.1</ele>
    <time>2018-01-27T08:44:17Z</time>
   </trkpt>
   <trkpt lat="12.8817250" lon="99.6913830">
    <ele>68.1</ele>
    <time>2018-01-27T08:44:18Z</time>
   </trkpt>
   <trkpt lat="12.8816850" lon="99.6914110">
    <ele>68.0</ele>
    <time>2018-01-27T08:44:20Z</time>
   </trkpt>
   <trkpt lat="12.8816600" lon="99.6914290">
    <ele>67.6</ele>
    <time>2018-01-27T08:44:21Z</time>
   </trkpt>
   <trkpt lat="12.8816170" lon="99.6914630">
    <ele>67.8</ele>
    <time>2018-01-27T08:44:23Z</time>
   </trkpt>
   <trkpt lat="12.8815870" lon="99.6914870">
    <ele>68.4</ele>
    <time>2018-01-27T08:44:24Z</time>
   </trkpt>
   <trkpt lat="12.8815570" lon="99.6915110">
    <ele>68.4</ele>
    <time>2018-01-27T08:44:25Z</time>
   </trkpt>
   <trkpt lat="12.8815320" lon="99.6915310">
    <ele>69.2</ele>
    <time>2018-01-27T08:44:26Z</time>
   </trkpt>
   <trkpt lat="12.8815010" lon="99.6915530">
    <ele>69.4</ele>
    <time>2018-01-27T08:44:27Z</time>
   </trkpt>
   <trkpt lat="12.8814570" lon="99.6915790">
    <ele>70.1</ele>
    <time>2018-01-27T08:44:28Z</time>
   </trkpt>
   <trkpt lat="12.8814110" lon="99.6916000">
    <ele>70.3</ele>
    <time>2018-01-27T08:44:29Z</time>
   </trkpt>
   <trkpt lat="12.8813660" lon="99.6916160">
    <ele>70.7</ele>
    <time>2018-01-27T08:44:30Z</time>
   </trkpt>
   <trkpt lat="12.8813210" lon="99.6916320">
    <ele>70.9</ele>
    <time>2018-01-27T08:44:31Z</time>
   </trkpt>
   <trkpt lat="12.8812670" lon="99.6916530">
    <ele>71.1</ele>
    <time>2018-01-27T08:44:32Z</time>
   </trkpt>
   <trkpt lat="12.8812130" lon="99.6916760">
    <ele>71.6</ele>
    <time>2018-01-27T08:44:33Z</time>
   </trkpt>
   <trkpt lat="12.8811400" lon="99.6917140">
    <ele>71.6</ele>
    <time>2018-01-27T08:44:34Z</time>
   </trkpt>
   <trkpt lat="12.8810640" lon="99.6917710">
    <ele>71.4</ele>
    <time>2018-01-27T08:44:35Z</time>
   </trkpt>
   <trkpt lat="12.8810350" lon="99.6917900">
    <ele>71.0</ele>
    <time>2018-01-27T08:44:36Z</time>
   </trkpt>
   <trkpt lat="12.8810020" lon="99.6918050">
    <ele>71.0</ele>
    <time>2018-01-27T08:44:37Z</time>
   </trkpt>
   <trkpt lat="12.8809670" lon="99.6918240">
    <ele>71.0</ele>
    <time>2018-01-27T08:44:38Z</time>
   </trkpt>
   <trkpt lat="12.8809340" lon="99.6918400">
    <ele>70.8</ele>
    <time>2018-01-27T08:44:39Z</time>
   </trkpt>
   <trkpt lat="12.8808990" lon="99.6918620">
    <ele>71.0</ele>
    <time>2018-01-27T08:44:40Z</time>
   </trkpt>
   <trkpt lat="12.8808720" lon="99.6918820">
    <ele>71.3</ele>
    <time>2018-01-27T08:44:41Z</time>
   </trkpt>
   <trkpt lat="12.8808500" lon="99.6919020">
    <ele>71.3</ele>
    <time>2018-01-27T08:44:42Z</time>
   </trkpt>
   <trkpt lat="12.8808400" lon="99.6919510">
    <ele>71.5</ele>
    <time>2018-01-27T08:44:44Z</time>
   </trkpt>
   <trkpt lat="12.8807990" lon="99.6920230">
    <ele>72.3</ele>
    <time>2018-01-27T08:44:45Z</time>
   </trkpt>
   <trkpt lat="12.8808030" lon="99.6920620">
    <ele>72.5</ele>
    <time>2018-01-27T08:44:46Z</time>
   </trkpt>
   <trkpt lat="12.8808030" lon="99.6920980">
    <ele>72.6</ele>
    <time>2018-01-27T08:44:47Z</time>
   </trkpt>
   <trkpt lat="12.8808110" lon="99.6921330">
    <ele>72.6</ele>
    <time>2018-01-27T08:44:48Z</time>
   </trkpt>
   <trkpt lat="12.8808170" lon="99.6921700">
    <ele>72.6</ele>
    <time>2018-01-27T08:44:49Z</time>
   </trkpt>
   <trkpt lat="12.8808220" lon="99.6922020">
    <ele>72.6</ele>
    <time>2018-01-27T08:44:50Z</time>
   </trkpt>
   <trkpt lat="12.8808260" lon="99.6922370">
    <ele>72.5</ele>
    <time>2018-01-27T08:44:51Z</time>
   </trkpt>
   <trkpt lat="12.8808320" lon="99.6922740">
    <ele>72.6</ele>
    <time>2018-01-27T08:44:52Z</time>
   </trkpt>
   <trkpt lat="12.8808350" lon="99.6923110">
    <ele>72.6</ele>
    <time>2018-01-27T08:44:53Z</time>
   </trkpt>
   <trkpt lat="12.8808400" lon="99.6923460">
    <ele>72.6</ele>
    <time>2018-01-27T08:44:54Z</time>
   </trkpt>
   <trkpt lat="12.8808420" lon="99.6923800">
    <ele>72.6</ele>
    <time>2018-01-27T08:44:55Z</time>
   </trkpt>
   <trkpt lat="12.8808430" lon="99.6924150">
    <ele>72.6</ele>
    <time>2018-01-27T08:44:56Z</time>
   </trkpt>
   <trkpt lat="12.8808480" lon="99.6924480">
    <ele>72.3</ele>
    <time>2018-01-27T08:44:57Z</time>
   </trkpt>
   <trkpt lat="12.8808530" lon="99.6924850">
    <ele>71.9</ele>
    <time>2018-01-27T08:44:58Z</time>
   </trkpt>
   <trkpt lat="12.8808540" lon="99.6925210">
    <ele>71.4</ele>
    <time>2018-01-27T08:44:59Z</time>
   </trkpt>
   <trkpt lat="12.8808570" lon="99.6925590">
    <ele>71.4</ele>
    <time>2018-01-27T08:45:00Z</time>
   </trkpt>
   <trkpt lat="12.8808640" lon="99.6925940">
    <ele>70.8</ele>
    <time>2018-01-27T08:45:01Z</time>
   </trkpt>
   <trkpt lat="12.8808710" lon="99.6926260">
    <ele>70.1</ele>
    <time>2018-01-27T08:45:02Z</time>
   </trkpt>
   <trkpt lat="12.8808820" lon="99.6926600">
    <ele>69.5</ele>
    <time>2018-01-27T08:45:03Z</time>
   </trkpt>
   <trkpt lat="12.8808930" lon="99.6926930">
    <ele>68.9</ele>
    <time>2018-01-27T08:45:04Z</time>
   </trkpt>
   <trkpt lat="12.8808990" lon="99.6927280">
    <ele>68.9</ele>
    <time>2018-01-27T08:45:05Z</time>
   </trkpt>
   <trkpt lat="12.8809040" lon="99.6927630">
    <ele>68.4</ele>
    <time>2018-01-27T08:45:06Z</time>
   </trkpt>
   <trkpt lat="12.8809110" lon="99.6927960">
    <ele>68.3</ele>
    <time>2018-01-27T08:45:07Z</time>
   </trkpt>
   <trkpt lat="12.8809180" lon="99.6928450">
    <ele>68.4</ele>
    <time>2018-01-27T08:45:09Z</time>
   </trkpt>
   <trkpt lat="12.8809200" lon="99.6929140">
    <ele>69.0</ele>
    <time>2018-01-27T08:45:11Z</time>
   </trkpt>
   <trkpt lat="12.8809250" lon="99.6929510">
    <ele>69.1</ele>
    <time>2018-01-27T08:45:19Z</time>
   </trkpt>
   <trkpt lat="12.8809290" lon="99.6929880">
    <ele>69.1</ele>
    <time>2018-01-27T08:48:56Z</time>
   </trkpt>
   <trkpt lat="12.8809330" lon="99.6930250">
    <ele>69.5</ele>
    <time>2018-01-27T08:48:57Z</time>
   </trkpt>
   <trkpt lat="12.8809440" lon="99.6930700">
    <ele>69.8</ele>
    <time>2018-01-27T08:48:58Z</time>
   </trkpt>
   <trkpt lat="12.8809560" lon="99.6931230">
    <ele>70.4</ele>
    <time>2018-01-27T08:48:59Z</time>
   </trkpt>
   <trkpt lat="12.8809690" lon="99.6931750">
    <ele>70.2</ele>
    <time>2018-01-27T08:49:00Z</time>
   </trkpt>
   <trkpt lat="12.8809850" lon="99.6932330">
    <ele>70.5</ele>
    <time>2018-01-27T08:49:01Z</time>
   </trkpt>
   <trkpt lat="12.8809960" lon="99.6932890">
    <ele>70.7</ele>
    <time>2018-01-27T08:49:02Z</time>
   </trkpt>
   <trkpt lat="12.8810040" lon="99.6933450">
    <ele>70.5</ele>
    <time>2018-01-27T08:49:03Z</time>
   </trkpt>
   <trkpt lat="12.8810180" lon="99.6934010">
    <ele>69.9</ele>
    <time>2018-01-27T08:49:04Z</time>
   </trkpt>
   <trkpt lat="12.8810380" lon="99.6934610">
    <ele>69.1</ele>
    <time>2018-01-27T08:49:05Z</time>
   </trkpt>
   <trkpt lat="12.8810460" lon="99.6935220">
    <ele>68.6</ele>
    <time>2018-01-27T08:49:06Z</time>
   </trkpt>
   <trkpt lat="12.8810600" lon="99.6935870">
    <ele>68.0</ele>
    <time>2018-01-27T08:49:07Z</time>
   </trkpt>
   <trkpt lat="12.8810690" lon="99.6936550">
    <ele>67.3</ele>
    <time>2018-01-27T08:49:08Z</time>
   </trkpt>
   <trkpt lat="12.8810750" lon="99.6937170">
    <ele>67.1</ele>
    <time>2018-01-27T08:49:09Z</time>
   </trkpt>
   <trkpt lat="12.8810870" lon="99.6937750">
    <ele>66.6</ele>
    <time>2018-01-27T08:49:10Z</time>
   </trkpt>
   <trkpt lat="12.8810980" lon="99.6938390">
    <ele>66.3</ele>
    <time>2018-01-27T08:49:11Z</time>
   </trkpt>
   <trkpt lat="12.8811090" lon="99.6939010">
    <ele>65.2</ele>
    <time>2018-01-27T08:49:12Z</time>
   </trkpt>
   <trkpt lat="12.8811200" lon="99.6939580">
    <ele>64.6</ele>
    <time>2018-01-27T08:49:13Z</time>
   </trkpt>
   <trkpt lat="12.8811280" lon="99.6940160">
    <ele>64.2</ele>
    <time>2018-01-27T08:49:14Z</time>
   </trkpt>
   <trkpt lat="12.8811320" lon="99.6940830">
    <ele>63.7</ele>
    <time>2018-01-27T08:49:15Z</time>
   </trkpt>
   <trkpt lat="12.8811300" lon="99.6941430">
    <ele>63.5</ele>
    <time>2018-01-27T08:49:16Z</time>
   </trkpt>
   <trkpt lat="12.8811330" lon="99.6942120">
    <ele>63.0</ele>
    <time>2018-01-27T08:49:17Z</time>
   </trkpt>
   <trkpt lat="12.8811310" lon="99.6942730">
    <ele>62.8</ele>
    <time>2018-01-27T08:49:18Z</time>
   </trkpt>
   <trkpt lat="12.8811250" lon="99.6943340">
    <ele>62.4</ele>
    <time>2018-01-27T08:49:19Z</time>
   </trkpt>
   <trkpt lat="12.8811340" lon="99.6943950">
    <ele>62.3</ele>
    <time>2018-01-27T08:49:20Z</time>
   </trkpt>
   <trkpt lat="12.8811450" lon="99.6944430">
    <ele>62.3</ele>
    <time>2018-01-27T08:49:21Z</time>
   </trkpt>
   <trkpt lat="12.8811590" lon="99.6944940">
    <ele>62.5</ele>
    <time>2018-01-27T08:49:22Z</time>
   </trkpt>
   <trkpt lat="12.8811640" lon="99.6945360">
    <ele>62.7</ele>
    <time>2018-01-27T08:49:23Z</time>
   </trkpt>
   <trkpt lat="12.8811620" lon="99.6945710">
    <ele>62.7</ele>
    <time>2018-01-27T08:49:24Z</time>
   </trkpt>
   <trkpt lat="12.8811530" lon="99.6945980">
    <ele>63.0</ele>
    <time>2018-01-27T08:49:25Z</time>
   </trkpt>
   <trkpt lat="12.8810950" lon="99.6945830">
    <ele>62.9</ele>
    <time>2018-01-27T08:49:27Z</time>
   </trkpt>
   <trkpt lat="12.8810660" lon="99.6945680">
    <ele>62.7</ele>
    <time>2018-01-27T08:49:29Z</time>
   </trkpt>
   <trkpt lat="12.8810170" lon="99.6945570">
    <ele>62.8</ele>
    <time>2018-01-27T08:49:31Z</time>
   </trkpt>
   <trkpt lat="12.8809770" lon="99.6945500">
    <ele>62.8</ele>
    <time>2018-01-27T08:49:32Z</time>
   </trkpt>
   <trkpt lat="12.8809380" lon="99.6945380">
    <ele>62.8</ele>
    <time>2018-01-27T08:49:33Z</time>
   </trkpt>
   <trkpt lat="12.8809000" lon="99.6945210">
    <ele>62.5</ele>
    <time>2018-01-27T08:49:34Z</time>
   </trkpt>
   <trkpt lat="12.8808640" lon="99.6945000">
    <ele>62.5</ele>
    <time>2018-01-27T08:49:35Z</time>
   </trkpt>
   <trkpt lat="12.8808270" lon="99.6944800">
    <ele>62.5</ele>
    <time>2018-01-27T08:49:36Z</time>
   </trkpt>
   <trkpt lat="12.8807910" lon="99.6944610">
    <ele>62.8</ele>
    <time>2018-01-27T08:49:37Z</time>
   </trkpt>
   <trkpt lat="12.8807590" lon="99.6944380">
    <ele>62.7</ele>
    <time>2018-01-27T08:49:39Z</time>
   </trkpt>
   <trkpt lat="12.8804040" lon="99.6942720">
    <ele>63.6</ele>
    <time>2018-01-27T08:49:43Z</time>
   </trkpt>
   <trkpt lat="12.8803550" lon="99.6942770">
    <ele>63.5</ele>
    <time>2018-01-27T08:49:44Z</time>
   </trkpt>
   <trkpt lat="12.8803050" lon="99.6942970">
    <ele>63.5</ele>
    <time>2018-01-27T08:49:45Z</time>
   </trkpt>
   <trkpt lat="12.8802460" lon="99.6943260">
    <ele>63.3</ele>
    <time>2018-01-27T08:49:46Z</time>
   </trkpt>
   <trkpt lat="12.8802090" lon="99.6943340">
    <ele>63.4</ele>
    <time>2018-01-27T08:49:47Z</time>
   </trkpt>
   <trkpt lat="12.8801630" lon="99.6943520">
    <ele>63.5</ele>
    <time>2018-01-27T08:49:48Z</time>
   </trkpt>
   <trkpt lat="12.8801240" lon="99.6943610">
    <ele>63.8</ele>
    <time>2018-01-27T08:49:49Z</time>
   </trkpt>
   <trkpt lat="12.8800180" lon="99.6944150">
    <ele>64.5</ele>
    <time>2018-01-27T08:49:51Z</time>
   </trkpt>
   <trkpt lat="12.8799760" lon="99.6944280">
    <ele>64.7</ele>
    <time>2018-01-27T08:49:52Z</time>
   </trkpt>
   <trkpt lat="12.8799380" lon="99.6944430">
    <ele>64.9</ele>
    <time>2018-01-27T08:49:53Z</time>
   </trkpt>
   <trkpt lat="12.8799110" lon="99.6944620">
    <ele>64.8</ele>
    <time>2018-01-27T08:49:54Z</time>
   </trkpt>
   <trkpt lat="12.8798940" lon="99.6944890">
    <ele>64.8</ele>
    <time>2018-01-27T08:49:55Z</time>
   </trkpt>
   <trkpt lat="12.8798680" lon="99.6945160">
    <ele>64.6</ele>
    <time>2018-01-27T08:49:57Z</time>
   </trkpt>
   <trkpt lat="12.8798370" lon="99.6945250">
    <ele>64.6</ele>
    <time>2018-01-27T08:50:00Z</time>
   </trkpt>
   <trkpt lat="12.8797990" lon="99.6945550">
    <ele>64.1</ele>
    <time>2018-01-27T08:50:02Z</time>
   </trkpt>
   <trkpt lat="12.8797690" lon="99.6945850">
    <ele>63.6</ele>
    <time>2018-01-27T08:50:03Z</time>
   </trkpt>
   <trkpt lat="12.8797370" lon="99.6946110">
    <ele>63.3</ele>
    <time>2018-01-27T08:50:04Z</time>
   </trkpt>
   <trkpt lat="12.8797010" lon="99.6946330">
    <ele>62.8</ele>
    <time>2018-01-27T08:50:05Z</time>
   </trkpt>
   <trkpt lat="12.8796620" lon="99.6946540">
    <ele>62.3</ele>
    <time>2018-01-27T08:50:06Z</time>
   </trkpt>
   <trkpt lat="12.8796260" lon="99.6946780">
    <ele>61.7</ele>
    <time>2018-01-27T08:50:07Z</time>
   </trkpt>
   <trkpt lat="12.8795760" lon="99.6947120">
    <ele>61.0</ele>
    <time>2018-01-27T08:50:08Z</time>
   </trkpt>
   <trkpt lat="12.8795480" lon="99.6947280">
    <ele>61.0</ele>
    <time>2018-01-27T08:50:09Z</time>
   </trkpt>
   <trkpt lat="12.8795040" lon="99.6947530">
    <ele>60.6</ele>
    <time>2018-01-27T08:50:10Z</time>
   </trkpt>
   <trkpt lat="12.8794680" lon="99.6947830">
    <ele>60.4</ele>
    <time>2018-01-27T08:50:11Z</time>
   </trkpt>
   <trkpt lat="12.8794310" lon="99.6948180">
    <ele>60.4</ele>
    <time>2018-01-27T08:50:12Z</time>
   </trkpt>
   <trkpt lat="12.8793980" lon="99.6948420">
    <ele>60.4</ele>
    <time>2018-01-27T08:50:13Z</time>
   </trkpt>
   <trkpt lat="12.8793600" lon="99.6948680">
    <ele>60.4</ele>
    <time>2018-01-27T08:50:14Z</time>
   </trkpt>
   <trkpt lat="12.8793230" lon="99.6948920">
    <ele>60.4</ele>
    <time>2018-01-27T08:50:15Z</time>
   </trkpt>
   <trkpt lat="12.8792810" lon="99.6949290">
    <ele>60.4</ele>
    <time>2018-01-27T08:50:17Z</time>
   </trkpt>
   <trkpt lat="12.8792530" lon="99.6949670">
    <ele>60.4</ele>
    <time>2018-01-27T08:50:18Z</time>
   </trkpt>
   <trkpt lat="12.8792380" lon="99.6949930">
    <ele>60.3</ele>
    <time>2018-01-27T08:50:19Z</time>
   </trkpt>
   <trkpt lat="12.8792100" lon="99.6950280">
    <ele>60.5</ele>
    <time>2018-01-27T08:50:20Z</time>
   </trkpt>
   <trkpt lat="12.8791670" lon="99.6950690">
    <ele>60.8</ele>
    <time>2018-01-27T08:50:21Z</time>
   </trkpt>
   <trkpt lat="12.8791230" lon="99.6951080">
    <ele>61.3</ele>
    <time>2018-01-27T08:50:22Z</time>
   </trkpt>
   <trkpt lat="12.8790830" lon="99.6951520">
    <ele>61.4</ele>
    <time>2018-01-27T08:50:23Z</time>
   </trkpt>
   <trkpt lat="12.8790530" lon="99.6952140">
    <ele>61.4</ele>
    <time>2018-01-27T08:50:24Z</time>
   </trkpt>
   <trkpt lat="12.8789730" lon="99.6953120">
    <ele>62.5</ele>
    <time>2018-01-27T08:50:25Z</time>
   </trkpt>
   <trkpt lat="12.8789470" lon="99.6953520">
    <ele>63.0</ele>
    <time>2018-01-27T08:50:26Z</time>
   </trkpt>
   <trkpt lat="12.8789260" lon="99.6954040">
    <ele>63.1</ele>
    <time>2018-01-27T08:50:27Z</time>
   </trkpt>
   <trkpt lat="12.8789190" lon="99.6954520">
    <ele>63.3</ele>
    <time>2018-01-27T08:50:28Z</time>
   </trkpt>
   <trkpt lat="12.8789190" lon="99.6954820">
    <ele>63.5</ele>
    <time>2018-01-27T08:50:30Z</time>
   </trkpt>
   <trkpt lat="12.8789210" lon="99.6955120">
    <ele>63.5</ele>
    <time>2018-01-27T08:50:31Z</time>
   </trkpt>
   <trkpt lat="12.8789280" lon="99.6955430">
    <ele>63.9</ele>
    <time>2018-01-27T08:50:33Z</time>
   </trkpt>
   <trkpt lat="12.8789500" lon="99.6955790">
    <ele>64.4</ele>
    <time>2018-01-27T08:50:34Z</time>
   </trkpt>
   <trkpt lat="12.8790040" lon="99.6956980">
    <ele>65.6</ele>
    <time>2018-01-27T08:50:35Z</time>
   </trkpt>
   <trkpt lat="12.8790200" lon="99.6957200">
    <ele>65.6</ele>
    <time>2018-01-27T08:50:37Z</time>
   </trkpt>
   <trkpt lat="12.8790400" lon="99.6957580">
    <ele>66.2</ele>
    <time>2018-01-27T08:50:39Z</time>
   </trkpt>
   <trkpt lat="12.8790590" lon="99.6957880">
    <ele>66.3</ele>
    <time>2018-01-27T08:50:40Z</time>
   </trkpt>
   <trkpt lat="12.8790940" lon="99.6958190">
    <ele>65.9</ele>
    <time>2018-01-27T08:50:41Z</time>
   </trkpt>
   <trkpt lat="12.8791290" lon="99.6958600">
    <ele>65.6</ele>
    <time>2018-01-27T08:50:43Z</time>
   </trkpt>
   <trkpt lat="12.8791570" lon="99.6959000">
    <ele>65.6</ele>
    <time>2018-01-27T08:50:44Z</time>
   </trkpt>
   <trkpt lat="12.8792990" lon="99.6960540">
    <ele>62.5</ele>
    <time>2018-01-27T08:50:47Z</time>
   </trkpt>
   <trkpt lat="12.8793350" lon="99.6960880">
    <ele>62.1</ele>
    <time>2018-01-27T08:50:48Z</time>
   </trkpt>
   <trkpt lat="12.8793630" lon="99.6961110">
    <ele>62.1</ele>
    <time>2018-01-27T08:50:49Z</time>
   </trkpt>
   <trkpt lat="12.8794060" lon="99.6961380">
    <ele>61.9</ele>
    <time>2018-01-27T08:50:50Z</time>
   </trkpt>
   <trkpt lat="12.8794470" lon="99.6961510">
    <ele>61.6</ele>
    <time>2018-01-27T08:50:51Z</time>
   </trkpt>
   <trkpt lat="12.8794890" lon="99.6961250">
    <ele>61.5</ele>
    <time>2018-01-27T08:50:53Z</time>
   </trkpt>
   <trkpt lat="12.8794680" lon="99.6961510">
    <ele>61.5</ele>
    <time>2018-01-27T08:51:13Z</time>
   </trkpt>
   <trkpt lat="12.8794910" lon="99.6961980">
    <ele>61.5</ele>
    <time>2018-01-27T08:51:15Z</time>
   </trkpt>
   <trkpt lat="12.8795120" lon="99.6962370">
    <ele>61.4</ele>
    <time>2018-01-27T08:51:17Z</time>
   </trkpt>
   <trkpt lat="12.8795380" lon="99.6962840">
    <ele>61.4</ele>
    <time>2018-01-27T08:51:19Z</time>
   </trkpt>
   <trkpt lat="12.8795630" lon="99.6963090">
    <ele>61.6</ele>
    <time>2018-01-27T08:51:20Z</time>
   </trkpt>
   <trkpt lat="12.8795910" lon="99.6963300">
    <ele>61.7</ele>
    <time>2018-01-27T08:51:21Z</time>
   </trkpt>
   <trkpt lat="12.8796240" lon="99.6963440">
    <ele>61.9</ele>
    <time>2018-01-27T08:51:22Z</time>
   </trkpt>
   <trkpt lat="12.8796620" lon="99.6963540">
    <ele>62.1</ele>
    <time>2018-01-27T08:51:23Z</time>
   </trkpt>
   <trkpt lat="12.8796980" lon="99.6963610">
    <ele>62.2</ele>
    <time>2018-01-27T08:51:24Z</time>
   </trkpt>
   <trkpt lat="12.8797440" lon="99.6963700">
    <ele>62.3</ele>
    <time>2018-01-27T08:51:26Z</time>
   </trkpt>
   <trkpt lat="12.8797820" lon="99.6963770">
    <ele>62.5</ele>
    <time>2018-01-27T08:51:27Z</time>
   </trkpt>
   <trkpt lat="12.8798170" lon="99.6963840">
    <ele>62.9</ele>
    <time>2018-01-27T08:51:28Z</time>
   </trkpt>
   <trkpt lat="12.8798470" lon="99.6963950">
    <ele>63.4</ele>
    <time>2018-01-27T08:51:29Z</time>
   </trkpt>
   <trkpt lat="12.8798730" lon="99.6964080">
    <ele>63.3</ele>
    <time>2018-01-27T08:51:30Z</time>
   </trkpt>
   <trkpt lat="12.8798960" lon="99.6964230">
    <ele>64.1</ele>
    <time>2018-01-27T08:51:31Z</time>
   </trkpt>
   <trkpt lat="12.8799200" lon="99.6964380">
    <ele>64.9</ele>
    <time>2018-01-27T08:51:32Z</time>
   </trkpt>
   <trkpt lat="12.8799450" lon="99.6964520">
    <ele>64.8</ele>
    <time>2018-01-27T08:51:33Z</time>
   </trkpt>
   <trkpt lat="12.8799700" lon="99.6964690">
    <ele>65.4</ele>
    <time>2018-01-27T08:51:34Z</time>
   </trkpt>
   <trkpt lat="12.8799910" lon="99.6964910">
    <ele>65.4</ele>
    <time>2018-01-27T08:51:35Z</time>
   </trkpt>
   <trkpt lat="12.8800090" lon="99.6965180">
    <ele>65.8</ele>
    <time>2018-01-27T08:51:36Z</time>
   </trkpt>
   <trkpt lat="12.8800260" lon="99.6965450">
    <ele>65.7</ele>
    <time>2018-01-27T08:51:37Z</time>
   </trkpt>
   <trkpt lat="12.8800430" lon="99.6965740">
    <ele>65.7</ele>
    <time>2018-01-27T08:51:38Z</time>
   </trkpt>
   <trkpt lat="12.8800650" lon="99.6966060">
    <ele>66.1</ele>
    <time>2018-01-27T08:51:39Z</time>
   </trkpt>
   <trkpt lat="12.8800880" lon="99.6966410">
    <ele>66.5</ele>
    <time>2018-01-27T08:51:40Z</time>
   </trkpt>
   <trkpt lat="12.8801590" lon="99.6967020">
    <ele>67.0</ele>
    <time>2018-01-27T08:51:41Z</time>
   </trkpt>
   <trkpt lat="12.8801780" lon="99.6967350">
    <ele>67.4</ele>
    <time>2018-01-27T08:51:42Z</time>
   </trkpt>
   <trkpt lat="12.8801970" lon="99.6967660">
    <ele>67.4</ele>
    <time>2018-01-27T08:51:43Z</time>
   </trkpt>
   <trkpt lat="12.8802200" lon="99.6967950">
    <ele>68.0</ele>
    <time>2018-01-27T08:51:44Z</time>
   </trkpt>
   <trkpt lat="12.8802430" lon="99.6968200">
    <ele>67.9</ele>
    <time>2018-01-27T08:51:45Z</time>
   </trkpt>
   <trkpt lat="12.8802730" lon="99.6968440">
    <ele>68.4</ele>
    <time>2018-01-27T08:51:46Z</time>
   </trkpt>
   <trkpt lat="12.8803050" lon="99.6968640">
    <ele>68.7</ele>
    <time>2018-01-27T08:51:47Z</time>
   </trkpt>
   <trkpt lat="12.8803390" lon="99.6968780">
    <ele>69.0</ele>
    <time>2018-01-27T08:51:48Z</time>
   </trkpt>
   <trkpt lat="12.8803750" lon="99.6968900">
    <ele>68.9</ele>
    <time>2018-01-27T08:51:49Z</time>
   </trkpt>
   <trkpt lat="12.8804130" lon="99.6969040">
    <ele>69.1</ele>
    <time>2018-01-27T08:51:50Z</time>
   </trkpt>
   <trkpt lat="12.8804490" lon="99.6969200">
    <ele>69.2</ele>
    <time>2018-01-27T08:51:51Z</time>
   </trkpt>
   <trkpt lat="12.8804830" lon="99.6969370">
    <ele>69.3</ele>
    <time>2018-01-27T08:51:52Z</time>
   </trkpt>
   <trkpt lat="12.8805140" lon="99.6969540">
    <ele>69.4</ele>
    <time>2018-01-27T08:51:53Z</time>
   </trkpt>
   <trkpt lat="12.8805410" lon="99.6969720">
    <ele>69.3</ele>
    <time>2018-01-27T08:51:54Z</time>
   </trkpt>
   <trkpt lat="12.8805670" lon="99.6969930">
    <ele>69.5</ele>
    <time>2018-01-27T08:51:55Z</time>
   </trkpt>
   <trkpt lat="12.8805900" lon="99.6970140">
    <ele>69.6</ele>
    <time>2018-01-27T08:51:56Z</time>
   </trkpt>
   <trkpt lat="12.8806160" lon="99.6970360">
    <ele>69.8</ele>
    <time>2018-01-27T08:51:57Z</time>
   </trkpt>
   <trkpt lat="12.8806420" lon="99.6970590">
    <ele>69.8</ele>
    <time>2018-01-27T08:51:58Z</time>
   </trkpt>
   <trkpt lat="12.8806670" lon="99.6970810">
    <ele>70.0</ele>
    <time>2018-01-27T08:51:59Z</time>
   </trkpt>
   <trkpt lat="12.8806890" lon="99.6971040">
    <ele>70.0</ele>
    <time>2018-01-27T08:52:00Z</time>
   </trkpt>
   <trkpt lat="12.8807100" lon="99.6971300">
    <ele>70.0</ele>
    <time>2018-01-27T08:52:01Z</time>
   </trkpt>
   <trkpt lat="12.8807300" lon="99.6971570">
    <ele>70.0</ele>
    <time>2018-01-27T08:52:02Z</time>
   </trkpt>
   <trkpt lat="12.8807480" lon="99.6971830">
    <ele>69.9</ele>
    <time>2018-01-27T08:52:03Z</time>
   </trkpt>
   <trkpt lat="12.8807640" lon="99.6972110">
    <ele>69.7</ele>
    <time>2018-01-27T08:52:04Z</time>
   </trkpt>
   <trkpt lat="12.8807780" lon="99.6972400">
    <ele>69.6</ele>
    <time>2018-01-27T08:52:05Z</time>
   </trkpt>
   <trkpt lat="12.8807900" lon="99.6972680">
    <ele>69.5</ele>
    <time>2018-01-27T08:52:06Z</time>
   </trkpt>
   <trkpt lat="12.8808000" lon="99.6972980">
    <ele>69.3</ele>
    <time>2018-01-27T08:52:07Z</time>
   </trkpt>
   <trkpt lat="12.8808110" lon="99.6973270">
    <ele>69.0</ele>
    <time>2018-01-27T08:52:08Z</time>
   </trkpt>
   <trkpt lat="12.8808220" lon="99.6973550">
    <ele>68.9</ele>
    <time>2018-01-27T08:52:09Z</time>
   </trkpt>
   <trkpt lat="12.8808390" lon="99.6973780">
    <ele>68.5</ele>
    <time>2018-01-27T08:52:10Z</time>
   </trkpt>
   <trkpt lat="12.8808610" lon="99.6974020">
    <ele>68.4</ele>
    <time>2018-01-27T08:52:11Z</time>
   </trkpt>
   <trkpt lat="12.8808770" lon="99.6974250">
    <ele>67.9</ele>
    <time>2018-01-27T08:52:12Z</time>
   </trkpt>
   <trkpt lat="12.8808890" lon="99.6974500">
    <ele>67.7</ele>
    <time>2018-01-27T08:52:13Z</time>
   </trkpt>
   <trkpt lat="12.8808990" lon="99.6974790">
    <ele>67.2</ele>
    <time>2018-01-27T08:52:14Z</time>
   </trkpt>
   <trkpt lat="12.8809090" lon="99.6975070">
    <ele>66.7</ele>
    <time>2018-01-27T08:52:15Z</time>
   </trkpt>
   <trkpt lat="12.8809170" lon="99.6975340">
    <ele>66.6</ele>
    <time>2018-01-27T08:52:16Z</time>
   </trkpt>
   <trkpt lat="12.8809240" lon="99.6975620">
    <ele>66.4</ele>
    <time>2018-01-27T08:52:17Z</time>
   </trkpt>
   <trkpt lat="12.8809290" lon="99.6975900">
    <ele>66.1</ele>
    <time>2018-01-27T08:52:18Z</time>
   </trkpt>
   <trkpt lat="12.8809320" lon="99.6976220">
    <ele>66.1</ele>
    <time>2018-01-27T08:52:19Z</time>
   </trkpt>
   <trkpt lat="12.8809310" lon="99.6976560">
    <ele>65.9</ele>
    <time>2018-01-27T08:52:20Z</time>
   </trkpt>
   <trkpt lat="12.8809260" lon="99.6976910">
    <ele>65.9</ele>
    <time>2018-01-27T08:52:21Z</time>
   </trkpt>
   <trkpt lat="12.8809210" lon="99.6977260">
    <ele>65.6</ele>
    <time>2018-01-27T08:52:22Z</time>
   </trkpt>
   <trkpt lat="12.8809180" lon="99.6977610">
    <ele>65.7</ele>
    <time>2018-01-27T08:52:23Z</time>
   </trkpt>
   <trkpt lat="12.8809130" lon="99.6977960">
    <ele>66.0</ele>
    <time>2018-01-27T08:52:24Z</time>
   </trkpt>
   <trkpt lat="12.8809090" lon="99.6978340">
    <ele>65.9</ele>
    <time>2018-01-27T08:52:25Z</time>
   </trkpt>
   <trkpt lat="12.8809050" lon="99.6978690">
    <ele>66.1</ele>
    <time>2018-01-27T08:52:26Z</time>
   </trkpt>
   <trkpt lat="12.8808990" lon="99.6979050">
    <ele>66.3</ele>
    <time>2018-01-27T08:52:27Z</time>
   </trkpt>
   <trkpt lat="12.8808970" lon="99.6979410">
    <ele>66.5</ele>
    <time>2018-01-27T08:52:28Z</time>
   </trkpt>
   <trkpt lat="12.8808940" lon="99.6979880">
    <ele>66.5</ele>
    <time>2018-01-27T08:52:30Z</time>
   </trkpt>
   <trkpt lat="12.8808920" lon="99.6980200">
    <ele>66.6</ele>
    <time>2018-01-27T08:52:31Z</time>
   </trkpt>
   <trkpt lat="12.8808920" lon="99.6980520">
    <ele>66.5</ele>
    <time>2018-01-27T08:52:32Z</time>
   </trkpt>
   <trkpt lat="12.8808930" lon="99.6980840">
    <ele>66.5</ele>
    <time>2018-01-27T08:52:33Z</time>
   </trkpt>
   <trkpt lat="12.8808950" lon="99.6981140">
    <ele>66.5</ele>
    <time>2018-01-27T08:52:34Z</time>
   </trkpt>
   <trkpt lat="12.8808940" lon="99.6981440">
    <ele>66.5</ele>
    <time>2018-01-27T08:52:35Z</time>
   </trkpt>
   <trkpt lat="12.8808910" lon="99.6981760">
    <ele>66.4</ele>
    <time>2018-01-27T08:52:36Z</time>
   </trkpt>
   <trkpt lat="12.8808860" lon="99.6982090">
    <ele>66.4</ele>
    <time>2018-01-27T08:52:37Z</time>
   </trkpt>
   <trkpt lat="12.8808800" lon="99.6982420">
    <ele>65.7</ele>
    <time>2018-01-27T08:52:38Z</time>
   </trkpt>
   <trkpt lat="12.8808800" lon="99.6983360">
    <ele>65.5</ele>
    <time>2018-01-27T08:52:39Z</time>
   </trkpt>
   <trkpt lat="12.8808790" lon="99.6983730">
    <ele>65.4</ele>
    <time>2018-01-27T08:52:40Z</time>
   </trkpt>
   <trkpt lat="12.8808800" lon="99.6984120">
    <ele>65.3</ele>
    <time>2018-01-27T08:52:41Z</time>
   </trkpt>
   <trkpt lat="12.8808820" lon="99.6984500">
    <ele>65.8</ele>
    <time>2018-01-27T08:52:42Z</time>
   </trkpt>
   <trkpt lat="12.8808880" lon="99.6984850">
    <ele>66.2</ele>
    <time>2018-01-27T08:52:43Z</time>
   </trkpt>
   <trkpt lat="12.8808900" lon="99.6985190">
    <ele>66.1</ele>
    <time>2018-01-27T08:52:44Z</time>
   </trkpt>
   <trkpt lat="12.8808930" lon="99.6985510">
    <ele>66.4</ele>
    <time>2018-01-27T08:52:45Z</time>
   </trkpt>
   <trkpt lat="12.8808950" lon="99.6985860">
    <ele>66.8</ele>
    <time>2018-01-27T08:52:46Z</time>
   </trkpt>
   <trkpt lat="12.8808990" lon="99.6986210">
    <ele>67.0</ele>
    <time>2018-01-27T08:52:47Z</time>
   </trkpt>
   <trkpt lat="12.8809030" lon="99.6986570">
    <ele>67.1</ele>
    <time>2018-01-27T08:52:48Z</time>
   </trkpt>
   <trkpt lat="12.8809060" lon="99.6986920">
    <ele>67.1</ele>
    <time>2018-01-27T08:52:49Z</time>
   </trkpt>
   <trkpt lat="12.8809100" lon="99.6987260">
    <ele>67.1</ele>
    <time>2018-01-27T08:52:50Z</time>
   </trkpt>
   <trkpt lat="12.8809140" lon="99.6987590">
    <ele>67.1</ele>
    <time>2018-01-27T08:52:51Z</time>
   </trkpt>
   <trkpt lat="12.8809180" lon="99.6987900">
    <ele>67.2</ele>
    <time>2018-01-27T08:52:52Z</time>
   </trkpt>
   <trkpt lat="12.8809220" lon="99.6988210">
    <ele>67.1</ele>
    <time>2018-01-27T08:52:53Z</time>
   </trkpt>
   <trkpt lat="12.8809270" lon="99.6988490">
    <ele>67.7</ele>
    <time>2018-01-27T08:52:54Z</time>
   </trkpt>
   <trkpt lat="12.8809340" lon="99.6989030">
    <ele>68.1</ele>
    <time>2018-01-27T08:52:56Z</time>
   </trkpt>
   <trkpt lat="12.8809370" lon="99.6989330">
    <ele>68.4</ele>
    <time>2018-01-27T08:52:57Z</time>
   </trkpt>
   <trkpt lat="12.8809390" lon="99.6989620">
    <ele>68.8</ele>
    <time>2018-01-27T08:52:58Z</time>
   </trkpt>
   <trkpt lat="12.8809390" lon="99.6990130">
    <ele>69.3</ele>
    <time>2018-01-27T08:53:00Z</time>
   </trkpt>
   <trkpt lat="12.8809390" lon="99.6990450">
    <ele>69.7</ele>
    <time>2018-01-27T08:53:02Z</time>
   </trkpt>
   <trkpt lat="12.8809400" lon="99.6990800">
    <ele>69.6</ele>
    <time>2018-01-27T08:53:04Z</time>
   </trkpt>
   <trkpt lat="12.8809450" lon="99.6991300">
    <ele>70.6</ele>
    <time>2018-01-27T08:53:33Z</time>
   </trkpt>
   <trkpt lat="12.8809520" lon="99.6991580">
    <ele>70.5</ele>
    <time>2018-01-27T08:53:34Z</time>
   </trkpt>
   <trkpt lat="12.8809660" lon="99.6991860">
    <ele>71.2</ele>
    <time>2018-01-27T08:53:35Z</time>
   </trkpt>
   <trkpt lat="12.8809850" lon="99.6992120">
    <ele>71.4</ele>
    <time>2018-01-27T08:53:36Z</time>
   </trkpt>
   <trkpt lat="12.8810090" lon="99.6992380">
    <ele>71.8</ele>
    <time>2018-01-27T08:53:37Z</time>
   </trkpt>
   <trkpt lat="12.8810300" lon="99.6992610">
    <ele>71.9</ele>
    <time>2018-01-27T08:53:38Z</time>
   </trkpt>
   <trkpt lat="12.8810460" lon="99.6992840">
    <ele>71.9</ele>
    <time>2018-01-27T08:53:39Z</time>
   </trkpt>
   <trkpt lat="12.8810590" lon="99.6993100">
    <ele>72.4</ele>
    <time>2018-01-27T08:53:40Z</time>
   </trkpt>
   <trkpt lat="12.8810760" lon="99.6993580">
    <ele>72.3</ele>
    <time>2018-01-27T08:53:41Z</time>
   </trkpt>
   <trkpt lat="12.8810830" lon="99.6993970">
    <ele>72.3</ele>
    <time>2018-01-27T08:53:42Z</time>
   </trkpt>
   <trkpt lat="12.8810820" lon="99.6994330">
    <ele>72.2</ele>
    <time>2018-01-27T08:53:43Z</time>
   </trkpt>
   <trkpt lat="12.8810740" lon="99.6994700">
    <ele>72.3</ele>
    <time>2018-01-27T08:53:44Z</time>
   </trkpt>
   <trkpt lat="12.8810630" lon="99.6995030">
    <ele>72.3</ele>
    <time>2018-01-27T08:53:45Z</time>
   </trkpt>
   <trkpt lat="12.8810480" lon="99.6995360">
    <ele>72.1</ele>
    <time>2018-01-27T08:53:46Z</time>
   </trkpt>
   <trkpt lat="12.8810350" lon="99.6995660">
    <ele>72.4</ele>
    <time>2018-01-27T08:53:47Z</time>
   </trkpt>
   <trkpt lat="12.8810240" lon="99.6995930">
    <ele>72.4</ele>
    <time>2018-01-27T08:53:49Z</time>
   </trkpt>
   <trkpt lat="12.8810120" lon="99.6996180">
    <ele>72.7</ele>
    <time>2018-01-27T08:53:50Z</time>
   </trkpt>
   <trkpt lat="12.8809930" lon="99.6996650">
    <ele>72.8</ele>
    <time>2018-01-27T08:53:51Z</time>
   </trkpt>
   <trkpt lat="12.8809600" lon="99.6997520">
    <ele>73.2</ele>
    <time>2018-01-27T08:53:52Z</time>
   </trkpt>
   <trkpt lat="12.8809330" lon="99.6998060">
    <ele>73.3</ele>
    <time>2018-01-27T08:53:53Z</time>
   </trkpt>
   <trkpt lat="12.8809070" lon="99.6998570">
    <ele>72.6</ele>
    <time>2018-01-27T08:53:54Z</time>
   </trkpt>
   <trkpt lat="12.8808640" lon="99.6998980">
    <ele>72.0</ele>
    <time>2018-01-27T08:53:55Z</time>
   </trkpt>
   <trkpt lat="12.8808170" lon="99.6999380">
    <ele>71.6</ele>
    <time>2018-01-27T08:53:56Z</time>
   </trkpt>
   <trkpt lat="12.8807780" lon="99.6999710">
    <ele>71.4</ele>
    <time>2018-01-27T08:53:57Z</time>
   </trkpt>
   <trkpt lat="12.8807300" lon="99.7000040">
    <ele>71.2</ele>
    <time>2018-01-27T08:53:58Z</time>
   </trkpt>
   <trkpt lat="12.8806970" lon="99.7000370">
    <ele>71.1</ele>
    <time>2018-01-27T08:53:59Z</time>
   </trkpt>
   <trkpt lat="12.8806680" lon="99.7000690">
    <ele>70.8</ele>
    <time>2018-01-27T08:54:00Z</time>
   </trkpt>
   <trkpt lat="12.8806390" lon="99.7000950">
    <ele>70.8</ele>
    <time>2018-01-27T08:54:01Z</time>
   </trkpt>
   <trkpt lat="12.8806190" lon="99.7001180">
    <ele>70.4</ele>
    <time>2018-01-27T08:54:02Z</time>
   </trkpt>
   <trkpt lat="12.8806040" lon="99.7001440">
    <ele>70.4</ele>
    <time>2018-01-27T08:54:03Z</time>
   </trkpt>
   <trkpt lat="12.8805820" lon="99.7001650">
    <ele>70.2</ele>
    <time>2018-01-27T08:54:04Z</time>
   </trkpt>
   <trkpt lat="12.8805600" lon="99.7001930">
    <ele>70.2</ele>
    <time>2018-01-27T08:54:05Z</time>
   </trkpt>
   <trkpt lat="12.8805370" lon="99.7002130">
    <ele>70.3</ele>
    <time>2018-01-27T08:54:06Z</time>
   </trkpt>
   <trkpt lat="12.8805160" lon="99.7002420">
    <ele>70.8</ele>
    <time>2018-01-27T08:54:07Z</time>
   </trkpt>
   <trkpt lat="12.8804920" lon="99.7002760">
    <ele>70.8</ele>
    <time>2018-01-27T08:54:09Z</time>
   </trkpt>
   <trkpt lat="12.8804680" lon="99.7003110">
    <ele>71.5</ele>
    <time>2018-01-27T08:54:11Z</time>
   </trkpt>
   <trkpt lat="12.8804520" lon="99.7003420">
    <ele>72.0</ele>
    <time>2018-01-27T08:54:12Z</time>
   </trkpt>
   <trkpt lat="12.8804420" lon="99.7003700">
    <ele>72.3</ele>
    <time>2018-01-27T08:54:13Z</time>
   </trkpt>
   <trkpt lat="12.8804350" lon="99.7003990">
    <ele>72.3</ele>
    <time>2018-01-27T08:54:14Z</time>
   </trkpt>
   <trkpt lat="12.8804320" lon="99.7004310">
    <ele>72.6</ele>
    <time>2018-01-27T08:54:15Z</time>
   </trkpt>
   <trkpt lat="12.8804330" lon="99.7004650">
    <ele>72.9</ele>
    <time>2018-01-27T08:54:16Z</time>
   </trkpt>
   <trkpt lat="12.8804330" lon="99.7004950">
    <ele>72.9</ele>
    <time>2018-01-27T08:54:17Z</time>
   </trkpt>
   <trkpt lat="12.8804330" lon="99.7005260">
    <ele>73.2</ele>
    <time>2018-01-27T08:54:18Z</time>
   </trkpt>
   <trkpt lat="12.8804310" lon="99.7005590">
    <ele>73.7</ele>
    <time>2018-01-27T08:54:19Z</time>
   </trkpt>
   <trkpt lat="12.8804300" lon="99.7005960">
    <ele>74.1</ele>
    <time>2018-01-27T08:54:20Z</time>
   </trkpt>
   <trkpt lat="12.8804290" lon="99.7006310">
    <ele>74.6</ele>
    <time>2018-01-27T08:54:21Z</time>
   </trkpt>
   <trkpt lat="12.8804280" lon="99.7006680">
    <ele>74.6</ele>
    <time>2018-01-27T08:54:22Z</time>
   </trkpt>
   <trkpt lat="12.8804250" lon="99.7007090">
    <ele>75.0</ele>
    <time>2018-01-27T08:54:23Z</time>
   </trkpt>
   <trkpt lat="12.8804220" lon="99.7007470">
    <ele>75.3</ele>
    <time>2018-01-27T08:54:24Z</time>
   </trkpt>
   <trkpt lat="12.8804230" lon="99.7007860">
    <ele>75.5</ele>
    <time>2018-01-27T08:54:25Z</time>
   </trkpt>
   <trkpt lat="12.8804280" lon="99.7008260">
    <ele>75.6</ele>
    <time>2018-01-27T08:54:26Z</time>
   </trkpt>
   <trkpt lat="12.8804370" lon="99.7008650">
    <ele>75.6</ele>
    <time>2018-01-27T08:54:27Z</time>
   </trkpt>
   <trkpt lat="12.8804470" lon="99.7009050">
    <ele>75.5</ele>
    <time>2018-01-27T08:54:28Z</time>
   </trkpt>
   <trkpt lat="12.8804560" lon="99.7009440">
    <ele>75.3</ele>
    <time>2018-01-27T08:54:29Z</time>
   </trkpt>
   <trkpt lat="12.8804560" lon="99.7009830">
    <ele>75.1</ele>
    <time>2018-01-27T08:54:30Z</time>
   </trkpt>
   <trkpt lat="12.8804590" lon="99.7010340">
    <ele>75.1</ele>
    <time>2018-01-27T08:54:31Z</time>
   </trkpt>
   <trkpt lat="12.8804590" lon="99.7010700">
    <ele>75.1</ele>
    <time>2018-01-27T08:54:32Z</time>
   </trkpt>
   <trkpt lat="12.8804610" lon="99.7011040">
    <ele>75.2</ele>
    <time>2018-01-27T08:54:33Z</time>
   </trkpt>
   <trkpt lat="12.8804580" lon="99.7011380">
    <ele>75.2</ele>
    <time>2018-01-27T08:54:34Z</time>
   </trkpt>
   <trkpt lat="12.8804550" lon="99.7011680">
    <ele>75.2</ele>
    <time>2018-01-27T08:54:35Z</time>
   </trkpt>
   <trkpt lat="12.8804520" lon="99.7012020">
    <ele>75.3</ele>
    <time>2018-01-27T08:54:36Z</time>
   </trkpt>
   <trkpt lat="12.8804450" lon="99.7012340">
    <ele>75.3</ele>
    <time>2018-01-27T08:54:37Z</time>
   </trkpt>
   <trkpt lat="12.8804380" lon="99.7012650">
    <ele>75.3</ele>
    <time>2018-01-27T08:54:38Z</time>
   </trkpt>
   <trkpt lat="12.8804300" lon="99.7013130">
    <ele>75.3</ele>
    <time>2018-01-27T08:54:40Z</time>
   </trkpt>
   <trkpt lat="12.8804240" lon="99.7013660">
    <ele>75.1</ele>
    <time>2018-01-27T08:54:42Z</time>
   </trkpt>
   <trkpt lat="12.8804180" lon="99.7013940">
    <ele>74.6</ele>
    <time>2018-01-27T08:54:43Z</time>
   </trkpt>
   <trkpt lat="12.8804020" lon="99.7014420">
    <ele>74.5</ele>
    <time>2018-01-27T08:54:45Z</time>
   </trkpt>
   <trkpt lat="12.8803900" lon="99.7014690">
    <ele>74.4</ele>
    <time>2018-01-27T08:54:46Z</time>
   </trkpt>
   <trkpt lat="12.8803760" lon="99.7014940">
    <ele>74.0</ele>
    <time>2018-01-27T08:54:47Z</time>
   </trkpt>
   <trkpt lat="12.8803620" lon="99.7015170">
    <ele>74.0</ele>
    <time>2018-01-27T08:54:48Z</time>
   </trkpt>
   <trkpt lat="12.8803420" lon="99.7016000">
    <ele>73.9</ele>
    <time>2018-01-27T08:54:49Z</time>
   </trkpt>
   <trkpt lat="12.8803270" lon="99.7016480">
    <ele>73.6</ele>
    <time>2018-01-27T08:54:51Z</time>
   </trkpt>
   <trkpt lat="12.8803290" lon="99.7016810">
    <ele>73.6</ele>
    <time>2018-01-27T08:54:52Z</time>
   </trkpt>
   <trkpt lat="12.8803290" lon="99.7017160">
    <ele>73.8</ele>
    <time>2018-01-27T08:54:53Z</time>
   </trkpt>
   <trkpt lat="12.8803250" lon="99.7017470">
    <ele>74.0</ele>
    <time>2018-01-27T08:54:54Z</time>
   </trkpt>
   <trkpt lat="12.8803020" lon="99.7017990">
    <ele>74.3</ele>
    <time>2018-01-27T08:54:56Z</time>
   </trkpt>
   <trkpt lat="12.8802710" lon="99.7018190">
    <ele>73.8</ele>
    <time>2018-01-27T08:54:58Z</time>
   </trkpt>
   <trkpt lat="12.8802370" lon="99.7018240">
    <ele>73.3</ele>
    <time>2018-01-27T08:54:59Z</time>
   </trkpt>
   <trkpt lat="12.8802050" lon="99.7018240">
    <ele>72.7</ele>
    <time>2018-01-27T08:55:00Z</time>
   </trkpt>
   <trkpt lat="12.8801420" lon="99.7018290">
    <ele>72.5</ele>
    <time>2018-01-27T08:55:01Z</time>
   </trkpt>
   <trkpt lat="12.8801070" lon="99.7018230">
    <ele>71.7</ele>
    <time>2018-01-27T08:55:02Z</time>
   </trkpt>
   <trkpt lat="12.8800710" lon="99.7018220">
    <ele>71.4</ele>
    <time>2018-01-27T08:55:03Z</time>
   </trkpt>
   <trkpt lat="12.8800290" lon="99.7018210">
    <ele>71.2</ele>
    <time>2018-01-27T08:55:04Z</time>
   </trkpt>
   <trkpt lat="12.8799830" lon="99.7018180">
    <ele>71.0</ele>
    <time>2018-01-27T08:55:05Z</time>
   </trkpt>
   <trkpt lat="12.8799340" lon="99.7018180">
    <ele>71.0</ele>
    <time>2018-01-27T08:55:06Z</time>
   </trkpt>
   <trkpt lat="12.8798890" lon="99.7018160">
    <ele>71.0</ele>
    <time>2018-01-27T08:55:07Z</time>
   </trkpt>
   <trkpt lat="12.8798440" lon="99.7018150">
    <ele>71.1</ele>
    <time>2018-01-27T08:55:08Z</time>
   </trkpt>
   <trkpt lat="12.8797950" lon="99.7018200">
    <ele>71.1</ele>
    <time>2018-01-27T08:55:09Z</time>
   </trkpt>
   <trkpt lat="12.8797500" lon="99.7018130">
    <ele>71.2</ele>
    <time>2018-01-27T08:55:10Z</time>
   </trkpt>
   <trkpt lat="12.8797010" lon="99.7018130">
    <ele>71.2</ele>
    <time>2018-01-27T08:55:11Z</time>
   </trkpt>
   <trkpt lat="12.8796280" lon="99.7018150">
    <ele>71.3</ele>
    <time>2018-01-27T08:55:12Z</time>
   </trkpt>
   <trkpt lat="12.8795790" lon="99.7018050">
    <ele>71.3</ele>
    <time>2018-01-27T08:55:13Z</time>
   </trkpt>
   <trkpt lat="12.8795260" lon="99.7018060">
    <ele>71.3</ele>
    <time>2018-01-27T08:55:14Z</time>
   </trkpt>
   <trkpt lat="12.8794700" lon="99.7018160">
    <ele>71.1</ele>
    <time>2018-01-27T08:55:15Z</time>
   </trkpt>
   <trkpt lat="12.8794130" lon="99.7018320">
    <ele>70.7</ele>
    <time>2018-01-27T08:55:16Z</time>
   </trkpt>
   <trkpt lat="12.8793630" lon="99.7018490">
    <ele>70.2</ele>
    <time>2018-01-27T08:55:17Z</time>
   </trkpt>
   <trkpt lat="12.8793090" lon="99.7018660">
    <ele>69.6</ele>
    <time>2018-01-27T08:55:18Z</time>
   </trkpt>
   <trkpt lat="12.8792520" lon="99.7018790">
    <ele>69.0</ele>
    <time>2018-01-27T08:55:19Z</time>
   </trkpt>
   <trkpt lat="12.8791860" lon="99.7018950">
    <ele>67.9</ele>
    <time>2018-01-27T08:55:20Z</time>
   </trkpt>
   <trkpt lat="12.8791200" lon="99.7019190">
    <ele>67.0</ele>
    <time>2018-01-27T08:55:21Z</time>
   </trkpt>
   <trkpt lat="12.8790680" lon="99.7019220">
    <ele>66.7</ele>
    <time>2018-01-27T08:55:22Z</time>
   </trkpt>
   <trkpt lat="12.8790030" lon="99.7019260">
    <ele>66.5</ele>
    <time>2018-01-27T08:55:23Z</time>
   </trkpt>
   <trkpt lat="12.8789480" lon="99.7019300">
    <ele>66.1</ele>
    <time>2018-01-27T08:55:24Z</time>
   </trkpt>
   <trkpt lat="12.8788890" lon="99.7019210">
    <ele>65.9</ele>
    <time>2018-01-27T08:55:25Z</time>
   </trkpt>
   <trkpt lat="12.8788140" lon="99.7019190">
    <ele>65.7</ele>
    <time>2018-01-27T08:55:26Z</time>
   </trkpt>
   <trkpt lat="12.8787510" lon="99.7019230">
    <ele>65.6</ele>
    <time>2018-01-27T08:55:27Z</time>
   </trkpt>
   <trkpt lat="12.8786900" lon="99.7019280">
    <ele>65.4</ele>
    <time>2018-01-27T08:55:28Z</time>
   </trkpt>
   <trkpt lat="12.8786280" lon="99.7019290">
    <ele>65.2</ele>
    <time>2018-01-27T08:55:29Z</time>
   </trkpt>
   <trkpt lat="12.8785620" lon="99.7019270">
    <ele>64.6</ele>
    <time>2018-01-27T08:55:30Z</time>
   </trkpt>
   <trkpt lat="12.8784990" lon="99.7019320">
    <ele>64.3</ele>
    <time>2018-01-27T08:55:31Z</time>
   </trkpt>
   <trkpt lat="12.8784320" lon="99.7019320">
    <ele>64.2</ele>
    <time>2018-01-27T08:55:32Z</time>
   </trkpt>
   <trkpt lat="12.8783700" lon="99.7019310">
    <ele>64.2</ele>
    <time>2018-01-27T08:55:33Z</time>
   </trkpt>
   <trkpt lat="12.8783110" lon="99.7019330">
    <ele>64.2</ele>
    <time>2018-01-27T08:55:34Z</time>
   </trkpt>
   <trkpt lat="12.8782500" lon="99.7019380">
    <ele>64.1</ele>
    <time>2018-01-27T08:55:35Z</time>
   </trkpt>
   <trkpt lat="12.8781910" lon="99.7019470">
    <ele>63.9</ele>
    <time>2018-01-27T08:55:36Z</time>
   </trkpt>
   <trkpt lat="12.8781350" lon="99.7019650">
    <ele>63.7</ele>
    <time>2018-01-27T08:55:37Z</time>
   </trkpt>
   <trkpt lat="12.8780830" lon="99.7019900">
    <ele>63.7</ele>
    <time>2018-01-27T08:55:38Z</time>
   </trkpt>
   <trkpt lat="12.8780290" lon="99.7020180">
    <ele>63.8</ele>
    <time>2018-01-27T08:55:39Z</time>
   </trkpt>
   <trkpt lat="12.8779800" lon="99.7020400">
    <ele>63.9</ele>
    <time>2018-01-27T08:55:40Z</time>
   </trkpt>
   <trkpt lat="12.8779280" lon="99.7020580">
    <ele>63.8</ele>
    <time>2018-01-27T08:55:41Z</time>
   </trkpt>
   <trkpt lat="12.8778690" lon="99.7020650">
    <ele>63.8</ele>
    <time>2018-01-27T08:55:42Z</time>
   </trkpt>
   <trkpt lat="12.8778110" lon="99.7020700">
    <ele>63.7</ele>
    <time>2018-01-27T08:55:43Z</time>
   </trkpt>
   <trkpt lat="12.8777510" lon="99.7020730">
    <ele>63.7</ele>
    <time>2018-01-27T08:55:44Z</time>
   </trkpt>
   <trkpt lat="12.8776890" lon="99.7020870">
    <ele>63.5</ele>
    <time>2018-01-27T08:55:45Z</time>
   </trkpt>
   <trkpt lat="12.8776000" lon="99.7021140">
    <ele>63.5</ele>
    <time>2018-01-27T08:55:46Z</time>
   </trkpt>
   <trkpt lat="12.8775400" lon="99.7021210">
    <ele>63.4</ele>
    <time>2018-01-27T08:55:47Z</time>
   </trkpt>
   <trkpt lat="12.8774860" lon="99.7021140">
    <ele>63.4</ele>
    <time>2018-01-27T08:55:48Z</time>
   </trkpt>
   <trkpt lat="12.8774390" lon="99.7020980">
    <ele>63.3</ele>
    <time>2018-01-27T08:55:49Z</time>
   </trkpt>
   <trkpt lat="12.8773840" lon="99.7020800">
    <ele>63.3</ele>
    <time>2018-01-27T08:55:50Z</time>
   </trkpt>
   <trkpt lat="12.8773280" lon="99.7020660">
    <ele>63.1</ele>
    <time>2018-01-27T08:55:51Z</time>
   </trkpt>
   <trkpt lat="12.8772740" lon="99.7020430">
    <ele>62.7</ele>
    <time>2018-01-27T08:55:52Z</time>
   </trkpt>
   <trkpt lat="12.8772190" lon="99.7020420">
    <ele>62.7</ele>
    <time>2018-01-27T08:55:53Z</time>
   </trkpt>
   <trkpt lat="12.8771670" lon="99.7020350">
    <ele>62.7</ele>
    <time>2018-01-27T08:55:54Z</time>
   </trkpt>
   <trkpt lat="12.8771210" lon="99.7020330">
    <ele>62.8</ele>
    <time>2018-01-27T08:55:55Z</time>
   </trkpt>
   <trkpt lat="12.8770670" lon="99.7020320">
    <ele>62.8</ele>
    <time>2018-01-27T08:55:56Z</time>
   </trkpt>
   <trkpt lat="12.8770130" lon="99.7020310">
    <ele>62.8</ele>
    <time>2018-01-27T08:55:57Z</time>
   </trkpt>
   <trkpt lat="12.8769540" lon="99.7020240">
    <ele>62.8</ele>
    <time>2018-01-27T08:55:58Z</time>
   </trkpt>
   <trkpt lat="12.8769040" lon="99.7020160">
    <ele>62.8</ele>
    <time>2018-01-27T08:55:59Z</time>
   </trkpt>
   <trkpt lat="12.8768600" lon="99.7020090">
    <ele>62.8</ele>
    <time>2018-01-27T08:56:00Z</time>
   </trkpt>
   <trkpt lat="12.8768180" lon="99.7020230">
    <ele>62.8</ele>
    <time>2018-01-27T08:56:01Z</time>
   </trkpt>
   <trkpt lat="12.8767870" lon="99.7020440">
    <ele>63.0</ele>
    <time>2018-01-27T08:56:02Z</time>
   </trkpt>
   <trkpt lat="12.8767440" lon="99.7020850">
    <ele>63.0</ele>
    <time>2018-01-27T08:56:03Z</time>
   </trkpt>
   <trkpt lat="12.8767250" lon="99.7021080">
    <ele>63.1</ele>
    <time>2018-01-27T08:56:04Z</time>
   </trkpt>
   <trkpt lat="12.8766920" lon="99.7021370">
    <ele>63.0</ele>
    <time>2018-01-27T08:56:05Z</time>
   </trkpt>
   <trkpt lat="12.8766620" lon="99.7021630">
    <ele>63.0</ele>
    <time>2018-01-27T08:56:06Z</time>
   </trkpt>
   <trkpt lat="12.8766360" lon="99.7021920">
    <ele>62.8</ele>
    <time>2018-01-27T08:56:07Z</time>
   </trkpt>
   <trkpt lat="12.8766090" lon="99.7022190">
    <ele>62.7</ele>
    <time>2018-01-27T08:56:08Z</time>
   </trkpt>
   <trkpt lat="12.8765840" lon="99.7022410">
    <ele>62.7</ele>
    <time>2018-01-27T08:56:09Z</time>
   </trkpt>
   <trkpt lat="12.8765540" lon="99.7022610">
    <ele>63.0</ele>
    <time>2018-01-27T08:56:10Z</time>
   </trkpt>
   <trkpt lat="12.8765180" lon="99.7022800">
    <ele>63.1</ele>
    <time>2018-01-27T08:56:11Z</time>
   </trkpt>
   <trkpt lat="12.8764840" lon="99.7022990">
    <ele>63.2</ele>
    <time>2018-01-27T08:56:12Z</time>
   </trkpt>
   <trkpt lat="12.8764390" lon="99.7023110">
    <ele>63.6</ele>
    <time>2018-01-27T08:56:13Z</time>
   </trkpt>
   <trkpt lat="12.8763890" lon="99.7023190">
    <ele>63.6</ele>
    <time>2018-01-27T08:56:14Z</time>
   </trkpt>
   <trkpt lat="12.8763550" lon="99.7023320">
    <ele>63.6</ele>
    <time>2018-01-27T08:56:15Z</time>
   </trkpt>
   <trkpt lat="12.8763190" lon="99.7023300">
    <ele>63.5</ele>
    <time>2018-01-27T08:56:16Z</time>
   </trkpt>
   <trkpt lat="12.8762860" lon="99.7023290">
    <ele>63.5</ele>
    <time>2018-01-27T08:56:17Z</time>
   </trkpt>
   <trkpt lat="12.8762570" lon="99.7023270">
    <ele>63.5</ele>
    <time>2018-01-27T08:56:18Z</time>
   </trkpt>
   <trkpt lat="12.8762290" lon="99.7023270">
    <ele>63.5</ele>
    <time>2018-01-27T08:56:19Z</time>
   </trkpt>
   <trkpt lat="12.8762010" lon="99.7023050">
    <ele>63.5</ele>
    <time>2018-01-27T08:56:22Z</time>
   </trkpt>
   <trkpt lat="12.8761740" lon="99.7022910">
    <ele>63.2</ele>
    <time>2018-01-27T08:56:25Z</time>
   </trkpt>
   <trkpt lat="12.8761410" lon="99.7022680">
    <ele>63.2</ele>
    <time>2018-01-27T08:56:28Z</time>
   </trkpt>
   <trkpt lat="12.8761620" lon="99.7023000">
    <ele>63.2</ele>
    <time>2018-01-27T08:58:31Z</time>
   </trkpt>
   <trkpt lat="12.8761710" lon="99.7023270">
    <ele>63.5</ele>
    <time>2018-01-27T08:58:33Z</time>
   </trkpt>
   <trkpt lat="12.8761930" lon="99.7023490">
    <ele>63.8</ele>
    <time>2018-01-27T08:58:39Z</time>
   </trkpt>
   <trkpt lat="12.8762280" lon="99.7023650">
    <ele>63.8</ele>
    <time>2018-01-27T08:58:42Z</time>
   </trkpt>
   <trkpt lat="12.8762270" lon="99.7024080">
    <ele>63.9</ele>
    <time>2018-01-27T08:58:48Z</time>
   </trkpt>
   <trkpt lat="12.8762150" lon="99.7024420">
    <ele>63.9</ele>
    <time>2018-01-27T08:58:49Z</time>
   </trkpt>
   <trkpt lat="12.8762030" lon="99.7024780">
    <ele>63.9</ele>
    <time>2018-01-27T08:58:50Z</time>
   </trkpt>
   <trkpt lat="12.8761900" lon="99.7025130">
    <ele>63.9</ele>
    <time>2018-01-27T08:58:51Z</time>
   </trkpt>
   <trkpt lat="12.8761760" lon="99.7025530">
    <ele>63.9</ele>
    <time>2018-01-27T08:58:52Z</time>
   </trkpt>
   <trkpt lat="12.8761610" lon="99.7025920">
    <ele>63.7</ele>
    <time>2018-01-27T08:58:53Z</time>
   </trkpt>
   <trkpt lat="12.8761460" lon="99.7026310">
    <ele>63.4</ele>
    <time>2018-01-27T08:58:54Z</time>
   </trkpt>
   <trkpt lat="12.8761280" lon="99.7026710">
    <ele>63.2</ele>
    <time>2018-01-27T08:58:55Z</time>
   </trkpt>
   <trkpt lat="12.8761090" lon="99.7027120">
    <ele>62.7</ele>
    <time>2018-01-27T08:58:56Z</time>
   </trkpt>
   <trkpt lat="12.8760740" lon="99.7027550">
    <ele>62.4</ele>
    <time>2018-01-27T08:58:57Z</time>
   </trkpt>
   <trkpt lat="12.8760510" lon="99.7027980">
    <ele>62.1</ele>
    <time>2018-01-27T08:58:58Z</time>
   </trkpt>
   <trkpt lat="12.8760320" lon="99.7028510">
    <ele>62.0</ele>
    <time>2018-01-27T08:58:59Z</time>
   </trkpt>
   <trkpt lat="12.8760050" lon="99.7028940">
    <ele>61.9</ele>
    <time>2018-01-27T08:59:00Z</time>
   </trkpt>
   <trkpt lat="12.8759810" lon="99.7029410">
    <ele>61.7</ele>
    <time>2018-01-27T08:59:01Z</time>
   </trkpt>
   <trkpt lat="12.8759570" lon="99.7029850">
    <ele>61.6</ele>
    <time>2018-01-27T08:59:02Z</time>
   </trkpt>
   <trkpt lat="12.8759330" lon="99.7030340">
    <ele>61.5</ele>
    <time>2018-01-27T08:59:03Z</time>
   </trkpt>
   <trkpt lat="12.8759150" lon="99.7030840">
    <ele>61.4</ele>
    <time>2018-01-27T08:59:04Z</time>
   </trkpt>
   <trkpt lat="12.8758950" lon="99.7031340">
    <ele>61.0</ele>
    <time>2018-01-27T08:59:05Z</time>
   </trkpt>
   <trkpt lat="12.8758930" lon="99.7031860">
    <ele>60.9</ele>
    <time>2018-01-27T08:59:06Z</time>
   </trkpt>
   <trkpt lat="12.8758850" lon="99.7032280">
    <ele>61.0</ele>
    <time>2018-01-27T08:59:07Z</time>
   </trkpt>
   <trkpt lat="12.8758780" lon="99.7032820">
    <ele>61.1</ele>
    <time>2018-01-27T08:59:08Z</time>
   </trkpt>
   <trkpt lat="12.8758810" lon="99.7033280">
    <ele>61.5</ele>
    <time>2018-01-27T08:59:09Z</time>
   </trkpt>
   <trkpt lat="12.8758930" lon="99.7033740">
    <ele>62.3</ele>
    <time>2018-01-27T08:59:10Z</time>
   </trkpt>
   <trkpt lat="12.8759190" lon="99.7034150">
    <ele>62.1</ele>
    <time>2018-01-27T08:59:11Z</time>
   </trkpt>
   <trkpt lat="12.8759450" lon="99.7034550">
    <ele>62.1</ele>
    <time>2018-01-27T08:59:12Z</time>
   </trkpt>
   <trkpt lat="12.8759780" lon="99.7034960">
    <ele>62.4</ele>
    <time>2018-01-27T08:59:13Z</time>
   </trkpt>
   <trkpt lat="12.8760120" lon="99.7035340">
    <ele>62.6</ele>
    <time>2018-01-27T08:59:14Z</time>
   </trkpt>
   <trkpt lat="12.8760400" lon="99.7035800">
    <ele>62.8</ele>
    <time>2018-01-27T08:59:15Z</time>
   </trkpt>
   <trkpt lat="12.8760680" lon="99.7036150">
    <ele>62.8</ele>
    <time>2018-01-27T08:59:16Z</time>
   </trkpt>
   <trkpt lat="12.8760920" lon="99.7036420">
    <ele>62.6</ele>
    <time>2018-01-27T08:59:17Z</time>
   </trkpt>
   <trkpt lat="12.8761160" lon="99.7036660">
    <ele>62.6</ele>
    <time>2018-01-27T08:59:18Z</time>
   </trkpt>
   <trkpt lat="12.8761450" lon="99.7036680">
    <ele>62.6</ele>
    <time>2018-01-27T08:59:19Z</time>
   </trkpt>
   <trkpt lat="12.8761730" lon="99.7036540">
    <ele>62.5</ele>
    <time>2018-01-27T08:59:21Z</time>
   </trkpt>
   <trkpt lat="12.8761970" lon="99.7036260">
    <ele>62.4</ele>
    <time>2018-01-27T08:59:22Z</time>
   </trkpt>
   <trkpt lat="12.8762300" lon="99.7035890">
    <ele>62.4</ele>
    <time>2018-01-27T08:59:23Z</time>
   </trkpt>
   <trkpt lat="12.8762590" lon="99.7035420">
    <ele>62.0</ele>
    <time>2018-01-27T08:59:24Z</time>
   </trkpt>
   <trkpt lat="12.8763210" lon="99.7034620">
    <ele>61.8</ele>
    <time>2018-01-27T08:59:25Z</time>
   </trkpt>
   <trkpt lat="12.8763520" lon="99.7034190">
    <ele>61.8</ele>
    <time>2018-01-27T08:59:26Z</time>
   </trkpt>
   <trkpt lat="12.8763790" lon="99.7033750">
    <ele>61.9</ele>
    <time>2018-01-27T08:59:27Z</time>
   </trkpt>
   <trkpt lat="12.8764120" lon="99.7033370">
    <ele>61.7</ele>
    <time>2018-01-27T08:59:28Z</time>
   </trkpt>
   <trkpt lat="12.8764510" lon="99.7033030">
    <ele>61.3</ele>
    <time>2018-01-27T08:59:29Z</time>
   </trkpt>
   <trkpt lat="12.8764880" lon="99.7032630">
    <ele>61.0</ele>
    <time>2018-01-27T08:59:30Z</time>
   </trkpt>
   <trkpt lat="12.8765210" lon="99.7032230">
    <ele>60.7</ele>
    <time>2018-01-27T08:59:31Z</time>
   </trkpt>
   <trkpt lat="12.8765530" lon="99.7031850">
    <ele>60.7</ele>
    <time>2018-01-27T08:59:32Z</time>
   </trkpt>
   <trkpt lat="12.8765810" lon="99.7031410">
    <ele>60.8</ele>
    <time>2018-01-27T08:59:33Z</time>
   </trkpt>
   <trkpt lat="12.8766040" lon="99.7030990">
    <ele>60.8</ele>
    <time>2018-01-27T08:59:34Z</time>
   </trkpt>
   <trkpt lat="12.8766310" lon="99.7030610">
    <ele>60.8</ele>
    <time>2018-01-27T08:59:35Z</time>
   </trkpt>
   <trkpt lat="12.8766570" lon="99.7030220">
    <ele>60.8</ele>
    <time>2018-01-27T08:59:36Z</time>
   </trkpt>
   <trkpt lat="12.8766850" lon="99.7029760">
    <ele>60.9</ele>
    <time>2018-01-27T08:59:37Z</time>
   </trkpt>
   <trkpt lat="12.8767150" lon="99.7029400">
    <ele>60.9</ele>
    <time>2018-01-27T08:59:38Z</time>
   </trkpt>
   <trkpt lat="12.8767470" lon="99.7029130">
    <ele>60.9</ele>
    <time>2018-01-27T08:59:39Z</time>
   </trkpt>
   <trkpt lat="12.8767840" lon="99.7028800">
    <ele>60.8</ele>
    <time>2018-01-27T08:59:40Z</time>
   </trkpt>
   <trkpt lat="12.8768190" lon="99.7028490">
    <ele>60.8</ele>
    <time>2018-01-27T08:59:41Z</time>
   </trkpt>
   <trkpt lat="12.8768570" lon="99.7028240">
    <ele>60.8</ele>
    <time>2018-01-27T08:59:42Z</time>
   </trkpt>
   <trkpt lat="12.8768970" lon="99.7028040">
    <ele>60.7</ele>
    <time>2018-01-27T08:59:43Z</time>
   </trkpt>
   <trkpt lat="12.8769320" lon="99.7027840">
    <ele>60.7</ele>
    <time>2018-01-27T08:59:44Z</time>
   </trkpt>
   <trkpt lat="12.8769730" lon="99.7027640">
    <ele>60.7</ele>
    <time>2018-01-27T08:59:45Z</time>
   </trkpt>
   <trkpt lat="12.8770080" lon="99.7027420">
    <ele>60.7</ele>
    <time>2018-01-27T08:59:46Z</time>
   </trkpt>
   <trkpt lat="12.8770510" lon="99.7027310">
    <ele>60.9</ele>
    <time>2018-01-27T08:59:47Z</time>
   </trkpt>
   <trkpt lat="12.8770890" lon="99.7027190">
    <ele>61.6</ele>
    <time>2018-01-27T08:59:48Z</time>
   </trkpt>
   <trkpt lat="12.8771250" lon="99.7027100">
    <ele>61.9</ele>
    <time>2018-01-27T08:59:49Z</time>
   </trkpt>
   <trkpt lat="12.8771690" lon="99.7026940">
    <ele>62.2</ele>
    <time>2018-01-27T08:59:50Z</time>
   </trkpt>
   <trkpt lat="12.8772060" lon="99.7026770">
    <ele>63.0</ele>
    <time>2018-01-27T08:59:51Z</time>
   </trkpt>
   <trkpt lat="12.8772440" lon="99.7026570">
    <ele>63.1</ele>
    <time>2018-01-27T08:59:52Z</time>
   </trkpt>
   <trkpt lat="12.8772770" lon="99.7026410">
    <ele>63.5</ele>
    <time>2018-01-27T08:59:53Z</time>
   </trkpt>
   <trkpt lat="12.8773090" lon="99.7026280">
    <ele>63.5</ele>
    <time>2018-01-27T08:59:54Z</time>
   </trkpt>
   <trkpt lat="12.8773430" lon="99.7026180">
    <ele>63.4</ele>
    <time>2018-01-27T08:59:55Z</time>
   </trkpt>
   <trkpt lat="12.8773760" lon="99.7026090">
    <ele>63.3</ele>
    <time>2018-01-27T08:59:56Z</time>
   </trkpt>
   <trkpt lat="12.8774050" lon="99.7026010">
    <ele>63.4</ele>
    <time>2018-01-27T08:59:57Z</time>
   </trkpt>
   <trkpt lat="12.8774320" lon="99.7025920">
    <ele>63.2</ele>
    <time>2018-01-27T08:59:58Z</time>
   </trkpt>
   <trkpt lat="12.8774610" lon="99.7025830">
    <ele>62.9</ele>
    <time>2018-01-27T08:59:59Z</time>
   </trkpt>
   <trkpt lat="12.8774930" lon="99.7025730">
    <ele>62.6</ele>
    <time>2018-01-27T09:00:00Z</time>
   </trkpt>
   <trkpt lat="12.8775240" lon="99.7025660">
    <ele>62.6</ele>
    <time>2018-01-27T09:00:01Z</time>
   </trkpt>
   <trkpt lat="12.8775530" lon="99.7025620">
    <ele>62.4</ele>
    <time>2018-01-27T09:00:02Z</time>
   </trkpt>
   <trkpt lat="12.8775820" lon="99.7025610">
    <ele>62.2</ele>
    <time>2018-01-27T09:00:03Z</time>
   </trkpt>
   <trkpt lat="12.8776330" lon="99.7025530">
    <ele>61.8</ele>
    <time>2018-01-27T09:00:05Z</time>
   </trkpt>
   <trkpt lat="12.8776850" lon="99.7025460">
    <ele>61.7</ele>
    <time>2018-01-27T09:00:07Z</time>
   </trkpt>
   <trkpt lat="12.8777360" lon="99.7025370">
    <ele>61.6</ele>
    <time>2018-01-27T09:00:09Z</time>
   </trkpt>
   <trkpt lat="12.8777650" lon="99.7025330">
    <ele>61.6</ele>
    <time>2018-01-27T09:00:10Z</time>
   </trkpt>
   <trkpt lat="12.8777940" lon="99.7025300">
    <ele>61.7</ele>
    <time>2018-01-27T09:00:11Z</time>
   </trkpt>
   <trkpt lat="12.8778230" lon="99.7025260">
    <ele>61.7</ele>
    <time>2018-01-27T09:00:12Z</time>
   </trkpt>
   <trkpt lat="12.8778530" lon="99.7025230">
    <ele>61.9</ele>
    <time>2018-01-27T09:00:13Z</time>
   </trkpt>
   <trkpt lat="12.8778850" lon="99.7025210">
    <ele>62.1</ele>
    <time>2018-01-27T09:00:14Z</time>
   </trkpt>
   <trkpt lat="12.8779350" lon="99.7025190">
    <ele>62.4</ele>
    <time>2018-01-27T09:00:16Z</time>
   </trkpt>
   <trkpt lat="12.8779630" lon="99.7025130">
    <ele>63.0</ele>
    <time>2018-01-27T09:00:17Z</time>
   </trkpt>
   <trkpt lat="12.8779930" lon="99.7025070">
    <ele>63.0</ele>
    <time>2018-01-27T09:00:18Z</time>
   </trkpt>
   <trkpt lat="12.8780200" lon="99.7025030">
    <ele>63.4</ele>
    <time>2018-01-27T09:00:19Z</time>
   </trkpt>
   <trkpt lat="12.8780550" lon="99.7025030">
    <ele>63.9</ele>
    <time>2018-01-27T09:00:21Z</time>
   </trkpt>
   <trkpt lat="12.8780840" lon="99.7025040">
    <ele>64.4</ele>
    <time>2018-01-27T09:00:22Z</time>
   </trkpt>
   <trkpt lat="12.8781300" lon="99.7025060">
    <ele>64.9</ele>
    <time>2018-01-27T09:00:24Z</time>
   </trkpt>
   <trkpt lat="12.8781780" lon="99.7025120">
    <ele>65.3</ele>
    <time>2018-01-27T09:00:26Z</time>
   </trkpt>
   <trkpt lat="12.8782290" lon="99.7025160">
    <ele>65.5</ele>
    <time>2018-01-27T09:00:28Z</time>
   </trkpt>
   <trkpt lat="12.8782770" lon="99.7025220">
    <ele>65.7</ele>
    <time>2018-01-27T09:00:30Z</time>
   </trkpt>
   <trkpt lat="12.8783310" lon="99.7025320">
    <ele>65.9</ele>
    <time>2018-01-27T09:00:32Z</time>
   </trkpt>
   <trkpt lat="12.8783600" lon="99.7025360">
    <ele>65.9</ele>
    <time>2018-01-27T09:00:33Z</time>
   </trkpt>
   <trkpt lat="12.8783870" lon="99.7025380">
    <ele>65.9</ele>
    <time>2018-01-27T09:00:34Z</time>
   </trkpt>
   <trkpt lat="12.8784140" lon="99.7025410">
    <ele>65.9</ele>
    <time>2018-01-27T09:00:35Z</time>
   </trkpt>
   <trkpt lat="12.8784450" lon="99.7025460">
    <ele>65.9</ele>
    <time>2018-01-27T09:00:36Z</time>
   </trkpt>
   <trkpt lat="12.8784790" lon="99.7025530">
    <ele>65.9</ele>
    <time>2018-01-27T09:00:37Z</time>
   </trkpt>
   <trkpt lat="12.8785120" lon="99.7025580">
    <ele>65.9</ele>
    <time>2018-01-27T09:00:38Z</time>
   </trkpt>
   <trkpt lat="12.8785430" lon="99.7025620">
    <ele>66.0</ele>
    <time>2018-01-27T09:00:39Z</time>
   </trkpt>
   <trkpt lat="12.8785780" lon="99.7025670">
    <ele>66.0</ele>
    <time>2018-01-27T09:00:40Z</time>
   </trkpt>
   <trkpt lat="12.8786100" lon="99.7025730">
    <ele>66.3</ele>
    <time>2018-01-27T09:00:41Z</time>
   </trkpt>
   <trkpt lat="12.8786400" lon="99.7025800">
    <ele>66.7</ele>
    <time>2018-01-27T09:00:42Z</time>
   </trkpt>
   <trkpt lat="12.8786670" lon="99.7025860">
    <ele>67.2</ele>
    <time>2018-01-27T09:00:43Z</time>
   </trkpt>
   <trkpt lat="12.8786960" lon="99.7025940">
    <ele>67.2</ele>
    <time>2018-01-27T09:00:44Z</time>
   </trkpt>
   <trkpt lat="12.8787280" lon="99.7026050">
    <ele>67.8</ele>
    <time>2018-01-27T09:00:45Z</time>
   </trkpt>
   <trkpt lat="12.8787580" lon="99.7026180">
    <ele>68.4</ele>
    <time>2018-01-27T09:00:46Z</time>
   </trkpt>
   <trkpt lat="12.8787910" lon="99.7026340">
    <ele>68.8</ele>
    <time>2018-01-27T09:00:47Z</time>
   </trkpt>
   <trkpt lat="12.8788220" lon="99.7026500">
    <ele>68.8</ele>
    <time>2018-01-27T09:00:48Z</time>
   </trkpt>
   <trkpt lat="12.8788510" lon="99.7026640">
    <ele>69.2</ele>
    <time>2018-01-27T09:00:49Z</time>
   </trkpt>
   <trkpt lat="12.8788780" lon="99.7026760">
    <ele>69.5</ele>
    <time>2018-01-27T09:00:50Z</time>
   </trkpt>
   <trkpt lat="12.8789070" lon="99.7026830">
    <ele>69.5</ele>
    <time>2018-01-27T09:00:51Z</time>
   </trkpt>
   <trkpt lat="12.8789390" lon="99.7026890">
    <ele>69.7</ele>
    <time>2018-01-27T09:00:52Z</time>
   </trkpt>
   <trkpt lat="12.8789730" lon="99.7026930">
    <ele>69.8</ele>
    <time>2018-01-27T09:00:53Z</time>
   </trkpt>
   <trkpt lat="12.8790240" lon="99.7027040">
    <ele>69.8</ele>
    <time>2018-01-27T09:00:54Z</time>
   </trkpt>
   <trkpt lat="12.8790520" lon="99.7027150">
    <ele>69.8</ele>
    <time>2018-01-27T09:00:55Z</time>
   </trkpt>
   <trkpt lat="12.8790800" lon="99.7027250">
    <ele>69.8</ele>
    <time>2018-01-27T09:00:56Z</time>
   </trkpt>
   <trkpt lat="12.8791070" lon="99.7027350">
    <ele>69.8</ele>
    <time>2018-01-27T09:00:57Z</time>
   </trkpt>
   <trkpt lat="12.8791320" lon="99.7027460">
    <ele>69.8</ele>
    <time>2018-01-27T09:00:58Z</time>
   </trkpt>
   <trkpt lat="12.8791590" lon="99.7027580">
    <ele>69.8</ele>
    <time>2018-01-27T09:00:59Z</time>
   </trkpt>
   <trkpt lat="12.8792030" lon="99.7027840">
    <ele>70.0</ele>
    <time>2018-01-27T09:01:01Z</time>
   </trkpt>
   <trkpt lat="12.8792360" lon="99.7028080">
    <ele>70.1</ele>
    <time>2018-01-27T09:01:03Z</time>
   </trkpt>
   <trkpt lat="12.8792670" lon="99.7028260">
    <ele>70.1</ele>
    <time>2018-01-27T09:01:05Z</time>
   </trkpt>
   <trkpt lat="12.8793160" lon="99.7028510">
    <ele>70.2</ele>
    <time>2018-01-27T09:01:07Z</time>
   </trkpt>
   <trkpt lat="12.8793470" lon="99.7028630">
    <ele>70.0</ele>
    <time>2018-01-27T09:01:08Z</time>
   </trkpt>
   <trkpt lat="12.8793820" lon="99.7028730">
    <ele>70.0</ele>
    <time>2018-01-27T09:01:09Z</time>
   </trkpt>
   <trkpt lat="12.8794780" lon="99.7029110">
    <ele>69.6</ele>
    <time>2018-01-27T09:01:10Z</time>
   </trkpt>
   <trkpt lat="12.8795110" lon="99.7029210">
    <ele>69.5</ele>
    <time>2018-01-27T09:01:11Z</time>
   </trkpt>
   <trkpt lat="12.8795430" lon="99.7029310">
    <ele>69.5</ele>
    <time>2018-01-27T09:01:12Z</time>
   </trkpt>
   <trkpt lat="12.8795770" lon="99.7029390">
    <ele>69.5</ele>
    <time>2018-01-27T09:01:13Z</time>
   </trkpt>
   <trkpt lat="12.8796070" lon="99.7029560">
    <ele>69.2</ele>
    <time>2018-01-27T09:01:14Z</time>
   </trkpt>
   <trkpt lat="12.8796380" lon="99.7029730">
    <ele>69.3</ele>
    <time>2018-01-27T09:01:15Z</time>
   </trkpt>
   <trkpt lat="12.8796880" lon="99.7029970">
    <ele>69.2</ele>
    <time>2018-01-27T09:01:17Z</time>
   </trkpt>
   <trkpt lat="12.8797360" lon="99.7030140">
    <ele>69.5</ele>
    <time>2018-01-27T09:01:19Z</time>
   </trkpt>
   <trkpt lat="12.8798180" lon="99.7030360">
    <ele>69.8</ele>
    <time>2018-01-27T09:01:20Z</time>
   </trkpt>
   <trkpt lat="12.8798550" lon="99.7030500">
    <ele>70.2</ele>
    <time>2018-01-27T09:01:21Z</time>
   </trkpt>
   <trkpt lat="12.8798890" lon="99.7030630">
    <ele>70.8</ele>
    <time>2018-01-27T09:01:22Z</time>
   </trkpt>
   <trkpt lat="12.8799250" lon="99.7030740">
    <ele>70.8</ele>
    <time>2018-01-27T09:01:23Z</time>
   </trkpt>
   <trkpt lat="12.8799590" lon="99.7030880">
    <ele>70.8</ele>
    <time>2018-01-27T09:01:24Z</time>
   </trkpt>
   <trkpt lat="12.8799950" lon="99.7031020">
    <ele>71.3</ele>
    <time>2018-01-27T09:01:25Z</time>
   </trkpt>
   <trkpt lat="12.8800300" lon="99.7031180">
    <ele>71.1</ele>
    <time>2018-01-27T09:01:26Z</time>
   </trkpt>
   <trkpt lat="12.8800620" lon="99.7031310">
    <ele>71.3</ele>
    <time>2018-01-27T09:01:27Z</time>
   </trkpt>
   <trkpt lat="12.8800950" lon="99.7031440">
    <ele>71.4</ele>
    <time>2018-01-27T09:01:28Z</time>
   </trkpt>
   <trkpt lat="12.8801250" lon="99.7031530">
    <ele>71.4</ele>
    <time>2018-01-27T09:01:29Z</time>
   </trkpt>
   <trkpt lat="12.8801580" lon="99.7031610">
    <ele>70.7</ele>
    <time>2018-01-27T09:01:30Z</time>
   </trkpt>
   <trkpt lat="12.8802190" lon="99.7031770">
    <ele>70.8</ele>
    <time>2018-01-27T09:01:31Z</time>
   </trkpt>
   <trkpt lat="12.8802600" lon="99.7031860">
    <ele>70.8</ele>
    <time>2018-01-27T09:01:32Z</time>
   </trkpt>
   <trkpt lat="12.8803020" lon="99.7031960">
    <ele>70.8</ele>
    <time>2018-01-27T09:01:33Z</time>
   </trkpt>
   <trkpt lat="12.8803420" lon="99.7032030">
    <ele>70.0</ele>
    <time>2018-01-27T09:01:34Z</time>
   </trkpt>
   <trkpt lat="12.8803810" lon="99.7032130">
    <ele>70.0</ele>
    <time>2018-01-27T09:01:35Z</time>
   </trkpt>
   <trkpt lat="12.8804200" lon="99.7032200">
    <ele>70.0</ele>
    <time>2018-01-27T09:01:36Z</time>
   </trkpt>
   <trkpt lat="12.8804480" lon="99.7032240">
    <ele>69.9</ele>
    <time>2018-01-27T09:01:37Z</time>
   </trkpt>
   <trkpt lat="12.8804880" lon="99.7032300">
    <ele>70.0</ele>
    <time>2018-01-27T09:01:39Z</time>
   </trkpt>
   <trkpt lat="12.8805170" lon="99.7032340">
    <ele>70.1</ele>
    <time>2018-01-27T09:01:41Z</time>
   </trkpt>
   <trkpt lat="12.8805600" lon="99.7032380">
    <ele>70.2</ele>
    <time>2018-01-27T09:01:43Z</time>
   </trkpt>
   <trkpt lat="12.8806030" lon="99.7032440">
    <ele>70.5</ele>
    <time>2018-01-27T09:01:45Z</time>
   </trkpt>
   <trkpt lat="12.8806500" lon="99.7032620">
    <ele>70.2</ele>
    <time>2018-01-27T09:01:47Z</time>
   </trkpt>
   <trkpt lat="12.8806950" lon="99.7032860">
    <ele>70.6</ele>
    <time>2018-01-27T09:01:49Z</time>
   </trkpt>
   <trkpt lat="12.8807460" lon="99.7033130">
    <ele>70.8</ele>
    <time>2018-01-27T09:01:51Z</time>
   </trkpt>
   <trkpt lat="12.8807770" lon="99.7033320">
    <ele>71.2</ele>
    <time>2018-01-27T09:01:52Z</time>
   </trkpt>
   <trkpt lat="12.8808090" lon="99.7033530">
    <ele>71.7</ele>
    <time>2018-01-27T09:01:53Z</time>
   </trkpt>
   <trkpt lat="12.8808460" lon="99.7033760">
    <ele>72.0</ele>
    <time>2018-01-27T09:01:54Z</time>
   </trkpt>
   <trkpt lat="12.8808900" lon="99.7033960">
    <ele>72.3</ele>
    <time>2018-01-27T09:01:55Z</time>
   </trkpt>
   <trkpt lat="12.8809360" lon="99.7034120">
    <ele>72.5</ele>
    <time>2018-01-27T09:01:56Z</time>
   </trkpt>
   <trkpt lat="12.8809820" lon="99.7034260">
    <ele>72.6</ele>
    <time>2018-01-27T09:01:57Z</time>
   </trkpt>
   <trkpt lat="12.8810310" lon="99.7034400">
    <ele>73.0</ele>
    <time>2018-01-27T09:01:58Z</time>
   </trkpt>
   <trkpt lat="12.8810870" lon="99.7034550">
    <ele>73.4</ele>
    <time>2018-01-27T09:01:59Z</time>
   </trkpt>
   <trkpt lat="12.8811420" lon="99.7034690">
    <ele>73.9</ele>
    <time>2018-01-27T09:02:00Z</time>
   </trkpt>
   <trkpt lat="12.8811990" lon="99.7034840">
    <ele>74.1</ele>
    <time>2018-01-27T09:02:01Z</time>
   </trkpt>
   <trkpt lat="12.8812550" lon="99.7035000">
    <ele>74.2</ele>
    <time>2018-01-27T09:02:02Z</time>
   </trkpt>
   <trkpt lat="12.8813080" lon="99.7035170">
    <ele>73.7</ele>
    <time>2018-01-27T09:02:03Z</time>
   </trkpt>
   <trkpt lat="12.8813650" lon="99.7035360">
    <ele>73.8</ele>
    <time>2018-01-27T09:02:04Z</time>
   </trkpt>
   <trkpt lat="12.8814200" lon="99.7035560">
    <ele>73.1</ele>
    <time>2018-01-27T09:02:05Z</time>
   </trkpt>
   <trkpt lat="12.8814940" lon="99.7035840">
    <ele>73.1</ele>
    <time>2018-01-27T09:02:06Z</time>
   </trkpt>
   <trkpt lat="12.8815490" lon="99.7035970">
    <ele>72.3</ele>
    <time>2018-01-27T09:02:07Z</time>
   </trkpt>
   <trkpt lat="12.8815990" lon="99.7036170">
    <ele>72.4</ele>
    <time>2018-01-27T09:02:08Z</time>
   </trkpt>
   <trkpt lat="12.8816550" lon="99.7036350">
    <ele>71.8</ele>
    <time>2018-01-27T09:02:09Z</time>
   </trkpt>
   <trkpt lat="12.8817060" lon="99.7036590">
    <ele>71.7</ele>
    <time>2018-01-27T09:02:10Z</time>
   </trkpt>
   <trkpt lat="12.8817610" lon="99.7036800">
    <ele>70.8</ele>
    <time>2018-01-27T09:02:11Z</time>
   </trkpt>
   <trkpt lat="12.8818110" lon="99.7036980">
    <ele>70.5</ele>
    <time>2018-01-27T09:02:12Z</time>
   </trkpt>
   <trkpt lat="12.8818630" lon="99.7037120">
    <ele>70.2</ele>
    <time>2018-01-27T09:02:13Z</time>
   </trkpt>
   <trkpt lat="12.8819160" lon="99.7037280">
    <ele>69.3</ele>
    <time>2018-01-27T09:02:14Z</time>
   </trkpt>
   <trkpt lat="12.8819680" lon="99.7037420">
    <ele>68.8</ele>
    <time>2018-01-27T09:02:15Z</time>
   </trkpt>
   <trkpt lat="12.8820170" lon="99.7037560">
    <ele>67.7</ele>
    <time>2018-01-27T09:02:16Z</time>
   </trkpt>
   <trkpt lat="12.8820660" lon="99.7037700">
    <ele>66.6</ele>
    <time>2018-01-27T09:02:17Z</time>
   </trkpt>
   <trkpt lat="12.8821110" lon="99.7037890">
    <ele>66.1</ele>
    <time>2018-01-27T09:02:18Z</time>
   </trkpt>
   <trkpt lat="12.8821630" lon="99.7038050">
    <ele>65.3</ele>
    <time>2018-01-27T09:02:19Z</time>
   </trkpt>
   <trkpt lat="12.8822200" lon="99.7038230">
    <ele>64.8</ele>
    <time>2018-01-27T09:02:20Z</time>
   </trkpt>
   <trkpt lat="12.8822760" lon="99.7038350">
    <ele>64.8</ele>
    <time>2018-01-27T09:02:21Z</time>
   </trkpt>
   <trkpt lat="12.8823300" lon="99.7038520">
    <ele>64.3</ele>
    <time>2018-01-27T09:02:22Z</time>
   </trkpt>
   <trkpt lat="12.8823790" lon="99.7038690">
    <ele>64.4</ele>
    <time>2018-01-27T09:02:23Z</time>
   </trkpt>
   <trkpt lat="12.8824250" lon="99.7038760">
    <ele>64.5</ele>
    <time>2018-01-27T09:02:24Z</time>
   </trkpt>
   <trkpt lat="12.8824700" lon="99.7038590">
    <ele>64.8</ele>
    <time>2018-01-27T09:02:25Z</time>
   </trkpt>
   <trkpt lat="12.8825070" lon="99.7038440">
    <ele>65.3</ele>
    <time>2018-01-27T09:02:26Z</time>
   </trkpt>
   <trkpt lat="12.8825370" lon="99.7038280">
    <ele>65.5</ele>
    <time>2018-01-27T09:02:27Z</time>
   </trkpt>
   <trkpt lat="12.8825660" lon="99.7038130">
    <ele>65.7</ele>
    <time>2018-01-27T09:02:28Z</time>
   </trkpt>
   <trkpt lat="12.8825990" lon="99.7037920">
    <ele>65.8</ele>
    <time>2018-01-27T09:02:31Z</time>
   </trkpt>
   <trkpt lat="12.8826460" lon="99.7037740">
    <ele>65.9</ele>
    <time>2018-01-27T09:02:33Z</time>
   </trkpt>
   <trkpt lat="12.8826760" lon="99.7037720">
    <ele>65.9</ele>
    <time>2018-01-27T09:02:34Z</time>
   </trkpt>
   <trkpt lat="12.8827040" lon="99.7037740">
    <ele>65.9</ele>
    <time>2018-01-27T09:02:35Z</time>
   </trkpt>
   <trkpt lat="12.8827360" lon="99.7037800">
    <ele>65.8</ele>
    <time>2018-01-27T09:02:36Z</time>
   </trkpt>
   <trkpt lat="12.8827700" lon="99.7037870">
    <ele>65.8</ele>
    <time>2018-01-27T09:02:37Z</time>
   </trkpt>
   <trkpt lat="12.8828160" lon="99.7038120">
    <ele>65.9</ele>
    <time>2018-01-27T09:02:39Z</time>
   </trkpt>
   <trkpt lat="12.8828280" lon="99.7038390">
    <ele>65.9</ele>
    <time>2018-01-27T09:02:40Z</time>
   </trkpt>
   <trkpt lat="12.8828300" lon="99.7038760">
    <ele>65.9</ele>
    <time>2018-01-27T09:02:41Z</time>
   </trkpt>
   <trkpt lat="12.8828190" lon="99.7039170">
    <ele>65.9</ele>
    <time>2018-01-27T09:02:42Z</time>
   </trkpt>
   <trkpt lat="12.8828000" lon="99.7039580">
    <ele>65.9</ele>
    <time>2018-01-27T09:02:43Z</time>
   </trkpt>
   <trkpt lat="12.8827760" lon="99.7039920">
    <ele>65.9</ele>
    <time>2018-01-27T09:02:44Z</time>
   </trkpt>
   <trkpt lat="12.8827510" lon="99.7040080">
    <ele>65.8</ele>
    <time>2018-01-27T09:02:45Z</time>
   </trkpt>
   <trkpt lat="12.8827210" lon="99.7040020">
    <ele>65.8</ele>
    <time>2018-01-27T09:02:47Z</time>
   </trkpt>
   <trkpt lat="12.8827440" lon="99.7039830">
    <ele>65.8</ele>
    <time>2018-01-27T09:03:03Z</time>
   </trkpt>
   <trkpt lat="12.8827660" lon="99.7040180">
    <ele>65.7</ele>
    <time>2018-01-27T09:03:06Z</time>
   </trkpt>
   <trkpt lat="12.8827770" lon="99.7040450">
    <ele>65.6</ele>
    <time>2018-01-27T09:03:07Z</time>
   </trkpt>
   <trkpt lat="12.8828000" lon="99.7040740">
    <ele>65.5</ele>
    <time>2018-01-27T09:03:08Z</time>
   </trkpt>
   <trkpt lat="12.8828370" lon="99.7040990">
    <ele>65.3</ele>
    <time>2018-01-27T09:03:09Z</time>
   </trkpt>
   <trkpt lat="12.8828810" lon="99.7041160">
    <ele>65.2</ele>
    <time>2018-01-27T09:03:10Z</time>
   </trkpt>
   <trkpt lat="12.8829300" lon="99.7041270">
    <ele>65.2</ele>
    <time>2018-01-27T09:03:11Z</time>
   </trkpt>
   <trkpt lat="12.8829870" lon="99.7041300">
    <ele>65.2</ele>
    <time>2018-01-27T09:03:12Z</time>
   </trkpt>
   <trkpt lat="12.8830400" lon="99.7041480">
    <ele>65.1</ele>
    <time>2018-01-27T09:03:13Z</time>
   </trkpt>
   <trkpt lat="12.8830870" lon="99.7041610">
    <ele>65.1</ele>
    <time>2018-01-27T09:03:14Z</time>
   </trkpt>
   <trkpt lat="12.8831390" lon="99.7041740">
    <ele>65.1</ele>
    <time>2018-01-27T09:03:15Z</time>
   </trkpt>
   <trkpt lat="12.8831880" lon="99.7041900">
    <ele>65.3</ele>
    <time>2018-01-27T09:03:16Z</time>
   </trkpt>
   <trkpt lat="12.8832380" lon="99.7042090">
    <ele>65.6</ele>
    <time>2018-01-27T09:03:17Z</time>
   </trkpt>
   <trkpt lat="12.8832880" lon="99.7042320">
    <ele>65.9</ele>
    <time>2018-01-27T09:03:18Z</time>
   </trkpt>
   <trkpt lat="12.8833430" lon="99.7042520">
    <ele>66.2</ele>
    <time>2018-01-27T09:03:19Z</time>
   </trkpt>
   <trkpt lat="12.8833950" lon="99.7042700">
    <ele>66.4</ele>
    <time>2018-01-27T09:03:20Z</time>
   </trkpt>
   <trkpt lat="12.8834490" lon="99.7042890">
    <ele>66.3</ele>
    <time>2018-01-27T09:03:21Z</time>
   </trkpt>
   <trkpt lat="12.8835000" lon="99.7043090">
    <ele>66.3</ele>
    <time>2018-01-27T09:03:22Z</time>
   </trkpt>
   <trkpt lat="12.8835490" lon="99.7043290">
    <ele>66.4</ele>
    <time>2018-01-27T09:03:23Z</time>
   </trkpt>
   <trkpt lat="12.8836000" lon="99.7043490">
    <ele>66.6</ele>
    <time>2018-01-27T09:03:24Z</time>
   </trkpt>
   <trkpt lat="12.8836500" lon="99.7043720">
    <ele>66.7</ele>
    <time>2018-01-27T09:03:25Z</time>
   </trkpt>
   <trkpt lat="12.8837060" lon="99.7043960">
    <ele>66.7</ele>
    <time>2018-01-27T09:03:26Z</time>
   </trkpt>
   <trkpt lat="12.8837610" lon="99.7044160">
    <ele>66.4</ele>
    <time>2018-01-27T09:03:27Z</time>
   </trkpt>
   <trkpt lat="12.8838080" lon="99.7044280">
    <ele>66.5</ele>
    <time>2018-01-27T09:03:28Z</time>
   </trkpt>
   <trkpt lat="12.8838640" lon="99.7044400">
    <ele>66.5</ele>
    <time>2018-01-27T09:03:29Z</time>
   </trkpt>
   <trkpt lat="12.8839160" lon="99.7044520">
    <ele>66.4</ele>
    <time>2018-01-27T09:03:30Z</time>
   </trkpt>
   <trkpt lat="12.8839660" lon="99.7044680">
    <ele>66.4</ele>
    <time>2018-01-27T09:03:31Z</time>
   </trkpt>
   <trkpt lat="12.8840160" lon="99.7044840">
    <ele>66.4</ele>
    <time>2018-01-27T09:03:32Z</time>
   </trkpt>
   <trkpt lat="12.8840610" lon="99.7044950">
    <ele>66.4</ele>
    <time>2018-01-27T09:03:33Z</time>
   </trkpt>
   <trkpt lat="12.8841170" lon="99.7045200">
    <ele>66.5</ele>
    <time>2018-01-27T09:03:34Z</time>
   </trkpt>
   <trkpt lat="12.8841680" lon="99.7045350">
    <ele>66.5</ele>
    <time>2018-01-27T09:03:35Z</time>
   </trkpt>
   <trkpt lat="12.8842120" lon="99.7045520">
    <ele>66.4</ele>
    <time>2018-01-27T09:03:36Z</time>
   </trkpt>
   <trkpt lat="12.8842650" lon="99.7045660">
    <ele>66.2</ele>
    <time>2018-01-27T09:03:37Z</time>
   </trkpt>
   <trkpt lat="12.8843220" lon="99.7045760">
    <ele>65.6</ele>
    <time>2018-01-27T09:03:38Z</time>
   </trkpt>
   <trkpt lat="12.8843760" lon="99.7045840">
    <ele>65.4</ele>
    <time>2018-01-27T09:03:39Z</time>
   </trkpt>
   <trkpt lat="12.8844270" lon="99.7045900">
    <ele>65.1</ele>
    <time>2018-01-27T09:03:40Z</time>
   </trkpt>
   <trkpt lat="12.8844780" lon="99.7046010">
    <ele>64.8</ele>
    <time>2018-01-27T09:03:41Z</time>
   </trkpt>
   <trkpt lat="12.8845310" lon="99.7046130">
    <ele>64.3</ele>
    <time>2018-01-27T09:03:42Z</time>
   </trkpt>
   <trkpt lat="12.8845820" lon="99.7046250">
    <ele>64.4</ele>
    <time>2018-01-27T09:03:43Z</time>
   </trkpt>
   <trkpt lat="12.8846290" lon="99.7046340">
    <ele>64.2</ele>
    <time>2018-01-27T09:03:44Z</time>
   </trkpt>
   <trkpt lat="12.8846760" lon="99.7046500">
    <ele>64.0</ele>
    <time>2018-01-27T09:03:45Z</time>
   </trkpt>
   <trkpt lat="12.8847240" lon="99.7046640">
    <ele>64.1</ele>
    <time>2018-01-27T09:03:46Z</time>
   </trkpt>
   <trkpt lat="12.8847710" lon="99.7046860">
    <ele>63.9</ele>
    <time>2018-01-27T09:03:47Z</time>
   </trkpt>
   <trkpt lat="12.8848150" lon="99.7047030">
    <ele>63.6</ele>
    <time>2018-01-27T09:03:48Z</time>
   </trkpt>
   <trkpt lat="12.8848680" lon="99.7047240">
    <ele>64.3</ele>
    <time>2018-01-27T09:03:49Z</time>
   </trkpt>
   <trkpt lat="12.8849090" lon="99.7047410">
    <ele>64.4</ele>
    <time>2018-01-27T09:03:50Z</time>
   </trkpt>
   <trkpt lat="12.8849620" lon="99.7047570">
    <ele>65.2</ele>
    <time>2018-01-27T09:03:51Z</time>
   </trkpt>
   <trkpt lat="12.8850080" lon="99.7047730">
    <ele>65.2</ele>
    <time>2018-01-27T09:03:52Z</time>
   </trkpt>
   <trkpt lat="12.8850560" lon="99.7047880">
    <ele>65.3</ele>
    <time>2018-01-27T09:03:53Z</time>
   </trkpt>
   <trkpt lat="12.8851030" lon="99.7048070">
    <ele>66.3</ele>
    <time>2018-01-27T09:03:54Z</time>
   </trkpt>
   <trkpt lat="12.8851540" lon="99.7048200">
    <ele>66.8</ele>
    <time>2018-01-27T09:03:55Z</time>
   </trkpt>
   <trkpt lat="12.8851990" lon="99.7048300">
    <ele>67.2</ele>
    <time>2018-01-27T09:03:56Z</time>
   </trkpt>
   <trkpt lat="12.8852480" lon="99.7048370">
    <ele>68.4</ele>
    <time>2018-01-27T09:03:57Z</time>
   </trkpt>
   <trkpt lat="12.8852990" lon="99.7048490">
    <ele>68.9</ele>
    <time>2018-01-27T09:03:58Z</time>
   </trkpt>
   <trkpt lat="12.8853490" lon="99.7048610">
    <ele>69.4</ele>
    <time>2018-01-27T09:03:59Z</time>
   </trkpt>
   <trkpt lat="12.8853860" lon="99.7048720">
    <ele>69.7</ele>
    <time>2018-01-27T09:04:00Z</time>
   </trkpt>
   <trkpt lat="12.8854280" lon="99.7048850">
    <ele>70.3</ele>
    <time>2018-01-27T09:04:01Z</time>
   </trkpt>
   <trkpt lat="12.8854800" lon="99.7048990">
    <ele>70.3</ele>
    <time>2018-01-27T09:04:02Z</time>
   </trkpt>
   <trkpt lat="12.8855220" lon="99.7049140">
    <ele>70.2</ele>
    <time>2018-01-27T09:04:03Z</time>
   </trkpt>
   <trkpt lat="12.8855650" lon="99.7049340">
    <ele>70.5</ele>
    <time>2018-01-27T09:04:04Z</time>
   </trkpt>
   <trkpt lat="12.8856120" lon="99.7049490">
    <ele>70.0</ele>
    <time>2018-01-27T09:04:05Z</time>
   </trkpt>
   <trkpt lat="12.8856570" lon="99.7049700">
    <ele>70.1</ele>
    <time>2018-01-27T09:04:06Z</time>
   </trkpt>
   <trkpt lat="12.8857010" lon="99.7049870">
    <ele>69.9</ele>
    <time>2018-01-27T09:04:07Z</time>
   </trkpt>
   <trkpt lat="12.8857380" lon="99.7050040">
    <ele>69.7</ele>
    <time>2018-01-27T09:04:08Z</time>
   </trkpt>
   <trkpt lat="12.8857830" lon="99.7050180">
    <ele>69.7</ele>
    <time>2018-01-27T09:04:09Z</time>
   </trkpt>
   <trkpt lat="12.8858200" lon="99.7050400">
    <ele>69.5</ele>
    <time>2018-01-27T09:04:10Z</time>
   </trkpt>
   <trkpt lat="12.8858590" lon="99.7050660">
    <ele>69.7</ele>
    <time>2018-01-27T09:04:11Z</time>
   </trkpt>
   <trkpt lat="12.8858930" lon="99.7050850">
    <ele>69.4</ele>
    <time>2018-01-27T09:04:12Z</time>
   </trkpt>
   <trkpt lat="12.8859210" lon="99.7051070">
    <ele>69.3</ele>
    <time>2018-01-27T09:04:13Z</time>
   </trkpt>
   <trkpt lat="12.8859570" lon="99.7051250">
    <ele>69.0</ele>
    <time>2018-01-27T09:04:14Z</time>
   </trkpt>
   <trkpt lat="12.8859970" lon="99.7051510">
    <ele>69.2</ele>
    <time>2018-01-27T09:04:15Z</time>
   </trkpt>
   <trkpt lat="12.8860310" lon="99.7051680">
    <ele>69.1</ele>
    <time>2018-01-27T09:04:16Z</time>
   </trkpt>
   <trkpt lat="12.8860650" lon="99.7051870">
    <ele>69.5</ele>
    <time>2018-01-27T09:04:17Z</time>
   </trkpt>
   <trkpt lat="12.8860980" lon="99.7052060">
    <ele>69.4</ele>
    <time>2018-01-27T09:04:18Z</time>
   </trkpt>
   <trkpt lat="12.8861320" lon="99.7052260">
    <ele>69.6</ele>
    <time>2018-01-27T09:04:19Z</time>
   </trkpt>
   <trkpt lat="12.8861660" lon="99.7052500">
    <ele>69.6</ele>
    <time>2018-01-27T09:04:20Z</time>
   </trkpt>
   <trkpt lat="12.8862010" lon="99.7052750">
    <ele>69.8</ele>
    <time>2018-01-27T09:04:21Z</time>
   </trkpt>
   <trkpt lat="12.8862370" lon="99.7052980">
    <ele>70.2</ele>
    <time>2018-01-27T09:04:22Z</time>
   </trkpt>
   <trkpt lat="12.8862740" lon="99.7053180">
    <ele>70.5</ele>
    <time>2018-01-27T09:04:23Z</time>
   </trkpt>
   <trkpt lat="12.8863210" lon="99.7053270">
    <ele>71.6</ele>
    <time>2018-01-27T09:04:24Z</time>
   </trkpt>
   <trkpt lat="12.8863620" lon="99.7053420">
    <ele>72.2</ele>
    <time>2018-01-27T09:04:25Z</time>
   </trkpt>
   <trkpt lat="12.8864040" lon="99.7053550">
    <ele>72.7</ele>
    <time>2018-01-27T09:04:26Z</time>
   </trkpt>
   <trkpt lat="12.8864470" lon="99.7053660">
    <ele>72.9</ele>
    <time>2018-01-27T09:04:27Z</time>
   </trkpt>
   <trkpt lat="12.8864880" lon="99.7053780">
    <ele>73.0</ele>
    <time>2018-01-27T09:04:28Z</time>
   </trkpt>
   <trkpt lat="12.8865320" lon="99.7053870">
    <ele>73.0</ele>
    <time>2018-01-27T09:04:29Z</time>
   </trkpt>
   <trkpt lat="12.8865670" lon="99.7054020">
    <ele>72.9</ele>
    <time>2018-01-27T09:04:30Z</time>
   </trkpt>
   <trkpt lat="12.8866080" lon="99.7054180">
    <ele>72.8</ele>
    <time>2018-01-27T09:04:31Z</time>
   </trkpt>
   <trkpt lat="12.8866570" lon="99.7054360">
    <ele>72.2</ele>
    <time>2018-01-27T09:04:33Z</time>
   </trkpt>
   <trkpt lat="12.8866940" lon="99.7054500">
    <ele>72.3</ele>
    <time>2018-01-27T09:04:34Z</time>
   </trkpt>
   <trkpt lat="12.8867240" lon="99.7054610">
    <ele>72.1</ele>
    <time>2018-01-27T09:04:35Z</time>
   </trkpt>
   <trkpt lat="12.8867540" lon="99.7054710">
    <ele>72.0</ele>
    <time>2018-01-27T09:04:36Z</time>
   </trkpt>
   <trkpt lat="12.8867850" lon="99.7054800">
    <ele>71.8</ele>
    <time>2018-01-27T09:04:37Z</time>
   </trkpt>
   <trkpt lat="12.8868160" lon="99.7054900">
    <ele>71.8</ele>
    <time>2018-01-27T09:04:38Z</time>
   </trkpt>
   <trkpt lat="12.8868480" lon="99.7055000">
    <ele>72.0</ele>
    <time>2018-01-27T09:04:39Z</time>
   </trkpt>
   <trkpt lat="12.8868790" lon="99.7055090">
    <ele>72.1</ele>
    <time>2018-01-27T09:04:40Z</time>
   </trkpt>
   <trkpt lat="12.8869100" lon="99.7055190">
    <ele>72.4</ele>
    <time>2018-01-27T09:04:41Z</time>
   </trkpt>
   <trkpt lat="12.8871020" lon="99.7055860">
    <ele>73.0</ele>
    <time>2018-01-27T09:04:44Z</time>
   </trkpt>
   <trkpt lat="12.8871390" lon="99.7055970">
    <ele>73.5</ele>
    <time>2018-01-27T09:04:45Z</time>
   </trkpt>
   <trkpt lat="12.8871800" lon="99.7056080">
    <ele>74.0</ele>
    <time>2018-01-27T09:04:46Z</time>
   </trkpt>
   <trkpt lat="12.8872150" lon="99.7056230">
    <ele>74.4</ele>
    <time>2018-01-27T09:04:47Z</time>
   </trkpt>
   <trkpt lat="12.8872490" lon="99.7056390">
    <ele>74.7</ele>
    <time>2018-01-27T09:04:48Z</time>
   </trkpt>
   <trkpt lat="12.8872840" lon="99.7056520">
    <ele>75.0</ele>
    <time>2018-01-27T09:04:49Z</time>
   </trkpt>
   <trkpt lat="12.8873220" lon="99.7056660">
    <ele>75.0</ele>
    <time>2018-01-27T09:04:50Z</time>
   </trkpt>
   <trkpt lat="12.8873600" lon="99.7056780">
    <ele>75.1</ele>
    <time>2018-01-27T09:04:51Z</time>
   </trkpt>
   <trkpt lat="12.8873980" lon="99.7056930">
    <ele>75.4</ele>
    <time>2018-01-27T09:04:52Z</time>
   </trkpt>
   <trkpt lat="12.8874340" lon="99.7057080">
    <ele>75.5</ele>
    <time>2018-01-27T09:04:53Z</time>
   </trkpt>
   <trkpt lat="12.8874700" lon="99.7057220">
    <ele>75.7</ele>
    <time>2018-01-27T09:04:54Z</time>
   </trkpt>
   <trkpt lat="12.8875030" lon="99.7057370">
    <ele>75.6</ele>
    <time>2018-01-27T09:04:55Z</time>
   </trkpt>
   <trkpt lat="12.8875370" lon="99.7057530">
    <ele>75.7</ele>
    <time>2018-01-27T09:04:56Z</time>
   </trkpt>
   <trkpt lat="12.8875830" lon="99.7057750">
    <ele>75.8</ele>
    <time>2018-01-27T09:04:58Z</time>
   </trkpt>
   <trkpt lat="12.8876090" lon="99.7057860">
    <ele>75.4</ele>
    <time>2018-01-27T09:04:59Z</time>
   </trkpt>
   <trkpt lat="12.8876880" lon="99.7058260">
    <ele>75.0</ele>
    <time>2018-01-27T09:05:00Z</time>
   </trkpt>
   <trkpt lat="12.8877240" lon="99.7058410">
    <ele>75.0</ele>
    <time>2018-01-27T09:05:01Z</time>
   </trkpt>
   <trkpt lat="12.8877610" lon="99.7058600">
    <ele>74.9</ele>
    <time>2018-01-27T09:05:02Z</time>
   </trkpt>
   <trkpt lat="12.8877970" lon="99.7058770">
    <ele>74.5</ele>
    <time>2018-01-27T09:05:03Z</time>
   </trkpt>
   <trkpt lat="12.8878340" lon="99.7058920">
    <ele>74.6</ele>
    <time>2018-01-27T09:05:04Z</time>
   </trkpt>
   <trkpt lat="12.8878700" lon="99.7059070">
    <ele>74.5</ele>
    <time>2018-01-27T09:05:05Z</time>
   </trkpt>
   <trkpt lat="12.8879170" lon="99.7059300">
    <ele>74.8</ele>
    <time>2018-01-27T09:05:07Z</time>
   </trkpt>
   <trkpt lat="12.8879450" lon="99.7059440">
    <ele>74.9</ele>
    <time>2018-01-27T09:05:08Z</time>
   </trkpt>
   <trkpt lat="12.8880820" lon="99.7060070">
    <ele>75.4</ele>
    <time>2018-01-27T09:05:11Z</time>
   </trkpt>
   <trkpt lat="12.8881160" lon="99.7060270">
    <ele>75.4</ele>
    <time>2018-01-27T09:05:12Z</time>
   </trkpt>
   <trkpt lat="12.8881510" lon="99.7060450">
    <ele>75.1</ele>
    <time>2018-01-27T09:05:13Z</time>
   </trkpt>
   <trkpt lat="12.8881860" lon="99.7060620">
    <ele>74.9</ele>
    <time>2018-01-27T09:05:14Z</time>
   </trkpt>
   <trkpt lat="12.8882240" lon="99.7060810">
    <ele>74.3</ele>
    <time>2018-01-27T09:05:15Z</time>
   </trkpt>
   <trkpt lat="12.8882610" lon="99.7061030">
    <ele>74.1</ele>
    <time>2018-01-27T09:05:16Z</time>
   </trkpt>
   <trkpt lat="12.8882990" lon="99.7061240">
    <ele>73.6</ele>
    <time>2018-01-27T09:05:17Z</time>
   </trkpt>
   <trkpt lat="12.8883350" lon="99.7061450">
    <ele>73.4</ele>
    <time>2018-01-27T09:05:18Z</time>
   </trkpt>
   <trkpt lat="12.8883710" lon="99.7061660">
    <ele>73.3</ele>
    <time>2018-01-27T09:05:19Z</time>
   </trkpt>
   <trkpt lat="12.8884050" lon="99.7061880">
    <ele>73.3</ele>
    <time>2018-01-27T09:05:20Z</time>
   </trkpt>
   <trkpt lat="12.8884390" lon="99.7062110">
    <ele>73.4</ele>
    <time>2018-01-27T09:05:21Z</time>
   </trkpt>
   <trkpt lat="12.8884770" lon="99.7062420">
    <ele>73.3</ele>
    <time>2018-01-27T09:05:23Z</time>
   </trkpt>
   <trkpt lat="12.8885020" lon="99.7062650">
    <ele>73.3</ele>
    <time>2018-01-27T09:05:24Z</time>
   </trkpt>
   <trkpt lat="12.8885220" lon="99.7062840">
    <ele>73.3</ele>
    <time>2018-01-27T09:05:25Z</time>
   </trkpt>
   <trkpt lat="12.8885420" lon="99.7063040">
    <ele>73.2</ele>
    <time>2018-01-27T09:05:26Z</time>
   </trkpt>
   <trkpt lat="12.8886460" lon="99.7063740">
    <ele>73.1</ele>
    <time>2018-01-27T09:05:27Z</time>
   </trkpt>
   <trkpt lat="12.8886800" lon="99.7063960">
    <ele>73.3</ele>
    <time>2018-01-27T09:05:28Z</time>
   </trkpt>
   <trkpt lat="12.8887160" lon="99.7064170">
    <ele>73.6</ele>
    <time>2018-01-27T09:05:29Z</time>
   </trkpt>
   <trkpt lat="12.8887520" lon="99.7064340">
    <ele>74.1</ele>
    <time>2018-01-27T09:05:30Z</time>
   </trkpt>
   <trkpt lat="12.8887890" lon="99.7064530">
    <ele>74.8</ele>
    <time>2018-01-27T09:05:31Z</time>
   </trkpt>
   <trkpt lat="12.8888210" lon="99.7064740">
    <ele>74.6</ele>
    <time>2018-01-27T09:05:32Z</time>
   </trkpt>
   <trkpt lat="12.8888550" lon="99.7064990">
    <ele>75.4</ele>
    <time>2018-01-27T09:05:33Z</time>
   </trkpt>
   <trkpt lat="12.8888870" lon="99.7065240">
    <ele>75.9</ele>
    <time>2018-01-27T09:05:34Z</time>
   </trkpt>
   <trkpt lat="12.8889200" lon="99.7065480">
    <ele>76.7</ele>
    <time>2018-01-27T09:05:35Z</time>
   </trkpt>
   <trkpt lat="12.8889550" lon="99.7065700">
    <ele>76.5</ele>
    <time>2018-01-27T09:05:36Z</time>
   </trkpt>
   <trkpt lat="12.8889980" lon="99.7065980">
    <ele>77.7</ele>
    <time>2018-01-27T09:05:38Z</time>
   </trkpt>
   <trkpt lat="12.8890300" lon="99.7066210">
    <ele>77.7</ele>
    <time>2018-01-27T09:05:39Z</time>
   </trkpt>
   <trkpt lat="12.8890590" lon="99.7066440">
    <ele>78.0</ele>
    <time>2018-01-27T09:05:40Z</time>
   </trkpt>
   <trkpt lat="12.8890910" lon="99.7066670">
    <ele>78.4</ele>
    <time>2018-01-27T09:05:41Z</time>
   </trkpt>
   <trkpt lat="12.8891610" lon="99.7067170">
    <ele>78.2</ele>
    <time>2018-01-27T09:05:42Z</time>
   </trkpt>
   <trkpt lat="12.8891950" lon="99.7067440">
    <ele>78.1</ele>
    <time>2018-01-27T09:05:43Z</time>
   </trkpt>
   <trkpt lat="12.8892280" lon="99.7067690">
    <ele>78.0</ele>
    <time>2018-01-27T09:05:44Z</time>
   </trkpt>
   <trkpt lat="12.8892630" lon="99.7067930">
    <ele>77.9</ele>
    <time>2018-01-27T09:05:45Z</time>
   </trkpt>
   <trkpt lat="12.8892990" lon="99.7068180">
    <ele>77.7</ele>
    <time>2018-01-27T09:05:46Z</time>
   </trkpt>
   <trkpt lat="12.8893330" lon="99.7068420">
    <ele>77.7</ele>
    <time>2018-01-27T09:05:47Z</time>
   </trkpt>
   <trkpt lat="12.8893650" lon="99.7068670">
    <ele>77.6</ele>
    <time>2018-01-27T09:05:48Z</time>
   </trkpt>
   <trkpt lat="12.8893980" lon="99.7068920">
    <ele>77.7</ele>
    <time>2018-01-27T09:05:49Z</time>
   </trkpt>
   <trkpt lat="12.8894320" lon="99.7069150">
    <ele>78.0</ele>
    <time>2018-01-27T09:05:50Z</time>
   </trkpt>
   <trkpt lat="12.8894660" lon="99.7069380">
    <ele>78.1</ele>
    <time>2018-01-27T09:05:51Z</time>
   </trkpt>
   <trkpt lat="12.8895000" lon="99.7069620">
    <ele>78.2</ele>
    <time>2018-01-27T09:05:52Z</time>
   </trkpt>
   <trkpt lat="12.8895340" lon="99.7069880">
    <ele>77.9</ele>
    <time>2018-01-27T09:05:53Z</time>
   </trkpt>
   <trkpt lat="12.8895690" lon="99.7070140">
    <ele>77.7</ele>
    <time>2018-01-27T09:05:54Z</time>
   </trkpt>
   <trkpt lat="12.8896060" lon="99.7070390">
    <ele>77.0</ele>
    <time>2018-01-27T09:05:55Z</time>
   </trkpt>
   <trkpt lat="12.8896420" lon="99.7070650">
    <ele>76.5</ele>
    <time>2018-01-27T09:05:56Z</time>
   </trkpt>
   <trkpt lat="12.8896680" lon="99.7070820">
    <ele>76.3</ele>
    <time>2018-01-27T09:05:57Z</time>
   </trkpt>
   <trkpt lat="12.8896930" lon="99.7071010">
    <ele>76.3</ele>
    <time>2018-01-27T09:05:58Z</time>
   </trkpt>
   <trkpt lat="12.8897250" lon="99.7071240">
    <ele>75.9</ele>
    <time>2018-01-27T09:05:59Z</time>
   </trkpt>
   <trkpt lat="12.8897530" lon="99.7071450">
    <ele>76.0</ele>
    <time>2018-01-27T09:06:00Z</time>
   </trkpt>
   <trkpt lat="12.8898810" lon="99.7072490">
    <ele>75.6</ele>
    <time>2018-01-27T09:06:03Z</time>
   </trkpt>
   <trkpt lat="12.8899160" lon="99.7072760">
    <ele>75.6</ele>
    <time>2018-01-27T09:06:04Z</time>
   </trkpt>
   <trkpt lat="12.8899520" lon="99.7073040">
    <ele>76.0</ele>
    <time>2018-01-27T09:06:05Z</time>
   </trkpt>
   <trkpt lat="12.8899910" lon="99.7073280">
    <ele>76.4</ele>
    <time>2018-01-27T09:06:06Z</time>
   </trkpt>
   <trkpt lat="12.8900280" lon="99.7073530">
    <ele>76.7</ele>
    <time>2018-01-27T09:06:07Z</time>
   </trkpt>
   <trkpt lat="12.8900650" lon="99.7073770">
    <ele>76.9</ele>
    <time>2018-01-27T09:06:08Z</time>
   </trkpt>
   <trkpt lat="12.8900960" lon="99.7073980">
    <ele>76.9</ele>
    <time>2018-01-27T09:06:09Z</time>
   </trkpt>
   <trkpt lat="12.8901290" lon="99.7074210">
    <ele>76.7</ele>
    <time>2018-01-27T09:06:10Z</time>
   </trkpt>
   <trkpt lat="12.8901620" lon="99.7074460">
    <ele>76.8</ele>
    <time>2018-01-27T09:06:11Z</time>
   </trkpt>
   <trkpt lat="12.8901830" lon="99.7074700">
    <ele>76.7</ele>
    <time>2018-01-27T09:06:12Z</time>
   </trkpt>
   <trkpt lat="12.8902320" lon="99.7075130">
    <ele>76.8</ele>
    <time>2018-01-27T09:06:13Z</time>
   </trkpt>
   <trkpt lat="12.8902540" lon="99.7075530">
    <ele>77.1</ele>
    <time>2018-01-27T09:06:14Z</time>
   </trkpt>
   <trkpt lat="12.8902630" lon="99.7075940">
    <ele>77.4</ele>
    <time>2018-01-27T09:06:15Z</time>
   </trkpt>
   <trkpt lat="12.8902600" lon="99.7076330">
    <ele>77.7</ele>
    <time>2018-01-27T09:06:16Z</time>
   </trkpt>
   <trkpt lat="12.8902580" lon="99.7076670">
    <ele>77.9</ele>
    <time>2018-01-27T09:06:17Z</time>
   </trkpt>
   <trkpt lat="12.8902550" lon="99.7076970">
    <ele>77.9</ele>
    <time>2018-01-27T09:06:18Z</time>
   </trkpt>
   <trkpt lat="12.8902440" lon="99.7077260">
    <ele>78.0</ele>
    <time>2018-01-27T09:06:19Z</time>
   </trkpt>
   <trkpt lat="12.8902220" lon="99.7077570">
    <ele>78.0</ele>
    <time>2018-01-27T09:06:20Z</time>
   </trkpt>
   <trkpt lat="12.8902010" lon="99.7077900">
    <ele>78.0</ele>
    <time>2018-01-27T09:06:21Z</time>
   </trkpt>
   <trkpt lat="12.8901850" lon="99.7078240">
    <ele>78.0</ele>
    <time>2018-01-27T09:06:22Z</time>
   </trkpt>
   <trkpt lat="12.8901830" lon="99.7078590">
    <ele>77.9</ele>
    <time>2018-01-27T09:06:23Z</time>
   </trkpt>
   <trkpt lat="12.8901830" lon="99.7078970">
    <ele>78.0</ele>
    <time>2018-01-27T09:06:24Z</time>
   </trkpt>
   <trkpt lat="12.8901790" lon="99.7079380">
    <ele>78.1</ele>
    <time>2018-01-27T09:06:25Z</time>
   </trkpt>
   <trkpt lat="12.8901730" lon="99.7079770">
    <ele>78.1</ele>
    <time>2018-01-27T09:06:26Z</time>
   </trkpt>
   <trkpt lat="12.8901700" lon="99.7080160">
    <ele>78.1</ele>
    <time>2018-01-27T09:06:27Z</time>
   </trkpt>
   <trkpt lat="12.8901720" lon="99.7080550">
    <ele>77.9</ele>
    <time>2018-01-27T09:06:28Z</time>
   </trkpt>
   <trkpt lat="12.8901770" lon="99.7080820">
    <ele>77.9</ele>
    <time>2018-01-27T09:06:29Z</time>
   </trkpt>
   <trkpt lat="12.8901880" lon="99.7081150">
    <ele>77.5</ele>
    <time>2018-01-27T09:06:31Z</time>
   </trkpt>
   <trkpt lat="12.8902010" lon="99.7081530">
    <ele>76.9</ele>
    <time>2018-01-27T09:06:33Z</time>
   </trkpt>
   <trkpt lat="12.8902260" lon="99.7081990">
    <ele>76.2</ele>
    <time>2018-01-27T09:06:35Z</time>
   </trkpt>
   <trkpt lat="12.8902500" lon="99.7082130">
    <ele>76.2</ele>
    <time>2018-01-27T09:06:36Z</time>
   </trkpt>
   <trkpt lat="12.8902810" lon="99.7082230">
    <ele>76.1</ele>
    <time>2018-01-27T09:06:37Z</time>
   </trkpt>
   <trkpt lat="12.8903120" lon="99.7082320">
    <ele>75.7</ele>
    <time>2018-01-27T09:06:38Z</time>
   </trkpt>
   <trkpt lat="12.8903430" lon="99.7082460">
    <ele>75.8</ele>
    <time>2018-01-27T09:06:39Z</time>
   </trkpt>
   <trkpt lat="12.8903670" lon="99.7082680">
    <ele>75.6</ele>
    <time>2018-01-27T09:06:40Z</time>
   </trkpt>
   <trkpt lat="12.8903870" lon="99.7082970">
    <ele>75.8</ele>
    <time>2018-01-27T09:06:41Z</time>
   </trkpt>
   <trkpt lat="12.8904030" lon="99.7083310">
    <ele>75.5</ele>
    <time>2018-01-27T09:06:42Z</time>
   </trkpt>
   <trkpt lat="12.8904150" lon="99.7083640">
    <ele>75.3</ele>
    <time>2018-01-27T09:06:43Z</time>
   </trkpt>
   <trkpt lat="12.8904290" lon="99.7083910">
    <ele>75.6</ele>
    <time>2018-01-27T09:06:44Z</time>
   </trkpt>
   <trkpt lat="12.8904660" lon="99.7084230">
    <ele>75.6</ele>
    <time>2018-01-27T09:06:46Z</time>
   </trkpt>
   <trkpt lat="12.8905140" lon="99.7084410">
    <ele>75.6</ele>
    <time>2018-01-27T09:06:48Z</time>
   </trkpt>
   <trkpt lat="12.8905380" lon="99.7084540">
    <ele>75.6</ele>
    <time>2018-01-27T09:06:49Z</time>
   </trkpt>
   <trkpt lat="12.8905620" lon="99.7084680">
    <ele>75.9</ele>
    <time>2018-01-27T09:06:50Z</time>
   </trkpt>
   <trkpt lat="12.8905880" lon="99.7084840">
    <ele>75.9</ele>
    <time>2018-01-27T09:06:51Z</time>
   </trkpt>
   <trkpt lat="12.8906290" lon="99.7085150">
    <ele>76.2</ele>
    <time>2018-01-27T09:06:53Z</time>
   </trkpt>
   <trkpt lat="12.8906620" lon="99.7085580">
    <ele>75.9</ele>
    <time>2018-01-27T09:06:55Z</time>
   </trkpt>
   <trkpt lat="12.8906750" lon="99.7085860">
    <ele>76.0</ele>
    <time>2018-01-27T09:06:56Z</time>
   </trkpt>
   <trkpt lat="12.8906870" lon="99.7086140">
    <ele>76.1</ele>
    <time>2018-01-27T09:06:57Z</time>
   </trkpt>
   <trkpt lat="12.8906930" lon="99.7086440">
    <ele>76.1</ele>
    <time>2018-01-27T09:06:58Z</time>
   </trkpt>
   <trkpt lat="12.8906940" lon="99.7086750">
    <ele>76.1</ele>
    <time>2018-01-27T09:06:59Z</time>
   </trkpt>
   <trkpt lat="12.8906890" lon="99.7087140">
    <ele>76.2</ele>
    <time>2018-01-27T09:07:01Z</time>
   </trkpt>
   <trkpt lat="12.8906570" lon="99.7087420">
    <ele>75.9</ele>
    <time>2018-01-27T09:07:03Z</time>
   </trkpt>
   <trkpt lat="12.8906280" lon="99.7087550">
    <ele>75.7</ele>
    <time>2018-01-27T09:07:06Z</time>
   </trkpt>
   <trkpt lat="12.8906470" lon="99.7087940">
    <ele>75.7</ele>
    <time>2018-01-27T09:07:24Z</time>
   </trkpt>
   <trkpt lat="12.8906660" lon="99.7088170">
    <ele>75.7</ele>
    <time>2018-01-27T09:07:26Z</time>
   </trkpt>
   <trkpt lat="12.8906880" lon="99.7088370">
    <ele>75.6</ele>
    <time>2018-01-27T09:07:28Z</time>
   </trkpt>
   <trkpt lat="12.8907080" lon="99.7088720">
    <ele>75.4</ele>
    <time>2018-01-27T09:07:30Z</time>
   </trkpt>
   <trkpt lat="12.8907220" lon="99.7089140">
    <ele>75.3</ele>
    <time>2018-01-27T09:07:32Z</time>
   </trkpt>
   <trkpt lat="12.8907280" lon="99.7089460">
    <ele>75.3</ele>
    <time>2018-01-27T09:07:34Z</time>
   </trkpt>
   <trkpt lat="12.8907260" lon="99.7089810">
    <ele>75.2</ele>
    <time>2018-01-27T09:07:36Z</time>
   </trkpt>
   <trkpt lat="12.8907130" lon="99.7090290">
    <ele>75.2</ele>
    <time>2018-01-27T09:07:38Z</time>
   </trkpt>
   <trkpt lat="12.8907170" lon="99.7090850">
    <ele>75.1</ele>
    <time>2018-01-27T09:07:40Z</time>
   </trkpt>
   <trkpt lat="12.8907320" lon="99.7091110">
    <ele>75.1</ele>
    <time>2018-01-27T09:07:41Z</time>
   </trkpt>
   <trkpt lat="12.8907520" lon="99.7091320">
    <ele>75.1</ele>
    <time>2018-01-27T09:07:42Z</time>
   </trkpt>
   <trkpt lat="12.8907730" lon="99.7091520">
    <ele>74.7</ele>
    <time>2018-01-27T09:07:43Z</time>
   </trkpt>
   <trkpt lat="12.8908020" lon="99.7091860">
    <ele>74.4</ele>
    <time>2018-01-27T09:07:45Z</time>
   </trkpt>
   <trkpt lat="12.8908120" lon="99.7092450">
    <ele>74.5</ele>
    <time>2018-01-27T09:07:47Z</time>
   </trkpt>
   <trkpt lat="12.8908100" lon="99.7092730">
    <ele>74.8</ele>
    <time>2018-01-27T09:07:48Z</time>
   </trkpt>
   <trkpt lat="12.8908050" lon="99.7093300">
    <ele>75.1</ele>
    <time>2018-01-27T09:07:50Z</time>
   </trkpt>
   <trkpt lat="12.8908050" lon="99.7093600">
    <ele>75.4</ele>
    <time>2018-01-27T09:07:51Z</time>
   </trkpt>
   <trkpt lat="12.8908060" lon="99.7093890">
    <ele>75.7</ele>
    <time>2018-01-27T09:07:52Z</time>
   </trkpt>
   <trkpt lat="12.8908020" lon="99.7094180">
    <ele>75.7</ele>
    <time>2018-01-27T09:07:53Z</time>
   </trkpt>
   <trkpt lat="12.8907970" lon="99.7094460">
    <ele>75.9</ele>
    <time>2018-01-27T09:07:54Z</time>
   </trkpt>
   <trkpt lat="12.8907940" lon="99.7094750">
    <ele>76.3</ele>
    <time>2018-01-27T09:07:55Z</time>
   </trkpt>
   <trkpt lat="12.8907930" lon="99.7095040">
    <ele>76.3</ele>
    <time>2018-01-27T09:07:56Z</time>
   </trkpt>
   <trkpt lat="12.8908010" lon="99.7095430">
    <ele>76.0</ele>
    <time>2018-01-27T09:07:58Z</time>
   </trkpt>
   <trkpt lat="12.8908080" lon="99.7095820">
    <ele>76.0</ele>
    <time>2018-01-27T09:08:00Z</time>
   </trkpt>
   <trkpt lat="12.8908010" lon="99.7096230">
    <ele>76.1</ele>
    <time>2018-01-27T09:08:03Z</time>
   </trkpt>
   <trkpt lat="12.8907870" lon="99.7096660">
    <ele>76.7</ele>
    <time>2018-01-27T09:08:05Z</time>
   </trkpt>
   <trkpt lat="12.8907770" lon="99.7096930">
    <ele>76.8</ele>
    <time>2018-01-27T09:08:06Z</time>
   </trkpt>
   <trkpt lat="12.8907660" lon="99.7097240">
    <ele>76.8</ele>
    <time>2018-01-27T09:08:07Z</time>
   </trkpt>
   <trkpt lat="12.8907520" lon="99.7097550">
    <ele>77.3</ele>
    <time>2018-01-27T09:08:08Z</time>
   </trkpt>
   <trkpt lat="12.8907370" lon="99.7097830">
    <ele>77.3</ele>
    <time>2018-01-27T09:08:09Z</time>
   </trkpt>
   <trkpt lat="12.8907170" lon="99.7098080">
    <ele>77.4</ele>
    <time>2018-01-27T09:08:10Z</time>
   </trkpt>
   <trkpt lat="12.8906970" lon="99.7098340">
    <ele>77.6</ele>
    <time>2018-01-27T09:08:11Z</time>
   </trkpt>
   <trkpt lat="12.8906870" lon="99.7098640">
    <ele>77.6</ele>
    <time>2018-01-27T09:08:12Z</time>
   </trkpt>
   <trkpt lat="12.8906840" lon="99.7098940">
    <ele>77.6</ele>
    <time>2018-01-27T09:08:13Z</time>
   </trkpt>
   <trkpt lat="12.8906890" lon="99.7099260">
    <ele>77.6</ele>
    <time>2018-01-27T09:08:14Z</time>
   </trkpt>
   <trkpt lat="12.8906910" lon="99.7099540">
    <ele>77.6</ele>
    <time>2018-01-27T09:08:15Z</time>
   </trkpt>
   <trkpt lat="12.8906980" lon="99.7099820">
    <ele>77.6</ele>
    <time>2018-01-27T09:08:16Z</time>
   </trkpt>
   <trkpt lat="12.8907110" lon="99.7100140">
    <ele>77.6</ele>
    <time>2018-01-27T09:08:17Z</time>
   </trkpt>
   <trkpt lat="12.8907190" lon="99.7100400">
    <ele>77.7</ele>
    <time>2018-01-27T09:08:18Z</time>
   </trkpt>
   <trkpt lat="12.8907290" lon="99.7100720">
    <ele>77.7</ele>
    <time>2018-01-27T09:08:19Z</time>
   </trkpt>
   <trkpt lat="12.8907400" lon="99.7101040">
    <ele>77.7</ele>
    <time>2018-01-27T09:08:20Z</time>
   </trkpt>
   <trkpt lat="12.8907520" lon="99.7101370">
    <ele>77.7</ele>
    <time>2018-01-27T09:08:21Z</time>
   </trkpt>
   <trkpt lat="12.8907670" lon="99.7101680">
    <ele>77.7</ele>
    <time>2018-01-27T09:08:22Z</time>
   </trkpt>
   <trkpt lat="12.8907920" lon="99.7102140">
    <ele>77.7</ele>
    <time>2018-01-27T09:08:24Z</time>
   </trkpt>
   <trkpt lat="12.8908130" lon="99.7102390">
    <ele>77.6</ele>
    <time>2018-01-27T09:08:25Z</time>
   </trkpt>
   <trkpt lat="12.8908400" lon="99.7102660">
    <ele>77.6</ele>
    <time>2018-01-27T09:08:26Z</time>
   </trkpt>
   <trkpt lat="12.8908660" lon="99.7102940">
    <ele>77.7</ele>
    <time>2018-01-27T09:08:27Z</time>
   </trkpt>
   <trkpt lat="12.8908840" lon="99.7103190">
    <ele>77.8</ele>
    <time>2018-01-27T09:08:29Z</time>
   </trkpt>
   <trkpt lat="12.8908930" lon="99.7103480">
    <ele>78.0</ele>
    <time>2018-01-27T09:08:30Z</time>
   </trkpt>
   <trkpt lat="12.8909040" lon="99.7103860">
    <ele>78.3</ele>
    <time>2018-01-27T09:08:31Z</time>
   </trkpt>
   <trkpt lat="12.8909140" lon="99.7104170">
    <ele>78.7</ele>
    <time>2018-01-27T09:08:32Z</time>
   </trkpt>
   <trkpt lat="12.8909250" lon="99.7104450">
    <ele>78.9</ele>
    <time>2018-01-27T09:08:33Z</time>
   </trkpt>
   <trkpt lat="12.8909410" lon="99.7104710">
    <ele>79.2</ele>
    <time>2018-01-27T09:08:34Z</time>
   </trkpt>
   <trkpt lat="12.8909580" lon="99.7104950">
    <ele>79.3</ele>
    <time>2018-01-27T09:08:35Z</time>
   </trkpt>
   <trkpt lat="12.8909770" lon="99.7105190">
    <ele>79.8</ele>
    <time>2018-01-27T09:08:36Z</time>
   </trkpt>
   <trkpt lat="12.8909960" lon="99.7105450">
    <ele>80.1</ele>
    <time>2018-01-27T09:08:37Z</time>
   </trkpt>
   <trkpt lat="12.8910150" lon="99.7105720">
    <ele>80.4</ele>
    <time>2018-01-27T09:08:38Z</time>
   </trkpt>
   <trkpt lat="12.8910340" lon="99.7106030">
    <ele>80.6</ele>
    <time>2018-01-27T09:08:39Z</time>
   </trkpt>
   <trkpt lat="12.8910530" lon="99.7106340">
    <ele>80.9</ele>
    <time>2018-01-27T09:08:40Z</time>
   </trkpt>
   <trkpt lat="12.8910720" lon="99.7106670">
    <ele>80.9</ele>
    <time>2018-01-27T09:08:41Z</time>
   </trkpt>
   <trkpt lat="12.8910930" lon="99.7107040">
    <ele>80.9</ele>
    <time>2018-01-27T09:08:42Z</time>
   </trkpt>
   <trkpt lat="12.8911150" lon="99.7107420">
    <ele>80.9</ele>
    <time>2018-01-27T09:08:43Z</time>
   </trkpt>
   <trkpt lat="12.8911370" lon="99.7107810">
    <ele>80.8</ele>
    <time>2018-01-27T09:08:44Z</time>
   </trkpt>
   <trkpt lat="12.8911610" lon="99.7108220">
    <ele>80.8</ele>
    <time>2018-01-27T09:08:45Z</time>
   </trkpt>
   <trkpt lat="12.8911850" lon="99.7108640">
    <ele>80.9</ele>
    <time>2018-01-27T09:08:46Z</time>
   </trkpt>
   <trkpt lat="12.8912070" lon="99.7109020">
    <ele>80.9</ele>
    <time>2018-01-27T09:08:47Z</time>
   </trkpt>
   <trkpt lat="12.8912290" lon="99.7109440">
    <ele>80.9</ele>
    <time>2018-01-27T09:08:48Z</time>
   </trkpt>
   <trkpt lat="12.8912510" lon="99.7109850">
    <ele>80.9</ele>
    <time>2018-01-27T09:08:49Z</time>
   </trkpt>
   <trkpt lat="12.8912750" lon="99.7110250">
    <ele>80.9</ele>
    <time>2018-01-27T09:08:50Z</time>
   </trkpt>
   <trkpt lat="12.8913000" lon="99.7110620">
    <ele>80.8</ele>
    <time>2018-01-27T09:08:51Z</time>
   </trkpt>
   <trkpt lat="12.8913260" lon="99.7110990">
    <ele>80.9</ele>
    <time>2018-01-27T09:08:52Z</time>
   </trkpt>
   <trkpt lat="12.8913490" lon="99.7111360">
    <ele>80.9</ele>
    <time>2018-01-27T09:08:53Z</time>
   </trkpt>
   <trkpt lat="12.8913720" lon="99.7111760">
    <ele>81.0</ele>
    <time>2018-01-27T09:08:54Z</time>
   </trkpt>
   <trkpt lat="12.8913950" lon="99.7112160">
    <ele>81.3</ele>
    <time>2018-01-27T09:08:55Z</time>
   </trkpt>
   <trkpt lat="12.8914140" lon="99.7112550">
    <ele>81.6</ele>
    <time>2018-01-27T09:08:56Z</time>
   </trkpt>
   <trkpt lat="12.8914370" lon="99.7112890">
    <ele>82.0</ele>
    <time>2018-01-27T09:08:57Z</time>
   </trkpt>
   <trkpt lat="12.8914590" lon="99.7113130">
    <ele>82.0</ele>
    <time>2018-01-27T09:09:20Z</time>
   </trkpt>
   <trkpt lat="12.8914840" lon="99.7113410">
    <ele>82.2</ele>
    <time>2018-01-27T09:09:22Z</time>
   </trkpt>
   <trkpt lat="12.8915080" lon="99.7113760">
    <ele>82.2</ele>
    <time>2018-01-27T09:09:24Z</time>
   </trkpt>
   <trkpt lat="12.8915380" lon="99.7114200">
    <ele>82.3</ele>
    <time>2018-01-27T09:09:26Z</time>
   </trkpt>
   <trkpt lat="12.8915660" lon="99.7114640">
    <ele>81.9</ele>
    <time>2018-01-27T09:09:28Z</time>
   </trkpt>
   <trkpt lat="12.8915790" lon="99.7114900">
    <ele>81.8</ele>
    <time>2018-01-27T09:09:29Z</time>
   </trkpt>
   <trkpt lat="12.8916370" lon="99.7115760">
    <ele>80.6</ele>
    <time>2018-01-27T09:09:30Z</time>
   </trkpt>
   <trkpt lat="12.8916560" lon="99.7116050">
    <ele>80.6</ele>
    <time>2018-01-27T09:09:31Z</time>
   </trkpt>
   <trkpt lat="12.8916790" lon="99.7116400">
    <ele>80.2</ele>
    <time>2018-01-27T09:09:32Z</time>
   </trkpt>
   <trkpt lat="12.8917000" lon="99.7116730">
    <ele>80.2</ele>
    <time>2018-01-27T09:09:33Z</time>
   </trkpt>
   <trkpt lat="12.8917220" lon="99.7117050">
    <ele>79.7</ele>
    <time>2018-01-27T09:09:34Z</time>
   </trkpt>
   <trkpt lat="12.8917420" lon="99.7117330">
    <ele>79.7</ele>
    <time>2018-01-27T09:09:35Z</time>
   </trkpt>
   <trkpt lat="12.8917600" lon="99.7117560">
    <ele>79.4</ele>
    <time>2018-01-27T09:09:36Z</time>
   </trkpt>
   <trkpt lat="12.8917810" lon="99.7117790">
    <ele>79.4</ele>
    <time>2018-01-27T09:09:37Z</time>
   </trkpt>
   <trkpt lat="12.8918030" lon="99.7118020">
    <ele>79.2</ele>
    <time>2018-01-27T09:09:38Z</time>
   </trkpt>
   <trkpt lat="12.8918280" lon="99.7118260">
    <ele>79.2</ele>
    <time>2018-01-27T09:09:39Z</time>
   </trkpt>
   <trkpt lat="12.8918550" lon="99.7118520">
    <ele>79.1</ele>
    <time>2018-01-27T09:09:40Z</time>
   </trkpt>
   <trkpt lat="12.8918830" lon="99.7118820">
    <ele>78.9</ele>
    <time>2018-01-27T09:09:41Z</time>
   </trkpt>
   <trkpt lat="12.8919020" lon="99.7119130">
    <ele>78.9</ele>
    <time>2018-01-27T09:09:42Z</time>
   </trkpt>
   <trkpt lat="12.8919170" lon="99.7119480">
    <ele>78.5</ele>
    <time>2018-01-27T09:09:43Z</time>
   </trkpt>
   <trkpt lat="12.8919360" lon="99.7119750">
    <ele>78.2</ele>
    <time>2018-01-27T09:09:44Z</time>
   </trkpt>
   <trkpt lat="12.8919620" lon="99.7119950">
    <ele>78.2</ele>
    <time>2018-01-27T09:09:45Z</time>
   </trkpt>
   <trkpt lat="12.8919930" lon="99.7120090">
    <ele>78.0</ele>
    <time>2018-01-27T09:09:46Z</time>
   </trkpt>
   <trkpt lat="12.8920170" lon="99.7120210">
    <ele>78.0</ele>
    <time>2018-01-27T09:09:49Z</time>
   </trkpt>
   <trkpt lat="12.8920170" lon="99.7120560">
    <ele>77.7</ele>
    <time>2018-01-27T09:09:51Z</time>
   </trkpt>
   <trkpt lat="12.8920200" lon="99.7120870">
    <ele>77.5</ele>
    <time>2018-01-27T09:09:53Z</time>
   </trkpt>
   <trkpt lat="12.8920330" lon="99.7121200">
    <ele>77.5</ele>
    <time>2018-01-27T09:09:55Z</time>
   </trkpt>
   <trkpt lat="12.8920450" lon="99.7121460">
    <ele>77.3</ele>
    <time>2018-01-27T09:09:57Z</time>
   </trkpt>
   <trkpt lat="12.8920680" lon="99.7121720">
    <ele>77.2</ele>
    <time>2018-01-27T09:09:59Z</time>
   </trkpt>
   <trkpt lat="12.8920940" lon="99.7122120">
    <ele>77.1</ele>
    <time>2018-01-27T09:10:01Z</time>
   </trkpt>
   <trkpt lat="12.8921170" lon="99.7122470">
    <ele>77.2</ele>
    <time>2018-01-27T09:10:03Z</time>
   </trkpt>
   <trkpt lat="12.8921480" lon="99.7122870">
    <ele>77.3</ele>
    <time>2018-01-27T09:10:05Z</time>
   </trkpt>
   <trkpt lat="12.8921630" lon="99.7123110">
    <ele>77.5</ele>
    <time>2018-01-27T09:10:06Z</time>
   </trkpt>
   <trkpt lat="12.8921810" lon="99.7123520">
    <ele>77.5</ele>
    <time>2018-01-27T09:10:08Z</time>
   </trkpt>
   <trkpt lat="12.8922030" lon="99.7123980">
    <ele>77.8</ele>
    <time>2018-01-27T09:10:10Z</time>
   </trkpt>
   <trkpt lat="12.8922360" lon="99.7124260">
    <ele>77.6</ele>
    <time>2018-01-27T09:10:12Z</time>
   </trkpt>
   <trkpt lat="12.8922670" lon="99.7124580">
    <ele>77.9</ele>
    <time>2018-01-27T09:10:14Z</time>
   </trkpt>
   <trkpt lat="12.8922840" lon="99.7124900">
    <ele>78.2</ele>
    <time>2018-01-27T09:10:15Z</time>
   </trkpt>
   <trkpt lat="12.8923030" lon="99.7125250">
    <ele>78.4</ele>
    <time>2018-01-27T09:10:16Z</time>
   </trkpt>
   <trkpt lat="12.8923240" lon="99.7125560">
    <ele>78.4</ele>
    <time>2018-01-27T09:10:17Z</time>
   </trkpt>
   <trkpt lat="12.8923470" lon="99.7125870">
    <ele>78.5</ele>
    <time>2018-01-27T09:10:18Z</time>
   </trkpt>
   <trkpt lat="12.8923680" lon="99.7126190">
    <ele>78.4</ele>
    <time>2018-01-27T09:10:19Z</time>
   </trkpt>
   <trkpt lat="12.8923840" lon="99.7126530">
    <ele>78.4</ele>
    <time>2018-01-27T09:10:20Z</time>
   </trkpt>
   <trkpt lat="12.8923970" lon="99.7126860">
    <ele>78.4</ele>
    <time>2018-01-27T09:10:21Z</time>
   </trkpt>
   <trkpt lat="12.8924190" lon="99.7127330">
    <ele>78.3</ele>
    <time>2018-01-27T09:10:22Z</time>
   </trkpt>
   <trkpt lat="12.8924440" lon="99.7127620">
    <ele>78.3</ele>
    <time>2018-01-27T09:10:23Z</time>
   </trkpt>
   <trkpt lat="12.8924690" lon="99.7127900">
    <ele>78.3</ele>
    <time>2018-01-27T09:10:24Z</time>
   </trkpt>
   <trkpt lat="12.8924990" lon="99.7128140">
    <ele>78.3</ele>
    <time>2018-01-27T09:10:25Z</time>
   </trkpt>
   <trkpt lat="12.8925310" lon="99.7128440">
    <ele>78.3</ele>
    <time>2018-01-27T09:10:27Z</time>
   </trkpt>
   <trkpt lat="12.8925520" lon="99.7128690">
    <ele>78.5</ele>
    <time>2018-01-27T09:10:28Z</time>
   </trkpt>
   <trkpt lat="12.8925690" lon="99.7128910">
    <ele>78.7</ele>
    <time>2018-01-27T09:10:29Z</time>
   </trkpt>
   <trkpt lat="12.8925990" lon="99.7129420">
    <ele>79.2</ele>
    <time>2018-01-27T09:10:31Z</time>
   </trkpt>
   <trkpt lat="12.8926250" lon="99.7129840">
    <ele>79.5</ele>
    <time>2018-01-27T09:10:33Z</time>
   </trkpt>
   <trkpt lat="12.8926500" lon="99.7130120">
    <ele>80.0</ele>
    <time>2018-01-27T09:10:35Z</time>
   </trkpt>
   <trkpt lat="12.8926870" lon="99.7130440">
    <ele>80.4</ele>
    <time>2018-01-27T09:10:37Z</time>
   </trkpt>
   <trkpt lat="12.8927060" lon="99.7130650">
    <ele>80.5</ele>
    <time>2018-01-27T09:10:38Z</time>
   </trkpt>
   <trkpt lat="12.8927390" lon="99.7131180">
    <ele>80.7</ele>
    <time>2018-01-27T09:10:40Z</time>
   </trkpt>
   <trkpt lat="12.8927590" lon="99.7131490">
    <ele>80.7</ele>
    <time>2018-01-27T09:10:41Z</time>
   </trkpt>
   <trkpt lat="12.8927820" lon="99.7131780">
    <ele>80.5</ele>
    <time>2018-01-27T09:10:42Z</time>
   </trkpt>
   <trkpt lat="12.8928070" lon="99.7132100">
    <ele>79.9</ele>
    <time>2018-01-27T09:10:43Z</time>
   </trkpt>
   <trkpt lat="12.8928290" lon="99.7132420">
    <ele>80.0</ele>
    <time>2018-01-27T09:10:44Z</time>
   </trkpt>
   <trkpt lat="12.8928490" lon="99.7132750">
    <ele>79.2</ele>
    <time>2018-01-27T09:10:45Z</time>
   </trkpt>
   <trkpt lat="12.8928690" lon="99.7133070">
    <ele>78.9</ele>
    <time>2018-01-27T09:10:46Z</time>
   </trkpt>
   <trkpt lat="12.8928940" lon="99.7133410">
    <ele>78.5</ele>
    <time>2018-01-27T09:10:47Z</time>
   </trkpt>
   <trkpt lat="12.8929230" lon="99.7133730">
    <ele>78.5</ele>
    <time>2018-01-27T09:10:48Z</time>
   </trkpt>
   <trkpt lat="12.8929550" lon="99.7134010">
    <ele>78.3</ele>
    <time>2018-01-27T09:10:49Z</time>
   </trkpt>
   <trkpt lat="12.8929870" lon="99.7134330">
    <ele>78.1</ele>
    <time>2018-01-27T09:10:50Z</time>
   </trkpt>
   <trkpt lat="12.8930180" lon="99.7134690">
    <ele>77.8</ele>
    <time>2018-01-27T09:10:51Z</time>
   </trkpt>
   <trkpt lat="12.8930450" lon="99.7135100">
    <ele>77.8</ele>
    <time>2018-01-27T09:10:52Z</time>
   </trkpt>
   <trkpt lat="12.8930650" lon="99.7135510">
    <ele>77.5</ele>
    <time>2018-01-27T09:10:53Z</time>
   </trkpt>
   <trkpt lat="12.8930990" lon="99.7136070">
    <ele>77.3</ele>
    <time>2018-01-27T09:10:54Z</time>
   </trkpt>
   <trkpt lat="12.8931220" lon="99.7136380">
    <ele>77.4</ele>
    <time>2018-01-27T09:10:55Z</time>
   </trkpt>
   <trkpt lat="12.8931500" lon="99.7136670">
    <ele>77.1</ele>
    <time>2018-01-27T09:10:56Z</time>
   </trkpt>
   <trkpt lat="12.8931790" lon="99.7136920">
    <ele>77.2</ele>
    <time>2018-01-27T09:10:57Z</time>
   </trkpt>
   <trkpt lat="12.8932070" lon="99.7137190">
    <ele>76.9</ele>
    <time>2018-01-27T09:10:58Z</time>
   </trkpt>
   <trkpt lat="12.8932310" lon="99.7137540">
    <ele>76.6</ele>
    <time>2018-01-27T09:10:59Z</time>
   </trkpt>
   <trkpt lat="12.8932610" lon="99.7137850">
    <ele>76.6</ele>
    <time>2018-01-27T09:11:00Z</time>
   </trkpt>
   <trkpt lat="12.8932940" lon="99.7138100">
    <ele>76.6</ele>
    <time>2018-01-27T09:11:01Z</time>
   </trkpt>
   <trkpt lat="12.8933330" lon="99.7138310">
    <ele>76.5</ele>
    <time>2018-01-27T09:11:02Z</time>
   </trkpt>
   <trkpt lat="12.8933590" lon="99.7138420">
    <ele>76.4</ele>
    <time>2018-01-27T09:11:05Z</time>
   </trkpt>
   <trkpt lat="12.8933890" lon="99.7138710">
    <ele>76.8</ele>
    <time>2018-01-27T09:11:06Z</time>
   </trkpt>
   <trkpt lat="12.8934890" lon="99.7139470">
    <ele>75.5</ele>
    <time>2018-01-27T09:11:07Z</time>
   </trkpt>
   <trkpt lat="12.8935040" lon="99.7139790">
    <ele>75.1</ele>
    <time>2018-01-27T09:11:08Z</time>
   </trkpt>
   <trkpt lat="12.8935140" lon="99.7140380">
    <ele>75.1</ele>
    <time>2018-01-27T09:11:10Z</time>
   </trkpt>
   <trkpt lat="12.8935150" lon="99.7140680">
    <ele>75.1</ele>
    <time>2018-01-27T09:11:11Z</time>
   </trkpt>
   <trkpt lat="12.8935120" lon="99.7141070">
    <ele>75.1</ele>
    <time>2018-01-27T09:11:13Z</time>
   </trkpt>
   <trkpt lat="12.8934990" lon="99.7141450">
    <ele>75.1</ele>
    <time>2018-01-27T09:11:16Z</time>
   </trkpt>
   <trkpt lat="12.8934490" lon="99.7141640">
    <ele>75.1</ele>
    <time>2018-01-27T09:11:18Z</time>
   </trkpt>
   <trkpt lat="12.8934170" lon="99.7141680">
    <ele>75.1</ele>
    <time>2018-01-27T09:11:19Z</time>
   </trkpt>
   <trkpt lat="12.8933810" lon="99.7141720">
    <ele>75.1</ele>
    <time>2018-01-27T09:11:20Z</time>
   </trkpt>
   <trkpt lat="12.8933420" lon="99.7141780">
    <ele>75.1</ele>
    <time>2018-01-27T09:11:21Z</time>
   </trkpt>
   <trkpt lat="12.8933030" lon="99.7141810">
    <ele>75.1</ele>
    <time>2018-01-27T09:11:22Z</time>
   </trkpt>
   <trkpt lat="12.8932530" lon="99.7142090">
    <ele>75.0</ele>
    <time>2018-01-27T09:11:23Z</time>
   </trkpt>
   <trkpt lat="12.8932110" lon="99.7142190">
    <ele>75.0</ele>
    <time>2018-01-27T09:11:24Z</time>
   </trkpt>
   <trkpt lat="12.8931710" lon="99.7142340">
    <ele>75.0</ele>
    <time>2018-01-27T09:11:25Z</time>
   </trkpt>
   <trkpt lat="12.8931420" lon="99.7142600">
    <ele>74.0</ele>
    <time>2018-01-27T09:11:26Z</time>
   </trkpt>
   <trkpt lat="12.8931230" lon="99.7142980">
    <ele>73.6</ele>
    <time>2018-01-27T09:11:27Z</time>
   </trkpt>
   <trkpt lat="12.8931090" lon="99.7143390">
    <ele>73.4</ele>
    <time>2018-01-27T09:11:28Z</time>
   </trkpt>
   <trkpt lat="12.8931000" lon="99.7143840">
    <ele>73.6</ele>
    <time>2018-01-27T09:11:29Z</time>
   </trkpt>
   <trkpt lat="12.8930920" lon="99.7144160">
    <ele>73.8</ele>
    <time>2018-01-27T09:11:30Z</time>
   </trkpt>
   <trkpt lat="12.8930820" lon="99.7144500">
    <ele>74.1</ele>
    <time>2018-01-27T09:11:31Z</time>
   </trkpt>
   <trkpt lat="12.8930700" lon="99.7144860">
    <ele>74.5</ele>
    <time>2018-01-27T09:11:32Z</time>
   </trkpt>
   <trkpt lat="12.8930570" lon="99.7145190">
    <ele>74.9</ele>
    <time>2018-01-27T09:11:33Z</time>
   </trkpt>
   <trkpt lat="12.8930410" lon="99.7145590">
    <ele>75.5</ele>
    <time>2018-01-27T09:11:34Z</time>
   </trkpt>
   <trkpt lat="12.8930230" lon="99.7146040">
    <ele>76.0</ele>
    <time>2018-01-27T09:11:35Z</time>
   </trkpt>
   <trkpt lat="12.8930050" lon="99.7146510">
    <ele>76.6</ele>
    <time>2018-01-27T09:11:36Z</time>
   </trkpt>
   <trkpt lat="12.8929880" lon="99.7147010">
    <ele>77.3</ele>
    <time>2018-01-27T09:11:37Z</time>
   </trkpt>
   <trkpt lat="12.8929710" lon="99.7147530">
    <ele>78.0</ele>
    <time>2018-01-27T09:11:38Z</time>
   </trkpt>
   <trkpt lat="12.8929510" lon="99.7148170">
    <ele>78.7</ele>
    <time>2018-01-27T09:11:39Z</time>
   </trkpt>
   <trkpt lat="12.8929280" lon="99.7149240">
    <ele>79.0</ele>
    <time>2018-01-27T09:11:40Z</time>
   </trkpt>
   <trkpt lat="12.8929130" lon="99.7149720">
    <ele>78.9</ele>
    <time>2018-01-27T09:11:41Z</time>
   </trkpt>
   <trkpt lat="12.8928980" lon="99.7150250">
    <ele>78.7</ele>
    <time>2018-01-27T09:11:42Z</time>
   </trkpt>
   <trkpt lat="12.8928810" lon="99.7150760">
    <ele>78.4</ele>
    <time>2018-01-27T09:11:43Z</time>
   </trkpt>
   <trkpt lat="12.8928660" lon="99.7151290">
    <ele>78.0</ele>
    <time>2018-01-27T09:11:44Z</time>
   </trkpt>
   <trkpt lat="12.8928530" lon="99.7151780">
    <ele>77.4</ele>
    <time>2018-01-27T09:11:45Z</time>
   </trkpt>
   <trkpt lat="12.8928420" lon="99.7152290">
    <ele>76.6</ele>
    <time>2018-01-27T09:11:46Z</time>
   </trkpt>
   <trkpt lat="12.8928300" lon="99.7152790">
    <ele>76.0</ele>
    <time>2018-01-27T09:11:47Z</time>
   </trkpt>
   <trkpt lat="12.8928150" lon="99.7153260">
    <ele>75.4</ele>
    <time>2018-01-27T09:11:48Z</time>
   </trkpt>
   <trkpt lat="12.8927970" lon="99.7153840">
    <ele>75.1</ele>
    <time>2018-01-27T09:11:49Z</time>
   </trkpt>
   <trkpt lat="12.8927790" lon="99.7154300">
    <ele>74.8</ele>
    <time>2018-01-27T09:11:50Z</time>
   </trkpt>
   <trkpt lat="12.8927580" lon="99.7154820">
    <ele>74.6</ele>
    <time>2018-01-27T09:11:51Z</time>
   </trkpt>
   <trkpt lat="12.8927320" lon="99.7155270">
    <ele>74.5</ele>
    <time>2018-01-27T09:11:52Z</time>
   </trkpt>
   <trkpt lat="12.8927100" lon="99.7155730">
    <ele>74.6</ele>
    <time>2018-01-27T09:11:53Z</time>
   </trkpt>
   <trkpt lat="12.8926830" lon="99.7156160">
    <ele>74.8</ele>
    <time>2018-01-27T09:11:54Z</time>
   </trkpt>
   <trkpt lat="12.8926590" lon="99.7156590">
    <ele>74.9</ele>
    <time>2018-01-27T09:11:55Z</time>
   </trkpt>
   <trkpt lat="12.8926390" lon="99.7156960">
    <ele>74.9</ele>
    <time>2018-01-27T09:11:56Z</time>
   </trkpt>
   <trkpt lat="12.8926250" lon="99.7157350">
    <ele>74.9</ele>
    <time>2018-01-27T09:11:57Z</time>
   </trkpt>
   <trkpt lat="12.8926000" lon="99.7157820">
    <ele>74.9</ele>
    <time>2018-01-27T09:11:58Z</time>
   </trkpt>
   <trkpt lat="12.8925670" lon="99.7158290">
    <ele>74.6</ele>
    <time>2018-01-27T09:11:59Z</time>
   </trkpt>
   <trkpt lat="12.8925390" lon="99.7158660">
    <ele>74.4</ele>
    <time>2018-01-27T09:12:00Z</time>
   </trkpt>
   <trkpt lat="12.8925110" lon="99.7159100">
    <ele>74.1</ele>
    <time>2018-01-27T09:12:01Z</time>
   </trkpt>
   <trkpt lat="12.8924760" lon="99.7159460">
    <ele>73.9</ele>
    <time>2018-01-27T09:12:02Z</time>
   </trkpt>
   <trkpt lat="12.8924510" lon="99.7159890">
    <ele>73.8</ele>
    <time>2018-01-27T09:12:03Z</time>
   </trkpt>
   <trkpt lat="12.8924340" lon="99.7160240">
    <ele>73.6</ele>
    <time>2018-01-27T09:12:04Z</time>
   </trkpt>
   <trkpt lat="12.8924040" lon="99.7160660">
    <ele>73.4</ele>
    <time>2018-01-27T09:12:05Z</time>
   </trkpt>
   <trkpt lat="12.8923860" lon="99.7161160">
    <ele>73.1</ele>
    <time>2018-01-27T09:12:06Z</time>
   </trkpt>
   <trkpt lat="12.8923620" lon="99.7161520">
    <ele>72.8</ele>
    <time>2018-01-27T09:12:07Z</time>
   </trkpt>
   <trkpt lat="12.8923360" lon="99.7161860">
    <ele>72.5</ele>
    <time>2018-01-27T09:12:08Z</time>
   </trkpt>
   <trkpt lat="12.8923190" lon="99.7162140">
    <ele>72.3</ele>
    <time>2018-01-27T09:12:09Z</time>
   </trkpt>
   <trkpt lat="12.8922980" lon="99.7162430">
    <ele>72.1</ele>
    <time>2018-01-27T09:12:10Z</time>
   </trkpt>
   <trkpt lat="12.8922810" lon="99.7162670">
    <ele>71.9</ele>
    <time>2018-01-27T09:12:11Z</time>
   </trkpt>
   <trkpt lat="12.8922650" lon="99.7162960">
    <ele>71.6</ele>
    <time>2018-01-27T09:12:13Z</time>
   </trkpt>
   <trkpt lat="12.8922390" lon="99.7163370">
    <ele>71.3</ele>
    <time>2018-01-27T09:12:15Z</time>
   </trkpt>
   <trkpt lat="12.8922200" lon="99.7163620">
    <ele>71.2</ele>
    <time>2018-01-27T09:12:16Z</time>
   </trkpt>
   <trkpt lat="12.8921960" lon="99.7163900">
    <ele>71.0</ele>
    <time>2018-01-27T09:12:17Z</time>
   </trkpt>
   <trkpt lat="12.8921760" lon="99.7164190">
    <ele>71.0</ele>
    <time>2018-01-27T09:12:18Z</time>
   </trkpt>
   <trkpt lat="12.8921570" lon="99.7164510">
    <ele>71.0</ele>
    <time>2018-01-27T09:12:19Z</time>
   </trkpt>
   <trkpt lat="12.8921380" lon="99.7164820">
    <ele>71.0</ele>
    <time>2018-01-27T09:12:20Z</time>
   </trkpt>
   <trkpt lat="12.8921190" lon="99.7165150">
    <ele>71.2</ele>
    <time>2018-01-27T09:12:21Z</time>
   </trkpt>
   <trkpt lat="12.8920990" lon="99.7165480">
    <ele>71.2</ele>
    <time>2018-01-27T09:12:22Z</time>
   </trkpt>
   <trkpt lat="12.8920790" lon="99.7165820">
    <ele>71.5</ele>
    <time>2018-01-27T09:12:23Z</time>
   </trkpt>
   <trkpt lat="12.8920570" lon="99.7166180">
    <ele>71.5</ele>
    <time>2018-01-27T09:12:24Z</time>
   </trkpt>
   <trkpt lat="12.8920220" lon="99.7166600">
    <ele>72.0</ele>
    <time>2018-01-27T09:12:25Z</time>
   </trkpt>
   <trkpt lat="12.8919830" lon="99.7167030">
    <ele>72.3</ele>
    <time>2018-01-27T09:12:26Z</time>
   </trkpt>
   <trkpt lat="12.8919510" lon="99.7167460">
    <ele>72.6</ele>
    <time>2018-01-27T09:12:27Z</time>
   </trkpt>
   <trkpt lat="12.8919190" lon="99.7167950">
    <ele>72.7</ele>
    <time>2018-01-27T09:12:28Z</time>
   </trkpt>
   <trkpt lat="12.8918910" lon="99.7168440">
    <ele>72.8</ele>
    <time>2018-01-27T09:12:29Z</time>
   </trkpt>
   <trkpt lat="12.8918600" lon="99.7168870">
    <ele>73.0</ele>
    <time>2018-01-27T09:12:30Z</time>
   </trkpt>
   <trkpt lat="12.8918260" lon="99.7169330">
    <ele>73.3</ele>
    <time>2018-01-27T09:12:31Z</time>
   </trkpt>
   <trkpt lat="12.8918010" lon="99.7169810">
    <ele>73.9</ele>
    <time>2018-01-27T09:12:32Z</time>
   </trkpt>
   <trkpt lat="12.8917720" lon="99.7170260">
    <ele>74.3</ele>
    <time>2018-01-27T09:12:33Z</time>
   </trkpt>
   <trkpt lat="12.8917440" lon="99.7170640">
    <ele>74.9</ele>
    <time>2018-01-27T09:12:34Z</time>
   </trkpt>
   <trkpt lat="12.8917130" lon="99.7171040">
    <ele>75.1</ele>
    <time>2018-01-27T09:12:35Z</time>
   </trkpt>
   <trkpt lat="12.8916910" lon="99.7171530">
    <ele>76.1</ele>
    <time>2018-01-27T09:12:36Z</time>
   </trkpt>
   <trkpt lat="12.8916650" lon="99.7171920">
    <ele>76.4</ele>
    <time>2018-01-27T09:12:37Z</time>
   </trkpt>
   <trkpt lat="12.8916340" lon="99.7172350">
    <ele>76.6</ele>
    <time>2018-01-27T09:12:38Z</time>
   </trkpt>
   <trkpt lat="12.8916030" lon="99.7172700">
    <ele>77.1</ele>
    <time>2018-01-27T09:12:39Z</time>
   </trkpt>
   <trkpt lat="12.8915760" lon="99.7173090">
    <ele>77.5</ele>
    <time>2018-01-27T09:12:40Z</time>
   </trkpt>
   <trkpt lat="12.8915530" lon="99.7173450">
    <ele>77.7</ele>
    <time>2018-01-27T09:12:41Z</time>
   </trkpt>
   <trkpt lat="12.8915250" lon="99.7173910">
    <ele>78.3</ele>
    <time>2018-01-27T09:12:42Z</time>
   </trkpt>
   <trkpt lat="12.8914910" lon="99.7174320">
    <ele>78.8</ele>
    <time>2018-01-27T09:12:43Z</time>
   </trkpt>
   <trkpt lat="12.8914570" lon="99.7174820">
    <ele>78.9</ele>
    <time>2018-01-27T09:12:44Z</time>
   </trkpt>
   <trkpt lat="12.8914320" lon="99.7175140">
    <ele>78.8</ele>
    <time>2018-01-27T09:12:45Z</time>
   </trkpt>
   <trkpt lat="12.8914060" lon="99.7175430">
    <ele>78.4</ele>
    <time>2018-01-27T09:12:46Z</time>
   </trkpt>
   <trkpt lat="12.8913830" lon="99.7175750">
    <ele>78.4</ele>
    <time>2018-01-27T09:12:47Z</time>
   </trkpt>
   <trkpt lat="12.8913580" lon="99.7176110">
    <ele>78.1</ele>
    <time>2018-01-27T09:12:48Z</time>
   </trkpt>
   <trkpt lat="12.8913370" lon="99.7176420">
    <ele>77.8</ele>
    <time>2018-01-27T09:12:49Z</time>
   </trkpt>
   <trkpt lat="12.8913100" lon="99.7176780">
    <ele>77.7</ele>
    <time>2018-01-27T09:12:50Z</time>
   </trkpt>
   <trkpt lat="12.8912850" lon="99.7177160">
    <ele>77.7</ele>
    <time>2018-01-27T09:12:51Z</time>
   </trkpt>
   <trkpt lat="12.8912620" lon="99.7177540">
    <ele>77.7</ele>
    <time>2018-01-27T09:12:52Z</time>
   </trkpt>
   <trkpt lat="12.8912420" lon="99.7177810">
    <ele>77.7</ele>
    <time>2018-01-27T09:12:53Z</time>
   </trkpt>
   <trkpt lat="12.8912180" lon="99.7178110">
    <ele>77.7</ele>
    <time>2018-01-27T09:12:54Z</time>
   </trkpt>
   <trkpt lat="12.8911930" lon="99.7178460">
    <ele>77.7</ele>
    <time>2018-01-27T09:12:55Z</time>
   </trkpt>
   <trkpt lat="12.8911720" lon="99.7178820">
    <ele>77.7</ele>
    <time>2018-01-27T09:12:56Z</time>
   </trkpt>
   <trkpt lat="12.8911510" lon="99.7179180">
    <ele>77.7</ele>
    <time>2018-01-27T09:12:57Z</time>
   </trkpt>
   <trkpt lat="12.8911300" lon="99.7179480">
    <ele>77.8</ele>
    <time>2018-01-27T09:12:58Z</time>
   </trkpt>
   <trkpt lat="12.8911050" lon="99.7179770">
    <ele>77.8</ele>
    <time>2018-01-27T09:12:59Z</time>
   </trkpt>
   <trkpt lat="12.8910800" lon="99.7180040">
    <ele>77.8</ele>
    <time>2018-01-27T09:13:00Z</time>
   </trkpt>
   <trkpt lat="12.8910510" lon="99.7180350">
    <ele>77.7</ele>
    <time>2018-01-27T09:13:01Z</time>
   </trkpt>
   <trkpt lat="12.8910230" lon="99.7180640">
    <ele>77.3</ele>
    <time>2018-01-27T09:13:02Z</time>
   </trkpt>
   <trkpt lat="12.8909920" lon="99.7180930">
    <ele>77.1</ele>
    <time>2018-01-27T09:13:03Z</time>
   </trkpt>
   <trkpt lat="12.8909630" lon="99.7181220">
    <ele>76.6</ele>
    <time>2018-01-27T09:13:04Z</time>
   </trkpt>
   <trkpt lat="12.8909350" lon="99.7181490">
    <ele>76.6</ele>
    <time>2018-01-27T09:13:05Z</time>
   </trkpt>
   <trkpt lat="12.8909070" lon="99.7181780">
    <ele>76.6</ele>
    <time>2018-01-27T09:13:06Z</time>
   </trkpt>
   <trkpt lat="12.8908780" lon="99.7182110">
    <ele>76.9</ele>
    <time>2018-01-27T09:13:07Z</time>
   </trkpt>
   <trkpt lat="12.8908490" lon="99.7182370">
    <ele>77.2</ele>
    <time>2018-01-27T09:13:08Z</time>
   </trkpt>
   <trkpt lat="12.8908200" lon="99.7182660">
    <ele>77.6</ele>
    <time>2018-01-27T09:13:09Z</time>
   </trkpt>
   <trkpt lat="12.8907920" lon="99.7182990">
    <ele>77.6</ele>
    <time>2018-01-27T09:13:10Z</time>
   </trkpt>
   <trkpt lat="12.8907640" lon="99.7183300">
    <ele>77.7</ele>
    <time>2018-01-27T09:13:11Z</time>
   </trkpt>
   <trkpt lat="12.8907340" lon="99.7183610">
    <ele>77.7</ele>
    <time>2018-01-27T09:13:12Z</time>
   </trkpt>
   <trkpt lat="12.8907060" lon="99.7183910">
    <ele>77.8</ele>
    <time>2018-01-27T09:13:13Z</time>
   </trkpt>
   <trkpt lat="12.8906740" lon="99.7184200">
    <ele>77.7</ele>
    <time>2018-01-27T09:13:14Z</time>
   </trkpt>
   <trkpt lat="12.8906450" lon="99.7184490">
    <ele>77.8</ele>
    <time>2018-01-27T09:13:15Z</time>
   </trkpt>
   <trkpt lat="12.8906170" lon="99.7184800">
    <ele>77.9</ele>
    <time>2018-01-27T09:13:16Z</time>
   </trkpt>
   <trkpt lat="12.8905930" lon="99.7185150">
    <ele>77.8</ele>
    <time>2018-01-27T09:13:17Z</time>
   </trkpt>
   <trkpt lat="12.8905680" lon="99.7185470">
    <ele>77.7</ele>
    <time>2018-01-27T09:13:18Z</time>
   </trkpt>
   <trkpt lat="12.8905410" lon="99.7185760">
    <ele>77.6</ele>
    <time>2018-01-27T09:13:19Z</time>
   </trkpt>
   <trkpt lat="12.8905130" lon="99.7186020">
    <ele>77.6</ele>
    <time>2018-01-27T09:13:20Z</time>
   </trkpt>
   <trkpt lat="12.8904930" lon="99.7186290">
    <ele>77.5</ele>
    <time>2018-01-27T09:13:21Z</time>
   </trkpt>
   <trkpt lat="12.8904680" lon="99.7186580">
    <ele>77.7</ele>
    <time>2018-01-27T09:13:22Z</time>
   </trkpt>
   <trkpt lat="12.8904400" lon="99.7186870">
    <ele>77.7</ele>
    <time>2018-01-27T09:13:23Z</time>
   </trkpt>
   <trkpt lat="12.8904110" lon="99.7187190">
    <ele>77.8</ele>
    <time>2018-01-27T09:13:24Z</time>
   </trkpt>
   <trkpt lat="12.8903830" lon="99.7187520">
    <ele>77.9</ele>
    <time>2018-01-27T09:13:25Z</time>
   </trkpt>
   <trkpt lat="12.8903320" lon="99.7187950">
    <ele>77.5</ele>
    <time>2018-01-27T09:13:28Z</time>
   </trkpt>
   <trkpt lat="12.8903080" lon="99.7188140">
    <ele>77.5</ele>
    <time>2018-01-27T09:13:29Z</time>
   </trkpt>
   <trkpt lat="12.8902420" lon="99.7188810">
    <ele>76.8</ele>
    <time>2018-01-27T09:13:30Z</time>
   </trkpt>
   <trkpt lat="12.8902160" lon="99.7189050">
    <ele>76.8</ele>
    <time>2018-01-27T09:13:31Z</time>
   </trkpt>
   <trkpt lat="12.8901890" lon="99.7189260">
    <ele>76.5</ele>
    <time>2018-01-27T09:13:32Z</time>
   </trkpt>
   <trkpt lat="12.8901610" lon="99.7189490">
    <ele>76.4</ele>
    <time>2018-01-27T09:13:33Z</time>
   </trkpt>
   <trkpt lat="12.8901360" lon="99.7189710">
    <ele>76.5</ele>
    <time>2018-01-27T09:13:34Z</time>
   </trkpt>
   <trkpt lat="12.8901090" lon="99.7189980">
    <ele>76.6</ele>
    <time>2018-01-27T09:13:35Z</time>
   </trkpt>
   <trkpt lat="12.8900820" lon="99.7190250">
    <ele>76.6</ele>
    <time>2018-01-27T09:13:36Z</time>
   </trkpt>
   <trkpt lat="12.8900560" lon="99.7190530">
    <ele>76.8</ele>
    <time>2018-01-27T09:13:37Z</time>
   </trkpt>
   <trkpt lat="12.8900280" lon="99.7190830">
    <ele>77.0</ele>
    <time>2018-01-27T09:13:38Z</time>
   </trkpt>
   <trkpt lat="12.8900020" lon="99.7191090">
    <ele>77.0</ele>
    <time>2018-01-27T09:13:39Z</time>
   </trkpt>
   <trkpt lat="12.8899760" lon="99.7191360">
    <ele>77.5</ele>
    <time>2018-01-27T09:13:40Z</time>
   </trkpt>
   <trkpt lat="12.8899470" lon="99.7191610">
    <ele>77.7</ele>
    <time>2018-01-27T09:13:41Z</time>
   </trkpt>
   <trkpt lat="12.8899180" lon="99.7191860">
    <ele>78.1</ele>
    <time>2018-01-27T09:13:42Z</time>
   </trkpt>
   <trkpt lat="12.8898930" lon="99.7192140">
    <ele>78.8</ele>
    <time>2018-01-27T09:13:43Z</time>
   </trkpt>
   <trkpt lat="12.8898640" lon="99.7192430">
    <ele>78.9</ele>
    <time>2018-01-27T09:13:44Z</time>
   </trkpt>
   <trkpt lat="12.8898370" lon="99.7192730">
    <ele>79.2</ele>
    <time>2018-01-27T09:13:45Z</time>
   </trkpt>
   <trkpt lat="12.8898140" lon="99.7193030">
    <ele>79.5</ele>
    <time>2018-01-27T09:13:46Z</time>
   </trkpt>
   <trkpt lat="12.8897900" lon="99.7193340">
    <ele>79.7</ele>
    <time>2018-01-27T09:13:47Z</time>
   </trkpt>
   <trkpt lat="12.8897670" lon="99.7193640">
    <ele>80.0</ele>
    <time>2018-01-27T09:13:48Z</time>
   </trkpt>
   <trkpt lat="12.8897450" lon="99.7193910">
    <ele>80.6</ele>
    <time>2018-01-27T09:13:49Z</time>
   </trkpt>
   <trkpt lat="12.8897240" lon="99.7194160">
    <ele>80.6</ele>
    <time>2018-01-27T09:13:50Z</time>
   </trkpt>
   <trkpt lat="12.8897010" lon="99.7194440">
    <ele>81.0</ele>
    <time>2018-01-27T09:13:51Z</time>
   </trkpt>
   <trkpt lat="12.8896760" lon="99.7194710">
    <ele>81.0</ele>
    <time>2018-01-27T09:13:52Z</time>
   </trkpt>
   <trkpt lat="12.8896520" lon="99.7194980">
    <ele>81.4</ele>
    <time>2018-01-27T09:13:53Z</time>
   </trkpt>
   <trkpt lat="12.8896300" lon="99.7195290">
    <ele>81.4</ele>
    <time>2018-01-27T09:13:54Z</time>
   </trkpt>
   <trkpt lat="12.8896100" lon="99.7195580">
    <ele>81.8</ele>
    <time>2018-01-27T09:13:55Z</time>
   </trkpt>
   <trkpt lat="12.8895910" lon="99.7195910">
    <ele>81.8</ele>
    <time>2018-01-27T09:13:56Z</time>
   </trkpt>
   <trkpt lat="12.8895730" lon="99.7196230">
    <ele>82.1</ele>
    <time>2018-01-27T09:13:57Z</time>
   </trkpt>
   <trkpt lat="12.8895560" lon="99.7196560">
    <ele>81.8</ele>
    <time>2018-01-27T09:13:58Z</time>
   </trkpt>
   <trkpt lat="12.8895380" lon="99.7196880">
    <ele>82.0</ele>
    <time>2018-01-27T09:13:59Z</time>
   </trkpt>
   <trkpt lat="12.8895210" lon="99.7197200">
    <ele>82.0</ele>
    <time>2018-01-27T09:14:00Z</time>
   </trkpt>
   <trkpt lat="12.8895050" lon="99.7197520">
    <ele>81.9</ele>
    <time>2018-01-27T09:14:01Z</time>
   </trkpt>
   <trkpt lat="12.8894890" lon="99.7197840">
    <ele>82.5</ele>
    <time>2018-01-27T09:14:02Z</time>
   </trkpt>
   <trkpt lat="12.8894750" lon="99.7198180">
    <ele>82.8</ele>
    <time>2018-01-27T09:14:03Z</time>
   </trkpt>
   <trkpt lat="12.8894610" lon="99.7198520">
    <ele>82.8</ele>
    <time>2018-01-27T09:14:04Z</time>
   </trkpt>
   <trkpt lat="12.8894470" lon="99.7198860">
    <ele>83.3</ele>
    <time>2018-01-27T09:14:05Z</time>
   </trkpt>
   <trkpt lat="12.8894350" lon="99.7199200">
    <ele>83.5</ele>
    <time>2018-01-27T09:14:06Z</time>
   </trkpt>
   <trkpt lat="12.8894220" lon="99.7199600">
    <ele>83.7</ele>
    <time>2018-01-27T09:14:07Z</time>
   </trkpt>
   <trkpt lat="12.8894100" lon="99.7200010">
    <ele>84.1</ele>
    <time>2018-01-27T09:14:08Z</time>
   </trkpt>
   <trkpt lat="12.8893970" lon="99.7200390">
    <ele>84.4</ele>
    <time>2018-01-27T09:14:09Z</time>
   </trkpt>
   <trkpt lat="12.8893880" lon="99.7200760">
    <ele>84.7</ele>
    <time>2018-01-27T09:14:10Z</time>
   </trkpt>
   <trkpt lat="12.8893790" lon="99.7201120">
    <ele>85.1</ele>
    <time>2018-01-27T09:14:11Z</time>
   </trkpt>
   <trkpt lat="12.8893670" lon="99.7201480">
    <ele>85.2</ele>
    <time>2018-01-27T09:14:12Z</time>
   </trkpt>
   <trkpt lat="12.8893530" lon="99.7201830">
    <ele>85.4</ele>
    <time>2018-01-27T09:14:13Z</time>
   </trkpt>
   <trkpt lat="12.8893390" lon="99.7202180">
    <ele>85.6</ele>
    <time>2018-01-27T09:14:14Z</time>
   </trkpt>
   <trkpt lat="12.8893260" lon="99.7202540">
    <ele>85.7</ele>
    <time>2018-01-27T09:14:15Z</time>
   </trkpt>
   <trkpt lat="12.8893130" lon="99.7202920">
    <ele>85.8</ele>
    <time>2018-01-27T09:14:16Z</time>
   </trkpt>
   <trkpt lat="12.8892980" lon="99.7203270">
    <ele>85.8</ele>
    <time>2018-01-27T09:14:17Z</time>
   </trkpt>
   <trkpt lat="12.8892810" lon="99.7203630">
    <ele>85.8</ele>
    <time>2018-01-27T09:14:18Z</time>
   </trkpt>
   <trkpt lat="12.8892630" lon="99.7204010">
    <ele>85.7</ele>
    <time>2018-01-27T09:14:19Z</time>
   </trkpt>
   <trkpt lat="12.8892470" lon="99.7204380">
    <ele>85.7</ele>
    <time>2018-01-27T09:14:20Z</time>
   </trkpt>
   <trkpt lat="12.8892290" lon="99.7204720">
    <ele>85.5</ele>
    <time>2018-01-27T09:14:21Z</time>
   </trkpt>
   <trkpt lat="12.8892120" lon="99.7205090">
    <ele>85.3</ele>
    <time>2018-01-27T09:14:22Z</time>
   </trkpt>
   <trkpt lat="12.8891950" lon="99.7205450">
    <ele>84.9</ele>
    <time>2018-01-27T09:14:23Z</time>
   </trkpt>
   <trkpt lat="12.8891790" lon="99.7205780">
    <ele>84.9</ele>
    <time>2018-01-27T09:14:24Z</time>
   </trkpt>
   <trkpt lat="12.8891600" lon="99.7206080">
    <ele>84.6</ele>
    <time>2018-01-27T09:14:25Z</time>
   </trkpt>
   <trkpt lat="12.8891300" lon="99.7206100">
    <ele>84.6</ele>
    <time>2018-01-27T09:14:27Z</time>
   </trkpt>
   <trkpt lat="12.8891270" lon="99.7205640">
    <ele>84.9</ele>
    <time>2018-01-27T09:14:29Z</time>
   </trkpt>
   <trkpt lat="12.8891100" lon="99.7205960">
    <ele>84.6</ele>
    <time>2018-01-27T09:14:50Z</time>
   </trkpt>
   <trkpt lat="12.8890910" lon="99.7206410">
    <ele>84.4</ele>
    <time>2018-01-27T09:14:52Z</time>
   </trkpt>
   <trkpt lat="12.8890760" lon="99.7206660">
    <ele>84.5</ele>
    <time>2018-01-27T09:14:53Z</time>
   </trkpt>
   <trkpt lat="12.8890460" lon="99.7207090">
    <ele>84.5</ele>
    <time>2018-01-27T09:14:55Z</time>
   </trkpt>
   <trkpt lat="12.8890310" lon="99.7207390">
    <ele>84.7</ele>
    <time>2018-01-27T09:14:56Z</time>
   </trkpt>
   <trkpt lat="12.8890130" lon="99.7207710">
    <ele>84.9</ele>
    <time>2018-01-27T09:14:57Z</time>
   </trkpt>
   <trkpt lat="12.8889920" lon="99.7208070">
    <ele>85.3</ele>
    <time>2018-01-27T09:14:58Z</time>
   </trkpt>
   <trkpt lat="12.8889710" lon="99.7208460">
    <ele>85.6</ele>
    <time>2018-01-27T09:14:59Z</time>
   </trkpt>
   <trkpt lat="12.8889520" lon="99.7208870">
    <ele>86.0</ele>
    <time>2018-01-27T09:15:00Z</time>
   </trkpt>
   <trkpt lat="12.8889350" lon="99.7209240">
    <ele>86.0</ele>
    <time>2018-01-27T09:15:01Z</time>
   </trkpt>
   <trkpt lat="12.8889150" lon="99.7209580">
    <ele>86.4</ele>
    <time>2018-01-27T09:15:02Z</time>
   </trkpt>
   <trkpt lat="12.8888940" lon="99.7209900">
    <ele>87.1</ele>
    <time>2018-01-27T09:15:03Z</time>
   </trkpt>
   <trkpt lat="12.8888740" lon="99.7210240">
    <ele>87.5</ele>
    <time>2018-01-27T09:15:04Z</time>
   </trkpt>
   <trkpt lat="12.8888560" lon="99.7210580">
    <ele>88.4</ele>
    <time>2018-01-27T09:15:05Z</time>
   </trkpt>
   <trkpt lat="12.8888350" lon="99.7210920">
    <ele>88.4</ele>
    <time>2018-01-27T09:15:06Z</time>
   </trkpt>
   <trkpt lat="12.8888150" lon="99.7211220">
    <ele>89.3</ele>
    <time>2018-01-27T09:15:07Z</time>
   </trkpt>
   <trkpt lat="12.8887930" lon="99.7211540">
    <ele>89.9</ele>
    <time>2018-01-27T09:15:08Z</time>
   </trkpt>
   <trkpt lat="12.8887730" lon="99.7211870">
    <ele>90.7</ele>
    <time>2018-01-27T09:15:09Z</time>
   </trkpt>
   <trkpt lat="12.8887380" lon="99.7212370">
    <ele>91.4</ele>
    <time>2018-01-27T09:15:11Z</time>
   </trkpt>
   <trkpt lat="12.8887210" lon="99.7212720">
    <ele>91.7</ele>
    <time>2018-01-27T09:15:12Z</time>
   </trkpt>
   <trkpt lat="12.8887050" lon="99.7213050">
    <ele>91.7</ele>
    <time>2018-01-27T09:15:13Z</time>
   </trkpt>
   <trkpt lat="12.8886910" lon="99.7213340">
    <ele>91.9</ele>
    <time>2018-01-27T09:15:14Z</time>
   </trkpt>
   <trkpt lat="12.8886760" lon="99.7213610">
    <ele>91.9</ele>
    <time>2018-01-27T09:15:15Z</time>
   </trkpt>
   <trkpt lat="12.8886570" lon="99.7213930">
    <ele>92.0</ele>
    <time>2018-01-27T09:15:16Z</time>
   </trkpt>
   <trkpt lat="12.8886420" lon="99.7214230">
    <ele>91.9</ele>
    <time>2018-01-27T09:15:17Z</time>
   </trkpt>
   <trkpt lat="12.8886260" lon="99.7214630">
    <ele>91.8</ele>
    <time>2018-01-27T09:15:18Z</time>
   </trkpt>
   <trkpt lat="12.8886080" lon="99.7214960">
    <ele>91.7</ele>
    <time>2018-01-27T09:15:19Z</time>
   </trkpt>
   <trkpt lat="12.8885880" lon="99.7215300">
    <ele>91.7</ele>
    <time>2018-01-27T09:15:20Z</time>
   </trkpt>
   <trkpt lat="12.8885740" lon="99.7215570">
    <ele>91.6</ele>
    <time>2018-01-27T09:15:21Z</time>
   </trkpt>
   <trkpt lat="12.8885610" lon="99.7215900">
    <ele>91.6</ele>
    <time>2018-01-27T09:15:22Z</time>
   </trkpt>
   <trkpt lat="12.8885390" lon="99.7216290">
    <ele>91.7</ele>
    <time>2018-01-27T09:15:23Z</time>
   </trkpt>
   <trkpt lat="12.8885230" lon="99.7216660">
    <ele>92.1</ele>
    <time>2018-01-27T09:15:24Z</time>
   </trkpt>
   <trkpt lat="12.8885110" lon="99.7216990">
    <ele>92.3</ele>
    <time>2018-01-27T09:15:25Z</time>
   </trkpt>
   <trkpt lat="12.8884950" lon="99.7217300">
    <ele>92.5</ele>
    <time>2018-01-27T09:15:26Z</time>
   </trkpt>
   <trkpt lat="12.8884770" lon="99.7217600">
    <ele>92.7</ele>
    <time>2018-01-27T09:15:27Z</time>
   </trkpt>
   <trkpt lat="12.8884560" lon="99.7217950">
    <ele>92.9</ele>
    <time>2018-01-27T09:15:28Z</time>
   </trkpt>
   <trkpt lat="12.8884370" lon="99.7218330">
    <ele>92.9</ele>
    <time>2018-01-27T09:15:29Z</time>
   </trkpt>
   <trkpt lat="12.8884190" lon="99.7218690">
    <ele>92.9</ele>
    <time>2018-01-27T09:15:30Z</time>
   </trkpt>
   <trkpt lat="12.8884000" lon="99.7219060">
    <ele>92.9</ele>
    <time>2018-01-27T09:15:31Z</time>
   </trkpt>
   <trkpt lat="12.8883830" lon="99.7219410">
    <ele>92.9</ele>
    <time>2018-01-27T09:15:32Z</time>
   </trkpt>
   <trkpt lat="12.8883660" lon="99.7219770">
    <ele>92.7</ele>
    <time>2018-01-27T09:15:33Z</time>
   </trkpt>
   <trkpt lat="12.8883490" lon="99.7220180">
    <ele>92.5</ele>
    <time>2018-01-27T09:15:34Z</time>
   </trkpt>
   <trkpt lat="12.8883360" lon="99.7220570">
    <ele>92.2</ele>
    <time>2018-01-27T09:15:35Z</time>
   </trkpt>
   <trkpt lat="12.8883240" lon="99.7220970">
    <ele>91.7</ele>
    <time>2018-01-27T09:15:36Z</time>
   </trkpt>
   <trkpt lat="12.8883130" lon="99.7221350">
    <ele>91.4</ele>
    <time>2018-01-27T09:15:37Z</time>
   </trkpt>
   <trkpt lat="12.8883030" lon="99.7221720">
    <ele>91.2</ele>
    <time>2018-01-27T09:15:38Z</time>
   </trkpt>
   <trkpt lat="12.8882930" lon="99.7222070">
    <ele>91.2</ele>
    <time>2018-01-27T09:15:39Z</time>
   </trkpt>
   <trkpt lat="12.8882790" lon="99.7222430">
    <ele>90.9</ele>
    <time>2018-01-27T09:15:40Z</time>
   </trkpt>
   <trkpt lat="12.8882620" lon="99.7222780">
    <ele>90.9</ele>
    <time>2018-01-27T09:15:41Z</time>
   </trkpt>
   <trkpt lat="12.8882460" lon="99.7223150">
    <ele>90.8</ele>
    <time>2018-01-27T09:15:42Z</time>
   </trkpt>
   <trkpt lat="12.8882330" lon="99.7223500">
    <ele>90.8</ele>
    <time>2018-01-27T09:15:43Z</time>
   </trkpt>
   <trkpt lat="12.8882200" lon="99.7223860">
    <ele>90.8</ele>
    <time>2018-01-27T09:15:44Z</time>
   </trkpt>
   <trkpt lat="12.8882070" lon="99.7224220">
    <ele>90.8</ele>
    <time>2018-01-27T09:15:45Z</time>
   </trkpt>
   <trkpt lat="12.8881970" lon="99.7224590">
    <ele>90.7</ele>
    <time>2018-01-27T09:15:46Z</time>
   </trkpt>
   <trkpt lat="12.8881860" lon="99.7224960">
    <ele>90.7</ele>
    <time>2018-01-27T09:15:47Z</time>
   </trkpt>
   <trkpt lat="12.8881760" lon="99.7225350">
    <ele>90.8</ele>
    <time>2018-01-27T09:15:48Z</time>
   </trkpt>
   <trkpt lat="12.8881660" lon="99.7225740">
    <ele>90.8</ele>
    <time>2018-01-27T09:15:49Z</time>
   </trkpt>
   <trkpt lat="12.8881570" lon="99.7226050">
    <ele>91.0</ele>
    <time>2018-01-27T09:15:50Z</time>
   </trkpt>
   <trkpt lat="12.8881510" lon="99.7226340">
    <ele>91.0</ele>
    <time>2018-01-27T09:15:51Z</time>
   </trkpt>
   <trkpt lat="12.8881420" lon="99.7226650">
    <ele>91.0</ele>
    <time>2018-01-27T09:15:52Z</time>
   </trkpt>
   <trkpt lat="12.8881340" lon="99.7226960">
    <ele>91.0</ele>
    <time>2018-01-27T09:15:53Z</time>
   </trkpt>
   <trkpt lat="12.8881240" lon="99.7227290">
    <ele>91.0</ele>
    <time>2018-01-27T09:15:54Z</time>
   </trkpt>
   <trkpt lat="12.8881140" lon="99.7227630">
    <ele>91.3</ele>
    <time>2018-01-27T09:15:55Z</time>
   </trkpt>
   <trkpt lat="12.8881040" lon="99.7227970">
    <ele>91.3</ele>
    <time>2018-01-27T09:15:56Z</time>
   </trkpt>
   <trkpt lat="12.8880890" lon="99.7228320">
    <ele>91.3</ele>
    <time>2018-01-27T09:15:57Z</time>
   </trkpt>
   <trkpt lat="12.8880760" lon="99.7228680">
    <ele>91.5</ele>
    <time>2018-01-27T09:15:58Z</time>
   </trkpt>
   <trkpt lat="12.8880650" lon="99.7229050">
    <ele>91.5</ele>
    <time>2018-01-27T09:15:59Z</time>
   </trkpt>
   <trkpt lat="12.8880580" lon="99.7229370">
    <ele>91.5</ele>
    <time>2018-01-27T09:16:00Z</time>
   </trkpt>
   <trkpt lat="12.8880480" lon="99.7229750">
    <ele>91.5</ele>
    <time>2018-01-27T09:16:01Z</time>
   </trkpt>
   <trkpt lat="12.8880380" lon="99.7230160">
    <ele>91.5</ele>
    <time>2018-01-27T09:16:02Z</time>
   </trkpt>
   <trkpt lat="12.8880290" lon="99.7230530">
    <ele>91.7</ele>
    <time>2018-01-27T09:16:03Z</time>
   </trkpt>
   <trkpt lat="12.8880190" lon="99.7230900">
    <ele>91.7</ele>
    <time>2018-01-27T09:16:04Z</time>
   </trkpt>
   <trkpt lat="12.8880130" lon="99.7231330">
    <ele>91.7</ele>
    <time>2018-01-27T09:16:05Z</time>
   </trkpt>
   <trkpt lat="12.8880030" lon="99.7231700">
    <ele>91.9</ele>
    <time>2018-01-27T09:16:06Z</time>
   </trkpt>
   <trkpt lat="12.8879930" lon="99.7232070">
    <ele>92.2</ele>
    <time>2018-01-27T09:16:07Z</time>
   </trkpt>
   <trkpt lat="12.8879800" lon="99.7232420">
    <ele>92.3</ele>
    <time>2018-01-27T09:16:08Z</time>
   </trkpt>
   <trkpt lat="12.8879680" lon="99.7232780">
    <ele>92.6</ele>
    <time>2018-01-27T09:16:09Z</time>
   </trkpt>
   <trkpt lat="12.8879580" lon="99.7233140">
    <ele>92.8</ele>
    <time>2018-01-27T09:16:10Z</time>
   </trkpt>
   <trkpt lat="12.8879470" lon="99.7233510">
    <ele>92.8</ele>
    <time>2018-01-27T09:16:11Z</time>
   </trkpt>
   <trkpt lat="12.8879390" lon="99.7233820">
    <ele>92.8</ele>
    <time>2018-01-27T09:16:12Z</time>
   </trkpt>
   <trkpt lat="12.8879280" lon="99.7234080">
    <ele>92.8</ele>
    <time>2018-01-27T09:16:13Z</time>
   </trkpt>
   <trkpt lat="12.8879240" lon="99.7234420">
    <ele>92.8</ele>
    <time>2018-01-27T09:16:14Z</time>
   </trkpt>
   <trkpt lat="12.8879150" lon="99.7234800">
    <ele>92.8</ele>
    <time>2018-01-27T09:16:15Z</time>
   </trkpt>
   <trkpt lat="12.8879030" lon="99.7235160">
    <ele>92.8</ele>
    <time>2018-01-27T09:16:16Z</time>
   </trkpt>
   <trkpt lat="12.8878910" lon="99.7235530">
    <ele>92.9</ele>
    <time>2018-01-27T09:16:17Z</time>
   </trkpt>
   <trkpt lat="12.8878850" lon="99.7235930">
    <ele>93.0</ele>
    <time>2018-01-27T09:16:18Z</time>
   </trkpt>
   <trkpt lat="12.8878820" lon="99.7236350">
    <ele>92.9</ele>
    <time>2018-01-27T09:16:19Z</time>
   </trkpt>
   <trkpt lat="12.8878820" lon="99.7236720">
    <ele>92.9</ele>
    <time>2018-01-27T09:16:20Z</time>
   </trkpt>
   <trkpt lat="12.8878820" lon="99.7237110">
    <ele>92.7</ele>
    <time>2018-01-27T09:16:21Z</time>
   </trkpt>
   <trkpt lat="12.8878850" lon="99.7237500">
    <ele>92.4</ele>
    <time>2018-01-27T09:16:22Z</time>
   </trkpt>
   <trkpt lat="12.8878890" lon="99.7237890">
    <ele>92.1</ele>
    <time>2018-01-27T09:16:23Z</time>
   </trkpt>
   <trkpt lat="12.8878920" lon="99.7238290">
    <ele>91.9</ele>
    <time>2018-01-27T09:16:24Z</time>
   </trkpt>
   <trkpt lat="12.8878960" lon="99.7238690">
    <ele>91.8</ele>
    <time>2018-01-27T09:16:25Z</time>
   </trkpt>
   <trkpt lat="12.8879030" lon="99.7239100">
    <ele>91.9</ele>
    <time>2018-01-27T09:16:26Z</time>
   </trkpt>
   <trkpt lat="12.8879090" lon="99.7239510">
    <ele>91.9</ele>
    <time>2018-01-27T09:16:27Z</time>
   </trkpt>
   <trkpt lat="12.8879130" lon="99.7239920">
    <ele>91.8</ele>
    <time>2018-01-27T09:16:28Z</time>
   </trkpt>
   <trkpt lat="12.8879170" lon="99.7240330">
    <ele>91.4</ele>
    <time>2018-01-27T09:16:29Z</time>
   </trkpt>
   <trkpt lat="12.8879190" lon="99.7240750">
    <ele>90.8</ele>
    <time>2018-01-27T09:16:30Z</time>
   </trkpt>
   <trkpt lat="12.8879210" lon="99.7241170">
    <ele>90.2</ele>
    <time>2018-01-27T09:16:31Z</time>
   </trkpt>
   <trkpt lat="12.8879270" lon="99.7241660">
    <ele>89.7</ele>
    <time>2018-01-27T09:16:32Z</time>
   </trkpt>
   <trkpt lat="12.8879350" lon="99.7242000">
    <ele>89.4</ele>
    <time>2018-01-27T09:16:33Z</time>
   </trkpt>
   <trkpt lat="12.8879470" lon="99.7242430">
    <ele>89.2</ele>
    <time>2018-01-27T09:16:35Z</time>
   </trkpt>
   <trkpt lat="12.8879660" lon="99.7242980">
    <ele>89.1</ele>
    <time>2018-01-27T09:16:37Z</time>
   </trkpt>
   <trkpt lat="12.8880080" lon="99.7243650">
    <ele>88.8</ele>
    <time>2018-01-27T09:16:38Z</time>
   </trkpt>
   <trkpt lat="12.8880320" lon="99.7243990">
    <ele>88.8</ele>
    <time>2018-01-27T09:16:39Z</time>
   </trkpt>
   <trkpt lat="12.8880570" lon="99.7244300">
    <ele>88.8</ele>
    <time>2018-01-27T09:16:40Z</time>
   </trkpt>
   <trkpt lat="12.8880890" lon="99.7244620">
    <ele>88.9</ele>
    <time>2018-01-27T09:16:41Z</time>
   </trkpt>
   <trkpt lat="12.8881190" lon="99.7244970">
    <ele>89.0</ele>
    <time>2018-01-27T09:16:42Z</time>
   </trkpt>
   <trkpt lat="12.8881490" lon="99.7245310">
    <ele>89.0</ele>
    <time>2018-01-27T09:16:43Z</time>
   </trkpt>
   <trkpt lat="12.8881730" lon="99.7245600">
    <ele>89.0</ele>
    <time>2018-01-27T09:16:44Z</time>
   </trkpt>
   <trkpt lat="12.8881990" lon="99.7245900">
    <ele>89.2</ele>
    <time>2018-01-27T09:16:45Z</time>
   </trkpt>
   <trkpt lat="12.8882250" lon="99.7246210">
    <ele>89.2</ele>
    <time>2018-01-27T09:16:46Z</time>
   </trkpt>
   <trkpt lat="12.8882440" lon="99.7246450">
    <ele>89.2</ele>
    <time>2018-01-27T09:16:47Z</time>
   </trkpt>
   <trkpt lat="12.8882900" lon="99.7246940">
    <ele>89.5</ele>
    <time>2018-01-27T09:16:48Z</time>
   </trkpt>
   <trkpt lat="12.8883150" lon="99.7247280">
    <ele>89.9</ele>
    <time>2018-01-27T09:16:49Z</time>
   </trkpt>
   <trkpt lat="12.8883390" lon="99.7247610">
    <ele>90.3</ele>
    <time>2018-01-27T09:16:50Z</time>
   </trkpt>
   <trkpt lat="12.8883660" lon="99.7247940">
    <ele>90.6</ele>
    <time>2018-01-27T09:16:51Z</time>
   </trkpt>
   <trkpt lat="12.8883920" lon="99.7248240">
    <ele>90.4</ele>
    <time>2018-01-27T09:16:52Z</time>
   </trkpt>
   <trkpt lat="12.8884190" lon="99.7248530">
    <ele>90.2</ele>
    <time>2018-01-27T09:16:53Z</time>
   </trkpt>
   <trkpt lat="12.8884400" lon="99.7248880">
    <ele>90.3</ele>
    <time>2018-01-27T09:16:54Z</time>
   </trkpt>
   <trkpt lat="12.8884630" lon="99.7249190">
    <ele>90.1</ele>
    <time>2018-01-27T09:16:55Z</time>
   </trkpt>
   <trkpt lat="12.8884930" lon="99.7249520">
    <ele>90.1</ele>
    <time>2018-01-27T09:16:56Z</time>
   </trkpt>
   <trkpt lat="12.8885280" lon="99.7249860">
    <ele>89.9</ele>
    <time>2018-01-27T09:16:57Z</time>
   </trkpt>
   <trkpt lat="12.8885640" lon="99.7250280">
    <ele>89.6</ele>
    <time>2018-01-27T09:16:58Z</time>
   </trkpt>
   <trkpt lat="12.8885950" lon="99.7250680">
    <ele>89.1</ele>
    <time>2018-01-27T09:16:59Z</time>
   </trkpt>
   <trkpt lat="12.8886280" lon="99.7251070">
    <ele>88.7</ele>
    <time>2018-01-27T09:17:00Z</time>
   </trkpt>
   <trkpt lat="12.8886600" lon="99.7251530">
    <ele>88.5</ele>
    <time>2018-01-27T09:17:01Z</time>
   </trkpt>
   <trkpt lat="12.8886940" lon="99.7251930">
    <ele>87.9</ele>
    <time>2018-01-27T09:17:02Z</time>
   </trkpt>
   <trkpt lat="12.8887270" lon="99.7252290">
    <ele>87.3</ele>
    <time>2018-01-27T09:17:03Z</time>
   </trkpt>
   <trkpt lat="12.8887620" lon="99.7252700">
    <ele>86.7</ele>
    <time>2018-01-27T09:17:04Z</time>
   </trkpt>
   <trkpt lat="12.8887900" lon="99.7253080">
    <ele>86.2</ele>
    <time>2018-01-27T09:17:05Z</time>
   </trkpt>
   <trkpt lat="12.8888270" lon="99.7253470">
    <ele>86.0</ele>
    <time>2018-01-27T09:17:06Z</time>
   </trkpt>
   <trkpt lat="12.8888590" lon="99.7253880">
    <ele>85.8</ele>
    <time>2018-01-27T09:17:07Z</time>
   </trkpt>
   <trkpt lat="12.8888960" lon="99.7254320">
    <ele>85.6</ele>
    <time>2018-01-27T09:17:08Z</time>
   </trkpt>
   <trkpt lat="12.8889340" lon="99.7254630">
    <ele>85.5</ele>
    <time>2018-01-27T09:17:09Z</time>
   </trkpt>
   <trkpt lat="12.8889630" lon="99.7255030">
    <ele>85.6</ele>
    <time>2018-01-27T09:17:10Z</time>
   </trkpt>
   <trkpt lat="12.8890000" lon="99.7255360">
    <ele>85.7</ele>
    <time>2018-01-27T09:17:11Z</time>
   </trkpt>
   <trkpt lat="12.8890350" lon="99.7255780">
    <ele>85.7</ele>
    <time>2018-01-27T09:17:12Z</time>
   </trkpt>
   <trkpt lat="12.8890650" lon="99.7256220">
    <ele>85.7</ele>
    <time>2018-01-27T09:17:13Z</time>
   </trkpt>
   <trkpt lat="12.8890940" lon="99.7256590">
    <ele>85.7</ele>
    <time>2018-01-27T09:17:14Z</time>
   </trkpt>
   <trkpt lat="12.8891250" lon="99.7256930">
    <ele>85.8</ele>
    <time>2018-01-27T09:17:15Z</time>
   </trkpt>
   <trkpt lat="12.8891590" lon="99.7257360">
    <ele>85.7</ele>
    <time>2018-01-27T09:17:16Z</time>
   </trkpt>
   <trkpt lat="12.8891910" lon="99.7257740">
    <ele>85.6</ele>
    <time>2018-01-27T09:17:17Z</time>
   </trkpt>
   <trkpt lat="12.8892190" lon="99.7258170">
    <ele>85.5</ele>
    <time>2018-01-27T09:17:18Z</time>
   </trkpt>
   <trkpt lat="12.8892520" lon="99.7258560">
    <ele>85.5</ele>
    <time>2018-01-27T09:17:19Z</time>
   </trkpt>
   <trkpt lat="12.8892790" lon="99.7258960">
    <ele>85.6</ele>
    <time>2018-01-27T09:17:20Z</time>
   </trkpt>
   <trkpt lat="12.8893150" lon="99.7259480">
    <ele>85.9</ele>
    <time>2018-01-27T09:17:21Z</time>
   </trkpt>
   <trkpt lat="12.8893530" lon="99.7259880">
    <ele>85.7</ele>
    <time>2018-01-27T09:17:22Z</time>
   </trkpt>
   <trkpt lat="12.8893920" lon="99.7260300">
    <ele>85.3</ele>
    <time>2018-01-27T09:17:23Z</time>
   </trkpt>
   <trkpt lat="12.8894200" lon="99.7260670">
    <ele>85.1</ele>
    <time>2018-01-27T09:17:24Z</time>
   </trkpt>
   <trkpt lat="12.8894590" lon="99.7261080">
    <ele>85.1</ele>
    <time>2018-01-27T09:17:25Z</time>
   </trkpt>
   <trkpt lat="12.8894940" lon="99.7261490">
    <ele>85.4</ele>
    <time>2018-01-27T09:17:26Z</time>
   </trkpt>
   <trkpt lat="12.8895330" lon="99.7261900">
    <ele>85.3</ele>
    <time>2018-01-27T09:17:27Z</time>
   </trkpt>
   <trkpt lat="12.8895710" lon="99.7262430">
    <ele>85.3</ele>
    <time>2018-01-27T09:17:28Z</time>
   </trkpt>
   <trkpt lat="12.8896100" lon="99.7262820">
    <ele>85.6</ele>
    <time>2018-01-27T09:17:29Z</time>
   </trkpt>
   <trkpt lat="12.8896370" lon="99.7263190">
    <ele>85.8</ele>
    <time>2018-01-27T09:17:30Z</time>
   </trkpt>
   <trkpt lat="12.8896630" lon="99.7263530">
    <ele>86.1</ele>
    <time>2018-01-27T09:17:31Z</time>
   </trkpt>
   <trkpt lat="12.8896950" lon="99.7263900">
    <ele>85.8</ele>
    <time>2018-01-27T09:17:32Z</time>
   </trkpt>
   <trkpt lat="12.8897380" lon="99.7264320">
    <ele>85.5</ele>
    <time>2018-01-27T09:17:33Z</time>
   </trkpt>
   <trkpt lat="12.8897700" lon="99.7264800">
    <ele>85.4</ele>
    <time>2018-01-27T09:17:34Z</time>
   </trkpt>
   <trkpt lat="12.8898090" lon="99.7265290">
    <ele>85.5</ele>
    <time>2018-01-27T09:17:35Z</time>
   </trkpt>
   <trkpt lat="12.8898460" lon="99.7265750">
    <ele>85.6</ele>
    <time>2018-01-27T09:17:36Z</time>
   </trkpt>
   <trkpt lat="12.8898880" lon="99.7266140">
    <ele>85.7</ele>
    <time>2018-01-27T09:17:37Z</time>
   </trkpt>
   <trkpt lat="12.8899370" lon="99.7266590">
    <ele>86.0</ele>
    <time>2018-01-27T09:17:38Z</time>
   </trkpt>
   <trkpt lat="12.8899690" lon="99.7267020">
    <ele>86.4</ele>
    <time>2018-01-27T09:17:39Z</time>
   </trkpt>
   <trkpt lat="12.8900020" lon="99.7267450">
    <ele>86.6</ele>
    <time>2018-01-27T09:17:40Z</time>
   </trkpt>
   <trkpt lat="12.8900420" lon="99.7267890">
    <ele>86.9</ele>
    <time>2018-01-27T09:17:41Z</time>
   </trkpt>
   <trkpt lat="12.8900810" lon="99.7268260">
    <ele>86.7</ele>
    <time>2018-01-27T09:17:42Z</time>
   </trkpt>
   <trkpt lat="12.8901170" lon="99.7268710">
    <ele>86.4</ele>
    <time>2018-01-27T09:17:43Z</time>
   </trkpt>
   <trkpt lat="12.8901540" lon="99.7269110">
    <ele>86.1</ele>
    <time>2018-01-27T09:17:44Z</time>
   </trkpt>
   <trkpt lat="12.8901970" lon="99.7269560">
    <ele>85.8</ele>
    <time>2018-01-27T09:17:45Z</time>
   </trkpt>
   <trkpt lat="12.8902320" lon="99.7270050">
    <ele>85.2</ele>
    <time>2018-01-27T09:17:46Z</time>
   </trkpt>
   <trkpt lat="12.8902680" lon="99.7270460">
    <ele>84.3</ele>
    <time>2018-01-27T09:17:47Z</time>
   </trkpt>
   <trkpt lat="12.8903080" lon="99.7270920">
    <ele>83.4</ele>
    <time>2018-01-27T09:17:48Z</time>
   </trkpt>
   <trkpt lat="12.8903360" lon="99.7271400">
    <ele>82.8</ele>
    <time>2018-01-27T09:17:49Z</time>
   </trkpt>
   <trkpt lat="12.8903670" lon="99.7271890">
    <ele>82.7</ele>
    <time>2018-01-27T09:17:50Z</time>
   </trkpt>
   <trkpt lat="12.8904050" lon="99.7272350">
    <ele>82.5</ele>
    <time>2018-01-27T09:17:51Z</time>
   </trkpt>
   <trkpt lat="12.8904400" lon="99.7272760">
    <ele>82.2</ele>
    <time>2018-01-27T09:17:52Z</time>
   </trkpt>
   <trkpt lat="12.8904780" lon="99.7273140">
    <ele>82.0</ele>
    <time>2018-01-27T09:17:53Z</time>
   </trkpt>
   <trkpt lat="12.8905160" lon="99.7273600">
    <ele>82.0</ele>
    <time>2018-01-27T09:17:54Z</time>
   </trkpt>
   <trkpt lat="12.8905640" lon="99.7274070">
    <ele>82.5</ele>
    <time>2018-01-27T09:17:55Z</time>
   </trkpt>
   <trkpt lat="12.8906000" lon="99.7274490">
    <ele>82.5</ele>
    <time>2018-01-27T09:17:56Z</time>
   </trkpt>
   <trkpt lat="12.8906400" lon="99.7274950">
    <ele>83.1</ele>
    <time>2018-01-27T09:17:57Z</time>
   </trkpt>
   <trkpt lat="12.8906800" lon="99.7275370">
    <ele>83.4</ele>
    <time>2018-01-27T09:17:58Z</time>
   </trkpt>
   <trkpt lat="12.8907170" lon="99.7275820">
    <ele>83.6</ele>
    <time>2018-01-27T09:17:59Z</time>
   </trkpt>
   <trkpt lat="12.8907530" lon="99.7276270">
    <ele>83.7</ele>
    <time>2018-01-27T09:18:00Z</time>
   </trkpt>
   <trkpt lat="12.8907850" lon="99.7276750">
    <ele>83.7</ele>
    <time>2018-01-27T09:18:01Z</time>
   </trkpt>
   <trkpt lat="12.8908180" lon="99.7277180">
    <ele>83.7</ele>
    <time>2018-01-27T09:18:02Z</time>
   </trkpt>
   <trkpt lat="12.8908500" lon="99.7277640">
    <ele>83.6</ele>
    <time>2018-01-27T09:18:03Z</time>
   </trkpt>
   <trkpt lat="12.8908860" lon="99.7278040">
    <ele>83.6</ele>
    <time>2018-01-27T09:18:04Z</time>
   </trkpt>
   <trkpt lat="12.8909200" lon="99.7278420">
    <ele>83.6</ele>
    <time>2018-01-27T09:18:05Z</time>
   </trkpt>
   <trkpt lat="12.8909500" lon="99.7278880">
    <ele>83.7</ele>
    <time>2018-01-27T09:18:06Z</time>
   </trkpt>
   <trkpt lat="12.8909820" lon="99.7279350">
    <ele>83.7</ele>
    <time>2018-01-27T09:18:07Z</time>
   </trkpt>
   <trkpt lat="12.8910120" lon="99.7279750">
    <ele>83.6</ele>
    <time>2018-01-27T09:18:08Z</time>
   </trkpt>
   <trkpt lat="12.8910440" lon="99.7280180">
    <ele>83.4</ele>
    <time>2018-01-27T09:18:09Z</time>
   </trkpt>
   <trkpt lat="12.8910810" lon="99.7280620">
    <ele>82.9</ele>
    <time>2018-01-27T09:18:10Z</time>
   </trkpt>
   <trkpt lat="12.8911110" lon="99.7281010">
    <ele>82.3</ele>
    <time>2018-01-27T09:18:11Z</time>
   </trkpt>
   <trkpt lat="12.8911430" lon="99.7281490">
    <ele>81.9</ele>
    <time>2018-01-27T09:18:12Z</time>
   </trkpt>
   <trkpt lat="12.8911780" lon="99.7281900">
    <ele>81.7</ele>
    <time>2018-01-27T09:18:13Z</time>
   </trkpt>
   <trkpt lat="12.8912070" lon="99.7282260">
    <ele>81.7</ele>
    <time>2018-01-27T09:18:14Z</time>
   </trkpt>
   <trkpt lat="12.8912400" lon="99.7282660">
    <ele>81.5</ele>
    <time>2018-01-27T09:18:15Z</time>
   </trkpt>
   <trkpt lat="12.8912630" lon="99.7283060">
    <ele>81.1</ele>
    <time>2018-01-27T09:18:16Z</time>
   </trkpt>
   <trkpt lat="12.8912960" lon="99.7283450">
    <ele>81.1</ele>
    <time>2018-01-27T09:18:17Z</time>
   </trkpt>
   <trkpt lat="12.8913400" lon="99.7283790">
    <ele>80.6</ele>
    <time>2018-01-27T09:18:18Z</time>
   </trkpt>
   <trkpt lat="12.8913620" lon="99.7284240">
    <ele>80.5</ele>
    <time>2018-01-27T09:18:20Z</time>
   </trkpt>
   <trkpt lat="12.8913850" lon="99.7284420">
    <ele>80.6</ele>
    <time>2018-01-27T09:18:21Z</time>
   </trkpt>
   <trkpt lat="12.8913710" lon="99.7284690">
    <ele>80.5</ele>
    <time>2018-01-27T09:18:22Z</time>
   </trkpt>
   <trkpt lat="12.8913590" lon="99.7285040">
    <ele>80.5</ele>
    <time>2018-01-27T09:18:24Z</time>
   </trkpt>
   <trkpt lat="12.8913470" lon="99.7285390">
    <ele>80.6</ele>
    <time>2018-01-27T09:18:28Z</time>
   </trkpt>
   <trkpt lat="12.8913640" lon="99.7285640">
    <ele>80.6</ele>
    <time>2018-01-27T09:18:34Z</time>
   </trkpt>
   <trkpt lat="12.8913740" lon="99.7285930">
    <ele>80.9</ele>
    <time>2018-01-27T09:18:37Z</time>
   </trkpt>
   <trkpt lat="12.8913980" lon="99.7286110">
    <ele>81.4</ele>
    <time>2018-01-27T09:18:46Z</time>
   </trkpt>
   <trkpt lat="12.8914260" lon="99.7286040">
    <ele>81.2</ele>
    <time>2018-01-27T09:18:51Z</time>
   </trkpt>
   <trkpt lat="12.8914610" lon="99.7285980">
    <ele>81.2</ele>
    <time>2018-01-27T09:18:56Z</time>
   </trkpt>
   <trkpt lat="12.8915000" lon="99.7286030">
    <ele>81.4</ele>
    <time>2018-01-27T09:18:59Z</time>
   </trkpt>
   <trkpt lat="12.8915390" lon="99.7285940">
    <ele>81.8</ele>
    <time>2018-01-27T09:19:02Z</time>
   </trkpt>
   <trkpt lat="12.8915780" lon="99.7285910">
    <ele>82.2</ele>
    <time>2018-01-27T09:19:05Z</time>
   </trkpt>
   <trkpt lat="12.8916100" lon="99.7285840">
    <ele>82.6</ele>
    <time>2018-01-27T09:19:07Z</time>
   </trkpt>
   <trkpt lat="12.8916380" lon="99.7285690">
    <ele>83.1</ele>
    <time>2018-01-27T09:19:09Z</time>
   </trkpt>
   <trkpt lat="12.8916650" lon="99.7285490">
    <ele>82.7</ele>
    <time>2018-01-27T09:19:11Z</time>
   </trkpt>
   <trkpt lat="12.8916890" lon="99.7285280">
    <ele>83.1</ele>
    <time>2018-01-27T09:19:13Z</time>
   </trkpt>
   <trkpt lat="12.8917140" lon="99.7285060">
    <ele>82.6</ele>
    <time>2018-01-27T09:19:15Z</time>
   </trkpt>
   <trkpt lat="12.8917270" lon="99.7284810">
    <ele>82.9</ele>
    <time>2018-01-27T09:19:17Z</time>
   </trkpt>
   <trkpt lat="12.8917190" lon="99.7284490">
    <ele>82.5</ele>
    <time>2018-01-27T09:19:19Z</time>
   </trkpt>
   <trkpt lat="12.8917170" lon="99.7284200">
    <ele>82.1</ele>
    <time>2018-01-27T09:19:21Z</time>
   </trkpt>
   <trkpt lat="12.8917390" lon="99.7283950">
    <ele>82.1</ele>
    <time>2018-01-27T09:19:24Z</time>
   </trkpt>
   <trkpt lat="12.8917660" lon="99.7283730">
    <ele>81.9</ele>
    <time>2018-01-27T09:19:28Z</time>
   </trkpt>
   <trkpt lat="12.8917780" lon="99.7283430">
    <ele>81.7</ele>
    <time>2018-01-27T09:19:31Z</time>
   </trkpt>
   <trkpt lat="12.8917930" lon="99.7283180">
    <ele>81.7</ele>
    <time>2018-01-27T09:19:34Z</time>
   </trkpt>
   <trkpt lat="12.8918240" lon="99.7283070">
    <ele>81.5</ele>
    <time>2018-01-27T09:19:41Z</time>
   </trkpt>
   <trkpt lat="12.8918500" lon="99.7282950">
    <ele>81.5</ele>
    <time>2018-01-27T09:19:45Z</time>
   </trkpt>
   <trkpt lat="12.8918610" lon="99.7282640">
    <ele>81.4</ele>
    <time>2018-01-27T09:19:48Z</time>
   </trkpt>
   <trkpt lat="12.8918650" lon="99.7282310">
    <ele>81.4</ele>
    <time>2018-01-27T09:19:51Z</time>
   </trkpt>
   <trkpt lat="12.8918820" lon="99.7281980">
    <ele>81.5</ele>
    <time>2018-01-27T09:19:55Z</time>
   </trkpt>
   <trkpt lat="12.8918940" lon="99.7281700">
    <ele>81.5</ele>
    <time>2018-01-27T09:19:57Z</time>
   </trkpt>
   <trkpt lat="12.8919060" lon="99.7281330">
    <ele>81.6</ele>
    <time>2018-01-27T09:20:01Z</time>
   </trkpt>
   <trkpt lat="12.8918920" lon="99.7281040">
    <ele>81.6</ele>
    <time>2018-01-27T09:20:04Z</time>
   </trkpt>
   <trkpt lat="12.8918720" lon="99.7280850">
    <ele>81.6</ele>
    <time>2018-01-27T09:20:06Z</time>
   </trkpt>
   <trkpt lat="12.8918510" lon="99.7280670">
    <ele>81.6</ele>
    <time>2018-01-27T09:20:08Z</time>
   </trkpt>
   <trkpt lat="12.8918290" lon="99.7280400">
    <ele>81.5</ele>
    <time>2018-01-27T09:20:11Z</time>
   </trkpt>
   <trkpt lat="12.8918070" lon="99.7280110">
    <ele>81.5</ele>
    <time>2018-01-27T09:20:14Z</time>
   </trkpt>
   <trkpt lat="12.8917970" lon="99.7279810">
    <ele>81.5</ele>
    <time>2018-01-27T09:20:17Z</time>
   </trkpt>
   <trkpt lat="12.8918030" lon="99.7279460">
    <ele>81.5</ele>
    <time>2018-01-27T09:20:21Z</time>
   </trkpt>
   <trkpt lat="12.8918250" lon="99.7279280">
    <ele>81.5</ele>
    <time>2018-01-27T09:20:24Z</time>
   </trkpt>
   <trkpt lat="12.8918520" lon="99.7279050">
    <ele>81.5</ele>
    <time>2018-01-27T09:20:28Z</time>
   </trkpt>
   <trkpt lat="12.8918630" lon="99.7278780">
    <ele>81.5</ele>
    <time>2018-01-27T09:20:31Z</time>
   </trkpt>
   <trkpt lat="12.8918970" lon="99.7278670">
    <ele>81.6</ele>
    <time>2018-01-27T09:20:36Z</time>
   </trkpt>
   <trkpt lat="12.8919110" lon="99.7278320">
    <ele>81.6</ele>
    <time>2018-01-27T09:20:39Z</time>
   </trkpt>
   <trkpt lat="12.8919190" lon="99.7277930">
    <ele>81.6</ele>
    <time>2018-01-27T09:20:42Z</time>
   </trkpt>
   <trkpt lat="12.8919290" lon="99.7277640">
    <ele>81.9</ele>
    <time>2018-01-27T09:20:45Z</time>
   </trkpt>
   <trkpt lat="12.8919450" lon="99.7277410">
    <ele>81.9</ele>
    <time>2018-01-27T09:20:48Z</time>
   </trkpt>
   <trkpt lat="12.8919750" lon="99.7277370">
    <ele>82.2</ele>
    <time>2018-01-27T09:20:52Z</time>
   </trkpt>
   <trkpt lat="12.8920080" lon="99.7277350">
    <ele>82.2</ele>
    <time>2018-01-27T09:20:56Z</time>
   </trkpt>
   <trkpt lat="12.8920350" lon="99.7277320">
    <ele>82.5</ele>
    <time>2018-01-27T09:21:00Z</time>
   </trkpt>
   <trkpt lat="12.8920620" lon="99.7277320">
    <ele>82.7</ele>
    <time>2018-01-27T09:21:05Z</time>
   </trkpt>
   <trkpt lat="12.8920970" lon="99.7277340">
    <ele>83.0</ele>
    <time>2018-01-27T09:21:11Z</time>
   </trkpt>
   <trkpt lat="12.8921290" lon="99.7277290">
    <ele>83.0</ele>
    <time>2018-01-27T09:21:14Z</time>
   </trkpt>
   <trkpt lat="12.8921590" lon="99.7277450">
    <ele>83.2</ele>
    <time>2018-01-27T09:21:17Z</time>
   </trkpt>
   <trkpt lat="12.8921710" lon="99.7277770">
    <ele>83.3</ele>
    <time>2018-01-27T09:21:20Z</time>
   </trkpt>
   <trkpt lat="12.8921850" lon="99.7278090">
    <ele>83.5</ele>
    <time>2018-01-27T09:21:24Z</time>
   </trkpt>
   <trkpt lat="12.8922130" lon="99.7278320">
    <ele>83.5</ele>
    <time>2018-01-27T09:21:28Z</time>
   </trkpt>
   <trkpt lat="12.8922430" lon="99.7278460">
    <ele>83.7</ele>
    <time>2018-01-27T09:21:31Z</time>
   </trkpt>
   <trkpt lat="12.8922620" lon="99.7278690">
    <ele>83.9</ele>
    <time>2018-01-27T09:21:34Z</time>
   </trkpt>
   <trkpt lat="12.8922860" lon="99.7278840">
    <ele>83.9</ele>
    <time>2018-01-27T09:21:37Z</time>
   </trkpt>
   <trkpt lat="12.8923140" lon="99.7278920">
    <ele>84.1</ele>
    <time>2018-01-27T09:21:40Z</time>
   </trkpt>
   <trkpt lat="12.8923510" lon="99.7278970">
    <ele>84.3</ele>
    <time>2018-01-27T09:21:44Z</time>
   </trkpt>
   <trkpt lat="12.8923800" lon="99.7279080">
    <ele>84.3</ele>
    <time>2018-01-27T09:21:47Z</time>
   </trkpt>
   <trkpt lat="12.8924050" lon="99.7279210">
    <ele>84.4</ele>
    <time>2018-01-27T09:21:49Z</time>
   </trkpt>
   <trkpt lat="12.8924460" lon="99.7279320">
    <ele>84.6</ele>
    <time>2018-01-27T09:21:51Z</time>
   </trkpt>
   <trkpt lat="12.8924770" lon="99.7279420">
    <ele>84.6</ele>
    <time>2018-01-27T09:21:53Z</time>
   </trkpt>
   <trkpt lat="12.8925020" lon="99.7279560">
    <ele>84.6</ele>
    <time>2018-01-27T09:21:56Z</time>
   </trkpt>
   <trkpt lat="12.8925270" lon="99.7279730">
    <ele>84.6</ele>
    <time>2018-01-27T09:21:59Z</time>
   </trkpt>
   <trkpt lat="12.8925560" lon="99.7279850">
    <ele>84.6</ele>
    <time>2018-01-27T09:22:03Z</time>
   </trkpt>
   <trkpt lat="12.8925980" lon="99.7279820">
    <ele>84.6</ele>
    <time>2018-01-27T09:22:05Z</time>
   </trkpt>
   <trkpt lat="12.8926410" lon="99.7279870">
    <ele>84.7</ele>
    <time>2018-01-27T09:22:07Z</time>
   </trkpt>
   <trkpt lat="12.8926720" lon="99.7279920">
    <ele>84.7</ele>
    <time>2018-01-27T09:22:09Z</time>
   </trkpt>
   <trkpt lat="12.8927120" lon="99.7279920">
    <ele>84.7</ele>
    <time>2018-01-27T09:22:11Z</time>
   </trkpt>
   <trkpt lat="12.8927550" lon="99.7279900">
    <ele>84.8</ele>
    <time>2018-01-27T09:22:13Z</time>
   </trkpt>
   <trkpt lat="12.8927920" lon="99.7279930">
    <ele>84.8</ele>
    <time>2018-01-27T09:22:15Z</time>
   </trkpt>
   <trkpt lat="12.8928310" lon="99.7280050">
    <ele>84.8</ele>
    <time>2018-01-27T09:22:17Z</time>
   </trkpt>
   <trkpt lat="12.8928810" lon="99.7280220">
    <ele>85.2</ele>
    <time>2018-01-27T09:22:19Z</time>
   </trkpt>
   <trkpt lat="12.8929240" lon="99.7280320">
    <ele>85.2</ele>
    <time>2018-01-27T09:22:21Z</time>
   </trkpt>
   <trkpt lat="12.8929660" lon="99.7280440">
    <ele>85.2</ele>
    <time>2018-01-27T09:22:23Z</time>
   </trkpt>
   <trkpt lat="12.8930070" lon="99.7280520">
    <ele>85.3</ele>
    <time>2018-01-27T09:22:25Z</time>
   </trkpt>
   <trkpt lat="12.8930520" lon="99.7280660">
    <ele>85.3</ele>
    <time>2018-01-27T09:22:27Z</time>
   </trkpt>
   <trkpt lat="12.8930810" lon="99.7280760">
    <ele>85.4</ele>
    <time>2018-01-27T09:22:28Z</time>
   </trkpt>
   <trkpt lat="12.8931260" lon="99.7280930">
    <ele>85.5</ele>
    <time>2018-01-27T09:22:30Z</time>
   </trkpt>
   <trkpt lat="12.8931610" lon="99.7281070">
    <ele>86.1</ele>
    <time>2018-01-27T09:22:31Z</time>
   </trkpt>
   <trkpt lat="12.8932120" lon="99.7281200">
    <ele>86.2</ele>
    <time>2018-01-27T09:22:33Z</time>
   </trkpt>
   <trkpt lat="12.8932420" lon="99.7281280">
    <ele>86.2</ele>
    <time>2018-01-27T09:22:34Z</time>
   </trkpt>
   <trkpt lat="12.8932780" lon="99.7281360">
    <ele>86.0</ele>
    <time>2018-01-27T09:22:35Z</time>
   </trkpt>
   <trkpt lat="12.8933190" lon="99.7281440">
    <ele>86.5</ele>
    <time>2018-01-27T09:22:36Z</time>
   </trkpt>
   <trkpt lat="12.8933510" lon="99.7281490">
    <ele>86.1</ele>
    <time>2018-01-27T09:22:37Z</time>
   </trkpt>
   <trkpt lat="12.8933920" lon="99.7281550">
    <ele>85.8</ele>
    <time>2018-01-27T09:22:38Z</time>
   </trkpt>
   <trkpt lat="12.8934340" lon="99.7281600">
    <ele>85.5</ele>
    <time>2018-01-27T09:22:39Z</time>
   </trkpt>
   <trkpt lat="12.8934760" lon="99.7281640">
    <ele>85.2</ele>
    <time>2018-01-27T09:22:40Z</time>
   </trkpt>
   <trkpt lat="12.8935130" lon="99.7281700">
    <ele>85.2</ele>
    <time>2018-01-27T09:22:41Z</time>
   </trkpt>
   <trkpt lat="12.8935420" lon="99.7281750">
    <ele>85.0</ele>
    <time>2018-01-27T09:22:42Z</time>
   </trkpt>
   <trkpt lat="12.8935880" lon="99.7281820">
    <ele>85.5</ele>
    <time>2018-01-27T09:22:44Z</time>
   </trkpt>
   <trkpt lat="12.8936200" lon="99.7281820">
    <ele>85.4</ele>
    <time>2018-01-27T09:22:45Z</time>
   </trkpt>
   <trkpt lat="12.8936530" lon="99.7281800">
    <ele>85.4</ele>
    <time>2018-01-27T09:22:46Z</time>
   </trkpt>
   <trkpt lat="12.8936880" lon="99.7281760">
    <ele>84.8</ele>
    <time>2018-01-27T09:22:47Z</time>
   </trkpt>
   <trkpt lat="12.8937300" lon="99.7281710">
    <ele>85.0</ele>
    <time>2018-01-27T09:22:48Z</time>
   </trkpt>
   <trkpt lat="12.8937690" lon="99.7281660">
    <ele>85.2</ele>
    <time>2018-01-27T09:22:49Z</time>
   </trkpt>
   <trkpt lat="12.8938030" lon="99.7281640">
    <ele>85.2</ele>
    <time>2018-01-27T09:22:50Z</time>
   </trkpt>
   <trkpt lat="12.8938580" lon="99.7281700">
    <ele>85.8</ele>
    <time>2018-01-27T09:22:52Z</time>
   </trkpt>
   <trkpt lat="12.8938870" lon="99.7281720">
    <ele>85.8</ele>
    <time>2018-01-27T09:22:53Z</time>
   </trkpt>
   <trkpt lat="12.8939150" lon="99.7281710">
    <ele>86.1</ele>
    <time>2018-01-27T09:22:54Z</time>
   </trkpt>
   <trkpt lat="12.8939630" lon="99.7281620">
    <ele>86.4</ele>
    <time>2018-01-27T09:22:56Z</time>
   </trkpt>
   <trkpt lat="12.8939980" lon="99.7281520">
    <ele>86.7</ele>
    <time>2018-01-27T09:22:57Z</time>
   </trkpt>
   <trkpt lat="12.8940330" lon="99.7281430">
    <ele>86.9</ele>
    <time>2018-01-27T09:22:58Z</time>
   </trkpt>
   <trkpt lat="12.8940960" lon="99.7281260">
    <ele>86.2</ele>
    <time>2018-01-27T09:23:00Z</time>
   </trkpt>
   <trkpt lat="12.8941350" lon="99.7281090">
    <ele>86.4</ele>
    <time>2018-01-27T09:23:01Z</time>
   </trkpt>
   <trkpt lat="12.8942200" lon="99.7280660">
    <ele>86.0</ele>
    <time>2018-01-27T09:23:02Z</time>
   </trkpt>
   <trkpt lat="12.8942590" lon="99.7280540">
    <ele>86.4</ele>
    <time>2018-01-27T09:23:03Z</time>
   </trkpt>
   <trkpt lat="12.8942930" lon="99.7280370">
    <ele>86.1</ele>
    <time>2018-01-27T09:23:04Z</time>
   </trkpt>
   <trkpt lat="12.8943280" lon="99.7280200">
    <ele>86.7</ele>
    <time>2018-01-27T09:23:05Z</time>
   </trkpt>
   <trkpt lat="12.8943760" lon="99.7279980">
    <ele>86.6</ele>
    <time>2018-01-27T09:23:06Z</time>
   </trkpt>
   <trkpt lat="12.8944100" lon="99.7280100">
    <ele>87.7</ele>
    <time>2018-01-27T09:23:07Z</time>
   </trkpt>
   <trkpt lat="12.8944430" lon="99.7279990">
    <ele>87.4</ele>
    <time>2018-01-27T09:23:08Z</time>
   </trkpt>
   <trkpt lat="12.8944780" lon="99.7279790">
    <ele>87.7</ele>
    <time>2018-01-27T09:23:09Z</time>
   </trkpt>
   <trkpt lat="12.8945130" lon="99.7279580">
    <ele>86.9</ele>
    <time>2018-01-27T09:23:10Z</time>
   </trkpt>
   <trkpt lat="12.8945400" lon="99.7279390">
    <ele>87.1</ele>
    <time>2018-01-27T09:23:11Z</time>
   </trkpt>
   <trkpt lat="12.8945810" lon="99.7279060">
    <ele>86.3</ele>
    <time>2018-01-27T09:23:13Z</time>
   </trkpt>
   <trkpt lat="12.8946200" lon="99.7278850">
    <ele>86.3</ele>
    <time>2018-01-27T09:23:15Z</time>
   </trkpt>
   <trkpt lat="12.8946580" lon="99.7278670">
    <ele>85.2</ele>
    <time>2018-01-27T09:23:17Z</time>
   </trkpt>
   <trkpt lat="12.8946990" lon="99.7278350">
    <ele>84.1</ele>
    <time>2018-01-27T09:23:19Z</time>
   </trkpt>
   <trkpt lat="12.8947300" lon="99.7278190">
    <ele>83.9</ele>
    <time>2018-01-27T09:23:20Z</time>
   </trkpt>
   <trkpt lat="12.8947590" lon="99.7278060">
    <ele>83.9</ele>
    <time>2018-01-27T09:23:21Z</time>
   </trkpt>
   <trkpt lat="12.8947890" lon="99.7277900">
    <ele>83.1</ele>
    <time>2018-01-27T09:23:22Z</time>
   </trkpt>
   <trkpt lat="12.8948240" lon="99.7277700">
    <ele>83.0</ele>
    <time>2018-01-27T09:23:23Z</time>
   </trkpt>
   <trkpt lat="12.8948590" lon="99.7277500">
    <ele>83.2</ele>
    <time>2018-01-27T09:23:24Z</time>
   </trkpt>
   <trkpt lat="12.8948910" lon="99.7277390">
    <ele>82.9</ele>
    <time>2018-01-27T09:23:25Z</time>
   </trkpt>
   <trkpt lat="12.8949230" lon="99.7277100">
    <ele>83.1</ele>
    <time>2018-01-27T09:23:26Z</time>
   </trkpt>
   <trkpt lat="12.8949510" lon="99.7276920">
    <ele>83.1</ele>
    <time>2018-01-27T09:23:27Z</time>
   </trkpt>
   <trkpt lat="12.8949830" lon="99.7276710">
    <ele>83.4</ele>
    <time>2018-01-27T09:23:29Z</time>
   </trkpt>
   <trkpt lat="12.8950200" lon="99.7276560">
    <ele>82.8</ele>
    <time>2018-01-27T09:23:32Z</time>
   </trkpt>
   <trkpt lat="12.8950520" lon="99.7276390">
    <ele>82.9</ele>
    <time>2018-01-27T09:23:34Z</time>
   </trkpt>
   <trkpt lat="12.8950790" lon="99.7276250">
    <ele>82.9</ele>
    <time>2018-01-27T09:23:36Z</time>
   </trkpt>
   <trkpt lat="12.8951070" lon="99.7276220">
    <ele>82.9</ele>
    <time>2018-01-27T09:23:38Z</time>
   </trkpt>
   <trkpt lat="12.8951490" lon="99.7276020">
    <ele>82.2</ele>
    <time>2018-01-27T09:23:40Z</time>
   </trkpt>
   <trkpt lat="12.8951760" lon="99.7275890">
    <ele>82.2</ele>
    <time>2018-01-27T09:23:41Z</time>
   </trkpt>
   <trkpt lat="12.8952060" lon="99.7275770">
    <ele>81.7</ele>
    <time>2018-01-27T09:23:42Z</time>
   </trkpt>
   <trkpt lat="12.8952440" lon="99.7275550">
    <ele>81.8</ele>
    <time>2018-01-27T09:23:44Z</time>
   </trkpt>
   <trkpt lat="12.8952850" lon="99.7275240">
    <ele>81.1</ele>
    <time>2018-01-27T09:23:46Z</time>
   </trkpt>
   <trkpt lat="12.8953310" lon="99.7275000">
    <ele>81.0</ele>
    <time>2018-01-27T09:23:48Z</time>
   </trkpt>
   <trkpt lat="12.8953610" lon="99.7274880">
    <ele>80.0</ele>
    <time>2018-01-27T09:23:49Z</time>
   </trkpt>
   <trkpt lat="12.8953920" lon="99.7274750">
    <ele>80.0</ele>
    <time>2018-01-27T09:23:50Z</time>
   </trkpt>
   <trkpt lat="12.8954220" lon="99.7274650">
    <ele>80.0</ele>
    <time>2018-01-27T09:23:51Z</time>
   </trkpt>
   <trkpt lat="12.8954560" lon="99.7274560">
    <ele>80.1</ele>
    <time>2018-01-27T09:23:52Z</time>
   </trkpt>
   <trkpt lat="12.8954930" lon="99.7274500">
    <ele>80.3</ele>
    <time>2018-01-27T09:23:53Z</time>
   </trkpt>
   <trkpt lat="12.8955310" lon="99.7274450">
    <ele>80.2</ele>
    <time>2018-01-27T09:23:54Z</time>
   </trkpt>
   <trkpt lat="12.8955680" lon="99.7274410">
    <ele>80.4</ele>
    <time>2018-01-27T09:23:55Z</time>
   </trkpt>
   <trkpt lat="12.8956060" lon="99.7274380">
    <ele>80.4</ele>
    <time>2018-01-27T09:23:56Z</time>
   </trkpt>
   <trkpt lat="12.8956580" lon="99.7274290">
    <ele>80.5</ele>
    <time>2018-01-27T09:23:57Z</time>
   </trkpt>
   <trkpt lat="12.8956950" lon="99.7274370">
    <ele>80.4</ele>
    <time>2018-01-27T09:23:58Z</time>
   </trkpt>
   <trkpt lat="12.8957320" lon="99.7274450">
    <ele>80.4</ele>
    <time>2018-01-27T09:23:59Z</time>
   </trkpt>
   <trkpt lat="12.8957670" lon="99.7274480">
    <ele>80.4</ele>
    <time>2018-01-27T09:24:00Z</time>
   </trkpt>
   <trkpt lat="12.8958100" lon="99.7274590">
    <ele>80.7</ele>
    <time>2018-01-27T09:24:01Z</time>
   </trkpt>
   <trkpt lat="12.8958460" lon="99.7274660">
    <ele>80.8</ele>
    <time>2018-01-27T09:24:02Z</time>
   </trkpt>
   <trkpt lat="12.8958810" lon="99.7274740">
    <ele>80.8</ele>
    <time>2018-01-27T09:24:03Z</time>
   </trkpt>
   <trkpt lat="12.8959080" lon="99.7274820">
    <ele>80.7</ele>
    <time>2018-01-27T09:24:05Z</time>
   </trkpt>
   <trkpt lat="12.8959400" lon="99.7274910">
    <ele>80.7</ele>
    <time>2018-01-27T09:24:06Z</time>
   </trkpt>
   <trkpt lat="12.8959780" lon="99.7275000">
    <ele>80.8</ele>
    <time>2018-01-27T09:24:07Z</time>
   </trkpt>
   <trkpt lat="12.8960110" lon="99.7275060">
    <ele>80.6</ele>
    <time>2018-01-27T09:24:08Z</time>
   </trkpt>
   <trkpt lat="12.8960450" lon="99.7275120">
    <ele>80.3</ele>
    <time>2018-01-27T09:24:09Z</time>
   </trkpt>
   <trkpt lat="12.8960810" lon="99.7275200">
    <ele>79.9</ele>
    <time>2018-01-27T09:24:10Z</time>
   </trkpt>
   <trkpt lat="12.8961180" lon="99.7275300">
    <ele>79.4</ele>
    <time>2018-01-27T09:24:11Z</time>
   </trkpt>
   <trkpt lat="12.8961560" lon="99.7275410">
    <ele>79.3</ele>
    <time>2018-01-27T09:24:12Z</time>
   </trkpt>
   <trkpt lat="12.8961980" lon="99.7275520">
    <ele>78.9</ele>
    <time>2018-01-27T09:24:13Z</time>
   </trkpt>
   <trkpt lat="12.8962410" lon="99.7275620">
    <ele>78.5</ele>
    <time>2018-01-27T09:24:14Z</time>
   </trkpt>
   <trkpt lat="12.8962870" lon="99.7275710">
    <ele>78.0</ele>
    <time>2018-01-27T09:24:15Z</time>
   </trkpt>
   <trkpt lat="12.8963390" lon="99.7275810">
    <ele>78.1</ele>
    <time>2018-01-27T09:24:16Z</time>
   </trkpt>
   <trkpt lat="12.8963920" lon="99.7275930">
    <ele>77.6</ele>
    <time>2018-01-27T09:24:17Z</time>
   </trkpt>
   <trkpt lat="12.8964440" lon="99.7276040">
    <ele>76.9</ele>
    <time>2018-01-27T09:24:18Z</time>
   </trkpt>
   <trkpt lat="12.8964990" lon="99.7276170">
    <ele>76.7</ele>
    <time>2018-01-27T09:24:19Z</time>
   </trkpt>
   <trkpt lat="12.8965560" lon="99.7276310">
    <ele>76.9</ele>
    <time>2018-01-27T09:24:20Z</time>
   </trkpt>
   <trkpt lat="12.8966120" lon="99.7276440">
    <ele>76.4</ele>
    <time>2018-01-27T09:24:21Z</time>
   </trkpt>
   <trkpt lat="12.8966670" lon="99.7276580">
    <ele>76.1</ele>
    <time>2018-01-27T09:24:22Z</time>
   </trkpt>
   <trkpt lat="12.8967200" lon="99.7276710">
    <ele>76.2</ele>
    <time>2018-01-27T09:24:23Z</time>
   </trkpt>
   <trkpt lat="12.8967710" lon="99.7276800">
    <ele>76.0</ele>
    <time>2018-01-27T09:24:24Z</time>
   </trkpt>
   <trkpt lat="12.8968220" lon="99.7276870">
    <ele>75.9</ele>
    <time>2018-01-27T09:24:25Z</time>
   </trkpt>
   <trkpt lat="12.8968720" lon="99.7276890">
    <ele>75.9</ele>
    <time>2018-01-27T09:24:26Z</time>
   </trkpt>
   <trkpt lat="12.8969190" lon="99.7276880">
    <ele>76.1</ele>
    <time>2018-01-27T09:24:27Z</time>
   </trkpt>
   <trkpt lat="12.8969620" lon="99.7276870">
    <ele>76.3</ele>
    <time>2018-01-27T09:24:28Z</time>
   </trkpt>
   <trkpt lat="12.8970030" lon="99.7276880">
    <ele>76.5</ele>
    <time>2018-01-27T09:24:29Z</time>
   </trkpt>
   <trkpt lat="12.8970450" lon="99.7276930">
    <ele>76.6</ele>
    <time>2018-01-27T09:24:30Z</time>
   </trkpt>
   <trkpt lat="12.8970900" lon="99.7277040">
    <ele>76.7</ele>
    <time>2018-01-27T09:24:31Z</time>
   </trkpt>
   <trkpt lat="12.8971340" lon="99.7277120">
    <ele>76.8</ele>
    <time>2018-01-27T09:24:32Z</time>
   </trkpt>
   <trkpt lat="12.8971730" lon="99.7277210">
    <ele>76.7</ele>
    <time>2018-01-27T09:24:33Z</time>
   </trkpt>
   <trkpt lat="12.8972170" lon="99.7277300">
    <ele>76.7</ele>
    <time>2018-01-27T09:24:34Z</time>
   </trkpt>
   <trkpt lat="12.8972560" lon="99.7277380">
    <ele>76.7</ele>
    <time>2018-01-27T09:24:35Z</time>
   </trkpt>
   <trkpt lat="12.8972940" lon="99.7277530">
    <ele>77.3</ele>
    <time>2018-01-27T09:24:36Z</time>
   </trkpt>
   <trkpt lat="12.8973300" lon="99.7277700">
    <ele>77.4</ele>
    <time>2018-01-27T09:24:37Z</time>
   </trkpt>
   <trkpt lat="12.8973660" lon="99.7277850">
    <ele>77.4</ele>
    <time>2018-01-27T09:24:38Z</time>
   </trkpt>
   <trkpt lat="12.8973940" lon="99.7278010">
    <ele>77.9</ele>
    <time>2018-01-27T09:24:39Z</time>
   </trkpt>
   <trkpt lat="12.8974220" lon="99.7278180">
    <ele>77.8</ele>
    <time>2018-01-27T09:24:40Z</time>
   </trkpt>
   <trkpt lat="12.8974490" lon="99.7278350">
    <ele>77.5</ele>
    <time>2018-01-27T09:24:41Z</time>
   </trkpt>
   <trkpt lat="12.8974740" lon="99.7278520">
    <ele>78.0</ele>
    <time>2018-01-27T09:24:42Z</time>
   </trkpt>
   <trkpt lat="12.8974970" lon="99.7278660">
    <ele>77.5</ele>
    <time>2018-01-27T09:24:43Z</time>
   </trkpt>
   <trkpt lat="12.8975750" lon="99.7279120">
    <ele>77.2</ele>
    <time>2018-01-27T09:24:44Z</time>
   </trkpt>
   <trkpt lat="12.8976070" lon="99.7279290">
    <ele>77.8</ele>
    <time>2018-01-27T09:24:45Z</time>
   </trkpt>
   <trkpt lat="12.8976440" lon="99.7279490">
    <ele>77.5</ele>
    <time>2018-01-27T09:24:46Z</time>
   </trkpt>
   <trkpt lat="12.8976800" lon="99.7279690">
    <ele>78.1</ele>
    <time>2018-01-27T09:24:47Z</time>
   </trkpt>
   <trkpt lat="12.8977160" lon="99.7279920">
    <ele>78.0</ele>
    <time>2018-01-27T09:24:48Z</time>
   </trkpt>
   <trkpt lat="12.8977520" lon="99.7280170">
    <ele>79.0</ele>
    <time>2018-01-27T09:24:49Z</time>
   </trkpt>
   <trkpt lat="12.8977830" lon="99.7280380">
    <ele>79.1</ele>
    <time>2018-01-27T09:24:50Z</time>
   </trkpt>
   <trkpt lat="12.8978110" lon="99.7280570">
    <ele>80.0</ele>
    <time>2018-01-27T09:24:51Z</time>
   </trkpt>
   <trkpt lat="12.8978380" lon="99.7280750">
    <ele>80.1</ele>
    <time>2018-01-27T09:24:52Z</time>
   </trkpt>
   <trkpt lat="12.8978620" lon="99.7280920">
    <ele>80.1</ele>
    <time>2018-01-27T09:24:53Z</time>
   </trkpt>
   <trkpt lat="12.8979040" lon="99.7281290">
    <ele>81.1</ele>
    <time>2018-01-27T09:24:55Z</time>
   </trkpt>
   <trkpt lat="12.8979270" lon="99.7281490">
    <ele>82.2</ele>
    <time>2018-01-27T09:24:56Z</time>
   </trkpt>
   <trkpt lat="12.8979520" lon="99.7281710">
    <ele>82.5</ele>
    <time>2018-01-27T09:24:57Z</time>
   </trkpt>
   <trkpt lat="12.8979770" lon="99.7281910">
    <ele>83.4</ele>
    <time>2018-01-27T09:24:58Z</time>
   </trkpt>
   <trkpt lat="12.8980870" lon="99.7282710">
    <ele>84.8</ele>
    <time>2018-01-27T09:25:00Z</time>
   </trkpt>
   <trkpt lat="12.8981110" lon="99.7282900">
    <ele>84.8</ele>
    <time>2018-01-27T09:25:01Z</time>
   </trkpt>
   <trkpt lat="12.8981440" lon="99.7283090">
    <ele>84.6</ele>
    <time>2018-01-27T09:25:02Z</time>
   </trkpt>
   <trkpt lat="12.8981740" lon="99.7283270">
    <ele>83.8</ele>
    <time>2018-01-27T09:25:03Z</time>
   </trkpt>
   <trkpt lat="12.8982070" lon="99.7283440">
    <ele>82.9</ele>
    <time>2018-01-27T09:25:04Z</time>
   </trkpt>
   <trkpt lat="12.8982400" lon="99.7283570">
    <ele>83.4</ele>
    <time>2018-01-27T09:25:05Z</time>
   </trkpt>
   <trkpt lat="12.8982810" lon="99.7283650">
    <ele>82.7</ele>
    <time>2018-01-27T09:25:06Z</time>
   </trkpt>
   <trkpt lat="12.8983240" lon="99.7283710">
    <ele>82.1</ele>
    <time>2018-01-27T09:25:07Z</time>
   </trkpt>
   <trkpt lat="12.8983640" lon="99.7283780">
    <ele>81.6</ele>
    <time>2018-01-27T09:25:08Z</time>
   </trkpt>
   <trkpt lat="12.8984000" lon="99.7283880">
    <ele>81.1</ele>
    <time>2018-01-27T09:25:09Z</time>
   </trkpt>
   <trkpt lat="12.8984340" lon="99.7284030">
    <ele>80.8</ele>
    <time>2018-01-27T09:25:10Z</time>
   </trkpt>
   <trkpt lat="12.8984690" lon="99.7284200">
    <ele>80.1</ele>
    <time>2018-01-27T09:25:11Z</time>
   </trkpt>
   <trkpt lat="12.8985060" lon="99.7284360">
    <ele>79.6</ele>
    <time>2018-01-27T09:25:12Z</time>
   </trkpt>
   <trkpt lat="12.8985450" lon="99.7284510">
    <ele>79.4</ele>
    <time>2018-01-27T09:25:13Z</time>
   </trkpt>
   <trkpt lat="12.8985810" lon="99.7284660">
    <ele>79.2</ele>
    <time>2018-01-27T09:25:14Z</time>
   </trkpt>
   <trkpt lat="12.8986190" lon="99.7284780">
    <ele>79.1</ele>
    <time>2018-01-27T09:25:15Z</time>
   </trkpt>
   <trkpt lat="12.8986590" lon="99.7284890">
    <ele>79.6</ele>
    <time>2018-01-27T09:25:16Z</time>
   </trkpt>
   <trkpt lat="12.8986980" lon="99.7285010">
    <ele>79.7</ele>
    <time>2018-01-27T09:25:17Z</time>
   </trkpt>
   <trkpt lat="12.8987420" lon="99.7285090">
    <ele>79.9</ele>
    <time>2018-01-27T09:25:18Z</time>
   </trkpt>
   <trkpt lat="12.8987860" lon="99.7285130">
    <ele>80.3</ele>
    <time>2018-01-27T09:25:19Z</time>
   </trkpt>
   <trkpt lat="12.8988260" lon="99.7285130">
    <ele>80.3</ele>
    <time>2018-01-27T09:25:20Z</time>
   </trkpt>
   <trkpt lat="12.8988670" lon="99.7285130">
    <ele>80.6</ele>
    <time>2018-01-27T09:25:21Z</time>
   </trkpt>
   <trkpt lat="12.8989060" lon="99.7285140">
    <ele>80.8</ele>
    <time>2018-01-27T09:25:22Z</time>
   </trkpt>
   <trkpt lat="12.8989410" lon="99.7285180">
    <ele>81.1</ele>
    <time>2018-01-27T09:25:23Z</time>
   </trkpt>
   <trkpt lat="12.8989760" lon="99.7285250">
    <ele>81.9</ele>
    <time>2018-01-27T09:25:24Z</time>
   </trkpt>
   <trkpt lat="12.8990100" lon="99.7285350">
    <ele>82.0</ele>
    <time>2018-01-27T09:25:25Z</time>
   </trkpt>
   <trkpt lat="12.8990460" lon="99.7285430">
    <ele>82.0</ele>
    <time>2018-01-27T09:25:26Z</time>
   </trkpt>
   <trkpt lat="12.8990800" lon="99.7285510">
    <ele>81.9</ele>
    <time>2018-01-27T09:25:27Z</time>
   </trkpt>
   <trkpt lat="12.8991160" lon="99.7285590">
    <ele>81.9</ele>
    <time>2018-01-27T09:25:28Z</time>
   </trkpt>
   <trkpt lat="12.8991530" lon="99.7285660">
    <ele>82.1</ele>
    <time>2018-01-27T09:25:29Z</time>
   </trkpt>
   <trkpt lat="12.8991900" lon="99.7285740">
    <ele>82.1</ele>
    <time>2018-01-27T09:25:30Z</time>
   </trkpt>
   <trkpt lat="12.8992250" lon="99.7285850">
    <ele>82.1</ele>
    <time>2018-01-27T09:25:31Z</time>
   </trkpt>
   <trkpt lat="12.8992590" lon="99.7286010">
    <ele>82.1</ele>
    <time>2018-01-27T09:25:32Z</time>
   </trkpt>
   <trkpt lat="12.8992900" lon="99.7286200">
    <ele>82.2</ele>
    <time>2018-01-27T09:25:33Z</time>
   </trkpt>
   <trkpt lat="12.8993220" lon="99.7286410">
    <ele>82.2</ele>
    <time>2018-01-27T09:25:34Z</time>
   </trkpt>
   <trkpt lat="12.8993560" lon="99.7286590">
    <ele>82.2</ele>
    <time>2018-01-27T09:25:35Z</time>
   </trkpt>
   <trkpt lat="12.8993910" lon="99.7286750">
    <ele>81.8</ele>
    <time>2018-01-27T09:25:36Z</time>
   </trkpt>
   <trkpt lat="12.8994290" lon="99.7286910">
    <ele>81.4</ele>
    <time>2018-01-27T09:25:37Z</time>
   </trkpt>
   <trkpt lat="12.8994690" lon="99.7287060">
    <ele>81.4</ele>
    <time>2018-01-27T09:25:38Z</time>
   </trkpt>
   <trkpt lat="12.8995090" lon="99.7287230">
    <ele>80.9</ele>
    <time>2018-01-27T09:25:39Z</time>
   </trkpt>
   <trkpt lat="12.8995480" lon="99.7287410">
    <ele>80.9</ele>
    <time>2018-01-27T09:25:40Z</time>
   </trkpt>
   <trkpt lat="12.8995840" lon="99.7287620">
    <ele>80.4</ele>
    <time>2018-01-27T09:25:41Z</time>
   </trkpt>
   <trkpt lat="12.8996180" lon="99.7287860">
    <ele>80.9</ele>
    <time>2018-01-27T09:25:42Z</time>
   </trkpt>
   <trkpt lat="12.8996500" lon="99.7288090">
    <ele>80.4</ele>
    <time>2018-01-27T09:25:43Z</time>
   </trkpt>
   <trkpt lat="12.8996810" lon="99.7288300">
    <ele>80.3</ele>
    <time>2018-01-27T09:25:44Z</time>
   </trkpt>
   <trkpt lat="12.8997120" lon="99.7288540">
    <ele>79.9</ele>
    <time>2018-01-27T09:25:45Z</time>
   </trkpt>
   <trkpt lat="12.8997460" lon="99.7288760">
    <ele>80.3</ele>
    <time>2018-01-27T09:25:46Z</time>
   </trkpt>
   <trkpt lat="12.8997790" lon="99.7288950">
    <ele>79.9</ele>
    <time>2018-01-27T09:25:47Z</time>
   </trkpt>
   <trkpt lat="12.8998110" lon="99.7289140">
    <ele>80.1</ele>
    <time>2018-01-27T09:25:48Z</time>
   </trkpt>
   <trkpt lat="12.8998410" lon="99.7289350">
    <ele>79.9</ele>
    <time>2018-01-27T09:25:49Z</time>
   </trkpt>
   <trkpt lat="12.8998650" lon="99.7289590">
    <ele>80.5</ele>
    <time>2018-01-27T09:25:50Z</time>
   </trkpt>
   <trkpt lat="12.8998890" lon="99.7289830">
    <ele>80.3</ele>
    <time>2018-01-27T09:25:51Z</time>
   </trkpt>
   <trkpt lat="12.8999140" lon="99.7290060">
    <ele>81.0</ele>
    <time>2018-01-27T09:25:52Z</time>
   </trkpt>
   <trkpt lat="12.8999400" lon="99.7290280">
    <ele>80.7</ele>
    <time>2018-01-27T09:25:53Z</time>
   </trkpt>
   <trkpt lat="12.8999690" lon="99.7290480">
    <ele>80.9</ele>
    <time>2018-01-27T09:25:54Z</time>
   </trkpt>
   <trkpt lat="12.8999970" lon="99.7290650">
    <ele>80.9</ele>
    <time>2018-01-27T09:25:55Z</time>
   </trkpt>
   <trkpt lat="12.9000250" lon="99.7290800">
    <ele>80.3</ele>
    <time>2018-01-27T09:25:56Z</time>
   </trkpt>
   <trkpt lat="12.9000520" lon="99.7290960">
    <ele>80.3</ele>
    <time>2018-01-27T09:25:57Z</time>
   </trkpt>
   <trkpt lat="12.9000770" lon="99.7291130">
    <ele>80.3</ele>
    <time>2018-01-27T09:25:58Z</time>
   </trkpt>
   <trkpt lat="12.9001010" lon="99.7291330">
    <ele>80.3</ele>
    <time>2018-01-27T09:25:59Z</time>
   </trkpt>
   <trkpt lat="12.9001250" lon="99.7291530">
    <ele>79.2</ele>
    <time>2018-01-27T09:26:00Z</time>
   </trkpt>
   <trkpt lat="12.9001490" lon="99.7291700">
    <ele>80.3</ele>
    <time>2018-01-27T09:26:01Z</time>
   </trkpt>
   <trkpt lat="12.9001780" lon="99.7291860">
    <ele>79.2</ele>
    <time>2018-01-27T09:26:02Z</time>
   </trkpt>
   <trkpt lat="12.9002070" lon="99.7292020">
    <ele>79.2</ele>
    <time>2018-01-27T09:26:03Z</time>
   </trkpt>
   <trkpt lat="12.9002350" lon="99.7292190">
    <ele>79.4</ele>
    <time>2018-01-27T09:26:04Z</time>
   </trkpt>
   <trkpt lat="12.9002630" lon="99.7292370">
    <ele>78.7</ele>
    <time>2018-01-27T09:26:05Z</time>
   </trkpt>
   <trkpt lat="12.9002900" lon="99.7292550">
    <ele>79.9</ele>
    <time>2018-01-27T09:26:06Z</time>
   </trkpt>
   <trkpt lat="12.9003140" lon="99.7292700">
    <ele>79.4</ele>
    <time>2018-01-27T09:26:07Z</time>
   </trkpt>
   <trkpt lat="12.9003620" lon="99.7292950">
    <ele>80.3</ele>
    <time>2018-01-27T09:26:09Z</time>
   </trkpt>
   <trkpt lat="12.9003900" lon="99.7293090">
    <ele>80.0</ele>
    <time>2018-01-27T09:26:10Z</time>
   </trkpt>
   <trkpt lat="12.9004180" lon="99.7293240">
    <ele>79.8</ele>
    <time>2018-01-27T09:26:11Z</time>
   </trkpt>
   <trkpt lat="12.9004460" lon="99.7293370">
    <ele>79.8</ele>
    <time>2018-01-27T09:26:12Z</time>
   </trkpt>
   <trkpt lat="12.9004740" lon="99.7293480">
    <ele>80.6</ele>
    <time>2018-01-27T09:26:13Z</time>
   </trkpt>
   <trkpt lat="12.9005040" lon="99.7293560">
    <ele>80.3</ele>
    <time>2018-01-27T09:26:14Z</time>
   </trkpt>
   <trkpt lat="12.9005360" lon="99.7293640">
    <ele>80.3</ele>
    <time>2018-01-27T09:26:15Z</time>
   </trkpt>
   <trkpt lat="12.9005680" lon="99.7293720">
    <ele>80.0</ele>
    <time>2018-01-27T09:26:16Z</time>
   </trkpt>
   <trkpt lat="12.9006010" lon="99.7293810">
    <ele>80.4</ele>
    <time>2018-01-27T09:26:17Z</time>
   </trkpt>
   <trkpt lat="12.9006340" lon="99.7293940">
    <ele>80.0</ele>
    <time>2018-01-27T09:26:18Z</time>
   </trkpt>
   <trkpt lat="12.9006670" lon="99.7294090">
    <ele>80.0</ele>
    <time>2018-01-27T09:26:19Z</time>
   </trkpt>
   <trkpt lat="12.9007020" lon="99.7294250">
    <ele>80.2</ele>
    <time>2018-01-27T09:26:20Z</time>
   </trkpt>
   <trkpt lat="12.9007390" lon="99.7294420">
    <ele>79.7</ele>
    <time>2018-01-27T09:26:21Z</time>
   </trkpt>
   <trkpt lat="12.9007770" lon="99.7294590">
    <ele>79.4</ele>
    <time>2018-01-27T09:26:22Z</time>
   </trkpt>
   <trkpt lat="12.9008180" lon="99.7294750">
    <ele>79.6</ele>
    <time>2018-01-27T09:26:23Z</time>
   </trkpt>
   <trkpt lat="12.9008590" lon="99.7294890">
    <ele>79.4</ele>
    <time>2018-01-27T09:26:24Z</time>
   </trkpt>
   <trkpt lat="12.9009000" lon="99.7295030">
    <ele>79.3</ele>
    <time>2018-01-27T09:26:25Z</time>
   </trkpt>
   <trkpt lat="12.9009380" lon="99.7295180">
    <ele>79.8</ele>
    <time>2018-01-27T09:26:26Z</time>
   </trkpt>
   <trkpt lat="12.9009770" lon="99.7295320">
    <ele>79.9</ele>
    <time>2018-01-27T09:26:27Z</time>
   </trkpt>
   <trkpt lat="12.9010280" lon="99.7295410">
    <ele>79.9</ele>
    <time>2018-01-27T09:26:28Z</time>
   </trkpt>
   <trkpt lat="12.9010710" lon="99.7295560">
    <ele>80.4</ele>
    <time>2018-01-27T09:26:29Z</time>
   </trkpt>
   <trkpt lat="12.9011120" lon="99.7295770">
    <ele>80.0</ele>
    <time>2018-01-27T09:26:30Z</time>
   </trkpt>
   <trkpt lat="12.9011520" lon="99.7295950">
    <ele>79.5</ele>
    <time>2018-01-27T09:26:31Z</time>
   </trkpt>
   <trkpt lat="12.9011990" lon="99.7296110">
    <ele>79.5</ele>
    <time>2018-01-27T09:26:32Z</time>
   </trkpt>
   <trkpt lat="12.9012420" lon="99.7296290">
    <ele>78.9</ele>
    <time>2018-01-27T09:26:33Z</time>
   </trkpt>
   <trkpt lat="12.9012890" lon="99.7296490">
    <ele>78.8</ele>
    <time>2018-01-27T09:26:34Z</time>
   </trkpt>
   <trkpt lat="12.9013390" lon="99.7296670">
    <ele>77.4</ele>
    <time>2018-01-27T09:26:35Z</time>
   </trkpt>
   <trkpt lat="12.9013910" lon="99.7296830">
    <ele>77.0</ele>
    <time>2018-01-27T09:26:36Z</time>
   </trkpt>
   <trkpt lat="12.9014450" lon="99.7296990">
    <ele>76.2</ele>
    <time>2018-01-27T09:26:37Z</time>
   </trkpt>
   <trkpt lat="12.9015020" lon="99.7297130">
    <ele>75.6</ele>
    <time>2018-01-27T09:26:38Z</time>
   </trkpt>
   <trkpt lat="12.9015550" lon="99.7297250">
    <ele>75.0</ele>
    <time>2018-01-27T09:26:39Z</time>
   </trkpt>
   <trkpt lat="12.9016080" lon="99.7297440">
    <ele>74.8</ele>
    <time>2018-01-27T09:26:40Z</time>
   </trkpt>
   <trkpt lat="12.9016510" lon="99.7297600">
    <ele>74.7</ele>
    <time>2018-01-27T09:26:41Z</time>
   </trkpt>
   <trkpt lat="12.9017000" lon="99.7297830">
    <ele>75.3</ele>
    <time>2018-01-27T09:26:42Z</time>
   </trkpt>
   <trkpt lat="12.9017450" lon="99.7298010">
    <ele>75.5</ele>
    <time>2018-01-27T09:26:43Z</time>
   </trkpt>
   <trkpt lat="12.9017850" lon="99.7298160">
    <ele>76.2</ele>
    <time>2018-01-27T09:26:44Z</time>
   </trkpt>
   <trkpt lat="12.9018230" lon="99.7298390">
    <ele>76.3</ele>
    <time>2018-01-27T09:26:45Z</time>
   </trkpt>
   <trkpt lat="12.9018600" lon="99.7298640">
    <ele>76.7</ele>
    <time>2018-01-27T09:26:46Z</time>
   </trkpt>
   <trkpt lat="12.9019050" lon="99.7298860">
    <ele>76.6</ele>
    <time>2018-01-27T09:26:47Z</time>
   </trkpt>
   <trkpt lat="12.9019450" lon="99.7299130">
    <ele>76.7</ele>
    <time>2018-01-27T09:26:48Z</time>
   </trkpt>
   <trkpt lat="12.9019900" lon="99.7299360">
    <ele>76.8</ele>
    <time>2018-01-27T09:26:50Z</time>
   </trkpt>
   <trkpt lat="12.9020290" lon="99.7299530">
    <ele>77.0</ele>
    <time>2018-01-27T09:26:51Z</time>
   </trkpt>
   <trkpt lat="12.9020630" lon="99.7299690">
    <ele>77.1</ele>
    <time>2018-01-27T09:26:52Z</time>
   </trkpt>
   <trkpt lat="12.9020910" lon="99.7299890">
    <ele>77.3</ele>
    <time>2018-01-27T09:26:53Z</time>
   </trkpt>
   <trkpt lat="12.9021740" lon="99.7300310">
    <ele>77.5</ele>
    <time>2018-01-27T09:26:54Z</time>
   </trkpt>
   <trkpt lat="12.9022110" lon="99.7300540">
    <ele>77.2</ele>
    <time>2018-01-27T09:26:55Z</time>
   </trkpt>
   <trkpt lat="12.9022510" lon="99.7300780">
    <ele>77.3</ele>
    <time>2018-01-27T09:26:56Z</time>
   </trkpt>
   <trkpt lat="12.9022940" lon="99.7301000">
    <ele>77.0</ele>
    <time>2018-01-27T09:26:57Z</time>
   </trkpt>
   <trkpt lat="12.9023330" lon="99.7301240">
    <ele>77.0</ele>
    <time>2018-01-27T09:26:58Z</time>
   </trkpt>
   <trkpt lat="12.9023770" lon="99.7301510">
    <ele>76.5</ele>
    <time>2018-01-27T09:26:59Z</time>
   </trkpt>
   <trkpt lat="12.9024200" lon="99.7301790">
    <ele>76.5</ele>
    <time>2018-01-27T09:27:00Z</time>
   </trkpt>
   <trkpt lat="12.9024700" lon="99.7302070">
    <ele>76.4</ele>
    <time>2018-01-27T09:27:01Z</time>
   </trkpt>
   <trkpt lat="12.9025180" lon="99.7302380">
    <ele>76.2</ele>
    <time>2018-01-27T09:27:02Z</time>
   </trkpt>
   <trkpt lat="12.9025620" lon="99.7302620">
    <ele>76.7</ele>
    <time>2018-01-27T09:27:03Z</time>
   </trkpt>
   <trkpt lat="12.9026090" lon="99.7302860">
    <ele>77.1</ele>
    <time>2018-01-27T09:27:04Z</time>
   </trkpt>
   <trkpt lat="12.9026620" lon="99.7303200">
    <ele>76.6</ele>
    <time>2018-01-27T09:27:05Z</time>
   </trkpt>
   <trkpt lat="12.9027300" lon="99.7303400">
    <ele>76.3</ele>
    <time>2018-01-27T09:27:06Z</time>
   </trkpt>
   <trkpt lat="12.9027870" lon="99.7303550">
    <ele>75.8</ele>
    <time>2018-01-27T09:27:07Z</time>
   </trkpt>
   <trkpt lat="12.9028430" lon="99.7303690">
    <ele>76.0</ele>
    <time>2018-01-27T09:27:08Z</time>
   </trkpt>
   <trkpt lat="12.9029130" lon="99.7303770">
    <ele>75.0</ele>
    <time>2018-01-27T09:27:09Z</time>
   </trkpt>
   <trkpt lat="12.9029780" lon="99.7303710">
    <ele>74.4</ele>
    <time>2018-01-27T09:27:10Z</time>
   </trkpt>
   <trkpt lat="12.9030450" lon="99.7303580">
    <ele>73.5</ele>
    <time>2018-01-27T09:27:11Z</time>
   </trkpt>
   <trkpt lat="12.9031130" lon="99.7303340">
    <ele>73.1</ele>
    <time>2018-01-27T09:27:12Z</time>
   </trkpt>
   <trkpt lat="12.9031730" lon="99.7303120">
    <ele>72.4</ele>
    <time>2018-01-27T09:27:13Z</time>
   </trkpt>
   <trkpt lat="12.9032420" lon="99.7302950">
    <ele>72.2</ele>
    <time>2018-01-27T09:27:14Z</time>
   </trkpt>
   <trkpt lat="12.9033170" lon="99.7302770">
    <ele>72.0</ele>
    <time>2018-01-27T09:27:15Z</time>
   </trkpt>
   <trkpt lat="12.9033860" lon="99.7302640">
    <ele>72.0</ele>
    <time>2018-01-27T09:27:16Z</time>
   </trkpt>
   <trkpt lat="12.9034570" lon="99.7302460">
    <ele>72.0</ele>
    <time>2018-01-27T09:27:17Z</time>
   </trkpt>
   <trkpt lat="12.9035290" lon="99.7302380">
    <ele>71.7</ele>
    <time>2018-01-27T09:27:18Z</time>
   </trkpt>
   <trkpt lat="12.9036000" lon="99.7302300">
    <ele>71.5</ele>
    <time>2018-01-27T09:27:19Z</time>
   </trkpt>
   <trkpt lat="12.9036700" lon="99.7302240">
    <ele>71.3</ele>
    <time>2018-01-27T09:27:20Z</time>
   </trkpt>
   <trkpt lat="12.9037470" lon="99.7302160">
    <ele>70.7</ele>
    <time>2018-01-27T09:27:21Z</time>
   </trkpt>
   <trkpt lat="12.9038220" lon="99.7302110">
    <ele>70.2</ele>
    <time>2018-01-27T09:27:22Z</time>
   </trkpt>
   <trkpt lat="12.9038960" lon="99.7301970">
    <ele>69.7</ele>
    <time>2018-01-27T09:27:23Z</time>
   </trkpt>
   <trkpt lat="12.9039740" lon="99.7301900">
    <ele>69.3</ele>
    <time>2018-01-27T09:27:24Z</time>
   </trkpt>
   <trkpt lat="12.9040500" lon="99.7301820">
    <ele>69.0</ele>
    <time>2018-01-27T09:27:25Z</time>
   </trkpt>
   <trkpt lat="12.9041310" lon="99.7301740">
    <ele>68.6</ele>
    <time>2018-01-27T09:27:26Z</time>
   </trkpt>
   <trkpt lat="12.9042010" lon="99.7301640">
    <ele>68.5</ele>
    <time>2018-01-27T09:27:27Z</time>
   </trkpt>
   <trkpt lat="12.9042640" lon="99.7301560">
    <ele>68.5</ele>
    <time>2018-01-27T09:27:28Z</time>
   </trkpt>
   <trkpt lat="12.9043250" lon="99.7301480">
    <ele>68.5</ele>
    <time>2018-01-27T09:27:29Z</time>
   </trkpt>
   <trkpt lat="12.9043830" lon="99.7301470">
    <ele>68.4</ele>
    <time>2018-01-27T09:27:30Z</time>
   </trkpt>
   <trkpt lat="12.9044320" lon="99.7301540">
    <ele>68.5</ele>
    <time>2018-01-27T09:27:31Z</time>
   </trkpt>
   <trkpt lat="12.9044670" lon="99.7301770">
    <ele>68.4</ele>
    <time>2018-01-27T09:27:32Z</time>
   </trkpt>
   <trkpt lat="12.9044960" lon="99.7301880">
    <ele>68.1</ele>
    <time>2018-01-27T09:27:33Z</time>
   </trkpt>
   <trkpt lat="12.9045250" lon="99.7301890">
    <ele>67.9</ele>
    <time>2018-01-27T09:27:34Z</time>
   </trkpt>
   <trkpt lat="12.9045790" lon="99.7301730">
    <ele>67.6</ele>
    <time>2018-01-27T09:27:36Z</time>
   </trkpt>
   <trkpt lat="12.9046150" lon="99.7301600">
    <ele>67.3</ele>
    <time>2018-01-27T09:27:38Z</time>
   </trkpt>
   <trkpt lat="12.9046480" lon="99.7301660">
    <ele>67.1</ele>
    <time>2018-01-27T09:27:41Z</time>
   </trkpt>
   <trkpt lat="12.9046770" lon="99.7301710">
    <ele>67.1</ele>
    <time>2018-01-27T09:27:46Z</time>
   </trkpt>
   <trkpt lat="12.9047060" lon="99.7301660">
    <ele>66.8</ele>
    <time>2018-01-27T09:28:20Z</time>
   </trkpt>
   <trkpt lat="12.9047440" lon="99.7301650">
    <ele>66.6</ele>
    <time>2018-01-27T09:28:23Z</time>
   </trkpt>
   <trkpt lat="12.9047920" lon="99.7301630">
    <ele>66.5</ele>
    <time>2018-01-27T09:28:25Z</time>
   </trkpt>
   <trkpt lat="12.9048390" lon="99.7301640">
    <ele>66.4</ele>
    <time>2018-01-27T09:28:27Z</time>
   </trkpt>
   <trkpt lat="12.9048860" lon="99.7301800">
    <ele>66.5</ele>
    <time>2018-01-27T09:28:29Z</time>
   </trkpt>
   <trkpt lat="12.9049170" lon="99.7302200">
    <ele>66.4</ele>
    <time>2018-01-27T09:28:31Z</time>
   </trkpt>
   <trkpt lat="12.9049300" lon="99.7302720">
    <ele>66.4</ele>
    <time>2018-01-27T09:28:33Z</time>
   </trkpt>
   <trkpt lat="12.9049310" lon="99.7303200">
    <ele>66.5</ele>
    <time>2018-01-27T09:28:35Z</time>
   </trkpt>
   <trkpt lat="12.9049360" lon="99.7303570">
    <ele>66.6</ele>
    <time>2018-01-27T09:28:36Z</time>
   </trkpt>
   <trkpt lat="12.9049580" lon="99.7304340">
    <ele>66.3</ele>
    <time>2018-01-27T09:28:37Z</time>
   </trkpt>
   <trkpt lat="12.9049630" lon="99.7304730">
    <ele>66.0</ele>
    <time>2018-01-27T09:28:38Z</time>
   </trkpt>
   <trkpt lat="12.9049690" lon="99.7305030">
    <ele>65.7</ele>
    <time>2018-01-27T09:28:39Z</time>
   </trkpt>
   <trkpt lat="12.9049790" lon="99.7305370">
    <ele>65.7</ele>
    <time>2018-01-27T09:28:40Z</time>
   </trkpt>
   <trkpt lat="12.9049940" lon="99.7305710">
    <ele>65.3</ele>
    <time>2018-01-27T09:28:41Z</time>
   </trkpt>
   <trkpt lat="12.9050170" lon="99.7305950">
    <ele>65.0</ele>
    <time>2018-01-27T09:28:42Z</time>
   </trkpt>
   <trkpt lat="12.9050500" lon="99.7306040">
    <ele>65.1</ele>
    <time>2018-01-27T09:28:43Z</time>
   </trkpt>
   <trkpt lat="12.9050840" lon="99.7306010">
    <ele>65.1</ele>
    <time>2018-01-27T09:28:44Z</time>
   </trkpt>
   <trkpt lat="12.9051220" lon="99.7305960">
    <ele>65.2</ele>
    <time>2018-01-27T09:28:45Z</time>
   </trkpt>
   <trkpt lat="12.9051590" lon="99.7305910">
    <ele>65.2</ele>
    <time>2018-01-27T09:28:46Z</time>
   </trkpt>
   <trkpt lat="12.9052020" lon="99.7305880">
    <ele>65.2</ele>
    <time>2018-01-27T09:28:47Z</time>
   </trkpt>
   <trkpt lat="12.9052470" lon="99.7305810">
    <ele>65.5</ele>
    <time>2018-01-27T09:28:48Z</time>
   </trkpt>
   <trkpt lat="12.9052960" lon="99.7305750">
    <ele>65.4</ele>
    <time>2018-01-27T09:28:49Z</time>
   </trkpt>
   <trkpt lat="12.9053430" lon="99.7305680">
    <ele>65.2</ele>
    <time>2018-01-27T09:28:50Z</time>
   </trkpt>
   <trkpt lat="12.9053960" lon="99.7305660">
    <ele>64.7</ele>
    <time>2018-01-27T09:28:51Z</time>
   </trkpt>
   <trkpt lat="12.9054440" lon="99.7305610">
    <ele>64.4</ele>
    <time>2018-01-27T09:28:52Z</time>
   </trkpt>
   <trkpt lat="12.9054910" lon="99.7305480">
    <ele>64.1</ele>
    <time>2018-01-27T09:28:53Z</time>
   </trkpt>
   <trkpt lat="12.9055390" lon="99.7305500">
    <ele>63.9</ele>
    <time>2018-01-27T09:28:54Z</time>
   </trkpt>
   <trkpt lat="12.9055850" lon="99.7305370">
    <ele>63.6</ele>
    <time>2018-01-27T09:28:55Z</time>
   </trkpt>
   <trkpt lat="12.9056410" lon="99.7305250">
    <ele>63.5</ele>
    <time>2018-01-27T09:28:56Z</time>
   </trkpt>
   <trkpt lat="12.9057010" lon="99.7305140">
    <ele>63.4</ele>
    <time>2018-01-27T09:28:57Z</time>
   </trkpt>
   <trkpt lat="12.9057570" lon="99.7305080">
    <ele>63.5</ele>
    <time>2018-01-27T09:28:58Z</time>
   </trkpt>
   <trkpt lat="12.9058090" lon="99.7305000">
    <ele>63.6</ele>
    <time>2018-01-27T09:28:59Z</time>
   </trkpt>
   <trkpt lat="12.9058590" lon="99.7305000">
    <ele>63.7</ele>
    <time>2018-01-27T09:29:00Z</time>
   </trkpt>
   <trkpt lat="12.9059040" lon="99.7304980">
    <ele>63.7</ele>
    <time>2018-01-27T09:29:01Z</time>
   </trkpt>
   <trkpt lat="12.9059540" lon="99.7304930">
    <ele>63.5</ele>
    <time>2018-01-27T09:29:02Z</time>
   </trkpt>
   <trkpt lat="12.9060010" lon="99.7304910">
    <ele>63.3</ele>
    <time>2018-01-27T09:29:03Z</time>
   </trkpt>
   <trkpt lat="12.9060470" lon="99.7304870">
    <ele>63.1</ele>
    <time>2018-01-27T09:29:04Z</time>
   </trkpt>
   <trkpt lat="12.9060960" lon="99.7304820">
    <ele>62.9</ele>
    <time>2018-01-27T09:29:05Z</time>
   </trkpt>
   <trkpt lat="12.9061490" lon="99.7304780">
    <ele>62.8</ele>
    <time>2018-01-27T09:29:06Z</time>
   </trkpt>
   <trkpt lat="12.9062030" lon="99.7304750">
    <ele>62.9</ele>
    <time>2018-01-27T09:29:07Z</time>
   </trkpt>
   <trkpt lat="12.9062600" lon="99.7304720">
    <ele>63.0</ele>
    <time>2018-01-27T09:29:08Z</time>
   </trkpt>
   <trkpt lat="12.9063150" lon="99.7304650">
    <ele>63.1</ele>
    <time>2018-01-27T09:29:09Z</time>
   </trkpt>
   <trkpt lat="12.9063680" lon="99.7304540">
    <ele>63.3</ele>
    <time>2018-01-27T09:29:10Z</time>
   </trkpt>
   <trkpt lat="12.9064250" lon="99.7304500">
    <ele>63.0</ele>
    <time>2018-01-27T09:29:11Z</time>
   </trkpt>
   <trkpt lat="12.9064740" lon="99.7304430">
    <ele>62.9</ele>
    <time>2018-01-27T09:29:12Z</time>
   </trkpt>
   <trkpt lat="12.9065320" lon="99.7304390">
    <ele>62.3</ele>
    <time>2018-01-27T09:29:13Z</time>
   </trkpt>
   <trkpt lat="12.9065750" lon="99.7304390">
    <ele>62.1</ele>
    <time>2018-01-27T09:29:14Z</time>
   </trkpt>
   <trkpt lat="12.9066280" lon="99.7304390">
    <ele>61.9</ele>
    <time>2018-01-27T09:29:15Z</time>
   </trkpt>
   <trkpt lat="12.9066770" lon="99.7304360">
    <ele>61.8</ele>
    <time>2018-01-27T09:29:16Z</time>
   </trkpt>
   <trkpt lat="12.9067250" lon="99.7304260">
    <ele>61.8</ele>
    <time>2018-01-27T09:29:17Z</time>
   </trkpt>
   <trkpt lat="12.9067780" lon="99.7304190">
    <ele>61.9</ele>
    <time>2018-01-27T09:29:18Z</time>
   </trkpt>
   <trkpt lat="12.9068250" lon="99.7304130">
    <ele>61.8</ele>
    <time>2018-01-27T09:29:19Z</time>
   </trkpt>
   <trkpt lat="12.9068720" lon="99.7304090">
    <ele>61.6</ele>
    <time>2018-01-27T09:29:20Z</time>
   </trkpt>
   <trkpt lat="12.9069520" lon="99.7304100">
    <ele>61.6</ele>
    <time>2018-01-27T09:29:24Z</time>
   </trkpt>
   <trkpt lat="12.9069930" lon="99.7304080">
    <ele>61.5</ele>
    <time>2018-01-27T09:29:25Z</time>
   </trkpt>
   <trkpt lat="12.9072430" lon="99.7303910">
    <ele>61.6</ele>
    <time>2018-01-27T09:29:27Z</time>
   </trkpt>
   <trkpt lat="12.9072960" lon="99.7303900">
    <ele>61.4</ele>
    <time>2018-01-27T09:29:28Z</time>
   </trkpt>
   <trkpt lat="12.9073450" lon="99.7303840">
    <ele>61.0</ele>
    <time>2018-01-27T09:29:29Z</time>
   </trkpt>
   <trkpt lat="12.9074060" lon="99.7303770">
    <ele>59.9</ele>
    <time>2018-01-27T09:29:30Z</time>
   </trkpt>
   <trkpt lat="12.9074580" lon="99.7303730">
    <ele>59.4</ele>
    <time>2018-01-27T09:29:31Z</time>
   </trkpt>
   <trkpt lat="12.9075030" lon="99.7303780">
    <ele>59.0</ele>
    <time>2018-01-27T09:29:32Z</time>
   </trkpt>
   <trkpt lat="12.9075590" lon="99.7303780">
    <ele>58.8</ele>
    <time>2018-01-27T09:29:33Z</time>
   </trkpt>
   <trkpt lat="12.9076080" lon="99.7303770">
    <ele>58.6</ele>
    <time>2018-01-27T09:29:34Z</time>
   </trkpt>
   <trkpt lat="12.9076550" lon="99.7303760">
    <ele>58.5</ele>
    <time>2018-01-27T09:29:35Z</time>
   </trkpt>
   <trkpt lat="12.9077100" lon="99.7303710">
    <ele>58.5</ele>
    <time>2018-01-27T09:29:36Z</time>
   </trkpt>
   <trkpt lat="12.9077570" lon="99.7303690">
    <ele>58.6</ele>
    <time>2018-01-27T09:29:37Z</time>
   </trkpt>
   <trkpt lat="12.9078100" lon="99.7303570">
    <ele>58.6</ele>
    <time>2018-01-27T09:29:38Z</time>
   </trkpt>
   <trkpt lat="12.9078460" lon="99.7303510">
    <ele>58.6</ele>
    <time>2018-01-27T09:29:39Z</time>
   </trkpt>
   <trkpt lat="12.9078860" lon="99.7303430">
    <ele>58.5</ele>
    <time>2018-01-27T09:29:40Z</time>
   </trkpt>
   <trkpt lat="12.9079280" lon="99.7303440">
    <ele>58.6</ele>
    <time>2018-01-27T09:29:41Z</time>
   </trkpt>
   <trkpt lat="12.9079680" lon="99.7303370">
    <ele>58.6</ele>
    <time>2018-01-27T09:29:42Z</time>
   </trkpt>
   <trkpt lat="12.9080070" lon="99.7303350">
    <ele>58.7</ele>
    <time>2018-01-27T09:29:43Z</time>
   </trkpt>
   <trkpt lat="12.9080480" lon="99.7303320">
    <ele>58.7</ele>
    <time>2018-01-27T09:29:44Z</time>
   </trkpt>
   <trkpt lat="12.9080930" lon="99.7303260">
    <ele>58.7</ele>
    <time>2018-01-27T09:29:45Z</time>
   </trkpt>
   <trkpt lat="12.9081370" lon="99.7303280">
    <ele>58.6</ele>
    <time>2018-01-27T09:29:46Z</time>
   </trkpt>
   <trkpt lat="12.9081830" lon="99.7303250">
    <ele>58.3</ele>
    <time>2018-01-27T09:29:48Z</time>
   </trkpt>
   <trkpt lat="12.9082300" lon="99.7303230">
    <ele>57.8</ele>
    <time>2018-01-27T09:29:49Z</time>
   </trkpt>
   <trkpt lat="12.9082720" lon="99.7303190">
    <ele>57.5</ele>
    <time>2018-01-27T09:29:50Z</time>
   </trkpt>
   <trkpt lat="12.9083270" lon="99.7303100">
    <ele>57.3</ele>
    <time>2018-01-27T09:29:51Z</time>
   </trkpt>
   <trkpt lat="12.9083730" lon="99.7303040">
    <ele>57.2</ele>
    <time>2018-01-27T09:29:52Z</time>
   </trkpt>
   <trkpt lat="12.9084160" lon="99.7302970">
    <ele>57.2</ele>
    <time>2018-01-27T09:29:53Z</time>
   </trkpt>
   <trkpt lat="12.9084580" lon="99.7302970">
    <ele>57.0</ele>
    <time>2018-01-27T09:29:54Z</time>
   </trkpt>
   <trkpt lat="12.9085020" lon="99.7302920">
    <ele>56.8</ele>
    <time>2018-01-27T09:29:55Z</time>
   </trkpt>
   <trkpt lat="12.9085450" lon="99.7302870">
    <ele>56.5</ele>
    <time>2018-01-27T09:29:56Z</time>
   </trkpt>
   <trkpt lat="12.9085820" lon="99.7302800">
    <ele>56.0</ele>
    <time>2018-01-27T09:29:57Z</time>
   </trkpt>
   <trkpt lat="12.9086320" lon="99.7302760">
    <ele>55.8</ele>
    <time>2018-01-27T09:29:58Z</time>
   </trkpt>
   <trkpt lat="12.9086800" lon="99.7302750">
    <ele>55.6</ele>
    <time>2018-01-27T09:29:59Z</time>
   </trkpt>
   <trkpt lat="12.9087300" lon="99.7302710">
    <ele>55.4</ele>
    <time>2018-01-27T09:30:00Z</time>
   </trkpt>
   <trkpt lat="12.9087720" lon="99.7302640">
    <ele>55.1</ele>
    <time>2018-01-27T09:30:01Z</time>
   </trkpt>
   <trkpt lat="12.9088050" lon="99.7302570">
    <ele>54.6</ele>
    <time>2018-01-27T09:30:02Z</time>
   </trkpt>
   <trkpt lat="12.9088310" lon="99.7302170">
    <ele>53.8</ele>
    <time>2018-01-27T09:30:04Z</time>
   </trkpt>
   <trkpt lat="12.9088270" lon="99.7301790">
    <ele>53.6</ele>
    <time>2018-01-27T09:30:06Z</time>
   </trkpt>
   <trkpt lat="12.9088020" lon="99.7301570">
    <ele>54.1</ele>
    <time>2018-01-27T09:30:09Z</time>
   </trkpt>
   <trkpt lat="12.9087700" lon="99.7301440">
    <ele>54.2</ele>
    <time>2018-01-27T09:30:30Z</time>
   </trkpt>
   <trkpt lat="12.9087540" lon="99.7301160">
    <ele>54.2</ele>
    <time>2018-01-27T09:30:33Z</time>
   </trkpt>
   <trkpt lat="12.9087370" lon="99.7300940">
    <ele>54.1</ele>
    <time>2018-01-27T09:30:36Z</time>
   </trkpt>
   <trkpt lat="12.9087160" lon="99.7300760">
    <ele>54.1</ele>
    <time>2018-01-27T09:30:38Z</time>
   </trkpt>
   <trkpt lat="12.9086980" lon="99.7300510">
    <ele>54.0</ele>
    <time>2018-01-27T09:30:40Z</time>
   </trkpt>
   <trkpt lat="12.9086820" lon="99.7300240">
    <ele>53.8</ele>
    <time>2018-01-27T09:30:43Z</time>
   </trkpt>
   <trkpt lat="12.9086690" lon="99.7299980">
    <ele>53.8</ele>
    <time>2018-01-27T09:30:46Z</time>
   </trkpt>
   <trkpt lat="12.9086850" lon="99.7299560">
    <ele>53.7</ele>
    <time>2018-01-27T09:30:49Z</time>
   </trkpt>
   <trkpt lat="12.9087060" lon="99.7299260">
    <ele>53.5</ele>
    <time>2018-01-27T09:30:50Z</time>
   </trkpt>
   <trkpt lat="12.9087420" lon="99.7298960">
    <ele>53.4</ele>
    <time>2018-01-27T09:30:51Z</time>
   </trkpt>
   <trkpt lat="12.9087880" lon="99.7298710">
    <ele>53.5</ele>
    <time>2018-01-27T09:30:52Z</time>
   </trkpt>
   <trkpt lat="12.9088240" lon="99.7298530">
    <ele>53.5</ele>
    <time>2018-01-27T09:30:53Z</time>
   </trkpt>
   <trkpt lat="12.9088470" lon="99.7298310">
    <ele>53.7</ele>
    <time>2018-01-27T09:30:54Z</time>
   </trkpt>
   <trkpt lat="12.9088450" lon="99.7298000">
    <ele>53.8</ele>
    <time>2018-01-27T09:30:55Z</time>
   </trkpt>
   <trkpt lat="12.9088510" lon="99.7297640">
    <ele>54.0</ele>
    <time>2018-01-27T09:30:56Z</time>
   </trkpt>
   <trkpt lat="12.9088660" lon="99.7297270">
    <ele>54.0</ele>
    <time>2018-01-27T09:30:57Z</time>
   </trkpt>
   <trkpt lat="12.9088910" lon="99.7297010">
    <ele>53.9</ele>
    <time>2018-01-27T09:30:58Z</time>
   </trkpt>
   <trkpt lat="12.9089200" lon="99.7296870">
    <ele>53.6</ele>
    <time>2018-01-27T09:30:59Z</time>
   </trkpt>
   <trkpt lat="12.9089510" lon="99.7296800">
    <ele>53.6</ele>
    <time>2018-01-27T09:31:00Z</time>
   </trkpt>
   <trkpt lat="12.9089920" lon="99.7296790">
    <ele>53.3</ele>
    <time>2018-01-27T09:31:01Z</time>
   </trkpt>
   <trkpt lat="12.9090330" lon="99.7296760">
    <ele>53.1</ele>
    <time>2018-01-27T09:31:02Z</time>
   </trkpt>
   <trkpt lat="12.9090660" lon="99.7296700">
    <ele>52.9</ele>
    <time>2018-01-27T09:31:03Z</time>
   </trkpt>
   <trkpt lat="12.9090920" lon="99.7296510">
    <ele>52.7</ele>
    <time>2018-01-27T09:31:04Z</time>
   </trkpt>
   <trkpt lat="12.9091060" lon="99.7296160">
    <ele>52.9</ele>
    <time>2018-01-27T09:31:05Z</time>
   </trkpt>
   <trkpt lat="12.9091030" lon="99.7295730">
    <ele>53.1</ele>
    <time>2018-01-27T09:31:06Z</time>
   </trkpt>
   <trkpt lat="12.9090620" lon="99.7295140">
    <ele>53.6</ele>
    <time>2018-01-27T09:31:07Z</time>
   </trkpt>
   <trkpt lat="12.9090360" lon="99.7294830">
    <ele>53.8</ele>
    <time>2018-01-27T09:31:08Z</time>
   </trkpt>
   <trkpt lat="12.9090120" lon="99.7294490">
    <ele>54.0</ele>
    <time>2018-01-27T09:31:09Z</time>
   </trkpt>
   <trkpt lat="12.9090020" lon="99.7294080">
    <ele>54.3</ele>
    <time>2018-01-27T09:31:10Z</time>
   </trkpt>
   <trkpt lat="12.9090020" lon="99.7293710">
    <ele>54.5</ele>
    <time>2018-01-27T09:31:11Z</time>
   </trkpt>
   <trkpt lat="12.9090150" lon="99.7293390">
    <ele>54.5</ele>
    <time>2018-01-27T09:31:12Z</time>
   </trkpt>
   <trkpt lat="12.9090360" lon="99.7293170">
    <ele>54.7</ele>
    <time>2018-01-27T09:31:13Z</time>
   </trkpt>
   <trkpt lat="12.9090950" lon="99.7293260">
    <ele>54.6</ele>
    <time>2018-01-27T09:31:16Z</time>
   </trkpt>
   <trkpt lat="12.9092010" lon="99.7292980">
    <ele>54.2</ele>
    <time>2018-01-27T09:31:17Z</time>
   </trkpt>
   <trkpt lat="12.9092470" lon="99.7292900">
    <ele>53.7</ele>
    <time>2018-01-27T09:31:18Z</time>
   </trkpt>
   <trkpt lat="12.9092880" lon="99.7292830">
    <ele>53.4</ele>
    <time>2018-01-27T09:31:19Z</time>
   </trkpt>
   <trkpt lat="12.9093320" lon="99.7292740">
    <ele>53.2</ele>
    <time>2018-01-27T09:31:20Z</time>
   </trkpt>
   <trkpt lat="12.9093800" lon="99.7292660">
    <ele>52.9</ele>
    <time>2018-01-27T09:31:21Z</time>
   </trkpt>
   <trkpt lat="12.9094240" lon="99.7292590">
    <ele>52.7</ele>
    <time>2018-01-27T09:31:22Z</time>
   </trkpt>
   <trkpt lat="12.9094670" lon="99.7292490">
    <ele>52.5</ele>
    <time>2018-01-27T09:31:23Z</time>
   </trkpt>
   <trkpt lat="12.9095130" lon="99.7292440">
    <ele>52.3</ele>
    <time>2018-01-27T09:31:24Z</time>
   </trkpt>
   <trkpt lat="12.9095560" lon="99.7292390">
    <ele>52.1</ele>
    <time>2018-01-27T09:31:25Z</time>
   </trkpt>
   <trkpt lat="12.9095990" lon="99.7292320">
    <ele>52.0</ele>
    <time>2018-01-27T09:31:26Z</time>
   </trkpt>
   <trkpt lat="12.9096450" lon="99.7292220">
    <ele>52.0</ele>
    <time>2018-01-27T09:31:27Z</time>
   </trkpt>
   <trkpt lat="12.9096920" lon="99.7292180">
    <ele>52.0</ele>
    <time>2018-01-27T09:31:28Z</time>
   </trkpt>
   <trkpt lat="12.9097430" lon="99.7292080">
    <ele>51.7</ele>
    <time>2018-01-27T09:31:29Z</time>
   </trkpt>
   <trkpt lat="12.9097970" lon="99.7292000">
    <ele>51.7</ele>
    <time>2018-01-27T09:31:30Z</time>
   </trkpt>
   <trkpt lat="12.9098490" lon="99.7291920">
    <ele>51.6</ele>
    <time>2018-01-27T09:31:31Z</time>
   </trkpt>
   <trkpt lat="12.9098920" lon="99.7291830">
    <ele>51.6</ele>
    <time>2018-01-27T09:31:32Z</time>
   </trkpt>
   <trkpt lat="12.9099360" lon="99.7291720">
    <ele>51.7</ele>
    <time>2018-01-27T09:31:33Z</time>
   </trkpt>
   <trkpt lat="12.9099670" lon="99.7291590">
    <ele>51.6</ele>
    <time>2018-01-27T09:31:35Z</time>
   </trkpt>
   <trkpt lat="12.9100120" lon="99.7291410">
    <ele>51.6</ele>
    <time>2018-01-27T09:31:37Z</time>
   </trkpt>
   <trkpt lat="12.9100580" lon="99.7291350">
    <ele>51.5</ele>
    <time>2018-01-27T09:31:39Z</time>
   </trkpt>
   <trkpt lat="12.9100870" lon="99.7291320">
    <ele>51.5</ele>
    <time>2018-01-27T09:31:40Z</time>
   </trkpt>
   <trkpt lat="12.9101180" lon="99.7291320">
    <ele>51.5</ele>
    <time>2018-01-27T09:31:41Z</time>
   </trkpt>
   <trkpt lat="12.9101490" lon="99.7291350">
    <ele>51.4</ele>
    <time>2018-01-27T09:31:42Z</time>
   </trkpt>
   <trkpt lat="12.9101830" lon="99.7291410">
    <ele>51.4</ele>
    <time>2018-01-27T09:31:43Z</time>
   </trkpt>
   <trkpt lat="12.9102350" lon="99.7291330">
    <ele>51.4</ele>
    <time>2018-01-27T09:31:44Z</time>
   </trkpt>
   <trkpt lat="12.9103080" lon="99.7291110">
    <ele>51.3</ele>
    <time>2018-01-27T09:31:45Z</time>
   </trkpt>
   <trkpt lat="12.9103500" lon="99.7290970">
    <ele>51.3</ele>
    <time>2018-01-27T09:31:46Z</time>
   </trkpt>
   <trkpt lat="12.9104000" lon="99.7290890">
    <ele>51.2</ele>
    <time>2018-01-27T09:31:47Z</time>
   </trkpt>
   <trkpt lat="12.9104480" lon="99.7290830">
    <ele>51.0</ele>
    <time>2018-01-27T09:31:48Z</time>
   </trkpt>
   <trkpt lat="12.9104960" lon="99.7290860">
    <ele>50.7</ele>
    <time>2018-01-27T09:31:49Z</time>
   </trkpt>
   <trkpt lat="12.9105430" lon="99.7290840">
    <ele>50.2</ele>
    <time>2018-01-27T09:31:50Z</time>
   </trkpt>
   <trkpt lat="12.9105890" lon="99.7290790">
    <ele>50.0</ele>
    <time>2018-01-27T09:31:51Z</time>
   </trkpt>
   <trkpt lat="12.9106360" lon="99.7290710">
    <ele>49.9</ele>
    <time>2018-01-27T09:31:52Z</time>
   </trkpt>
   <trkpt lat="12.9106910" lon="99.7290670">
    <ele>49.9</ele>
    <time>2018-01-27T09:31:53Z</time>
   </trkpt>
   <trkpt lat="12.9107310" lon="99.7290500">
    <ele>49.9</ele>
    <time>2018-01-27T09:31:54Z</time>
   </trkpt>
   <trkpt lat="12.9107730" lon="99.7290360">
    <ele>50.1</ele>
    <time>2018-01-27T09:31:55Z</time>
   </trkpt>
   <trkpt lat="12.9108120" lon="99.7290310">
    <ele>50.2</ele>
    <time>2018-01-27T09:31:56Z</time>
   </trkpt>
   <trkpt lat="12.9108570" lon="99.7290230">
    <ele>50.2</ele>
    <time>2018-01-27T09:31:57Z</time>
   </trkpt>
   <trkpt lat="12.9109020" lon="99.7290160">
    <ele>50.3</ele>
    <time>2018-01-27T09:31:58Z</time>
   </trkpt>
   <trkpt lat="12.9109440" lon="99.7290070">
    <ele>50.3</ele>
    <time>2018-01-27T09:31:59Z</time>
   </trkpt>
   <trkpt lat="12.9109880" lon="99.7289920">
    <ele>50.4</ele>
    <time>2018-01-27T09:32:00Z</time>
   </trkpt>
   <trkpt lat="12.9110320" lon="99.7289830">
    <ele>50.4</ele>
    <time>2018-01-27T09:32:01Z</time>
   </trkpt>
   <trkpt lat="12.9110780" lon="99.7289790">
    <ele>50.4</ele>
    <time>2018-01-27T09:32:02Z</time>
   </trkpt>
   <trkpt lat="12.9111210" lon="99.7289720">
    <ele>50.5</ele>
    <time>2018-01-27T09:32:03Z</time>
   </trkpt>
   <trkpt lat="12.9111590" lon="99.7289630">
    <ele>50.5</ele>
    <time>2018-01-27T09:32:04Z</time>
   </trkpt>
   <trkpt lat="12.9112010" lon="99.7289500">
    <ele>50.5</ele>
    <time>2018-01-27T09:32:05Z</time>
   </trkpt>
   <trkpt lat="12.9112480" lon="99.7289420">
    <ele>50.5</ele>
    <time>2018-01-27T09:32:06Z</time>
   </trkpt>
   <trkpt lat="12.9112890" lon="99.7289370">
    <ele>50.4</ele>
    <time>2018-01-27T09:32:07Z</time>
   </trkpt>
   <trkpt lat="12.9113350" lon="99.7289280">
    <ele>50.3</ele>
    <time>2018-01-27T09:32:08Z</time>
   </trkpt>
   <trkpt lat="12.9113760" lon="99.7289220">
    <ele>50.1</ele>
    <time>2018-01-27T09:32:09Z</time>
   </trkpt>
   <trkpt lat="12.9114200" lon="99.7289090">
    <ele>49.5</ele>
    <time>2018-01-27T09:32:10Z</time>
   </trkpt>
   <trkpt lat="12.9114680" lon="99.7289060">
    <ele>48.9</ele>
    <time>2018-01-27T09:32:11Z</time>
   </trkpt>
   <trkpt lat="12.9115170" lon="99.7288990">
    <ele>48.7</ele>
    <time>2018-01-27T09:32:12Z</time>
   </trkpt>
   <trkpt lat="12.9115610" lon="99.7288910">
    <ele>48.6</ele>
    <time>2018-01-27T09:32:13Z</time>
   </trkpt>
   <trkpt lat="12.9116120" lon="99.7288800">
    <ele>48.6</ele>
    <time>2018-01-27T09:32:14Z</time>
   </trkpt>
   <trkpt lat="12.9116590" lon="99.7288720">
    <ele>48.8</ele>
    <time>2018-01-27T09:32:15Z</time>
   </trkpt>
   <trkpt lat="12.9117000" lon="99.7288690">
    <ele>49.1</ele>
    <time>2018-01-27T09:32:16Z</time>
   </trkpt>
   <trkpt lat="12.9117400" lon="99.7288620">
    <ele>49.9</ele>
    <time>2018-01-27T09:32:17Z</time>
   </trkpt>
   <trkpt lat="12.9117880" lon="99.7288570">
    <ele>50.6</ele>
    <time>2018-01-27T09:32:18Z</time>
   </trkpt>
   <trkpt lat="12.9118300" lon="99.7288450">
    <ele>51.3</ele>
    <time>2018-01-27T09:32:19Z</time>
   </trkpt>
   <trkpt lat="12.9118720" lon="99.7288390">
    <ele>52.0</ele>
    <time>2018-01-27T09:32:20Z</time>
   </trkpt>
   <trkpt lat="12.9119230" lon="99.7288320">
    <ele>53.6</ele>
    <time>2018-01-27T09:32:21Z</time>
   </trkpt>
   <trkpt lat="12.9119670" lon="99.7288240">
    <ele>54.4</ele>
    <time>2018-01-27T09:32:22Z</time>
   </trkpt>
   <trkpt lat="12.9120110" lon="99.7288120">
    <ele>55.7</ele>
    <time>2018-01-27T09:32:23Z</time>
   </trkpt>
   <trkpt lat="12.9120560" lon="99.7288030">
    <ele>56.5</ele>
    <time>2018-01-27T09:32:24Z</time>
   </trkpt>
   <trkpt lat="12.9120990" lon="99.7287980">
    <ele>57.3</ele>
    <time>2018-01-27T09:32:25Z</time>
   </trkpt>
   <trkpt lat="12.9121460" lon="99.7287920">
    <ele>57.8</ele>
    <time>2018-01-27T09:32:26Z</time>
   </trkpt>
   <trkpt lat="12.9121880" lon="99.7287830">
    <ele>58.2</ele>
    <time>2018-01-27T09:32:27Z</time>
   </trkpt>
   <trkpt lat="12.9122250" lon="99.7287750">
    <ele>58.6</ele>
    <time>2018-01-27T09:32:28Z</time>
   </trkpt>
   <trkpt lat="12.9122730" lon="99.7287720">
    <ele>58.6</ele>
    <time>2018-01-27T09:32:29Z</time>
   </trkpt>
   <trkpt lat="12.9123110" lon="99.7287630">
    <ele>58.5</ele>
    <time>2018-01-27T09:32:30Z</time>
   </trkpt>
   <trkpt lat="12.9123530" lon="99.7287560">
    <ele>58.4</ele>
    <time>2018-01-27T09:32:31Z</time>
   </trkpt>
   <trkpt lat="12.9124040" lon="99.7287370">
    <ele>58.1</ele>
    <time>2018-01-27T09:32:32Z</time>
   </trkpt>
   <trkpt lat="12.9124430" lon="99.7287330">
    <ele>58.2</ele>
    <time>2018-01-27T09:32:33Z</time>
   </trkpt>
   <trkpt lat="12.9124920" lon="99.7287200">
    <ele>58.2</ele>
    <time>2018-01-27T09:32:34Z</time>
   </trkpt>
   <trkpt lat="12.9125330" lon="99.7287150">
    <ele>58.2</ele>
    <time>2018-01-27T09:32:35Z</time>
   </trkpt>
   <trkpt lat="12.9125760" lon="99.7287050">
    <ele>58.3</ele>
    <time>2018-01-27T09:32:36Z</time>
   </trkpt>
   <trkpt lat="12.9126190" lon="99.7287010">
    <ele>58.3</ele>
    <time>2018-01-27T09:32:37Z</time>
   </trkpt>
   <trkpt lat="12.9126540" lon="99.7286950">
    <ele>58.4</ele>
    <time>2018-01-27T09:32:38Z</time>
   </trkpt>
   <trkpt lat="12.9126970" lon="99.7286840">
    <ele>58.6</ele>
    <time>2018-01-27T09:32:39Z</time>
   </trkpt>
   <trkpt lat="12.9127370" lon="99.7286740">
    <ele>58.6</ele>
    <time>2018-01-27T09:32:40Z</time>
   </trkpt>
   <trkpt lat="12.9127760" lon="99.7286600">
    <ele>58.7</ele>
    <time>2018-01-27T09:32:41Z</time>
   </trkpt>
   <trkpt lat="12.9128150" lon="99.7286430">
    <ele>59.0</ele>
    <time>2018-01-27T09:32:42Z</time>
   </trkpt>
   <trkpt lat="12.9128500" lon="99.7286240">
    <ele>59.3</ele>
    <time>2018-01-27T09:32:43Z</time>
   </trkpt>
   <trkpt lat="12.9128830" lon="99.7285980">
    <ele>59.5</ele>
    <time>2018-01-27T09:32:44Z</time>
   </trkpt>
   <trkpt lat="12.9129150" lon="99.7285680">
    <ele>59.6</ele>
    <time>2018-01-27T09:32:45Z</time>
   </trkpt>
   <trkpt lat="12.9129510" lon="99.7285240">
    <ele>59.8</ele>
    <time>2018-01-27T09:32:47Z</time>
   </trkpt>
   <trkpt lat="12.9129730" lon="99.7284930">
    <ele>59.9</ele>
    <time>2018-01-27T09:32:48Z</time>
   </trkpt>
   <trkpt lat="12.9129880" lon="99.7284650">
    <ele>60.1</ele>
    <time>2018-01-27T09:32:49Z</time>
   </trkpt>
   <trkpt lat="12.9129970" lon="99.7284340">
    <ele>60.4</ele>
    <time>2018-01-27T09:32:50Z</time>
   </trkpt>
   <trkpt lat="12.9129970" lon="99.7284010">
    <ele>60.6</ele>
    <time>2018-01-27T09:32:51Z</time>
   </trkpt>
   <trkpt lat="12.9129890" lon="99.7283660">
    <ele>60.9</ele>
    <time>2018-01-27T09:32:52Z</time>
   </trkpt>
   <trkpt lat="12.9129760" lon="99.7283300">
    <ele>61.3</ele>
    <time>2018-01-27T09:32:53Z</time>
   </trkpt>
   <trkpt lat="12.9129590" lon="99.7282960">
    <ele>61.5</ele>
    <time>2018-01-27T09:32:54Z</time>
   </trkpt>
   <trkpt lat="12.9129420" lon="99.7282610">
    <ele>61.5</ele>
    <time>2018-01-27T09:32:55Z</time>
   </trkpt>
   <trkpt lat="12.9129250" lon="99.7282290">
    <ele>61.5</ele>
    <time>2018-01-27T09:32:56Z</time>
   </trkpt>
   <trkpt lat="12.9129070" lon="99.7281780">
    <ele>61.5</ele>
    <time>2018-01-27T09:32:57Z</time>
   </trkpt>
   <trkpt lat="12.9128880" lon="99.7281440">
    <ele>61.5</ele>
    <time>2018-01-27T09:32:58Z</time>
   </trkpt>
   <trkpt lat="12.9128720" lon="99.7281100">
    <ele>61.5</ele>
    <time>2018-01-27T09:32:59Z</time>
   </trkpt>
   <trkpt lat="12.9128530" lon="99.7280800">
    <ele>61.5</ele>
    <time>2018-01-27T09:33:00Z</time>
   </trkpt>
   <trkpt lat="12.9128330" lon="99.7280440">
    <ele>61.5</ele>
    <time>2018-01-27T09:33:01Z</time>
   </trkpt>
   <trkpt lat="12.9128180" lon="99.7280080">
    <ele>61.7</ele>
    <time>2018-01-27T09:33:02Z</time>
   </trkpt>
   <trkpt lat="12.9127990" lon="99.7279720">
    <ele>61.9</ele>
    <time>2018-01-27T09:33:03Z</time>
   </trkpt>
   <trkpt lat="12.9127790" lon="99.7279360">
    <ele>62.0</ele>
    <time>2018-01-27T09:33:04Z</time>
   </trkpt>
   <trkpt lat="12.9127590" lon="99.7279000">
    <ele>62.1</ele>
    <time>2018-01-27T09:33:05Z</time>
   </trkpt>
   <trkpt lat="12.9127390" lon="99.7278640">
    <ele>62.2</ele>
    <time>2018-01-27T09:33:06Z</time>
   </trkpt>
   <trkpt lat="12.9127170" lon="99.7278260">
    <ele>62.2</ele>
    <time>2018-01-27T09:33:07Z</time>
   </trkpt>
   <trkpt lat="12.9127020" lon="99.7277990">
    <ele>62.3</ele>
    <time>2018-01-27T09:33:08Z</time>
   </trkpt>
   <trkpt lat="12.9126880" lon="99.7277710">
    <ele>62.4</ele>
    <time>2018-01-27T09:33:09Z</time>
   </trkpt>
   <trkpt lat="12.9126710" lon="99.7277370">
    <ele>62.5</ele>
    <time>2018-01-27T09:33:10Z</time>
   </trkpt>
   <trkpt lat="12.9126510" lon="99.7276980">
    <ele>62.6</ele>
    <time>2018-01-27T09:33:12Z</time>
   </trkpt>
   <trkpt lat="12.9126400" lon="99.7276710">
    <ele>62.6</ele>
    <time>2018-01-27T09:33:13Z</time>
   </trkpt>
   <trkpt lat="12.9126220" lon="99.7276360">
    <ele>62.7</ele>
    <time>2018-01-27T09:33:14Z</time>
   </trkpt>
   <trkpt lat="12.9126020" lon="99.7276010">
    <ele>62.6</ele>
    <time>2018-01-27T09:33:15Z</time>
   </trkpt>
   <trkpt lat="12.9125790" lon="99.7275670">
    <ele>62.6</ele>
    <time>2018-01-27T09:33:16Z</time>
   </trkpt>
   <trkpt lat="12.9125560" lon="99.7275330">
    <ele>62.6</ele>
    <time>2018-01-27T09:33:17Z</time>
   </trkpt>
   <trkpt lat="12.9124910" lon="99.7274400">
    <ele>62.8</ele>
    <time>2018-01-27T09:33:18Z</time>
   </trkpt>
   <trkpt lat="12.9124640" lon="99.7273980">
    <ele>62.8</ele>
    <time>2018-01-27T09:33:19Z</time>
   </trkpt>
   <trkpt lat="12.9124410" lon="99.7273590">
    <ele>62.8</ele>
    <time>2018-01-27T09:33:20Z</time>
   </trkpt>
   <trkpt lat="12.9124160" lon="99.7273170">
    <ele>62.7</ele>
    <time>2018-01-27T09:33:21Z</time>
   </trkpt>
   <trkpt lat="12.9123920" lon="99.7272810">
    <ele>62.6</ele>
    <time>2018-01-27T09:33:22Z</time>
   </trkpt>
   <trkpt lat="12.9123670" lon="99.7272410">
    <ele>62.3</ele>
    <time>2018-01-27T09:33:23Z</time>
   </trkpt>
   <trkpt lat="12.9123370" lon="99.7271960">
    <ele>61.8</ele>
    <time>2018-01-27T09:33:24Z</time>
   </trkpt>
   <trkpt lat="12.9123070" lon="99.7271500">
    <ele>61.5</ele>
    <time>2018-01-27T09:33:25Z</time>
   </trkpt>
   <trkpt lat="12.9122870" lon="99.7271120">
    <ele>61.3</ele>
    <time>2018-01-27T09:33:26Z</time>
   </trkpt>
   <trkpt lat="12.9122530" lon="99.7270660">
    <ele>61.2</ele>
    <time>2018-01-27T09:33:27Z</time>
   </trkpt>
   <trkpt lat="12.9122170" lon="99.7270150">
    <ele>60.9</ele>
    <time>2018-01-27T09:33:28Z</time>
   </trkpt>
   <trkpt lat="12.9121960" lon="99.7269710">
    <ele>60.6</ele>
    <time>2018-01-27T09:33:29Z</time>
   </trkpt>
   <trkpt lat="12.9121720" lon="99.7269350">
    <ele>60.4</ele>
    <time>2018-01-27T09:33:30Z</time>
   </trkpt>
   <trkpt lat="12.9121590" lon="99.7268820">
    <ele>60.2</ele>
    <time>2018-01-27T09:33:31Z</time>
   </trkpt>
   <trkpt lat="12.9121380" lon="99.7268380">
    <ele>59.9</ele>
    <time>2018-01-27T09:33:32Z</time>
   </trkpt>
   <trkpt lat="12.9121150" lon="99.7267930">
    <ele>59.6</ele>
    <time>2018-01-27T09:33:33Z</time>
   </trkpt>
   <trkpt lat="12.9120930" lon="99.7267500">
    <ele>59.5</ele>
    <time>2018-01-27T09:33:34Z</time>
   </trkpt>
   <trkpt lat="12.9120700" lon="99.7267050">
    <ele>59.5</ele>
    <time>2018-01-27T09:33:35Z</time>
   </trkpt>
   <trkpt lat="12.9120470" lon="99.7266600">
    <ele>59.5</ele>
    <time>2018-01-27T09:33:36Z</time>
   </trkpt>
   <trkpt lat="12.9120230" lon="99.7266170">
    <ele>59.5</ele>
    <time>2018-01-27T09:33:37Z</time>
   </trkpt>
   <trkpt lat="12.9119930" lon="99.7265730">
    <ele>59.4</ele>
    <time>2018-01-27T09:33:38Z</time>
   </trkpt>
   <trkpt lat="12.9119590" lon="99.7265210">
    <ele>59.3</ele>
    <time>2018-01-27T09:33:39Z</time>
   </trkpt>
   <trkpt lat="12.9119310" lon="99.7264780">
    <ele>59.2</ele>
    <time>2018-01-27T09:33:40Z</time>
   </trkpt>
   <trkpt lat="12.9118900" lon="99.7264380">
    <ele>59.1</ele>
    <time>2018-01-27T09:33:41Z</time>
   </trkpt>
   <trkpt lat="12.9118670" lon="99.7263920">
    <ele>59.0</ele>
    <time>2018-01-27T09:33:42Z</time>
   </trkpt>
   <trkpt lat="12.9118380" lon="99.7263420">
    <ele>59.0</ele>
    <time>2018-01-27T09:33:43Z</time>
   </trkpt>
   <trkpt lat="12.9118110" lon="99.7262940">
    <ele>59.1</ele>
    <time>2018-01-27T09:33:44Z</time>
   </trkpt>
   <trkpt lat="12.9117880" lon="99.7262550">
    <ele>59.1</ele>
    <time>2018-01-27T09:33:45Z</time>
   </trkpt>
   <trkpt lat="12.9117630" lon="99.7262080">
    <ele>59.0</ele>
    <time>2018-01-27T09:33:46Z</time>
   </trkpt>
   <trkpt lat="12.9117300" lon="99.7261610">
    <ele>58.9</ele>
    <time>2018-01-27T09:33:47Z</time>
   </trkpt>
   <trkpt lat="12.9116930" lon="99.7261170">
    <ele>58.7</ele>
    <time>2018-01-27T09:33:48Z</time>
   </trkpt>
   <trkpt lat="12.9116570" lon="99.7260680">
    <ele>58.5</ele>
    <time>2018-01-27T09:33:49Z</time>
   </trkpt>
   <trkpt lat="12.9116240" lon="99.7260230">
    <ele>58.4</ele>
    <time>2018-01-27T09:33:50Z</time>
   </trkpt>
   <trkpt lat="12.9115850" lon="99.7259770">
    <ele>58.4</ele>
    <time>2018-01-27T09:33:51Z</time>
   </trkpt>
   <trkpt lat="12.9115460" lon="99.7259230">
    <ele>58.4</ele>
    <time>2018-01-27T09:33:52Z</time>
   </trkpt>
   <trkpt lat="12.9115020" lon="99.7258710">
    <ele>58.6</ele>
    <time>2018-01-27T09:33:53Z</time>
   </trkpt>
   <trkpt lat="12.9114640" lon="99.7258200">
    <ele>58.9</ele>
    <time>2018-01-27T09:33:54Z</time>
   </trkpt>
   <trkpt lat="12.9114210" lon="99.7257870">
    <ele>59.4</ele>
    <time>2018-01-27T09:33:55Z</time>
   </trkpt>
   <trkpt lat="12.9113840" lon="99.7257530">
    <ele>59.8</ele>
    <time>2018-01-27T09:33:56Z</time>
   </trkpt>
   <trkpt lat="12.9113420" lon="99.7257050">
    <ele>60.3</ele>
    <time>2018-01-27T09:33:57Z</time>
   </trkpt>
   <trkpt lat="12.9113000" lon="99.7256540">
    <ele>61.1</ele>
    <time>2018-01-27T09:33:58Z</time>
   </trkpt>
   <trkpt lat="12.9112680" lon="99.7256090">
    <ele>61.5</ele>
    <time>2018-01-27T09:33:59Z</time>
   </trkpt>
   <trkpt lat="12.9112400" lon="99.7255660">
    <ele>61.8</ele>
    <time>2018-01-27T09:34:00Z</time>
   </trkpt>
   <trkpt lat="12.9112180" lon="99.7255260">
    <ele>61.7</ele>
    <time>2018-01-27T09:34:01Z</time>
   </trkpt>
   <trkpt lat="12.9111780" lon="99.7254800">
    <ele>61.4</ele>
    <time>2018-01-27T09:34:02Z</time>
   </trkpt>
   <trkpt lat="12.9111400" lon="99.7254360">
    <ele>61.2</ele>
    <time>2018-01-27T09:34:03Z</time>
   </trkpt>
   <trkpt lat="12.9111020" lon="99.7253900">
    <ele>60.8</ele>
    <time>2018-01-27T09:34:04Z</time>
   </trkpt>
   <trkpt lat="12.9110670" lon="99.7253430">
    <ele>60.4</ele>
    <time>2018-01-27T09:34:05Z</time>
   </trkpt>
   <trkpt lat="12.9110350" lon="99.7252940">
    <ele>60.1</ele>
    <time>2018-01-27T09:34:06Z</time>
   </trkpt>
   <trkpt lat="12.9110000" lon="99.7252460">
    <ele>60.1</ele>
    <time>2018-01-27T09:34:07Z</time>
   </trkpt>
   <trkpt lat="12.9109730" lon="99.7251980">
    <ele>60.2</ele>
    <time>2018-01-27T09:34:08Z</time>
   </trkpt>
   <trkpt lat="12.9109400" lon="99.7251500">
    <ele>60.5</ele>
    <time>2018-01-27T09:34:09Z</time>
   </trkpt>
   <trkpt lat="12.9109040" lon="99.7250980">
    <ele>60.9</ele>
    <time>2018-01-27T09:34:10Z</time>
   </trkpt>
   <trkpt lat="12.9108670" lon="99.7250490">
    <ele>61.5</ele>
    <time>2018-01-27T09:34:11Z</time>
   </trkpt>
   <trkpt lat="12.9108360" lon="99.7249970">
    <ele>61.9</ele>
    <time>2018-01-27T09:34:12Z</time>
   </trkpt>
   <trkpt lat="12.9108030" lon="99.7249530">
    <ele>62.1</ele>
    <time>2018-01-27T09:34:13Z</time>
   </trkpt>
   <trkpt lat="12.9107640" lon="99.7249100">
    <ele>62.3</ele>
    <time>2018-01-27T09:34:14Z</time>
   </trkpt>
   <trkpt lat="12.9107270" lon="99.7248670">
    <ele>62.4</ele>
    <time>2018-01-27T09:34:15Z</time>
   </trkpt>
   <trkpt lat="12.9106940" lon="99.7248220">
    <ele>62.3</ele>
    <time>2018-01-27T09:34:16Z</time>
   </trkpt>
   <trkpt lat="12.9106630" lon="99.7247710">
    <ele>62.1</ele>
    <time>2018-01-27T09:34:17Z</time>
   </trkpt>
   <trkpt lat="12.9106400" lon="99.7247230">
    <ele>61.8</ele>
    <time>2018-01-27T09:34:18Z</time>
   </trkpt>
   <trkpt lat="12.9106090" lon="99.7246760">
    <ele>61.8</ele>
    <time>2018-01-27T09:34:19Z</time>
   </trkpt>
   <trkpt lat="12.9105800" lon="99.7246350">
    <ele>62.0</ele>
    <time>2018-01-27T09:34:20Z</time>
   </trkpt>
   <trkpt lat="12.9105550" lon="99.7245980">
    <ele>62.0</ele>
    <time>2018-01-27T09:34:21Z</time>
   </trkpt>
   <trkpt lat="12.9105280" lon="99.7245580">
    <ele>61.9</ele>
    <time>2018-01-27T09:34:22Z</time>
   </trkpt>
   <trkpt lat="12.9105050" lon="99.7245200">
    <ele>61.7</ele>
    <time>2018-01-27T09:34:23Z</time>
   </trkpt>
   <trkpt lat="12.9104760" lon="99.7244820">
    <ele>61.5</ele>
    <time>2018-01-27T09:34:24Z</time>
   </trkpt>
   <trkpt lat="12.9104470" lon="99.7244430">
    <ele>61.4</ele>
    <time>2018-01-27T09:34:25Z</time>
   </trkpt>
   <trkpt lat="12.9104090" lon="99.7244090">
    <ele>61.3</ele>
    <time>2018-01-27T09:34:26Z</time>
   </trkpt>
   <trkpt lat="12.9103680" lon="99.7243760">
    <ele>61.3</ele>
    <time>2018-01-27T09:34:27Z</time>
   </trkpt>
   <trkpt lat="12.9103360" lon="99.7243540">
    <ele>61.3</ele>
    <time>2018-01-27T09:34:28Z</time>
   </trkpt>
   <trkpt lat="12.9102960" lon="99.7243340">
    <ele>61.5</ele>
    <time>2018-01-27T09:34:29Z</time>
   </trkpt>
   <trkpt lat="12.9102470" lon="99.7243090">
    <ele>61.6</ele>
    <time>2018-01-27T09:34:30Z</time>
   </trkpt>
   <trkpt lat="12.9102030" lon="99.7242770">
    <ele>61.5</ele>
    <time>2018-01-27T09:34:31Z</time>
   </trkpt>
   <trkpt lat="12.9101690" lon="99.7242470">
    <ele>61.5</ele>
    <time>2018-01-27T09:34:32Z</time>
   </trkpt>
   <trkpt lat="12.9101440" lon="99.7242140">
    <ele>61.4</ele>
    <time>2018-01-27T09:34:33Z</time>
   </trkpt>
   <trkpt lat="12.9101110" lon="99.7241820">
    <ele>61.5</ele>
    <time>2018-01-27T09:34:34Z</time>
   </trkpt>
   <trkpt lat="12.9100900" lon="99.7241460">
    <ele>61.5</ele>
    <time>2018-01-27T09:34:35Z</time>
   </trkpt>
   <trkpt lat="12.9100480" lon="99.7241040">
    <ele>61.7</ele>
    <time>2018-01-27T09:34:36Z</time>
   </trkpt>
   <trkpt lat="12.9100090" lon="99.7240620">
    <ele>61.4</ele>
    <time>2018-01-27T09:34:37Z</time>
   </trkpt>
   <trkpt lat="12.9099730" lon="99.7240240">
    <ele>61.0</ele>
    <time>2018-01-27T09:34:38Z</time>
   </trkpt>
   <trkpt lat="12.9099250" lon="99.7239920">
    <ele>60.8</ele>
    <time>2018-01-27T09:34:39Z</time>
   </trkpt>
   <trkpt lat="12.9098740" lon="99.7239590">
    <ele>60.5</ele>
    <time>2018-01-27T09:34:40Z</time>
   </trkpt>
   <trkpt lat="12.9098410" lon="99.7239240">
    <ele>60.2</ele>
    <time>2018-01-27T09:34:41Z</time>
   </trkpt>
   <trkpt lat="12.9097970" lon="99.7238830">
    <ele>60.1</ele>
    <time>2018-01-27T09:34:42Z</time>
   </trkpt>
   <trkpt lat="12.9097630" lon="99.7238460">
    <ele>60.0</ele>
    <time>2018-01-27T09:34:43Z</time>
   </trkpt>
   <trkpt lat="12.9097370" lon="99.7237960">
    <ele>60.0</ele>
    <time>2018-01-27T09:34:44Z</time>
   </trkpt>
   <trkpt lat="12.9097240" lon="99.7237380">
    <ele>60.0</ele>
    <time>2018-01-27T09:34:45Z</time>
   </trkpt>
   <trkpt lat="12.9097240" lon="99.7236740">
    <ele>60.0</ele>
    <time>2018-01-27T09:34:46Z</time>
   </trkpt>
   <trkpt lat="12.9097280" lon="99.7236150">
    <ele>60.1</ele>
    <time>2018-01-27T09:34:47Z</time>
   </trkpt>
   <trkpt lat="12.9097410" lon="99.7235550">
    <ele>60.2</ele>
    <time>2018-01-27T09:34:48Z</time>
   </trkpt>
   <trkpt lat="12.9097480" lon="99.7235100">
    <ele>60.1</ele>
    <time>2018-01-27T09:34:49Z</time>
   </trkpt>
   <trkpt lat="12.9097610" lon="99.7234750">
    <ele>59.9</ele>
    <time>2018-01-27T09:34:50Z</time>
   </trkpt>
   <trkpt lat="12.9097760" lon="99.7234320">
    <ele>59.8</ele>
    <time>2018-01-27T09:34:51Z</time>
   </trkpt>
   <trkpt lat="12.9097850" lon="99.7233870">
    <ele>59.6</ele>
    <time>2018-01-27T09:34:52Z</time>
   </trkpt>
   <trkpt lat="12.9097860" lon="99.7233370">
    <ele>59.3</ele>
    <time>2018-01-27T09:34:53Z</time>
   </trkpt>
   <trkpt lat="12.9097980" lon="99.7233030">
    <ele>59.1</ele>
    <time>2018-01-27T09:34:55Z</time>
   </trkpt>
   <trkpt lat="12.9098200" lon="99.7232500">
    <ele>58.9</ele>
    <time>2018-01-27T09:34:57Z</time>
   </trkpt>
   <trkpt lat="12.9098410" lon="99.7232130">
    <ele>58.7</ele>
    <time>2018-01-27T09:34:58Z</time>
   </trkpt>
   <trkpt lat="12.9098560" lon="99.7231050">
    <ele>58.1</ele>
    <time>2018-01-27T09:34:59Z</time>
   </trkpt>
   <trkpt lat="12.9098660" lon="99.7230650">
    <ele>57.8</ele>
    <time>2018-01-27T09:35:00Z</time>
   </trkpt>
   <trkpt lat="12.9098780" lon="99.7230270">
    <ele>57.6</ele>
    <time>2018-01-27T09:35:01Z</time>
   </trkpt>
   <trkpt lat="12.9098920" lon="99.7229980">
    <ele>57.6</ele>
    <time>2018-01-27T09:35:02Z</time>
   </trkpt>
   <trkpt lat="12.9098930" lon="99.7229540">
    <ele>57.6</ele>
    <time>2018-01-27T09:35:03Z</time>
   </trkpt>
   <trkpt lat="12.9099090" lon="99.7229120">
    <ele>57.6</ele>
    <time>2018-01-27T09:35:04Z</time>
   </trkpt>
   <trkpt lat="12.9099240" lon="99.7228840">
    <ele>57.6</ele>
    <time>2018-01-27T09:35:05Z</time>
   </trkpt>
   <trkpt lat="12.9099420" lon="99.7228510">
    <ele>57.7</ele>
    <time>2018-01-27T09:35:06Z</time>
   </trkpt>
   <trkpt lat="12.9099570" lon="99.7228150">
    <ele>57.9</ele>
    <time>2018-01-27T09:35:07Z</time>
   </trkpt>
   <trkpt lat="12.9099720" lon="99.7227730">
    <ele>58.2</ele>
    <time>2018-01-27T09:35:08Z</time>
   </trkpt>
   <trkpt lat="12.9099820" lon="99.7227380">
    <ele>58.2</ele>
    <time>2018-01-27T09:35:09Z</time>
   </trkpt>
   <trkpt lat="12.9099930" lon="99.7226990">
    <ele>58.3</ele>
    <time>2018-01-27T09:35:10Z</time>
   </trkpt>
   <trkpt lat="12.9100080" lon="99.7226540">
    <ele>58.4</ele>
    <time>2018-01-27T09:35:11Z</time>
   </trkpt>
   <trkpt lat="12.9100220" lon="99.7226100">
    <ele>58.4</ele>
    <time>2018-01-27T09:35:12Z</time>
   </trkpt>
   <trkpt lat="12.9100360" lon="99.7225670">
    <ele>58.4</ele>
    <time>2018-01-27T09:35:13Z</time>
   </trkpt>
   <trkpt lat="12.9100490" lon="99.7225140">
    <ele>58.4</ele>
    <time>2018-01-27T09:35:14Z</time>
   </trkpt>
   <trkpt lat="12.9100600" lon="99.7224710">
    <ele>58.4</ele>
    <time>2018-01-27T09:35:15Z</time>
   </trkpt>
   <trkpt lat="12.9100660" lon="99.7224320">
    <ele>58.5</ele>
    <time>2018-01-27T09:35:16Z</time>
   </trkpt>
   <trkpt lat="12.9100710" lon="99.7223930">
    <ele>58.4</ele>
    <time>2018-01-27T09:35:17Z</time>
   </trkpt>
   <trkpt lat="12.9100780" lon="99.7223500">
    <ele>58.2</ele>
    <time>2018-01-27T09:35:18Z</time>
   </trkpt>
   <trkpt lat="12.9100880" lon="99.7223110">
    <ele>58.1</ele>
    <time>2018-01-27T09:35:19Z</time>
   </trkpt>
   <trkpt lat="12.9100970" lon="99.7222740">
    <ele>58.1</ele>
    <time>2018-01-27T09:35:20Z</time>
   </trkpt>
   <trkpt lat="12.9101040" lon="99.7222440">
    <ele>58.1</ele>
    <time>2018-01-27T09:35:21Z</time>
   </trkpt>
   <trkpt lat="12.9101110" lon="99.7222150">
    <ele>58.2</ele>
    <time>2018-01-27T09:35:22Z</time>
   </trkpt>
   <trkpt lat="12.9101190" lon="99.7221850">
    <ele>58.2</ele>
    <time>2018-01-27T09:35:23Z</time>
   </trkpt>
   <trkpt lat="12.9101270" lon="99.7221510">
    <ele>58.3</ele>
    <time>2018-01-27T09:35:24Z</time>
   </trkpt>
   <trkpt lat="12.9101350" lon="99.7220940">
    <ele>58.6</ele>
    <time>2018-01-27T09:35:25Z</time>
   </trkpt>
   <trkpt lat="12.9101420" lon="99.7220570">
    <ele>58.8</ele>
    <time>2018-01-27T09:35:26Z</time>
   </trkpt>
   <trkpt lat="12.9101480" lon="99.7220230">
    <ele>59.0</ele>
    <time>2018-01-27T09:35:27Z</time>
   </trkpt>
   <trkpt lat="12.9101600" lon="99.7219880">
    <ele>59.3</ele>
    <time>2018-01-27T09:35:28Z</time>
   </trkpt>
   <trkpt lat="12.9101650" lon="99.7219530">
    <ele>59.5</ele>
    <time>2018-01-27T09:35:29Z</time>
   </trkpt>
   <trkpt lat="12.9101670" lon="99.7219180">
    <ele>59.7</ele>
    <time>2018-01-27T09:35:30Z</time>
   </trkpt>
   <trkpt lat="12.9101710" lon="99.7218840">
    <ele>59.9</ele>
    <time>2018-01-27T09:35:31Z</time>
   </trkpt>
   <trkpt lat="12.9101730" lon="99.7218500">
    <ele>60.1</ele>
    <time>2018-01-27T09:35:32Z</time>
   </trkpt>
   <trkpt lat="12.9101750" lon="99.7218200">
    <ele>60.3</ele>
    <time>2018-01-27T09:35:33Z</time>
   </trkpt>
   <trkpt lat="12.9101760" lon="99.7217900">
    <ele>60.4</ele>
    <time>2018-01-27T09:35:34Z</time>
   </trkpt>
   <trkpt lat="12.9101750" lon="99.7217320">
    <ele>60.7</ele>
    <time>2018-01-27T09:35:36Z</time>
   </trkpt>
   <trkpt lat="12.9101660" lon="99.7216650">
    <ele>61.0</ele>
    <time>2018-01-27T09:35:37Z</time>
   </trkpt>
   <trkpt lat="12.9101680" lon="99.7216300">
    <ele>61.2</ele>
    <time>2018-01-27T09:35:38Z</time>
   </trkpt>
   <trkpt lat="12.9101680" lon="99.7215920">
    <ele>61.6</ele>
    <time>2018-01-27T09:35:39Z</time>
   </trkpt>
   <trkpt lat="12.9101670" lon="99.7215560">
    <ele>62.0</ele>
    <time>2018-01-27T09:35:40Z</time>
   </trkpt>
   <trkpt lat="12.9101630" lon="99.7215210">
    <ele>62.5</ele>
    <time>2018-01-27T09:35:41Z</time>
   </trkpt>
   <trkpt lat="12.9101600" lon="99.7214830">
    <ele>62.8</ele>
    <time>2018-01-27T09:35:42Z</time>
   </trkpt>
   <trkpt lat="12.9101540" lon="99.7214470">
    <ele>63.2</ele>
    <time>2018-01-27T09:35:43Z</time>
   </trkpt>
   <trkpt lat="12.9101480" lon="99.7214130">
    <ele>63.3</ele>
    <time>2018-01-27T09:35:44Z</time>
   </trkpt>
   <trkpt lat="12.9101420" lon="99.7213800">
    <ele>63.1</ele>
    <time>2018-01-27T09:35:45Z</time>
   </trkpt>
   <trkpt lat="12.9101370" lon="99.7213520">
    <ele>63.0</ele>
    <time>2018-01-27T09:35:46Z</time>
   </trkpt>
   <trkpt lat="12.9101270" lon="99.7212950">
    <ele>62.6</ele>
    <time>2018-01-27T09:35:48Z</time>
   </trkpt>
   <trkpt lat="12.9101140" lon="99.7212340">
    <ele>62.3</ele>
    <time>2018-01-27T09:35:49Z</time>
   </trkpt>
   <trkpt lat="12.9101050" lon="99.7211940">
    <ele>62.2</ele>
    <time>2018-01-27T09:35:50Z</time>
   </trkpt>
   <trkpt lat="12.9100980" lon="99.7211560">
    <ele>62.1</ele>
    <time>2018-01-27T09:35:51Z</time>
   </trkpt>
   <trkpt lat="12.9100890" lon="99.7211180">
    <ele>61.8</ele>
    <time>2018-01-27T09:35:52Z</time>
   </trkpt>
   <trkpt lat="12.9100810" lon="99.7210810">
    <ele>61.6</ele>
    <time>2018-01-27T09:35:53Z</time>
   </trkpt>
   <trkpt lat="12.9100740" lon="99.7210420">
    <ele>61.3</ele>
    <time>2018-01-27T09:35:54Z</time>
   </trkpt>
   <trkpt lat="12.9100710" lon="99.7210030">
    <ele>60.9</ele>
    <time>2018-01-27T09:35:55Z</time>
   </trkpt>
   <trkpt lat="12.9100660" lon="99.7209630">
    <ele>60.5</ele>
    <time>2018-01-27T09:35:56Z</time>
   </trkpt>
   <trkpt lat="12.9100580" lon="99.7209230">
    <ele>60.2</ele>
    <time>2018-01-27T09:35:57Z</time>
   </trkpt>
   <trkpt lat="12.9100510" lon="99.7208820">
    <ele>59.9</ele>
    <time>2018-01-27T09:35:58Z</time>
   </trkpt>
   <trkpt lat="12.9100440" lon="99.7208390">
    <ele>59.7</ele>
    <time>2018-01-27T09:35:59Z</time>
   </trkpt>
   <trkpt lat="12.9100380" lon="99.7207980">
    <ele>59.6</ele>
    <time>2018-01-27T09:36:00Z</time>
   </trkpt>
   <trkpt lat="12.9100330" lon="99.7207580">
    <ele>59.6</ele>
    <time>2018-01-27T09:36:01Z</time>
   </trkpt>
   <trkpt lat="12.9100260" lon="99.7207170">
    <ele>59.8</ele>
    <time>2018-01-27T09:36:02Z</time>
   </trkpt>
   <trkpt lat="12.9100190" lon="99.7206770">
    <ele>60.0</ele>
    <time>2018-01-27T09:36:03Z</time>
   </trkpt>
   <trkpt lat="12.9100130" lon="99.7206410">
    <ele>60.3</ele>
    <time>2018-01-27T09:36:05Z</time>
   </trkpt>
   <trkpt lat="12.9100090" lon="99.7206010">
    <ele>60.6</ele>
    <time>2018-01-27T09:36:06Z</time>
   </trkpt>
   <trkpt lat="12.9100060" lon="99.7205660">
    <ele>60.8</ele>
    <time>2018-01-27T09:36:07Z</time>
   </trkpt>
   <trkpt lat="12.9100040" lon="99.7205310">
    <ele>61.0</ele>
    <time>2018-01-27T09:36:08Z</time>
   </trkpt>
   <trkpt lat="12.9100000" lon="99.7204950">
    <ele>61.2</ele>
    <time>2018-01-27T09:36:09Z</time>
   </trkpt>
   <trkpt lat="12.9099970" lon="99.7204590">
    <ele>61.4</ele>
    <time>2018-01-27T09:36:10Z</time>
   </trkpt>
   <trkpt lat="12.9099920" lon="99.7204200">
    <ele>61.6</ele>
    <time>2018-01-27T09:36:11Z</time>
   </trkpt>
   <trkpt lat="12.9099870" lon="99.7203810">
    <ele>61.8</ele>
    <time>2018-01-27T09:36:12Z</time>
   </trkpt>
   <trkpt lat="12.9099810" lon="99.7203390">
    <ele>62.1</ele>
    <time>2018-01-27T09:36:13Z</time>
   </trkpt>
   <trkpt lat="12.9099740" lon="99.7202940">
    <ele>62.3</ele>
    <time>2018-01-27T09:36:14Z</time>
   </trkpt>
   <trkpt lat="12.9099680" lon="99.7202460">
    <ele>62.4</ele>
    <time>2018-01-27T09:36:15Z</time>
   </trkpt>
   <trkpt lat="12.9099620" lon="99.7201950">
    <ele>62.6</ele>
    <time>2018-01-27T09:36:16Z</time>
   </trkpt>
   <trkpt lat="12.9099560" lon="99.7201460">
    <ele>62.7</ele>
    <time>2018-01-27T09:36:17Z</time>
   </trkpt>
   <trkpt lat="12.9099480" lon="99.7200970">
    <ele>62.7</ele>
    <time>2018-01-27T09:36:18Z</time>
   </trkpt>
   <trkpt lat="12.9099390" lon="99.7200520">
    <ele>62.6</ele>
    <time>2018-01-27T09:36:19Z</time>
   </trkpt>
   <trkpt lat="12.9099310" lon="99.7200060">
    <ele>62.6</ele>
    <time>2018-01-27T09:36:20Z</time>
   </trkpt>
   <trkpt lat="12.9099230" lon="99.7199610">
    <ele>62.6</ele>
    <time>2018-01-27T09:36:21Z</time>
   </trkpt>
   <trkpt lat="12.9099160" lon="99.7199170">
    <ele>62.4</ele>
    <time>2018-01-27T09:36:22Z</time>
   </trkpt>
   <trkpt lat="12.9099110" lon="99.7198730">
    <ele>62.3</ele>
    <time>2018-01-27T09:36:23Z</time>
   </trkpt>
   <trkpt lat="12.9099050" lon="99.7198290">
    <ele>62.2</ele>
    <time>2018-01-27T09:36:24Z</time>
   </trkpt>
   <trkpt lat="12.9098990" lon="99.7197850">
    <ele>62.1</ele>
    <time>2018-01-27T09:36:25Z</time>
   </trkpt>
   <trkpt lat="12.9098940" lon="99.7197420">
    <ele>62.2</ele>
    <time>2018-01-27T09:36:26Z</time>
   </trkpt>
   <trkpt lat="12.9098890" lon="99.7196980">
    <ele>62.2</ele>
    <time>2018-01-27T09:36:27Z</time>
   </trkpt>
   <trkpt lat="12.9098830" lon="99.7196500">
    <ele>62.4</ele>
    <time>2018-01-27T09:36:28Z</time>
   </trkpt>
   <trkpt lat="12.9098760" lon="99.7196020">
    <ele>62.5</ele>
    <time>2018-01-27T09:36:29Z</time>
   </trkpt>
   <trkpt lat="12.9098670" lon="99.7195510">
    <ele>62.8</ele>
    <time>2018-01-27T09:36:30Z</time>
   </trkpt>
   <trkpt lat="12.9098590" lon="99.7195060">
    <ele>63.1</ele>
    <time>2018-01-27T09:36:31Z</time>
   </trkpt>
   <trkpt lat="12.9098520" lon="99.7194520">
    <ele>63.4</ele>
    <time>2018-01-27T09:36:32Z</time>
   </trkpt>
   <trkpt lat="12.9098490" lon="99.7194060">
    <ele>63.8</ele>
    <time>2018-01-27T09:36:33Z</time>
   </trkpt>
   <trkpt lat="12.9098410" lon="99.7193560">
    <ele>63.9</ele>
    <time>2018-01-27T09:36:34Z</time>
   </trkpt>
   <trkpt lat="12.9098330" lon="99.7193040">
    <ele>64.0</ele>
    <time>2018-01-27T09:36:35Z</time>
   </trkpt>
   <trkpt lat="12.9098290" lon="99.7192530">
    <ele>64.0</ele>
    <time>2018-01-27T09:36:36Z</time>
   </trkpt>
   <trkpt lat="12.9098220" lon="99.7192020">
    <ele>64.0</ele>
    <time>2018-01-27T09:36:37Z</time>
   </trkpt>
   <trkpt lat="12.9098090" lon="99.7191400">
    <ele>63.9</ele>
    <time>2018-01-27T09:36:38Z</time>
   </trkpt>
   <trkpt lat="12.9098150" lon="99.7191020">
    <ele>63.8</ele>
    <time>2018-01-27T09:36:39Z</time>
   </trkpt>
   <trkpt lat="12.9098100" lon="99.7190490">
    <ele>63.4</ele>
    <time>2018-01-27T09:36:40Z</time>
   </trkpt>
   <trkpt lat="12.9098050" lon="99.7189930">
    <ele>62.9</ele>
    <time>2018-01-27T09:36:41Z</time>
   </trkpt>
   <trkpt lat="12.9097970" lon="99.7189390">
    <ele>62.5</ele>
    <time>2018-01-27T09:36:42Z</time>
   </trkpt>
   <trkpt lat="12.9097940" lon="99.7188880">
    <ele>62.2</ele>
    <time>2018-01-27T09:36:43Z</time>
   </trkpt>
   <trkpt lat="12.9097850" lon="99.7188330">
    <ele>62.0</ele>
    <time>2018-01-27T09:36:44Z</time>
   </trkpt>
   <trkpt lat="12.9097780" lon="99.7187870">
    <ele>62.1</ele>
    <time>2018-01-27T09:36:45Z</time>
   </trkpt>
   <trkpt lat="12.9097680" lon="99.7187330">
    <ele>62.2</ele>
    <time>2018-01-27T09:36:46Z</time>
   </trkpt>
   <trkpt lat="12.9097580" lon="99.7186770">
    <ele>62.3</ele>
    <time>2018-01-27T09:36:47Z</time>
   </trkpt>
   <trkpt lat="12.9097500" lon="99.7186320">
    <ele>62.4</ele>
    <time>2018-01-27T09:36:48Z</time>
   </trkpt>
   <trkpt lat="12.9097410" lon="99.7185720">
    <ele>62.5</ele>
    <time>2018-01-27T09:36:49Z</time>
   </trkpt>
   <trkpt lat="12.9097270" lon="99.7185140">
    <ele>62.6</ele>
    <time>2018-01-27T09:36:50Z</time>
   </trkpt>
   <trkpt lat="12.9097150" lon="99.7184570">
    <ele>62.5</ele>
    <time>2018-01-27T09:36:51Z</time>
   </trkpt>
   <trkpt lat="12.9097080" lon="99.7183940">
    <ele>62.3</ele>
    <time>2018-01-27T09:36:52Z</time>
   </trkpt>
   <trkpt lat="12.9096910" lon="99.7183240">
    <ele>62.2</ele>
    <time>2018-01-27T09:36:53Z</time>
   </trkpt>
   <trkpt lat="12.9096860" lon="99.7182720">
    <ele>62.1</ele>
    <time>2018-01-27T09:36:54Z</time>
   </trkpt>
   <trkpt lat="12.9096730" lon="99.7182120">
    <ele>62.1</ele>
    <time>2018-01-27T09:36:55Z</time>
   </trkpt>
   <trkpt lat="12.9096730" lon="99.7181530">
    <ele>62.2</ele>
    <time>2018-01-27T09:36:56Z</time>
   </trkpt>
   <trkpt lat="12.9096700" lon="99.7180960">
    <ele>62.2</ele>
    <time>2018-01-27T09:36:57Z</time>
   </trkpt>
   <trkpt lat="12.9096640" lon="99.7180370">
    <ele>62.3</ele>
    <time>2018-01-27T09:36:58Z</time>
   </trkpt>
   <trkpt lat="12.9096480" lon="99.7179670">
    <ele>62.3</ele>
    <time>2018-01-27T09:36:59Z</time>
   </trkpt>
   <trkpt lat="12.9096420" lon="99.7178910">
    <ele>62.3</ele>
    <time>2018-01-27T09:37:00Z</time>
   </trkpt>
   <trkpt lat="12.9096310" lon="99.7178290">
    <ele>62.3</ele>
    <time>2018-01-27T09:37:01Z</time>
   </trkpt>
   <trkpt lat="12.9096170" lon="99.7177670">
    <ele>62.3</ele>
    <time>2018-01-27T09:37:02Z</time>
   </trkpt>
   <trkpt lat="12.9096070" lon="99.7177030">
    <ele>62.3</ele>
    <time>2018-01-27T09:37:03Z</time>
   </trkpt>
   <trkpt lat="12.9096000" lon="99.7176400">
    <ele>62.1</ele>
    <time>2018-01-27T09:37:04Z</time>
   </trkpt>
   <trkpt lat="12.9095810" lon="99.7175780">
    <ele>62.0</ele>
    <time>2018-01-27T09:37:05Z</time>
   </trkpt>
   <trkpt lat="12.9095630" lon="99.7175000">
    <ele>61.7</ele>
    <time>2018-01-27T09:37:06Z</time>
   </trkpt>
   <trkpt lat="12.9095390" lon="99.7174300">
    <ele>61.3</ele>
    <time>2018-01-27T09:37:07Z</time>
   </trkpt>
   <trkpt lat="12.9095300" lon="99.7173620">
    <ele>61.1</ele>
    <time>2018-01-27T09:37:08Z</time>
   </trkpt>
   <trkpt lat="12.9095250" lon="99.7172930">
    <ele>61.0</ele>
    <time>2018-01-27T09:37:09Z</time>
   </trkpt>
   <trkpt lat="12.9095230" lon="99.7172220">
    <ele>60.8</ele>
    <time>2018-01-27T09:37:10Z</time>
   </trkpt>
   <trkpt lat="12.9095230" lon="99.7171570">
    <ele>60.7</ele>
    <time>2018-01-27T09:37:11Z</time>
   </trkpt>
   <trkpt lat="12.9095320" lon="99.7171030">
    <ele>60.6</ele>
    <time>2018-01-27T09:37:12Z</time>
   </trkpt>
   <trkpt lat="12.9095480" lon="99.7170630">
    <ele>60.5</ele>
    <time>2018-01-27T09:37:13Z</time>
   </trkpt>
   <trkpt lat="12.9095630" lon="99.7170210">
    <ele>60.4</ele>
    <time>2018-01-27T09:37:14Z</time>
   </trkpt>
   <trkpt lat="12.9096000" lon="99.7169850">
    <ele>60.1</ele>
    <time>2018-01-27T09:37:15Z</time>
   </trkpt>
   <trkpt lat="12.9096130" lon="99.7169500">
    <ele>59.9</ele>
    <time>2018-01-27T09:37:16Z</time>
   </trkpt>
   <trkpt lat="12.9096030" lon="99.7169190">
    <ele>59.7</ele>
    <time>2018-01-27T09:37:17Z</time>
   </trkpt>
   <trkpt lat="12.9095840" lon="99.7168810">
    <ele>59.4</ele>
    <time>2018-01-27T09:37:18Z</time>
   </trkpt>
   <trkpt lat="12.9095720" lon="99.7168340">
    <ele>59.1</ele>
    <time>2018-01-27T09:37:20Z</time>
   </trkpt>
   <trkpt lat="12.9095670" lon="99.7167970">
    <ele>58.9</ele>
    <time>2018-01-27T09:37:21Z</time>
   </trkpt>
   <trkpt lat="12.9095640" lon="99.7167690">
    <ele>58.7</ele>
    <time>2018-01-27T09:37:22Z</time>
   </trkpt>
   <trkpt lat="12.9095460" lon="99.7167370">
    <ele>58.8</ele>
    <time>2018-01-27T09:37:24Z</time>
   </trkpt>
   <trkpt lat="12.9095190" lon="99.7167060">
    <ele>58.8</ele>
    <time>2018-01-27T09:37:25Z</time>
   </trkpt>
   <trkpt lat="12.9094910" lon="99.7166730">
    <ele>58.8</ele>
    <time>2018-01-27T09:37:26Z</time>
   </trkpt>
   <trkpt lat="12.9094690" lon="99.7166430">
    <ele>58.9</ele>
    <time>2018-01-27T09:37:27Z</time>
   </trkpt>
   <trkpt lat="12.9094550" lon="99.7165980">
    <ele>59.0</ele>
    <time>2018-01-27T09:37:28Z</time>
   </trkpt>
   <trkpt lat="12.9094340" lon="99.7165140">
    <ele>59.4</ele>
    <time>2018-01-27T09:37:29Z</time>
   </trkpt>
   <trkpt lat="12.9094270" lon="99.7164710">
    <ele>59.6</ele>
    <time>2018-01-27T09:37:30Z</time>
   </trkpt>
   <trkpt lat="12.9094090" lon="99.7164300">
    <ele>60.0</ele>
    <time>2018-01-27T09:37:31Z</time>
   </trkpt>
   <trkpt lat="12.9093980" lon="99.7163900">
    <ele>60.3</ele>
    <time>2018-01-27T09:37:32Z</time>
   </trkpt>
   <trkpt lat="12.9093900" lon="99.7163420">
    <ele>60.9</ele>
    <time>2018-01-27T09:37:33Z</time>
   </trkpt>
   <trkpt lat="12.9093820" lon="99.7163030">
    <ele>61.3</ele>
    <time>2018-01-27T09:37:34Z</time>
   </trkpt>
   <trkpt lat="12.9093710" lon="99.7162570">
    <ele>61.7</ele>
    <time>2018-01-27T09:37:35Z</time>
   </trkpt>
   <trkpt lat="12.9093560" lon="99.7162150">
    <ele>62.0</ele>
    <time>2018-01-27T09:37:36Z</time>
   </trkpt>
   <trkpt lat="12.9093350" lon="99.7161570">
    <ele>62.2</ele>
    <time>2018-01-27T09:37:37Z</time>
   </trkpt>
   <trkpt lat="12.9093270" lon="99.7161120">
    <ele>62.2</ele>
    <time>2018-01-27T09:37:38Z</time>
   </trkpt>
   <trkpt lat="12.9093200" lon="99.7160660">
    <ele>62.2</ele>
    <time>2018-01-27T09:37:39Z</time>
   </trkpt>
   <trkpt lat="12.9093250" lon="99.7160230">
    <ele>62.1</ele>
    <time>2018-01-27T09:37:40Z</time>
   </trkpt>
   <trkpt lat="12.9093170" lon="99.7159720">
    <ele>61.9</ele>
    <time>2018-01-27T09:37:41Z</time>
   </trkpt>
   <trkpt lat="12.9093250" lon="99.7159280">
    <ele>62.0</ele>
    <time>2018-01-27T09:37:42Z</time>
   </trkpt>
   <trkpt lat="12.9093240" lon="99.7158820">
    <ele>62.0</ele>
    <time>2018-01-27T09:37:43Z</time>
   </trkpt>
   <trkpt lat="12.9093060" lon="99.7158350">
    <ele>62.0</ele>
    <time>2018-01-27T09:37:44Z</time>
   </trkpt>
   <trkpt lat="12.9092920" lon="99.7157860">
    <ele>62.0</ele>
    <time>2018-01-27T09:37:45Z</time>
   </trkpt>
   <trkpt lat="12.9092830" lon="99.7157350">
    <ele>62.0</ele>
    <time>2018-01-27T09:37:46Z</time>
   </trkpt>
   <trkpt lat="12.9093040" lon="99.7156930">
    <ele>61.9</ele>
    <time>2018-01-27T09:37:47Z</time>
   </trkpt>
   <trkpt lat="12.9093250" lon="99.7156580">
    <ele>61.9</ele>
    <time>2018-01-27T09:37:48Z</time>
   </trkpt>
   <trkpt lat="12.9093560" lon="99.7156180">
    <ele>61.8</ele>
    <time>2018-01-27T09:37:49Z</time>
   </trkpt>
   <trkpt lat="12.9093870" lon="99.7155810">
    <ele>61.7</ele>
    <time>2018-01-27T09:37:50Z</time>
   </trkpt>
   <trkpt lat="12.9094240" lon="99.7155560">
    <ele>61.7</ele>
    <time>2018-01-27T09:37:51Z</time>
   </trkpt>
   <trkpt lat="12.9094560" lon="99.7155190">
    <ele>61.7</ele>
    <time>2018-01-27T09:37:52Z</time>
   </trkpt>
   <trkpt lat="12.9094850" lon="99.7154840">
    <ele>61.8</ele>
    <time>2018-01-27T09:37:53Z</time>
   </trkpt>
   <trkpt lat="12.9095280" lon="99.7154600">
    <ele>61.9</ele>
    <time>2018-01-27T09:37:54Z</time>
   </trkpt>
   <trkpt lat="12.9095780" lon="99.7154320">
    <ele>62.2</ele>
    <time>2018-01-27T09:37:55Z</time>
   </trkpt>
   <trkpt lat="12.9096180" lon="99.7154070">
    <ele>62.5</ele>
    <time>2018-01-27T09:37:56Z</time>
   </trkpt>
   <trkpt lat="12.9096580" lon="99.7153780">
    <ele>62.7</ele>
    <time>2018-01-27T09:37:57Z</time>
   </trkpt>
   <trkpt lat="12.9096930" lon="99.7153530">
    <ele>63.0</ele>
    <time>2018-01-27T09:37:58Z</time>
   </trkpt>
   <trkpt lat="12.9097220" lon="99.7153290">
    <ele>63.3</ele>
    <time>2018-01-27T09:37:59Z</time>
   </trkpt>
   <trkpt lat="12.9097530" lon="99.7152990">
    <ele>63.5</ele>
    <time>2018-01-27T09:38:00Z</time>
   </trkpt>
   <trkpt lat="12.9097850" lon="99.7152640">
    <ele>63.4</ele>
    <time>2018-01-27T09:38:01Z</time>
   </trkpt>
   <trkpt lat="12.9098170" lon="99.7152300">
    <ele>63.4</ele>
    <time>2018-01-27T09:38:02Z</time>
   </trkpt>
   <trkpt lat="12.9098550" lon="99.7152060">
    <ele>63.5</ele>
    <time>2018-01-27T09:38:03Z</time>
   </trkpt>
   <trkpt lat="12.9098860" lon="99.7151710">
    <ele>63.6</ele>
    <time>2018-01-27T09:38:04Z</time>
   </trkpt>
   <trkpt lat="12.9099060" lon="99.7151200">
    <ele>63.6</ele>
    <time>2018-01-27T09:38:05Z</time>
   </trkpt>
   <trkpt lat="12.9099290" lon="99.7150670">
    <ele>63.8</ele>
    <time>2018-01-27T09:38:06Z</time>
   </trkpt>
   <trkpt lat="12.9099520" lon="99.7150140">
    <ele>64.1</ele>
    <time>2018-01-27T09:38:07Z</time>
   </trkpt>
   <trkpt lat="12.9099740" lon="99.7149640">
    <ele>64.4</ele>
    <time>2018-01-27T09:38:08Z</time>
   </trkpt>
   <trkpt lat="12.9099900" lon="99.7149170">
    <ele>64.4</ele>
    <time>2018-01-27T09:38:09Z</time>
   </trkpt>
   <trkpt lat="12.9100110" lon="99.7148710">
    <ele>64.2</ele>
    <time>2018-01-27T09:38:10Z</time>
   </trkpt>
   <trkpt lat="12.9100340" lon="99.7148260">
    <ele>63.8</ele>
    <time>2018-01-27T09:38:11Z</time>
   </trkpt>
   <trkpt lat="12.9100640" lon="99.7147870">
    <ele>63.5</ele>
    <time>2018-01-27T09:38:12Z</time>
   </trkpt>
   <trkpt lat="12.9100990" lon="99.7147580">
    <ele>63.2</ele>
    <time>2018-01-27T09:38:13Z</time>
   </trkpt>
   <trkpt lat="12.9101360" lon="99.7147390">
    <ele>63.1</ele>
    <time>2018-01-27T09:38:14Z</time>
   </trkpt>
   <trkpt lat="12.9101790" lon="99.7147160">
    <ele>63.0</ele>
    <time>2018-01-27T09:38:15Z</time>
   </trkpt>
   <trkpt lat="12.9102350" lon="99.7146940">
    <ele>63.0</ele>
    <time>2018-01-27T09:38:16Z</time>
   </trkpt>
   <trkpt lat="12.9102860" lon="99.7146710">
    <ele>63.1</ele>
    <time>2018-01-27T09:38:17Z</time>
   </trkpt>
   <trkpt lat="12.9103300" lon="99.7146580">
    <ele>63.1</ele>
    <time>2018-01-27T09:38:18Z</time>
   </trkpt>
   <trkpt lat="12.9103720" lon="99.7146590">
    <ele>62.9</ele>
    <time>2018-01-27T09:38:19Z</time>
   </trkpt>
   <trkpt lat="12.9104210" lon="99.7146610">
    <ele>62.6</ele>
    <time>2018-01-27T09:38:20Z</time>
   </trkpt>
   <trkpt lat="12.9104700" lon="99.7146660">
    <ele>62.2</ele>
    <time>2018-01-27T09:38:21Z</time>
   </trkpt>
   <trkpt lat="12.9105230" lon="99.7146650">
    <ele>62.1</ele>
    <time>2018-01-27T09:38:22Z</time>
   </trkpt>
   <trkpt lat="12.9105690" lon="99.7146730">
    <ele>62.1</ele>
    <time>2018-01-27T09:38:23Z</time>
   </trkpt>
   <trkpt lat="12.9106180" lon="99.7146850">
    <ele>62.1</ele>
    <time>2018-01-27T09:38:24Z</time>
   </trkpt>
   <trkpt lat="12.9106590" lon="99.7146890">
    <ele>62.2</ele>
    <time>2018-01-27T09:38:25Z</time>
   </trkpt>
   <trkpt lat="12.9106940" lon="99.7146780">
    <ele>62.2</ele>
    <time>2018-01-27T09:38:26Z</time>
   </trkpt>
   <trkpt lat="12.9107490" lon="99.7146680">
    <ele>62.2</ele>
    <time>2018-01-27T09:38:27Z</time>
   </trkpt>
   <trkpt lat="12.9107960" lon="99.7146430">
    <ele>62.1</ele>
    <time>2018-01-27T09:38:28Z</time>
   </trkpt>
   <trkpt lat="12.9108370" lon="99.7146210">
    <ele>62.0</ele>
    <time>2018-01-27T09:38:29Z</time>
   </trkpt>
   <trkpt lat="12.9108770" lon="99.7146010">
    <ele>61.7</ele>
    <time>2018-01-27T09:38:30Z</time>
   </trkpt>
   <trkpt lat="12.9109200" lon="99.7145840">
    <ele>61.4</ele>
    <time>2018-01-27T09:38:31Z</time>
   </trkpt>
   <trkpt lat="12.9109680" lon="99.7145660">
    <ele>60.9</ele>
    <time>2018-01-27T09:38:32Z</time>
   </trkpt>
   <trkpt lat="12.9110130" lon="99.7145510">
    <ele>60.6</ele>
    <time>2018-01-27T09:38:33Z</time>
   </trkpt>
   <trkpt lat="12.9110590" lon="99.7145310">
    <ele>60.3</ele>
    <time>2018-01-27T09:38:34Z</time>
   </trkpt>
   <trkpt lat="12.9111030" lon="99.7145120">
    <ele>60.2</ele>
    <time>2018-01-27T09:38:35Z</time>
   </trkpt>
   <trkpt lat="12.9111510" lon="99.7144910">
    <ele>60.2</ele>
    <time>2018-01-27T09:38:36Z</time>
   </trkpt>
   <trkpt lat="12.9111960" lon="99.7144560">
    <ele>60.2</ele>
    <time>2018-01-27T09:38:37Z</time>
   </trkpt>
   <trkpt lat="12.9112500" lon="99.7144280">
    <ele>60.3</ele>
    <time>2018-01-27T09:38:38Z</time>
   </trkpt>
   <trkpt lat="12.9112830" lon="99.7144030">
    <ele>60.3</ele>
    <time>2018-01-27T09:38:39Z</time>
   </trkpt>
   <trkpt lat="12.9113240" lon="99.7143780">
    <ele>60.4</ele>
    <time>2018-01-27T09:38:40Z</time>
   </trkpt>
   <trkpt lat="12.9113640" lon="99.7143620">
    <ele>60.8</ele>
    <time>2018-01-27T09:38:41Z</time>
   </trkpt>
   <trkpt lat="12.9114060" lon="99.7143360">
    <ele>61.2</ele>
    <time>2018-01-27T09:38:42Z</time>
   </trkpt>
   <trkpt lat="12.9114410" lon="99.7143070">
    <ele>61.3</ele>
    <time>2018-01-27T09:38:43Z</time>
   </trkpt>
   <trkpt lat="12.9114830" lon="99.7142840">
    <ele>61.5</ele>
    <time>2018-01-27T09:38:44Z</time>
   </trkpt>
   <trkpt lat="12.9115110" lon="99.7142550">
    <ele>61.5</ele>
    <time>2018-01-27T09:38:45Z</time>
   </trkpt>
   <trkpt lat="12.9115400" lon="99.7142280">
    <ele>61.6</ele>
    <time>2018-01-27T09:38:46Z</time>
   </trkpt>
   <trkpt lat="12.9115820" lon="99.7142040">
    <ele>61.9</ele>
    <time>2018-01-27T09:38:49Z</time>
   </trkpt>
   <trkpt lat="12.9116210" lon="99.7141810">
    <ele>62.3</ele>
    <time>2018-01-27T09:38:50Z</time>
   </trkpt>
   <trkpt lat="12.9116530" lon="99.7141600">
    <ele>62.9</ele>
    <time>2018-01-27T09:38:51Z</time>
   </trkpt>
   <trkpt lat="12.9116860" lon="99.7141380">
    <ele>63.4</ele>
    <time>2018-01-27T09:38:52Z</time>
   </trkpt>
   <trkpt lat="12.9117180" lon="99.7141170">
    <ele>63.8</ele>
    <time>2018-01-27T09:38:53Z</time>
   </trkpt>
   <trkpt lat="12.9117510" lon="99.7140950">
    <ele>64.0</ele>
    <time>2018-01-27T09:38:54Z</time>
   </trkpt>
   <trkpt lat="12.9117850" lon="99.7140730">
    <ele>64.3</ele>
    <time>2018-01-27T09:38:55Z</time>
   </trkpt>
   <trkpt lat="12.9118210" lon="99.7140490">
    <ele>64.4</ele>
    <time>2018-01-27T09:38:56Z</time>
   </trkpt>
   <trkpt lat="12.9118600" lon="99.7140250">
    <ele>64.5</ele>
    <time>2018-01-27T09:38:57Z</time>
   </trkpt>
   <trkpt lat="12.9119030" lon="99.7139980">
    <ele>64.5</ele>
    <time>2018-01-27T09:38:58Z</time>
   </trkpt>
   <trkpt lat="12.9119460" lon="99.7139700">
    <ele>64.6</ele>
    <time>2018-01-27T09:38:59Z</time>
   </trkpt>
   <trkpt lat="12.9119870" lon="99.7139420">
    <ele>64.7</ele>
    <time>2018-01-27T09:39:00Z</time>
   </trkpt>
   <trkpt lat="12.9120300" lon="99.7139120">
    <ele>64.7</ele>
    <time>2018-01-27T09:39:01Z</time>
   </trkpt>
   <trkpt lat="12.9120700" lon="99.7138830">
    <ele>64.6</ele>
    <time>2018-01-27T09:39:02Z</time>
   </trkpt>
   <trkpt lat="12.9121070" lon="99.7138550">
    <ele>64.5</ele>
    <time>2018-01-27T09:39:03Z</time>
   </trkpt>
   <trkpt lat="12.9121440" lon="99.7138290">
    <ele>64.3</ele>
    <time>2018-01-27T09:39:04Z</time>
   </trkpt>
   <trkpt lat="12.9121820" lon="99.7138010">
    <ele>64.0</ele>
    <time>2018-01-27T09:39:05Z</time>
   </trkpt>
   <trkpt lat="12.9122200" lon="99.7137730">
    <ele>63.6</ele>
    <time>2018-01-27T09:39:06Z</time>
   </trkpt>
   <trkpt lat="12.9122570" lon="99.7137470">
    <ele>63.6</ele>
    <time>2018-01-27T09:39:07Z</time>
   </trkpt>
   <trkpt lat="12.9122940" lon="99.7137220">
    <ele>63.6</ele>
    <time>2018-01-27T09:39:08Z</time>
   </trkpt>
   <trkpt lat="12.9123320" lon="99.7136990">
    <ele>63.7</ele>
    <time>2018-01-27T09:39:09Z</time>
   </trkpt>
   <trkpt lat="12.9123710" lon="99.7136740">
    <ele>63.7</ele>
    <time>2018-01-27T09:39:10Z</time>
   </trkpt>
   <trkpt lat="12.9124060" lon="99.7136520">
    <ele>63.6</ele>
    <time>2018-01-27T09:39:11Z</time>
   </trkpt>
   <trkpt lat="12.9124420" lon="99.7136320">
    <ele>63.6</ele>
    <time>2018-01-27T09:39:12Z</time>
   </trkpt>
   <trkpt lat="12.9124750" lon="99.7136150">
    <ele>63.6</ele>
    <time>2018-01-27T09:39:13Z</time>
   </trkpt>
   <trkpt lat="12.9125090" lon="99.7135980">
    <ele>63.6</ele>
    <time>2018-01-27T09:39:14Z</time>
   </trkpt>
   <trkpt lat="12.9125420" lon="99.7135810">
    <ele>63.6</ele>
    <time>2018-01-27T09:39:15Z</time>
   </trkpt>
   <trkpt lat="12.9125760" lon="99.7135620">
    <ele>63.7</ele>
    <time>2018-01-27T09:39:16Z</time>
   </trkpt>
   <trkpt lat="12.9126100" lon="99.7135420">
    <ele>63.8</ele>
    <time>2018-01-27T09:39:17Z</time>
   </trkpt>
   <trkpt lat="12.9126450" lon="99.7135240">
    <ele>64.0</ele>
    <time>2018-01-27T09:39:18Z</time>
   </trkpt>
   <trkpt lat="12.9126790" lon="99.7135060">
    <ele>64.1</ele>
    <time>2018-01-27T09:39:19Z</time>
   </trkpt>
   <trkpt lat="12.9127140" lon="99.7134880">
    <ele>64.4</ele>
    <time>2018-01-27T09:39:20Z</time>
   </trkpt>
   <trkpt lat="12.9127490" lon="99.7134700">
    <ele>64.7</ele>
    <time>2018-01-27T09:39:21Z</time>
   </trkpt>
   <trkpt lat="12.9127830" lon="99.7134530">
    <ele>65.0</ele>
    <time>2018-01-27T09:39:22Z</time>
   </trkpt>
   <trkpt lat="12.9128190" lon="99.7134320">
    <ele>65.3</ele>
    <time>2018-01-27T09:39:23Z</time>
   </trkpt>
   <trkpt lat="12.9128540" lon="99.7134110">
    <ele>65.5</ele>
    <time>2018-01-27T09:39:24Z</time>
   </trkpt>
   <trkpt lat="12.9128910" lon="99.7133900">
    <ele>65.6</ele>
    <time>2018-01-27T09:39:25Z</time>
   </trkpt>
   <trkpt lat="12.9129270" lon="99.7133680">
    <ele>65.7</ele>
    <time>2018-01-27T09:39:26Z</time>
   </trkpt>
   <trkpt lat="12.9129620" lon="99.7133480">
    <ele>65.7</ele>
    <time>2018-01-27T09:39:27Z</time>
   </trkpt>
   <trkpt lat="12.9129970" lon="99.7133270">
    <ele>65.7</ele>
    <time>2018-01-27T09:39:28Z</time>
   </trkpt>
   <trkpt lat="12.9130340" lon="99.7133030">
    <ele>65.7</ele>
    <time>2018-01-27T09:39:29Z</time>
   </trkpt>
   <trkpt lat="12.9130730" lon="99.7132800">
    <ele>65.8</ele>
    <time>2018-01-27T09:39:30Z</time>
   </trkpt>
   <trkpt lat="12.9131100" lon="99.7132570">
    <ele>65.8</ele>
    <time>2018-01-27T09:39:31Z</time>
   </trkpt>
   <trkpt lat="12.9131470" lon="99.7132340">
    <ele>65.8</ele>
    <time>2018-01-27T09:39:32Z</time>
   </trkpt>
   <trkpt lat="12.9131830" lon="99.7132110">
    <ele>65.7</ele>
    <time>2018-01-27T09:39:33Z</time>
   </trkpt>
   <trkpt lat="12.9132190" lon="99.7131880">
    <ele>65.5</ele>
    <time>2018-01-27T09:39:34Z</time>
   </trkpt>
   <trkpt lat="12.9132550" lon="99.7131670">
    <ele>65.3</ele>
    <time>2018-01-27T09:39:35Z</time>
   </trkpt>
   <trkpt lat="12.9132900" lon="99.7131470">
    <ele>65.1</ele>
    <time>2018-01-27T09:39:36Z</time>
   </trkpt>
   <trkpt lat="12.9133250" lon="99.7131270">
    <ele>64.9</ele>
    <time>2018-01-27T09:39:37Z</time>
   </trkpt>
   <trkpt lat="12.9133600" lon="99.7131070">
    <ele>64.8</ele>
    <time>2018-01-27T09:39:38Z</time>
   </trkpt>
   <trkpt lat="12.9133970" lon="99.7130860">
    <ele>64.7</ele>
    <time>2018-01-27T09:39:39Z</time>
   </trkpt>
   <trkpt lat="12.9134360" lon="99.7130670">
    <ele>64.6</ele>
    <time>2018-01-27T09:39:40Z</time>
   </trkpt>
   <trkpt lat="12.9134730" lon="99.7130500">
    <ele>64.5</ele>
    <time>2018-01-27T09:39:41Z</time>
   </trkpt>
   <trkpt lat="12.9135110" lon="99.7130290">
    <ele>64.5</ele>
    <time>2018-01-27T09:39:42Z</time>
   </trkpt>
   <trkpt lat="12.9135490" lon="99.7130070">
    <ele>64.5</ele>
    <time>2018-01-27T09:39:43Z</time>
   </trkpt>
   <trkpt lat="12.9135870" lon="99.7129840">
    <ele>64.7</ele>
    <time>2018-01-27T09:39:44Z</time>
   </trkpt>
   <trkpt lat="12.9136250" lon="99.7129600">
    <ele>65.0</ele>
    <time>2018-01-27T09:39:45Z</time>
   </trkpt>
   <trkpt lat="12.9136650" lon="99.7129360">
    <ele>65.3</ele>
    <time>2018-01-27T09:39:46Z</time>
   </trkpt>
   <trkpt lat="12.9137070" lon="99.7129120">
    <ele>65.8</ele>
    <time>2018-01-27T09:39:47Z</time>
   </trkpt>
   <trkpt lat="12.9137490" lon="99.7128890">
    <ele>66.1</ele>
    <time>2018-01-27T09:39:48Z</time>
   </trkpt>
   <trkpt lat="12.9137920" lon="99.7128650">
    <ele>66.3</ele>
    <time>2018-01-27T09:39:49Z</time>
   </trkpt>
   <trkpt lat="12.9138340" lon="99.7128360">
    <ele>66.7</ele>
    <time>2018-01-27T09:39:50Z</time>
   </trkpt>
   <trkpt lat="12.9138840" lon="99.7128060">
    <ele>67.1</ele>
    <time>2018-01-27T09:39:51Z</time>
   </trkpt>
   <trkpt lat="12.9139280" lon="99.7127780">
    <ele>67.8</ele>
    <time>2018-01-27T09:39:52Z</time>
   </trkpt>
   <trkpt lat="12.9141310" lon="99.7126520">
    <ele>69.3</ele>
    <time>2018-01-27T09:39:57Z</time>
   </trkpt>
   <trkpt lat="12.9142230" lon="99.7125950">
    <ele>69.7</ele>
    <time>2018-01-27T09:39:59Z</time>
   </trkpt>
   <trkpt lat="12.9143640" lon="99.7124980">
    <ele>70.5</ele>
    <time>2018-01-27T09:40:03Z</time>
   </trkpt>
   <trkpt lat="12.9144230" lon="99.7124590">
    <ele>70.9</ele>
    <time>2018-01-27T09:40:04Z</time>
   </trkpt>
   <trkpt lat="12.9144480" lon="99.7124450">
    <ele>71.0</ele>
    <time>2018-01-27T09:40:05Z</time>
   </trkpt>
   <trkpt lat="12.9144890" lon="99.7124310">
    <ele>71.1</ele>
    <time>2018-01-27T09:40:06Z</time>
   </trkpt>
   <trkpt lat="12.9145200" lon="99.7123970">
    <ele>71.2</ele>
    <time>2018-01-27T09:40:07Z</time>
   </trkpt>
   <trkpt lat="12.9146660" lon="99.7123190">
    <ele>71.3</ele>
    <time>2018-01-27T09:40:10Z</time>
   </trkpt>
   <trkpt lat="12.9147380" lon="99.7122850">
    <ele>71.3</ele>
    <time>2018-01-27T09:40:12Z</time>
   </trkpt>
   <trkpt lat="12.9147710" lon="99.7122710">
    <ele>71.2</ele>
    <time>2018-01-27T09:40:13Z</time>
   </trkpt>
   <trkpt lat="12.9148050" lon="99.7122470">
    <ele>71.1</ele>
    <time>2018-01-27T09:40:14Z</time>
   </trkpt>
   <trkpt lat="12.9148380" lon="99.7122300">
    <ele>71.1</ele>
    <time>2018-01-27T09:40:15Z</time>
   </trkpt>
   <trkpt lat="12.9148730" lon="99.7122110">
    <ele>71.0</ele>
    <time>2018-01-27T09:40:16Z</time>
   </trkpt>
   <trkpt lat="12.9149030" lon="99.7121940">
    <ele>70.9</ele>
    <time>2018-01-27T09:40:17Z</time>
   </trkpt>
   <trkpt lat="12.9149320" lon="99.7121790">
    <ele>70.8</ele>
    <time>2018-01-27T09:40:18Z</time>
   </trkpt>
   <trkpt lat="12.9149600" lon="99.7121640">
    <ele>70.7</ele>
    <time>2018-01-27T09:40:19Z</time>
   </trkpt>
   <trkpt lat="12.9149890" lon="99.7121500">
    <ele>70.6</ele>
    <time>2018-01-27T09:40:20Z</time>
   </trkpt>
   <trkpt lat="12.9150160" lon="99.7121350">
    <ele>70.5</ele>
    <time>2018-01-27T09:40:21Z</time>
   </trkpt>
   <trkpt lat="12.9150440" lon="99.7121170">
    <ele>70.4</ele>
    <time>2018-01-27T09:40:22Z</time>
   </trkpt>
   <trkpt lat="12.9150730" lon="99.7120970">
    <ele>70.3</ele>
    <time>2018-01-27T09:40:23Z</time>
   </trkpt>
   <trkpt lat="12.9151000" lon="99.7120780">
    <ele>70.2</ele>
    <time>2018-01-27T09:40:24Z</time>
   </trkpt>
   <trkpt lat="12.9151290" lon="99.7120580">
    <ele>70.1</ele>
    <time>2018-01-27T09:40:25Z</time>
   </trkpt>
   <trkpt lat="12.9152470" lon="99.7119870">
    <ele>70.3</ele>
    <time>2018-01-27T09:40:27Z</time>
   </trkpt>
   <trkpt lat="12.9152850" lon="99.7119710">
    <ele>70.3</ele>
    <time>2018-01-27T09:40:28Z</time>
   </trkpt>
   <trkpt lat="12.9153160" lon="99.7119570">
    <ele>70.4</ele>
    <time>2018-01-27T09:40:29Z</time>
   </trkpt>
   <trkpt lat="12.9153490" lon="99.7119380">
    <ele>70.4</ele>
    <time>2018-01-27T09:40:30Z</time>
   </trkpt>
   <trkpt lat="12.9153890" lon="99.7119180">
    <ele>70.6</ele>
    <time>2018-01-27T09:40:31Z</time>
   </trkpt>
   <trkpt lat="12.9154240" lon="99.7119010">
    <ele>70.8</ele>
    <time>2018-01-27T09:40:32Z</time>
   </trkpt>
   <trkpt lat="12.9154610" lon="99.7118820">
    <ele>71.0</ele>
    <time>2018-01-27T09:40:33Z</time>
   </trkpt>
   <trkpt lat="12.9154940" lon="99.7118650">
    <ele>71.2</ele>
    <time>2018-01-27T09:40:34Z</time>
   </trkpt>
   <trkpt lat="12.9155280" lon="99.7118460">
    <ele>71.4</ele>
    <time>2018-01-27T09:40:35Z</time>
   </trkpt>
   <trkpt lat="12.9155590" lon="99.7118310">
    <ele>71.4</ele>
    <time>2018-01-27T09:40:36Z</time>
   </trkpt>
   <trkpt lat="12.9155900" lon="99.7118170">
    <ele>71.5</ele>
    <time>2018-01-27T09:40:37Z</time>
   </trkpt>
   <trkpt lat="12.9156210" lon="99.7118000">
    <ele>71.5</ele>
    <time>2018-01-27T09:40:38Z</time>
   </trkpt>
   <trkpt lat="12.9156520" lon="99.7117840">
    <ele>71.4</ele>
    <time>2018-01-27T09:40:39Z</time>
   </trkpt>
   <trkpt lat="12.9156840" lon="99.7117660">
    <ele>71.3</ele>
    <time>2018-01-27T09:40:40Z</time>
   </trkpt>
   <trkpt lat="12.9157120" lon="99.7117510">
    <ele>71.2</ele>
    <time>2018-01-27T09:40:41Z</time>
   </trkpt>
   <trkpt lat="12.9157400" lon="99.7117370">
    <ele>71.0</ele>
    <time>2018-01-27T09:40:42Z</time>
   </trkpt>
   <trkpt lat="12.9157650" lon="99.7117230">
    <ele>70.8</ele>
    <time>2018-01-27T09:40:43Z</time>
   </trkpt>
   <trkpt lat="12.9157910" lon="99.7117080">
    <ele>70.7</ele>
    <time>2018-01-27T09:40:44Z</time>
   </trkpt>
   <trkpt lat="12.9158180" lon="99.7116930">
    <ele>70.6</ele>
    <time>2018-01-27T09:40:45Z</time>
   </trkpt>
   <trkpt lat="12.9158470" lon="99.7116740">
    <ele>70.5</ele>
    <time>2018-01-27T09:40:46Z</time>
   </trkpt>
   <trkpt lat="12.9158800" lon="99.7116560">
    <ele>70.6</ele>
    <time>2018-01-27T09:40:47Z</time>
   </trkpt>
   <trkpt lat="12.9159100" lon="99.7116420">
    <ele>70.6</ele>
    <time>2018-01-27T09:40:48Z</time>
   </trkpt>
   <trkpt lat="12.9159390" lon="99.7116300">
    <ele>70.7</ele>
    <time>2018-01-27T09:40:49Z</time>
   </trkpt>
   <trkpt lat="12.9159860" lon="99.7116200">
    <ele>71.1</ele>
    <time>2018-01-27T09:40:51Z</time>
   </trkpt>
   <trkpt lat="12.9160110" lon="99.7115960">
    <ele>71.4</ele>
    <time>2018-01-27T09:40:54Z</time>
   </trkpt>
   <trkpt lat="12.9160180" lon="99.7115670">
    <ele>71.5</ele>
    <time>2018-01-27T09:41:01Z</time>
   </trkpt>
   <trkpt lat="12.9159900" lon="99.7115120">
    <ele>71.6</ele>
    <time>2018-01-27T09:50:51Z</time>
   </trkpt>
   <trkpt lat="12.9159700" lon="99.7114900">
    <ele>71.6</ele>
    <time>2018-01-27T09:50:53Z</time>
   </trkpt>
   <trkpt lat="12.9159640" lon="99.7114610">
    <ele>71.5</ele>
    <time>2018-01-27T09:50:59Z</time>
   </trkpt>
   <trkpt lat="12.9159550" lon="99.7114350">
    <ele>71.5</ele>
    <time>2018-01-27T09:51:01Z</time>
   </trkpt>
   <trkpt lat="12.9159280" lon="99.7113970">
    <ele>71.5</ele>
    <time>2018-01-27T09:51:03Z</time>
   </trkpt>
   <trkpt lat="12.9159170" lon="99.7113690">
    <ele>71.5</ele>
    <time>2018-01-27T09:51:04Z</time>
   </trkpt>
   <trkpt lat="12.9159070" lon="99.7113370">
    <ele>71.5</ele>
    <time>2018-01-27T09:51:05Z</time>
   </trkpt>
   <trkpt lat="12.9158940" lon="99.7113030">
    <ele>71.5</ele>
    <time>2018-01-27T09:51:06Z</time>
   </trkpt>
   <trkpt lat="12.9158820" lon="99.7112700">
    <ele>71.4</ele>
    <time>2018-01-27T09:51:07Z</time>
   </trkpt>
   <trkpt lat="12.9158680" lon="99.7112370">
    <ele>71.3</ele>
    <time>2018-01-27T09:51:08Z</time>
   </trkpt>
   <trkpt lat="12.9158530" lon="99.7112030">
    <ele>71.3</ele>
    <time>2018-01-27T09:51:09Z</time>
   </trkpt>
   <trkpt lat="12.9158360" lon="99.7111690">
    <ele>71.2</ele>
    <time>2018-01-27T09:51:10Z</time>
   </trkpt>
   <trkpt lat="12.9158190" lon="99.7111310">
    <ele>71.0</ele>
    <time>2018-01-27T09:51:11Z</time>
   </trkpt>
   <trkpt lat="12.9158000" lon="99.7110940">
    <ele>70.9</ele>
    <time>2018-01-27T09:51:12Z</time>
   </trkpt>
   <trkpt lat="12.9157810" lon="99.7110560">
    <ele>70.9</ele>
    <time>2018-01-27T09:51:13Z</time>
   </trkpt>
   <trkpt lat="12.9157630" lon="99.7110180">
    <ele>70.9</ele>
    <time>2018-01-27T09:51:14Z</time>
   </trkpt>
   <trkpt lat="12.9157460" lon="99.7109770">
    <ele>70.8</ele>
    <time>2018-01-27T09:51:15Z</time>
   </trkpt>
   <trkpt lat="12.9157310" lon="99.7109340">
    <ele>70.7</ele>
    <time>2018-01-27T09:51:16Z</time>
   </trkpt>
   <trkpt lat="12.9157160" lon="99.7108910">
    <ele>70.4</ele>
    <time>2018-01-27T09:51:17Z</time>
   </trkpt>
   <trkpt lat="12.9157030" lon="99.7108490">
    <ele>70.0</ele>
    <time>2018-01-27T09:51:18Z</time>
   </trkpt>
   <trkpt lat="12.9156900" lon="99.7108030">
    <ele>69.6</ele>
    <time>2018-01-27T09:51:19Z</time>
   </trkpt>
   <trkpt lat="12.9156730" lon="99.7107540">
    <ele>69.0</ele>
    <time>2018-01-27T09:51:20Z</time>
   </trkpt>
   <trkpt lat="12.9156550" lon="99.7107020">
    <ele>68.7</ele>
    <time>2018-01-27T09:51:21Z</time>
   </trkpt>
   <trkpt lat="12.9156410" lon="99.7106510">
    <ele>68.5</ele>
    <time>2018-01-27T09:51:22Z</time>
   </trkpt>
   <trkpt lat="12.9156230" lon="99.7106000">
    <ele>68.1</ele>
    <time>2018-01-27T09:51:23Z</time>
   </trkpt>
   <trkpt lat="12.9156050" lon="99.7105480">
    <ele>67.7</ele>
    <time>2018-01-27T09:51:24Z</time>
   </trkpt>
   <trkpt lat="12.9155920" lon="99.7104970">
    <ele>67.3</ele>
    <time>2018-01-27T09:51:25Z</time>
   </trkpt>
   <trkpt lat="12.9155750" lon="99.7104460">
    <ele>66.9</ele>
    <time>2018-01-27T09:51:26Z</time>
   </trkpt>
   <trkpt lat="12.9155580" lon="99.7103940">
    <ele>66.7</ele>
    <time>2018-01-27T09:51:27Z</time>
   </trkpt>
   <trkpt lat="12.9155380" lon="99.7103460">
    <ele>66.9</ele>
    <time>2018-01-27T09:51:28Z</time>
   </trkpt>
   <trkpt lat="12.9155140" lon="99.7102870">
    <ele>67.2</ele>
    <time>2018-01-27T09:51:29Z</time>
   </trkpt>
   <trkpt lat="12.9154850" lon="99.7102240">
    <ele>67.5</ele>
    <time>2018-01-27T09:51:30Z</time>
   </trkpt>
   <trkpt lat="12.9154650" lon="99.7101710">
    <ele>67.9</ele>
    <time>2018-01-27T09:51:31Z</time>
   </trkpt>
   <trkpt lat="12.9154390" lon="99.7101220">
    <ele>68.2</ele>
    <time>2018-01-27T09:51:32Z</time>
   </trkpt>
   <trkpt lat="12.9154110" lon="99.7100650">
    <ele>68.6</ele>
    <time>2018-01-27T09:51:33Z</time>
   </trkpt>
   <trkpt lat="12.9153900" lon="99.7100030">
    <ele>68.8</ele>
    <time>2018-01-27T09:51:34Z</time>
   </trkpt>
   <trkpt lat="12.9153680" lon="99.7099380">
    <ele>68.9</ele>
    <time>2018-01-27T09:51:35Z</time>
   </trkpt>
   <trkpt lat="12.9153490" lon="99.7098670">
    <ele>68.9</ele>
    <time>2018-01-27T09:51:36Z</time>
   </trkpt>
   <trkpt lat="12.9153270" lon="99.7098050">
    <ele>68.8</ele>
    <time>2018-01-27T09:51:37Z</time>
   </trkpt>
   <trkpt lat="12.9153130" lon="99.7097410">
    <ele>68.7</ele>
    <time>2018-01-27T09:51:38Z</time>
   </trkpt>
   <trkpt lat="12.9152880" lon="99.7096790">
    <ele>68.5</ele>
    <time>2018-01-27T09:51:39Z</time>
   </trkpt>
   <trkpt lat="12.9152620" lon="99.7096180">
    <ele>68.3</ele>
    <time>2018-01-27T09:51:40Z</time>
   </trkpt>
   <trkpt lat="12.9152410" lon="99.7095550">
    <ele>68.2</ele>
    <time>2018-01-27T09:51:41Z</time>
   </trkpt>
   <trkpt lat="12.9152290" lon="99.7094820">
    <ele>68.2</ele>
    <time>2018-01-27T09:51:42Z</time>
   </trkpt>
   <trkpt lat="12.9152090" lon="99.7094100">
    <ele>68.5</ele>
    <time>2018-01-27T09:51:43Z</time>
   </trkpt>
   <trkpt lat="12.9151870" lon="99.7093570">
    <ele>68.6</ele>
    <time>2018-01-27T09:51:44Z</time>
   </trkpt>
   <trkpt lat="12.9151650" lon="99.7092910">
    <ele>68.9</ele>
    <time>2018-01-27T09:51:45Z</time>
   </trkpt>
   <trkpt lat="12.9151400" lon="99.7092220">
    <ele>69.2</ele>
    <time>2018-01-27T09:51:46Z</time>
   </trkpt>
   <trkpt lat="12.9151180" lon="99.7091730">
    <ele>69.4</ele>
    <time>2018-01-27T09:51:47Z</time>
   </trkpt>
   <trkpt lat="12.9151000" lon="99.7091320">
    <ele>69.8</ele>
    <time>2018-01-27T09:51:48Z</time>
   </trkpt>
   <trkpt lat="12.9150720" lon="99.7090880">
    <ele>70.3</ele>
    <time>2018-01-27T09:51:49Z</time>
   </trkpt>
   <trkpt lat="12.9150340" lon="99.7090520">
    <ele>70.7</ele>
    <time>2018-01-27T09:51:50Z</time>
   </trkpt>
   <trkpt lat="12.9149910" lon="99.7090230">
    <ele>71.1</ele>
    <time>2018-01-27T09:51:51Z</time>
   </trkpt>
   <trkpt lat="12.9149580" lon="99.7089890">
    <ele>71.2</ele>
    <time>2018-01-27T09:51:52Z</time>
   </trkpt>
   <trkpt lat="12.9149400" lon="99.7089670">
    <ele>71.3</ele>
    <time>2018-01-27T09:51:53Z</time>
   </trkpt>
   <trkpt lat="12.9149170" lon="99.7089370">
    <ele>70.9</ele>
    <time>2018-01-27T09:51:54Z</time>
   </trkpt>
   <trkpt lat="12.9148710" lon="99.7088900">
    <ele>70.4</ele>
    <time>2018-01-27T09:51:55Z</time>
   </trkpt>
   <trkpt lat="12.9148320" lon="99.7088430">
    <ele>70.4</ele>
    <time>2018-01-27T09:51:56Z</time>
   </trkpt>
   <trkpt lat="12.9148010" lon="99.7088110">
    <ele>70.5</ele>
    <time>2018-01-27T09:51:57Z</time>
   </trkpt>
   <trkpt lat="12.9147590" lon="99.7087660">
    <ele>70.7</ele>
    <time>2018-01-27T09:51:58Z</time>
   </trkpt>
   <trkpt lat="12.9147340" lon="99.7087400">
    <ele>70.9</ele>
    <time>2018-01-27T09:51:59Z</time>
   </trkpt>
   <trkpt lat="12.9147100" lon="99.7086950">
    <ele>71.1</ele>
    <time>2018-01-27T09:52:00Z</time>
   </trkpt>
   <trkpt lat="12.9146870" lon="99.7086720">
    <ele>71.1</ele>
    <time>2018-01-27T09:52:01Z</time>
   </trkpt>
   <trkpt lat="12.9146670" lon="99.7086410">
    <ele>71.2</ele>
    <time>2018-01-27T09:52:02Z</time>
   </trkpt>
   <trkpt lat="12.9146430" lon="99.7086150">
    <ele>71.2</ele>
    <time>2018-01-27T09:52:03Z</time>
   </trkpt>
   <trkpt lat="12.9146170" lon="99.7085770">
    <ele>71.2</ele>
    <time>2018-01-27T09:52:04Z</time>
   </trkpt>
   <trkpt lat="12.9145790" lon="99.7085320">
    <ele>71.1</ele>
    <time>2018-01-27T09:52:05Z</time>
   </trkpt>
   <trkpt lat="12.9145640" lon="99.7084990">
    <ele>71.2</ele>
    <time>2018-01-27T09:52:06Z</time>
   </trkpt>
   <trkpt lat="12.9145330" lon="99.7084580">
    <ele>71.2</ele>
    <time>2018-01-27T09:52:07Z</time>
   </trkpt>
   <trkpt lat="12.9145050" lon="99.7084130">
    <ele>71.2</ele>
    <time>2018-01-27T09:52:08Z</time>
   </trkpt>
   <trkpt lat="12.9144840" lon="99.7083670">
    <ele>71.2</ele>
    <time>2018-01-27T09:52:09Z</time>
   </trkpt>
   <trkpt lat="12.9144630" lon="99.7083240">
    <ele>71.3</ele>
    <time>2018-01-27T09:52:10Z</time>
   </trkpt>
   <trkpt lat="12.9144360" lon="99.7082880">
    <ele>71.4</ele>
    <time>2018-01-27T09:52:11Z</time>
   </trkpt>
   <trkpt lat="12.9144120" lon="99.7082550">
    <ele>71.6</ele>
    <time>2018-01-27T09:52:12Z</time>
   </trkpt>
   <trkpt lat="12.9143880" lon="99.7082170">
    <ele>71.9</ele>
    <time>2018-01-27T09:52:13Z</time>
   </trkpt>
   <trkpt lat="12.9143570" lon="99.7081800">
    <ele>72.4</ele>
    <time>2018-01-27T09:52:14Z</time>
   </trkpt>
   <trkpt lat="12.9143320" lon="99.7081380">
    <ele>73.1</ele>
    <time>2018-01-27T09:52:15Z</time>
   </trkpt>
   <trkpt lat="12.9143090" lon="99.7081000">
    <ele>73.6</ele>
    <time>2018-01-27T09:52:16Z</time>
   </trkpt>
   <trkpt lat="12.9142810" lon="99.7080630">
    <ele>74.2</ele>
    <time>2018-01-27T09:52:17Z</time>
   </trkpt>
   <trkpt lat="12.9142560" lon="99.7080270">
    <ele>74.6</ele>
    <time>2018-01-27T09:52:18Z</time>
   </trkpt>
   <trkpt lat="12.9142360" lon="99.7079940">
    <ele>74.8</ele>
    <time>2018-01-27T09:52:19Z</time>
   </trkpt>
   <trkpt lat="12.9142160" lon="99.7079610">
    <ele>74.9</ele>
    <time>2018-01-27T09:52:20Z</time>
   </trkpt>
   <trkpt lat="12.9141980" lon="99.7079280">
    <ele>75.0</ele>
    <time>2018-01-27T09:52:21Z</time>
   </trkpt>
   <trkpt lat="12.9141830" lon="99.7078920">
    <ele>74.9</ele>
    <time>2018-01-27T09:52:22Z</time>
   </trkpt>
   <trkpt lat="12.9141670" lon="99.7078530">
    <ele>74.9</ele>
    <time>2018-01-27T09:52:23Z</time>
   </trkpt>
   <trkpt lat="12.9141530" lon="99.7078160">
    <ele>74.9</ele>
    <time>2018-01-27T09:52:24Z</time>
   </trkpt>
   <trkpt lat="12.9141380" lon="99.7077800">
    <ele>75.0</ele>
    <time>2018-01-27T09:52:25Z</time>
   </trkpt>
   <trkpt lat="12.9141190" lon="99.7077400">
    <ele>75.1</ele>
    <time>2018-01-27T09:52:27Z</time>
   </trkpt>
   <trkpt lat="12.9140970" lon="99.7077050">
    <ele>75.1</ele>
    <time>2018-01-27T09:52:28Z</time>
   </trkpt>
   <trkpt lat="12.9140780" lon="99.7076760">
    <ele>75.2</ele>
    <time>2018-01-27T09:52:29Z</time>
   </trkpt>
   <trkpt lat="12.9140600" lon="99.7076480">
    <ele>75.0</ele>
    <time>2018-01-27T09:52:30Z</time>
   </trkpt>
   <trkpt lat="12.9140030" lon="99.7075530">
    <ele>74.4</ele>
    <time>2018-01-27T09:52:31Z</time>
   </trkpt>
   <trkpt lat="12.9139810" lon="99.7075200">
    <ele>74.2</ele>
    <time>2018-01-27T09:52:32Z</time>
   </trkpt>
   <trkpt lat="12.9139590" lon="99.7074840">
    <ele>73.8</ele>
    <time>2018-01-27T09:52:33Z</time>
   </trkpt>
   <trkpt lat="12.9139360" lon="99.7074510">
    <ele>73.5</ele>
    <time>2018-01-27T09:52:34Z</time>
   </trkpt>
   <trkpt lat="12.9139120" lon="99.7074200">
    <ele>73.4</ele>
    <time>2018-01-27T09:52:35Z</time>
   </trkpt>
   <trkpt lat="12.9138850" lon="99.7073900">
    <ele>73.3</ele>
    <time>2018-01-27T09:52:36Z</time>
   </trkpt>
   <trkpt lat="12.9138590" lon="99.7073490">
    <ele>73.4</ele>
    <time>2018-01-27T09:52:37Z</time>
   </trkpt>
   <trkpt lat="12.9138380" lon="99.7073190">
    <ele>73.5</ele>
    <time>2018-01-27T09:52:38Z</time>
   </trkpt>
   <trkpt lat="12.9138110" lon="99.7072880">
    <ele>73.6</ele>
    <time>2018-01-27T09:52:39Z</time>
   </trkpt>
   <trkpt lat="12.9137930" lon="99.7072490">
    <ele>73.6</ele>
    <time>2018-01-27T09:52:40Z</time>
   </trkpt>
   <trkpt lat="12.9137700" lon="99.7072090">
    <ele>73.5</ele>
    <time>2018-01-27T09:52:41Z</time>
   </trkpt>
   <trkpt lat="12.9137470" lon="99.7071750">
    <ele>73.4</ele>
    <time>2018-01-27T09:52:42Z</time>
   </trkpt>
   <trkpt lat="12.9137290" lon="99.7071410">
    <ele>73.4</ele>
    <time>2018-01-27T09:52:43Z</time>
   </trkpt>
   <trkpt lat="12.9137060" lon="99.7071110">
    <ele>73.4</ele>
    <time>2018-01-27T09:52:44Z</time>
   </trkpt>
   <trkpt lat="12.9136810" lon="99.7070850">
    <ele>73.5</ele>
    <time>2018-01-27T09:52:45Z</time>
   </trkpt>
   <trkpt lat="12.9136600" lon="99.7070380">
    <ele>73.6</ele>
    <time>2018-01-27T09:52:46Z</time>
   </trkpt>
   <trkpt lat="12.9136340" lon="99.7069940">
    <ele>73.9</ele>
    <time>2018-01-27T09:52:47Z</time>
   </trkpt>
   <trkpt lat="12.9136130" lon="99.7069660">
    <ele>74.0</ele>
    <time>2018-01-27T09:52:48Z</time>
   </trkpt>
   <trkpt lat="12.9135900" lon="99.7069260">
    <ele>74.2</ele>
    <time>2018-01-27T09:52:49Z</time>
   </trkpt>
   <trkpt lat="12.9135660" lon="99.7068820">
    <ele>74.1</ele>
    <time>2018-01-27T09:52:50Z</time>
   </trkpt>
   <trkpt lat="12.9135440" lon="99.7068310">
    <ele>74.1</ele>
    <time>2018-01-27T09:52:51Z</time>
   </trkpt>
   <trkpt lat="12.9135190" lon="99.7067800">
    <ele>73.6</ele>
    <time>2018-01-27T09:52:52Z</time>
   </trkpt>
   <trkpt lat="12.9134950" lon="99.7067340">
    <ele>73.4</ele>
    <time>2018-01-27T09:52:53Z</time>
   </trkpt>
   <trkpt lat="12.9134690" lon="99.7066850">
    <ele>73.4</ele>
    <time>2018-01-27T09:52:54Z</time>
   </trkpt>
   <trkpt lat="12.9134460" lon="99.7066340">
    <ele>73.5</ele>
    <time>2018-01-27T09:52:55Z</time>
   </trkpt>
   <trkpt lat="12.9134270" lon="99.7065890">
    <ele>73.6</ele>
    <time>2018-01-27T09:52:56Z</time>
   </trkpt>
   <trkpt lat="12.9134010" lon="99.7065440">
    <ele>73.5</ele>
    <time>2018-01-27T09:52:57Z</time>
   </trkpt>
   <trkpt lat="12.9133770" lon="99.7065030">
    <ele>73.4</ele>
    <time>2018-01-27T09:52:58Z</time>
   </trkpt>
   <trkpt lat="12.9133490" lon="99.7064560">
    <ele>73.2</ele>
    <time>2018-01-27T09:52:59Z</time>
   </trkpt>
   <trkpt lat="12.9133150" lon="99.7063990">
    <ele>72.9</ele>
    <time>2018-01-27T09:53:00Z</time>
   </trkpt>
   <trkpt lat="12.9133010" lon="99.7063630">
    <ele>72.6</ele>
    <time>2018-01-27T09:53:01Z</time>
   </trkpt>
   <trkpt lat="12.9132830" lon="99.7063190">
    <ele>72.2</ele>
    <time>2018-01-27T09:53:02Z</time>
   </trkpt>
   <trkpt lat="12.9132690" lon="99.7062700">
    <ele>71.7</ele>
    <time>2018-01-27T09:53:03Z</time>
   </trkpt>
   <trkpt lat="12.9132450" lon="99.7062240">
    <ele>71.4</ele>
    <time>2018-01-27T09:53:04Z</time>
   </trkpt>
   <trkpt lat="12.9132160" lon="99.7061800">
    <ele>71.2</ele>
    <time>2018-01-27T09:53:05Z</time>
   </trkpt>
   <trkpt lat="12.9131900" lon="99.7061370">
    <ele>71.0</ele>
    <time>2018-01-27T09:53:06Z</time>
   </trkpt>
   <trkpt lat="12.9131640" lon="99.7060950">
    <ele>70.9</ele>
    <time>2018-01-27T09:53:07Z</time>
   </trkpt>
   <trkpt lat="12.9131400" lon="99.7060550">
    <ele>70.9</ele>
    <time>2018-01-27T09:53:08Z</time>
   </trkpt>
   <trkpt lat="12.9131160" lon="99.7060140">
    <ele>70.9</ele>
    <time>2018-01-27T09:53:09Z</time>
   </trkpt>
   <trkpt lat="12.9130970" lon="99.7059690">
    <ele>71.1</ele>
    <time>2018-01-27T09:53:10Z</time>
   </trkpt>
   <trkpt lat="12.9130770" lon="99.7059290">
    <ele>71.4</ele>
    <time>2018-01-27T09:53:11Z</time>
   </trkpt>
   <trkpt lat="12.9130530" lon="99.7058850">
    <ele>71.8</ele>
    <time>2018-01-27T09:53:12Z</time>
   </trkpt>
   <trkpt lat="12.9130340" lon="99.7058400">
    <ele>72.2</ele>
    <time>2018-01-27T09:53:13Z</time>
   </trkpt>
   <trkpt lat="12.9130200" lon="99.7057890">
    <ele>72.5</ele>
    <time>2018-01-27T09:53:14Z</time>
   </trkpt>
   <trkpt lat="12.9129970" lon="99.7057450">
    <ele>73.5</ele>
    <time>2018-01-27T09:53:15Z</time>
   </trkpt>
   <trkpt lat="12.9129810" lon="99.7057050">
    <ele>74.4</ele>
    <time>2018-01-27T09:53:16Z</time>
   </trkpt>
   <trkpt lat="12.9129650" lon="99.7056610">
    <ele>75.4</ele>
    <time>2018-01-27T09:53:17Z</time>
   </trkpt>
   <trkpt lat="12.9129450" lon="99.7056230">
    <ele>76.3</ele>
    <time>2018-01-27T09:53:18Z</time>
   </trkpt>
   <trkpt lat="12.9129200" lon="99.7055840">
    <ele>77.1</ele>
    <time>2018-01-27T09:53:19Z</time>
   </trkpt>
   <trkpt lat="12.9128980" lon="99.7055420">
    <ele>77.8</ele>
    <time>2018-01-27T09:53:20Z</time>
   </trkpt>
   <trkpt lat="12.9128760" lon="99.7055020">
    <ele>78.0</ele>
    <time>2018-01-27T09:53:21Z</time>
   </trkpt>
   <trkpt lat="12.9128570" lon="99.7054580">
    <ele>78.3</ele>
    <time>2018-01-27T09:53:22Z</time>
   </trkpt>
   <trkpt lat="12.9128320" lon="99.7054190">
    <ele>78.8</ele>
    <time>2018-01-27T09:53:23Z</time>
   </trkpt>
   <trkpt lat="12.9128060" lon="99.7053740">
    <ele>79.2</ele>
    <time>2018-01-27T09:53:24Z</time>
   </trkpt>
   <trkpt lat="12.9127830" lon="99.7053360">
    <ele>79.5</ele>
    <time>2018-01-27T09:53:25Z</time>
   </trkpt>
   <trkpt lat="12.9127650" lon="99.7052960">
    <ele>79.7</ele>
    <time>2018-01-27T09:53:26Z</time>
   </trkpt>
   <trkpt lat="12.9127530" lon="99.7052510">
    <ele>79.7</ele>
    <time>2018-01-27T09:53:27Z</time>
   </trkpt>
   <trkpt lat="12.9127390" lon="99.7052030">
    <ele>79.6</ele>
    <time>2018-01-27T09:53:29Z</time>
   </trkpt>
   <trkpt lat="12.9127220" lon="99.7051610">
    <ele>79.4</ele>
    <time>2018-01-27T09:53:30Z</time>
   </trkpt>
   <trkpt lat="12.9127040" lon="99.7051220">
    <ele>79.1</ele>
    <time>2018-01-27T09:53:31Z</time>
   </trkpt>
   <trkpt lat="12.9126790" lon="99.7050850">
    <ele>78.7</ele>
    <time>2018-01-27T09:53:32Z</time>
   </trkpt>
   <trkpt lat="12.9126530" lon="99.7050250">
    <ele>78.2</ele>
    <time>2018-01-27T09:53:33Z</time>
   </trkpt>
   <trkpt lat="12.9126350" lon="99.7049840">
    <ele>77.8</ele>
    <time>2018-01-27T09:53:34Z</time>
   </trkpt>
   <trkpt lat="12.9126130" lon="99.7049490">
    <ele>77.7</ele>
    <time>2018-01-27T09:53:35Z</time>
   </trkpt>
   <trkpt lat="12.9125880" lon="99.7049040">
    <ele>77.6</ele>
    <time>2018-01-27T09:53:36Z</time>
   </trkpt>
   <trkpt lat="12.9125640" lon="99.7048600">
    <ele>77.5</ele>
    <time>2018-01-27T09:53:37Z</time>
   </trkpt>
   <trkpt lat="12.9125390" lon="99.7048130">
    <ele>77.3</ele>
    <time>2018-01-27T09:53:38Z</time>
   </trkpt>
   <trkpt lat="12.9125080" lon="99.7047570">
    <ele>76.9</ele>
    <time>2018-01-27T09:53:39Z</time>
   </trkpt>
   <trkpt lat="12.9124840" lon="99.7047050">
    <ele>76.4</ele>
    <time>2018-01-27T09:53:40Z</time>
   </trkpt>
   <trkpt lat="12.9124560" lon="99.7046520">
    <ele>76.0</ele>
    <time>2018-01-27T09:53:41Z</time>
   </trkpt>
   <trkpt lat="12.9124290" lon="99.7045970">
    <ele>75.7</ele>
    <time>2018-01-27T09:53:42Z</time>
   </trkpt>
   <trkpt lat="12.9124090" lon="99.7045500">
    <ele>75.4</ele>
    <time>2018-01-27T09:53:43Z</time>
   </trkpt>
   <trkpt lat="12.9123860" lon="99.7044990">
    <ele>75.1</ele>
    <time>2018-01-27T09:53:44Z</time>
   </trkpt>
   <trkpt lat="12.9123610" lon="99.7044450">
    <ele>74.5</ele>
    <time>2018-01-27T09:53:45Z</time>
   </trkpt>
   <trkpt lat="12.9123400" lon="99.7043820">
    <ele>74.2</ele>
    <time>2018-01-27T09:53:46Z</time>
   </trkpt>
   <trkpt lat="12.9123280" lon="99.7043270">
    <ele>74.1</ele>
    <time>2018-01-27T09:53:47Z</time>
   </trkpt>
   <trkpt lat="12.9123160" lon="99.7042680">
    <ele>74.1</ele>
    <time>2018-01-27T09:53:48Z</time>
   </trkpt>
   <trkpt lat="12.9123090" lon="99.7042100">
    <ele>74.2</ele>
    <time>2018-01-27T09:53:49Z</time>
   </trkpt>
   <trkpt lat="12.9123020" lon="99.7041510">
    <ele>74.2</ele>
    <time>2018-01-27T09:53:50Z</time>
   </trkpt>
   <trkpt lat="12.9122890" lon="99.7040900">
    <ele>74.2</ele>
    <time>2018-01-27T09:53:51Z</time>
   </trkpt>
   <trkpt lat="12.9122860" lon="99.7040360">
    <ele>74.2</ele>
    <time>2018-01-27T09:53:52Z</time>
   </trkpt>
   <trkpt lat="12.9122750" lon="99.7039790">
    <ele>74.2</ele>
    <time>2018-01-27T09:53:53Z</time>
   </trkpt>
   <trkpt lat="12.9122630" lon="99.7039110">
    <ele>74.2</ele>
    <time>2018-01-27T09:53:54Z</time>
   </trkpt>
   <trkpt lat="12.9122470" lon="99.7038490">
    <ele>74.2</ele>
    <time>2018-01-27T09:53:55Z</time>
   </trkpt>
   <trkpt lat="12.9122220" lon="99.7037960">
    <ele>74.3</ele>
    <time>2018-01-27T09:53:56Z</time>
   </trkpt>
   <trkpt lat="12.9121980" lon="99.7037540">
    <ele>74.3</ele>
    <time>2018-01-27T09:53:57Z</time>
   </trkpt>
   <trkpt lat="12.9121520" lon="99.7037550">
    <ele>74.3</ele>
    <time>2018-01-27T09:53:59Z</time>
   </trkpt>
   <trkpt lat="12.9121160" lon="99.7037770">
    <ele>74.3</ele>
    <time>2018-01-27T09:54:00Z</time>
   </trkpt>
   <trkpt lat="12.9120750" lon="99.7037960">
    <ele>74.3</ele>
    <time>2018-01-27T09:54:01Z</time>
   </trkpt>
   <trkpt lat="12.9120290" lon="99.7038160">
    <ele>74.3</ele>
    <time>2018-01-27T09:54:02Z</time>
   </trkpt>
   <trkpt lat="12.9119770" lon="99.7038270">
    <ele>74.3</ele>
    <time>2018-01-27T09:54:03Z</time>
   </trkpt>
   <trkpt lat="12.9119310" lon="99.7038490">
    <ele>74.3</ele>
    <time>2018-01-27T09:54:04Z</time>
   </trkpt>
   <trkpt lat="12.9118840" lon="99.7038690">
    <ele>74.3</ele>
    <time>2018-01-27T09:54:05Z</time>
   </trkpt>
   <trkpt lat="12.9118260" lon="99.7038870">
    <ele>74.3</ele>
    <time>2018-01-27T09:54:06Z</time>
   </trkpt>
   <trkpt lat="12.9117670" lon="99.7038980">
    <ele>74.2</ele>
    <time>2018-01-27T09:54:07Z</time>
   </trkpt>
   <trkpt lat="12.9117070" lon="99.7039110">
    <ele>73.8</ele>
    <time>2018-01-27T09:54:08Z</time>
   </trkpt>
   <trkpt lat="12.9116450" lon="99.7039210">
    <ele>73.5</ele>
    <time>2018-01-27T09:54:09Z</time>
   </trkpt>
   <trkpt lat="12.9115820" lon="99.7039300">
    <ele>72.7</ele>
    <time>2018-01-27T09:54:10Z</time>
   </trkpt>
   <trkpt lat="12.9115170" lon="99.7039350">
    <ele>72.2</ele>
    <time>2018-01-27T09:54:11Z</time>
   </trkpt>
   <trkpt lat="12.9114490" lon="99.7039530">
    <ele>71.1</ele>
    <time>2018-01-27T09:54:12Z</time>
   </trkpt>
   <trkpt lat="12.9113910" lon="99.7039480">
    <ele>70.5</ele>
    <time>2018-01-27T09:54:13Z</time>
   </trkpt>
   <trkpt lat="12.9113270" lon="99.7039620">
    <ele>69.6</ele>
    <time>2018-01-27T09:54:14Z</time>
   </trkpt>
   <trkpt lat="12.9112680" lon="99.7039650">
    <ele>69.3</ele>
    <time>2018-01-27T09:54:15Z</time>
   </trkpt>
   <trkpt lat="12.9112120" lon="99.7039680">
    <ele>69.3</ele>
    <time>2018-01-27T09:54:16Z</time>
   </trkpt>
   <trkpt lat="12.9111540" lon="99.7039840">
    <ele>69.7</ele>
    <time>2018-01-27T09:54:17Z</time>
   </trkpt>
   <trkpt lat="12.9110880" lon="99.7039990">
    <ele>69.7</ele>
    <time>2018-01-27T09:54:18Z</time>
   </trkpt>
   <trkpt lat="12.9110320" lon="99.7040000">
    <ele>69.6</ele>
    <time>2018-01-27T09:54:19Z</time>
   </trkpt>
   <trkpt lat="12.9109590" lon="99.7040260">
    <ele>69.4</ele>
    <time>2018-01-27T09:54:20Z</time>
   </trkpt>
   <trkpt lat="12.9108980" lon="99.7040320">
    <ele>69.2</ele>
    <time>2018-01-27T09:54:21Z</time>
   </trkpt>
   <trkpt lat="12.9108420" lon="99.7040360">
    <ele>69.2</ele>
    <time>2018-01-27T09:54:22Z</time>
   </trkpt>
   <trkpt lat="12.9107820" lon="99.7040430">
    <ele>69.5</ele>
    <time>2018-01-27T09:54:23Z</time>
   </trkpt>
   <trkpt lat="12.9107240" lon="99.7040440">
    <ele>69.8</ele>
    <time>2018-01-27T09:54:24Z</time>
   </trkpt>
   <trkpt lat="12.9106750" lon="99.7040460">
    <ele>70.1</ele>
    <time>2018-01-27T09:54:25Z</time>
   </trkpt>
   <trkpt lat="12.9106200" lon="99.7040480">
    <ele>70.5</ele>
    <time>2018-01-27T09:54:26Z</time>
   </trkpt>
   <trkpt lat="12.9105670" lon="99.7040420">
    <ele>70.5</ele>
    <time>2018-01-27T09:54:27Z</time>
   </trkpt>
   <trkpt lat="12.9105100" lon="99.7040390">
    <ele>70.4</ele>
    <time>2018-01-27T09:54:28Z</time>
   </trkpt>
   <trkpt lat="12.9104540" lon="99.7040310">
    <ele>70.5</ele>
    <time>2018-01-27T09:54:29Z</time>
   </trkpt>
   <trkpt lat="12.9103990" lon="99.7040310">
    <ele>70.7</ele>
    <time>2018-01-27T09:54:30Z</time>
   </trkpt>
   <trkpt lat="12.9103470" lon="99.7040210">
    <ele>71.0</ele>
    <time>2018-01-27T09:54:31Z</time>
   </trkpt>
   <trkpt lat="12.9102970" lon="99.7040120">
    <ele>71.3</ele>
    <time>2018-01-27T09:54:32Z</time>
   </trkpt>
   <trkpt lat="12.9102390" lon="99.7040040">
    <ele>71.9</ele>
    <time>2018-01-27T09:54:33Z</time>
   </trkpt>
   <trkpt lat="12.9101850" lon="99.7039990">
    <ele>72.1</ele>
    <time>2018-01-27T09:54:34Z</time>
   </trkpt>
   <trkpt lat="12.9101320" lon="99.7039930">
    <ele>72.3</ele>
    <time>2018-01-27T09:54:35Z</time>
   </trkpt>
   <trkpt lat="12.9100790" lon="99.7039910">
    <ele>72.7</ele>
    <time>2018-01-27T09:54:36Z</time>
   </trkpt>
   <trkpt lat="12.9100290" lon="99.7039830">
    <ele>72.9</ele>
    <time>2018-01-27T09:54:37Z</time>
   </trkpt>
   <trkpt lat="12.9099710" lon="99.7039840">
    <ele>73.1</ele>
    <time>2018-01-27T09:54:38Z</time>
   </trkpt>
   <trkpt lat="12.9099210" lon="99.7039800">
    <ele>73.1</ele>
    <time>2018-01-27T09:54:39Z</time>
   </trkpt>
   <trkpt lat="12.9098590" lon="99.7039760">
    <ele>72.8</ele>
    <time>2018-01-27T09:54:40Z</time>
   </trkpt>
   <trkpt lat="12.9098040" lon="99.7039670">
    <ele>72.7</ele>
    <time>2018-01-27T09:54:41Z</time>
   </trkpt>
   <trkpt lat="12.9097510" lon="99.7039590">
    <ele>72.5</ele>
    <time>2018-01-27T09:54:42Z</time>
   </trkpt>
   <trkpt lat="12.9097000" lon="99.7039480">
    <ele>72.5</ele>
    <time>2018-01-27T09:54:43Z</time>
   </trkpt>
   <trkpt lat="12.9096510" lon="99.7039380">
    <ele>72.6</ele>
    <time>2018-01-27T09:54:44Z</time>
   </trkpt>
   <trkpt lat="12.9096100" lon="99.7039310">
    <ele>72.7</ele>
    <time>2018-01-27T09:54:45Z</time>
   </trkpt>
   <trkpt lat="12.9095870" lon="99.7039100">
    <ele>72.7</ele>
    <time>2018-01-27T09:54:46Z</time>
   </trkpt>
   <trkpt lat="12.9095710" lon="99.7038630">
    <ele>72.6</ele>
    <time>2018-01-27T09:54:48Z</time>
   </trkpt>
   <trkpt lat="12.9095870" lon="99.7038060">
    <ele>72.6</ele>
    <time>2018-01-27T09:54:50Z</time>
   </trkpt>
   <trkpt lat="12.9096020" lon="99.7037540">
    <ele>72.8</ele>
    <time>2018-01-27T09:54:52Z</time>
   </trkpt>
   <trkpt lat="12.9096100" lon="99.7037220">
    <ele>72.8</ele>
    <time>2018-01-27T09:54:53Z</time>
   </trkpt>
   <trkpt lat="12.9096170" lon="99.7036730">
    <ele>73.3</ele>
    <time>2018-01-27T09:54:55Z</time>
   </trkpt>
   <trkpt lat="12.9096200" lon="99.7036350">
    <ele>73.3</ele>
    <time>2018-01-27T09:54:56Z</time>
   </trkpt>
   <trkpt lat="12.9096240" lon="99.7035960">
    <ele>73.7</ele>
    <time>2018-01-27T09:54:57Z</time>
   </trkpt>
   <trkpt lat="12.9096250" lon="99.7035600">
    <ele>73.8</ele>
    <time>2018-01-27T09:54:58Z</time>
   </trkpt>
   <trkpt lat="12.9096260" lon="99.7035220">
    <ele>73.9</ele>
    <time>2018-01-27T09:54:59Z</time>
   </trkpt>
   <trkpt lat="12.9096260" lon="99.7034820">
    <ele>73.9</ele>
    <time>2018-01-27T09:55:00Z</time>
   </trkpt>
   <trkpt lat="12.9096260" lon="99.7034470">
    <ele>73.9</ele>
    <time>2018-01-27T09:55:01Z</time>
   </trkpt>
   <trkpt lat="12.9096250" lon="99.7034170">
    <ele>73.9</ele>
    <time>2018-01-27T09:55:02Z</time>
   </trkpt>
   <trkpt lat="12.9096210" lon="99.7033890">
    <ele>74.0</ele>
    <time>2018-01-27T09:55:03Z</time>
   </trkpt>
   <trkpt lat="12.9096160" lon="99.7033560">
    <ele>74.0</ele>
    <time>2018-01-27T09:55:04Z</time>
   </trkpt>
   <trkpt lat="12.9096100" lon="99.7033200">
    <ele>74.3</ele>
    <time>2018-01-27T09:55:05Z</time>
   </trkpt>
   <trkpt lat="12.9096010" lon="99.7032870">
    <ele>74.6</ele>
    <time>2018-01-27T09:55:06Z</time>
   </trkpt>
   <trkpt lat="12.9095950" lon="99.7032530">
    <ele>74.7</ele>
    <time>2018-01-27T09:55:07Z</time>
   </trkpt>
   <trkpt lat="12.9095900" lon="99.7032200">
    <ele>74.9</ele>
    <time>2018-01-27T09:55:08Z</time>
   </trkpt>
   <trkpt lat="12.9095810" lon="99.7031820">
    <ele>75.0</ele>
    <time>2018-01-27T09:55:09Z</time>
   </trkpt>
   <trkpt lat="12.9095660" lon="99.7031460">
    <ele>74.8</ele>
    <time>2018-01-27T09:55:10Z</time>
   </trkpt>
   <trkpt lat="12.9095450" lon="99.7031100">
    <ele>74.7</ele>
    <time>2018-01-27T09:55:11Z</time>
   </trkpt>
   <trkpt lat="12.9095240" lon="99.7030740">
    <ele>74.4</ele>
    <time>2018-01-27T09:55:12Z</time>
   </trkpt>
   <trkpt lat="12.9095000" lon="99.7030350">
    <ele>74.3</ele>
    <time>2018-01-27T09:55:13Z</time>
   </trkpt>
   <trkpt lat="12.9094740" lon="99.7030020">
    <ele>73.8</ele>
    <time>2018-01-27T09:55:14Z</time>
   </trkpt>
   <trkpt lat="12.9094000" lon="99.7029580">
    <ele>73.2</ele>
    <time>2018-01-27T09:55:15Z</time>
   </trkpt>
   <trkpt lat="12.9093680" lon="99.7029260">
    <ele>72.9</ele>
    <time>2018-01-27T09:55:16Z</time>
   </trkpt>
   <trkpt lat="12.9093440" lon="99.7029000">
    <ele>72.7</ele>
    <time>2018-01-27T09:55:17Z</time>
   </trkpt>
   <trkpt lat="12.9093160" lon="99.7028720">
    <ele>72.8</ele>
    <time>2018-01-27T09:55:18Z</time>
   </trkpt>
   <trkpt lat="12.9092940" lon="99.7028430">
    <ele>72.8</ele>
    <time>2018-01-27T09:55:19Z</time>
   </trkpt>
   <trkpt lat="12.9092760" lon="99.7028110">
    <ele>72.9</ele>
    <time>2018-01-27T09:55:20Z</time>
   </trkpt>
   <trkpt lat="12.9092520" lon="99.7027870">
    <ele>72.9</ele>
    <time>2018-01-27T09:55:21Z</time>
   </trkpt>
   <trkpt lat="12.9092310" lon="99.7027630">
    <ele>73.0</ele>
    <time>2018-01-27T09:55:22Z</time>
   </trkpt>
   <trkpt lat="12.9092060" lon="99.7027360">
    <ele>73.0</ele>
    <time>2018-01-27T09:55:23Z</time>
   </trkpt>
   <trkpt lat="12.9091800" lon="99.7027100">
    <ele>72.9</ele>
    <time>2018-01-27T09:55:24Z</time>
   </trkpt>
   <trkpt lat="12.9091330" lon="99.7026790">
    <ele>72.8</ele>
    <time>2018-01-27T09:55:26Z</time>
   </trkpt>
   <trkpt lat="12.9090990" lon="99.7026640">
    <ele>72.9</ele>
    <time>2018-01-27T09:55:27Z</time>
   </trkpt>
   <trkpt lat="12.9090650" lon="99.7026480">
    <ele>73.2</ele>
    <time>2018-01-27T09:55:28Z</time>
   </trkpt>
   <trkpt lat="12.9090350" lon="99.7026320">
    <ele>73.2</ele>
    <time>2018-01-27T09:55:29Z</time>
   </trkpt>
   <trkpt lat="12.9090040" lon="99.7026090">
    <ele>73.6</ele>
    <time>2018-01-27T09:55:30Z</time>
   </trkpt>
   <trkpt lat="12.9089770" lon="99.7025780">
    <ele>73.9</ele>
    <time>2018-01-27T09:55:31Z</time>
   </trkpt>
   <trkpt lat="12.9089520" lon="99.7025410">
    <ele>74.0</ele>
    <time>2018-01-27T09:55:32Z</time>
   </trkpt>
   <trkpt lat="12.9089300" lon="99.7025050">
    <ele>74.2</ele>
    <time>2018-01-27T09:55:33Z</time>
   </trkpt>
   <trkpt lat="12.9089060" lon="99.7024730">
    <ele>74.3</ele>
    <time>2018-01-27T09:55:34Z</time>
   </trkpt>
   <trkpt lat="12.9088770" lon="99.7024460">
    <ele>74.3</ele>
    <time>2018-01-27T09:55:35Z</time>
   </trkpt>
   <trkpt lat="12.9088450" lon="99.7024260">
    <ele>74.3</ele>
    <time>2018-01-27T09:55:36Z</time>
   </trkpt>
   <trkpt lat="12.9088080" lon="99.7024120">
    <ele>74.3</ele>
    <time>2018-01-27T09:55:37Z</time>
   </trkpt>
   <trkpt lat="12.9087680" lon="99.7024000">
    <ele>74.2</ele>
    <time>2018-01-27T09:55:38Z</time>
   </trkpt>
   <trkpt lat="12.9087290" lon="99.7023950">
    <ele>74.1</ele>
    <time>2018-01-27T09:55:39Z</time>
   </trkpt>
   <trkpt lat="12.9086890" lon="99.7023930">
    <ele>73.9</ele>
    <time>2018-01-27T09:55:40Z</time>
   </trkpt>
   <trkpt lat="12.9086490" lon="99.7023870">
    <ele>73.6</ele>
    <time>2018-01-27T09:55:41Z</time>
   </trkpt>
   <trkpt lat="12.9086080" lon="99.7023720">
    <ele>73.1</ele>
    <time>2018-01-27T09:55:42Z</time>
   </trkpt>
   <trkpt lat="12.9085690" lon="99.7023500">
    <ele>72.8</ele>
    <time>2018-01-27T09:55:43Z</time>
   </trkpt>
   <trkpt lat="12.9085310" lon="99.7023290">
    <ele>72.4</ele>
    <time>2018-01-27T09:55:44Z</time>
   </trkpt>
   <trkpt lat="12.9084910" lon="99.7023120">
    <ele>72.4</ele>
    <time>2018-01-27T09:55:45Z</time>
   </trkpt>
   <trkpt lat="12.9084520" lon="99.7022960">
    <ele>72.3</ele>
    <time>2018-01-27T09:55:46Z</time>
   </trkpt>
   <trkpt lat="12.9084150" lon="99.7022750">
    <ele>72.3</ele>
    <time>2018-01-27T09:55:47Z</time>
   </trkpt>
   <trkpt lat="12.9083830" lon="99.7022490">
    <ele>72.4</ele>
    <time>2018-01-27T09:55:48Z</time>
   </trkpt>
   <trkpt lat="12.9083520" lon="99.7022200">
    <ele>72.7</ele>
    <time>2018-01-27T09:55:49Z</time>
   </trkpt>
   <trkpt lat="12.9083200" lon="99.7021910">
    <ele>73.0</ele>
    <time>2018-01-27T09:55:50Z</time>
   </trkpt>
   <trkpt lat="12.9082870" lon="99.7021620">
    <ele>73.0</ele>
    <time>2018-01-27T09:55:51Z</time>
   </trkpt>
   <trkpt lat="12.9082540" lon="99.7021370">
    <ele>73.5</ele>
    <time>2018-01-27T09:55:52Z</time>
   </trkpt>
   <trkpt lat="12.9082220" lon="99.7021110">
    <ele>73.9</ele>
    <time>2018-01-27T09:55:53Z</time>
   </trkpt>
   <trkpt lat="12.9081930" lon="99.7020820">
    <ele>74.2</ele>
    <time>2018-01-27T09:55:54Z</time>
   </trkpt>
   <trkpt lat="12.9081690" lon="99.7020490">
    <ele>74.2</ele>
    <time>2018-01-27T09:55:55Z</time>
   </trkpt>
   <trkpt lat="12.9081460" lon="99.7020100">
    <ele>74.3</ele>
    <time>2018-01-27T09:55:56Z</time>
   </trkpt>
   <trkpt lat="12.9081290" lon="99.7019700">
    <ele>74.2</ele>
    <time>2018-01-27T09:55:57Z</time>
   </trkpt>
   <trkpt lat="12.9081170" lon="99.7019320">
    <ele>74.2</ele>
    <time>2018-01-27T09:55:58Z</time>
   </trkpt>
   <trkpt lat="12.9081060" lon="99.7018920">
    <ele>74.7</ele>
    <time>2018-01-27T09:55:59Z</time>
   </trkpt>
   <trkpt lat="12.9080960" lon="99.7018520">
    <ele>74.7</ele>
    <time>2018-01-27T09:56:00Z</time>
   </trkpt>
   <trkpt lat="12.9080860" lon="99.7018140">
    <ele>74.7</ele>
    <time>2018-01-27T09:56:01Z</time>
   </trkpt>
   <trkpt lat="12.9080770" lon="99.7017790">
    <ele>74.6</ele>
    <time>2018-01-27T09:56:02Z</time>
   </trkpt>
   <trkpt lat="12.9080690" lon="99.7017390">
    <ele>74.9</ele>
    <time>2018-01-27T09:56:03Z</time>
   </trkpt>
   <trkpt lat="12.9080660" lon="99.7016980">
    <ele>74.9</ele>
    <time>2018-01-27T09:56:04Z</time>
   </trkpt>
   <trkpt lat="12.9080700" lon="99.7016580">
    <ele>75.0</ele>
    <time>2018-01-27T09:56:05Z</time>
   </trkpt>
   <trkpt lat="12.9080790" lon="99.7016180">
    <ele>74.9</ele>
    <time>2018-01-27T09:56:06Z</time>
   </trkpt>
   <trkpt lat="12.9080870" lon="99.7015800">
    <ele>75.1</ele>
    <time>2018-01-27T09:56:07Z</time>
   </trkpt>
   <trkpt lat="12.9080910" lon="99.7015420">
    <ele>75.3</ele>
    <time>2018-01-27T09:56:08Z</time>
   </trkpt>
   <trkpt lat="12.9080930" lon="99.7015040">
    <ele>75.5</ele>
    <time>2018-01-27T09:56:09Z</time>
   </trkpt>
   <trkpt lat="12.9080960" lon="99.7014650">
    <ele>75.5</ele>
    <time>2018-01-27T09:56:10Z</time>
   </trkpt>
   <trkpt lat="12.9080980" lon="99.7014250">
    <ele>75.4</ele>
    <time>2018-01-27T09:56:11Z</time>
   </trkpt>
   <trkpt lat="12.9081010" lon="99.7013880">
    <ele>75.3</ele>
    <time>2018-01-27T09:56:12Z</time>
   </trkpt>
   <trkpt lat="12.9081070" lon="99.7013550">
    <ele>75.3</ele>
    <time>2018-01-27T09:56:13Z</time>
   </trkpt>
   <trkpt lat="12.9081160" lon="99.7013230">
    <ele>75.6</ele>
    <time>2018-01-27T09:56:14Z</time>
   </trkpt>
   <trkpt lat="12.9081250" lon="99.7012890">
    <ele>75.6</ele>
    <time>2018-01-27T09:56:15Z</time>
   </trkpt>
   <trkpt lat="12.9081270" lon="99.7012540">
    <ele>75.6</ele>
    <time>2018-01-27T09:56:16Z</time>
   </trkpt>
   <trkpt lat="12.9081230" lon="99.7012190">
    <ele>75.7</ele>
    <time>2018-01-27T09:56:17Z</time>
   </trkpt>
   <trkpt lat="12.9081130" lon="99.7011840">
    <ele>75.2</ele>
    <time>2018-01-27T09:56:18Z</time>
   </trkpt>
   <trkpt lat="12.9081020" lon="99.7011480">
    <ele>75.2</ele>
    <time>2018-01-27T09:56:19Z</time>
   </trkpt>
   <trkpt lat="12.9080990" lon="99.7011110">
    <ele>75.2</ele>
    <time>2018-01-27T09:56:20Z</time>
   </trkpt>
   <trkpt lat="12.9081030" lon="99.7010780">
    <ele>75.1</ele>
    <time>2018-01-27T09:56:21Z</time>
   </trkpt>
   <trkpt lat="12.9081070" lon="99.7010440">
    <ele>75.1</ele>
    <time>2018-01-27T09:56:22Z</time>
   </trkpt>
   <trkpt lat="12.9081070" lon="99.7010090">
    <ele>75.1</ele>
    <time>2018-01-27T09:56:23Z</time>
   </trkpt>
   <trkpt lat="12.9081030" lon="99.7009720">
    <ele>75.1</ele>
    <time>2018-01-27T09:56:24Z</time>
   </trkpt>
   <trkpt lat="12.9080970" lon="99.7009340">
    <ele>75.1</ele>
    <time>2018-01-27T09:56:25Z</time>
   </trkpt>
   <trkpt lat="12.9080910" lon="99.7008970">
    <ele>75.2</ele>
    <time>2018-01-27T09:56:26Z</time>
   </trkpt>
   <trkpt lat="12.9080860" lon="99.7008600">
    <ele>75.2</ele>
    <time>2018-01-27T09:56:27Z</time>
   </trkpt>
   <trkpt lat="12.9080820" lon="99.7008240">
    <ele>75.2</ele>
    <time>2018-01-27T09:56:28Z</time>
   </trkpt>
   <trkpt lat="12.9080770" lon="99.7007920">
    <ele>75.2</ele>
    <time>2018-01-27T09:56:29Z</time>
   </trkpt>
   <trkpt lat="12.9080700" lon="99.7007610">
    <ele>74.7</ele>
    <time>2018-01-27T09:56:30Z</time>
   </trkpt>
   <trkpt lat="12.9080610" lon="99.7007300">
    <ele>74.7</ele>
    <time>2018-01-27T09:56:31Z</time>
   </trkpt>
   <trkpt lat="12.9080530" lon="99.7006960">
    <ele>74.7</ele>
    <time>2018-01-27T09:56:32Z</time>
   </trkpt>
   <trkpt lat="12.9080470" lon="99.7006610">
    <ele>74.7</ele>
    <time>2018-01-27T09:56:33Z</time>
   </trkpt>
   <trkpt lat="12.9080460" lon="99.7006290">
    <ele>74.7</ele>
    <time>2018-01-27T09:56:34Z</time>
   </trkpt>
   <trkpt lat="12.9080490" lon="99.7005970">
    <ele>74.8</ele>
    <time>2018-01-27T09:56:35Z</time>
   </trkpt>
   <trkpt lat="12.9080570" lon="99.7005640">
    <ele>74.9</ele>
    <time>2018-01-27T09:56:36Z</time>
   </trkpt>
   <trkpt lat="12.9080610" lon="99.7005320">
    <ele>74.9</ele>
    <time>2018-01-27T09:56:37Z</time>
   </trkpt>
   <trkpt lat="12.9080560" lon="99.7005030">
    <ele>74.9</ele>
    <time>2018-01-27T09:56:38Z</time>
   </trkpt>
   <trkpt lat="12.9080370" lon="99.7004810">
    <ele>74.9</ele>
    <time>2018-01-27T09:56:39Z</time>
   </trkpt>
   <trkpt lat="12.9080100" lon="99.7004650">
    <ele>74.5</ele>
    <time>2018-01-27T09:56:40Z</time>
   </trkpt>
   <trkpt lat="12.9079810" lon="99.7004490">
    <ele>74.4</ele>
    <time>2018-01-27T09:56:41Z</time>
   </trkpt>
   <trkpt lat="12.9079560" lon="99.7004260">
    <ele>74.4</ele>
    <time>2018-01-27T09:56:42Z</time>
   </trkpt>
   <trkpt lat="12.9079360" lon="99.7004020">
    <ele>74.6</ele>
    <time>2018-01-27T09:56:43Z</time>
   </trkpt>
   <trkpt lat="12.9079120" lon="99.7003560">
    <ele>74.9</ele>
    <time>2018-01-27T09:56:45Z</time>
   </trkpt>
   <trkpt lat="12.9079110" lon="99.7003040">
    <ele>75.0</ele>
    <time>2018-01-27T09:56:47Z</time>
   </trkpt>
   <trkpt lat="12.9079170" lon="99.7002730">
    <ele>75.0</ele>
    <time>2018-01-27T09:56:48Z</time>
   </trkpt>
   <trkpt lat="12.9079150" lon="99.7002140">
    <ele>74.9</ele>
    <time>2018-01-27T09:56:49Z</time>
   </trkpt>
   <trkpt lat="12.9079100" lon="99.7001830">
    <ele>74.9</ele>
    <time>2018-01-27T09:56:50Z</time>
   </trkpt>
   <trkpt lat="12.9079060" lon="99.7001450">
    <ele>75.2</ele>
    <time>2018-01-27T09:56:51Z</time>
   </trkpt>
   <trkpt lat="12.9079010" lon="99.7001120">
    <ele>75.7</ele>
    <time>2018-01-27T09:56:52Z</time>
   </trkpt>
   <trkpt lat="12.9078960" lon="99.7000780">
    <ele>75.7</ele>
    <time>2018-01-27T09:56:53Z</time>
   </trkpt>
   <trkpt lat="12.9078890" lon="99.7000450">
    <ele>76.2</ele>
    <time>2018-01-27T09:56:54Z</time>
   </trkpt>
   <trkpt lat="12.9078830" lon="99.7000150">
    <ele>76.7</ele>
    <time>2018-01-27T09:56:55Z</time>
   </trkpt>
   <trkpt lat="12.9078770" lon="99.6999820">
    <ele>77.2</ele>
    <time>2018-01-27T09:56:56Z</time>
   </trkpt>
   <trkpt lat="12.9078520" lon="99.6999350">
    <ele>77.6</ele>
    <time>2018-01-27T09:56:58Z</time>
   </trkpt>
   <trkpt lat="12.9078330" lon="99.6999140">
    <ele>77.6</ele>
    <time>2018-01-27T09:56:59Z</time>
   </trkpt>
   <trkpt lat="12.9077830" lon="99.6998860">
    <ele>78.3</ele>
    <time>2018-01-27T09:57:01Z</time>
   </trkpt>
   <trkpt lat="12.9077400" lon="99.6998500">
    <ele>79.0</ele>
    <time>2018-01-27T09:57:02Z</time>
   </trkpt>
   <trkpt lat="12.9077150" lon="99.6998280">
    <ele>79.2</ele>
    <time>2018-01-27T09:57:03Z</time>
   </trkpt>
   <trkpt lat="12.9076900" lon="99.6998090">
    <ele>80.0</ele>
    <time>2018-01-27T09:57:04Z</time>
   </trkpt>
   <trkpt lat="12.9076610" lon="99.6997890">
    <ele>80.0</ele>
    <time>2018-01-27T09:57:05Z</time>
   </trkpt>
   <trkpt lat="12.9076350" lon="99.6997710">
    <ele>80.3</ele>
    <time>2018-01-27T09:57:06Z</time>
   </trkpt>
   <trkpt lat="12.9076050" lon="99.6997580">
    <ele>81.2</ele>
    <time>2018-01-27T09:57:07Z</time>
   </trkpt>
   <trkpt lat="12.9075750" lon="99.6997410">
    <ele>81.2</ele>
    <time>2018-01-27T09:57:08Z</time>
   </trkpt>
   <trkpt lat="12.9075250" lon="99.6997280">
    <ele>82.1</ele>
    <time>2018-01-27T09:57:11Z</time>
   </trkpt>
   <trkpt lat="12.9074890" lon="99.6997290">
    <ele>82.1</ele>
    <time>2018-01-27T09:57:12Z</time>
   </trkpt>
   <trkpt lat="12.9073560" lon="99.6997440">
    <ele>82.8</ele>
    <time>2018-01-27T09:57:14Z</time>
   </trkpt>
   <trkpt lat="12.9073180" lon="99.6997380">
    <ele>82.6</ele>
    <time>2018-01-27T09:57:15Z</time>
   </trkpt>
   <trkpt lat="12.9072800" lon="99.6997330">
    <ele>82.6</ele>
    <time>2018-01-27T09:57:16Z</time>
   </trkpt>
   <trkpt lat="12.9072410" lon="99.6997300">
    <ele>82.5</ele>
    <time>2018-01-27T09:57:17Z</time>
   </trkpt>
   <trkpt lat="12.9071980" lon="99.6997290">
    <ele>82.3</ele>
    <time>2018-01-27T09:57:18Z</time>
   </trkpt>
   <trkpt lat="12.9071510" lon="99.6997330">
    <ele>81.8</ele>
    <time>2018-01-27T09:57:19Z</time>
   </trkpt>
   <trkpt lat="12.9071050" lon="99.6997340">
    <ele>81.4</ele>
    <time>2018-01-27T09:57:20Z</time>
   </trkpt>
   <trkpt lat="12.9070590" lon="99.6997320">
    <ele>81.0</ele>
    <time>2018-01-27T09:57:21Z</time>
   </trkpt>
   <trkpt lat="12.9070220" lon="99.6997310">
    <ele>80.6</ele>
    <time>2018-01-27T09:57:22Z</time>
   </trkpt>
   <trkpt lat="12.9069880" lon="99.6997280">
    <ele>80.7</ele>
    <time>2018-01-27T09:57:23Z</time>
   </trkpt>
   <trkpt lat="12.9069540" lon="99.6997270">
    <ele>80.3</ele>
    <time>2018-01-27T09:57:24Z</time>
   </trkpt>
   <trkpt lat="12.9068360" lon="99.6997310">
    <ele>79.6</ele>
    <time>2018-01-27T09:57:28Z</time>
   </trkpt>
   <trkpt lat="12.9067870" lon="99.6997290">
    <ele>79.6</ele>
    <time>2018-01-27T09:57:29Z</time>
   </trkpt>
   <trkpt lat="12.9066750" lon="99.6997470">
    <ele>80.4</ele>
    <time>2018-01-27T09:57:30Z</time>
   </trkpt>
   <trkpt lat="12.9066320" lon="99.6997560">
    <ele>80.8</ele>
    <time>2018-01-27T09:57:31Z</time>
   </trkpt>
   <trkpt lat="12.9065820" lon="99.6997610">
    <ele>81.0</ele>
    <time>2018-01-27T09:57:32Z</time>
   </trkpt>
   <trkpt lat="12.9065330" lon="99.6997590">
    <ele>81.2</ele>
    <time>2018-01-27T09:57:33Z</time>
   </trkpt>
   <trkpt lat="12.9064950" lon="99.6997570">
    <ele>81.3</ele>
    <time>2018-01-27T09:57:34Z</time>
   </trkpt>
   <trkpt lat="12.9064600" lon="99.6997380">
    <ele>81.6</ele>
    <time>2018-01-27T09:57:35Z</time>
   </trkpt>
   <trkpt lat="12.9064190" lon="99.6997260">
    <ele>82.2</ele>
    <time>2018-01-27T09:57:37Z</time>
   </trkpt>
   <trkpt lat="12.9063930" lon="99.6997360">
    <ele>82.4</ele>
    <time>2018-01-27T09:57:45Z</time>
   </trkpt>
   <trkpt lat="12.9063820" lon="99.6997080">
    <ele>82.6</ele>
    <time>2018-01-27T09:57:51Z</time>
   </trkpt>
   <trkpt lat="12.9063500" lon="99.6996990">
    <ele>82.9</ele>
    <time>2018-01-27T09:57:56Z</time>
   </trkpt>
   <trkpt lat="12.9063200" lon="99.6996870">
    <ele>83.0</ele>
    <time>2018-01-27T09:58:00Z</time>
   </trkpt>
   <trkpt lat="12.9062930" lon="99.6996830">
    <ele>83.3</ele>
    <time>2018-01-27T09:58:06Z</time>
   </trkpt>
   <trkpt lat="12.9062590" lon="99.6996800">
    <ele>83.5</ele>
    <time>2018-01-27T09:58:09Z</time>
   </trkpt>
   <trkpt lat="12.9062250" lon="99.6996780">
    <ele>83.6</ele>
    <time>2018-01-27T09:58:11Z</time>
   </trkpt>
   <trkpt lat="12.9061930" lon="99.6996760">
    <ele>83.6</ele>
    <time>2018-01-27T09:58:13Z</time>
   </trkpt>
   <trkpt lat="12.9061600" lon="99.6996640">
    <ele>83.6</ele>
    <time>2018-01-27T09:58:15Z</time>
   </trkpt>
   <trkpt lat="12.9061380" lon="99.6996410">
    <ele>83.5</ele>
    <time>2018-01-27T09:58:17Z</time>
   </trkpt>
   <trkpt lat="12.9061170" lon="99.6996210">
    <ele>83.5</ele>
    <time>2018-01-27T09:58:18Z</time>
   </trkpt>
   <trkpt lat="12.9060930" lon="99.6996060">
    <ele>83.2</ele>
    <time>2018-01-27T09:58:19Z</time>
   </trkpt>
   <trkpt lat="12.9060510" lon="99.6995900">
    <ele>82.9</ele>
    <time>2018-01-27T09:58:21Z</time>
   </trkpt>
   <trkpt lat="12.9060080" lon="99.6995820">
    <ele>82.4</ele>
    <time>2018-01-27T09:58:23Z</time>
   </trkpt>
   <trkpt lat="12.9059560" lon="99.6995750">
    <ele>81.9</ele>
    <time>2018-01-27T09:58:25Z</time>
   </trkpt>
   <trkpt lat="12.9059060" lon="99.6995680">
    <ele>81.4</ele>
    <time>2018-01-27T09:58:27Z</time>
   </trkpt>
   <trkpt lat="12.9058600" lon="99.6995620">
    <ele>80.9</ele>
    <time>2018-01-27T09:58:29Z</time>
   </trkpt>
   <trkpt lat="12.9058280" lon="99.6995680">
    <ele>80.4</ele>
    <time>2018-01-27T09:58:31Z</time>
   </trkpt>
   <trkpt lat="12.9058030" lon="99.6995830">
    <ele>79.9</ele>
    <time>2018-01-27T09:58:33Z</time>
   </trkpt>
   <trkpt lat="12.9057920" lon="99.6995570">
    <ele>79.9</ele>
    <time>2018-01-27T09:58:40Z</time>
   </trkpt>
   <trkpt lat="12.9057570" lon="99.6995520">
    <ele>79.8</ele>
    <time>2018-01-27T09:58:42Z</time>
   </trkpt>
   <trkpt lat="12.9057190" lon="99.6995570">
    <ele>79.2</ele>
    <time>2018-01-27T09:58:44Z</time>
   </trkpt>
   <trkpt lat="12.9056830" lon="99.6995670">
    <ele>79.0</ele>
    <time>2018-01-27T09:58:46Z</time>
   </trkpt>
   <trkpt lat="12.9056530" lon="99.6995690">
    <ele>79.0</ele>
    <time>2018-01-27T09:58:48Z</time>
   </trkpt>
   <trkpt lat="12.9056210" lon="99.6995500">
    <ele>79.2</ele>
    <time>2018-01-27T09:58:51Z</time>
   </trkpt>
   <trkpt lat="12.9056080" lon="99.6995800">
    <ele>78.9</ele>
    <time>2018-01-27T09:58:54Z</time>
   </trkpt>
   <trkpt lat="12.9056420" lon="99.6995840">
    <ele>78.9</ele>
    <time>2018-01-27T09:59:20Z</time>
   </trkpt>
   <trkpt lat="12.9056670" lon="99.6995700">
    <ele>79.0</ele>
    <time>2018-01-27T09:59:25Z</time>
   </trkpt>
   <trkpt lat="12.9056950" lon="99.6995660">
    <ele>79.3</ele>
    <time>2018-01-27T09:59:28Z</time>
   </trkpt>
   <trkpt lat="12.9057280" lon="99.6995640">
    <ele>79.3</ele>
    <time>2018-01-27T09:59:31Z</time>
   </trkpt>
   <trkpt lat="12.9057650" lon="99.6995610">
    <ele>79.6</ele>
    <time>2018-01-27T09:59:34Z</time>
   </trkpt>
   <trkpt lat="12.9057960" lon="99.6995750">
    <ele>80.0</ele>
    <time>2018-01-27T09:59:36Z</time>
   </trkpt>
   <trkpt lat="12.9058240" lon="99.6995920">
    <ele>80.5</ele>
    <time>2018-01-27T09:59:39Z</time>
   </trkpt>
   <trkpt lat="12.9058310" lon="99.6996220">
    <ele>80.3</ele>
    <time>2018-01-27T09:59:42Z</time>
   </trkpt>
   <trkpt lat="12.9058120" lon="99.6996500">
    <ele>79.8</ele>
    <time>2018-01-27T09:59:44Z</time>
   </trkpt>
   <trkpt lat="12.9057710" lon="99.6996760">
    <ele>79.4</ele>
    <time>2018-01-27T09:59:46Z</time>
   </trkpt>
   <trkpt lat="12.9057210" lon="99.6996830">
    <ele>79.2</ele>
    <time>2018-01-27T09:59:48Z</time>
   </trkpt>
   <trkpt lat="12.9056670" lon="99.6996760">
    <ele>78.9</ele>
    <time>2018-01-27T09:59:50Z</time>
   </trkpt>
   <trkpt lat="12.9056150" lon="99.6996660">
    <ele>78.8</ele>
    <time>2018-01-27T09:59:52Z</time>
   </trkpt>
   <trkpt lat="12.9055650" lon="99.6996590">
    <ele>78.7</ele>
    <time>2018-01-27T09:59:54Z</time>
   </trkpt>
   <trkpt lat="12.9055150" lon="99.6996540">
    <ele>78.6</ele>
    <time>2018-01-27T09:59:56Z</time>
   </trkpt>
   <trkpt lat="12.9054710" lon="99.6996500">
    <ele>78.7</ele>
    <time>2018-01-27T09:59:58Z</time>
   </trkpt>
   <trkpt lat="12.9054220" lon="99.6996410">
    <ele>78.8</ele>
    <time>2018-01-27T10:00:00Z</time>
   </trkpt>
   <trkpt lat="12.9053780" lon="99.6996390">
    <ele>79.2</ele>
    <time>2018-01-27T10:00:02Z</time>
   </trkpt>
   <trkpt lat="12.9053490" lon="99.6996400">
    <ele>79.4</ele>
    <time>2018-01-27T10:00:03Z</time>
   </trkpt>
   <trkpt lat="12.9053210" lon="99.6996400">
    <ele>79.5</ele>
    <time>2018-01-27T10:00:04Z</time>
   </trkpt>
   <trkpt lat="12.9052930" lon="99.6996420">
    <ele>79.6</ele>
    <time>2018-01-27T10:00:05Z</time>
   </trkpt>
   <trkpt lat="12.9052640" lon="99.6996440">
    <ele>80.1</ele>
    <time>2018-01-27T10:00:06Z</time>
   </trkpt>
   <trkpt lat="12.9052330" lon="99.6996440">
    <ele>80.1</ele>
    <time>2018-01-27T10:00:07Z</time>
   </trkpt>
   <trkpt lat="12.9052030" lon="99.6996420">
    <ele>80.6</ele>
    <time>2018-01-27T10:00:08Z</time>
   </trkpt>
   <trkpt lat="12.9051750" lon="99.6996370">
    <ele>81.2</ele>
    <time>2018-01-27T10:00:09Z</time>
   </trkpt>
   <trkpt lat="12.9051240" lon="99.6996290">
    <ele>81.7</ele>
    <time>2018-01-27T10:00:11Z</time>
   </trkpt>
   <trkpt lat="12.9050660" lon="99.6996330">
    <ele>82.0</ele>
    <time>2018-01-27T10:00:12Z</time>
   </trkpt>
   <trkpt lat="12.9050140" lon="99.6996310">
    <ele>82.5</ele>
    <time>2018-01-27T10:00:14Z</time>
   </trkpt>
   <trkpt lat="12.9049870" lon="99.6996290">
    <ele>82.5</ele>
    <time>2018-01-27T10:00:15Z</time>
   </trkpt>
   <trkpt lat="12.9049560" lon="99.6996270">
    <ele>82.7</ele>
    <time>2018-01-27T10:00:16Z</time>
   </trkpt>
   <trkpt lat="12.9049250" lon="99.6996260">
    <ele>83.0</ele>
    <time>2018-01-27T10:00:17Z</time>
   </trkpt>
   <trkpt lat="12.9048970" lon="99.6996280">
    <ele>83.0</ele>
    <time>2018-01-27T10:00:18Z</time>
   </trkpt>
   <trkpt lat="12.9048690" lon="99.6996250">
    <ele>83.3</ele>
    <time>2018-01-27T10:00:19Z</time>
   </trkpt>
   <trkpt lat="12.9048400" lon="99.6996230">
    <ele>83.6</ele>
    <time>2018-01-27T10:00:20Z</time>
   </trkpt>
   <trkpt lat="12.9048100" lon="99.6996220">
    <ele>83.6</ele>
    <time>2018-01-27T10:00:21Z</time>
   </trkpt>
   <trkpt lat="12.9047730" lon="99.6996200">
    <ele>84.0</ele>
    <time>2018-01-27T10:00:23Z</time>
   </trkpt>
   <trkpt lat="12.9047340" lon="99.6996140">
    <ele>84.3</ele>
    <time>2018-01-27T10:00:25Z</time>
   </trkpt>
   <trkpt lat="12.9046850" lon="99.6996060">
    <ele>84.6</ele>
    <time>2018-01-27T10:00:27Z</time>
   </trkpt>
   <trkpt lat="12.9046300" lon="99.6996050">
    <ele>85.2</ele>
    <time>2018-01-27T10:00:29Z</time>
   </trkpt>
   <trkpt lat="12.9045980" lon="99.6996050">
    <ele>85.3</ele>
    <time>2018-01-27T10:00:30Z</time>
   </trkpt>
   <trkpt lat="12.9045670" lon="99.6996030">
    <ele>85.3</ele>
    <time>2018-01-27T10:00:31Z</time>
   </trkpt>
   <trkpt lat="12.9045400" lon="99.6995970">
    <ele>85.8</ele>
    <time>2018-01-27T10:00:32Z</time>
   </trkpt>
   <trkpt lat="12.9044900" lon="99.6995800">
    <ele>86.0</ele>
    <time>2018-01-27T10:00:34Z</time>
   </trkpt>
   <trkpt lat="12.9044600" lon="99.6995790">
    <ele>86.3</ele>
    <time>2018-01-27T10:00:35Z</time>
   </trkpt>
   <trkpt lat="12.9044270" lon="99.6995860">
    <ele>86.8</ele>
    <time>2018-01-27T10:00:36Z</time>
   </trkpt>
   <trkpt lat="12.9043930" lon="99.6995950">
    <ele>86.8</ele>
    <time>2018-01-27T10:00:37Z</time>
   </trkpt>
   <trkpt lat="12.9043630" lon="99.6995970">
    <ele>87.4</ele>
    <time>2018-01-27T10:00:38Z</time>
   </trkpt>
   <trkpt lat="12.9043340" lon="99.6995940">
    <ele>88.2</ele>
    <time>2018-01-27T10:00:39Z</time>
   </trkpt>
   <trkpt lat="12.9043010" lon="99.6995880">
    <ele>88.9</ele>
    <time>2018-01-27T10:00:40Z</time>
   </trkpt>
   <trkpt lat="12.9042700" lon="99.6995820">
    <ele>88.9</ele>
    <time>2018-01-27T10:00:41Z</time>
   </trkpt>
   <trkpt lat="12.9042380" lon="99.6995780">
    <ele>89.5</ele>
    <time>2018-01-27T10:00:42Z</time>
   </trkpt>
   <trkpt lat="12.9042070" lon="99.6995760">
    <ele>89.9</ele>
    <time>2018-01-27T10:00:43Z</time>
   </trkpt>
   <trkpt lat="12.9041760" lon="99.6995750">
    <ele>90.2</ele>
    <time>2018-01-27T10:00:44Z</time>
   </trkpt>
   <trkpt lat="12.9041440" lon="99.6995710">
    <ele>90.2</ele>
    <time>2018-01-27T10:00:45Z</time>
   </trkpt>
   <trkpt lat="12.9041090" lon="99.6995690">
    <ele>90.4</ele>
    <time>2018-01-27T10:00:46Z</time>
   </trkpt>
   <trkpt lat="12.9040750" lon="99.6995680">
    <ele>90.3</ele>
    <time>2018-01-27T10:00:47Z</time>
   </trkpt>
   <trkpt lat="12.9040480" lon="99.6995650">
    <ele>90.0</ele>
    <time>2018-01-27T10:00:48Z</time>
   </trkpt>
   <trkpt lat="12.9040200" lon="99.6995610">
    <ele>90.0</ele>
    <time>2018-01-27T10:00:49Z</time>
   </trkpt>
   <trkpt lat="12.9039890" lon="99.6995590">
    <ele>89.7</ele>
    <time>2018-01-27T10:00:50Z</time>
   </trkpt>
   <trkpt lat="12.9039540" lon="99.6995550">
    <ele>89.3</ele>
    <time>2018-01-27T10:00:51Z</time>
   </trkpt>
   <trkpt lat="12.9039220" lon="99.6995540">
    <ele>89.0</ele>
    <time>2018-01-27T10:00:52Z</time>
   </trkpt>
   <trkpt lat="12.9038900" lon="99.6995580">
    <ele>88.9</ele>
    <time>2018-01-27T10:00:53Z</time>
   </trkpt>
   <trkpt lat="12.9038640" lon="99.6995490">
    <ele>88.7</ele>
    <time>2018-01-27T10:00:54Z</time>
   </trkpt>
   <trkpt lat="12.9038310" lon="99.6995430">
    <ele>88.5</ele>
    <time>2018-01-27T10:00:55Z</time>
   </trkpt>
   <trkpt lat="12.9037950" lon="99.6995410">
    <ele>88.3</ele>
    <time>2018-01-27T10:00:56Z</time>
   </trkpt>
   <trkpt lat="12.9037600" lon="99.6995410">
    <ele>88.1</ele>
    <time>2018-01-27T10:00:57Z</time>
   </trkpt>
   <trkpt lat="12.9037270" lon="99.6995420">
    <ele>88.1</ele>
    <time>2018-01-27T10:00:58Z</time>
   </trkpt>
   <trkpt lat="12.9036960" lon="99.6995390">
    <ele>87.9</ele>
    <time>2018-01-27T10:00:59Z</time>
   </trkpt>
   <trkpt lat="12.9036630" lon="99.6995310">
    <ele>87.8</ele>
    <time>2018-01-27T10:01:00Z</time>
   </trkpt>
   <trkpt lat="12.9036320" lon="99.6995180">
    <ele>87.6</ele>
    <time>2018-01-27T10:01:01Z</time>
   </trkpt>
   <trkpt lat="12.9036010" lon="99.6995120">
    <ele>87.7</ele>
    <time>2018-01-27T10:01:02Z</time>
   </trkpt>
   <trkpt lat="12.9035690" lon="99.6995110">
    <ele>87.3</ele>
    <time>2018-01-27T10:01:03Z</time>
   </trkpt>
   <trkpt lat="12.9035340" lon="99.6994760">
    <ele>87.3</ele>
    <time>2018-01-27T10:01:05Z</time>
   </trkpt>
   <trkpt lat="12.9035380" lon="99.6994460">
    <ele>87.1</ele>
    <time>2018-01-27T10:01:06Z</time>
   </trkpt>
   <trkpt lat="12.9035470" lon="99.6994180">
    <ele>87.0</ele>
    <time>2018-01-27T10:01:07Z</time>
   </trkpt>
   <trkpt lat="12.9035570" lon="99.6993920">
    <ele>87.1</ele>
    <time>2018-01-27T10:01:08Z</time>
   </trkpt>
   <trkpt lat="12.9035700" lon="99.6993630">
    <ele>87.2</ele>
    <time>2018-01-27T10:01:09Z</time>
   </trkpt>
   <trkpt lat="12.9035800" lon="99.6993310">
    <ele>87.2</ele>
    <time>2018-01-27T10:01:10Z</time>
   </trkpt>
   <trkpt lat="12.9035860" lon="99.6993000">
    <ele>87.2</ele>
    <time>2018-01-27T10:01:11Z</time>
   </trkpt>
   <trkpt lat="12.9035870" lon="99.6992680">
    <ele>87.3</ele>
    <time>2018-01-27T10:01:12Z</time>
   </trkpt>
   <trkpt lat="12.9035850" lon="99.6992350">
    <ele>87.3</ele>
    <time>2018-01-27T10:01:13Z</time>
   </trkpt>
   <trkpt lat="12.9035850" lon="99.6992040">
    <ele>87.3</ele>
    <time>2018-01-27T10:01:14Z</time>
   </trkpt>
   <trkpt lat="12.9035900" lon="99.6991750">
    <ele>87.3</ele>
    <time>2018-01-27T10:01:15Z</time>
   </trkpt>
   <trkpt lat="12.9035940" lon="99.6991440">
    <ele>87.1</ele>
    <time>2018-01-27T10:01:16Z</time>
   </trkpt>
   <trkpt lat="12.9035920" lon="99.6991140">
    <ele>86.9</ele>
    <time>2018-01-27T10:01:17Z</time>
   </trkpt>
   <trkpt lat="12.9035750" lon="99.6990660">
    <ele>86.8</ele>
    <time>2018-01-27T10:01:19Z</time>
   </trkpt>
   <trkpt lat="12.9035680" lon="99.6990350">
    <ele>86.8</ele>
    <time>2018-01-27T10:01:20Z</time>
   </trkpt>
   <trkpt lat="12.9035620" lon="99.6990000">
    <ele>86.8</ele>
    <time>2018-01-27T10:01:21Z</time>
   </trkpt>
   <trkpt lat="12.9035560" lon="99.6989670">
    <ele>86.9</ele>
    <time>2018-01-27T10:01:22Z</time>
   </trkpt>
   <trkpt lat="12.9035550" lon="99.6989380">
    <ele>87.0</ele>
    <time>2018-01-27T10:01:23Z</time>
   </trkpt>
   <trkpt lat="12.9035520" lon="99.6989080">
    <ele>87.2</ele>
    <time>2018-01-27T10:01:24Z</time>
   </trkpt>
   <trkpt lat="12.9035460" lon="99.6988720">
    <ele>87.4</ele>
    <time>2018-01-27T10:01:25Z</time>
   </trkpt>
   <trkpt lat="12.9035340" lon="99.6988400">
    <ele>87.6</ele>
    <time>2018-01-27T10:01:26Z</time>
   </trkpt>
   <trkpt lat="12.9035210" lon="99.6988100">
    <ele>87.8</ele>
    <time>2018-01-27T10:01:27Z</time>
   </trkpt>
   <trkpt lat="12.9035120" lon="99.6987790">
    <ele>88.0</ele>
    <time>2018-01-27T10:01:28Z</time>
   </trkpt>
   <trkpt lat="12.9035080" lon="99.6987360">
    <ele>88.3</ele>
    <time>2018-01-27T10:01:30Z</time>
   </trkpt>
   <trkpt lat="12.9035120" lon="99.6986860">
    <ele>88.8</ele>
    <time>2018-01-27T10:01:32Z</time>
   </trkpt>
   <trkpt lat="12.9035130" lon="99.6986350">
    <ele>89.5</ele>
    <time>2018-01-27T10:01:34Z</time>
   </trkpt>
   <trkpt lat="12.9035080" lon="99.6986040">
    <ele>89.8</ele>
    <time>2018-01-27T10:01:35Z</time>
   </trkpt>
   <trkpt lat="12.9035000" lon="99.6985750">
    <ele>89.9</ele>
    <time>2018-01-27T10:01:36Z</time>
   </trkpt>
   <trkpt lat="12.9034910" lon="99.6985490">
    <ele>90.0</ele>
    <time>2018-01-27T10:01:37Z</time>
   </trkpt>
   <trkpt lat="12.9034750" lon="99.6985130">
    <ele>90.0</ele>
    <time>2018-01-27T10:01:38Z</time>
   </trkpt>
   <trkpt lat="12.9034600" lon="99.6984760">
    <ele>89.9</ele>
    <time>2018-01-27T10:01:39Z</time>
   </trkpt>
   <trkpt lat="12.9034430" lon="99.6984440">
    <ele>89.8</ele>
    <time>2018-01-27T10:01:40Z</time>
   </trkpt>
   <trkpt lat="12.9034240" lon="99.6984110">
    <ele>90.0</ele>
    <time>2018-01-27T10:01:41Z</time>
   </trkpt>
   <trkpt lat="12.9034050" lon="99.6983740">
    <ele>90.1</ele>
    <time>2018-01-27T10:01:42Z</time>
   </trkpt>
   <trkpt lat="12.9033870" lon="99.6983360">
    <ele>90.5</ele>
    <time>2018-01-27T10:01:43Z</time>
   </trkpt>
   <trkpt lat="12.9033700" lon="99.6982970">
    <ele>90.8</ele>
    <time>2018-01-27T10:01:44Z</time>
   </trkpt>
   <trkpt lat="12.9033540" lon="99.6982590">
    <ele>91.0</ele>
    <time>2018-01-27T10:01:45Z</time>
   </trkpt>
   <trkpt lat="12.9033330" lon="99.6982130">
    <ele>91.2</ele>
    <time>2018-01-27T10:01:46Z</time>
   </trkpt>
   <trkpt lat="12.9033140" lon="99.6981690">
    <ele>91.0</ele>
    <time>2018-01-27T10:01:47Z</time>
   </trkpt>
   <trkpt lat="12.9032960" lon="99.6981300">
    <ele>90.7</ele>
    <time>2018-01-27T10:01:48Z</time>
   </trkpt>
   <trkpt lat="12.9032760" lon="99.6980900">
    <ele>90.4</ele>
    <time>2018-01-27T10:01:49Z</time>
   </trkpt>
   <trkpt lat="12.9032420" lon="99.6980410">
    <ele>89.9</ele>
    <time>2018-01-27T10:01:50Z</time>
   </trkpt>
   <trkpt lat="12.9032230" lon="99.6980060">
    <ele>89.6</ele>
    <time>2018-01-27T10:01:51Z</time>
   </trkpt>
   <trkpt lat="12.9032000" lon="99.6979460">
    <ele>89.3</ele>
    <time>2018-01-27T10:01:53Z</time>
   </trkpt>
   <trkpt lat="12.9031850" lon="99.6978990">
    <ele>89.1</ele>
    <time>2018-01-27T10:01:54Z</time>
   </trkpt>
   <trkpt lat="12.9031800" lon="99.6978510">
    <ele>89.0</ele>
    <time>2018-01-27T10:01:55Z</time>
   </trkpt>
   <trkpt lat="12.9031740" lon="99.6978120">
    <ele>89.1</ele>
    <time>2018-01-27T10:01:56Z</time>
   </trkpt>
   <trkpt lat="12.9031710" lon="99.6977770">
    <ele>89.1</ele>
    <time>2018-01-27T10:01:57Z</time>
   </trkpt>
   <trkpt lat="12.9031650" lon="99.6976800">
    <ele>89.2</ele>
    <time>2018-01-27T10:02:00Z</time>
   </trkpt>
   <trkpt lat="12.9031600" lon="99.6976330">
    <ele>89.2</ele>
    <time>2018-01-27T10:02:01Z</time>
   </trkpt>
   <trkpt lat="12.9031530" lon="99.6975800">
    <ele>89.1</ele>
    <time>2018-01-27T10:02:02Z</time>
   </trkpt>
   <trkpt lat="12.9031510" lon="99.6975410">
    <ele>89.2</ele>
    <time>2018-01-27T10:02:03Z</time>
   </trkpt>
   <trkpt lat="12.9031420" lon="99.6974990">
    <ele>89.2</ele>
    <time>2018-01-27T10:02:04Z</time>
   </trkpt>
   <trkpt lat="12.9031350" lon="99.6974560">
    <ele>89.4</ele>
    <time>2018-01-27T10:02:05Z</time>
   </trkpt>
   <trkpt lat="12.9031300" lon="99.6974110">
    <ele>89.7</ele>
    <time>2018-01-27T10:02:06Z</time>
   </trkpt>
   <trkpt lat="12.9031220" lon="99.6973690">
    <ele>89.9</ele>
    <time>2018-01-27T10:02:07Z</time>
   </trkpt>
   <trkpt lat="12.9031160" lon="99.6973270">
    <ele>90.1</ele>
    <time>2018-01-27T10:02:08Z</time>
   </trkpt>
   <trkpt lat="12.9031030" lon="99.6972740">
    <ele>90.3</ele>
    <time>2018-01-27T10:02:09Z</time>
   </trkpt>
   <trkpt lat="12.9031020" lon="99.6972300">
    <ele>90.4</ele>
    <time>2018-01-27T10:02:10Z</time>
   </trkpt>
   <trkpt lat="12.9031060" lon="99.6971930">
    <ele>90.4</ele>
    <time>2018-01-27T10:02:11Z</time>
   </trkpt>
   <trkpt lat="12.9031170" lon="99.6971600">
    <ele>90.4</ele>
    <time>2018-01-27T10:02:12Z</time>
   </trkpt>
   <trkpt lat="12.9031290" lon="99.6971230">
    <ele>90.3</ele>
    <time>2018-01-27T10:02:13Z</time>
   </trkpt>
   <trkpt lat="12.9031260" lon="99.6970780">
    <ele>90.0</ele>
    <time>2018-01-27T10:02:14Z</time>
   </trkpt>
   <trkpt lat="12.9031390" lon="99.6970440">
    <ele>89.8</ele>
    <time>2018-01-27T10:02:15Z</time>
   </trkpt>
   <trkpt lat="12.9031250" lon="99.6969980">
    <ele>89.5</ele>
    <time>2018-01-27T10:02:16Z</time>
   </trkpt>
   <trkpt lat="12.9031060" lon="99.6969650">
    <ele>89.2</ele>
    <time>2018-01-27T10:02:17Z</time>
   </trkpt>
   <trkpt lat="12.9030830" lon="99.6969190">
    <ele>88.8</ele>
    <time>2018-01-27T10:02:18Z</time>
   </trkpt>
   <trkpt lat="12.9030540" lon="99.6968670">
    <ele>88.4</ele>
    <time>2018-01-27T10:02:19Z</time>
   </trkpt>
   <trkpt lat="12.9030400" lon="99.6968180">
    <ele>88.3</ele>
    <time>2018-01-27T10:02:20Z</time>
   </trkpt>
   <trkpt lat="12.9030220" lon="99.6967720">
    <ele>88.3</ele>
    <time>2018-01-27T10:02:21Z</time>
   </trkpt>
   <trkpt lat="12.9029920" lon="99.6967360">
    <ele>88.3</ele>
    <time>2018-01-27T10:02:22Z</time>
   </trkpt>
   <trkpt lat="12.9029510" lon="99.6967110">
    <ele>88.2</ele>
    <time>2018-01-27T10:02:23Z</time>
   </trkpt>
   <trkpt lat="12.9029010" lon="99.6966980">
    <ele>88.0</ele>
    <time>2018-01-27T10:02:24Z</time>
   </trkpt>
   <trkpt lat="12.9028220" lon="99.6966870">
    <ele>87.7</ele>
    <time>2018-01-27T10:02:25Z</time>
   </trkpt>
   <trkpt lat="12.9027720" lon="99.6966780">
    <ele>87.5</ele>
    <time>2018-01-27T10:02:26Z</time>
   </trkpt>
   <trkpt lat="12.9027260" lon="99.6966800">
    <ele>87.3</ele>
    <time>2018-01-27T10:02:27Z</time>
   </trkpt>
   <trkpt lat="12.9026900" lon="99.6966750">
    <ele>87.2</ele>
    <time>2018-01-27T10:02:28Z</time>
   </trkpt>
   <trkpt lat="12.9026510" lon="99.6966760">
    <ele>87.2</ele>
    <time>2018-01-27T10:02:29Z</time>
   </trkpt>
   <trkpt lat="12.9026040" lon="99.6966860">
    <ele>87.2</ele>
    <time>2018-01-27T10:02:30Z</time>
   </trkpt>
   <trkpt lat="12.9025560" lon="99.6966850">
    <ele>87.2</ele>
    <time>2018-01-27T10:02:31Z</time>
   </trkpt>
   <trkpt lat="12.9025080" lon="99.6966970">
    <ele>87.3</ele>
    <time>2018-01-27T10:02:32Z</time>
   </trkpt>
   <trkpt lat="12.9024590" lon="99.6967060">
    <ele>87.3</ele>
    <time>2018-01-27T10:02:33Z</time>
   </trkpt>
   <trkpt lat="12.9024040" lon="99.6967130">
    <ele>87.4</ele>
    <time>2018-01-27T10:02:34Z</time>
   </trkpt>
   <trkpt lat="12.9023590" lon="99.6967130">
    <ele>87.4</ele>
    <time>2018-01-27T10:02:35Z</time>
   </trkpt>
   <trkpt lat="12.9023130" lon="99.6967170">
    <ele>87.4</ele>
    <time>2018-01-27T10:02:36Z</time>
   </trkpt>
   <trkpt lat="12.9022570" lon="99.6967430">
    <ele>87.4</ele>
    <time>2018-01-27T10:02:37Z</time>
   </trkpt>
   <trkpt lat="12.9022110" lon="99.6967540">
    <ele>87.4</ele>
    <time>2018-01-27T10:02:38Z</time>
   </trkpt>
   <trkpt lat="12.9021610" lon="99.6967610">
    <ele>87.4</ele>
    <time>2018-01-27T10:02:39Z</time>
   </trkpt>
   <trkpt lat="12.9021170" lon="99.6967660">
    <ele>87.5</ele>
    <time>2018-01-27T10:02:40Z</time>
   </trkpt>
   <trkpt lat="12.9020770" lon="99.6967860">
    <ele>87.5</ele>
    <time>2018-01-27T10:02:41Z</time>
   </trkpt>
   <trkpt lat="12.9020190" lon="99.6968080">
    <ele>87.5</ele>
    <time>2018-01-27T10:02:42Z</time>
   </trkpt>
   <trkpt lat="12.9019650" lon="99.6968250">
    <ele>87.3</ele>
    <time>2018-01-27T10:02:43Z</time>
   </trkpt>
   <trkpt lat="12.9019230" lon="99.6968510">
    <ele>87.2</ele>
    <time>2018-01-27T10:02:44Z</time>
   </trkpt>
   <trkpt lat="12.9018800" lon="99.6968740">
    <ele>87.2</ele>
    <time>2018-01-27T10:02:45Z</time>
   </trkpt>
   <trkpt lat="12.9018360" lon="99.6968970">
    <ele>87.4</ele>
    <time>2018-01-27T10:02:46Z</time>
   </trkpt>
   <trkpt lat="12.9017970" lon="99.6969140">
    <ele>87.7</ele>
    <time>2018-01-27T10:02:47Z</time>
   </trkpt>
   <trkpt lat="12.9017590" lon="99.6969300">
    <ele>87.9</ele>
    <time>2018-01-27T10:02:48Z</time>
   </trkpt>
   <trkpt lat="12.9017100" lon="99.6969590">
    <ele>88.3</ele>
    <time>2018-01-27T10:02:49Z</time>
   </trkpt>
   <trkpt lat="12.9016680" lon="99.6969780">
    <ele>88.3</ele>
    <time>2018-01-27T10:02:50Z</time>
   </trkpt>
   <trkpt lat="12.9016270" lon="99.6969900">
    <ele>88.3</ele>
    <time>2018-01-27T10:02:51Z</time>
   </trkpt>
   <trkpt lat="12.9015860" lon="99.6970110">
    <ele>88.3</ele>
    <time>2018-01-27T10:02:52Z</time>
   </trkpt>
   <trkpt lat="12.9015440" lon="99.6970260">
    <ele>88.4</ele>
    <time>2018-01-27T10:02:53Z</time>
   </trkpt>
   <trkpt lat="12.9015010" lon="99.6970440">
    <ele>88.5</ele>
    <time>2018-01-27T10:02:54Z</time>
   </trkpt>
   <trkpt lat="12.9014650" lon="99.6970710">
    <ele>88.6</ele>
    <time>2018-01-27T10:02:55Z</time>
   </trkpt>
   <trkpt lat="12.9014280" lon="99.6970840">
    <ele>88.6</ele>
    <time>2018-01-27T10:02:56Z</time>
   </trkpt>
   <trkpt lat="12.9013850" lon="99.6971000">
    <ele>88.6</ele>
    <time>2018-01-27T10:02:57Z</time>
   </trkpt>
   <trkpt lat="12.9013570" lon="99.6971080">
    <ele>88.6</ele>
    <time>2018-01-27T10:02:58Z</time>
   </trkpt>
   <trkpt lat="12.9013190" lon="99.6971070">
    <ele>88.5</ele>
    <time>2018-01-27T10:03:00Z</time>
   </trkpt>
   <trkpt lat="12.9012690" lon="99.6971040">
    <ele>88.5</ele>
    <time>2018-01-27T10:03:01Z</time>
   </trkpt>
   <trkpt lat="12.9012230" lon="99.6970960">
    <ele>88.5</ele>
    <time>2018-01-27T10:03:02Z</time>
   </trkpt>
   <trkpt lat="12.9011420" lon="99.6971000">
    <ele>88.6</ele>
    <time>2018-01-27T10:03:03Z</time>
   </trkpt>
   <trkpt lat="12.9011030" lon="99.6970970">
    <ele>88.8</ele>
    <time>2018-01-27T10:03:04Z</time>
   </trkpt>
   <trkpt lat="12.9010680" lon="99.6971000">
    <ele>88.9</ele>
    <time>2018-01-27T10:03:05Z</time>
   </trkpt>
   <trkpt lat="12.9010310" lon="99.6971030">
    <ele>88.9</ele>
    <time>2018-01-27T10:03:06Z</time>
   </trkpt>
   <trkpt lat="12.9009950" lon="99.6971020">
    <ele>88.9</ele>
    <time>2018-01-27T10:03:07Z</time>
   </trkpt>
   <trkpt lat="12.9009580" lon="99.6970970">
    <ele>89.0</ele>
    <time>2018-01-27T10:03:08Z</time>
   </trkpt>
   <trkpt lat="12.9009200" lon="99.6970970">
    <ele>89.1</ele>
    <time>2018-01-27T10:03:09Z</time>
   </trkpt>
   <trkpt lat="12.9008900" lon="99.6970960">
    <ele>89.4</ele>
    <time>2018-01-27T10:03:10Z</time>
   </trkpt>
   <trkpt lat="12.9008560" lon="99.6970950">
    <ele>89.8</ele>
    <time>2018-01-27T10:03:11Z</time>
   </trkpt>
   <trkpt lat="12.9008210" lon="99.6970950">
    <ele>90.2</ele>
    <time>2018-01-27T10:03:12Z</time>
   </trkpt>
   <trkpt lat="12.9007880" lon="99.6970970">
    <ele>90.4</ele>
    <time>2018-01-27T10:03:13Z</time>
   </trkpt>
   <trkpt lat="12.9007510" lon="99.6971010">
    <ele>90.6</ele>
    <time>2018-01-27T10:03:14Z</time>
   </trkpt>
   <trkpt lat="12.9007120" lon="99.6971070">
    <ele>90.9</ele>
    <time>2018-01-27T10:03:15Z</time>
   </trkpt>
   <trkpt lat="12.9006750" lon="99.6971170">
    <ele>91.3</ele>
    <time>2018-01-27T10:03:16Z</time>
   </trkpt>
   <trkpt lat="12.9006420" lon="99.6971300">
    <ele>91.5</ele>
    <time>2018-01-27T10:03:17Z</time>
   </trkpt>
   <trkpt lat="12.9006110" lon="99.6971440">
    <ele>91.6</ele>
    <time>2018-01-27T10:03:18Z</time>
   </trkpt>
   <trkpt lat="12.9005810" lon="99.6971620">
    <ele>91.7</ele>
    <time>2018-01-27T10:03:19Z</time>
   </trkpt>
   <trkpt lat="12.9005530" lon="99.6971810">
    <ele>91.8</ele>
    <time>2018-01-27T10:03:20Z</time>
   </trkpt>
   <trkpt lat="12.9005230" lon="99.6971980">
    <ele>91.9</ele>
    <time>2018-01-27T10:03:21Z</time>
   </trkpt>
   <trkpt lat="12.9004910" lon="99.6972110">
    <ele>92.0</ele>
    <time>2018-01-27T10:03:22Z</time>
   </trkpt>
   <trkpt lat="12.9004610" lon="99.6972200">
    <ele>92.0</ele>
    <time>2018-01-27T10:03:23Z</time>
   </trkpt>
   <trkpt lat="12.9004290" lon="99.6972300">
    <ele>92.0</ele>
    <time>2018-01-27T10:03:24Z</time>
   </trkpt>
   <trkpt lat="12.9003930" lon="99.6972430">
    <ele>92.0</ele>
    <time>2018-01-27T10:03:25Z</time>
   </trkpt>
   <trkpt lat="12.9003600" lon="99.6972580">
    <ele>91.7</ele>
    <time>2018-01-27T10:03:26Z</time>
   </trkpt>
   <trkpt lat="12.9003280" lon="99.6972710">
    <ele>91.5</ele>
    <time>2018-01-27T10:03:27Z</time>
   </trkpt>
   <trkpt lat="12.9002970" lon="99.6972840">
    <ele>91.3</ele>
    <time>2018-01-27T10:03:28Z</time>
   </trkpt>
   <trkpt lat="12.9002650" lon="99.6972960">
    <ele>91.2</ele>
    <time>2018-01-27T10:03:29Z</time>
   </trkpt>
   <trkpt lat="12.9002330" lon="99.6973060">
    <ele>91.0</ele>
    <time>2018-01-27T10:03:30Z</time>
   </trkpt>
   <trkpt lat="12.9002040" lon="99.6973150">
    <ele>90.9</ele>
    <time>2018-01-27T10:03:31Z</time>
   </trkpt>
   <trkpt lat="12.9001730" lon="99.6973210">
    <ele>90.9</ele>
    <time>2018-01-27T10:03:32Z</time>
   </trkpt>
   <trkpt lat="12.9001430" lon="99.6973260">
    <ele>90.9</ele>
    <time>2018-01-27T10:03:33Z</time>
   </trkpt>
   <trkpt lat="12.9001110" lon="99.6973330">
    <ele>90.9</ele>
    <time>2018-01-27T10:03:34Z</time>
   </trkpt>
   <trkpt lat="12.9000790" lon="99.6973400">
    <ele>91.0</ele>
    <time>2018-01-27T10:03:35Z</time>
   </trkpt>
   <trkpt lat="12.9000470" lon="99.6973450">
    <ele>91.0</ele>
    <time>2018-01-27T10:03:36Z</time>
   </trkpt>
   <trkpt lat="12.9000140" lon="99.6973490">
    <ele>91.1</ele>
    <time>2018-01-27T10:03:37Z</time>
   </trkpt>
   <trkpt lat="12.8999830" lon="99.6973530">
    <ele>91.1</ele>
    <time>2018-01-27T10:03:38Z</time>
   </trkpt>
   <trkpt lat="12.8999490" lon="99.6973640">
    <ele>91.1</ele>
    <time>2018-01-27T10:03:39Z</time>
   </trkpt>
   <trkpt lat="12.8999160" lon="99.6973830">
    <ele>91.1</ele>
    <time>2018-01-27T10:03:40Z</time>
   </trkpt>
   <trkpt lat="12.8998870" lon="99.6973970">
    <ele>91.0</ele>
    <time>2018-01-27T10:03:41Z</time>
   </trkpt>
   <trkpt lat="12.8998560" lon="99.6974100">
    <ele>90.9</ele>
    <time>2018-01-27T10:03:42Z</time>
   </trkpt>
   <trkpt lat="12.8998220" lon="99.6974260">
    <ele>90.8</ele>
    <time>2018-01-27T10:03:43Z</time>
   </trkpt>
   <trkpt lat="12.8997870" lon="99.6974460">
    <ele>90.6</ele>
    <time>2018-01-27T10:03:44Z</time>
   </trkpt>
   <trkpt lat="12.8997540" lon="99.6974680">
    <ele>90.3</ele>
    <time>2018-01-27T10:03:45Z</time>
   </trkpt>
   <trkpt lat="12.8997230" lon="99.6974900">
    <ele>90.1</ele>
    <time>2018-01-27T10:03:46Z</time>
   </trkpt>
   <trkpt lat="12.8996900" lon="99.6975090">
    <ele>89.8</ele>
    <time>2018-01-27T10:03:47Z</time>
   </trkpt>
   <trkpt lat="12.8996560" lon="99.6975240">
    <ele>89.6</ele>
    <time>2018-01-27T10:03:48Z</time>
   </trkpt>
   <trkpt lat="12.8996230" lon="99.6975360">
    <ele>89.4</ele>
    <time>2018-01-27T10:03:49Z</time>
   </trkpt>
   <trkpt lat="12.8995890" lon="99.6975500">
    <ele>89.3</ele>
    <time>2018-01-27T10:03:50Z</time>
   </trkpt>
   <trkpt lat="12.8995580" lon="99.6975660">
    <ele>89.1</ele>
    <time>2018-01-27T10:03:51Z</time>
   </trkpt>
   <trkpt lat="12.8995260" lon="99.6975830">
    <ele>89.1</ele>
    <time>2018-01-27T10:03:52Z</time>
   </trkpt>
   <trkpt lat="12.8994950" lon="99.6976020">
    <ele>89.1</ele>
    <time>2018-01-27T10:03:53Z</time>
   </trkpt>
   <trkpt lat="12.8994680" lon="99.6976230">
    <ele>89.0</ele>
    <time>2018-01-27T10:03:54Z</time>
   </trkpt>
   <trkpt lat="12.8994280" lon="99.6976450">
    <ele>89.1</ele>
    <time>2018-01-27T10:03:55Z</time>
   </trkpt>
   <trkpt lat="12.8993920" lon="99.6976650">
    <ele>89.2</ele>
    <time>2018-01-27T10:03:56Z</time>
   </trkpt>
   <trkpt lat="12.8993590" lon="99.6976830">
    <ele>89.4</ele>
    <time>2018-01-27T10:03:58Z</time>
   </trkpt>
   <trkpt lat="12.8993360" lon="99.6976980">
    <ele>89.5</ele>
    <time>2018-01-27T10:03:59Z</time>
   </trkpt>
   <trkpt lat="12.8992910" lon="99.6977270">
    <ele>89.8</ele>
    <time>2018-01-27T10:04:01Z</time>
   </trkpt>
   <trkpt lat="12.8992660" lon="99.6977410">
    <ele>89.9</ele>
    <time>2018-01-27T10:04:02Z</time>
   </trkpt>
   <trkpt lat="12.8992370" lon="99.6977560">
    <ele>90.0</ele>
    <time>2018-01-27T10:04:03Z</time>
   </trkpt>
   <trkpt lat="12.8992080" lon="99.6977720">
    <ele>90.1</ele>
    <time>2018-01-27T10:04:04Z</time>
   </trkpt>
   <trkpt lat="12.8991770" lon="99.6977910">
    <ele>90.2</ele>
    <time>2018-01-27T10:04:05Z</time>
   </trkpt>
   <trkpt lat="12.8991100" lon="99.6978440">
    <ele>90.2</ele>
    <time>2018-01-27T10:04:06Z</time>
   </trkpt>
   <trkpt lat="12.8990830" lon="99.6978640">
    <ele>90.2</ele>
    <time>2018-01-27T10:04:07Z</time>
   </trkpt>
   <trkpt lat="12.8990550" lon="99.6978810">
    <ele>90.2</ele>
    <time>2018-01-27T10:04:08Z</time>
   </trkpt>
   <trkpt lat="12.8990290" lon="99.6978970">
    <ele>90.2</ele>
    <time>2018-01-27T10:04:09Z</time>
   </trkpt>
   <trkpt lat="12.8990030" lon="99.6979070">
    <ele>90.3</ele>
    <time>2018-01-27T10:04:10Z</time>
   </trkpt>
   <trkpt lat="12.8989670" lon="99.6979250">
    <ele>90.4</ele>
    <time>2018-01-27T10:04:12Z</time>
   </trkpt>
   <trkpt lat="12.8989220" lon="99.6979390">
    <ele>90.6</ele>
    <time>2018-01-27T10:04:14Z</time>
   </trkpt>
   <trkpt lat="12.8988880" lon="99.6979500">
    <ele>90.7</ele>
    <time>2018-01-27T10:04:16Z</time>
   </trkpt>
   <trkpt lat="12.8988530" lon="99.6979680">
    <ele>90.8</ele>
    <time>2018-01-27T10:04:18Z</time>
   </trkpt>
   <trkpt lat="12.8988210" lon="99.6979840">
    <ele>90.9</ele>
    <time>2018-01-27T10:04:20Z</time>
   </trkpt>
   <trkpt lat="12.8987860" lon="99.6979960">
    <ele>91.1</ele>
    <time>2018-01-27T10:04:22Z</time>
   </trkpt>
   <trkpt lat="12.8987470" lon="99.6980030">
    <ele>91.2</ele>
    <time>2018-01-27T10:04:24Z</time>
   </trkpt>
   <trkpt lat="12.8987050" lon="99.6980140">
    <ele>91.4</ele>
    <time>2018-01-27T10:04:26Z</time>
   </trkpt>
   <trkpt lat="12.8986580" lon="99.6980300">
    <ele>91.7</ele>
    <time>2018-01-27T10:04:28Z</time>
   </trkpt>
   <trkpt lat="12.8986080" lon="99.6980490">
    <ele>92.0</ele>
    <time>2018-01-27T10:04:30Z</time>
   </trkpt>
   <trkpt lat="12.8985820" lon="99.6980580">
    <ele>92.2</ele>
    <time>2018-01-27T10:04:31Z</time>
   </trkpt>
   <trkpt lat="12.8985570" lon="99.6980690">
    <ele>92.4</ele>
    <time>2018-01-27T10:04:32Z</time>
   </trkpt>
   <trkpt lat="12.8985100" lon="99.6980900">
    <ele>92.9</ele>
    <time>2018-01-27T10:04:34Z</time>
   </trkpt>
   <trkpt lat="12.8984690" lon="99.6981110">
    <ele>93.3</ele>
    <time>2018-01-27T10:04:36Z</time>
   </trkpt>
   <trkpt lat="12.8984270" lon="99.6981310">
    <ele>93.7</ele>
    <time>2018-01-27T10:04:38Z</time>
   </trkpt>
   <trkpt lat="12.8983840" lon="99.6981480">
    <ele>94.3</ele>
    <time>2018-01-27T10:04:40Z</time>
   </trkpt>
   <trkpt lat="12.8983430" lon="99.6981570">
    <ele>94.8</ele>
    <time>2018-01-27T10:04:42Z</time>
   </trkpt>
   <trkpt lat="12.8982980" lon="99.6981660">
    <ele>95.5</ele>
    <time>2018-01-27T10:04:44Z</time>
   </trkpt>
   <trkpt lat="12.8982560" lon="99.6981780">
    <ele>96.2</ele>
    <time>2018-01-27T10:04:46Z</time>
   </trkpt>
   <trkpt lat="12.8982200" lon="99.6981950">
    <ele>96.9</ele>
    <time>2018-01-27T10:04:48Z</time>
   </trkpt>
   <trkpt lat="12.8981880" lon="99.6982090">
    <ele>97.5</ele>
    <time>2018-01-27T10:04:50Z</time>
   </trkpt>
   <trkpt lat="12.8981470" lon="99.6982130">
    <ele>97.7</ele>
    <time>2018-01-27T10:04:53Z</time>
   </trkpt>
   <trkpt lat="12.8981220" lon="99.6981820">
    <ele>98.0</ele>
    <time>2018-01-27T10:04:55Z</time>
   </trkpt>
   <trkpt lat="12.8981190" lon="99.6981390">
    <ele>98.0</ele>
    <time>2018-01-27T10:04:57Z</time>
   </trkpt>
   <trkpt lat="12.8981190" lon="99.6980900">
    <ele>97.9</ele>
    <time>2018-01-27T10:04:59Z</time>
   </trkpt>
   <trkpt lat="12.8981180" lon="99.6980350">
    <ele>97.9</ele>
    <time>2018-01-27T10:05:01Z</time>
   </trkpt>
   <trkpt lat="12.8981190" lon="99.6980050">
    <ele>97.9</ele>
    <time>2018-01-27T10:05:02Z</time>
   </trkpt>
   <trkpt lat="12.8981200" lon="99.6979750">
    <ele>97.9</ele>
    <time>2018-01-27T10:05:03Z</time>
   </trkpt>
   <trkpt lat="12.8981220" lon="99.6979450">
    <ele>97.9</ele>
    <time>2018-01-27T10:05:04Z</time>
   </trkpt>
   <trkpt lat="12.8981240" lon="99.6979170">
    <ele>97.8</ele>
    <time>2018-01-27T10:05:05Z</time>
   </trkpt>
   <trkpt lat="12.8981320" lon="99.6978660">
    <ele>97.8</ele>
    <time>2018-01-27T10:05:07Z</time>
   </trkpt>
   <trkpt lat="12.8981340" lon="99.6978370">
    <ele>97.8</ele>
    <time>2018-01-27T10:05:08Z</time>
   </trkpt>
   <trkpt lat="12.8981380" lon="99.6978050">
    <ele>97.8</ele>
    <time>2018-01-27T10:05:09Z</time>
   </trkpt>
   <trkpt lat="12.8981410" lon="99.6977710">
    <ele>97.8</ele>
    <time>2018-01-27T10:05:10Z</time>
   </trkpt>
   <trkpt lat="12.8981420" lon="99.6977340">
    <ele>97.8</ele>
    <time>2018-01-27T10:05:11Z</time>
   </trkpt>
   <trkpt lat="12.8981440" lon="99.6976970">
    <ele>97.7</ele>
    <time>2018-01-27T10:05:12Z</time>
   </trkpt>
   <trkpt lat="12.8981470" lon="99.6976590">
    <ele>97.7</ele>
    <time>2018-01-27T10:05:13Z</time>
   </trkpt>
   <trkpt lat="12.8981500" lon="99.6976200">
    <ele>97.7</ele>
    <time>2018-01-27T10:05:14Z</time>
   </trkpt>
   <trkpt lat="12.8981530" lon="99.6975850">
    <ele>97.7</ele>
    <time>2018-01-27T10:05:15Z</time>
   </trkpt>
   <trkpt lat="12.8981590" lon="99.6975490">
    <ele>97.7</ele>
    <time>2018-01-27T10:05:16Z</time>
   </trkpt>
   <trkpt lat="12.8981620" lon="99.6975120">
    <ele>97.6</ele>
    <time>2018-01-27T10:05:17Z</time>
   </trkpt>
   <trkpt lat="12.8981670" lon="99.6974720">
    <ele>97.6</ele>
    <time>2018-01-27T10:05:18Z</time>
   </trkpt>
   <trkpt lat="12.8981720" lon="99.6974340">
    <ele>97.6</ele>
    <time>2018-01-27T10:05:19Z</time>
   </trkpt>
   <trkpt lat="12.8981740" lon="99.6973950">
    <ele>97.6</ele>
    <time>2018-01-27T10:05:20Z</time>
   </trkpt>
   <trkpt lat="12.8981780" lon="99.6973550">
    <ele>97.6</ele>
    <time>2018-01-27T10:05:21Z</time>
   </trkpt>
   <trkpt lat="12.8981870" lon="99.6973160">
    <ele>97.6</ele>
    <time>2018-01-27T10:05:22Z</time>
   </trkpt>
   <trkpt lat="12.8981940" lon="99.6972770">
    <ele>97.5</ele>
    <time>2018-01-27T10:05:23Z</time>
   </trkpt>
   <trkpt lat="12.8982020" lon="99.6972380">
    <ele>97.5</ele>
    <time>2018-01-27T10:05:24Z</time>
   </trkpt>
   <trkpt lat="12.8982080" lon="99.6972000">
    <ele>97.5</ele>
    <time>2018-01-27T10:05:25Z</time>
   </trkpt>
   <trkpt lat="12.8982140" lon="99.6971620">
    <ele>97.5</ele>
    <time>2018-01-27T10:05:26Z</time>
   </trkpt>
   <trkpt lat="12.8982210" lon="99.6971210">
    <ele>97.5</ele>
    <time>2018-01-27T10:05:27Z</time>
   </trkpt>
   <trkpt lat="12.8982300" lon="99.6970800">
    <ele>97.5</ele>
    <time>2018-01-27T10:05:28Z</time>
   </trkpt>
   <trkpt lat="12.8982350" lon="99.6970390">
    <ele>97.4</ele>
    <time>2018-01-27T10:05:29Z</time>
   </trkpt>
   <trkpt lat="12.8982420" lon="99.6969980">
    <ele>97.4</ele>
    <time>2018-01-27T10:05:30Z</time>
   </trkpt>
   <trkpt lat="12.8982460" lon="99.6969590">
    <ele>97.4</ele>
    <time>2018-01-27T10:05:31Z</time>
   </trkpt>
   <trkpt lat="12.8982490" lon="99.6969140">
    <ele>97.4</ele>
    <time>2018-01-27T10:05:32Z</time>
   </trkpt>
   <trkpt lat="12.8982560" lon="99.6968680">
    <ele>97.4</ele>
    <time>2018-01-27T10:05:33Z</time>
   </trkpt>
   <trkpt lat="12.8982670" lon="99.6968240">
    <ele>97.4</ele>
    <time>2018-01-27T10:05:34Z</time>
   </trkpt>
   <trkpt lat="12.8982780" lon="99.6967820">
    <ele>97.4</ele>
    <time>2018-01-27T10:05:35Z</time>
   </trkpt>
   <trkpt lat="12.8982840" lon="99.6967400">
    <ele>97.3</ele>
    <time>2018-01-27T10:05:36Z</time>
   </trkpt>
   <trkpt lat="12.8982880" lon="99.6966950">
    <ele>97.3</ele>
    <time>2018-01-27T10:05:37Z</time>
   </trkpt>
   <trkpt lat="12.8982930" lon="99.6966530">
    <ele>97.3</ele>
    <time>2018-01-27T10:05:38Z</time>
   </trkpt>
   <trkpt lat="12.8983010" lon="99.6966080">
    <ele>97.3</ele>
    <time>2018-01-27T10:05:39Z</time>
   </trkpt>
   <trkpt lat="12.8983090" lon="99.6965640">
    <ele>97.3</ele>
    <time>2018-01-27T10:05:40Z</time>
   </trkpt>
   <trkpt lat="12.8983150" lon="99.6965200">
    <ele>97.3</ele>
    <time>2018-01-27T10:05:41Z</time>
   </trkpt>
   <trkpt lat="12.8983260" lon="99.6964690">
    <ele>97.3</ele>
    <time>2018-01-27T10:05:42Z</time>
   </trkpt>
   <trkpt lat="12.8983390" lon="99.6964260">
    <ele>97.3</ele>
    <time>2018-01-27T10:05:43Z</time>
   </trkpt>
   <trkpt lat="12.8983490" lon="99.6963750">
    <ele>97.3</ele>
    <time>2018-01-27T10:05:44Z</time>
   </trkpt>
   <trkpt lat="12.8983580" lon="99.6963300">
    <ele>97.3</ele>
    <time>2018-01-27T10:05:45Z</time>
   </trkpt>
   <trkpt lat="12.8983720" lon="99.6962810">
    <ele>97.3</ele>
    <time>2018-01-27T10:05:46Z</time>
   </trkpt>
   <trkpt lat="12.8983770" lon="99.6962340">
    <ele>97.3</ele>
    <time>2018-01-27T10:05:47Z</time>
   </trkpt>
   <trkpt lat="12.8983900" lon="99.6961880">
    <ele>97.3</ele>
    <time>2018-01-27T10:05:48Z</time>
   </trkpt>
   <trkpt lat="12.8983940" lon="99.6961390">
    <ele>97.3</ele>
    <time>2018-01-27T10:05:49Z</time>
   </trkpt>
   <trkpt lat="12.8984010" lon="99.6960900">
    <ele>97.3</ele>
    <time>2018-01-27T10:05:50Z</time>
   </trkpt>
   <trkpt lat="12.8984150" lon="99.6960460">
    <ele>97.3</ele>
    <time>2018-01-27T10:05:51Z</time>
   </trkpt>
   <trkpt lat="12.8984250" lon="99.6959970">
    <ele>97.3</ele>
    <time>2018-01-27T10:05:52Z</time>
   </trkpt>
   <trkpt lat="12.8984390" lon="99.6959560">
    <ele>97.3</ele>
    <time>2018-01-27T10:05:53Z</time>
   </trkpt>
   <trkpt lat="12.8984490" lon="99.6959080">
    <ele>97.3</ele>
    <time>2018-01-27T10:05:54Z</time>
   </trkpt>
   <trkpt lat="12.8984480" lon="99.6958590">
    <ele>97.3</ele>
    <time>2018-01-27T10:05:55Z</time>
   </trkpt>
   <trkpt lat="12.8984400" lon="99.6958040">
    <ele>97.3</ele>
    <time>2018-01-27T10:05:56Z</time>
   </trkpt>
   <trkpt lat="12.8984640" lon="99.6957620">
    <ele>97.3</ele>
    <time>2018-01-27T10:05:57Z</time>
   </trkpt>
   <trkpt lat="12.8984710" lon="99.6957110">
    <ele>97.3</ele>
    <time>2018-01-27T10:05:58Z</time>
   </trkpt>
   <trkpt lat="12.8984790" lon="99.6956600">
    <ele>97.3</ele>
    <time>2018-01-27T10:05:59Z</time>
   </trkpt>
   <trkpt lat="12.8984880" lon="99.6956090">
    <ele>97.2</ele>
    <time>2018-01-27T10:06:00Z</time>
   </trkpt>
   <trkpt lat="12.8984930" lon="99.6955600">
    <ele>97.2</ele>
    <time>2018-01-27T10:06:01Z</time>
   </trkpt>
   <trkpt lat="12.8985020" lon="99.6955100">
    <ele>97.2</ele>
    <time>2018-01-27T10:06:02Z</time>
   </trkpt>
   <trkpt lat="12.8985140" lon="99.6954550">
    <ele>97.2</ele>
    <time>2018-01-27T10:06:03Z</time>
   </trkpt>
   <trkpt lat="12.8985300" lon="99.6953920">
    <ele>97.2</ele>
    <time>2018-01-27T10:06:04Z</time>
   </trkpt>
   <trkpt lat="12.8985410" lon="99.6953400">
    <ele>97.2</ele>
    <time>2018-01-27T10:06:05Z</time>
   </trkpt>
   <trkpt lat="12.8985540" lon="99.6952810">
    <ele>97.1</ele>
    <time>2018-01-27T10:06:06Z</time>
   </trkpt>
   <trkpt lat="12.8985620" lon="99.6952280">
    <ele>97.1</ele>
    <time>2018-01-27T10:06:07Z</time>
   </trkpt>
   <trkpt lat="12.8985690" lon="99.6951700">
    <ele>97.0</ele>
    <time>2018-01-27T10:06:08Z</time>
   </trkpt>
   <trkpt lat="12.8985730" lon="99.6951120">
    <ele>97.0</ele>
    <time>2018-01-27T10:06:09Z</time>
   </trkpt>
   <trkpt lat="12.8985810" lon="99.6950500">
    <ele>96.9</ele>
    <time>2018-01-27T10:06:10Z</time>
   </trkpt>
   <trkpt lat="12.8985930" lon="99.6949920">
    <ele>96.9</ele>
    <time>2018-01-27T10:06:11Z</time>
   </trkpt>
   <trkpt lat="12.8986030" lon="99.6949300">
    <ele>96.8</ele>
    <time>2018-01-27T10:06:12Z</time>
   </trkpt>
   <trkpt lat="12.8986040" lon="99.6948630">
    <ele>96.8</ele>
    <time>2018-01-27T10:06:13Z</time>
   </trkpt>
   <trkpt lat="12.8986080" lon="99.6947990">
    <ele>96.7</ele>
    <time>2018-01-27T10:06:14Z</time>
   </trkpt>
   <trkpt lat="12.8986140" lon="99.6947360">
    <ele>96.6</ele>
    <time>2018-01-27T10:06:15Z</time>
   </trkpt>
   <trkpt lat="12.8986190" lon="99.6946720">
    <ele>96.6</ele>
    <time>2018-01-27T10:06:16Z</time>
   </trkpt>
   <trkpt lat="12.8986230" lon="99.6946130">
    <ele>96.5</ele>
    <time>2018-01-27T10:06:17Z</time>
   </trkpt>
   <trkpt lat="12.8986320" lon="99.6945490">
    <ele>96.3</ele>
    <time>2018-01-27T10:06:18Z</time>
   </trkpt>
   <trkpt lat="12.8986410" lon="99.6944840">
    <ele>96.1</ele>
    <time>2018-01-27T10:06:19Z</time>
   </trkpt>
   <trkpt lat="12.8986550" lon="99.6944270">
    <ele>96.0</ele>
    <time>2018-01-27T10:06:20Z</time>
   </trkpt>
   <trkpt lat="12.8986610" lon="99.6943640">
    <ele>95.8</ele>
    <time>2018-01-27T10:06:21Z</time>
   </trkpt>
   <trkpt lat="12.8986740" lon="99.6942990">
    <ele>95.5</ele>
    <time>2018-01-27T10:06:22Z</time>
   </trkpt>
   <trkpt lat="12.8986800" lon="99.6942300">
    <ele>95.4</ele>
    <time>2018-01-27T10:06:23Z</time>
   </trkpt>
   <trkpt lat="12.8986880" lon="99.6941590">
    <ele>95.2</ele>
    <time>2018-01-27T10:06:24Z</time>
   </trkpt>
   <trkpt lat="12.8987030" lon="99.6940910">
    <ele>95.1</ele>
    <time>2018-01-27T10:06:25Z</time>
   </trkpt>
   <trkpt lat="12.8987150" lon="99.6940280">
    <ele>95.0</ele>
    <time>2018-01-27T10:06:26Z</time>
   </trkpt>
   <trkpt lat="12.8987300" lon="99.6939650">
    <ele>94.9</ele>
    <time>2018-01-27T10:06:27Z</time>
   </trkpt>
   <trkpt lat="12.8987410" lon="99.6938970">
    <ele>94.8</ele>
    <time>2018-01-27T10:06:28Z</time>
   </trkpt>
   <trkpt lat="12.8987530" lon="99.6938360">
    <ele>94.7</ele>
    <time>2018-01-27T10:06:29Z</time>
   </trkpt>
   <trkpt lat="12.8987650" lon="99.6937710">
    <ele>94.7</ele>
    <time>2018-01-27T10:06:30Z</time>
   </trkpt>
   <trkpt lat="12.8987680" lon="99.6937100">
    <ele>94.6</ele>
    <time>2018-01-27T10:06:31Z</time>
   </trkpt>
   <trkpt lat="12.8987760" lon="99.6936500">
    <ele>94.5</ele>
    <time>2018-01-27T10:06:32Z</time>
   </trkpt>
   <trkpt lat="12.8987880" lon="99.6935950">
    <ele>94.4</ele>
    <time>2018-01-27T10:06:33Z</time>
   </trkpt>
   <trkpt lat="12.8988030" lon="99.6935330">
    <ele>94.4</ele>
    <time>2018-01-27T10:06:34Z</time>
   </trkpt>
   <trkpt lat="12.8988150" lon="99.6934730">
    <ele>94.3</ele>
    <time>2018-01-27T10:06:35Z</time>
   </trkpt>
   <trkpt lat="12.8988260" lon="99.6934180">
    <ele>94.2</ele>
    <time>2018-01-27T10:06:36Z</time>
   </trkpt>
   <trkpt lat="12.8988320" lon="99.6933580">
    <ele>94.1</ele>
    <time>2018-01-27T10:06:37Z</time>
   </trkpt>
   <trkpt lat="12.8988400" lon="99.6933000">
    <ele>94.1</ele>
    <time>2018-01-27T10:06:38Z</time>
   </trkpt>
   <trkpt lat="12.8988520" lon="99.6932400">
    <ele>94.0</ele>
    <time>2018-01-27T10:06:39Z</time>
   </trkpt>
   <trkpt lat="12.8988610" lon="99.6931820">
    <ele>93.9</ele>
    <time>2018-01-27T10:06:40Z</time>
   </trkpt>
   <trkpt lat="12.8988690" lon="99.6931230">
    <ele>93.8</ele>
    <time>2018-01-27T10:06:41Z</time>
   </trkpt>
   <trkpt lat="12.8988770" lon="99.6930640">
    <ele>93.7</ele>
    <time>2018-01-27T10:06:42Z</time>
   </trkpt>
   <trkpt lat="12.8988880" lon="99.6930130">
    <ele>93.7</ele>
    <time>2018-01-27T10:06:43Z</time>
   </trkpt>
   <trkpt lat="12.8989000" lon="99.6929630">
    <ele>93.6</ele>
    <time>2018-01-27T10:06:44Z</time>
   </trkpt>
   <trkpt lat="12.8989060" lon="99.6929190">
    <ele>93.6</ele>
    <time>2018-01-27T10:06:45Z</time>
   </trkpt>
   <trkpt lat="12.8989150" lon="99.6928710">
    <ele>93.5</ele>
    <time>2018-01-27T10:06:46Z</time>
   </trkpt>
   <trkpt lat="12.8989270" lon="99.6928210">
    <ele>93.5</ele>
    <time>2018-01-27T10:06:47Z</time>
   </trkpt>
   <trkpt lat="12.8989380" lon="99.6927730">
    <ele>93.4</ele>
    <time>2018-01-27T10:06:48Z</time>
   </trkpt>
   <trkpt lat="12.8989490" lon="99.6927250">
    <ele>93.4</ele>
    <time>2018-01-27T10:06:49Z</time>
   </trkpt>
   <trkpt lat="12.8989630" lon="99.6926780">
    <ele>93.3</ele>
    <time>2018-01-27T10:06:50Z</time>
   </trkpt>
   <trkpt lat="12.8989780" lon="99.6926390">
    <ele>93.3</ele>
    <time>2018-01-27T10:06:51Z</time>
   </trkpt>
   <trkpt lat="12.8989960" lon="99.6925930">
    <ele>93.3</ele>
    <time>2018-01-27T10:06:52Z</time>
   </trkpt>
   <trkpt lat="12.8990060" lon="99.6925410">
    <ele>93.2</ele>
    <time>2018-01-27T10:06:53Z</time>
   </trkpt>
   <trkpt lat="12.8990240" lon="99.6924930">
    <ele>93.2</ele>
    <time>2018-01-27T10:06:54Z</time>
   </trkpt>
   <trkpt lat="12.8990400" lon="99.6924450">
    <ele>93.1</ele>
    <time>2018-01-27T10:06:55Z</time>
   </trkpt>
   <trkpt lat="12.8990640" lon="99.6924040">
    <ele>93.1</ele>
    <time>2018-01-27T10:06:56Z</time>
   </trkpt>
   <trkpt lat="12.8990860" lon="99.6923580">
    <ele>93.0</ele>
    <time>2018-01-27T10:06:57Z</time>
   </trkpt>
   <trkpt lat="12.8991060" lon="99.6923150">
    <ele>93.0</ele>
    <time>2018-01-27T10:06:58Z</time>
   </trkpt>
   <trkpt lat="12.8991320" lon="99.6922750">
    <ele>93.0</ele>
    <time>2018-01-27T10:06:59Z</time>
   </trkpt>
   <trkpt lat="12.8991490" lon="99.6922280">
    <ele>92.9</ele>
    <time>2018-01-27T10:07:00Z</time>
   </trkpt>
   <trkpt lat="12.8991680" lon="99.6921900">
    <ele>92.9</ele>
    <time>2018-01-27T10:07:01Z</time>
   </trkpt>
   <trkpt lat="12.8991900" lon="99.6921530">
    <ele>92.8</ele>
    <time>2018-01-27T10:07:02Z</time>
   </trkpt>
   <trkpt lat="12.8992150" lon="99.6921040">
    <ele>92.8</ele>
    <time>2018-01-27T10:07:03Z</time>
   </trkpt>
   <trkpt lat="12.8992550" lon="99.6920720">
    <ele>92.8</ele>
    <time>2018-01-27T10:07:04Z</time>
   </trkpt>
   <trkpt lat="12.8992860" lon="99.6920290">
    <ele>92.7</ele>
    <time>2018-01-27T10:07:05Z</time>
   </trkpt>
   <trkpt lat="12.8993270" lon="99.6919910">
    <ele>92.7</ele>
    <time>2018-01-27T10:07:06Z</time>
   </trkpt>
   <trkpt lat="12.8993620" lon="99.6919470">
    <ele>92.6</ele>
    <time>2018-01-27T10:07:07Z</time>
   </trkpt>
   <trkpt lat="12.8994010" lon="99.6919080">
    <ele>92.6</ele>
    <time>2018-01-27T10:07:08Z</time>
   </trkpt>
   <trkpt lat="12.8994460" lon="99.6918690">
    <ele>92.5</ele>
    <time>2018-01-27T10:07:09Z</time>
   </trkpt>
   <trkpt lat="12.8994890" lon="99.6918320">
    <ele>92.5</ele>
    <time>2018-01-27T10:07:10Z</time>
   </trkpt>
   <trkpt lat="12.8995300" lon="99.6918010">
    <ele>92.4</ele>
    <time>2018-01-27T10:07:11Z</time>
   </trkpt>
   <trkpt lat="12.8995540" lon="99.6917700">
    <ele>92.4</ele>
    <time>2018-01-27T10:07:12Z</time>
   </trkpt>
   <trkpt lat="12.8995550" lon="99.6917370">
    <ele>92.4</ele>
    <time>2018-01-27T10:07:13Z</time>
   </trkpt>
   <trkpt lat="12.8995180" lon="99.6916970">
    <ele>92.3</ele>
    <time>2018-01-27T10:07:15Z</time>
   </trkpt>
   <trkpt lat="12.8995260" lon="99.6916480">
    <ele>92.3</ele>
    <time>2018-01-27T10:07:17Z</time>
   </trkpt>
   <trkpt lat="12.8995350" lon="99.6916190">
    <ele>92.2</ele>
    <time>2018-01-27T10:07:18Z</time>
   </trkpt>
   <trkpt lat="12.8995420" lon="99.6915870">
    <ele>92.2</ele>
    <time>2018-01-27T10:07:19Z</time>
   </trkpt>
   <trkpt lat="12.8995420" lon="99.6915480">
    <ele>92.3</ele>
    <time>2018-01-27T10:07:20Z</time>
   </trkpt>
   <trkpt lat="12.8995490" lon="99.6915170">
    <ele>92.5</ele>
    <time>2018-01-27T10:07:22Z</time>
   </trkpt>
   <trkpt lat="12.8995770" lon="99.6915020">
    <ele>92.6</ele>
    <time>2018-01-27T10:07:23Z</time>
   </trkpt>
   <trkpt lat="12.8996350" lon="99.6914990">
    <ele>92.9</ele>
    <time>2018-01-27T10:07:24Z</time>
   </trkpt>
   <trkpt lat="12.8996930" lon="99.6914600">
    <ele>93.2</ele>
    <time>2018-01-27T10:07:25Z</time>
   </trkpt>
   <trkpt lat="12.8997330" lon="99.6914470">
    <ele>93.3</ele>
    <time>2018-01-27T10:07:26Z</time>
   </trkpt>
   <trkpt lat="12.8997700" lon="99.6914350">
    <ele>93.3</ele>
    <time>2018-01-27T10:07:27Z</time>
   </trkpt>
   <trkpt lat="12.8997970" lon="99.6913960">
    <ele>93.4</ele>
    <time>2018-01-27T10:07:28Z</time>
   </trkpt>
   <trkpt lat="12.8998070" lon="99.6913650">
    <ele>93.5</ele>
    <time>2018-01-27T10:07:29Z</time>
   </trkpt>
   <trkpt lat="12.8998120" lon="99.6913340">
    <ele>93.5</ele>
    <time>2018-01-27T10:07:30Z</time>
   </trkpt>
   <trkpt lat="12.8998320" lon="99.6912980">
    <ele>93.6</ele>
    <time>2018-01-27T10:07:31Z</time>
   </trkpt>
   <trkpt lat="12.8998390" lon="99.6912660">
    <ele>93.6</ele>
    <time>2018-01-27T10:07:32Z</time>
   </trkpt>
   <trkpt lat="12.8998460" lon="99.6912260">
    <ele>93.7</ele>
    <time>2018-01-27T10:07:33Z</time>
   </trkpt>
   <trkpt lat="12.8998510" lon="99.6911840">
    <ele>93.7</ele>
    <time>2018-01-27T10:07:34Z</time>
   </trkpt>
   <trkpt lat="12.8998640" lon="99.6911490">
    <ele>93.8</ele>
    <time>2018-01-27T10:07:35Z</time>
   </trkpt>
   <trkpt lat="12.8998820" lon="99.6911140">
    <ele>93.8</ele>
    <time>2018-01-27T10:07:36Z</time>
   </trkpt>
   <trkpt lat="12.8998990" lon="99.6910820">
    <ele>93.8</ele>
    <time>2018-01-27T10:07:37Z</time>
   </trkpt>
   <trkpt lat="12.8999190" lon="99.6910490">
    <ele>93.9</ele>
    <time>2018-01-27T10:07:38Z</time>
   </trkpt>
   <trkpt lat="12.8999430" lon="99.6910160">
    <ele>93.9</ele>
    <time>2018-01-27T10:07:39Z</time>
   </trkpt>
   <trkpt lat="12.8999700" lon="99.6909850">
    <ele>93.9</ele>
    <time>2018-01-27T10:07:40Z</time>
   </trkpt>
   <trkpt lat="12.8999980" lon="99.6909560">
    <ele>93.9</ele>
    <time>2018-01-27T10:07:41Z</time>
   </trkpt>
   <trkpt lat="12.9000270" lon="99.6909270">
    <ele>93.9</ele>
    <time>2018-01-27T10:07:42Z</time>
   </trkpt>
   <trkpt lat="12.9000550" lon="99.6908980">
    <ele>94.0</ele>
    <time>2018-01-27T10:07:43Z</time>
   </trkpt>
   <trkpt lat="12.9000820" lon="99.6908680">
    <ele>94.0</ele>
    <time>2018-01-27T10:07:44Z</time>
   </trkpt>
   <trkpt lat="12.9001100" lon="99.6908370">
    <ele>94.0</ele>
    <time>2018-01-27T10:07:45Z</time>
   </trkpt>
   <trkpt lat="12.9001390" lon="99.6908050">
    <ele>94.1</ele>
    <time>2018-01-27T10:07:46Z</time>
   </trkpt>
   <trkpt lat="12.9001660" lon="99.6907720">
    <ele>94.1</ele>
    <time>2018-01-27T10:07:47Z</time>
   </trkpt>
   <trkpt lat="12.9001950" lon="99.6907390">
    <ele>94.1</ele>
    <time>2018-01-27T10:07:48Z</time>
   </trkpt>
   <trkpt lat="12.9002260" lon="99.6907100">
    <ele>94.2</ele>
    <time>2018-01-27T10:07:49Z</time>
   </trkpt>
   <trkpt lat="12.9002570" lon="99.6906840">
    <ele>94.2</ele>
    <time>2018-01-27T10:07:50Z</time>
   </trkpt>
   <trkpt lat="12.9002910" lon="99.6906630">
    <ele>94.2</ele>
    <time>2018-01-27T10:07:51Z</time>
   </trkpt>
   <trkpt lat="12.9003200" lon="99.6906400">
    <ele>94.3</ele>
    <time>2018-01-27T10:07:52Z</time>
   </trkpt>
   <trkpt lat="12.9003430" lon="99.6906250">
    <ele>94.3</ele>
    <time>2018-01-27T10:07:53Z</time>
   </trkpt>
   <trkpt lat="12.9003690" lon="99.6906060">
    <ele>94.3</ele>
    <time>2018-01-27T10:07:54Z</time>
   </trkpt>
   <trkpt lat="12.9003980" lon="99.6905850">
    <ele>94.3</ele>
    <time>2018-01-27T10:07:55Z</time>
   </trkpt>
   <trkpt lat="12.9004270" lon="99.6905630">
    <ele>94.3</ele>
    <time>2018-01-27T10:07:56Z</time>
   </trkpt>
   <trkpt lat="12.9004560" lon="99.6905400">
    <ele>94.4</ele>
    <time>2018-01-27T10:07:57Z</time>
   </trkpt>
   <trkpt lat="12.9004850" lon="99.6905150">
    <ele>94.4</ele>
    <time>2018-01-27T10:07:58Z</time>
   </trkpt>
   <trkpt lat="12.9005150" lon="99.6904860">
    <ele>94.4</ele>
    <time>2018-01-27T10:07:59Z</time>
   </trkpt>
   <trkpt lat="12.9005470" lon="99.6904560">
    <ele>94.4</ele>
    <time>2018-01-27T10:08:00Z</time>
   </trkpt>
   <trkpt lat="12.9005790" lon="99.6904220">
    <ele>94.5</ele>
    <time>2018-01-27T10:08:01Z</time>
   </trkpt>
   <trkpt lat="12.9006090" lon="99.6903870">
    <ele>94.5</ele>
    <time>2018-01-27T10:08:02Z</time>
   </trkpt>
   <trkpt lat="12.9006380" lon="99.6903510">
    <ele>94.5</ele>
    <time>2018-01-27T10:08:03Z</time>
   </trkpt>
   <trkpt lat="12.9006640" lon="99.6903140">
    <ele>94.5</ele>
    <time>2018-01-27T10:08:04Z</time>
   </trkpt>
   <trkpt lat="12.9006890" lon="99.6902770">
    <ele>94.6</ele>
    <time>2018-01-27T10:08:05Z</time>
   </trkpt>
   <trkpt lat="12.9007130" lon="99.6902380">
    <ele>94.6</ele>
    <time>2018-01-27T10:08:06Z</time>
   </trkpt>
   <trkpt lat="12.9007380" lon="99.6901960">
    <ele>94.6</ele>
    <time>2018-01-27T10:08:07Z</time>
   </trkpt>
   <trkpt lat="12.9007590" lon="99.6901530">
    <ele>94.7</ele>
    <time>2018-01-27T10:08:08Z</time>
   </trkpt>
   <trkpt lat="12.9007750" lon="99.6901100">
    <ele>94.7</ele>
    <time>2018-01-27T10:08:09Z</time>
   </trkpt>
   <trkpt lat="12.9007870" lon="99.6900630">
    <ele>94.8</ele>
    <time>2018-01-27T10:08:10Z</time>
   </trkpt>
   <trkpt lat="12.9007960" lon="99.6900150">
    <ele>94.8</ele>
    <time>2018-01-27T10:08:11Z</time>
   </trkpt>
   <trkpt lat="12.9008030" lon="99.6899670">
    <ele>94.9</ele>
    <time>2018-01-27T10:08:12Z</time>
   </trkpt>
   <trkpt lat="12.9008060" lon="99.6899190">
    <ele>94.9</ele>
    <time>2018-01-27T10:08:13Z</time>
   </trkpt>
   <trkpt lat="12.9008080" lon="99.6898700">
    <ele>95.0</ele>
    <time>2018-01-27T10:08:14Z</time>
   </trkpt>
   <trkpt lat="12.9008070" lon="99.6898240">
    <ele>95.0</ele>
    <time>2018-01-27T10:08:15Z</time>
   </trkpt>
   <trkpt lat="12.9008090" lon="99.6897790">
    <ele>95.0</ele>
    <time>2018-01-27T10:08:16Z</time>
   </trkpt>
   <trkpt lat="12.9008110" lon="99.6897340">
    <ele>95.1</ele>
    <time>2018-01-27T10:08:17Z</time>
   </trkpt>
   <trkpt lat="12.9008130" lon="99.6896900">
    <ele>95.1</ele>
    <time>2018-01-27T10:08:18Z</time>
   </trkpt>
   <trkpt lat="12.9008140" lon="99.6896480">
    <ele>95.2</ele>
    <time>2018-01-27T10:08:19Z</time>
   </trkpt>
   <trkpt lat="12.9008100" lon="99.6896160">
    <ele>95.2</ele>
    <time>2018-01-27T10:08:20Z</time>
   </trkpt>
   <trkpt lat="12.9008120" lon="99.6895780">
    <ele>95.2</ele>
    <time>2018-01-27T10:08:21Z</time>
   </trkpt>
   <trkpt lat="12.9008100" lon="99.6895380">
    <ele>95.3</ele>
    <time>2018-01-27T10:08:22Z</time>
   </trkpt>
   <trkpt lat="12.9008010" lon="99.6895000">
    <ele>95.3</ele>
    <time>2018-01-27T10:08:23Z</time>
   </trkpt>
   <trkpt lat="12.9007910" lon="99.6894690">
    <ele>95.3</ele>
    <time>2018-01-27T10:08:24Z</time>
   </trkpt>
   <trkpt lat="12.9007850" lon="99.6894350">
    <ele>95.4</ele>
    <time>2018-01-27T10:08:25Z</time>
   </trkpt>
   <trkpt lat="12.9007840" lon="99.6894000">
    <ele>95.4</ele>
    <time>2018-01-27T10:08:26Z</time>
   </trkpt>
   <trkpt lat="12.9007790" lon="99.6893690">
    <ele>95.4</ele>
    <time>2018-01-27T10:08:27Z</time>
   </trkpt>
   <trkpt lat="12.9007670" lon="99.6893400">
    <ele>95.5</ele>
    <time>2018-01-27T10:08:28Z</time>
   </trkpt>
   <trkpt lat="12.9007410" lon="99.6892960">
    <ele>95.5</ele>
    <time>2018-01-27T10:08:30Z</time>
   </trkpt>
   <trkpt lat="12.9007360" lon="99.6892680">
    <ele>95.5</ele>
    <time>2018-01-27T10:08:31Z</time>
   </trkpt>
   <trkpt lat="12.9007370" lon="99.6892360">
    <ele>95.6</ele>
    <time>2018-01-27T10:08:32Z</time>
   </trkpt>
   <trkpt lat="12.9007450" lon="99.6892040">
    <ele>95.7</ele>
    <time>2018-01-27T10:08:33Z</time>
   </trkpt>
   <trkpt lat="12.9007590" lon="99.6891750">
    <ele>95.8</ele>
    <time>2018-01-27T10:08:34Z</time>
   </trkpt>
   <trkpt lat="12.9007710" lon="99.6891440">
    <ele>95.9</ele>
    <time>2018-01-27T10:08:35Z</time>
   </trkpt>
   <trkpt lat="12.9007820" lon="99.6891100">
    <ele>95.9</ele>
    <time>2018-01-27T10:08:36Z</time>
   </trkpt>
   <trkpt lat="12.9007910" lon="99.6890790">
    <ele>96.0</ele>
    <time>2018-01-27T10:08:37Z</time>
   </trkpt>
   <trkpt lat="12.9007970" lon="99.6890490">
    <ele>96.1</ele>
    <time>2018-01-27T10:08:38Z</time>
   </trkpt>
   <trkpt lat="12.9007970" lon="99.6890170">
    <ele>96.2</ele>
    <time>2018-01-27T10:08:39Z</time>
   </trkpt>
   <trkpt lat="12.9007870" lon="99.6889850">
    <ele>96.3</ele>
    <time>2018-01-27T10:08:40Z</time>
   </trkpt>
   <trkpt lat="12.9007580" lon="99.6889620">
    <ele>96.5</ele>
    <time>2018-01-27T10:08:41Z</time>
   </trkpt>
   <trkpt lat="12.9007370" lon="99.6889370">
    <ele>96.6</ele>
    <time>2018-01-27T10:08:42Z</time>
   </trkpt>
   <trkpt lat="12.9007150" lon="99.6889130">
    <ele>96.7</ele>
    <time>2018-01-27T10:08:43Z</time>
   </trkpt>
   <trkpt lat="12.9006910" lon="99.6888910">
    <ele>96.8</ele>
    <time>2018-01-27T10:08:44Z</time>
   </trkpt>
   <trkpt lat="12.9006640" lon="99.6888670">
    <ele>96.9</ele>
    <time>2018-01-27T10:08:45Z</time>
   </trkpt>
   <trkpt lat="12.9006360" lon="99.6888450">
    <ele>97.1</ele>
    <time>2018-01-27T10:08:46Z</time>
   </trkpt>
   <trkpt lat="12.9006080" lon="99.6888270">
    <ele>97.2</ele>
    <time>2018-01-27T10:08:47Z</time>
   </trkpt>
   <trkpt lat="12.9005800" lon="99.6888100">
    <ele>97.3</ele>
    <time>2018-01-27T10:08:48Z</time>
   </trkpt>
   <trkpt lat="12.9005520" lon="99.6887930">
    <ele>97.4</ele>
    <time>2018-01-27T10:08:49Z</time>
   </trkpt>
   <trkpt lat="12.9005260" lon="99.6887720">
    <ele>97.6</ele>
    <time>2018-01-27T10:08:50Z</time>
   </trkpt>
   <trkpt lat="12.9005020" lon="99.6887520">
    <ele>97.7</ele>
    <time>2018-01-27T10:08:51Z</time>
   </trkpt>
   <trkpt lat="12.9004630" lon="99.6887220">
    <ele>98.2</ele>
    <time>2018-01-27T10:08:53Z</time>
   </trkpt>
   <trkpt lat="12.9004370" lon="99.6886850">
    <ele>98.6</ele>
    <time>2018-01-27T10:08:55Z</time>
   </trkpt>
   <trkpt lat="12.9004180" lon="99.6886600">
    <ele>98.9</ele>
    <time>2018-01-27T10:08:56Z</time>
   </trkpt>
   <trkpt lat="12.9004030" lon="99.6886340">
    <ele>99.3</ele>
    <time>2018-01-27T10:08:57Z</time>
   </trkpt>
   <trkpt lat="12.9003880" lon="99.6886060">
    <ele>99.4</ele>
    <time>2018-01-27T10:08:58Z</time>
   </trkpt>
   <trkpt lat="12.9003700" lon="99.6885700">
    <ele>99.6</ele>
    <time>2018-01-27T10:08:59Z</time>
   </trkpt>
   <trkpt lat="12.9003550" lon="99.6885310">
    <ele>99.7</ele>
    <time>2018-01-27T10:09:00Z</time>
   </trkpt>
   <trkpt lat="12.9003440" lon="99.6884900">
    <ele>99.9</ele>
    <time>2018-01-27T10:09:01Z</time>
   </trkpt>
   <trkpt lat="12.9003350" lon="99.6884470">
    <ele>99.9</ele>
    <time>2018-01-27T10:09:02Z</time>
   </trkpt>
   <trkpt lat="12.9003300" lon="99.6884030">
    <ele>99.9</ele>
    <time>2018-01-27T10:09:03Z</time>
   </trkpt>
   <trkpt lat="12.9003230" lon="99.6883590">
    <ele>99.8</ele>
    <time>2018-01-27T10:09:04Z</time>
   </trkpt>
   <trkpt lat="12.9003140" lon="99.6883120">
    <ele>99.8</ele>
    <time>2018-01-27T10:09:05Z</time>
   </trkpt>
   <trkpt lat="12.9003090" lon="99.6882680">
    <ele>99.8</ele>
    <time>2018-01-27T10:09:06Z</time>
   </trkpt>
   <trkpt lat="12.9003060" lon="99.6882240">
    <ele>99.8</ele>
    <time>2018-01-27T10:09:07Z</time>
   </trkpt>
   <trkpt lat="12.9003090" lon="99.6881840">
    <ele>99.7</ele>
    <time>2018-01-27T10:09:08Z</time>
   </trkpt>
   <trkpt lat="12.9003180" lon="99.6881460">
    <ele>99.7</ele>
    <time>2018-01-27T10:09:09Z</time>
   </trkpt>
   <trkpt lat="12.9003260" lon="99.6881040">
    <ele>99.6</ele>
    <time>2018-01-27T10:09:10Z</time>
   </trkpt>
   <trkpt lat="12.9003390" lon="99.6880650">
    <ele>99.5</ele>
    <time>2018-01-27T10:09:11Z</time>
   </trkpt>
   <trkpt lat="12.9003530" lon="99.6880260">
    <ele>99.2</ele>
    <time>2018-01-27T10:09:12Z</time>
   </trkpt>
   <trkpt lat="12.9003700" lon="99.6879850">
    <ele>99.0</ele>
    <time>2018-01-27T10:09:13Z</time>
   </trkpt>
   <trkpt lat="12.9003870" lon="99.6879470">
    <ele>98.4</ele>
    <time>2018-01-27T10:09:14Z</time>
   </trkpt>
   <trkpt lat="12.9004150" lon="99.6879130">
    <ele>98.1</ele>
    <time>2018-01-27T10:09:15Z</time>
   </trkpt>
   <trkpt lat="12.9004470" lon="99.6878780">
    <ele>97.7</ele>
    <time>2018-01-27T10:09:16Z</time>
   </trkpt>
   <trkpt lat="12.9004740" lon="99.6878490">
    <ele>97.7</ele>
    <time>2018-01-27T10:09:17Z</time>
   </trkpt>
   <trkpt lat="12.9005040" lon="99.6878160">
    <ele>97.4</ele>
    <time>2018-01-27T10:09:18Z</time>
   </trkpt>
   <trkpt lat="12.9005340" lon="99.6877810">
    <ele>97.3</ele>
    <time>2018-01-27T10:09:19Z</time>
   </trkpt>
   <trkpt lat="12.9005630" lon="99.6877430">
    <ele>97.3</ele>
    <time>2018-01-27T10:09:20Z</time>
   </trkpt>
   <trkpt lat="12.9006000" lon="99.6877180">
    <ele>97.3</ele>
    <time>2018-01-27T10:09:21Z</time>
   </trkpt>
   <trkpt lat="12.9006410" lon="99.6876970">
    <ele>97.1</ele>
    <time>2018-01-27T10:09:22Z</time>
   </trkpt>
   <trkpt lat="12.9006850" lon="99.6876770">
    <ele>96.9</ele>
    <time>2018-01-27T10:09:23Z</time>
   </trkpt>
   <trkpt lat="12.9007260" lon="99.6876550">
    <ele>96.4</ele>
    <time>2018-01-27T10:09:24Z</time>
   </trkpt>
   <trkpt lat="12.9007640" lon="99.6876450">
    <ele>96.2</ele>
    <time>2018-01-27T10:09:25Z</time>
   </trkpt>
   <trkpt lat="12.9008060" lon="99.6876400">
    <ele>96.1</ele>
    <time>2018-01-27T10:09:26Z</time>
   </trkpt>
   <trkpt lat="12.9008410" lon="99.6876060">
    <ele>95.9</ele>
    <time>2018-01-27T10:09:27Z</time>
   </trkpt>
   <trkpt lat="12.9008780" lon="99.6875770">
    <ele>95.9</ele>
    <time>2018-01-27T10:09:28Z</time>
   </trkpt>
   <trkpt lat="12.9008990" lon="99.6875430">
    <ele>95.9</ele>
    <time>2018-01-27T10:09:29Z</time>
   </trkpt>
   <trkpt lat="12.9009110" lon="99.6875100">
    <ele>95.9</ele>
    <time>2018-01-27T10:09:30Z</time>
   </trkpt>
   <trkpt lat="12.9009120" lon="99.6874750">
    <ele>96.0</ele>
    <time>2018-01-27T10:09:31Z</time>
   </trkpt>
   <trkpt lat="12.9009010" lon="99.6874380">
    <ele>96.1</ele>
    <time>2018-01-27T10:09:32Z</time>
   </trkpt>
   <trkpt lat="12.9008830" lon="99.6874030">
    <ele>96.3</ele>
    <time>2018-01-27T10:09:33Z</time>
   </trkpt>
   <trkpt lat="12.9008610" lon="99.6873690">
    <ele>96.4</ele>
    <time>2018-01-27T10:09:34Z</time>
   </trkpt>
   <trkpt lat="12.9008380" lon="99.6873350">
    <ele>96.7</ele>
    <time>2018-01-27T10:09:35Z</time>
   </trkpt>
   <trkpt lat="12.9008160" lon="99.6873010">
    <ele>97.4</ele>
    <time>2018-01-27T10:09:36Z</time>
   </trkpt>
   <trkpt lat="12.9007950" lon="99.6872660">
    <ele>97.8</ele>
    <time>2018-01-27T10:09:37Z</time>
   </trkpt>
   <trkpt lat="12.9007750" lon="99.6872270">
    <ele>98.3</ele>
    <time>2018-01-27T10:09:38Z</time>
   </trkpt>
   <trkpt lat="12.9007550" lon="99.6871860">
    <ele>98.6</ele>
    <time>2018-01-27T10:09:39Z</time>
   </trkpt>
   <trkpt lat="12.9007390" lon="99.6871460">
    <ele>98.7</ele>
    <time>2018-01-27T10:09:40Z</time>
   </trkpt>
   <trkpt lat="12.9007330" lon="99.6871030">
    <ele>98.9</ele>
    <time>2018-01-27T10:09:41Z</time>
   </trkpt>
   <trkpt lat="12.9007260" lon="99.6870640">
    <ele>99.1</ele>
    <time>2018-01-27T10:09:42Z</time>
   </trkpt>
   <trkpt lat="12.9007250" lon="99.6870230">
    <ele>99.3</ele>
    <time>2018-01-27T10:09:43Z</time>
   </trkpt>
   <trkpt lat="12.9007250" lon="99.6869810">
    <ele>99.3</ele>
    <time>2018-01-27T10:09:44Z</time>
   </trkpt>
   <trkpt lat="12.9007270" lon="99.6869370">
    <ele>99.8</ele>
    <time>2018-01-27T10:09:45Z</time>
   </trkpt>
   <trkpt lat="12.9007340" lon="99.6869070">
    <ele>99.8</ele>
    <time>2018-01-27T10:09:47Z</time>
   </trkpt>
   <trkpt lat="12.9007510" lon="99.6868800">
    <ele>100.0</ele>
    <time>2018-01-27T10:09:48Z</time>
   </trkpt>
   <trkpt lat="12.9007740" lon="99.6868430">
    <ele>100.2</ele>
    <time>2018-01-27T10:09:49Z</time>
   </trkpt>
   <trkpt lat="12.9007950" lon="99.6868140">
    <ele>100.3</ele>
    <time>2018-01-27T10:09:50Z</time>
   </trkpt>
   <trkpt lat="12.9008170" lon="99.6867860">
    <ele>100.5</ele>
    <time>2018-01-27T10:09:51Z</time>
   </trkpt>
   <trkpt lat="12.9008380" lon="99.6867570">
    <ele>100.7</ele>
    <time>2018-01-27T10:09:52Z</time>
   </trkpt>
   <trkpt lat="12.9008600" lon="99.6867260">
    <ele>100.6</ele>
    <time>2018-01-27T10:09:53Z</time>
   </trkpt>
   <trkpt lat="12.9008810" lon="99.6866950">
    <ele>100.5</ele>
    <time>2018-01-27T10:09:54Z</time>
   </trkpt>
   <trkpt lat="12.9009040" lon="99.6866640">
    <ele>100.5</ele>
    <time>2018-01-27T10:09:55Z</time>
   </trkpt>
   <trkpt lat="12.9009280" lon="99.6866390">
    <ele>100.0</ele>
    <time>2018-01-27T10:09:56Z</time>
   </trkpt>
   <trkpt lat="12.9009540" lon="99.6866150">
    <ele>100.0</ele>
    <time>2018-01-27T10:09:57Z</time>
   </trkpt>
   <trkpt lat="12.9009790" lon="99.6865890">
    <ele>99.6</ele>
    <time>2018-01-27T10:09:58Z</time>
   </trkpt>
   <trkpt lat="12.9010010" lon="99.6865610">
    <ele>99.6</ele>
    <time>2018-01-27T10:09:59Z</time>
   </trkpt>
   <trkpt lat="12.9010160" lon="99.6865280">
    <ele>99.3</ele>
    <time>2018-01-27T10:10:00Z</time>
   </trkpt>
   <trkpt lat="12.9010230" lon="99.6864900">
    <ele>99.6</ele>
    <time>2018-01-27T10:10:01Z</time>
   </trkpt>
   <trkpt lat="12.9010170" lon="99.6864230">
    <ele>99.9</ele>
    <time>2018-01-27T10:10:02Z</time>
   </trkpt>
   <trkpt lat="12.9010060" lon="99.6863930">
    <ele>99.9</ele>
    <time>2018-01-27T10:10:03Z</time>
   </trkpt>
   <trkpt lat="12.9009950" lon="99.6863660">
    <ele>100.3</ele>
    <time>2018-01-27T10:10:04Z</time>
   </trkpt>
   <trkpt lat="12.9009810" lon="99.6863420">
    <ele>100.2</ele>
    <time>2018-01-27T10:10:05Z</time>
   </trkpt>
   <trkpt lat="12.9009590" lon="99.6862940">
    <ele>100.3</ele>
    <time>2018-01-27T10:10:07Z</time>
   </trkpt>
   <trkpt lat="12.9009360" lon="99.6862490">
    <ele>99.8</ele>
    <time>2018-01-27T10:10:09Z</time>
   </trkpt>
   <trkpt lat="12.9009130" lon="99.6862120">
    <ele>100.1</ele>
    <time>2018-01-27T10:10:11Z</time>
   </trkpt>
   <trkpt lat="12.9008950" lon="99.6861810">
    <ele>100.0</ele>
    <time>2018-01-27T10:10:13Z</time>
   </trkpt>
   <trkpt lat="12.9008800" lon="99.6861390">
    <ele>100.0</ele>
    <time>2018-01-27T10:10:15Z</time>
   </trkpt>
   <trkpt lat="12.9008690" lon="99.6860970">
    <ele>100.1</ele>
    <time>2018-01-27T10:10:17Z</time>
   </trkpt>
   <trkpt lat="12.9008540" lon="99.6860450">
    <ele>100.1</ele>
    <time>2018-01-27T10:10:19Z</time>
   </trkpt>
   <trkpt lat="12.9008450" lon="99.6860150">
    <ele>100.1</ele>
    <time>2018-01-27T10:10:20Z</time>
   </trkpt>
   <trkpt lat="12.9008380" lon="99.6859830">
    <ele>100.1</ele>
    <time>2018-01-27T10:10:21Z</time>
   </trkpt>
   <trkpt lat="12.9008330" lon="99.6859530">
    <ele>100.3</ele>
    <time>2018-01-27T10:10:22Z</time>
   </trkpt>
   <trkpt lat="12.9008300" lon="99.6859220">
    <ele>100.6</ele>
    <time>2018-01-27T10:10:23Z</time>
   </trkpt>
   <trkpt lat="12.9008270" lon="99.6858890">
    <ele>100.8</ele>
    <time>2018-01-27T10:10:24Z</time>
   </trkpt>
   <trkpt lat="12.9007960" lon="99.6858210">
    <ele>101.8</ele>
    <time>2018-01-27T10:10:25Z</time>
   </trkpt>
   <trkpt lat="12.9007790" lon="99.6857970">
    <ele>102.2</ele>
    <time>2018-01-27T10:10:26Z</time>
   </trkpt>
   <trkpt lat="12.9007570" lon="99.6857770">
    <ele>102.4</ele>
    <time>2018-01-27T10:10:27Z</time>
   </trkpt>
   <trkpt lat="12.9007160" lon="99.6857480">
    <ele>102.8</ele>
    <time>2018-01-27T10:10:29Z</time>
   </trkpt>
   <trkpt lat="12.9006950" lon="99.6857250">
    <ele>103.1</ele>
    <time>2018-01-27T10:10:30Z</time>
   </trkpt>
   <trkpt lat="12.9006530" lon="99.6856850">
    <ele>103.7</ele>
    <time>2018-01-27T10:10:32Z</time>
   </trkpt>
   <trkpt lat="12.9006300" lon="99.6856630">
    <ele>103.9</ele>
    <time>2018-01-27T10:10:33Z</time>
   </trkpt>
   <trkpt lat="12.9006030" lon="99.6856410">
    <ele>104.1</ele>
    <time>2018-01-27T10:10:34Z</time>
   </trkpt>
   <trkpt lat="12.9005760" lon="99.6856210">
    <ele>104.2</ele>
    <time>2018-01-27T10:10:35Z</time>
   </trkpt>
   <trkpt lat="12.9005500" lon="99.6855980">
    <ele>104.3</ele>
    <time>2018-01-27T10:10:36Z</time>
   </trkpt>
   <trkpt lat="12.9005270" lon="99.6855730">
    <ele>104.4</ele>
    <time>2018-01-27T10:10:37Z</time>
   </trkpt>
   <trkpt lat="12.9005060" lon="99.6855380">
    <ele>104.4</ele>
    <time>2018-01-27T10:10:38Z</time>
   </trkpt>
   <trkpt lat="12.9004820" lon="99.6855130">
    <ele>104.5</ele>
    <time>2018-01-27T10:10:39Z</time>
   </trkpt>
   <trkpt lat="12.9004530" lon="99.6854860">
    <ele>104.5</ele>
    <time>2018-01-27T10:10:40Z</time>
   </trkpt>
   <trkpt lat="12.9004230" lon="99.6854630">
    <ele>104.6</ele>
    <time>2018-01-27T10:10:41Z</time>
   </trkpt>
   <trkpt lat="12.9003930" lon="99.6854410">
    <ele>104.6</ele>
    <time>2018-01-27T10:10:42Z</time>
   </trkpt>
   <trkpt lat="12.9003630" lon="99.6854220">
    <ele>104.6</ele>
    <time>2018-01-27T10:10:43Z</time>
   </trkpt>
   <trkpt lat="12.9003320" lon="99.6854050">
    <ele>104.5</ele>
    <time>2018-01-27T10:10:44Z</time>
   </trkpt>
   <trkpt lat="12.9002990" lon="99.6853880">
    <ele>104.3</ele>
    <time>2018-01-27T10:10:45Z</time>
   </trkpt>
   <trkpt lat="12.9002660" lon="99.6853760">
    <ele>104.1</ele>
    <time>2018-01-27T10:10:46Z</time>
   </trkpt>
   <trkpt lat="12.9002340" lon="99.6853650">
    <ele>103.9</ele>
    <time>2018-01-27T10:10:47Z</time>
   </trkpt>
   <trkpt lat="12.9001970" lon="99.6853530">
    <ele>103.5</ele>
    <time>2018-01-27T10:10:48Z</time>
   </trkpt>
   <trkpt lat="12.9001600" lon="99.6853460">
    <ele>103.1</ele>
    <time>2018-01-27T10:10:49Z</time>
   </trkpt>
   <trkpt lat="12.9001240" lon="99.6853390">
    <ele>102.8</ele>
    <time>2018-01-27T10:10:50Z</time>
   </trkpt>
   <trkpt lat="12.9000780" lon="99.6853150">
    <ele>102.5</ele>
    <time>2018-01-27T10:10:52Z</time>
   </trkpt>
   <trkpt lat="12.9000490" lon="99.6852950">
    <ele>102.6</ele>
    <time>2018-01-27T10:10:53Z</time>
   </trkpt>
   <trkpt lat="12.9000220" lon="99.6852760">
    <ele>102.6</ele>
    <time>2018-01-27T10:10:54Z</time>
   </trkpt>
   <trkpt lat="12.8999980" lon="99.6852590">
    <ele>102.7</ele>
    <time>2018-01-27T10:10:55Z</time>
   </trkpt>
   <trkpt lat="12.8999530" lon="99.6852350">
    <ele>102.9</ele>
    <time>2018-01-27T10:10:57Z</time>
   </trkpt>
   <trkpt lat="12.8999230" lon="99.6852160">
    <ele>102.9</ele>
    <time>2018-01-27T10:10:59Z</time>
   </trkpt>
   <trkpt lat="12.8999030" lon="99.6851760">
    <ele>103.0</ele>
    <time>2018-01-27T10:11:01Z</time>
   </trkpt>
   <trkpt lat="12.8999030" lon="99.6851450">
    <ele>103.0</ele>
    <time>2018-01-27T10:11:02Z</time>
   </trkpt>
   <trkpt lat="12.8999120" lon="99.6851130">
    <ele>102.9</ele>
    <time>2018-01-27T10:11:03Z</time>
   </trkpt>
   <trkpt lat="12.8999250" lon="99.6850770">
    <ele>102.8</ele>
    <time>2018-01-27T10:11:04Z</time>
   </trkpt>
   <trkpt lat="12.8999400" lon="99.6850400">
    <ele>102.7</ele>
    <time>2018-01-27T10:11:05Z</time>
   </trkpt>
   <trkpt lat="12.8999560" lon="99.6850000">
    <ele>102.6</ele>
    <time>2018-01-27T10:11:06Z</time>
   </trkpt>
   <trkpt lat="12.8999720" lon="99.6849600">
    <ele>102.4</ele>
    <time>2018-01-27T10:11:07Z</time>
   </trkpt>
   <trkpt lat="12.8999890" lon="99.6849230">
    <ele>102.3</ele>
    <time>2018-01-27T10:11:08Z</time>
   </trkpt>
   <trkpt lat="12.9000280" lon="99.6848700">
    <ele>102.2</ele>
    <time>2018-01-27T10:11:10Z</time>
   </trkpt>
   <trkpt lat="12.9000620" lon="99.6848420">
    <ele>102.0</ele>
    <time>2018-01-27T10:11:11Z</time>
   </trkpt>
   <trkpt lat="12.9000880" lon="99.6847970">
    <ele>101.9</ele>
    <time>2018-01-27T10:11:12Z</time>
   </trkpt>
   <trkpt lat="12.9001110" lon="99.6847530">
    <ele>101.8</ele>
    <time>2018-01-27T10:11:13Z</time>
   </trkpt>
   <trkpt lat="12.9001390" lon="99.6847100">
    <ele>101.6</ele>
    <time>2018-01-27T10:11:14Z</time>
   </trkpt>
   <trkpt lat="12.9001710" lon="99.6846710">
    <ele>101.5</ele>
    <time>2018-01-27T10:11:15Z</time>
   </trkpt>
   <trkpt lat="12.9002000" lon="99.6846350">
    <ele>101.4</ele>
    <time>2018-01-27T10:11:16Z</time>
   </trkpt>
   <trkpt lat="12.9002330" lon="99.6845910">
    <ele>101.2</ele>
    <time>2018-01-27T10:11:17Z</time>
   </trkpt>
   <trkpt lat="12.9002640" lon="99.6845500">
    <ele>100.9</ele>
    <time>2018-01-27T10:11:18Z</time>
   </trkpt>
   <trkpt lat="12.9003020" lon="99.6845100">
    <ele>100.8</ele>
    <time>2018-01-27T10:11:19Z</time>
   </trkpt>
   <trkpt lat="12.9003440" lon="99.6844760">
    <ele>100.7</ele>
    <time>2018-01-27T10:11:20Z</time>
   </trkpt>
   <trkpt lat="12.9003790" lon="99.6844260">
    <ele>100.5</ele>
    <time>2018-01-27T10:11:21Z</time>
   </trkpt>
   <trkpt lat="12.9004180" lon="99.6843790">
    <ele>100.4</ele>
    <time>2018-01-27T10:11:22Z</time>
   </trkpt>
   <trkpt lat="12.9004620" lon="99.6843310">
    <ele>100.2</ele>
    <time>2018-01-27T10:11:23Z</time>
   </trkpt>
   <trkpt lat="12.9005060" lon="99.6842880">
    <ele>100.0</ele>
    <time>2018-01-27T10:11:24Z</time>
   </trkpt>
   <trkpt lat="12.9005400" lon="99.6842330">
    <ele>99.8</ele>
    <time>2018-01-27T10:11:25Z</time>
   </trkpt>
   <trkpt lat="12.9005730" lon="99.6841880">
    <ele>99.7</ele>
    <time>2018-01-27T10:11:26Z</time>
   </trkpt>
   <trkpt lat="12.9006070" lon="99.6841470">
    <ele>99.6</ele>
    <time>2018-01-27T10:11:27Z</time>
   </trkpt>
   <trkpt lat="12.9006430" lon="99.6841090">
    <ele>99.5</ele>
    <time>2018-01-27T10:11:28Z</time>
   </trkpt>
   <trkpt lat="12.9006810" lon="99.6840730">
    <ele>99.4</ele>
    <time>2018-01-27T10:11:29Z</time>
   </trkpt>
   <trkpt lat="12.9007190" lon="99.6840220">
    <ele>99.3</ele>
    <time>2018-01-27T10:11:30Z</time>
   </trkpt>
   <trkpt lat="12.9007480" lon="99.6839820">
    <ele>99.2</ele>
    <time>2018-01-27T10:11:31Z</time>
   </trkpt>
   <trkpt lat="12.9007830" lon="99.6839450">
    <ele>99.2</ele>
    <time>2018-01-27T10:11:32Z</time>
   </trkpt>
   <trkpt lat="12.9008140" lon="99.6839110">
    <ele>99.1</ele>
    <time>2018-01-27T10:11:33Z</time>
   </trkpt>
   <trkpt lat="12.9008500" lon="99.6838780">
    <ele>99.0</ele>
    <time>2018-01-27T10:11:34Z</time>
   </trkpt>
   <trkpt lat="12.9008660" lon="99.6838440">
    <ele>98.9</ele>
    <time>2018-01-27T10:11:35Z</time>
   </trkpt>
   <trkpt lat="12.9008950" lon="99.6838070">
    <ele>98.9</ele>
    <time>2018-01-27T10:11:36Z</time>
   </trkpt>
   <trkpt lat="12.9009230" lon="99.6837790">
    <ele>98.8</ele>
    <time>2018-01-27T10:11:37Z</time>
   </trkpt>
   <trkpt lat="12.9009550" lon="99.6837440">
    <ele>98.7</ele>
    <time>2018-01-27T10:11:38Z</time>
   </trkpt>
   <trkpt lat="12.9009900" lon="99.6837130">
    <ele>98.7</ele>
    <time>2018-01-27T10:11:39Z</time>
   </trkpt>
   <trkpt lat="12.9010200" lon="99.6836830">
    <ele>98.6</ele>
    <time>2018-01-27T10:11:40Z</time>
   </trkpt>
   <trkpt lat="12.9010460" lon="99.6836460">
    <ele>98.5</ele>
    <time>2018-01-27T10:11:41Z</time>
   </trkpt>
   <trkpt lat="12.9010710" lon="99.6836190">
    <ele>98.5</ele>
    <time>2018-01-27T10:11:42Z</time>
   </trkpt>
   <trkpt lat="12.9011070" lon="99.6835900">
    <ele>98.4</ele>
    <time>2018-01-27T10:11:43Z</time>
   </trkpt>
   <trkpt lat="12.9011400" lon="99.6835650">
    <ele>98.3</ele>
    <time>2018-01-27T10:11:44Z</time>
   </trkpt>
   <trkpt lat="12.9011670" lon="99.6835390">
    <ele>98.2</ele>
    <time>2018-01-27T10:11:45Z</time>
   </trkpt>
   <trkpt lat="12.9011830" lon="99.6835140">
    <ele>98.1</ele>
    <time>2018-01-27T10:11:46Z</time>
   </trkpt>
   <trkpt lat="12.9011940" lon="99.6834810">
    <ele>98.0</ele>
    <time>2018-01-27T10:11:47Z</time>
   </trkpt>
   <trkpt lat="12.9012070" lon="99.6834480">
    <ele>98.0</ele>
    <time>2018-01-27T10:11:48Z</time>
   </trkpt>
   <trkpt lat="12.9012280" lon="99.6834160">
    <ele>98.0</ele>
    <time>2018-01-27T10:11:49Z</time>
   </trkpt>
   <trkpt lat="12.9012530" lon="99.6833870">
    <ele>98.0</ele>
    <time>2018-01-27T10:11:50Z</time>
   </trkpt>
   <trkpt lat="12.9012870" lon="99.6833620">
    <ele>98.1</ele>
    <time>2018-01-27T10:11:51Z</time>
   </trkpt>
   <trkpt lat="12.9013200" lon="99.6833420">
    <ele>98.2</ele>
    <time>2018-01-27T10:11:52Z</time>
   </trkpt>
   <trkpt lat="12.9013530" lon="99.6833260">
    <ele>98.3</ele>
    <time>2018-01-27T10:11:53Z</time>
   </trkpt>
   <trkpt lat="12.9013870" lon="99.6833110">
    <ele>98.4</ele>
    <time>2018-01-27T10:11:54Z</time>
   </trkpt>
   <trkpt lat="12.9014220" lon="99.6832960">
    <ele>98.6</ele>
    <time>2018-01-27T10:11:55Z</time>
   </trkpt>
   <trkpt lat="12.9014570" lon="99.6832820">
    <ele>98.7</ele>
    <time>2018-01-27T10:11:56Z</time>
   </trkpt>
   <trkpt lat="12.9014900" lon="99.6832710">
    <ele>98.8</ele>
    <time>2018-01-27T10:11:57Z</time>
   </trkpt>
   <trkpt lat="12.9015240" lon="99.6832610">
    <ele>98.9</ele>
    <time>2018-01-27T10:11:58Z</time>
   </trkpt>
   <trkpt lat="12.9015560" lon="99.6832480">
    <ele>99.0</ele>
    <time>2018-01-27T10:11:59Z</time>
   </trkpt>
   <trkpt lat="12.9015910" lon="99.6832360">
    <ele>99.2</ele>
    <time>2018-01-27T10:12:00Z</time>
   </trkpt>
   <trkpt lat="12.9016230" lon="99.6832260">
    <ele>99.3</ele>
    <time>2018-01-27T10:12:01Z</time>
   </trkpt>
   <trkpt lat="12.9016750" lon="99.6832210">
    <ele>99.4</ele>
    <time>2018-01-27T10:12:03Z</time>
   </trkpt>
   <trkpt lat="12.9017110" lon="99.6832130">
    <ele>99.5</ele>
    <time>2018-01-27T10:12:05Z</time>
   </trkpt>
   <trkpt lat="12.9017410" lon="99.6831960">
    <ele>99.6</ele>
    <time>2018-01-27T10:12:07Z</time>
   </trkpt>
   <trkpt lat="12.9017710" lon="99.6832010">
    <ele>99.7</ele>
    <time>2018-01-27T10:12:10Z</time>
   </trkpt>
   <trkpt lat="12.9017520" lon="99.6832220">
    <ele>99.6</ele>
    <time>2018-01-27T10:12:12Z</time>
   </trkpt>
   <trkpt lat="12.9017130" lon="99.6832200">
    <ele>99.5</ele>
    <time>2018-01-27T10:12:14Z</time>
   </trkpt>
   <trkpt lat="12.9016750" lon="99.6832200">
    <ele>99.4</ele>
    <time>2018-01-27T10:12:16Z</time>
   </trkpt>
   <trkpt lat="12.9016340" lon="99.6832330">
    <ele>99.3</ele>
    <time>2018-01-27T10:12:18Z</time>
   </trkpt>
   <trkpt lat="12.9015940" lon="99.6832480">
    <ele>99.2</ele>
    <time>2018-01-27T10:12:20Z</time>
   </trkpt>
   <trkpt lat="12.9015480" lon="99.6832600">
    <ele>99.0</ele>
    <time>2018-01-27T10:12:22Z</time>
   </trkpt>
   <trkpt lat="12.9015220" lon="99.6832690">
    <ele>98.9</ele>
    <time>2018-01-27T10:12:23Z</time>
   </trkpt>
   <trkpt lat="12.9014940" lon="99.6832790">
    <ele>98.9</ele>
    <time>2018-01-27T10:12:24Z</time>
   </trkpt>
   <trkpt lat="12.9014650" lon="99.6832900">
    <ele>98.8</ele>
    <time>2018-01-27T10:12:25Z</time>
   </trkpt>
   <trkpt lat="12.9014320" lon="99.6833020">
    <ele>98.6</ele>
    <time>2018-01-27T10:12:26Z</time>
   </trkpt>
   <trkpt lat="12.9013970" lon="99.6833070">
    <ele>98.5</ele>
    <time>2018-01-27T10:12:27Z</time>
   </trkpt>
   <trkpt lat="12.9013590" lon="99.6833100">
    <ele>98.4</ele>
    <time>2018-01-27T10:12:28Z</time>
   </trkpt>
   <trkpt lat="12.9013170" lon="99.6833080">
    <ele>98.3</ele>
    <time>2018-01-27T10:12:29Z</time>
   </trkpt>
   <trkpt lat="12.9012710" lon="99.6833000">
    <ele>98.1</ele>
    <time>2018-01-27T10:12:30Z</time>
   </trkpt>
   <trkpt lat="12.9012290" lon="99.6832890">
    <ele>98.0</ele>
    <time>2018-01-27T10:12:31Z</time>
   </trkpt>
   <trkpt lat="12.9011910" lon="99.6832800">
    <ele>98.7</ele>
    <time>2018-01-27T10:12:32Z</time>
   </trkpt>
   <trkpt lat="12.9011590" lon="99.6832700">
    <ele>98.9</ele>
    <time>2018-01-27T10:12:33Z</time>
   </trkpt>
   <trkpt lat="12.9011330" lon="99.6832620">
    <ele>99.1</ele>
    <time>2018-01-27T10:12:34Z</time>
   </trkpt>
   <trkpt lat="12.9010950" lon="99.6832300">
    <ele>99.3</ele>
    <time>2018-01-27T10:12:36Z</time>
   </trkpt>
   <trkpt lat="12.9010630" lon="99.6831880">
    <ele>99.7</ele>
    <time>2018-01-27T10:12:38Z</time>
   </trkpt>
   <trkpt lat="12.9010460" lon="99.6831600">
    <ele>99.8</ele>
    <time>2018-01-27T10:12:39Z</time>
   </trkpt>
   <trkpt lat="12.9010340" lon="99.6831290">
    <ele>100.1</ele>
    <time>2018-01-27T10:12:40Z</time>
   </trkpt>
   <trkpt lat="12.9010210" lon="99.6830920">
    <ele>100.5</ele>
    <time>2018-01-27T10:12:41Z</time>
   </trkpt>
   <trkpt lat="12.9010050" lon="99.6830510">
    <ele>101.0</ele>
    <time>2018-01-27T10:12:42Z</time>
   </trkpt>
   <trkpt lat="12.9009880" lon="99.6830100">
    <ele>101.3</ele>
    <time>2018-01-27T10:12:43Z</time>
   </trkpt>
   <trkpt lat="12.9009710" lon="99.6829740">
    <ele>101.7</ele>
    <time>2018-01-27T10:12:44Z</time>
   </trkpt>
   <trkpt lat="12.9009510" lon="99.6829330">
    <ele>102.0</ele>
    <time>2018-01-27T10:12:45Z</time>
   </trkpt>
   <trkpt lat="12.9009320" lon="99.6828820">
    <ele>102.3</ele>
    <time>2018-01-27T10:12:46Z</time>
   </trkpt>
   <trkpt lat="12.9009150" lon="99.6828460">
    <ele>102.5</ele>
    <time>2018-01-27T10:12:47Z</time>
   </trkpt>
   <trkpt lat="12.9008940" lon="99.6828090">
    <ele>102.7</ele>
    <time>2018-01-27T10:12:48Z</time>
   </trkpt>
   <trkpt lat="12.9008720" lon="99.6827670">
    <ele>102.9</ele>
    <time>2018-01-27T10:12:49Z</time>
   </trkpt>
   <trkpt lat="12.9008530" lon="99.6827330">
    <ele>103.0</ele>
    <time>2018-01-27T10:12:50Z</time>
   </trkpt>
   <trkpt lat="12.9008370" lon="99.6827020">
    <ele>103.1</ele>
    <time>2018-01-27T10:12:51Z</time>
   </trkpt>
   <trkpt lat="12.9008170" lon="99.6826640">
    <ele>103.2</ele>
    <time>2018-01-27T10:12:52Z</time>
   </trkpt>
   <trkpt lat="12.9007970" lon="99.6826260">
    <ele>103.3</ele>
    <time>2018-01-27T10:12:53Z</time>
   </trkpt>
   <trkpt lat="12.9007760" lon="99.6825940">
    <ele>103.4</ele>
    <time>2018-01-27T10:12:54Z</time>
   </trkpt>
   <trkpt lat="12.9007530" lon="99.6825600">
    <ele>103.5</ele>
    <time>2018-01-27T10:12:55Z</time>
   </trkpt>
   <trkpt lat="12.9007310" lon="99.6825220">
    <ele>103.6</ele>
    <time>2018-01-27T10:12:56Z</time>
   </trkpt>
   <trkpt lat="12.9007060" lon="99.6824820">
    <ele>103.8</ele>
    <time>2018-01-27T10:12:57Z</time>
   </trkpt>
   <trkpt lat="12.9006840" lon="99.6824430">
    <ele>103.9</ele>
    <time>2018-01-27T10:12:58Z</time>
   </trkpt>
   <trkpt lat="12.9006610" lon="99.6824070">
    <ele>104.0</ele>
    <time>2018-01-27T10:12:59Z</time>
   </trkpt>
   <trkpt lat="12.9006360" lon="99.6823720">
    <ele>104.0</ele>
    <time>2018-01-27T10:13:00Z</time>
   </trkpt>
   <trkpt lat="12.9006110" lon="99.6823360">
    <ele>104.1</ele>
    <time>2018-01-27T10:13:01Z</time>
   </trkpt>
   <trkpt lat="12.9005820" lon="99.6822960">
    <ele>104.2</ele>
    <time>2018-01-27T10:13:02Z</time>
   </trkpt>
   <trkpt lat="12.9005550" lon="99.6822580">
    <ele>104.2</ele>
    <time>2018-01-27T10:13:03Z</time>
   </trkpt>
   <trkpt lat="12.9005320" lon="99.6822240">
    <ele>104.3</ele>
    <time>2018-01-27T10:13:04Z</time>
   </trkpt>
   <trkpt lat="12.9005090" lon="99.6821860">
    <ele>104.3</ele>
    <time>2018-01-27T10:13:05Z</time>
   </trkpt>
   <trkpt lat="12.9004830" lon="99.6821490">
    <ele>104.4</ele>
    <time>2018-01-27T10:13:06Z</time>
   </trkpt>
   <trkpt lat="12.9004570" lon="99.6821160">
    <ele>104.5</ele>
    <time>2018-01-27T10:13:07Z</time>
   </trkpt>
   <trkpt lat="12.9004330" lon="99.6820850">
    <ele>104.5</ele>
    <time>2018-01-27T10:13:08Z</time>
   </trkpt>
   <trkpt lat="12.9004100" lon="99.6820570">
    <ele>104.6</ele>
    <time>2018-01-27T10:13:09Z</time>
   </trkpt>
   <trkpt lat="12.9003850" lon="99.6820290">
    <ele>104.6</ele>
    <time>2018-01-27T10:13:10Z</time>
   </trkpt>
   <trkpt lat="12.9003580" lon="99.6820000">
    <ele>104.7</ele>
    <time>2018-01-27T10:13:11Z</time>
   </trkpt>
   <trkpt lat="12.9003300" lon="99.6819690">
    <ele>104.7</ele>
    <time>2018-01-27T10:13:12Z</time>
   </trkpt>
   <trkpt lat="12.9003070" lon="99.6819400">
    <ele>104.8</ele>
    <time>2018-01-27T10:13:13Z</time>
   </trkpt>
   <trkpt lat="12.9002840" lon="99.6819100">
    <ele>104.8</ele>
    <time>2018-01-27T10:13:14Z</time>
   </trkpt>
   <trkpt lat="12.9002610" lon="99.6818800">
    <ele>104.9</ele>
    <time>2018-01-27T10:13:15Z</time>
   </trkpt>
   <trkpt lat="12.9002410" lon="99.6818520">
    <ele>104.9</ele>
    <time>2018-01-27T10:13:16Z</time>
   </trkpt>
   <trkpt lat="12.9002240" lon="99.6818240">
    <ele>105.0</ele>
    <time>2018-01-27T10:13:17Z</time>
   </trkpt>
   <trkpt lat="12.9002070" lon="99.6817960">
    <ele>105.0</ele>
    <time>2018-01-27T10:13:18Z</time>
   </trkpt>
   <trkpt lat="12.9001910" lon="99.6817710">
    <ele>105.0</ele>
    <time>2018-01-27T10:13:19Z</time>
   </trkpt>
   <trkpt lat="12.9001780" lon="99.6817460">
    <ele>105.1</ele>
    <time>2018-01-27T10:13:20Z</time>
   </trkpt>
   <trkpt lat="12.9001650" lon="99.6816950">
    <ele>105.1</ele>
    <time>2018-01-27T10:13:22Z</time>
   </trkpt>
   <trkpt lat="12.9001560" lon="99.6816410">
    <ele>105.2</ele>
    <time>2018-01-27T10:13:24Z</time>
   </trkpt>
   <trkpt lat="12.9001600" lon="99.6816130">
    <ele>105.3</ele>
    <time>2018-01-27T10:13:25Z</time>
   </trkpt>
   <trkpt lat="12.9001690" lon="99.6815860">
    <ele>105.3</ele>
    <time>2018-01-27T10:13:26Z</time>
   </trkpt>
   <trkpt lat="12.9001870" lon="99.6815640">
    <ele>105.4</ele>
    <time>2018-01-27T10:13:27Z</time>
   </trkpt>
   <trkpt lat="12.9002110" lon="99.6815460">
    <ele>105.4</ele>
    <time>2018-01-27T10:13:28Z</time>
   </trkpt>
   <trkpt lat="12.9002400" lon="99.6815250">
    <ele>105.4</ele>
    <time>2018-01-27T10:13:29Z</time>
   </trkpt>
   <trkpt lat="12.9002690" lon="99.6815000">
    <ele>105.5</ele>
    <time>2018-01-27T10:13:30Z</time>
   </trkpt>
   <trkpt lat="12.9002970" lon="99.6814730">
    <ele>105.6</ele>
    <time>2018-01-27T10:13:31Z</time>
   </trkpt>
   <trkpt lat="12.9003170" lon="99.6814410">
    <ele>105.6</ele>
    <time>2018-01-27T10:13:32Z</time>
   </trkpt>
   <trkpt lat="12.9003280" lon="99.6814030">
    <ele>105.6</ele>
    <time>2018-01-27T10:13:33Z</time>
   </trkpt>
   <trkpt lat="12.9003230" lon="99.6813630">
    <ele>105.7</ele>
    <time>2018-01-27T10:13:34Z</time>
   </trkpt>
   <trkpt lat="12.9003150" lon="99.6813270">
    <ele>105.7</ele>
    <time>2018-01-27T10:13:35Z</time>
   </trkpt>
   <trkpt lat="12.9003050" lon="99.6812950">
    <ele>105.7</ele>
    <time>2018-01-27T10:13:36Z</time>
   </trkpt>
   <trkpt lat="12.9002970" lon="99.6812470">
    <ele>105.7</ele>
    <time>2018-01-27T10:13:39Z</time>
   </trkpt>
   <trkpt lat="12.9002840" lon="99.6812000">
    <ele>105.8</ele>
    <time>2018-01-27T10:13:40Z</time>
   </trkpt>
   <trkpt lat="12.9002540" lon="99.6811100">
    <ele>105.8</ele>
    <time>2018-01-27T10:13:41Z</time>
   </trkpt>
   <trkpt lat="12.9002430" lon="99.6810720">
    <ele>105.9</ele>
    <time>2018-01-27T10:13:42Z</time>
   </trkpt>
   <trkpt lat="12.9002320" lon="99.6810410">
    <ele>105.9</ele>
    <time>2018-01-27T10:13:43Z</time>
   </trkpt>
   <trkpt lat="12.9002190" lon="99.6810060">
    <ele>105.9</ele>
    <time>2018-01-27T10:13:44Z</time>
   </trkpt>
   <trkpt lat="12.9002100" lon="99.6809730">
    <ele>106.0</ele>
    <time>2018-01-27T10:13:45Z</time>
   </trkpt>
   <trkpt lat="12.9001990" lon="99.6809360">
    <ele>106.0</ele>
    <time>2018-01-27T10:13:46Z</time>
   </trkpt>
   <trkpt lat="12.9001920" lon="99.6809060">
    <ele>106.0</ele>
    <time>2018-01-27T10:13:47Z</time>
   </trkpt>
   <trkpt lat="12.9001860" lon="99.6808780">
    <ele>106.1</ele>
    <time>2018-01-27T10:13:48Z</time>
   </trkpt>
   <trkpt lat="12.9001790" lon="99.6808500">
    <ele>106.1</ele>
    <time>2018-01-27T10:13:49Z</time>
   </trkpt>
   <trkpt lat="12.9001540" lon="99.6808060">
    <ele>106.1</ele>
    <time>2018-01-27T10:13:51Z</time>
   </trkpt>
   <trkpt lat="12.9001450" lon="99.6807570">
    <ele>106.2</ele>
    <time>2018-01-27T10:13:53Z</time>
   </trkpt>
   <trkpt lat="12.9001310" lon="99.6807090">
    <ele>106.2</ele>
    <time>2018-01-27T10:13:55Z</time>
   </trkpt>
   <trkpt lat="12.9001130" lon="99.6806880">
    <ele>106.3</ele>
    <time>2018-01-27T10:13:56Z</time>
   </trkpt>
   <trkpt lat="12.9000610" lon="99.6806680">
    <ele>106.4</ele>
    <time>2018-01-27T10:13:58Z</time>
   </trkpt>
   <trkpt lat="12.9000320" lon="99.6806680">
    <ele>106.5</ele>
    <time>2018-01-27T10:13:59Z</time>
   </trkpt>
   <trkpt lat="12.8999890" lon="99.6806720">
    <ele>108.0</ele>
    <time>2018-01-27T10:14:01Z</time>
   </trkpt>
   <trkpt lat="12.8999540" lon="99.6806820">
    <ele>108.0</ele>
    <time>2018-01-27T10:14:03Z</time>
   </trkpt>
   <trkpt lat="12.8999180" lon="99.6806890">
    <ele>107.9</ele>
    <time>2018-01-27T10:14:05Z</time>
   </trkpt>
   <trkpt lat="12.8998860" lon="99.6806910">
    <ele>107.9</ele>
    <time>2018-01-27T10:14:07Z</time>
   </trkpt>
   <trkpt lat="12.8998640" lon="99.6807090">
    <ele>107.8</ele>
    <time>2018-01-27T10:14:13Z</time>
   </trkpt>
   <trkpt lat="12.8998940" lon="99.6807060">
    <ele>107.9</ele>
    <time>2018-01-27T10:14:28Z</time>
   </trkpt>
   <trkpt lat="12.8999110" lon="99.6806830">
    <ele>107.9</ele>
    <time>2018-01-27T10:14:31Z</time>
   </trkpt>
   <trkpt lat="12.8999360" lon="99.6806610">
    <ele>108.0</ele>
    <time>2018-01-27T10:14:39Z</time>
   </trkpt>
   <trkpt lat="12.8999570" lon="99.6806350">
    <ele>108.0</ele>
    <time>2018-01-27T10:14:45Z</time>
   </trkpt>
   <trkpt lat="12.8999640" lon="99.6806670">
    <ele>108.0</ele>
    <time>2018-01-27T10:15:46Z</time>
   </trkpt>
   <trkpt lat="12.9000180" lon="99.6806380">
    <ele>108.0</ele>
    <time>2018-01-27T10:16:52Z</time>
   </trkpt>
   <trkpt lat="12.9000170" lon="99.6806100">
    <ele>108.0</ele>
    <time>2018-01-27T10:17:13Z</time>
   </trkpt>
   <trkpt lat="12.8999990" lon="99.6805880">
    <ele>108.0</ele>
    <time>2018-01-27T10:17:16Z</time>
   </trkpt>
   <trkpt lat="12.8999740" lon="99.6805670">
    <ele>108.0</ele>
    <time>2018-01-27T10:17:18Z</time>
   </trkpt>
   <trkpt lat="12.8999340" lon="99.6805660">
    <ele>108.0</ele>
    <time>2018-01-27T10:17:20Z</time>
   </trkpt>
   <trkpt lat="12.8999060" lon="99.6805610">
    <ele>108.0</ele>
    <time>2018-01-27T10:17:27Z</time>
   </trkpt>
   <trkpt lat="12.8998910" lon="99.6805850">
    <ele>107.9</ele>
    <time>2018-01-27T10:17:31Z</time>
   </trkpt>
  </trkseg>
 </trk>
</gpx>
